<?xml version='1.0' encoding='UTF-8'?><gpx version="1.1" creator="JPX - https://github.com/jenetics/jpx" xmlns="http://www.topografix.com/GPX/1/1"><trk><trkseg><trkpt lat="46.0729644" lon="9.3041169"><ele>207.00000000000003</ele><time>2026-04-07T06:29:15.668Z</time></trkpt><trkpt lat="46.0729182" lon="9.3041968"><ele>207.0</ele><time>2026-04-07T06:44:51.671Z</time></trkpt><trkpt lat="46.0729713" lon="9.3041363"><ele>207.0</ele><time>2026-04-07T06:46:11.673Z</time></trkpt><trkpt lat="46.0729655" lon="9.3040411"><ele>207.0</ele><time>2026-04-07T06:46:15.672Z</time></trkpt><trkpt lat="46.0729504" lon="9.3039326"><ele>207.0</ele><time>2026-04-07T06:46:20.671Z</time></trkpt><trkpt lat="46.0729274" lon="9.3038412"><ele>207.00000000000003</ele><time>2026-04-07T06:46:23.671Z</time></trkpt><trkpt lat="46.072895" lon="9.3037475"><ele>207.0</ele><time>2026-04-07T06:46:26.671Z</time></trkpt><trkpt lat="46.0728926" lon="9.3036171"><ele>207.0</ele><time>2026-04-07T06:46:29.673Z</time></trkpt><trkpt lat="46.0729139" lon="9.303508"><ele>207.0</ele><time>2026-04-07T06:46:31.67Z</time></trkpt><trkpt lat="46.0729345" lon="9.3034002"><ele>207.0</ele><time>2026-04-07T06:46:33.671Z</time></trkpt><trkpt lat="46.072951" lon="9.3032896"><ele>207.0</ele><time>2026-04-07T06:46:35.672Z</time></trkpt><trkpt lat="46.0729577" lon="9.3031711"><ele>207.0</ele><time>2026-04-07T06:46:37.671Z</time></trkpt><trkpt lat="46.0729771" lon="9.3030609"><ele>207.0</ele><time>2026-04-07T06:46:39.671Z</time></trkpt><trkpt lat="46.0729966" lon="9.3029532"><ele>207.0</ele><time>2026-04-07T06:46:41.671Z</time></trkpt><trkpt lat="46.0730609" lon="9.3028601"><ele>207.0</ele><time>2026-04-07T06:46:44.672Z</time></trkpt><trkpt lat="46.0731457" lon="9.3029035"><ele>207.0</ele><time>2026-04-07T06:46:47.67Z</time></trkpt><trkpt lat="46.0731949" lon="9.3030127"><ele>207.0</ele><time>2026-04-07T06:46:50.673Z</time></trkpt><trkpt lat="46.0732422" lon="9.3030946"><ele>207.0</ele><time>2026-04-07T06:46:53.671Z</time></trkpt><trkpt lat="46.0733077" lon="9.3031681"><ele>207.0</ele><time>2026-04-07T06:46:56.672Z</time></trkpt><trkpt lat="46.073349" lon="9.3032601"><ele>207.0</ele><time>2026-04-07T06:46:58.671Z</time></trkpt><trkpt lat="46.0733974" lon="9.3033495"><ele>207.0</ele><time>2026-04-07T06:47:00.671Z</time></trkpt><trkpt lat="46.0734167" lon="9.3034565"><ele>207.0</ele><time>2026-04-07T06:47:02.673Z</time></trkpt><trkpt lat="46.0734375" lon="9.3035654"><ele>207.0</ele><time>2026-04-07T06:47:04.67Z</time></trkpt><trkpt lat="46.0734769" lon="9.3036607"><ele>207.0</ele><time>2026-04-07T06:47:06.671Z</time></trkpt><trkpt lat="46.0735142" lon="9.303753"><ele>207.0</ele><time>2026-04-07T06:47:08.671Z</time></trkpt><trkpt lat="46.0735536" lon="9.3038405"><ele>207.33333333333334</ele><time>2026-04-07T06:47:10.671Z</time></trkpt><trkpt lat="46.0736012" lon="9.3039258"><ele>207.66666666666669</ele><time>2026-04-07T06:47:12.671Z</time></trkpt><trkpt lat="46.0736517" lon="9.3040141"><ele>208.0</ele><time>2026-04-07T06:47:14.67Z</time></trkpt><trkpt lat="46.0737034" lon="9.304094"><ele>208.33333333333334</ele><time>2026-04-07T06:47:16.673Z</time></trkpt><trkpt lat="46.073761" lon="9.3041708"><ele>208.66666666666669</ele><time>2026-04-07T06:47:18.672Z</time></trkpt><trkpt lat="46.0738108" lon="9.3042579"><ele>209.0</ele><time>2026-04-07T06:47:20.672Z</time></trkpt><trkpt lat="46.0738565" lon="9.3043428"><ele>209.00000000000003</ele><time>2026-04-07T06:47:22.673Z</time></trkpt><trkpt lat="46.0739054" lon="9.3044235"><ele>209.0</ele><time>2026-04-07T06:47:24.671Z</time></trkpt><trkpt lat="46.0739597" lon="9.3045046"><ele>209.0</ele><time>2026-04-07T06:47:26.673Z</time></trkpt><trkpt lat="46.0740006" lon="9.3045755"><ele>209.0</ele><time>2026-04-07T06:47:28.671Z</time></trkpt><trkpt lat="46.074048" lon="9.3046399"><ele>209.00000000000003</ele><time>2026-04-07T06:47:30.671Z</time></trkpt><trkpt lat="46.0741131" lon="9.3047527"><ele>209.0</ele><time>2026-04-07T06:47:33.672Z</time></trkpt><trkpt lat="46.0741657" lon="9.3048559"><ele>209.14285714285714</ele><time>2026-04-07T06:47:36.757Z</time></trkpt><trkpt lat="46.0742326" lon="9.3048926"><ele>209.28571428571428</ele><time>2026-04-07T06:47:55.672Z</time></trkpt><trkpt lat="46.0743053" lon="9.3048547"><ele>209.42857142857144</ele><time>2026-04-07T06:47:57.671Z</time></trkpt><trkpt lat="46.0743698" lon="9.3048357"><ele>209.57142857142856</ele><time>2026-04-07T06:47:59.671Z</time></trkpt><trkpt lat="46.0744358" lon="9.3048068"><ele>209.71428571428572</ele><time>2026-04-07T06:48:01.671Z</time></trkpt><trkpt lat="46.0745066" lon="9.3047646"><ele>209.85714285714286</ele><time>2026-04-07T06:48:03.672Z</time></trkpt><trkpt lat="46.074584" lon="9.304729"><ele>210.0</ele><time>2026-04-07T06:48:05.672Z</time></trkpt><trkpt lat="46.0746607" lon="9.3046838"><ele>209.8</ele><time>2026-04-07T06:48:07.672Z</time></trkpt><trkpt lat="46.0747848" lon="9.3046256"><ele>209.6</ele><time>2026-04-07T06:48:10.672Z</time></trkpt><trkpt lat="46.0748586" lon="9.3045966"><ele>209.39999999999998</ele><time>2026-04-07T06:48:12.672Z</time></trkpt><trkpt lat="46.0749413" lon="9.3045715"><ele>209.2</ele><time>2026-04-07T06:48:14.672Z</time></trkpt><trkpt lat="46.0750233" lon="9.3045398"><ele>209.0</ele><time>2026-04-07T06:48:16.671Z</time></trkpt><trkpt lat="46.0751035" lon="9.3045115"><ele>209.0</ele><time>2026-04-07T06:48:18.671Z</time></trkpt><trkpt lat="46.0751901" lon="9.3044848"><ele>209.0</ele><time>2026-04-07T06:48:20.671Z</time></trkpt><trkpt lat="46.0752746" lon="9.3044684"><ele>209.0</ele><time>2026-04-07T06:48:22.672Z</time></trkpt><trkpt lat="46.075368" lon="9.3044546"><ele>209.0</ele><time>2026-04-07T06:48:24.672Z</time></trkpt><trkpt lat="46.0754615" lon="9.3044443"><ele>209.0</ele><time>2026-04-07T06:48:26.672Z</time></trkpt><trkpt lat="46.075551" lon="9.3044357"><ele>209.0</ele><time>2026-04-07T06:48:28.749Z</time></trkpt><trkpt lat="46.0756408" lon="9.3044339"><ele>209.0</ele><time>2026-04-07T06:48:30.77Z</time></trkpt><trkpt lat="46.0757707" lon="9.3044226"><ele>209.0</ele><time>2026-04-07T06:48:33.672Z</time></trkpt><trkpt lat="46.0758593" lon="9.3044174"><ele>209.0</ele><time>2026-04-07T06:48:35.673Z</time></trkpt><trkpt lat="46.0759502" lon="9.3044911"><ele>209.0</ele><time>2026-04-07T06:48:39.726Z</time></trkpt><trkpt lat="46.0760221" lon="9.3044675"><ele>209.33333333333334</ele><time>2026-04-07T06:48:40.713Z</time></trkpt><trkpt lat="46.0760854" lon="9.3044619"><ele>209.66666666666669</ele><time>2026-04-07T06:48:41.77Z</time></trkpt><trkpt lat="46.076168" lon="9.3044776"><ele>210.0</ele><time>2026-04-07T06:48:43.672Z</time></trkpt><trkpt lat="46.0762601" lon="9.3045011"><ele>210.33333333333331</ele><time>2026-04-07T06:48:46.753Z</time></trkpt><trkpt lat="46.0763356" lon="9.3045042"><ele>210.66666666666666</ele><time>2026-04-07T06:49:12.673Z</time></trkpt><trkpt lat="46.0763986" lon="9.3045257"><ele>211.0</ele><time>2026-04-07T06:49:15.672Z</time></trkpt><trkpt lat="46.0764693" lon="9.3045538"><ele>211.0</ele><time>2026-04-07T06:49:17.672Z</time></trkpt><trkpt lat="46.0765402" lon="9.3045698"><ele>211.0</ele><time>2026-04-07T06:49:19.753Z</time></trkpt><trkpt lat="46.0766349" lon="9.3045817"><ele>211.0</ele><time>2026-04-07T06:49:21.765Z</time></trkpt><trkpt lat="46.0767544" lon="9.3045769"><ele>211.0</ele><time>2026-04-07T06:49:23.937Z</time></trkpt><trkpt lat="46.0768343" lon="9.3045914"><ele>211.0</ele><time>2026-04-07T06:49:25.672Z</time></trkpt><trkpt lat="46.0769366" lon="9.3046163"><ele>210.8</ele><time>2026-04-07T06:49:27.671Z</time></trkpt><trkpt lat="46.077029" lon="9.3046432"><ele>210.60000000000002</ele><time>2026-04-07T06:49:29.672Z</time></trkpt><trkpt lat="46.0771235" lon="9.3046504"><ele>210.4</ele><time>2026-04-07T06:49:31.673Z</time></trkpt><trkpt lat="46.0772094" lon="9.3046752"><ele>210.2</ele><time>2026-04-07T06:49:33.673Z</time></trkpt><trkpt lat="46.0773023" lon="9.3047029"><ele>210.0</ele><time>2026-04-07T06:49:35.672Z</time></trkpt><trkpt lat="46.0774073" lon="9.3047451"><ele>210.6</ele><time>2026-04-07T06:49:37.673Z</time></trkpt><trkpt lat="46.0775075" lon="9.3047912"><ele>211.2</ele><time>2026-04-07T06:49:39.672Z</time></trkpt><trkpt lat="46.0776064" lon="9.3048472"><ele>211.8</ele><time>2026-04-07T06:49:41.671Z</time></trkpt><trkpt lat="46.077698" lon="9.3049109"><ele>212.4</ele><time>2026-04-07T06:49:43.673Z</time></trkpt><trkpt lat="46.0777952" lon="9.3049705"><ele>213.0</ele><time>2026-04-07T06:49:45.671Z</time></trkpt><trkpt lat="46.0779037" lon="9.3050256"><ele>213.0</ele><time>2026-04-07T06:49:47.672Z</time></trkpt><trkpt lat="46.078002" lon="9.3051043"><ele>213.0</ele><time>2026-04-07T06:49:49.672Z</time></trkpt><trkpt lat="46.0781035" lon="9.3051854"><ele>213.0</ele><time>2026-04-07T06:49:51.672Z</time></trkpt><trkpt lat="46.078198" lon="9.3052719"><ele>213.0</ele><time>2026-04-07T06:49:53.672Z</time></trkpt><trkpt lat="46.0782743" lon="9.3053715"><ele>213.0</ele><time>2026-04-07T06:49:55.672Z</time></trkpt><trkpt lat="46.0783531" lon="9.3054748"><ele>213.2</ele><time>2026-04-07T06:49:57.671Z</time></trkpt><trkpt lat="46.0784262" lon="9.3055764"><ele>213.4</ele><time>2026-04-07T06:49:59.672Z</time></trkpt><trkpt lat="46.0784941" lon="9.3056844"><ele>213.59999999999997</ele><time>2026-04-07T06:50:01.672Z</time></trkpt><trkpt lat="46.0785694" lon="9.3057983"><ele>213.79999999999998</ele><time>2026-04-07T06:50:03.672Z</time></trkpt><trkpt lat="46.0786326" lon="9.3059245"><ele>214.0</ele><time>2026-04-07T06:50:05.672Z</time></trkpt><trkpt lat="46.0786887" lon="9.3060442"><ele>214.2</ele><time>2026-04-07T06:50:07.672Z</time></trkpt><trkpt lat="46.0787553" lon="9.3061627"><ele>214.39999999999998</ele><time>2026-04-07T06:50:09.671Z</time></trkpt><trkpt lat="46.078815" lon="9.3063023"><ele>214.6</ele><time>2026-04-07T06:50:11.671Z</time></trkpt><trkpt lat="46.0788763" lon="9.3064292"><ele>214.8</ele><time>2026-04-07T06:50:13.672Z</time></trkpt><trkpt lat="46.0789388" lon="9.3065569"><ele>215.0</ele><time>2026-04-07T06:50:15.673Z</time></trkpt><trkpt lat="46.0789909" lon="9.3066735"><ele>214.6</ele><time>2026-04-07T06:50:17.671Z</time></trkpt><trkpt lat="46.0790479" lon="9.3068021"><ele>214.2</ele><time>2026-04-07T06:50:19.673Z</time></trkpt><trkpt lat="46.0791105" lon="9.3069303"><ele>213.8</ele><time>2026-04-07T06:50:21.672Z</time></trkpt><trkpt lat="46.0791755" lon="9.3070459"><ele>213.4</ele><time>2026-04-07T06:50:23.672Z</time></trkpt><trkpt lat="46.0792362" lon="9.3071712"><ele>213.0</ele><time>2026-04-07T06:50:25.673Z</time></trkpt><trkpt lat="46.0793002" lon="9.3072972"><ele>212.8</ele><time>2026-04-07T06:50:27.672Z</time></trkpt><trkpt lat="46.0793637" lon="9.3074223"><ele>212.60000000000002</ele><time>2026-04-07T06:50:29.671Z</time></trkpt><trkpt lat="46.0794219" lon="9.3075471"><ele>212.39999999999998</ele><time>2026-04-07T06:50:31.672Z</time></trkpt><trkpt lat="46.0794772" lon="9.3076647"><ele>212.2</ele><time>2026-04-07T06:50:33.674Z</time></trkpt><trkpt lat="46.0795328" lon="9.3077955"><ele>212.0</ele><time>2026-04-07T06:50:35.672Z</time></trkpt><trkpt lat="46.0795979" lon="9.3079249"><ele>212.0</ele><time>2026-04-07T06:50:37.674Z</time></trkpt><trkpt lat="46.0796594" lon="9.3080466"><ele>212.0</ele><time>2026-04-07T06:50:39.671Z</time></trkpt><trkpt lat="46.0797163" lon="9.3081648"><ele>212.0</ele><time>2026-04-07T06:50:41.672Z</time></trkpt><trkpt lat="46.0797797" lon="9.3082967"><ele>212.0</ele><time>2026-04-07T06:50:43.673Z</time></trkpt><trkpt lat="46.0798356" lon="9.3084304"><ele>212.0</ele><time>2026-04-07T06:50:45.672Z</time></trkpt><trkpt lat="46.0798968" lon="9.3085653"><ele>212.2</ele><time>2026-04-07T06:50:47.671Z</time></trkpt><trkpt lat="46.0799644" lon="9.3086894"><ele>212.39999999999998</ele><time>2026-04-07T06:50:49.672Z</time></trkpt><trkpt lat="46.0800217" lon="9.3088035"><ele>212.60000000000002</ele><time>2026-04-07T06:50:51.672Z</time></trkpt><trkpt lat="46.0800841" lon="9.308936"><ele>212.8</ele><time>2026-04-07T06:50:53.672Z</time></trkpt><trkpt lat="46.0801465" lon="9.3090572"><ele>213.0</ele><time>2026-04-07T06:50:55.672Z</time></trkpt><trkpt lat="46.0802065" lon="9.3091832"><ele>213.2</ele><time>2026-04-07T06:50:57.674Z</time></trkpt><trkpt lat="46.0802642" lon="9.3093173"><ele>213.4</ele><time>2026-04-07T06:50:59.673Z</time></trkpt><trkpt lat="46.0803279" lon="9.3094463"><ele>213.59999999999997</ele><time>2026-04-07T06:51:01.671Z</time></trkpt><trkpt lat="46.0803949" lon="9.3095703"><ele>213.79999999999998</ele><time>2026-04-07T06:51:03.672Z</time></trkpt><trkpt lat="46.0804569" lon="9.3097053"><ele>214.0</ele><time>2026-04-07T06:51:05.673Z</time></trkpt><trkpt lat="46.0805192" lon="9.3098273"><ele>213.0</ele><time>2026-04-07T06:51:07.672Z</time></trkpt><trkpt lat="46.0805876" lon="9.3099517"><ele>211.99999999999997</ele><time>2026-04-07T06:51:09.673Z</time></trkpt><trkpt lat="46.0806406" lon="9.310084"><ele>211.0</ele><time>2026-04-07T06:51:11.672Z</time></trkpt><trkpt lat="46.080715" lon="9.3101994"><ele>210.0</ele><time>2026-04-07T06:51:13.672Z</time></trkpt><trkpt lat="46.080788" lon="9.3103094"><ele>209.0</ele><time>2026-04-07T06:51:15.674Z</time></trkpt><trkpt lat="46.0808722" lon="9.3104078"><ele>209.0</ele><time>2026-04-07T06:51:17.672Z</time></trkpt><trkpt lat="46.0809601" lon="9.3105023"><ele>209.0</ele><time>2026-04-07T06:51:19.674Z</time></trkpt><trkpt lat="46.081058" lon="9.3105832"><ele>209.0</ele><time>2026-04-07T06:51:21.672Z</time></trkpt><trkpt lat="46.0811506" lon="9.3106612"><ele>209.0</ele><time>2026-04-07T06:51:23.672Z</time></trkpt><trkpt lat="46.0812542" lon="9.31073"><ele>209.0</ele><time>2026-04-07T06:51:25.672Z</time></trkpt><trkpt lat="46.0813661" lon="9.3107961"><ele>210.0</ele><time>2026-04-07T06:51:27.672Z</time></trkpt><trkpt lat="46.0814745" lon="9.310839"><ele>211.0</ele><time>2026-04-07T06:51:29.671Z</time></trkpt><trkpt lat="46.0815934" lon="9.3108658"><ele>212.0</ele><time>2026-04-07T06:51:31.671Z</time></trkpt><trkpt lat="46.0817151" lon="9.3108782"><ele>213.0</ele><time>2026-04-07T06:51:33.672Z</time></trkpt><trkpt lat="46.0818361" lon="9.3108979"><ele>213.0</ele><time>2026-04-07T06:51:35.673Z</time></trkpt><trkpt lat="46.0819626" lon="9.3109185"><ele>213.0</ele><time>2026-04-07T06:51:37.671Z</time></trkpt><trkpt lat="46.0820317" lon="9.3109327"><ele>213.0</ele><time>2026-04-07T06:51:38.673Z</time></trkpt><trkpt lat="46.0820971" lon="9.3109507"><ele>213.0</ele><time>2026-04-07T06:51:39.672Z</time></trkpt><trkpt lat="46.0822186" lon="9.310991"><ele>213.0</ele><time>2026-04-07T06:51:41.672Z</time></trkpt><trkpt lat="46.082325" lon="9.3110472"><ele>213.0</ele><time>2026-04-07T06:51:43.673Z</time></trkpt><trkpt lat="46.0824298" lon="9.3111157"><ele>213.0</ele><time>2026-04-07T06:51:45.674Z</time></trkpt><trkpt lat="46.0825401" lon="9.3112044"><ele>213.0</ele><time>2026-04-07T06:51:47.673Z</time></trkpt><trkpt lat="46.0826486" lon="9.3112741"><ele>213.0</ele><time>2026-04-07T06:51:49.672Z</time></trkpt><trkpt lat="46.0827681" lon="9.3113098"><ele>212.66666666666666</ele><time>2026-04-07T06:51:51.671Z</time></trkpt><trkpt lat="46.0828375" lon="9.311311"><ele>212.33333333333331</ele><time>2026-04-07T06:51:52.672Z</time></trkpt><trkpt lat="46.0829015" lon="9.3113015"><ele>212.0</ele><time>2026-04-07T06:51:53.673Z</time></trkpt><trkpt lat="46.082969" lon="9.3112843"><ele>211.66666666666666</ele><time>2026-04-07T06:51:54.672Z</time></trkpt><trkpt lat="46.0830904" lon="9.3112494"><ele>211.33333333333331</ele><time>2026-04-07T06:51:56.674Z</time></trkpt><trkpt lat="46.0832113" lon="9.3112234"><ele>211.0</ele><time>2026-04-07T06:51:58.672Z</time></trkpt><trkpt lat="46.0833303" lon="9.3111961"><ele>211.0</ele><time>2026-04-07T06:52:00.672Z</time></trkpt><trkpt lat="46.083453" lon="9.3111632"><ele>211.0</ele><time>2026-04-07T06:52:02.673Z</time></trkpt><trkpt lat="46.083577" lon="9.3111387"><ele>211.0</ele><time>2026-04-07T06:52:04.673Z</time></trkpt><trkpt lat="46.0836949" lon="9.3111181"><ele>211.0</ele><time>2026-04-07T06:52:06.674Z</time></trkpt><trkpt lat="46.0838091" lon="9.3110998"><ele>211.0</ele><time>2026-04-07T06:52:08.673Z</time></trkpt><trkpt lat="46.0839779" lon="9.3110524"><ele>211.0</ele><time>2026-04-07T06:52:11.672Z</time></trkpt><trkpt lat="46.084094" lon="9.3110203"><ele>211.0</ele><time>2026-04-07T06:52:13.673Z</time></trkpt><trkpt lat="46.0842104" lon="9.3110027"><ele>211.0</ele><time>2026-04-07T06:52:15.673Z</time></trkpt><trkpt lat="46.0843233" lon="9.310965"><ele>212.75</ele><time>2026-04-07T06:52:17.672Z</time></trkpt><trkpt lat="46.0844393" lon="9.3109343"><ele>214.5</ele><time>2026-04-07T06:52:19.672Z</time></trkpt><trkpt lat="46.0845621" lon="9.3109056"><ele>216.25</ele><time>2026-04-07T06:52:21.672Z</time></trkpt><trkpt lat="46.0846845" lon="9.3108672"><ele>218.0</ele><time>2026-04-07T06:52:23.673Z</time></trkpt><trkpt lat="46.0848019" lon="9.3108273"><ele>218.0</ele><time>2026-04-07T06:52:25.671Z</time></trkpt><trkpt lat="46.0849218" lon="9.3107791"><ele>218.0</ele><time>2026-04-07T06:52:27.672Z</time></trkpt><trkpt lat="46.0850263" lon="9.3107249"><ele>218.0</ele><time>2026-04-07T06:52:29.672Z</time></trkpt><trkpt lat="46.0851337" lon="9.3106738"><ele>218.0</ele><time>2026-04-07T06:52:31.673Z</time></trkpt><trkpt lat="46.0852407" lon="9.3106281"><ele>215.0</ele><time>2026-04-07T06:52:33.671Z</time></trkpt><trkpt lat="46.0853486" lon="9.31057"><ele>212.0</ele><time>2026-04-07T06:52:35.672Z</time></trkpt><trkpt lat="46.0854542" lon="9.3105142"><ele>209.0</ele><time>2026-04-07T06:52:37.673Z</time></trkpt><trkpt lat="46.0855559" lon="9.310458"><ele>206.0</ele><time>2026-04-07T06:52:39.674Z</time></trkpt><trkpt lat="46.085649" lon="9.3104137"><ele>203.0</ele><time>2026-04-07T06:52:41.671Z</time></trkpt><trkpt lat="46.0857385" lon="9.3103642"><ele>203.60000000000002</ele><time>2026-04-07T06:52:43.672Z</time></trkpt><trkpt lat="46.0858301" lon="9.3103389"><ele>204.20000000000002</ele><time>2026-04-07T06:52:45.673Z</time></trkpt><trkpt lat="46.0859216" lon="9.3103075"><ele>204.8</ele><time>2026-04-07T06:52:47.672Z</time></trkpt><trkpt lat="46.0860156" lon="9.3102765"><ele>205.4</ele><time>2026-04-07T06:52:49.673Z</time></trkpt><trkpt lat="46.0861033" lon="9.3102377"><ele>206.0</ele><time>2026-04-07T06:52:51.673Z</time></trkpt><trkpt lat="46.0861923" lon="9.3102003"><ele>206.00000000000003</ele><time>2026-04-07T06:52:53.671Z</time></trkpt><trkpt lat="46.0862783" lon="9.3101664"><ele>206.0</ele><time>2026-04-07T06:52:55.672Z</time></trkpt><trkpt lat="46.0863611" lon="9.3101339"><ele>206.0</ele><time>2026-04-07T06:52:57.673Z</time></trkpt><trkpt lat="46.0864461" lon="9.3101235"><ele>206.0</ele><time>2026-04-07T06:52:59.672Z</time></trkpt><trkpt lat="46.0865414" lon="9.3101142"><ele>206.00000000000003</ele><time>2026-04-07T06:53:01.672Z</time></trkpt><trkpt lat="46.0866286" lon="9.3101006"><ele>206.0</ele><time>2026-04-07T06:53:03.673Z</time></trkpt><trkpt lat="46.0867234" lon="9.3101123"><ele>208.4</ele><time>2026-04-07T06:53:05.754Z</time></trkpt><trkpt lat="46.0868116" lon="9.3101218"><ele>210.8</ele><time>2026-04-07T06:53:07.748Z</time></trkpt><trkpt lat="46.0868979" lon="9.3101031"><ele>213.20000000000002</ele><time>2026-04-07T06:53:09.673Z</time></trkpt><trkpt lat="46.0870267" lon="9.3100622"><ele>215.60000000000002</ele><time>2026-04-07T06:53:12.672Z</time></trkpt><trkpt lat="46.0871131" lon="9.3100714"><ele>218.0</ele><time>2026-04-07T06:53:14.672Z</time></trkpt><trkpt lat="46.0872028" lon="9.310096"><ele>218.00000000000003</ele><time>2026-04-07T06:53:16.672Z</time></trkpt><trkpt lat="46.0872842" lon="9.3101436"><ele>218.0</ele><time>2026-04-07T06:53:18.673Z</time></trkpt><trkpt lat="46.0873646" lon="9.310229"><ele>218.0</ele><time>2026-04-07T06:53:21.757Z</time></trkpt><trkpt lat="46.0874476" lon="9.3102835"><ele>218.0</ele><time>2026-04-07T06:53:23.672Z</time></trkpt><trkpt lat="46.0875231" lon="9.3103358"><ele>218.00000000000003</ele><time>2026-04-07T06:53:25.673Z</time></trkpt><trkpt lat="46.0875803" lon="9.3103834"><ele>218.0</ele><time>2026-04-07T06:53:27.672Z</time></trkpt><trkpt lat="46.0876359" lon="9.310432"><ele>217.16666666666669</ele><time>2026-04-07T06:53:29.671Z</time></trkpt><trkpt lat="46.087693" lon="9.3104728"><ele>216.33333333333334</ele><time>2026-04-07T06:53:31.673Z</time></trkpt><trkpt lat="46.0877535" lon="9.3105178"><ele>215.5</ele><time>2026-04-07T06:53:33.674Z</time></trkpt><trkpt lat="46.0878261" lon="9.3105765"><ele>214.66666666666669</ele><time>2026-04-07T06:53:35.752Z</time></trkpt><trkpt lat="46.0878889" lon="9.3106258"><ele>213.83333333333334</ele><time>2026-04-07T06:53:37.76Z</time></trkpt><trkpt lat="46.0879785" lon="9.3106934"><ele>213.0</ele><time>2026-04-07T06:53:40.773Z</time></trkpt><trkpt lat="46.0880379" lon="9.3107387"><ele>215.16666666666666</ele><time>2026-04-07T06:53:42.776Z</time></trkpt><trkpt lat="46.0881002" lon="9.3107991"><ele>217.33333333333331</ele><time>2026-04-07T06:53:45.053Z</time></trkpt><trkpt lat="46.0881756" lon="9.3108749"><ele>219.5</ele><time>2026-04-07T06:53:47.77Z</time></trkpt><trkpt lat="46.0882279" lon="9.310933"><ele>221.66666666666666</ele><time>2026-04-07T06:53:49.673Z</time></trkpt><trkpt lat="46.0882921" lon="9.3109813"><ele>223.83333333333331</ele><time>2026-04-07T06:53:51.781Z</time></trkpt><trkpt lat="46.0883637" lon="9.3110104"><ele>226.0</ele><time>2026-04-07T06:53:53.767Z</time></trkpt><trkpt lat="46.0884388" lon="9.311029"><ele>225.99999999999997</ele><time>2026-04-07T06:53:55.673Z</time></trkpt><trkpt lat="46.0885079" lon="9.3110711"><ele>226.0</ele><time>2026-04-07T06:53:57.773Z</time></trkpt><trkpt lat="46.0885751" lon="9.3111362"><ele>226.0</ele><time>2026-04-07T06:54:00.044Z</time></trkpt><trkpt lat="46.0886615" lon="9.3112203"><ele>226.0</ele><time>2026-04-07T06:54:02.771Z</time></trkpt><trkpt lat="46.0887319" lon="9.3112866"><ele>225.99999999999997</ele><time>2026-04-07T06:54:05.353Z</time></trkpt><trkpt lat="46.0887996" lon="9.3113389"><ele>226.0</ele><time>2026-04-07T06:54:07.767Z</time></trkpt><trkpt lat="46.0888905" lon="9.3113836"><ele>228.14285714285717</ele><time>2026-04-07T06:54:10.672Z</time></trkpt><trkpt lat="46.0889588" lon="9.3114194"><ele>230.28571428571428</ele><time>2026-04-07T06:54:12.755Z</time></trkpt><trkpt lat="46.089025" lon="9.3114342"><ele>232.42857142857144</ele><time>2026-04-07T06:54:14.772Z</time></trkpt><trkpt lat="46.0890934" lon="9.3114443"><ele>234.57142857142858</ele><time>2026-04-07T06:54:16.628Z</time></trkpt><trkpt lat="46.0891725" lon="9.3114555"><ele>236.71428571428572</ele><time>2026-04-07T06:54:18.775Z</time></trkpt><trkpt lat="46.0892526" lon="9.3114573"><ele>238.85714285714286</ele><time>2026-04-07T06:54:20.972Z</time></trkpt><trkpt lat="46.0893232" lon="9.3114598"><ele>241.0</ele><time>2026-04-07T06:54:22.779Z</time></trkpt><trkpt lat="46.0894045" lon="9.3114614"><ele>241.0</ele><time>2026-04-07T06:54:24.76Z</time></trkpt><trkpt lat="46.0894868" lon="9.3114565"><ele>241.00000000000003</ele><time>2026-04-07T06:54:26.672Z</time></trkpt><trkpt lat="46.089577" lon="9.3114592"><ele>241.00000000000003</ele><time>2026-04-07T06:54:28.768Z</time></trkpt><trkpt lat="46.0897113" lon="9.3114761"><ele>241.0</ele><time>2026-04-07T06:54:31.673Z</time></trkpt><trkpt lat="46.0898013" lon="9.3115048"><ele>241.0</ele><time>2026-04-07T06:54:33.674Z</time></trkpt><trkpt lat="46.0899077" lon="9.3115342"><ele>241.20000000000002</ele><time>2026-04-07T06:54:35.673Z</time></trkpt><trkpt lat="46.0900156" lon="9.3115714"><ele>241.40000000000003</ele><time>2026-04-07T06:54:37.673Z</time></trkpt><trkpt lat="46.0901245" lon="9.311611"><ele>241.6</ele><time>2026-04-07T06:54:39.673Z</time></trkpt><trkpt lat="46.0902495" lon="9.3116498"><ele>241.8</ele><time>2026-04-07T06:54:41.674Z</time></trkpt><trkpt lat="46.0903129" lon="9.3116733"><ele>242.0</ele><time>2026-04-07T06:54:42.673Z</time></trkpt><trkpt lat="46.0903752" lon="9.3116969"><ele>242.00000000000003</ele><time>2026-04-07T06:54:43.673Z</time></trkpt><trkpt lat="46.0905009" lon="9.311744"><ele>242.0</ele><time>2026-04-07T06:54:45.673Z</time></trkpt><trkpt lat="46.0905665" lon="9.3117705"><ele>242.0</ele><time>2026-04-07T06:54:46.672Z</time></trkpt><trkpt lat="46.0906302" lon="9.3117961"><ele>242.0</ele><time>2026-04-07T06:54:47.672Z</time></trkpt><trkpt lat="46.0906902" lon="9.3118354"><ele>242.00000000000003</ele><time>2026-04-07T06:54:48.673Z</time></trkpt><trkpt lat="46.0907517" lon="9.3118759"><ele>242.0</ele><time>2026-04-07T06:54:49.674Z</time></trkpt><trkpt lat="46.0908138" lon="9.3119312"><ele>239.28571428571428</ele><time>2026-04-07T06:54:50.674Z</time></trkpt><trkpt lat="46.0908714" lon="9.3119895"><ele>236.57142857142856</ele><time>2026-04-07T06:54:51.672Z</time></trkpt><trkpt lat="46.0909303" lon="9.312059"><ele>233.85714285714283</ele><time>2026-04-07T06:54:52.672Z</time></trkpt><trkpt lat="46.0909911" lon="9.3121252"><ele>231.14285714285714</ele><time>2026-04-07T06:54:53.673Z</time></trkpt><trkpt lat="46.0910511" lon="9.3121895"><ele>228.42857142857142</ele><time>2026-04-07T06:54:54.672Z</time></trkpt><trkpt lat="46.0911111" lon="9.312251"><ele>225.71428571428572</ele><time>2026-04-07T06:54:55.674Z</time></trkpt><trkpt lat="46.0911717" lon="9.3123112"><ele>223.0</ele><time>2026-04-07T06:54:56.673Z</time></trkpt><trkpt lat="46.0912337" lon="9.3123702"><ele>223.42857142857142</ele><time>2026-04-07T06:54:57.673Z</time></trkpt><trkpt lat="46.0912925" lon="9.3124208"><ele>223.85714285714283</ele><time>2026-04-07T06:54:58.673Z</time></trkpt><trkpt lat="46.0913594" lon="9.3124639"><ele>224.28571428571428</ele><time>2026-04-07T06:54:59.673Z</time></trkpt><trkpt lat="46.0914289" lon="9.3125039"><ele>224.71428571428572</ele><time>2026-04-07T06:55:00.673Z</time></trkpt><trkpt lat="46.0914991" lon="9.3125337"><ele>225.14285714285714</ele><time>2026-04-07T06:55:01.673Z</time></trkpt><trkpt lat="46.0915641" lon="9.3125593"><ele>225.57142857142858</ele><time>2026-04-07T06:55:02.673Z</time></trkpt><trkpt lat="46.0916314" lon="9.3125865"><ele>226.0</ele><time>2026-04-07T06:55:03.673Z</time></trkpt><trkpt lat="46.0917002" lon="9.3126135"><ele>226.0</ele><time>2026-04-07T06:55:04.672Z</time></trkpt><trkpt lat="46.0917689" lon="9.3126404"><ele>226.0</ele><time>2026-04-07T06:55:05.673Z</time></trkpt><trkpt lat="46.0918359" lon="9.3126688"><ele>226.0</ele><time>2026-04-07T06:55:06.674Z</time></trkpt><trkpt lat="46.0919019" lon="9.3127048"><ele>226.0</ele><time>2026-04-07T06:55:07.673Z</time></trkpt><trkpt lat="46.0919709" lon="9.3127514"><ele>226.0</ele><time>2026-04-07T06:55:08.673Z</time></trkpt><trkpt lat="46.0920377" lon="9.3128019"><ele>226.0</ele><time>2026-04-07T06:55:09.673Z</time></trkpt><trkpt lat="46.092105" lon="9.3128557"><ele>226.0</ele><time>2026-04-07T06:55:10.674Z</time></trkpt><trkpt lat="46.0921761" lon="9.3129048"><ele>225.99999999999997</ele><time>2026-04-07T06:55:11.673Z</time></trkpt><trkpt lat="46.0922503" lon="9.3129549"><ele>226.0</ele><time>2026-04-07T06:55:12.673Z</time></trkpt><trkpt lat="46.092322" lon="9.3130053"><ele>226.0</ele><time>2026-04-07T06:55:13.673Z</time></trkpt><trkpt lat="46.0923914" lon="9.3130561"><ele>226.0</ele><time>2026-04-07T06:55:14.673Z</time></trkpt><trkpt lat="46.0924626" lon="9.3131093"><ele>225.99999999999997</ele><time>2026-04-07T06:55:15.674Z</time></trkpt><trkpt lat="46.092536" lon="9.3131601"><ele>226.0</ele><time>2026-04-07T06:55:16.673Z</time></trkpt><trkpt lat="46.0926077" lon="9.3132178"><ele>226.33333333333331</ele><time>2026-04-07T06:55:17.674Z</time></trkpt><trkpt lat="46.09268" lon="9.3132743"><ele>226.66666666666666</ele><time>2026-04-07T06:55:18.674Z</time></trkpt><trkpt lat="46.0927513" lon="9.313332"><ele>227.0</ele><time>2026-04-07T06:55:19.674Z</time></trkpt><trkpt lat="46.0928242" lon="9.3133861"><ele>227.33333333333331</ele><time>2026-04-07T06:55:20.672Z</time></trkpt><trkpt lat="46.0928947" lon="9.3134431"><ele>227.66666666666666</ele><time>2026-04-07T06:55:21.674Z</time></trkpt><trkpt lat="46.0929614" lon="9.3134983"><ele>228.0</ele><time>2026-04-07T06:55:22.673Z</time></trkpt><trkpt lat="46.0930293" lon="9.3135605"><ele>228.0</ele><time>2026-04-07T06:55:23.674Z</time></trkpt><trkpt lat="46.0930933" lon="9.313623"><ele>228.0</ele><time>2026-04-07T06:55:24.673Z</time></trkpt><trkpt lat="46.0931592" lon="9.3136832"><ele>228.0</ele><time>2026-04-07T06:55:25.673Z</time></trkpt><trkpt lat="46.0932258" lon="9.3137335"><ele>228.0</ele><time>2026-04-07T06:55:26.672Z</time></trkpt><trkpt lat="46.0932887" lon="9.3137889"><ele>228.0</ele><time>2026-04-07T06:55:27.673Z</time></trkpt><trkpt lat="46.0933507" lon="9.3138485"><ele>228.0</ele><time>2026-04-07T06:55:28.673Z</time></trkpt><trkpt lat="46.0934119" lon="9.3139006"><ele>228.83333333333334</ele><time>2026-04-07T06:55:29.674Z</time></trkpt><trkpt lat="46.0934734" lon="9.3139564"><ele>229.66666666666669</ele><time>2026-04-07T06:55:30.673Z</time></trkpt><trkpt lat="46.0935431" lon="9.3140134"><ele>230.5</ele><time>2026-04-07T06:55:31.674Z</time></trkpt><trkpt lat="46.0936131" lon="9.3140682"><ele>231.33333333333334</ele><time>2026-04-07T06:55:32.673Z</time></trkpt><trkpt lat="46.0936753" lon="9.3141195"><ele>232.16666666666669</ele><time>2026-04-07T06:55:33.674Z</time></trkpt><trkpt lat="46.0937387" lon="9.3141811"><ele>233.0</ele><time>2026-04-07T06:55:34.673Z</time></trkpt><trkpt lat="46.0938057" lon="9.3142523"><ele>233.00000000000003</ele><time>2026-04-07T06:55:35.673Z</time></trkpt><trkpt lat="46.093867" lon="9.3143307"><ele>233.0</ele><time>2026-04-07T06:55:36.674Z</time></trkpt><trkpt lat="46.0939223" lon="9.3144164"><ele>233.0</ele><time>2026-04-07T06:55:37.673Z</time></trkpt><trkpt lat="46.0939779" lon="9.3145013"><ele>233.0</ele><time>2026-04-07T06:55:38.673Z</time></trkpt><trkpt lat="46.0940303" lon="9.3145917"><ele>233.00000000000003</ele><time>2026-04-07T06:55:39.673Z</time></trkpt><trkpt lat="46.0940811" lon="9.3146745"><ele>233.0</ele><time>2026-04-07T06:55:40.672Z</time></trkpt><trkpt lat="46.094138" lon="9.3147548"><ele>231.85714285714286</ele><time>2026-04-07T06:55:41.673Z</time></trkpt><trkpt lat="46.0941943" lon="9.3148322"><ele>230.71428571428572</ele><time>2026-04-07T06:55:42.674Z</time></trkpt><trkpt lat="46.0942454" lon="9.3149146"><ele>229.57142857142858</ele><time>2026-04-07T06:55:43.673Z</time></trkpt><trkpt lat="46.0942942" lon="9.3149916"><ele>228.42857142857144</ele><time>2026-04-07T06:55:44.673Z</time></trkpt><trkpt lat="46.0943423" lon="9.3150656"><ele>227.28571428571428</ele><time>2026-04-07T06:55:45.673Z</time></trkpt><trkpt lat="46.0943918" lon="9.3151392"><ele>226.14285714285717</ele><time>2026-04-07T06:55:46.674Z</time></trkpt><trkpt lat="46.0944374" lon="9.3152109"><ele>225.00000000000003</ele><time>2026-04-07T06:55:47.673Z</time></trkpt><trkpt lat="46.0944864" lon="9.3152829"><ele>225.00000000000003</ele><time>2026-04-07T06:55:48.673Z</time></trkpt><trkpt lat="46.0945366" lon="9.3153588"><ele>225.0</ele><time>2026-04-07T06:55:49.673Z</time></trkpt><trkpt lat="46.0945911" lon="9.3154332"><ele>225.00000000000003</ele><time>2026-04-07T06:55:50.674Z</time></trkpt><trkpt lat="46.09464" lon="9.3155056"><ele>225.00000000000003</ele><time>2026-04-07T06:55:51.673Z</time></trkpt><trkpt lat="46.0946908" lon="9.3155806"><ele>225.0</ele><time>2026-04-07T06:55:52.673Z</time></trkpt><trkpt lat="46.0947437" lon="9.3156553"><ele>225.00000000000003</ele><time>2026-04-07T06:55:53.673Z</time></trkpt><trkpt lat="46.0947913" lon="9.315734"><ele>225.00000000000003</ele><time>2026-04-07T06:55:54.673Z</time></trkpt><trkpt lat="46.0948393" lon="9.3158131"><ele>224.00000000000003</ele><time>2026-04-07T06:55:55.673Z</time></trkpt><trkpt lat="46.0948859" lon="9.3158871"><ele>223.0</ele><time>2026-04-07T06:55:56.672Z</time></trkpt><trkpt lat="46.094932" lon="9.3159554"><ele>222.0</ele><time>2026-04-07T06:55:57.672Z</time></trkpt><trkpt lat="46.0949775" lon="9.3160257"><ele>221.0</ele><time>2026-04-07T06:55:58.673Z</time></trkpt><trkpt lat="46.0950257" lon="9.3160898"><ele>220.0</ele><time>2026-04-07T06:55:59.674Z</time></trkpt><trkpt lat="46.0950766" lon="9.3161558"><ele>219.0</ele><time>2026-04-07T06:56:00.673Z</time></trkpt><trkpt lat="46.0951303" lon="9.3162099"><ele>218.0</ele><time>2026-04-07T06:56:01.673Z</time></trkpt><trkpt lat="46.0951884" lon="9.3162578"><ele>218.0</ele><time>2026-04-07T06:56:02.674Z</time></trkpt><trkpt lat="46.0952461" lon="9.3163033"><ele>218.0</ele><time>2026-04-07T06:56:03.675Z</time></trkpt><trkpt lat="46.0953106" lon="9.3163443"><ele>218.0</ele><time>2026-04-07T06:56:04.673Z</time></trkpt><trkpt lat="46.0953739" lon="9.3163743"><ele>218.0</ele><time>2026-04-07T06:56:05.674Z</time></trkpt><trkpt lat="46.0954438" lon="9.3163977"><ele>218.0</ele><time>2026-04-07T06:56:06.674Z</time></trkpt><trkpt lat="46.0955143" lon="9.3164147"><ele>218.0</ele><time>2026-04-07T06:56:07.674Z</time></trkpt><trkpt lat="46.0955762" lon="9.3164336"><ele>218.0</ele><time>2026-04-07T06:56:08.674Z</time></trkpt><trkpt lat="46.0956999" lon="9.3164693"><ele>219.2</ele><time>2026-04-07T06:56:10.673Z</time></trkpt><trkpt lat="46.0958124" lon="9.316506"><ele>220.4</ele><time>2026-04-07T06:56:12.673Z</time></trkpt><trkpt lat="46.0958746" lon="9.3165229"><ele>221.59999999999997</ele><time>2026-04-07T06:56:13.673Z</time></trkpt><trkpt lat="46.0959998" lon="9.3165704"><ele>222.79999999999998</ele><time>2026-04-07T06:56:15.673Z</time></trkpt><trkpt lat="46.0960696" lon="9.3165953"><ele>224.0</ele><time>2026-04-07T06:56:16.674Z</time></trkpt><trkpt lat="46.096185" lon="9.3166417"><ele>224.0</ele><time>2026-04-07T06:56:18.674Z</time></trkpt><trkpt lat="46.0963042" lon="9.316683"><ele>223.99999999999997</ele><time>2026-04-07T06:56:20.674Z</time></trkpt><trkpt lat="46.0964278" lon="9.3167125"><ele>223.99999999999997</ele><time>2026-04-07T06:56:22.674Z</time></trkpt><trkpt lat="46.0964909" lon="9.316717"><ele>224.0</ele><time>2026-04-07T06:56:23.674Z</time></trkpt><trkpt lat="46.0965545" lon="9.3167091"><ele>224.0</ele><time>2026-04-07T06:56:24.673Z</time></trkpt><trkpt lat="46.096678" lon="9.3166848"><ele>223.66666666666669</ele><time>2026-04-07T06:56:26.675Z</time></trkpt><trkpt lat="46.0967997" lon="9.3166524"><ele>223.33333333333334</ele><time>2026-04-07T06:56:28.674Z</time></trkpt><trkpt lat="46.0968621" lon="9.3166344"><ele>223.0</ele><time>2026-04-07T06:56:29.673Z</time></trkpt><trkpt lat="46.0969257" lon="9.3166162"><ele>222.66666666666669</ele><time>2026-04-07T06:56:30.674Z</time></trkpt><trkpt lat="46.096992" lon="9.3165988"><ele>222.33333333333334</ele><time>2026-04-07T06:56:31.674Z</time></trkpt><trkpt lat="46.0970612" lon="9.3165877"><ele>222.0</ele><time>2026-04-07T06:56:32.674Z</time></trkpt><trkpt lat="46.0971289" lon="9.3165911"><ele>222.0</ele><time>2026-04-07T06:56:33.673Z</time></trkpt><trkpt lat="46.0971946" lon="9.316599"><ele>222.0</ele><time>2026-04-07T06:56:34.674Z</time></trkpt><trkpt lat="46.0972606" lon="9.3166166"><ele>222.0</ele><time>2026-04-07T06:56:35.673Z</time></trkpt><trkpt lat="46.0973245" lon="9.3166422"><ele>222.0</ele><time>2026-04-07T06:56:36.674Z</time></trkpt><trkpt lat="46.0973862" lon="9.3166703"><ele>222.0</ele><time>2026-04-07T06:56:37.674Z</time></trkpt><trkpt lat="46.097446" lon="9.3167019"><ele>222.0</ele><time>2026-04-07T06:56:38.673Z</time></trkpt><trkpt lat="46.0975548" lon="9.3167878"><ele>221.0</ele><time>2026-04-07T06:56:40.673Z</time></trkpt><trkpt lat="46.0976084" lon="9.3168383"><ele>220.0</ele><time>2026-04-07T06:56:41.674Z</time></trkpt><trkpt lat="46.0977105" lon="9.3169341"><ele>219.0</ele><time>2026-04-07T06:56:43.674Z</time></trkpt><trkpt lat="46.0977985" lon="9.3170057"><ele>218.0</ele><time>2026-04-07T06:56:46.039Z</time></trkpt><trkpt lat="46.0979073" lon="9.3170648"><ele>217.0</ele><time>2026-04-07T06:56:47.673Z</time></trkpt><trkpt lat="46.0979674" lon="9.3170923"><ele>217.0</ele><time>2026-04-07T06:56:48.673Z</time></trkpt><trkpt lat="46.0980809" lon="9.3171364"><ele>217.0</ele><time>2026-04-07T06:56:50.674Z</time></trkpt><trkpt lat="46.0982014" lon="9.3171535"><ele>217.0</ele><time>2026-04-07T06:56:52.673Z</time></trkpt><trkpt lat="46.0983173" lon="9.317143"><ele>217.0</ele><time>2026-04-07T06:56:54.673Z</time></trkpt><trkpt lat="46.0984424" lon="9.3171384"><ele>215.66666666666666</ele><time>2026-04-07T06:56:56.673Z</time></trkpt><trkpt lat="46.098568" lon="9.3171353"><ele>214.33333333333331</ele><time>2026-04-07T06:56:58.673Z</time></trkpt><trkpt lat="46.0986318" lon="9.3171314"><ele>213.0</ele><time>2026-04-07T06:56:59.673Z</time></trkpt><trkpt lat="46.0987511" lon="9.3171349"><ele>211.66666666666669</ele><time>2026-04-07T06:57:01.674Z</time></trkpt><trkpt lat="46.0988143" lon="9.3171351"><ele>210.33333333333334</ele><time>2026-04-07T06:57:02.674Z</time></trkpt><trkpt lat="46.0988795" lon="9.317137"><ele>209.0</ele><time>2026-04-07T06:57:03.673Z</time></trkpt><trkpt lat="46.0989429" lon="9.3171434"><ele>209.0</ele><time>2026-04-07T06:57:04.673Z</time></trkpt><trkpt lat="46.0990643" lon="9.3171524"><ele>209.0</ele><time>2026-04-07T06:57:06.675Z</time></trkpt><trkpt lat="46.0991917" lon="9.317156"><ele>209.0</ele><time>2026-04-07T06:57:08.672Z</time></trkpt><trkpt lat="46.0992551" lon="9.3171555"><ele>209.0</ele><time>2026-04-07T06:57:09.672Z</time></trkpt><trkpt lat="46.099377" lon="9.3171489"><ele>209.0</ele><time>2026-04-07T06:57:11.674Z</time></trkpt><trkpt lat="46.0994993" lon="9.3171514"><ele>208.75</ele><time>2026-04-07T06:57:13.674Z</time></trkpt><trkpt lat="46.0996233" lon="9.3171522"><ele>208.5</ele><time>2026-04-07T06:57:15.674Z</time></trkpt><trkpt lat="46.099748" lon="9.317163"><ele>208.25</ele><time>2026-04-07T06:57:17.673Z</time></trkpt><trkpt lat="46.0998664" lon="9.3171792"><ele>208.0</ele><time>2026-04-07T06:57:19.674Z</time></trkpt><trkpt lat="46.099971" lon="9.3172108"><ele>210.99999999999997</ele><time>2026-04-07T06:57:21.674Z</time></trkpt><trkpt lat="46.1000856" lon="9.3172552"><ele>214.0</ele><time>2026-04-07T06:57:23.673Z</time></trkpt><trkpt lat="46.1001506" lon="9.3172883"><ele>217.0</ele><time>2026-04-07T06:57:24.673Z</time></trkpt><trkpt lat="46.1002563" lon="9.3173529"><ele>220.0</ele><time>2026-04-07T06:57:26.674Z</time></trkpt><trkpt lat="46.1003174" lon="9.3174043"><ele>222.99999999999997</ele><time>2026-04-07T06:57:27.675Z</time></trkpt><trkpt lat="46.1003726" lon="9.317448"><ele>226.0</ele><time>2026-04-07T06:57:28.674Z</time></trkpt><trkpt lat="46.10043" lon="9.3174866"><ele>226.0</ele><time>2026-04-07T06:57:29.673Z</time></trkpt><trkpt lat="46.1005346" lon="9.3175591"><ele>226.0</ele><time>2026-04-07T06:57:31.674Z</time></trkpt><trkpt lat="46.1006403" lon="9.3176212"><ele>226.0</ele><time>2026-04-07T06:57:33.674Z</time></trkpt><trkpt lat="46.1007523" lon="9.3176967"><ele>226.0</ele><time>2026-04-07T06:57:35.674Z</time></trkpt><trkpt lat="46.1008606" lon="9.317778"><ele>227.20000000000002</ele><time>2026-04-07T06:57:37.672Z</time></trkpt><trkpt lat="46.1009179" lon="9.3178198"><ele>228.40000000000003</ele><time>2026-04-07T06:57:38.674Z</time></trkpt><trkpt lat="46.1010337" lon="9.3178906"><ele>229.6</ele><time>2026-04-07T06:57:40.672Z</time></trkpt><trkpt lat="46.1011397" lon="9.3179773"><ele>230.8</ele><time>2026-04-07T06:57:42.674Z</time></trkpt><trkpt lat="46.1011962" lon="9.3180177"><ele>232.0</ele><time>2026-04-07T06:57:43.674Z</time></trkpt><trkpt lat="46.1013078" lon="9.3180875"><ele>232.0</ele><time>2026-04-07T06:57:45.673Z</time></trkpt><trkpt lat="46.1014166" lon="9.3181588"><ele>232.0</ele><time>2026-04-07T06:57:47.673Z</time></trkpt><trkpt lat="46.1015201" lon="9.3182286"><ele>232.0</ele><time>2026-04-07T06:57:49.674Z</time></trkpt><trkpt lat="46.1016304" lon="9.3183046"><ele>232.0</ele><time>2026-04-07T06:57:51.674Z</time></trkpt><trkpt lat="46.1016899" lon="9.3183495"><ele>232.0</ele><time>2026-04-07T06:57:52.674Z</time></trkpt><trkpt lat="46.1017902" lon="9.3184469"><ele>233.2</ele><time>2026-04-07T06:57:54.674Z</time></trkpt><trkpt lat="46.1018578" lon="9.318522"><ele>234.39999999999998</ele><time>2026-04-07T06:57:56.57Z</time></trkpt><trkpt lat="46.101919" lon="9.3186097"><ele>235.60000000000002</ele><time>2026-04-07T06:57:57.673Z</time></trkpt><trkpt lat="46.1019554" lon="9.3186859"><ele>236.8</ele><time>2026-04-07T06:57:58.674Z</time></trkpt><trkpt lat="46.1020275" lon="9.3188219"><ele>238.0</ele><time>2026-04-07T06:58:00.674Z</time></trkpt><trkpt lat="46.102114" lon="9.3189536"><ele>237.99999999999997</ele><time>2026-04-07T06:58:02.674Z</time></trkpt><trkpt lat="46.1021982" lon="9.3190832"><ele>238.0</ele><time>2026-04-07T06:58:04.673Z</time></trkpt><trkpt lat="46.1022673" lon="9.3191582"><ele>238.0</ele><time>2026-04-07T06:58:06.68Z</time></trkpt><trkpt lat="46.1023258" lon="9.3191979"><ele>238.0</ele><time>2026-04-07T06:58:07.674Z</time></trkpt><trkpt lat="46.1023804" lon="9.3192571"><ele>237.99999999999997</ele><time>2026-04-07T06:58:08.674Z</time></trkpt><trkpt lat="46.1024328" lon="9.31931"><ele>238.0</ele><time>2026-04-07T06:58:09.673Z</time></trkpt><trkpt lat="46.1024906" lon="9.3193575"><ele>237.83333333333331</ele><time>2026-04-07T06:58:10.674Z</time></trkpt><trkpt lat="46.1025438" lon="9.3194132"><ele>237.66666666666666</ele><time>2026-04-07T06:58:11.674Z</time></trkpt><trkpt lat="46.1025977" lon="9.3194684"><ele>237.5</ele><time>2026-04-07T06:58:12.673Z</time></trkpt><trkpt lat="46.1027035" lon="9.3195686"><ele>237.33333333333331</ele><time>2026-04-07T06:58:14.674Z</time></trkpt><trkpt lat="46.1027582" lon="9.3196147"><ele>237.16666666666666</ele><time>2026-04-07T06:58:15.673Z</time></trkpt><trkpt lat="46.102861" lon="9.3196942"><ele>237.0</ele><time>2026-04-07T06:58:17.674Z</time></trkpt><trkpt lat="46.1029661" lon="9.31978"><ele>237.0</ele><time>2026-04-07T06:58:19.674Z</time></trkpt><trkpt lat="46.1030682" lon="9.3198561"><ele>237.0</ele><time>2026-04-07T06:58:21.675Z</time></trkpt><trkpt lat="46.1031169" lon="9.3199248"><ele>237.0</ele><time>2026-04-07T06:58:22.674Z</time></trkpt><trkpt lat="46.1031719" lon="9.3199728"><ele>237.0</ele><time>2026-04-07T06:58:23.674Z</time></trkpt><trkpt lat="46.103265" lon="9.3200747"><ele>237.0</ele><time>2026-04-07T06:58:25.675Z</time></trkpt><trkpt lat="46.1033589" lon="9.3201637"><ele>232.2</ele><time>2026-04-07T06:58:27.674Z</time></trkpt><trkpt lat="46.1034658" lon="9.320254"><ele>227.39999999999998</ele><time>2026-04-07T06:58:29.674Z</time></trkpt><trkpt lat="46.1035213" lon="9.3202987"><ele>222.60000000000002</ele><time>2026-04-07T06:58:30.673Z</time></trkpt><trkpt lat="46.1035789" lon="9.3203424"><ele>217.8</ele><time>2026-04-07T06:58:31.672Z</time></trkpt><trkpt lat="46.1036731" lon="9.3204406"><ele>213.0</ele><time>2026-04-07T06:58:33.673Z</time></trkpt><trkpt lat="46.1037728" lon="9.320534"><ele>214.33333333333334</ele><time>2026-04-07T06:58:35.673Z</time></trkpt><trkpt lat="46.1038709" lon="9.3206189"><ele>215.66666666666669</ele><time>2026-04-07T06:58:37.672Z</time></trkpt><trkpt lat="46.103926" lon="9.3206699"><ele>217.0</ele><time>2026-04-07T06:58:38.674Z</time></trkpt><trkpt lat="46.1039804" lon="9.3207222"><ele>218.33333333333334</ele><time>2026-04-07T06:58:39.674Z</time></trkpt><trkpt lat="46.1040343" lon="9.3207705"><ele>219.66666666666669</ele><time>2026-04-07T06:58:40.674Z</time></trkpt><trkpt lat="46.1041444" lon="9.3208607"><ele>221.0</ele><time>2026-04-07T06:58:42.672Z</time></trkpt><trkpt lat="46.1042025" lon="9.3209026"><ele>221.00000000000003</ele><time>2026-04-07T06:58:43.674Z</time></trkpt><trkpt lat="46.104262" lon="9.3209406"><ele>221.0</ele><time>2026-04-07T06:58:44.673Z</time></trkpt><trkpt lat="46.1043274" lon="9.3209742"><ele>221.0</ele><time>2026-04-07T06:58:45.673Z</time></trkpt><trkpt lat="46.1043874" lon="9.3210103"><ele>221.0</ele><time>2026-04-07T06:58:46.675Z</time></trkpt><trkpt lat="46.1045018" lon="9.3210622"><ele>221.00000000000003</ele><time>2026-04-07T06:58:48.674Z</time></trkpt><trkpt lat="46.1046152" lon="9.3211134"><ele>221.0</ele><time>2026-04-07T06:58:50.673Z</time></trkpt><trkpt lat="46.1047227" lon="9.3211611"><ele>221.0</ele><time>2026-04-07T06:58:52.674Z</time></trkpt><trkpt lat="46.1048399" lon="9.3212036"><ele>221.0</ele><time>2026-04-07T06:58:54.675Z</time></trkpt><trkpt lat="46.1049549" lon="9.3212161"><ele>221.0</ele><time>2026-04-07T06:58:56.675Z</time></trkpt><trkpt lat="46.1050599" lon="9.3211899"><ele>221.0</ele><time>2026-04-07T06:58:58.674Z</time></trkpt><trkpt lat="46.1051647" lon="9.321152"><ele>220.8</ele><time>2026-04-07T06:59:00.674Z</time></trkpt><trkpt lat="46.1052757" lon="9.3211228"><ele>220.60000000000002</ele><time>2026-04-07T06:59:02.675Z</time></trkpt><trkpt lat="46.1053828" lon="9.3210925"><ele>220.4</ele><time>2026-04-07T06:59:04.673Z</time></trkpt><trkpt lat="46.1054887" lon="9.3210702"><ele>220.2</ele><time>2026-04-07T06:59:06.674Z</time></trkpt><trkpt lat="46.1055894" lon="9.3210395"><ele>220.0</ele><time>2026-04-07T06:59:08.673Z</time></trkpt><trkpt lat="46.1056826" lon="9.3210003"><ele>219.0</ele><time>2026-04-07T06:59:10.674Z</time></trkpt><trkpt lat="46.1057768" lon="9.3209503"><ele>218.0</ele><time>2026-04-07T06:59:12.674Z</time></trkpt><trkpt lat="46.1058679" lon="9.320895"><ele>217.0</ele><time>2026-04-07T06:59:14.674Z</time></trkpt><trkpt lat="46.1059644" lon="9.3208508"><ele>216.0</ele><time>2026-04-07T06:59:16.674Z</time></trkpt><trkpt lat="46.1060656" lon="9.3208198"><ele>215.0</ele><time>2026-04-07T06:59:18.674Z</time></trkpt><trkpt lat="46.1061602" lon="9.3207753"><ele>215.0</ele><time>2026-04-07T06:59:20.673Z</time></trkpt><trkpt lat="46.1062511" lon="9.3207326"><ele>215.0</ele><time>2026-04-07T06:59:22.674Z</time></trkpt><trkpt lat="46.1063437" lon="9.3206942"><ele>215.0</ele><time>2026-04-07T06:59:24.674Z</time></trkpt><trkpt lat="46.1064357" lon="9.320645"><ele>215.0</ele><time>2026-04-07T06:59:26.674Z</time></trkpt><trkpt lat="46.1065237" lon="9.3205887"><ele>215.0</ele><time>2026-04-07T06:59:28.674Z</time></trkpt><trkpt lat="46.1066047" lon="9.3205274"><ele>214.8</ele><time>2026-04-07T06:59:30.674Z</time></trkpt><trkpt lat="46.106688" lon="9.3204663"><ele>214.6</ele><time>2026-04-07T06:59:32.674Z</time></trkpt><trkpt lat="46.106771" lon="9.3204133"><ele>214.39999999999998</ele><time>2026-04-07T06:59:34.675Z</time></trkpt><trkpt lat="46.1068438" lon="9.3203442"><ele>214.2</ele><time>2026-04-07T06:59:36.675Z</time></trkpt><trkpt lat="46.1069213" lon="9.3202795"><ele>214.0</ele><time>2026-04-07T06:59:38.675Z</time></trkpt><trkpt lat="46.1070311" lon="9.3201973"><ele>213.99999999999997</ele><time>2026-04-07T06:59:41.674Z</time></trkpt><trkpt lat="46.1071094" lon="9.3201529"><ele>214.0</ele><time>2026-04-07T06:59:43.675Z</time></trkpt><trkpt lat="46.1071861" lon="9.3200994"><ele>214.0</ele><time>2026-04-07T06:59:45.673Z</time></trkpt><trkpt lat="46.1072739" lon="9.3200715"><ele>214.0</ele><time>2026-04-07T06:59:47.788Z</time></trkpt><trkpt lat="46.1073518" lon="9.3200413"><ele>213.99999999999997</ele><time>2026-04-07T06:59:49.762Z</time></trkpt><trkpt lat="46.1074289" lon="9.3200258"><ele>214.0</ele><time>2026-04-07T06:59:51.674Z</time></trkpt><trkpt lat="46.1075129" lon="9.3200064"><ele>216.16666666666666</ele><time>2026-04-07T06:59:53.773Z</time></trkpt><trkpt lat="46.1075859" lon="9.3199952"><ele>218.33333333333331</ele><time>2026-04-07T06:59:55.712Z</time></trkpt><trkpt lat="46.1076645" lon="9.3199819"><ele>220.5</ele><time>2026-04-07T06:59:57.673Z</time></trkpt><trkpt lat="46.1077438" lon="9.3199506"><ele>222.66666666666669</ele><time>2026-04-07T06:59:59.674Z</time></trkpt><trkpt lat="46.1078204" lon="9.3199099"><ele>224.83333333333334</ele><time>2026-04-07T07:00:01.675Z</time></trkpt><trkpt lat="46.1079009" lon="9.3198809"><ele>227.0</ele><time>2026-04-07T07:00:03.795Z</time></trkpt><trkpt lat="46.1079835" lon="9.3198622"><ele>227.00000000000003</ele><time>2026-04-07T07:00:05.779Z</time></trkpt><trkpt lat="46.1081094" lon="9.3198211"><ele>227.0</ele><time>2026-04-07T07:00:08.776Z</time></trkpt><trkpt lat="46.1081862" lon="9.3197885"><ele>227.0</ele><time>2026-04-07T07:00:10.757Z</time></trkpt><trkpt lat="46.1082637" lon="9.3197706"><ele>227.0</ele><time>2026-04-07T07:00:12.674Z</time></trkpt><trkpt lat="46.1083486" lon="9.3197415"><ele>227.00000000000003</ele><time>2026-04-07T07:00:14.765Z</time></trkpt><trkpt lat="46.1084209" lon="9.3197394"><ele>227.0</ele><time>2026-04-07T07:00:16.674Z</time></trkpt><trkpt lat="46.108506" lon="9.3197283"><ele>224.66666666666669</ele><time>2026-04-07T07:00:18.783Z</time></trkpt><trkpt lat="46.1086302" lon="9.3197022"><ele>222.33333333333334</ele><time>2026-04-07T07:00:21.77Z</time></trkpt><trkpt lat="46.1087059" lon="9.3196737"><ele>220.0</ele><time>2026-04-07T07:00:23.665Z</time></trkpt><trkpt lat="46.1087885" lon="9.319649"><ele>217.66666666666669</ele><time>2026-04-07T07:00:25.761Z</time></trkpt><trkpt lat="46.1088595" lon="9.3196425"><ele>215.33333333333334</ele><time>2026-04-07T07:00:27.688Z</time></trkpt><trkpt lat="46.1089323" lon="9.3196272"><ele>213.0</ele><time>2026-04-07T07:00:29.674Z</time></trkpt><trkpt lat="46.1090129" lon="9.3196058"><ele>215.8</ele><time>2026-04-07T07:00:31.759Z</time></trkpt><trkpt lat="46.1090885" lon="9.3195907"><ele>218.60000000000002</ele><time>2026-04-07T07:00:33.675Z</time></trkpt><trkpt lat="46.1092074" lon="9.3195321"><ele>221.39999999999998</ele><time>2026-04-07T07:00:36.764Z</time></trkpt><trkpt lat="46.1092709" lon="9.3194356"><ele>224.2</ele><time>2026-04-07T07:00:38.865Z</time></trkpt><trkpt lat="46.1093519" lon="9.31933"><ele>227.0</ele><time>2026-04-07T07:00:41.291Z</time></trkpt><trkpt lat="46.1094004" lon="9.3192661"><ele>227.0</ele><time>2026-04-07T07:00:42.776Z</time></trkpt><trkpt lat="46.1094966" lon="9.3191406"><ele>227.0</ele><time>2026-04-07T07:00:45.767Z</time></trkpt><trkpt lat="46.1095558" lon="9.3190612"><ele>227.0</ele><time>2026-04-07T07:00:47.756Z</time></trkpt><trkpt lat="46.1096181" lon="9.3189852"><ele>227.0</ele><time>2026-04-07T07:00:49.674Z</time></trkpt><trkpt lat="46.1096888" lon="9.3189107"><ele>227.0</ele><time>2026-04-07T07:00:51.722Z</time></trkpt><trkpt lat="46.1097559" lon="9.3188344"><ele>226.33333333333334</ele><time>2026-04-07T07:00:53.771Z</time></trkpt><trkpt lat="46.1098165" lon="9.3187672"><ele>225.66666666666669</ele><time>2026-04-07T07:00:55.686Z</time></trkpt><trkpt lat="46.109874" lon="9.3186936"><ele>225.0</ele><time>2026-04-07T07:00:57.673Z</time></trkpt><trkpt lat="46.1099325" lon="9.318619"><ele>224.33333333333331</ele><time>2026-04-07T07:00:59.674Z</time></trkpt><trkpt lat="46.1099955" lon="9.3185361"><ele>223.66666666666666</ele><time>2026-04-07T07:01:01.775Z</time></trkpt><trkpt lat="46.1100599" lon="9.3184671"><ele>223.0</ele><time>2026-04-07T07:01:03.714Z</time></trkpt><trkpt lat="46.1101224" lon="9.3184156"><ele>222.99999999999997</ele><time>2026-04-07T07:01:05.468Z</time></trkpt><trkpt lat="46.1102038" lon="9.3183601"><ele>223.0</ele><time>2026-04-07T07:01:07.781Z</time></trkpt><trkpt lat="46.1102723" lon="9.3183268"><ele>223.0</ele><time>2026-04-07T07:01:09.675Z</time></trkpt><trkpt lat="46.1103541" lon="9.3183029"><ele>223.0</ele><time>2026-04-07T07:01:11.761Z</time></trkpt><trkpt lat="46.1104323" lon="9.3183"><ele>222.99999999999997</ele><time>2026-04-07T07:01:13.772Z</time></trkpt><trkpt lat="46.1105071" lon="9.3183041"><ele>223.0</ele><time>2026-04-07T07:01:15.674Z</time></trkpt><trkpt lat="46.1105905" lon="9.3183056"><ele>222.99999999999997</ele><time>2026-04-07T07:01:17.78Z</time></trkpt><trkpt lat="46.1106626" lon="9.3183031"><ele>223.0</ele><time>2026-04-07T07:01:19.752Z</time></trkpt><trkpt lat="46.1107303" lon="9.3182727"><ele>223.0</ele><time>2026-04-07T07:01:21.675Z</time></trkpt><trkpt lat="46.1108" lon="9.3182223"><ele>223.0</ele><time>2026-04-07T07:01:23.735Z</time></trkpt><trkpt lat="46.1108563" lon="9.3181323"><ele>222.99999999999997</ele><time>2026-04-07T07:01:25.673Z</time></trkpt><trkpt lat="46.1109181" lon="9.3180496"><ele>223.0</ele><time>2026-04-07T07:01:27.732Z</time></trkpt><trkpt lat="46.1109741" lon="9.3179656"><ele>224.66666666666666</ele><time>2026-04-07T07:01:29.76Z</time></trkpt><trkpt lat="46.1110313" lon="9.3178805"><ele>226.33333333333331</ele><time>2026-04-07T07:01:31.91Z</time></trkpt><trkpt lat="46.1110904" lon="9.3178102"><ele>228.0</ele><time>2026-04-07T07:01:33.775Z</time></trkpt><trkpt lat="46.111153" lon="9.317733"><ele>229.66666666666669</ele><time>2026-04-07T07:01:35.761Z</time></trkpt><trkpt lat="46.1112128" lon="9.3176568"><ele>231.33333333333334</ele><time>2026-04-07T07:01:37.675Z</time></trkpt><trkpt lat="46.1112752" lon="9.3175766"><ele>233.0</ele><time>2026-04-07T07:01:39.765Z</time></trkpt><trkpt lat="46.1113359" lon="9.3175166"><ele>233.00000000000003</ele><time>2026-04-07T07:01:41.651Z</time></trkpt><trkpt lat="46.1114038" lon="9.3174462"><ele>233.0</ele><time>2026-04-07T07:01:43.777Z</time></trkpt><trkpt lat="46.1114592" lon="9.3173595"><ele>233.0</ele><time>2026-04-07T07:01:45.774Z</time></trkpt><trkpt lat="46.1115122" lon="9.3172815"><ele>233.0</ele><time>2026-04-07T07:01:47.674Z</time></trkpt><trkpt lat="46.1115744" lon="9.3172044"><ele>233.00000000000003</ele><time>2026-04-07T07:01:49.775Z</time></trkpt><trkpt lat="46.1116331" lon="9.3171421"><ele>233.0</ele><time>2026-04-07T07:01:51.759Z</time></trkpt><trkpt lat="46.1116927" lon="9.3170776"><ele>233.66666666666669</ele><time>2026-04-07T07:01:53.752Z</time></trkpt><trkpt lat="46.1117587" lon="9.317014"><ele>234.33333333333334</ele><time>2026-04-07T07:01:55.675Z</time></trkpt><trkpt lat="46.1118312" lon="9.3169488"><ele>235.0</ele><time>2026-04-07T07:01:57.764Z</time></trkpt><trkpt lat="46.1118998" lon="9.3169056"><ele>235.66666666666669</ele><time>2026-04-07T07:01:59.674Z</time></trkpt><trkpt lat="46.1119808" lon="9.3168642"><ele>236.33333333333334</ele><time>2026-04-07T07:02:01.77Z</time></trkpt><trkpt lat="46.1120511" lon="9.3168455"><ele>237.0</ele><time>2026-04-07T07:02:03.673Z</time></trkpt><trkpt lat="46.1121306" lon="9.3168244"><ele>236.99999999999997</ele><time>2026-04-07T07:02:05.752Z</time></trkpt><trkpt lat="46.1122041" lon="9.3168138"><ele>237.0</ele><time>2026-04-07T07:02:07.675Z</time></trkpt><trkpt lat="46.1122809" lon="9.3168134"><ele>236.99999999999997</ele><time>2026-04-07T07:02:09.676Z</time></trkpt><trkpt lat="46.112356" lon="9.3168168"><ele>236.99999999999997</ele><time>2026-04-07T07:02:11.674Z</time></trkpt><trkpt lat="46.1124279" lon="9.3168178"><ele>237.0</ele><time>2026-04-07T07:02:13.67Z</time></trkpt><trkpt lat="46.1124962" lon="9.3168157"><ele>236.99999999999997</ele><time>2026-04-07T07:02:15.675Z</time></trkpt><trkpt lat="46.1125611" lon="9.3168179"><ele>236.99999999999997</ele><time>2026-04-07T07:02:17.673Z</time></trkpt><trkpt lat="46.1126606" lon="9.3168056"><ele>238.85714285714283</ele><time>2026-04-07T07:02:20.675Z</time></trkpt><trkpt lat="46.1127268" lon="9.3167921"><ele>240.71428571428572</ele><time>2026-04-07T07:02:22.647Z</time></trkpt><trkpt lat="46.1127917" lon="9.3167787"><ele>242.57142857142856</ele><time>2026-04-07T07:02:24.674Z</time></trkpt><trkpt lat="46.1128538" lon="9.316762"><ele>244.42857142857142</ele><time>2026-04-07T07:02:26.675Z</time></trkpt><trkpt lat="46.1129165" lon="9.3167488"><ele>246.28571428571428</ele><time>2026-04-07T07:02:28.674Z</time></trkpt><trkpt lat="46.1130083" lon="9.3167307"><ele>248.14285714285714</ele><time>2026-04-07T07:02:31.604Z</time></trkpt><trkpt lat="46.1130992" lon="9.3167081"><ele>250.0</ele><time>2026-04-07T07:02:34.675Z</time></trkpt><trkpt lat="46.1131631" lon="9.3166944"><ele>250.0</ele><time>2026-04-07T07:02:36.676Z</time></trkpt><trkpt lat="46.1132294" lon="9.3166849"><ele>250.0</ele><time>2026-04-07T07:02:38.675Z</time></trkpt><trkpt lat="46.1132977" lon="9.3166882"><ele>250.0</ele><time>2026-04-07T07:02:40.674Z</time></trkpt><trkpt lat="46.1133625" lon="9.316693"><ele>250.0</ele><time>2026-04-07T07:02:42.674Z</time></trkpt><trkpt lat="46.1134304" lon="9.3167056"><ele>250.0</ele><time>2026-04-07T07:02:44.673Z</time></trkpt><trkpt lat="46.1134924" lon="9.3167341"><ele>250.0</ele><time>2026-04-07T07:02:46.674Z</time></trkpt><trkpt lat="46.1135527" lon="9.3167709"><ele>250.0</ele><time>2026-04-07T07:02:48.674Z</time></trkpt><trkpt lat="46.113609" lon="9.3168122"><ele>250.66666666666666</ele><time>2026-04-07T07:02:50.674Z</time></trkpt><trkpt lat="46.1136878" lon="9.316895"><ele>251.33333333333331</ele><time>2026-04-07T07:02:53.777Z</time></trkpt><trkpt lat="46.1137465" lon="9.3169638"><ele>252.0</ele><time>2026-04-07T07:02:56.347Z</time></trkpt><trkpt lat="46.113804" lon="9.3170303"><ele>252.66666666666669</ele><time>2026-04-07T07:02:58.691Z</time></trkpt><trkpt lat="46.113882" lon="9.3170995"><ele>253.33333333333334</ele><time>2026-04-07T07:03:01.674Z</time></trkpt><trkpt lat="46.1139412" lon="9.31715"><ele>254.0</ele><time>2026-04-07T07:03:03.776Z</time></trkpt><trkpt lat="46.1140147" lon="9.3172144"><ele>254.14285714285717</ele><time>2026-04-07T07:03:06.674Z</time></trkpt><trkpt lat="46.1140721" lon="9.3172685"><ele>254.28571428571428</ele><time>2026-04-07T07:03:08.742Z</time></trkpt><trkpt lat="46.1141273" lon="9.3173279"><ele>254.42857142857144</ele><time>2026-04-07T07:03:10.752Z</time></trkpt><trkpt lat="46.1141726" lon="9.3173986"><ele>254.57142857142858</ele><time>2026-04-07T07:03:12.674Z</time></trkpt><trkpt lat="46.1142214" lon="9.3174748"><ele>254.71428571428572</ele><time>2026-04-07T07:03:14.771Z</time></trkpt><trkpt lat="46.1142554" lon="9.3175527"><ele>254.85714285714286</ele><time>2026-04-07T07:03:16.673Z</time></trkpt><trkpt lat="46.1142944" lon="9.3176448"><ele>255.0</ele><time>2026-04-07T07:03:18.777Z</time></trkpt><trkpt lat="46.1143281" lon="9.317724"><ele>255.0</ele><time>2026-04-07T07:03:20.745Z</time></trkpt><trkpt lat="46.1143704" lon="9.3178498"><ele>255.0</ele><time>2026-04-07T07:03:23.675Z</time></trkpt><trkpt lat="46.1143988" lon="9.3179439"><ele>255.0</ele><time>2026-04-07T07:03:25.777Z</time></trkpt><trkpt lat="46.1144233" lon="9.3180399"><ele>255.0</ele><time>2026-04-07T07:03:27.889Z</time></trkpt><trkpt lat="46.1144496" lon="9.3181925"><ele>255.0</ele><time>2026-04-07T07:03:30.768Z</time></trkpt><trkpt lat="46.1144657" lon="9.3182962"><ele>255.0</ele><time>2026-04-07T07:03:32.674Z</time></trkpt><trkpt lat="46.1144883" lon="9.3184201"><ele>256.0</ele><time>2026-04-07T07:03:34.771Z</time></trkpt><trkpt lat="46.1145107" lon="9.3186037"><ele>257.0</ele><time>2026-04-07T07:03:37.675Z</time></trkpt><trkpt lat="46.1145077" lon="9.3187589"><ele>258.0</ele><time>2026-04-07T07:03:39.674Z</time></trkpt><trkpt lat="46.114508" lon="9.3189291"><ele>259.0</ele><time>2026-04-07T07:03:41.675Z</time></trkpt><trkpt lat="46.1145047" lon="9.3191079"><ele>259.8333333333333</ele><time>2026-04-07T07:03:43.675Z</time></trkpt><trkpt lat="46.114501" lon="9.3192067"><ele>260.66666666666663</ele><time>2026-04-07T07:03:44.676Z</time></trkpt><trkpt lat="46.1144961" lon="9.3193117"><ele>261.5</ele><time>2026-04-07T07:03:45.674Z</time></trkpt><trkpt lat="46.1144917" lon="9.3194147"><ele>262.3333333333333</ele><time>2026-04-07T07:03:46.675Z</time></trkpt><trkpt lat="46.1144879" lon="9.3195252"><ele>263.1666666666667</ele><time>2026-04-07T07:03:47.675Z</time></trkpt><trkpt lat="46.1144896" lon="9.319641"><ele>264.0</ele><time>2026-04-07T07:03:48.675Z</time></trkpt><trkpt lat="46.1144851" lon="9.3197565"><ele>264.0</ele><time>2026-04-07T07:03:49.675Z</time></trkpt><trkpt lat="46.1144787" lon="9.31987"><ele>264.0</ele><time>2026-04-07T07:03:50.674Z</time></trkpt><trkpt lat="46.1144724" lon="9.3199932"><ele>264.0</ele><time>2026-04-07T07:03:51.674Z</time></trkpt><trkpt lat="46.1144673" lon="9.3201174"><ele>264.0</ele><time>2026-04-07T07:03:52.675Z</time></trkpt><trkpt lat="46.114464" lon="9.3202462"><ele>264.0</ele><time>2026-04-07T07:03:53.674Z</time></trkpt><trkpt lat="46.1144617" lon="9.3203767"><ele>264.0</ele><time>2026-04-07T07:03:54.675Z</time></trkpt><trkpt lat="46.1144602" lon="9.3205098"><ele>264.59999999999997</ele><time>2026-04-07T07:03:55.675Z</time></trkpt><trkpt lat="46.1144574" lon="9.3206471"><ele>265.2</ele><time>2026-04-07T07:03:56.674Z</time></trkpt><trkpt lat="46.1144599" lon="9.3207828"><ele>265.79999999999995</ele><time>2026-04-07T07:03:57.673Z</time></trkpt><trkpt lat="46.1144592" lon="9.32092"><ele>266.4</ele><time>2026-04-07T07:03:58.674Z</time></trkpt><trkpt lat="46.1144542" lon="9.3210585"><ele>267.0</ele><time>2026-04-07T07:03:59.675Z</time></trkpt><trkpt lat="46.1144439" lon="9.3211988"><ele>267.0</ele><time>2026-04-07T07:04:00.676Z</time></trkpt><trkpt lat="46.1144401" lon="9.3213363"><ele>267.0</ele><time>2026-04-07T07:04:01.675Z</time></trkpt><trkpt lat="46.1144366" lon="9.3214746"><ele>267.0</ele><time>2026-04-07T07:04:02.675Z</time></trkpt><trkpt lat="46.1144303" lon="9.3216163"><ele>267.0</ele><time>2026-04-07T07:04:03.674Z</time></trkpt><trkpt lat="46.1144278" lon="9.3217587"><ele>267.0</ele><time>2026-04-07T07:04:04.675Z</time></trkpt><trkpt lat="46.1144268" lon="9.3218997"><ele>267.4</ele><time>2026-04-07T07:04:05.674Z</time></trkpt><trkpt lat="46.1144316" lon="9.3220424"><ele>267.79999999999995</ele><time>2026-04-07T07:04:06.674Z</time></trkpt><trkpt lat="46.1144387" lon="9.3221829"><ele>268.2</ele><time>2026-04-07T07:04:07.674Z</time></trkpt><trkpt lat="46.114446" lon="9.3223249"><ele>268.59999999999997</ele><time>2026-04-07T07:04:08.675Z</time></trkpt><trkpt lat="46.1144582" lon="9.3224642"><ele>269.0</ele><time>2026-04-07T07:04:09.675Z</time></trkpt><trkpt lat="46.1144657" lon="9.3226037"><ele>269.2</ele><time>2026-04-07T07:04:10.675Z</time></trkpt><trkpt lat="46.1144688" lon="9.3227462"><ele>269.4</ele><time>2026-04-07T07:04:11.675Z</time></trkpt><trkpt lat="46.1144757" lon="9.3228882"><ele>269.6</ele><time>2026-04-07T07:04:12.675Z</time></trkpt><trkpt lat="46.1144881" lon="9.3230348"><ele>269.8</ele><time>2026-04-07T07:04:13.676Z</time></trkpt><trkpt lat="46.1145004" lon="9.3231725"><ele>270.0</ele><time>2026-04-07T07:04:14.674Z</time></trkpt><trkpt lat="46.1145257" lon="9.3233158"><ele>269.8</ele><time>2026-04-07T07:04:15.675Z</time></trkpt><trkpt lat="46.1145586" lon="9.3234573"><ele>269.6</ele><time>2026-04-07T07:04:16.676Z</time></trkpt><trkpt lat="46.1145935" lon="9.3235961"><ele>269.4</ele><time>2026-04-07T07:04:17.675Z</time></trkpt><trkpt lat="46.1146229" lon="9.3237338"><ele>269.2</ele><time>2026-04-07T07:04:18.674Z</time></trkpt><trkpt lat="46.1146385" lon="9.3238829"><ele>269.0</ele><time>2026-04-07T07:04:19.676Z</time></trkpt><trkpt lat="46.1146512" lon="9.3240323"><ele>269.0</ele><time>2026-04-07T07:04:20.674Z</time></trkpt><trkpt lat="46.1146535" lon="9.3241803"><ele>269.0</ele><time>2026-04-07T07:04:21.676Z</time></trkpt><trkpt lat="46.1146437" lon="9.3243304"><ele>269.0</ele><time>2026-04-07T07:04:22.673Z</time></trkpt><trkpt lat="46.1146279" lon="9.3244767"><ele>269.0</ele><time>2026-04-07T07:04:23.675Z</time></trkpt><trkpt lat="46.1145906" lon="9.3246158"><ele>269.0</ele><time>2026-04-07T07:04:24.674Z</time></trkpt><trkpt lat="46.1145393" lon="9.3247501"><ele>266.0</ele><time>2026-04-07T07:04:25.675Z</time></trkpt><trkpt lat="46.1144738" lon="9.3248803"><ele>263.0</ele><time>2026-04-07T07:04:26.675Z</time></trkpt><trkpt lat="46.1144041" lon="9.325002"><ele>260.0</ele><time>2026-04-07T07:04:27.676Z</time></trkpt><trkpt lat="46.1143375" lon="9.3251268"><ele>257.0</ele><time>2026-04-07T07:04:28.674Z</time></trkpt><trkpt lat="46.1142729" lon="9.3252609"><ele>254.0</ele><time>2026-04-07T07:04:29.675Z</time></trkpt><trkpt lat="46.1142223" lon="9.3253948"><ele>254.0</ele><time>2026-04-07T07:04:30.674Z</time></trkpt><trkpt lat="46.1141846" lon="9.3255293"><ele>253.99999999999997</ele><time>2026-04-07T07:04:31.675Z</time></trkpt><trkpt lat="46.1141521" lon="9.3256633"><ele>253.99999999999997</ele><time>2026-04-07T07:04:32.675Z</time></trkpt><trkpt lat="46.1141226" lon="9.3258009"><ele>254.0</ele><time>2026-04-07T07:04:33.674Z</time></trkpt><trkpt lat="46.1140938" lon="9.3259322"><ele>254.0</ele><time>2026-04-07T07:04:34.675Z</time></trkpt><trkpt lat="46.1140635" lon="9.3260653"><ele>260.4</ele><time>2026-04-07T07:04:35.676Z</time></trkpt><trkpt lat="46.1140315" lon="9.3261949"><ele>266.79999999999995</ele><time>2026-04-07T07:04:36.674Z</time></trkpt><trkpt lat="46.1140004" lon="9.3263213"><ele>273.20000000000005</ele><time>2026-04-07T07:04:37.674Z</time></trkpt><trkpt lat="46.113975" lon="9.3264464"><ele>279.6</ele><time>2026-04-07T07:04:38.675Z</time></trkpt><trkpt lat="46.1139479" lon="9.3265687"><ele>286.0</ele><time>2026-04-07T07:04:39.675Z</time></trkpt><trkpt lat="46.1139283" lon="9.3266861"><ele>286.0</ele><time>2026-04-07T07:04:40.675Z</time></trkpt><trkpt lat="46.1139176" lon="9.3268079"><ele>286.0</ele><time>2026-04-07T07:04:41.675Z</time></trkpt><trkpt lat="46.1139017" lon="9.3269187"><ele>286.0</ele><time>2026-04-07T07:04:42.675Z</time></trkpt><trkpt lat="46.1139013" lon="9.3270398"><ele>286.0</ele><time>2026-04-07T07:04:43.675Z</time></trkpt><trkpt lat="46.1139079" lon="9.3271654"><ele>286.0</ele><time>2026-04-07T07:04:44.674Z</time></trkpt><trkpt lat="46.1139203" lon="9.3272991"><ele>286.0</ele><time>2026-04-07T07:04:45.675Z</time></trkpt><trkpt lat="46.1139285" lon="9.3274259"><ele>285.66666666666663</ele><time>2026-04-07T07:04:46.676Z</time></trkpt><trkpt lat="46.1139358" lon="9.3275497"><ele>285.3333333333333</ele><time>2026-04-07T07:04:47.675Z</time></trkpt><trkpt lat="46.1139466" lon="9.3276735"><ele>285.0</ele><time>2026-04-07T07:04:48.675Z</time></trkpt><trkpt lat="46.1139585" lon="9.3278041"><ele>284.6666666666667</ele><time>2026-04-07T07:04:49.675Z</time></trkpt><trkpt lat="46.1139702" lon="9.3279258"><ele>284.33333333333337</ele><time>2026-04-07T07:04:50.675Z</time></trkpt><trkpt lat="46.1139868" lon="9.328042"><ele>284.0</ele><time>2026-04-07T07:04:51.675Z</time></trkpt><trkpt lat="46.114022" lon="9.3281581"><ele>274.5</ele><time>2026-04-07T07:04:52.675Z</time></trkpt><trkpt lat="46.1140722" lon="9.3282634"><ele>265.0</ele><time>2026-04-07T07:04:53.675Z</time></trkpt><trkpt lat="46.1141278" lon="9.3283617"><ele>255.5</ele><time>2026-04-07T07:04:54.676Z</time></trkpt><trkpt lat="46.1141836" lon="9.3284617"><ele>246.0</ele><time>2026-04-07T07:04:55.674Z</time></trkpt><trkpt lat="46.1142339" lon="9.3285665"><ele>236.50000000000003</ele><time>2026-04-07T07:04:56.675Z</time></trkpt><trkpt lat="46.1142782" lon="9.328679"><ele>227.0</ele><time>2026-04-07T07:04:57.676Z</time></trkpt><trkpt lat="46.1143055" lon="9.3287986"><ele>228.16666666666669</ele><time>2026-04-07T07:04:58.676Z</time></trkpt><trkpt lat="46.1143147" lon="9.3289226"><ele>229.33333333333334</ele><time>2026-04-07T07:04:59.674Z</time></trkpt><trkpt lat="46.1143195" lon="9.3290516"><ele>230.5</ele><time>2026-04-07T07:05:00.674Z</time></trkpt><trkpt lat="46.1143254" lon="9.3291762"><ele>231.66666666666669</ele><time>2026-04-07T07:05:01.675Z</time></trkpt><trkpt lat="46.1143239" lon="9.3293057"><ele>232.83333333333334</ele><time>2026-04-07T07:05:02.675Z</time></trkpt><trkpt lat="46.1143261" lon="9.3294339"><ele>234.0</ele><time>2026-04-07T07:05:03.675Z</time></trkpt><trkpt lat="46.1143314" lon="9.3295611"><ele>234.0</ele><time>2026-04-07T07:05:04.675Z</time></trkpt><trkpt lat="46.1143346" lon="9.3296846"><ele>234.0</ele><time>2026-04-07T07:05:05.675Z</time></trkpt><trkpt lat="46.1143396" lon="9.32981"><ele>234.0</ele><time>2026-04-07T07:05:06.674Z</time></trkpt><trkpt lat="46.1143451" lon="9.3299345"><ele>234.0</ele><time>2026-04-07T07:05:07.675Z</time></trkpt><trkpt lat="46.1143489" lon="9.3300585"><ele>234.0</ele><time>2026-04-07T07:05:08.674Z</time></trkpt><trkpt lat="46.1143512" lon="9.3301764"><ele>234.0</ele><time>2026-04-07T07:05:09.675Z</time></trkpt><trkpt lat="46.1143607" lon="9.3302975"><ele>234.5</ele><time>2026-04-07T07:05:10.675Z</time></trkpt><trkpt lat="46.1143662" lon="9.3304157"><ele>235.0</ele><time>2026-04-07T07:05:11.675Z</time></trkpt><trkpt lat="46.1143688" lon="9.3305344"><ele>235.5</ele><time>2026-04-07T07:05:12.675Z</time></trkpt><trkpt lat="46.1143726" lon="9.3306467"><ele>236.0</ele><time>2026-04-07T07:05:13.675Z</time></trkpt><trkpt lat="46.1143825" lon="9.3307586"><ele>236.5</ele><time>2026-04-07T07:05:14.675Z</time></trkpt><trkpt lat="46.1143963" lon="9.3308676"><ele>237.0</ele><time>2026-04-07T07:05:15.675Z</time></trkpt><trkpt lat="46.1144195" lon="9.3309788"><ele>238.33333333333334</ele><time>2026-04-07T07:05:16.675Z</time></trkpt><trkpt lat="46.114444" lon="9.331087"><ele>239.66666666666669</ele><time>2026-04-07T07:05:17.674Z</time></trkpt><trkpt lat="46.1144694" lon="9.3311955"><ele>241.0</ele><time>2026-04-07T07:05:18.677Z</time></trkpt><trkpt lat="46.1145028" lon="9.3313057"><ele>242.33333333333334</ele><time>2026-04-07T07:05:19.675Z</time></trkpt><trkpt lat="46.1145422" lon="9.3314169"><ele>243.66666666666669</ele><time>2026-04-07T07:05:20.675Z</time></trkpt><trkpt lat="46.1145774" lon="9.3315254"><ele>245.0</ele><time>2026-04-07T07:05:21.674Z</time></trkpt><trkpt lat="46.1146115" lon="9.3316342"><ele>246.16666666666669</ele><time>2026-04-07T07:05:22.675Z</time></trkpt><trkpt lat="46.1146498" lon="9.3317415"><ele>247.33333333333334</ele><time>2026-04-07T07:05:23.675Z</time></trkpt><trkpt lat="46.1146914" lon="9.3318446"><ele>248.5</ele><time>2026-04-07T07:05:24.674Z</time></trkpt><trkpt lat="46.1147317" lon="9.3319471"><ele>249.66666666666669</ele><time>2026-04-07T07:05:25.675Z</time></trkpt><trkpt lat="46.1147763" lon="9.3320546"><ele>250.83333333333334</ele><time>2026-04-07T07:05:26.676Z</time></trkpt><trkpt lat="46.1148221" lon="9.3321626"><ele>252.0</ele><time>2026-04-07T07:05:27.674Z</time></trkpt><trkpt lat="46.1148629" lon="9.3322598"><ele>255.0</ele><time>2026-04-07T07:05:28.676Z</time></trkpt><trkpt lat="46.1148981" lon="9.3323617"><ele>258.0</ele><time>2026-04-07T07:05:29.675Z</time></trkpt><trkpt lat="46.1149282" lon="9.3324634"><ele>261.0</ele><time>2026-04-07T07:05:30.676Z</time></trkpt><trkpt lat="46.1149572" lon="9.3325686"><ele>264.0</ele><time>2026-04-07T07:05:31.675Z</time></trkpt><trkpt lat="46.1149908" lon="9.3326765"><ele>267.0</ele><time>2026-04-07T07:05:32.675Z</time></trkpt><trkpt lat="46.1150271" lon="9.3327775"><ele>270.0</ele><time>2026-04-07T07:05:33.675Z</time></trkpt><trkpt lat="46.1150726" lon="9.3328789"><ele>266.1666666666667</ele><time>2026-04-07T07:05:34.674Z</time></trkpt><trkpt lat="46.1151284" lon="9.3329788"><ele>262.3333333333333</ele><time>2026-04-07T07:05:35.675Z</time></trkpt><trkpt lat="46.11518" lon="9.3330753"><ele>258.5</ele><time>2026-04-07T07:05:36.674Z</time></trkpt><trkpt lat="46.1152307" lon="9.33317"><ele>254.66666666666666</ele><time>2026-04-07T07:05:37.675Z</time></trkpt><trkpt lat="46.1152853" lon="9.333269"><ele>250.83333333333331</ele><time>2026-04-07T07:05:38.675Z</time></trkpt><trkpt lat="46.1153406" lon="9.3333715"><ele>247.0</ele><time>2026-04-07T07:05:39.675Z</time></trkpt><trkpt lat="46.1153936" lon="9.3334724"><ele>247.0</ele><time>2026-04-07T07:05:40.675Z</time></trkpt><trkpt lat="46.1154513" lon="9.3335737"><ele>247.0</ele><time>2026-04-07T07:05:41.675Z</time></trkpt><trkpt lat="46.1155086" lon="9.3336784"><ele>247.0</ele><time>2026-04-07T07:05:42.675Z</time></trkpt><trkpt lat="46.1155585" lon="9.3337889"><ele>247.0</ele><time>2026-04-07T07:05:43.676Z</time></trkpt><trkpt lat="46.1156039" lon="9.3339019"><ele>247.0</ele><time>2026-04-07T07:05:44.676Z</time></trkpt><trkpt lat="46.1156541" lon="9.3340199"><ele>242.39999999999998</ele><time>2026-04-07T07:05:45.675Z</time></trkpt><trkpt lat="46.1157038" lon="9.3341423"><ele>237.79999999999998</ele><time>2026-04-07T07:05:46.677Z</time></trkpt><trkpt lat="46.1157594" lon="9.3342583"><ele>233.2</ele><time>2026-04-07T07:05:47.675Z</time></trkpt><trkpt lat="46.1158068" lon="9.3343738"><ele>228.6</ele><time>2026-04-07T07:05:48.675Z</time></trkpt><trkpt lat="46.1158342" lon="9.3344956"><ele>224.0</ele><time>2026-04-07T07:05:49.675Z</time></trkpt><trkpt lat="46.1158532" lon="9.3346241"><ele>227.00000000000003</ele><time>2026-04-07T07:05:50.676Z</time></trkpt><trkpt lat="46.1158656" lon="9.3347467"><ele>230.0</ele><time>2026-04-07T07:05:51.676Z</time></trkpt><trkpt lat="46.1158776" lon="9.3348657"><ele>233.0</ele><time>2026-04-07T07:05:52.676Z</time></trkpt><trkpt lat="46.1158884" lon="9.3349849"><ele>236.0</ele><time>2026-04-07T07:05:53.675Z</time></trkpt><trkpt lat="46.1159056" lon="9.3350988"><ele>239.00000000000003</ele><time>2026-04-07T07:05:54.675Z</time></trkpt><trkpt lat="46.11593" lon="9.3352115"><ele>242.0</ele><time>2026-04-07T07:05:55.674Z</time></trkpt><trkpt lat="46.1159614" lon="9.3353239"><ele>242.00000000000003</ele><time>2026-04-07T07:05:56.675Z</time></trkpt><trkpt lat="46.1160007" lon="9.3354279"><ele>242.0</ele><time>2026-04-07T07:05:57.675Z</time></trkpt><trkpt lat="46.1160576" lon="9.3355237"><ele>242.0</ele><time>2026-04-07T07:05:58.674Z</time></trkpt><trkpt lat="46.1161109" lon="9.3356195"><ele>242.0</ele><time>2026-04-07T07:05:59.675Z</time></trkpt><trkpt lat="46.1161624" lon="9.335715"><ele>242.00000000000003</ele><time>2026-04-07T07:06:00.676Z</time></trkpt><trkpt lat="46.1162155" lon="9.3358112"><ele>242.0</ele><time>2026-04-07T07:06:01.675Z</time></trkpt><trkpt lat="46.1162649" lon="9.3359148"><ele>246.2</ele><time>2026-04-07T07:06:02.674Z</time></trkpt><trkpt lat="46.1163134" lon="9.3360256"><ele>250.39999999999998</ele><time>2026-04-07T07:06:03.675Z</time></trkpt><trkpt lat="46.1163566" lon="9.3361342"><ele>254.60000000000002</ele><time>2026-04-07T07:06:04.676Z</time></trkpt><trkpt lat="46.1164069" lon="9.3362523"><ele>258.8</ele><time>2026-04-07T07:06:05.675Z</time></trkpt><trkpt lat="46.1164576" lon="9.3363639"><ele>263.0</ele><time>2026-04-07T07:06:06.674Z</time></trkpt><trkpt lat="46.1165051" lon="9.3364747"><ele>267.2</ele><time>2026-04-07T07:06:07.675Z</time></trkpt><trkpt lat="46.1165531" lon="9.3365868"><ele>271.4</ele><time>2026-04-07T07:06:08.674Z</time></trkpt><trkpt lat="46.1166014" lon="9.3367039"><ele>275.59999999999997</ele><time>2026-04-07T07:06:09.674Z</time></trkpt><trkpt lat="46.1166493" lon="9.3368102"><ele>279.8</ele><time>2026-04-07T07:06:10.675Z</time></trkpt><trkpt lat="46.1166966" lon="9.3369292"><ele>284.0</ele><time>2026-04-07T07:06:11.675Z</time></trkpt><trkpt lat="46.1167555" lon="9.3370555"><ele>274.0</ele><time>2026-04-07T07:06:12.676Z</time></trkpt><trkpt lat="46.1168069" lon="9.3371821"><ele>264.0</ele><time>2026-04-07T07:06:13.676Z</time></trkpt><trkpt lat="46.1168615" lon="9.3373065"><ele>253.99999999999997</ele><time>2026-04-07T07:06:14.676Z</time></trkpt><trkpt lat="46.1169047" lon="9.3374373"><ele>244.0</ele><time>2026-04-07T07:06:15.675Z</time></trkpt><trkpt lat="46.1169337" lon="9.3375694"><ele>234.0</ele><time>2026-04-07T07:06:16.676Z</time></trkpt><trkpt lat="46.1169543" lon="9.3376951"><ele>234.0</ele><time>2026-04-07T07:06:17.674Z</time></trkpt><trkpt lat="46.1169626" lon="9.337827"><ele>233.99999999999997</ele><time>2026-04-07T07:06:18.675Z</time></trkpt><trkpt lat="46.116961" lon="9.3379645"><ele>233.99999999999997</ele><time>2026-04-07T07:06:19.675Z</time></trkpt><trkpt lat="46.116956" lon="9.3380998"><ele>234.0</ele><time>2026-04-07T07:06:20.674Z</time></trkpt><trkpt lat="46.1169501" lon="9.3382322"><ele>234.0</ele><time>2026-04-07T07:06:21.675Z</time></trkpt><trkpt lat="46.1169381" lon="9.3383596"><ele>234.5</ele><time>2026-04-07T07:06:22.674Z</time></trkpt><trkpt lat="46.1169339" lon="9.3384841"><ele>235.0</ele><time>2026-04-07T07:06:23.675Z</time></trkpt><trkpt lat="46.1169321" lon="9.3386077"><ele>235.5</ele><time>2026-04-07T07:06:24.676Z</time></trkpt><trkpt lat="46.1169302" lon="9.3387341"><ele>236.0</ele><time>2026-04-07T07:06:25.675Z</time></trkpt><trkpt lat="46.1169219" lon="9.3388584"><ele>236.5</ele><time>2026-04-07T07:06:26.675Z</time></trkpt><trkpt lat="46.1169074" lon="9.33898"><ele>237.0</ele><time>2026-04-07T07:06:27.676Z</time></trkpt><trkpt lat="46.1168848" lon="9.3391031"><ele>237.0</ele><time>2026-04-07T07:06:28.674Z</time></trkpt><trkpt lat="46.1168617" lon="9.3392269"><ele>237.0</ele><time>2026-04-07T07:06:29.675Z</time></trkpt><trkpt lat="46.1168471" lon="9.3393505"><ele>237.0</ele><time>2026-04-07T07:06:30.675Z</time></trkpt><trkpt lat="46.1168302" lon="9.3394712"><ele>237.0</ele><time>2026-04-07T07:06:31.676Z</time></trkpt><trkpt lat="46.1168064" lon="9.3395887"><ele>237.0</ele><time>2026-04-07T07:06:32.675Z</time></trkpt><trkpt lat="46.1167833" lon="9.3397062"><ele>237.0</ele><time>2026-04-07T07:06:33.674Z</time></trkpt><trkpt lat="46.1167645" lon="9.3398246"><ele>235.0</ele><time>2026-04-07T07:06:34.676Z</time></trkpt><trkpt lat="46.1167425" lon="9.3399315"><ele>233.0</ele><time>2026-04-07T07:06:35.675Z</time></trkpt><trkpt lat="46.1167159" lon="9.3400382"><ele>231.0</ele><time>2026-04-07T07:06:36.675Z</time></trkpt><trkpt lat="46.1166861" lon="9.3401461"><ele>229.0</ele><time>2026-04-07T07:06:37.675Z</time></trkpt><trkpt lat="46.1166606" lon="9.3402505"><ele>227.0</ele><time>2026-04-07T07:06:38.676Z</time></trkpt><trkpt lat="46.1166415" lon="9.3403541"><ele>225.0</ele><time>2026-04-07T07:06:39.676Z</time></trkpt><trkpt lat="46.1166161" lon="9.3404572"><ele>223.42857142857147</ele><time>2026-04-07T07:06:40.674Z</time></trkpt><trkpt lat="46.1165896" lon="9.3405622"><ele>221.85714285714286</ele><time>2026-04-07T07:06:41.675Z</time></trkpt><trkpt lat="46.1165679" lon="9.3406632"><ele>220.2857142857143</ele><time>2026-04-07T07:06:42.675Z</time></trkpt><trkpt lat="46.1165433" lon="9.3407656"><ele>218.71428571428572</ele><time>2026-04-07T07:06:43.675Z</time></trkpt><trkpt lat="46.1165206" lon="9.3408728"><ele>217.14285714285717</ele><time>2026-04-07T07:06:44.675Z</time></trkpt><trkpt lat="46.1165029" lon="9.340976"><ele>215.57142857142858</ele><time>2026-04-07T07:06:45.675Z</time></trkpt><trkpt lat="46.1164792" lon="9.3410695"><ele>214.0</ele><time>2026-04-07T07:06:46.676Z</time></trkpt><trkpt lat="46.1164592" lon="9.3411737"><ele>219.2857142857143</ele><time>2026-04-07T07:06:47.675Z</time></trkpt><trkpt lat="46.1164393" lon="9.3412778"><ele>224.57142857142856</ele><time>2026-04-07T07:06:48.675Z</time></trkpt><trkpt lat="46.1164172" lon="9.3413734"><ele>229.85714285714283</ele><time>2026-04-07T07:06:49.675Z</time></trkpt><trkpt lat="46.1163993" lon="9.3414624"><ele>235.14285714285714</ele><time>2026-04-07T07:06:50.675Z</time></trkpt><trkpt lat="46.1163746" lon="9.3415567"><ele>240.42857142857142</ele><time>2026-04-07T07:06:51.676Z</time></trkpt><trkpt lat="46.1163474" lon="9.3416521"><ele>245.7142857142857</ele><time>2026-04-07T07:06:52.675Z</time></trkpt><trkpt lat="46.1163193" lon="9.3417481"><ele>250.99999999999997</ele><time>2026-04-07T07:06:53.674Z</time></trkpt><trkpt lat="46.1162982" lon="9.3418372"><ele>250.99999999999997</ele><time>2026-04-07T07:06:54.674Z</time></trkpt><trkpt lat="46.1162746" lon="9.34193"><ele>251.0</ele><time>2026-04-07T07:06:55.675Z</time></trkpt><trkpt lat="46.1162385" lon="9.3420146"><ele>250.99999999999997</ele><time>2026-04-07T07:06:56.676Z</time></trkpt><trkpt lat="46.1162027" lon="9.3421021"><ele>250.99999999999997</ele><time>2026-04-07T07:06:57.675Z</time></trkpt><trkpt lat="46.116183" lon="9.3421898"><ele>251.0</ele><time>2026-04-07T07:06:58.676Z</time></trkpt><trkpt lat="46.116168" lon="9.3422852"><ele>250.99999999999997</ele><time>2026-04-07T07:06:59.676Z</time></trkpt><trkpt lat="46.116158" lon="9.3423788"><ele>250.99999999999997</ele><time>2026-04-07T07:07:00.676Z</time></trkpt><trkpt lat="46.1161611" lon="9.3424698"><ele>249.71428571428567</ele><time>2026-04-07T07:07:01.676Z</time></trkpt><trkpt lat="46.1161599" lon="9.3425701"><ele>248.42857142857142</ele><time>2026-04-07T07:07:02.677Z</time></trkpt><trkpt lat="46.1161527" lon="9.3426676"><ele>247.1428571428571</ele><time>2026-04-07T07:07:03.674Z</time></trkpt><trkpt lat="46.1161493" lon="9.342767"><ele>245.85714285714283</ele><time>2026-04-07T07:07:04.676Z</time></trkpt><trkpt lat="46.1161502" lon="9.3428644"><ele>244.57142857142856</ele><time>2026-04-07T07:07:05.676Z</time></trkpt><trkpt lat="46.1161575" lon="9.342963"><ele>243.28571428571428</ele><time>2026-04-07T07:07:06.676Z</time></trkpt><trkpt lat="46.1161631" lon="9.3430613"><ele>242.0</ele><time>2026-04-07T07:07:07.676Z</time></trkpt><trkpt lat="46.1161714" lon="9.3431549"><ele>240.7142857142857</ele><time>2026-04-07T07:07:08.676Z</time></trkpt><trkpt lat="46.1161824" lon="9.3432461"><ele>239.4285714285714</ele><time>2026-04-07T07:07:09.675Z</time></trkpt><trkpt lat="46.1161924" lon="9.3433412"><ele>238.14285714285714</ele><time>2026-04-07T07:07:10.675Z</time></trkpt><trkpt lat="46.1161996" lon="9.3434335"><ele>236.85714285714283</ele><time>2026-04-07T07:07:11.674Z</time></trkpt><trkpt lat="46.1162101" lon="9.3436132"><ele>235.57142857142856</ele><time>2026-04-07T07:07:13.674Z</time></trkpt><trkpt lat="46.1162206" lon="9.3437039"><ele>234.28571428571428</ele><time>2026-04-07T07:07:14.676Z</time></trkpt><trkpt lat="46.1162294" lon="9.3437943"><ele>233.0</ele><time>2026-04-07T07:07:15.676Z</time></trkpt><trkpt lat="46.1162396" lon="9.3438858"><ele>232.66666666666669</ele><time>2026-04-07T07:07:16.675Z</time></trkpt><trkpt lat="46.1162501" lon="9.3439768"><ele>232.33333333333334</ele><time>2026-04-07T07:07:17.675Z</time></trkpt><trkpt lat="46.1162657" lon="9.3441585"><ele>232.0</ele><time>2026-04-07T07:07:19.675Z</time></trkpt><trkpt lat="46.1162755" lon="9.3442494"><ele>231.66666666666669</ele><time>2026-04-07T07:07:20.675Z</time></trkpt><trkpt lat="46.1162841" lon="9.3443418"><ele>231.33333333333334</ele><time>2026-04-07T07:07:21.674Z</time></trkpt><trkpt lat="46.1162888" lon="9.3444336"><ele>231.0</ele><time>2026-04-07T07:07:22.675Z</time></trkpt><trkpt lat="46.1163033" lon="9.3445987"><ele>232.8</ele><time>2026-04-07T07:07:24.675Z</time></trkpt><trkpt lat="46.1163208" lon="9.3447659"><ele>234.60000000000002</ele><time>2026-04-07T07:07:26.675Z</time></trkpt><trkpt lat="46.1163366" lon="9.3449423"><ele>236.4</ele><time>2026-04-07T07:07:28.676Z</time></trkpt><trkpt lat="46.1163496" lon="9.3450344"><ele>238.2</ele><time>2026-04-07T07:07:29.675Z</time></trkpt><trkpt lat="46.1163585" lon="9.3451269"><ele>240.0</ele><time>2026-04-07T07:07:30.675Z</time></trkpt><trkpt lat="46.1163868" lon="9.3452953"><ele>240.0</ele><time>2026-04-07T07:07:32.675Z</time></trkpt><trkpt lat="46.1164073" lon="9.3453813"><ele>240.0</ele><time>2026-04-07T07:07:33.676Z</time></trkpt><trkpt lat="46.1164548" lon="9.3455468"><ele>240.0</ele><time>2026-04-07T07:07:35.676Z</time></trkpt><trkpt lat="46.1165205" lon="9.3457098"><ele>240.0</ele><time>2026-04-07T07:07:37.675Z</time></trkpt><trkpt lat="46.1165577" lon="9.3457909"><ele>240.0</ele><time>2026-04-07T07:07:38.676Z</time></trkpt><trkpt lat="46.1166335" lon="9.3459301"><ele>236.0</ele><time>2026-04-07T07:07:40.675Z</time></trkpt><trkpt lat="46.1167108" lon="9.3460588"><ele>232.0</ele><time>2026-04-07T07:07:42.675Z</time></trkpt><trkpt lat="46.1168006" lon="9.3461738"><ele>228.0</ele><time>2026-04-07T07:07:44.676Z</time></trkpt><trkpt lat="46.1168955" lon="9.3462995"><ele>224.0</ele><time>2026-04-07T07:07:46.675Z</time></trkpt><trkpt lat="46.1169872" lon="9.3464147"><ele>224.0</ele><time>2026-04-07T07:07:48.675Z</time></trkpt><trkpt lat="46.1170778" lon="9.3465101"><ele>223.99999999999997</ele><time>2026-04-07T07:07:50.676Z</time></trkpt><trkpt lat="46.1171679" lon="9.3465633"><ele>223.99999999999997</ele><time>2026-04-07T07:07:52.675Z</time></trkpt><trkpt lat="46.1172676" lon="9.3466099"><ele>224.0</ele><time>2026-04-07T07:07:54.674Z</time></trkpt><trkpt lat="46.1173588" lon="9.3466437"><ele>224.0</ele><time>2026-04-07T07:07:56.676Z</time></trkpt><trkpt lat="46.1174557" lon="9.3466945"><ele>219.79999999999998</ele><time>2026-04-07T07:07:58.676Z</time></trkpt><trkpt lat="46.117548" lon="9.3467233"><ele>215.59999999999997</ele><time>2026-04-07T07:08:00.675Z</time></trkpt><trkpt lat="46.1176366" lon="9.3467589"><ele>211.4</ele><time>2026-04-07T07:08:02.675Z</time></trkpt><trkpt lat="46.1177359" lon="9.3467781"><ele>207.2</ele><time>2026-04-07T07:08:04.675Z</time></trkpt><trkpt lat="46.1178362" lon="9.3467918"><ele>203.0</ele><time>2026-04-07T07:08:06.675Z</time></trkpt><trkpt lat="46.117934" lon="9.3468292"><ele>203.0</ele><time>2026-04-07T07:08:08.676Z</time></trkpt><trkpt lat="46.1180179" lon="9.3468661"><ele>203.0</ele><time>2026-04-07T07:08:10.675Z</time></trkpt><trkpt lat="46.1181131" lon="9.3469054"><ele>203.0</ele><time>2026-04-07T07:08:12.676Z</time></trkpt><trkpt lat="46.118206" lon="9.3469315"><ele>203.0</ele><time>2026-04-07T07:08:14.675Z</time></trkpt><trkpt lat="46.1183033" lon="9.3469495"><ele>203.0</ele><time>2026-04-07T07:08:16.676Z</time></trkpt><trkpt lat="46.1183955" lon="9.3469946"><ele>202.60000000000002</ele><time>2026-04-07T07:08:18.676Z</time></trkpt><trkpt lat="46.1184831" lon="9.3470343"><ele>202.20000000000002</ele><time>2026-04-07T07:08:20.677Z</time></trkpt><trkpt lat="46.1185633" lon="9.3470706"><ele>201.8</ele><time>2026-04-07T07:08:22.675Z</time></trkpt><trkpt lat="46.118644" lon="9.347103"><ele>201.4</ele><time>2026-04-07T07:08:24.676Z</time></trkpt><trkpt lat="46.118741" lon="9.3471359"><ele>201.0</ele><time>2026-04-07T07:08:26.677Z</time></trkpt><trkpt lat="46.1188446" lon="9.34716"><ele>201.0</ele><time>2026-04-07T07:08:28.676Z</time></trkpt><trkpt lat="46.1189414" lon="9.3471872"><ele>201.0</ele><time>2026-04-07T07:08:30.676Z</time></trkpt><trkpt lat="46.1190376" lon="9.3472155"><ele>201.0</ele><time>2026-04-07T07:08:32.676Z</time></trkpt><trkpt lat="46.1191347" lon="9.3472513"><ele>201.0</ele><time>2026-04-07T07:08:34.676Z</time></trkpt><trkpt lat="46.1192284" lon="9.3472852"><ele>201.0</ele><time>2026-04-07T07:08:36.676Z</time></trkpt><trkpt lat="46.1193215" lon="9.3473202"><ele>202.4</ele><time>2026-04-07T07:08:38.675Z</time></trkpt><trkpt lat="46.1194147" lon="9.3473671"><ele>203.8</ele><time>2026-04-07T07:08:40.676Z</time></trkpt><trkpt lat="46.1195066" lon="9.3474093"><ele>205.20000000000002</ele><time>2026-04-07T07:08:42.675Z</time></trkpt><trkpt lat="46.1196079" lon="9.3474466"><ele>206.60000000000002</ele><time>2026-04-07T07:08:44.676Z</time></trkpt><trkpt lat="46.1197229" lon="9.3474939"><ele>208.0</ele><time>2026-04-07T07:08:46.677Z</time></trkpt><trkpt lat="46.1197838" lon="9.3475234"><ele>208.0</ele><time>2026-04-07T07:08:47.676Z</time></trkpt><trkpt lat="46.1198978" lon="9.347581"><ele>208.0</ele><time>2026-04-07T07:08:49.677Z</time></trkpt><trkpt lat="46.1200046" lon="9.3476312"><ele>208.0</ele><time>2026-04-07T07:08:51.676Z</time></trkpt><trkpt lat="46.1201212" lon="9.3476825"><ele>208.0</ele><time>2026-04-07T07:08:53.676Z</time></trkpt><trkpt lat="46.1201807" lon="9.3477139"><ele>208.0</ele><time>2026-04-07T07:08:54.677Z</time></trkpt><trkpt lat="46.1202936" lon="9.3477837"><ele>207.57142857142856</ele><time>2026-04-07T07:08:56.677Z</time></trkpt><trkpt lat="46.1203551" lon="9.3478132"><ele>207.14285714285717</ele><time>2026-04-07T07:08:57.676Z</time></trkpt><trkpt lat="46.1204203" lon="9.3478437"><ele>206.71428571428572</ele><time>2026-04-07T07:08:58.676Z</time></trkpt><trkpt lat="46.1204884" lon="9.3478704"><ele>206.28571428571428</ele><time>2026-04-07T07:08:59.675Z</time></trkpt><trkpt lat="46.1205556" lon="9.3479022"><ele>205.85714285714283</ele><time>2026-04-07T07:09:00.677Z</time></trkpt><trkpt lat="46.1206207" lon="9.3479363"><ele>205.42857142857144</ele><time>2026-04-07T07:09:01.674Z</time></trkpt><trkpt lat="46.1206849" lon="9.3479707"><ele>205.0</ele><time>2026-04-07T07:09:02.675Z</time></trkpt><trkpt lat="46.1207512" lon="9.3480107"><ele>204.66666666666666</ele><time>2026-04-07T07:09:03.675Z</time></trkpt><trkpt lat="46.1208148" lon="9.3480406"><ele>204.33333333333331</ele><time>2026-04-07T07:09:04.676Z</time></trkpt><trkpt lat="46.1208826" lon="9.3480696"><ele>204.0</ele><time>2026-04-07T07:09:05.676Z</time></trkpt><trkpt lat="46.1209442" lon="9.3480944"><ele>203.66666666666669</ele><time>2026-04-07T07:09:06.676Z</time></trkpt><trkpt lat="46.1210602" lon="9.3481615"><ele>203.33333333333334</ele><time>2026-04-07T07:09:08.676Z</time></trkpt><trkpt lat="46.121121" lon="9.3481931"><ele>203.0</ele><time>2026-04-07T07:09:09.675Z</time></trkpt><trkpt lat="46.1211837" lon="9.3482267"><ele>203.50000000000003</ele><time>2026-04-07T07:09:10.676Z</time></trkpt><trkpt lat="46.1212494" lon="9.3482539"><ele>204.0</ele><time>2026-04-07T07:09:11.676Z</time></trkpt><trkpt lat="46.121316" lon="9.3482846"><ele>204.5</ele><time>2026-04-07T07:09:12.677Z</time></trkpt><trkpt lat="46.1213809" lon="9.3483134"><ele>205.0</ele><time>2026-04-07T07:09:13.676Z</time></trkpt><trkpt lat="46.1214442" lon="9.3483457"><ele>205.50000000000003</ele><time>2026-04-07T07:09:14.675Z</time></trkpt><trkpt lat="46.121507" lon="9.3483778"><ele>206.0</ele><time>2026-04-07T07:09:15.675Z</time></trkpt><trkpt lat="46.1216238" lon="9.3484345"><ele>206.0</ele><time>2026-04-07T07:09:17.675Z</time></trkpt><trkpt lat="46.1217357" lon="9.3484893"><ele>206.0</ele><time>2026-04-07T07:09:19.676Z</time></trkpt><trkpt lat="46.1218393" lon="9.348545"><ele>206.0</ele><time>2026-04-07T07:09:21.676Z</time></trkpt><trkpt lat="46.1219381" lon="9.3486009"><ele>206.0</ele><time>2026-04-07T07:09:23.676Z</time></trkpt><trkpt lat="46.1220415" lon="9.3486604"><ele>206.0</ele><time>2026-04-07T07:09:25.675Z</time></trkpt><trkpt lat="46.1221402" lon="9.3487153"><ele>206.0</ele><time>2026-04-07T07:09:27.676Z</time></trkpt><trkpt lat="46.1222384" lon="9.3487642"><ele>206.0</ele><time>2026-04-07T07:09:29.676Z</time></trkpt><trkpt lat="46.1223382" lon="9.3488101"><ele>206.0</ele><time>2026-04-07T07:09:31.674Z</time></trkpt><trkpt lat="46.1224312" lon="9.3488509"><ele>206.0</ele><time>2026-04-07T07:09:33.676Z</time></trkpt><trkpt lat="46.1225277" lon="9.3488934"><ele>206.0</ele><time>2026-04-07T07:09:35.676Z</time></trkpt><trkpt lat="46.1226169" lon="9.3489455"><ele>206.20000000000002</ele><time>2026-04-07T07:09:37.676Z</time></trkpt><trkpt lat="46.1227101" lon="9.3489962"><ele>206.4</ele><time>2026-04-07T07:09:39.676Z</time></trkpt><trkpt lat="46.1228028" lon="9.349041"><ele>206.6</ele><time>2026-04-07T07:09:41.676Z</time></trkpt><trkpt lat="46.1228946" lon="9.3490886"><ele>206.8</ele><time>2026-04-07T07:09:43.675Z</time></trkpt><trkpt lat="46.1229815" lon="9.3491316"><ele>207.0</ele><time>2026-04-07T07:09:45.675Z</time></trkpt><trkpt lat="46.1230721" lon="9.3491732"><ele>207.0</ele><time>2026-04-07T07:09:47.677Z</time></trkpt><trkpt lat="46.1231567" lon="9.3492116"><ele>207.0</ele><time>2026-04-07T07:09:49.676Z</time></trkpt><trkpt lat="46.1232359" lon="9.3492572"><ele>207.0</ele><time>2026-04-07T07:09:51.676Z</time></trkpt><trkpt lat="46.1233136" lon="9.3493168"><ele>207.0</ele><time>2026-04-07T07:09:54.677Z</time></trkpt><trkpt lat="46.1233915" lon="9.3493244"><ele>207.0</ele><time>2026-04-07T07:09:56.676Z</time></trkpt><trkpt lat="46.1234797" lon="9.3493461"><ele>207.0</ele><time>2026-04-07T07:09:58.676Z</time></trkpt><trkpt lat="46.1235632" lon="9.3493851"><ele>207.0</ele><time>2026-04-07T07:10:00.675Z</time></trkpt><trkpt lat="46.1236377" lon="9.3493748"><ele>207.0</ele><time>2026-04-07T07:10:02.767Z</time></trkpt><trkpt lat="46.1236598" lon="9.3492618"><ele>207.0</ele><time>2026-04-07T07:10:04.676Z</time></trkpt><trkpt lat="46.1236639" lon="9.3491279"><ele>207.0</ele><time>2026-04-07T07:10:06.676Z</time></trkpt><trkpt lat="46.1236601" lon="9.3489542"><ele>207.0</ele><time>2026-04-07T07:10:08.676Z</time></trkpt><trkpt lat="46.1236708" lon="9.3487827"><ele>207.0</ele><time>2026-04-07T07:10:10.675Z</time></trkpt><trkpt lat="46.1236837" lon="9.3486204"><ele>207.0</ele><time>2026-04-07T07:10:12.676Z</time></trkpt><trkpt lat="46.1236924" lon="9.3484912"><ele>207.0</ele><time>2026-04-07T07:10:14.676Z</time></trkpt><trkpt lat="46.1237042" lon="9.3483836"><ele>207.0</ele><time>2026-04-07T07:10:16.675Z</time></trkpt><trkpt lat="46.12372" lon="9.3482557"><ele>207.0</ele><time>2026-04-07T07:10:18.677Z</time></trkpt><trkpt lat="46.1237362" lon="9.3481241"><ele>207.0</ele><time>2026-04-07T07:10:20.676Z</time></trkpt><trkpt lat="46.1237715" lon="9.3480353"><ele>207.0</ele><time>2026-04-07T07:10:22.677Z</time></trkpt><trkpt lat="46.123844" lon="9.3480303"><ele>207.0</ele><time>2026-04-07T07:10:24.676Z</time></trkpt><trkpt lat="46.1239075" lon="9.3481076"><ele>207.0</ele><time>2026-04-07T07:10:26.676Z</time></trkpt><trkpt lat="46.1239753" lon="9.3481926"><ele>207.0</ele><time>2026-04-07T07:10:28.677Z</time></trkpt><trkpt lat="46.1240526" lon="9.3482823"><ele>207.0</ele><time>2026-04-07T07:10:30.676Z</time></trkpt><trkpt lat="46.1241244" lon="9.3483609"><ele>206.39999999999998</ele><time>2026-04-07T07:10:32.676Z</time></trkpt><trkpt lat="46.124213" lon="9.3484202"><ele>205.79999999999998</ele><time>2026-04-07T07:10:34.677Z</time></trkpt><trkpt lat="46.1242905" lon="9.3484972"><ele>205.2</ele><time>2026-04-07T07:10:36.675Z</time></trkpt><trkpt lat="46.1243745" lon="9.3485827"><ele>204.6</ele><time>2026-04-07T07:10:38.676Z</time></trkpt><trkpt lat="46.1244607" lon="9.348661"><ele>204.0</ele><time>2026-04-07T07:10:40.675Z</time></trkpt><trkpt lat="46.1245342" lon="9.3487544"><ele>204.0</ele><time>2026-04-07T07:10:42.677Z</time></trkpt><trkpt lat="46.1245977" lon="9.348854"><ele>204.0</ele><time>2026-04-07T07:10:44.678Z</time></trkpt><trkpt lat="46.1246546" lon="9.3489323"><ele>204.0</ele><time>2026-04-07T07:10:46.677Z</time></trkpt><trkpt lat="46.1247174" lon="9.3490324"><ele>204.0</ele><time>2026-04-07T07:10:48.676Z</time></trkpt><trkpt lat="46.1247781" lon="9.3491388"><ele>204.0</ele><time>2026-04-07T07:10:50.676Z</time></trkpt><trkpt lat="46.124855" lon="9.3492306"><ele>203.79999999999998</ele><time>2026-04-07T07:10:52.676Z</time></trkpt><trkpt lat="46.1249327" lon="9.3493206"><ele>203.6</ele><time>2026-04-07T07:10:54.678Z</time></trkpt><trkpt lat="46.1249999" lon="9.3494038"><ele>203.4</ele><time>2026-04-07T07:10:56.676Z</time></trkpt><trkpt lat="46.1250575" lon="9.3494845"><ele>203.2</ele><time>2026-04-07T07:10:58.676Z</time></trkpt><trkpt lat="46.1251132" lon="9.3495877"><ele>203.0</ele><time>2026-04-07T07:11:00.676Z</time></trkpt><trkpt lat="46.1251721" lon="9.3496946"><ele>203.66666666666669</ele><time>2026-04-07T07:11:02.677Z</time></trkpt><trkpt lat="46.1252298" lon="9.3497927"><ele>204.33333333333334</ele><time>2026-04-07T07:11:04.676Z</time></trkpt><trkpt lat="46.1252869" lon="9.3499027"><ele>205.0</ele><time>2026-04-07T07:11:06.678Z</time></trkpt><trkpt lat="46.1253436" lon="9.3500046"><ele>205.66666666666669</ele><time>2026-04-07T07:11:08.677Z</time></trkpt><trkpt lat="46.1254096" lon="9.3501093"><ele>206.33333333333334</ele><time>2026-04-07T07:11:11.676Z</time></trkpt><trkpt lat="46.1254499" lon="9.3501792"><ele>207.0</ele><time>2026-04-07T07:11:13.65Z</time></trkpt><trkpt lat="46.1255102" lon="9.3502581"><ele>207.0</ele><time>2026-04-07T07:12:34.677Z</time></trkpt><trkpt lat="46.1255766" lon="9.3503411"><ele>207.0</ele><time>2026-04-07T07:12:37.775Z</time></trkpt><trkpt lat="46.1256202" lon="9.3504176"><ele>207.0</ele><time>2026-04-07T07:12:39.675Z</time></trkpt><trkpt lat="46.1256735" lon="9.3504928"><ele>207.0</ele><time>2026-04-07T07:12:41.766Z</time></trkpt><trkpt lat="46.1257373" lon="9.3505743"><ele>207.0</ele><time>2026-04-07T07:12:44.009Z</time></trkpt><trkpt lat="46.1258056" lon="9.3506496"><ele>207.0</ele><time>2026-04-07T07:12:46.207Z</time></trkpt><trkpt lat="46.1258754" lon="9.35073"><ele>207.39999999999998</ele><time>2026-04-07T07:12:48.307Z</time></trkpt><trkpt lat="46.1259557" lon="9.350833"><ele>207.79999999999998</ele><time>2026-04-07T07:12:50.677Z</time></trkpt><trkpt lat="46.1260226" lon="9.3509287"><ele>208.2</ele><time>2026-04-07T07:12:52.676Z</time></trkpt><trkpt lat="46.1261038" lon="9.3510121"><ele>208.6</ele><time>2026-04-07T07:12:54.676Z</time></trkpt><trkpt lat="46.1261722" lon="9.3510981"><ele>209.0</ele><time>2026-04-07T07:12:56.677Z</time></trkpt><trkpt lat="46.1262368" lon="9.3511911"><ele>209.0</ele><time>2026-04-07T07:12:58.677Z</time></trkpt><trkpt lat="46.1263069" lon="9.3512813"><ele>209.0</ele><time>2026-04-07T07:13:00.677Z</time></trkpt><trkpt lat="46.126375" lon="9.3513748"><ele>209.0</ele><time>2026-04-07T07:13:02.675Z</time></trkpt><trkpt lat="46.1264472" lon="9.3514771"><ele>209.0</ele><time>2026-04-07T07:13:04.675Z</time></trkpt><trkpt lat="46.1265251" lon="9.3515735"><ele>209.0</ele><time>2026-04-07T07:13:06.678Z</time></trkpt><trkpt lat="46.1266268" lon="9.3516235"><ele>209.0</ele><time>2026-04-07T07:13:08.676Z</time></trkpt><trkpt lat="46.1267356" lon="9.3516192"><ele>209.0</ele><time>2026-04-07T07:13:10.676Z</time></trkpt><trkpt lat="46.1268551" lon="9.3516231"><ele>209.0</ele><time>2026-04-07T07:13:12.677Z</time></trkpt><trkpt lat="46.1269708" lon="9.3516273"><ele>209.0</ele><time>2026-04-07T07:13:14.676Z</time></trkpt><trkpt lat="46.1270883" lon="9.3516252"><ele>209.0</ele><time>2026-04-07T07:13:16.676Z</time></trkpt><trkpt lat="46.1272073" lon="9.3516316"><ele>209.0</ele><time>2026-04-07T07:13:18.677Z</time></trkpt><trkpt lat="46.1273189" lon="9.3516822"><ele>209.0</ele><time>2026-04-07T07:13:20.676Z</time></trkpt><trkpt lat="46.1274218" lon="9.3517508"><ele>209.0</ele><time>2026-04-07T07:13:22.676Z</time></trkpt><trkpt lat="46.127533" lon="9.3518147"><ele>209.0</ele><time>2026-04-07T07:13:24.677Z</time></trkpt><trkpt lat="46.1276437" lon="9.3518644"><ele>209.0</ele><time>2026-04-07T07:13:26.677Z</time></trkpt><trkpt lat="46.1277451" lon="9.3519081"><ele>209.0</ele><time>2026-04-07T07:13:28.677Z</time></trkpt><trkpt lat="46.1278542" lon="9.3519256"><ele>209.0</ele><time>2026-04-07T07:13:30.676Z</time></trkpt><trkpt lat="46.1279659" lon="9.351944"><ele>209.0</ele><time>2026-04-07T07:13:32.676Z</time></trkpt><trkpt lat="46.128067" lon="9.3519891"><ele>209.0</ele><time>2026-04-07T07:13:34.676Z</time></trkpt><trkpt lat="46.1281541" lon="9.3520601"><ele>209.0</ele><time>2026-04-07T07:13:36.676Z</time></trkpt><trkpt lat="46.1282296" lon="9.3521374"><ele>209.0</ele><time>2026-04-07T07:13:38.676Z</time></trkpt><trkpt lat="46.1282952" lon="9.3522292"><ele>209.0</ele><time>2026-04-07T07:13:40.677Z</time></trkpt><trkpt lat="46.1283611" lon="9.3523172"><ele>209.0</ele><time>2026-04-07T07:13:42.676Z</time></trkpt><trkpt lat="46.1284352" lon="9.3524027"><ele>209.0</ele><time>2026-04-07T07:13:44.676Z</time></trkpt><trkpt lat="46.1285141" lon="9.3524967"><ele>209.0</ele><time>2026-04-07T07:13:46.677Z</time></trkpt><trkpt lat="46.128595" lon="9.352584"><ele>209.0</ele><time>2026-04-07T07:13:48.678Z</time></trkpt><trkpt lat="46.1286724" lon="9.3526779"><ele>209.0</ele><time>2026-04-07T07:13:50.676Z</time></trkpt><trkpt lat="46.1287494" lon="9.3527712"><ele>209.0</ele><time>2026-04-07T07:13:52.677Z</time></trkpt><trkpt lat="46.1288276" lon="9.3528643"><ele>209.0</ele><time>2026-04-07T07:13:54.677Z</time></trkpt><trkpt lat="46.1289" lon="9.3529596"><ele>209.0</ele><time>2026-04-07T07:13:56.678Z</time></trkpt><trkpt lat="46.1289597" lon="9.353059"><ele>209.0</ele><time>2026-04-07T07:13:58.677Z</time></trkpt><trkpt lat="46.1290278" lon="9.3531599"><ele>209.0</ele><time>2026-04-07T07:14:00.677Z</time></trkpt><trkpt lat="46.1290955" lon="9.353265"><ele>209.0</ele><time>2026-04-07T07:14:02.676Z</time></trkpt><trkpt lat="46.1292107" lon="9.3534268"><ele>209.39999999999998</ele><time>2026-04-07T07:14:05.676Z</time></trkpt><trkpt lat="46.129283" lon="9.3535305"><ele>209.8</ele><time>2026-04-07T07:14:07.678Z</time></trkpt><trkpt lat="46.1293615" lon="9.3536423"><ele>210.2</ele><time>2026-04-07T07:14:09.678Z</time></trkpt><trkpt lat="46.129435" lon="9.3537576"><ele>210.60000000000002</ele><time>2026-04-07T07:14:11.676Z</time></trkpt><trkpt lat="46.1294877" lon="9.3538131"><ele>211.0</ele><time>2026-04-07T07:14:12.677Z</time></trkpt><trkpt lat="46.1295605" lon="9.3539118"><ele>210.99999999999997</ele><time>2026-04-07T07:14:14.676Z</time></trkpt><trkpt lat="46.1296184" lon="9.3540014"><ele>211.0</ele><time>2026-04-07T07:14:16.677Z</time></trkpt><trkpt lat="46.1296662" lon="9.3540902"><ele>211.0</ele><time>2026-04-07T07:14:18.678Z</time></trkpt><trkpt lat="46.1297121" lon="9.3541621"><ele>211.0</ele><time>2026-04-07T07:14:20.676Z</time></trkpt><trkpt lat="46.1297482" lon="9.354258"><ele>210.99999999999997</ele><time>2026-04-07T07:14:22.677Z</time></trkpt><trkpt lat="46.129775" lon="9.3543607"><ele>211.0</ele><time>2026-04-07T07:14:24.677Z</time></trkpt><trkpt lat="46.1297959" lon="9.3544682"><ele>210.99999999999997</ele><time>2026-04-07T07:14:26.676Z</time></trkpt><trkpt lat="46.129818" lon="9.3545794"><ele>211.0</ele><time>2026-04-07T07:14:28.677Z</time></trkpt><trkpt lat="46.1298369" lon="9.3546843"><ele>211.0</ele><time>2026-04-07T07:14:30.676Z</time></trkpt><trkpt lat="46.1298733" lon="9.3547903"><ele>211.0</ele><time>2026-04-07T07:14:32.676Z</time></trkpt><trkpt lat="46.1299094" lon="9.3549067"><ele>210.99999999999997</ele><time>2026-04-07T07:14:34.677Z</time></trkpt><trkpt lat="46.1299556" lon="9.3550311"><ele>211.0</ele><time>2026-04-07T07:14:36.678Z</time></trkpt><trkpt lat="46.1300011" lon="9.3551473"><ele>210.8</ele><time>2026-04-07T07:14:38.677Z</time></trkpt><trkpt lat="46.1300512" lon="9.3552712"><ele>210.60000000000002</ele><time>2026-04-07T07:14:40.677Z</time></trkpt><trkpt lat="46.1301059" lon="9.3553933"><ele>210.4</ele><time>2026-04-07T07:14:42.677Z</time></trkpt><trkpt lat="46.1301486" lon="9.3555295"><ele>210.2</ele><time>2026-04-07T07:14:44.676Z</time></trkpt><trkpt lat="46.1301954" lon="9.3556679"><ele>210.0</ele><time>2026-04-07T07:14:46.677Z</time></trkpt><trkpt lat="46.1302328" lon="9.3558181"><ele>210.0</ele><time>2026-04-07T07:14:48.677Z</time></trkpt><trkpt lat="46.1302632" lon="9.3559584"><ele>210.0</ele><time>2026-04-07T07:14:50.677Z</time></trkpt><trkpt lat="46.130298" lon="9.3560993"><ele>210.0</ele><time>2026-04-07T07:14:52.676Z</time></trkpt><trkpt lat="46.1303362" lon="9.3562399"><ele>210.0</ele><time>2026-04-07T07:14:54.677Z</time></trkpt><trkpt lat="46.1303669" lon="9.3563905"><ele>210.0</ele><time>2026-04-07T07:14:56.676Z</time></trkpt><trkpt lat="46.1303842" lon="9.3565427"><ele>210.6</ele><time>2026-04-07T07:14:58.677Z</time></trkpt><trkpt lat="46.1304104" lon="9.3566916"><ele>211.2</ele><time>2026-04-07T07:15:00.678Z</time></trkpt><trkpt lat="46.130448" lon="9.3568247"><ele>211.8</ele><time>2026-04-07T07:15:02.678Z</time></trkpt><trkpt lat="46.1304845" lon="9.3569737"><ele>212.4</ele><time>2026-04-07T07:15:04.678Z</time></trkpt><trkpt lat="46.1305368" lon="9.357109"><ele>213.0</ele><time>2026-04-07T07:15:06.677Z</time></trkpt><trkpt lat="46.1305767" lon="9.3572555"><ele>213.5</ele><time>2026-04-07T07:15:08.677Z</time></trkpt><trkpt lat="46.1306217" lon="9.3573941"><ele>214.0</ele><time>2026-04-07T07:15:10.678Z</time></trkpt><trkpt lat="46.1306708" lon="9.3575417"><ele>214.5</ele><time>2026-04-07T07:15:12.677Z</time></trkpt><trkpt lat="46.1307124" lon="9.3576992"><ele>215.0</ele><time>2026-04-07T07:15:14.677Z</time></trkpt><trkpt lat="46.1307572" lon="9.3578541"><ele>214.2</ele><time>2026-04-07T07:15:16.677Z</time></trkpt><trkpt lat="46.130818" lon="9.3580069"><ele>213.4</ele><time>2026-04-07T07:15:18.676Z</time></trkpt><trkpt lat="46.1308942" lon="9.3581372"><ele>212.60000000000002</ele><time>2026-04-07T07:15:20.676Z</time></trkpt><trkpt lat="46.1309476" lon="9.3582874"><ele>211.8</ele><time>2026-04-07T07:15:22.678Z</time></trkpt><trkpt lat="46.1309815" lon="9.3583656"><ele>211.0</ele><time>2026-04-07T07:15:23.677Z</time></trkpt><trkpt lat="46.1310178" lon="9.3584458"><ele>211.0</ele><time>2026-04-07T07:15:24.678Z</time></trkpt><trkpt lat="46.1310479" lon="9.3585298"><ele>211.0</ele><time>2026-04-07T07:15:25.676Z</time></trkpt><trkpt lat="46.1310979" lon="9.3586986"><ele>211.0</ele><time>2026-04-07T07:15:27.677Z</time></trkpt><trkpt lat="46.1311101" lon="9.3587922"><ele>211.0</ele><time>2026-04-07T07:15:28.677Z</time></trkpt><trkpt lat="46.1311339" lon="9.3589604"><ele>211.0</ele><time>2026-04-07T07:15:30.677Z</time></trkpt><trkpt lat="46.1311833" lon="9.3591032"><ele>211.25</ele><time>2026-04-07T07:15:32.677Z</time></trkpt><trkpt lat="46.1312408" lon="9.3592501"><ele>211.5</ele><time>2026-04-07T07:15:34.678Z</time></trkpt><trkpt lat="46.131279" lon="9.3594012"><ele>211.75</ele><time>2026-04-07T07:15:36.678Z</time></trkpt><trkpt lat="46.1313118" lon="9.3595571"><ele>212.0</ele><time>2026-04-07T07:15:38.678Z</time></trkpt><trkpt lat="46.1313494" lon="9.3597068"><ele>211.85714285714286</ele><time>2026-04-07T07:15:40.677Z</time></trkpt><trkpt lat="46.1314112" lon="9.3598535"><ele>211.7142857142857</ele><time>2026-04-07T07:15:42.677Z</time></trkpt><trkpt lat="46.1314491" lon="9.3599295"><ele>211.57142857142856</ele><time>2026-04-07T07:15:43.677Z</time></trkpt><trkpt lat="46.1314849" lon="9.3600057"><ele>211.42857142857144</ele><time>2026-04-07T07:15:44.677Z</time></trkpt><trkpt lat="46.1315244" lon="9.3600789"><ele>211.28571428571428</ele><time>2026-04-07T07:15:45.676Z</time></trkpt><trkpt lat="46.1315626" lon="9.3601568"><ele>211.14285714285714</ele><time>2026-04-07T07:15:46.678Z</time></trkpt><trkpt lat="46.1315993" lon="9.3602338"><ele>211.0</ele><time>2026-04-07T07:15:47.677Z</time></trkpt><trkpt lat="46.131637" lon="9.3603127"><ele>211.0</ele><time>2026-04-07T07:15:48.678Z</time></trkpt><trkpt lat="46.1316761" lon="9.3603907"><ele>211.0</ele><time>2026-04-07T07:15:49.678Z</time></trkpt><trkpt lat="46.1317155" lon="9.3604714"><ele>211.0</ele><time>2026-04-07T07:15:50.677Z</time></trkpt><trkpt lat="46.1317527" lon="9.3605514"><ele>211.0</ele><time>2026-04-07T07:15:51.677Z</time></trkpt><trkpt lat="46.1317939" lon="9.3606331"><ele>211.0</ele><time>2026-04-07T07:15:52.679Z</time></trkpt><trkpt lat="46.1318423" lon="9.3607112"><ele>211.0</ele><time>2026-04-07T07:15:53.677Z</time></trkpt><trkpt lat="46.1318864" lon="9.3607914"><ele>211.0</ele><time>2026-04-07T07:15:54.677Z</time></trkpt><trkpt lat="46.1319287" lon="9.3608755"><ele>211.42857142857144</ele><time>2026-04-07T07:15:55.676Z</time></trkpt><trkpt lat="46.1319679" lon="9.3609608"><ele>211.85714285714286</ele><time>2026-04-07T07:15:56.677Z</time></trkpt><trkpt lat="46.1320094" lon="9.3610501"><ele>212.28571428571428</ele><time>2026-04-07T07:15:57.677Z</time></trkpt><trkpt lat="46.1320466" lon="9.3611329"><ele>212.71428571428572</ele><time>2026-04-07T07:15:58.676Z</time></trkpt><trkpt lat="46.1320867" lon="9.3612171"><ele>213.14285714285714</ele><time>2026-04-07T07:15:59.679Z</time></trkpt><trkpt lat="46.1321257" lon="9.3612928"><ele>213.57142857142858</ele><time>2026-04-07T07:16:00.677Z</time></trkpt><trkpt lat="46.1321633" lon="9.361366"><ele>214.0</ele><time>2026-04-07T07:16:01.676Z</time></trkpt><trkpt lat="46.1322032" lon="9.3614405"><ele>214.16666666666666</ele><time>2026-04-07T07:16:02.679Z</time></trkpt><trkpt lat="46.1322449" lon="9.3615214"><ele>214.33333333333331</ele><time>2026-04-07T07:16:03.678Z</time></trkpt><trkpt lat="46.1322877" lon="9.3615993"><ele>214.5</ele><time>2026-04-07T07:16:04.677Z</time></trkpt><trkpt lat="46.1323235" lon="9.3616791"><ele>214.66666666666669</ele><time>2026-04-07T07:16:05.677Z</time></trkpt><trkpt lat="46.132361" lon="9.3617542"><ele>214.83333333333334</ele><time>2026-04-07T07:16:06.678Z</time></trkpt><trkpt lat="46.132436" lon="9.3619081"><ele>215.0</ele><time>2026-04-07T07:16:08.677Z</time></trkpt><trkpt lat="46.1324719" lon="9.3619834"><ele>213.75</ele><time>2026-04-07T07:16:09.679Z</time></trkpt><trkpt lat="46.1325335" lon="9.362131"><ele>212.5</ele><time>2026-04-07T07:16:11.677Z</time></trkpt><trkpt lat="46.1326012" lon="9.362269"><ele>211.25</ele><time>2026-04-07T07:16:13.677Z</time></trkpt><trkpt lat="46.13267" lon="9.3624189"><ele>210.0</ele><time>2026-04-07T07:16:15.676Z</time></trkpt><trkpt lat="46.132741" lon="9.3625656"><ele>210.0</ele><time>2026-04-07T07:16:17.676Z</time></trkpt><trkpt lat="46.1328177" lon="9.3627139"><ele>210.0</ele><time>2026-04-07T07:16:19.678Z</time></trkpt><trkpt lat="46.132856" lon="9.3627902"><ele>210.0</ele><time>2026-04-07T07:16:20.679Z</time></trkpt><trkpt lat="46.1329313" lon="9.3629412"><ele>210.0</ele><time>2026-04-07T07:16:22.677Z</time></trkpt><trkpt lat="46.1329737" lon="9.3630219"><ele>210.0</ele><time>2026-04-07T07:16:23.678Z</time></trkpt><trkpt lat="46.1330158" lon="9.3630986"><ele>210.28571428571428</ele><time>2026-04-07T07:16:24.677Z</time></trkpt><trkpt lat="46.1330597" lon="9.3631707"><ele>210.57142857142856</ele><time>2026-04-07T07:16:25.678Z</time></trkpt><trkpt lat="46.1330997" lon="9.3632546"><ele>210.85714285714286</ele><time>2026-04-07T07:16:26.676Z</time></trkpt><trkpt lat="46.1331419" lon="9.3633414"><ele>211.14285714285714</ele><time>2026-04-07T07:16:27.678Z</time></trkpt><trkpt lat="46.1331823" lon="9.3634233"><ele>211.42857142857142</ele><time>2026-04-07T07:16:28.677Z</time></trkpt><trkpt lat="46.1332171" lon="9.3635004"><ele>211.71428571428572</ele><time>2026-04-07T07:16:29.677Z</time></trkpt><trkpt lat="46.1332528" lon="9.3635801"><ele>212.0</ele><time>2026-04-07T07:16:30.677Z</time></trkpt><trkpt lat="46.1332901" lon="9.3636534"><ele>211.66666666666669</ele><time>2026-04-07T07:16:31.678Z</time></trkpt><trkpt lat="46.1333464" lon="9.3637723"><ele>211.33333333333334</ele><time>2026-04-07T07:16:33.678Z</time></trkpt><trkpt lat="46.1333991" lon="9.3638545"><ele>211.0</ele><time>2026-04-07T07:16:35.676Z</time></trkpt><trkpt lat="46.1334585" lon="9.3639043"><ele>210.66666666666669</ele><time>2026-04-07T07:16:40.679Z</time></trkpt><trkpt lat="46.1335147" lon="9.3639603"><ele>210.33333333333334</ele><time>2026-04-07T07:16:46.678Z</time></trkpt><trkpt lat="46.1335992" lon="9.363965"><ele>210.0</ele><time>2026-04-07T07:16:49.678Z</time></trkpt><trkpt lat="46.1336667" lon="9.3639461"><ele>210.0</ele><time>2026-04-07T07:16:51.678Z</time></trkpt><trkpt lat="46.1337465" lon="9.3639546"><ele>210.0</ele><time>2026-04-07T07:16:53.676Z</time></trkpt><trkpt lat="46.1338347" lon="9.3639212"><ele>210.0</ele><time>2026-04-07T07:16:55.678Z</time></trkpt><trkpt lat="46.1339283" lon="9.3638637"><ele>210.0</ele><time>2026-04-07T07:16:57.677Z</time></trkpt><trkpt lat="46.1340244" lon="9.3638013"><ele>210.0</ele><time>2026-04-07T07:16:59.678Z</time></trkpt><trkpt lat="46.1341306" lon="9.3637281"><ele>209.14285714285714</ele><time>2026-04-07T07:17:01.679Z</time></trkpt><trkpt lat="46.1341886" lon="9.3636844"><ele>208.28571428571428</ele><time>2026-04-07T07:17:02.677Z</time></trkpt><trkpt lat="46.134247" lon="9.3636413"><ele>207.42857142857144</ele><time>2026-04-07T07:17:03.677Z</time></trkpt><trkpt lat="46.1343067" lon="9.3636005"><ele>206.57142857142856</ele><time>2026-04-07T07:17:04.677Z</time></trkpt><trkpt lat="46.1343686" lon="9.3635619"><ele>205.71428571428572</ele><time>2026-04-07T07:17:05.678Z</time></trkpt><trkpt lat="46.1344322" lon="9.3635163"><ele>204.85714285714286</ele><time>2026-04-07T07:17:06.677Z</time></trkpt><trkpt lat="46.1344951" lon="9.3634695"><ele>204.0</ele><time>2026-04-07T07:17:07.678Z</time></trkpt><trkpt lat="46.1345562" lon="9.3634186"><ele>204.0</ele><time>2026-04-07T07:17:08.677Z</time></trkpt><trkpt lat="46.1346196" lon="9.3633706"><ele>204.0</ele><time>2026-04-07T07:17:09.676Z</time></trkpt><trkpt lat="46.1346844" lon="9.3633242"><ele>204.0</ele><time>2026-04-07T07:17:10.678Z</time></trkpt><trkpt lat="46.134747" lon="9.3632771"><ele>204.0</ele><time>2026-04-07T07:17:11.677Z</time></trkpt><trkpt lat="46.1348119" lon="9.3632241"><ele>204.0</ele><time>2026-04-07T07:17:12.677Z</time></trkpt><trkpt lat="46.1348782" lon="9.3631678"><ele>204.0</ele><time>2026-04-07T07:17:13.677Z</time></trkpt><trkpt lat="46.1349461" lon="9.3631167"><ele>204.0</ele><time>2026-04-07T07:17:14.678Z</time></trkpt><trkpt lat="46.1350155" lon="9.3630752"><ele>203.57142857142858</ele><time>2026-04-07T07:17:15.678Z</time></trkpt><trkpt lat="46.1350789" lon="9.3630303"><ele>203.14285714285717</ele><time>2026-04-07T07:17:16.677Z</time></trkpt><trkpt lat="46.1351441" lon="9.3629865"><ele>202.71428571428572</ele><time>2026-04-07T07:17:17.678Z</time></trkpt><trkpt lat="46.135216" lon="9.3629426"><ele>202.28571428571428</ele><time>2026-04-07T07:17:18.677Z</time></trkpt><trkpt lat="46.1352873" lon="9.3629014"><ele>201.85714285714286</ele><time>2026-04-07T07:17:19.679Z</time></trkpt><trkpt lat="46.1353527" lon="9.3628587"><ele>201.42857142857142</ele><time>2026-04-07T07:17:20.677Z</time></trkpt><trkpt lat="46.1354104" lon="9.362817"><ele>201.0</ele><time>2026-04-07T07:17:21.677Z</time></trkpt><trkpt lat="46.1355105" lon="9.3627479"><ele>201.0</ele><time>2026-04-07T07:17:23.676Z</time></trkpt><trkpt lat="46.1355922" lon="9.362741"><ele>201.0</ele><time>2026-04-07T07:17:25.677Z</time></trkpt><trkpt lat="46.1356425" lon="9.3628377"><ele>201.0</ele><time>2026-04-07T07:17:27.678Z</time></trkpt><trkpt lat="46.1356542" lon="9.3629583"><ele>201.0</ele><time>2026-04-07T07:17:29.678Z</time></trkpt><trkpt lat="46.1356726" lon="9.3630913"><ele>201.0</ele><time>2026-04-07T07:17:31.677Z</time></trkpt><trkpt lat="46.1356893" lon="9.3632376"><ele>201.0</ele><time>2026-04-07T07:17:33.678Z</time></trkpt><trkpt lat="46.1357041" lon="9.3633885"><ele>201.20000000000002</ele><time>2026-04-07T07:17:35.676Z</time></trkpt><trkpt lat="46.1357106" lon="9.3635502"><ele>201.4</ele><time>2026-04-07T07:17:37.679Z</time></trkpt><trkpt lat="46.135715" lon="9.3637126"><ele>201.6</ele><time>2026-04-07T07:17:39.676Z</time></trkpt><trkpt lat="46.1357308" lon="9.363869"><ele>201.8</ele><time>2026-04-07T07:17:41.678Z</time></trkpt><trkpt lat="46.1357517" lon="9.3640319"><ele>202.0</ele><time>2026-04-07T07:17:43.677Z</time></trkpt><trkpt lat="46.1357849" lon="9.364197"><ele>201.75</ele><time>2026-04-07T07:17:45.677Z</time></trkpt><trkpt lat="46.1358267" lon="9.3643512"><ele>201.5</ele><time>2026-04-07T07:17:47.678Z</time></trkpt><trkpt lat="46.1358752" lon="9.3645058"><ele>201.25</ele><time>2026-04-07T07:17:49.678Z</time></trkpt><trkpt lat="46.1359179" lon="9.3646575"><ele>201.0</ele><time>2026-04-07T07:17:51.678Z</time></trkpt><trkpt lat="46.1359573" lon="9.3648061"><ele>201.0</ele><time>2026-04-07T07:17:53.677Z</time></trkpt><trkpt lat="46.1359994" lon="9.3649599"><ele>201.0</ele><time>2026-04-07T07:17:55.677Z</time></trkpt><trkpt lat="46.1360479" lon="9.365114"><ele>201.0</ele><time>2026-04-07T07:17:57.678Z</time></trkpt><trkpt lat="46.1360964" lon="9.3652636"><ele>201.0</ele><time>2026-04-07T07:17:59.679Z</time></trkpt><trkpt lat="46.1361537" lon="9.3654069"><ele>201.20000000000002</ele><time>2026-04-07T07:18:01.677Z</time></trkpt><trkpt lat="46.1362225" lon="9.365543"><ele>201.4</ele><time>2026-04-07T07:18:03.677Z</time></trkpt><trkpt lat="46.1362992" lon="9.3656551"><ele>201.6</ele><time>2026-04-07T07:18:05.676Z</time></trkpt><trkpt lat="46.1363834" lon="9.3657641"><ele>201.8</ele><time>2026-04-07T07:18:07.676Z</time></trkpt><trkpt lat="46.1364613" lon="9.3658676"><ele>202.0</ele><time>2026-04-07T07:18:09.679Z</time></trkpt><trkpt lat="46.1365225" lon="9.3659812"><ele>201.6</ele><time>2026-04-07T07:18:11.678Z</time></trkpt><trkpt lat="46.1365799" lon="9.3661138"><ele>201.2</ele><time>2026-04-07T07:18:13.677Z</time></trkpt><trkpt lat="46.1366166" lon="9.3662823"><ele>200.8</ele><time>2026-04-07T07:18:15.677Z</time></trkpt><trkpt lat="46.1366337" lon="9.3664502"><ele>200.4</ele><time>2026-04-07T07:18:17.676Z</time></trkpt><trkpt lat="46.1366447" lon="9.3665454"><ele>200.0</ele><time>2026-04-07T07:18:18.677Z</time></trkpt><trkpt lat="46.1366683" lon="9.3667269"><ele>200.00000000000003</ele><time>2026-04-07T07:18:20.677Z</time></trkpt><trkpt lat="46.1366859" lon="9.3668215"><ele>200.0</ele><time>2026-04-07T07:18:21.678Z</time></trkpt><trkpt lat="46.1366975" lon="9.3669148"><ele>200.0</ele><time>2026-04-07T07:18:22.678Z</time></trkpt><trkpt lat="46.1367141" lon="9.3670049"><ele>200.0</ele><time>2026-04-07T07:18:23.678Z</time></trkpt><trkpt lat="46.1367292" lon="9.3670992"><ele>200.00000000000003</ele><time>2026-04-07T07:18:24.678Z</time></trkpt><trkpt lat="46.1367807" lon="9.3672631"><ele>200.0</ele><time>2026-04-07T07:18:26.678Z</time></trkpt><trkpt lat="46.1368462" lon="9.3674109"><ele>200.4</ele><time>2026-04-07T07:18:28.679Z</time></trkpt><trkpt lat="46.1369095" lon="9.3675437"><ele>200.8</ele><time>2026-04-07T07:18:30.678Z</time></trkpt><trkpt lat="46.1369694" lon="9.3676767"><ele>201.2</ele><time>2026-04-07T07:18:32.677Z</time></trkpt><trkpt lat="46.1370172" lon="9.3678052"><ele>201.6</ele><time>2026-04-07T07:18:34.678Z</time></trkpt><trkpt lat="46.1370846" lon="9.367934"><ele>202.0</ele><time>2026-04-07T07:18:36.678Z</time></trkpt><trkpt lat="46.1371448" lon="9.3680651"><ele>202.6</ele><time>2026-04-07T07:18:38.678Z</time></trkpt><trkpt lat="46.1371903" lon="9.3681997"><ele>203.2</ele><time>2026-04-07T07:18:40.679Z</time></trkpt><trkpt lat="46.13725" lon="9.3683182"><ele>203.8</ele><time>2026-04-07T07:18:42.678Z</time></trkpt><trkpt lat="46.1372952" lon="9.3684488"><ele>204.4</ele><time>2026-04-07T07:18:44.678Z</time></trkpt><trkpt lat="46.1372828" lon="9.3686111"><ele>205.0</ele><time>2026-04-07T07:18:46.676Z</time></trkpt><trkpt lat="46.1372616" lon="9.3687628"><ele>205.0</ele><time>2026-04-07T07:18:48.677Z</time></trkpt><trkpt lat="46.1372627" lon="9.368903"><ele>205.0</ele><time>2026-04-07T07:18:50.677Z</time></trkpt><trkpt lat="46.1372629" lon="9.3690436"><ele>205.0</ele><time>2026-04-07T07:18:52.678Z</time></trkpt><trkpt lat="46.1372651" lon="9.3691794"><ele>205.0</ele><time>2026-04-07T07:18:54.677Z</time></trkpt><trkpt lat="46.1372439" lon="9.3693163"><ele>205.0</ele><time>2026-04-07T07:18:56.678Z</time></trkpt><trkpt lat="46.1372188" lon="9.3694196"><ele>205.0</ele><time>2026-04-07T07:18:58.678Z</time></trkpt><trkpt lat="46.1371908" lon="9.3695269"><ele>205.0</ele><time>2026-04-07T07:19:00.678Z</time></trkpt><trkpt lat="46.1371703" lon="9.369629"><ele>205.0</ele><time>2026-04-07T07:19:02.677Z</time></trkpt><trkpt lat="46.137154" lon="9.3697291"><ele>205.0</ele><time>2026-04-07T07:19:04.677Z</time></trkpt><trkpt lat="46.1371361" lon="9.3698282"><ele>205.0</ele><time>2026-04-07T07:19:06.677Z</time></trkpt><trkpt lat="46.1371141" lon="9.3699234"><ele>205.0</ele><time>2026-04-07T07:19:08.678Z</time></trkpt><trkpt lat="46.1370976" lon="9.3700278"><ele>205.0</ele><time>2026-04-07T07:19:10.678Z</time></trkpt><trkpt lat="46.137102" lon="9.370128"><ele>205.0</ele><time>2026-04-07T07:19:12.679Z</time></trkpt><trkpt lat="46.1371019" lon="9.3702386"><ele>205.0</ele><time>2026-04-07T07:19:14.678Z</time></trkpt><trkpt lat="46.1370978" lon="9.3703354"><ele>205.0</ele><time>2026-04-07T07:19:16.678Z</time></trkpt><trkpt lat="46.1371075" lon="9.3704344"><ele>205.0</ele><time>2026-04-07T07:19:18.677Z</time></trkpt><trkpt lat="46.1371296" lon="9.3705373"><ele>205.0</ele><time>2026-04-07T07:19:20.678Z</time></trkpt><trkpt lat="46.1371571" lon="9.3706427"><ele>205.0</ele><time>2026-04-07T07:19:22.678Z</time></trkpt><trkpt lat="46.1371891" lon="9.3707407"><ele>205.0</ele><time>2026-04-07T07:19:24.678Z</time></trkpt><trkpt lat="46.1372216" lon="9.3708409"><ele>205.16666666666666</ele><time>2026-04-07T07:19:26.677Z</time></trkpt><trkpt lat="46.1372456" lon="9.3709495"><ele>205.33333333333331</ele><time>2026-04-07T07:19:28.679Z</time></trkpt><trkpt lat="46.1372687" lon="9.3710532"><ele>205.5</ele><time>2026-04-07T07:19:30.678Z</time></trkpt><trkpt lat="46.1373005" lon="9.3711575"><ele>205.66666666666669</ele><time>2026-04-07T07:19:32.677Z</time></trkpt><trkpt lat="46.1373333" lon="9.371269"><ele>205.83333333333334</ele><time>2026-04-07T07:19:34.68Z</time></trkpt><trkpt lat="46.1373734" lon="9.371394"><ele>206.0</ele><time>2026-04-07T07:19:36.678Z</time></trkpt><trkpt lat="46.1374229" lon="9.3715097"><ele>205.33333333333334</ele><time>2026-04-07T07:19:38.679Z</time></trkpt><trkpt lat="46.1374606" lon="9.3716411"><ele>204.66666666666669</ele><time>2026-04-07T07:19:40.679Z</time></trkpt><trkpt lat="46.1375227" lon="9.3717549"><ele>204.0</ele><time>2026-04-07T07:19:42.678Z</time></trkpt><trkpt lat="46.1375678" lon="9.3718657"><ele>203.33333333333331</ele><time>2026-04-07T07:19:44.678Z</time></trkpt><trkpt lat="46.1376135" lon="9.3719631"><ele>202.66666666666666</ele><time>2026-04-07T07:19:46.678Z</time></trkpt><trkpt lat="46.1376532" lon="9.3720554"><ele>202.0</ele><time>2026-04-07T07:19:48.677Z</time></trkpt><trkpt lat="46.1377327" lon="9.3721125"><ele>201.99999999999997</ele><time>2026-04-07T07:19:50.678Z</time></trkpt><trkpt lat="46.1378018" lon="9.3721709"><ele>202.0</ele><time>2026-04-07T07:19:52.678Z</time></trkpt><trkpt lat="46.1378773" lon="9.372219"><ele>202.0</ele><time>2026-04-07T07:19:54.677Z</time></trkpt><trkpt lat="46.13795" lon="9.3722693"><ele>202.0</ele><time>2026-04-07T07:19:56.677Z</time></trkpt><trkpt lat="46.1380141" lon="9.372336"><ele>201.99999999999997</ele><time>2026-04-07T07:19:58.677Z</time></trkpt><trkpt lat="46.138081" lon="9.3723778"><ele>202.0</ele><time>2026-04-07T07:20:00.678Z</time></trkpt><trkpt lat="46.1381499" lon="9.3724072"><ele>201.49999999999997</ele><time>2026-04-07T07:20:02.678Z</time></trkpt><trkpt lat="46.1382194" lon="9.37246"><ele>201.0</ele><time>2026-04-07T07:20:04.677Z</time></trkpt><trkpt lat="46.1382874" lon="9.3725176"><ele>200.5</ele><time>2026-04-07T07:20:06.678Z</time></trkpt><trkpt lat="46.1383617" lon="9.3725785"><ele>200.0</ele><time>2026-04-07T07:20:08.678Z</time></trkpt><trkpt lat="46.1384235" lon="9.3726511"><ele>199.49999999999997</ele><time>2026-04-07T07:20:10.678Z</time></trkpt><trkpt lat="46.1384576" lon="9.3727584"><ele>199.0</ele><time>2026-04-07T07:20:12.679Z</time></trkpt><trkpt lat="46.1384673" lon="9.3728857"><ele>199.39999999999998</ele><time>2026-04-07T07:20:14.678Z</time></trkpt><trkpt lat="46.1384754" lon="9.3730236"><ele>199.8</ele><time>2026-04-07T07:20:16.677Z</time></trkpt><trkpt lat="46.1384874" lon="9.3731653"><ele>200.2</ele><time>2026-04-07T07:20:18.679Z</time></trkpt><trkpt lat="46.1385046" lon="9.3733021"><ele>200.60000000000002</ele><time>2026-04-07T07:20:20.678Z</time></trkpt><trkpt lat="46.1385184" lon="9.3734468"><ele>201.0</ele><time>2026-04-07T07:20:22.679Z</time></trkpt><trkpt lat="46.1385411" lon="9.3735828"><ele>201.0</ele><time>2026-04-07T07:20:24.679Z</time></trkpt><trkpt lat="46.1385546" lon="9.373714"><ele>201.0</ele><time>2026-04-07T07:20:26.679Z</time></trkpt><trkpt lat="46.1385516" lon="9.3738497"><ele>201.0</ele><time>2026-04-07T07:20:28.679Z</time></trkpt><trkpt lat="46.1385596" lon="9.3739775"><ele>201.0</ele><time>2026-04-07T07:20:30.678Z</time></trkpt><trkpt lat="46.1385764" lon="9.3741021"><ele>201.0</ele><time>2026-04-07T07:20:32.678Z</time></trkpt><trkpt lat="46.1385826" lon="9.3742472"><ele>201.60000000000002</ele><time>2026-04-07T07:20:34.678Z</time></trkpt><trkpt lat="46.1385929" lon="9.3743759"><ele>202.2</ele><time>2026-04-07T07:20:36.678Z</time></trkpt><trkpt lat="46.1385875" lon="9.3745132"><ele>202.8</ele><time>2026-04-07T07:20:38.678Z</time></trkpt><trkpt lat="46.1385515" lon="9.3746249"><ele>203.39999999999998</ele><time>2026-04-07T07:20:40.678Z</time></trkpt><trkpt lat="46.1384978" lon="9.3747612"><ele>204.0</ele><time>2026-04-07T07:20:43.679Z</time></trkpt><trkpt lat="46.1384887" lon="9.3749179"><ele>204.6</ele><time>2026-04-07T07:20:45.679Z</time></trkpt><trkpt lat="46.1385331" lon="9.3749961"><ele>205.2</ele><time>2026-04-07T07:20:47.744Z</time></trkpt><trkpt lat="46.1386402" lon="9.3750792"><ele>205.79999999999998</ele><time>2026-04-07T07:20:49.677Z</time></trkpt><trkpt lat="46.1387056" lon="9.3751922"><ele>206.39999999999998</ele><time>2026-04-07T07:20:51.678Z</time></trkpt><trkpt lat="46.138757" lon="9.3753141"><ele>207.0</ele><time>2026-04-07T07:20:53.678Z</time></trkpt><trkpt lat="46.1388163" lon="9.3754449"><ele>207.39999999999998</ele><time>2026-04-07T07:20:55.68Z</time></trkpt><trkpt lat="46.1388816" lon="9.375572"><ele>207.79999999999998</ele><time>2026-04-07T07:20:57.678Z</time></trkpt><trkpt lat="46.138947" lon="9.3757087"><ele>208.2</ele><time>2026-04-07T07:20:59.678Z</time></trkpt><trkpt lat="46.1389923" lon="9.3758316"><ele>208.6</ele><time>2026-04-07T07:21:01.678Z</time></trkpt><trkpt lat="46.1390428" lon="9.3759557"><ele>209.0</ele><time>2026-04-07T07:21:03.679Z</time></trkpt><trkpt lat="46.1390647" lon="9.3760775"><ele>208.79999999999998</ele><time>2026-04-07T07:21:05.678Z</time></trkpt><trkpt lat="46.1390922" lon="9.3762068"><ele>208.6</ele><time>2026-04-07T07:21:07.678Z</time></trkpt><trkpt lat="46.1391258" lon="9.3763335"><ele>208.4</ele><time>2026-04-07T07:21:09.679Z</time></trkpt><trkpt lat="46.1391565" lon="9.3764509"><ele>208.2</ele><time>2026-04-07T07:21:11.68Z</time></trkpt><trkpt lat="46.139195" lon="9.3765724"><ele>208.0</ele><time>2026-04-07T07:21:13.677Z</time></trkpt><trkpt lat="46.1392351" lon="9.3766948"><ele>208.0</ele><time>2026-04-07T07:21:15.677Z</time></trkpt><trkpt lat="46.1392768" lon="9.3768157"><ele>208.0</ele><time>2026-04-07T07:21:17.679Z</time></trkpt><trkpt lat="46.1393245" lon="9.3769337"><ele>208.0</ele><time>2026-04-07T07:21:19.678Z</time></trkpt><trkpt lat="46.1393656" lon="9.3770576"><ele>208.0</ele><time>2026-04-07T07:21:21.679Z</time></trkpt><trkpt lat="46.1394127" lon="9.3771896"><ele>208.0</ele><time>2026-04-07T07:21:23.678Z</time></trkpt><trkpt lat="46.1394572" lon="9.377318"><ele>208.2</ele><time>2026-04-07T07:21:25.678Z</time></trkpt><trkpt lat="46.1394993" lon="9.377436"><ele>208.4</ele><time>2026-04-07T07:21:27.679Z</time></trkpt><trkpt lat="46.1395575" lon="9.3775716"><ele>208.6</ele><time>2026-04-07T07:21:29.68Z</time></trkpt><trkpt lat="46.1396182" lon="9.3776991"><ele>208.79999999999998</ele><time>2026-04-07T07:21:31.679Z</time></trkpt><trkpt lat="46.1396791" lon="9.3778139"><ele>209.0</ele><time>2026-04-07T07:21:33.678Z</time></trkpt><trkpt lat="46.1397457" lon="9.3779133"><ele>209.2</ele><time>2026-04-07T07:21:35.679Z</time></trkpt><trkpt lat="46.1398401" lon="9.3780635"><ele>209.39999999999998</ele><time>2026-04-07T07:21:38.677Z</time></trkpt><trkpt lat="46.1398991" lon="9.3781595"><ele>209.6</ele><time>2026-04-07T07:21:40.677Z</time></trkpt><trkpt lat="46.1399432" lon="9.3782545"><ele>209.8</ele><time>2026-04-07T07:21:42.677Z</time></trkpt><trkpt lat="46.1399829" lon="9.3783433"><ele>210.0</ele><time>2026-04-07T07:21:44.678Z</time></trkpt><trkpt lat="46.1400193" lon="9.3784259"><ele>210.0</ele><time>2026-04-07T07:21:46.678Z</time></trkpt><trkpt lat="46.1400514" lon="9.3785128"><ele>210.0</ele><time>2026-04-07T07:21:48.677Z</time></trkpt><trkpt lat="46.1400822" lon="9.3786397"><ele>210.0</ele><time>2026-04-07T07:21:50.678Z</time></trkpt><trkpt lat="46.1401154" lon="9.3787606"><ele>210.0</ele><time>2026-04-07T07:21:52.816Z</time></trkpt><trkpt lat="46.1401518" lon="9.3788711"><ele>210.0</ele><time>2026-04-07T07:21:54.679Z</time></trkpt><trkpt lat="46.140185" lon="9.3790036"><ele>210.0</ele><time>2026-04-07T07:21:56.678Z</time></trkpt><trkpt lat="46.140211" lon="9.3791382"><ele>210.0</ele><time>2026-04-07T07:21:58.68Z</time></trkpt><trkpt lat="46.1402374" lon="9.3792845"><ele>210.0</ele><time>2026-04-07T07:22:00.678Z</time></trkpt><trkpt lat="46.1402644" lon="9.3794257"><ele>210.0</ele><time>2026-04-07T07:22:02.677Z</time></trkpt><trkpt lat="46.1402977" lon="9.3795826"><ele>210.0</ele><time>2026-04-07T07:22:04.678Z</time></trkpt><trkpt lat="46.1403379" lon="9.3797379"><ele>210.0</ele><time>2026-04-07T07:22:06.678Z</time></trkpt><trkpt lat="46.1403752" lon="9.3798856"><ele>210.4</ele><time>2026-04-07T07:22:08.679Z</time></trkpt><trkpt lat="46.1404157" lon="9.3800327"><ele>210.8</ele><time>2026-04-07T07:22:10.678Z</time></trkpt><trkpt lat="46.1404396" lon="9.3801187"><ele>211.2</ele><time>2026-04-07T07:22:11.679Z</time></trkpt><trkpt lat="46.1404705" lon="9.3802725"><ele>211.6</ele><time>2026-04-07T07:22:13.679Z</time></trkpt><trkpt lat="46.1405126" lon="9.3804103"><ele>212.0</ele><time>2026-04-07T07:22:15.678Z</time></trkpt><trkpt lat="46.1405375" lon="9.3805482"><ele>212.6</ele><time>2026-04-07T07:22:17.678Z</time></trkpt><trkpt lat="46.1405634" lon="9.3806842"><ele>213.2</ele><time>2026-04-07T07:22:19.679Z</time></trkpt><trkpt lat="46.1406032" lon="9.3808396"><ele>213.8</ele><time>2026-04-07T07:22:21.677Z</time></trkpt><trkpt lat="46.1406274" lon="9.3809704"><ele>214.4</ele><time>2026-04-07T07:22:23.68Z</time></trkpt><trkpt lat="46.1406591" lon="9.3811102"><ele>215.0</ele><time>2026-04-07T07:22:25.678Z</time></trkpt><trkpt lat="46.1406889" lon="9.3812557"><ele>214.0</ele><time>2026-04-07T07:22:27.678Z</time></trkpt><trkpt lat="46.1407275" lon="9.3814188"><ele>213.0</ele><time>2026-04-07T07:22:29.678Z</time></trkpt><trkpt lat="46.1407669" lon="9.3815613"><ele>212.0</ele><time>2026-04-07T07:22:31.68Z</time></trkpt><trkpt lat="46.1407926" lon="9.3817144"><ele>211.0</ele><time>2026-04-07T07:22:33.679Z</time></trkpt><trkpt lat="46.1408292" lon="9.3818508"><ele>210.0</ele><time>2026-04-07T07:22:35.679Z</time></trkpt><trkpt lat="46.1408666" lon="9.382"><ele>210.0</ele><time>2026-04-07T07:22:37.678Z</time></trkpt><trkpt lat="46.140905" lon="9.3821531"><ele>210.0</ele><time>2026-04-07T07:22:39.68Z</time></trkpt><trkpt lat="46.1409407" lon="9.3822941"><ele>210.0</ele><time>2026-04-07T07:22:41.679Z</time></trkpt><trkpt lat="46.1409733" lon="9.3824336"><ele>210.0</ele><time>2026-04-07T07:22:43.678Z</time></trkpt><trkpt lat="46.1410026" lon="9.3825802"><ele>210.0</ele><time>2026-04-07T07:22:45.679Z</time></trkpt><trkpt lat="46.141035" lon="9.3827195"><ele>210.4</ele><time>2026-04-07T07:22:47.679Z</time></trkpt><trkpt lat="46.1410709" lon="9.3828635"><ele>210.8</ele><time>2026-04-07T07:22:49.679Z</time></trkpt><trkpt lat="46.1411083" lon="9.3830045"><ele>211.2</ele><time>2026-04-07T07:22:51.68Z</time></trkpt><trkpt lat="46.1411774" lon="9.3831148"><ele>211.6</ele><time>2026-04-07T07:22:53.678Z</time></trkpt><trkpt lat="46.1412668" lon="9.3831696"><ele>212.0</ele><time>2026-04-07T07:22:55.679Z</time></trkpt><trkpt lat="46.1413474" lon="9.3831321"><ele>212.2</ele><time>2026-04-07T07:22:57.678Z</time></trkpt><trkpt lat="46.1414456" lon="9.383119"><ele>212.39999999999998</ele><time>2026-04-07T07:22:59.678Z</time></trkpt><trkpt lat="46.1415384" lon="9.3831206"><ele>212.60000000000002</ele><time>2026-04-07T07:23:01.679Z</time></trkpt><trkpt lat="46.1416431" lon="9.3831505"><ele>212.8</ele><time>2026-04-07T07:23:03.678Z</time></trkpt><trkpt lat="46.1417292" lon="9.3832253"><ele>213.0</ele><time>2026-04-07T07:23:05.68Z</time></trkpt><trkpt lat="46.1418172" lon="9.3833182"><ele>212.33333333333334</ele><time>2026-04-07T07:23:07.679Z</time></trkpt><trkpt lat="46.1418711" lon="9.3834366"><ele>211.66666666666669</ele><time>2026-04-07T07:23:09.679Z</time></trkpt><trkpt lat="46.1418954" lon="9.3835428"><ele>211.0</ele><time>2026-04-07T07:23:11.68Z</time></trkpt><trkpt lat="46.1419092" lon="9.3836509"><ele>210.33333333333334</ele><time>2026-04-07T07:23:13.679Z</time></trkpt><trkpt lat="46.141899" lon="9.38375"><ele>209.66666666666669</ele><time>2026-04-07T07:23:15.679Z</time></trkpt><trkpt lat="46.1418819" lon="9.3838638"><ele>209.0</ele><time>2026-04-07T07:23:18.678Z</time></trkpt><trkpt lat="46.1418477" lon="9.3839543"><ele>209.00000000000003</ele><time>2026-04-07T07:23:21.677Z</time></trkpt><trkpt lat="46.1417926" lon="9.3840412"><ele>209.0</ele><time>2026-04-07T07:23:24.678Z</time></trkpt><trkpt lat="46.141727" lon="9.3840902"><ele>209.0</ele><time>2026-04-07T07:23:27.679Z</time></trkpt><trkpt lat="46.1416577" lon="9.3841437"><ele>209.0</ele><time>2026-04-07T07:23:30.678Z</time></trkpt><trkpt lat="46.1415956" lon="9.3841837"><ele>209.00000000000003</ele><time>2026-04-07T07:23:33.68Z</time></trkpt><trkpt lat="46.1415162" lon="9.3842176"><ele>209.0</ele><time>2026-04-07T07:23:37.678Z</time></trkpt><trkpt lat="46.1414327" lon="9.3842439"><ele>209.66666666666669</ele><time>2026-04-07T07:23:41.678Z</time></trkpt><trkpt lat="46.1413489" lon="9.3842686"><ele>210.33333333333334</ele><time>2026-04-07T07:23:44.679Z</time></trkpt><trkpt lat="46.1412612" lon="9.3842941"><ele>211.0</ele><time>2026-04-07T07:23:47.679Z</time></trkpt><trkpt lat="46.1411973" lon="9.3843192"><ele>211.66666666666669</ele><time>2026-04-07T07:23:49.678Z</time></trkpt><trkpt lat="46.1411225" lon="9.3843584"><ele>212.33333333333334</ele><time>2026-04-07T07:23:51.678Z</time></trkpt><trkpt lat="46.1410204" lon="9.3844047"><ele>213.0</ele><time>2026-04-07T07:23:53.679Z</time></trkpt><trkpt lat="46.1408927" lon="9.3844407"><ele>213.0</ele><time>2026-04-07T07:23:55.679Z</time></trkpt><trkpt lat="46.1408208" lon="9.3844735"><ele>213.0</ele><time>2026-04-07T07:23:56.679Z</time></trkpt><trkpt lat="46.1407505" lon="9.3845104"><ele>213.0</ele><time>2026-04-07T07:23:57.679Z</time></trkpt><trkpt lat="46.1406374" lon="9.384561"><ele>213.0</ele><time>2026-04-07T07:23:59.679Z</time></trkpt><trkpt lat="46.1405691" lon="9.3845913"><ele>213.0</ele><time>2026-04-07T07:24:00.68Z</time></trkpt><trkpt lat="46.1404444" lon="9.3846253"><ele>213.83333333333334</ele><time>2026-04-07T07:24:02.679Z</time></trkpt><trkpt lat="46.1403363" lon="9.3846447"><ele>214.66666666666669</ele><time>2026-04-07T07:24:04.679Z</time></trkpt><trkpt lat="46.1402697" lon="9.3846946"><ele>215.5</ele><time>2026-04-07T07:24:06.679Z</time></trkpt><trkpt lat="46.140223" lon="9.3847806"><ele>216.33333333333334</ele><time>2026-04-07T07:24:08.679Z</time></trkpt><trkpt lat="46.1402374" lon="9.3849072"><ele>217.16666666666669</ele><time>2026-04-07T07:24:11.679Z</time></trkpt><trkpt lat="46.1402529" lon="9.385012"><ele>218.0</ele><time>2026-04-07T07:24:13.679Z</time></trkpt><trkpt lat="46.1402637" lon="9.3851426"><ele>218.0</ele><time>2026-04-07T07:24:15.679Z</time></trkpt><trkpt lat="46.1403011" lon="9.3852751"><ele>218.0</ele><time>2026-04-07T07:24:17.68Z</time></trkpt><trkpt lat="46.1403473" lon="9.3854042"><ele>218.0</ele><time>2026-04-07T07:24:19.679Z</time></trkpt><trkpt lat="46.1403945" lon="9.3855425"><ele>218.0</ele><time>2026-04-07T07:24:21.679Z</time></trkpt><trkpt lat="46.1404404" lon="9.3856794"><ele>218.0</ele><time>2026-04-07T07:24:23.679Z</time></trkpt><trkpt lat="46.1404865" lon="9.3858243"><ele>218.2</ele><time>2026-04-07T07:24:25.678Z</time></trkpt><trkpt lat="46.1405307" lon="9.3859749"><ele>218.4</ele><time>2026-04-07T07:24:27.68Z</time></trkpt><trkpt lat="46.1405771" lon="9.3861197"><ele>218.59999999999997</ele><time>2026-04-07T07:24:29.679Z</time></trkpt><trkpt lat="46.1406215" lon="9.3862648"><ele>218.79999999999998</ele><time>2026-04-07T07:24:31.678Z</time></trkpt><trkpt lat="46.1406602" lon="9.3864147"><ele>219.0</ele><time>2026-04-07T07:24:33.679Z</time></trkpt><trkpt lat="46.1407008" lon="9.3865615"><ele>218.2</ele><time>2026-04-07T07:24:35.68Z</time></trkpt><trkpt lat="46.140752" lon="9.3867121"><ele>217.39999999999998</ele><time>2026-04-07T07:24:37.679Z</time></trkpt><trkpt lat="46.1408041" lon="9.3868608"><ele>216.6</ele><time>2026-04-07T07:24:39.679Z</time></trkpt><trkpt lat="46.1408538" lon="9.3869957"><ele>215.8</ele><time>2026-04-07T07:24:41.679Z</time></trkpt><trkpt lat="46.1408961" lon="9.3871293"><ele>215.0</ele><time>2026-04-07T07:24:43.679Z</time></trkpt><trkpt lat="46.1409348" lon="9.3872665"><ele>214.8</ele><time>2026-04-07T07:24:45.679Z</time></trkpt><trkpt lat="46.1409767" lon="9.3874039"><ele>214.6</ele><time>2026-04-07T07:24:47.68Z</time></trkpt><trkpt lat="46.1410419" lon="9.3875443"><ele>214.39999999999998</ele><time>2026-04-07T07:24:49.678Z</time></trkpt><trkpt lat="46.1411022" lon="9.3876916"><ele>214.2</ele><time>2026-04-07T07:24:51.679Z</time></trkpt><trkpt lat="46.1411201" lon="9.3877791"><ele>214.0</ele><time>2026-04-07T07:24:52.679Z</time></trkpt><trkpt lat="46.1411455" lon="9.3879496"><ele>214.0</ele><time>2026-04-07T07:24:54.678Z</time></trkpt><trkpt lat="46.1412078" lon="9.3881017"><ele>214.0</ele><time>2026-04-07T07:24:56.68Z</time></trkpt><trkpt lat="46.1412648" lon="9.3882472"><ele>214.0</ele><time>2026-04-07T07:24:58.678Z</time></trkpt><trkpt lat="46.1413219" lon="9.3884"><ele>214.0</ele><time>2026-04-07T07:25:00.68Z</time></trkpt><trkpt lat="46.1413705" lon="9.3885467"><ele>214.0</ele><time>2026-04-07T07:25:02.68Z</time></trkpt><trkpt lat="46.1414174" lon="9.3887029"><ele>213.99999999999997</ele><time>2026-04-07T07:25:04.679Z</time></trkpt><trkpt lat="46.1414728" lon="9.3888567"><ele>213.99999999999997</ele><time>2026-04-07T07:25:06.68Z</time></trkpt><trkpt lat="46.1415085" lon="9.389027"><ele>214.0</ele><time>2026-04-07T07:25:08.679Z</time></trkpt><trkpt lat="46.1415227" lon="9.3891173"><ele>214.0</ele><time>2026-04-07T07:25:09.679Z</time></trkpt><trkpt lat="46.1415368" lon="9.3892074"><ele>213.49999999999997</ele><time>2026-04-07T07:25:10.68Z</time></trkpt><trkpt lat="46.1415803" lon="9.3893713"><ele>213.0</ele><time>2026-04-07T07:25:12.679Z</time></trkpt><trkpt lat="46.1416116" lon="9.3894558"><ele>212.5</ele><time>2026-04-07T07:25:13.678Z</time></trkpt><trkpt lat="46.1416767" lon="9.389608"><ele>212.0</ele><time>2026-04-07T07:25:15.678Z</time></trkpt><trkpt lat="46.1417075" lon="9.3896927"><ele>211.49999999999997</ele><time>2026-04-07T07:25:16.679Z</time></trkpt><trkpt lat="46.141739" lon="9.3897803"><ele>211.0</ele><time>2026-04-07T07:25:17.68Z</time></trkpt><trkpt lat="46.1417694" lon="9.389872"><ele>211.0</ele><time>2026-04-07T07:25:18.678Z</time></trkpt><trkpt lat="46.1418026" lon="9.3899543"><ele>211.0</ele><time>2026-04-07T07:25:19.68Z</time></trkpt><trkpt lat="46.1418287" lon="9.3900387"><ele>211.0</ele><time>2026-04-07T07:25:20.68Z</time></trkpt><trkpt lat="46.1418517" lon="9.390124"><ele>211.0</ele><time>2026-04-07T07:25:21.678Z</time></trkpt><trkpt lat="46.1418708" lon="9.3902107"><ele>211.0</ele><time>2026-04-07T07:25:22.68Z</time></trkpt><trkpt lat="46.1418709" lon="9.3903767"><ele>211.0</ele><time>2026-04-07T07:25:24.679Z</time></trkpt><trkpt lat="46.1418545" lon="9.3904657"><ele>211.0</ele><time>2026-04-07T07:25:25.679Z</time></trkpt><trkpt lat="46.141838" lon="9.3905605"><ele>210.99999999999997</ele><time>2026-04-07T07:25:26.679Z</time></trkpt><trkpt lat="46.1418201" lon="9.3906555"><ele>211.0</ele><time>2026-04-07T07:25:27.679Z</time></trkpt><trkpt lat="46.1418114" lon="9.3907548"><ele>211.0</ele><time>2026-04-07T07:25:28.679Z</time></trkpt><trkpt lat="46.141796" lon="9.3908549"><ele>211.0</ele><time>2026-04-07T07:25:29.678Z</time></trkpt><trkpt lat="46.1417765" lon="9.3909474"><ele>210.99999999999997</ele><time>2026-04-07T07:25:30.68Z</time></trkpt><trkpt lat="46.1417519" lon="9.3911239"><ele>211.0</ele><time>2026-04-07T07:25:32.678Z</time></trkpt><trkpt lat="46.1417313" lon="9.3912967"><ele>211.20000000000002</ele><time>2026-04-07T07:25:34.68Z</time></trkpt><trkpt lat="46.1417083" lon="9.3914556"><ele>211.4</ele><time>2026-04-07T07:25:36.68Z</time></trkpt><trkpt lat="46.1416673" lon="9.3915896"><ele>211.6</ele><time>2026-04-07T07:25:38.679Z</time></trkpt><trkpt lat="46.1415871" lon="9.391673"><ele>211.8</ele><time>2026-04-07T07:25:40.678Z</time></trkpt><trkpt lat="46.1415016" lon="9.3916876"><ele>212.0</ele><time>2026-04-07T07:25:42.679Z</time></trkpt><trkpt lat="46.1414105" lon="9.3916996"><ele>212.2</ele><time>2026-04-07T07:25:44.678Z</time></trkpt><trkpt lat="46.1413035" lon="9.3916979"><ele>212.39999999999998</ele><time>2026-04-07T07:25:46.678Z</time></trkpt><trkpt lat="46.1411979" lon="9.3916935"><ele>212.60000000000002</ele><time>2026-04-07T07:25:48.679Z</time></trkpt><trkpt lat="46.1410986" lon="9.3916801"><ele>212.8</ele><time>2026-04-07T07:25:50.68Z</time></trkpt><trkpt lat="46.1410224" lon="9.3916493"><ele>213.0</ele><time>2026-04-07T07:25:52.679Z</time></trkpt><trkpt lat="46.1409198" lon="9.3916194"><ele>213.0</ele><time>2026-04-07T07:25:54.68Z</time></trkpt><trkpt lat="46.1408161" lon="9.3915807"><ele>213.0</ele><time>2026-04-07T07:25:56.679Z</time></trkpt><trkpt lat="46.1407217" lon="9.3915393"><ele>213.0</ele><time>2026-04-07T07:25:58.679Z</time></trkpt><trkpt lat="46.1406302" lon="9.3915077"><ele>213.0</ele><time>2026-04-07T07:26:00.679Z</time></trkpt><trkpt lat="46.1405412" lon="9.3914812"><ele>213.0</ele><time>2026-04-07T07:26:02.679Z</time></trkpt><trkpt lat="46.1404524" lon="9.3914519"><ele>213.66666666666666</ele><time>2026-04-07T07:26:04.678Z</time></trkpt><trkpt lat="46.1403498" lon="9.3914286"><ele>214.33333333333331</ele><time>2026-04-07T07:26:06.679Z</time></trkpt><trkpt lat="46.1402659" lon="9.3914184"><ele>215.0</ele><time>2026-04-07T07:26:08.68Z</time></trkpt><trkpt lat="46.1401938" lon="9.3913821"><ele>215.66666666666666</ele><time>2026-04-07T07:26:10.673Z</time></trkpt><trkpt lat="46.1401078" lon="9.3913594"><ele>216.33333333333331</ele><time>2026-04-07T07:26:14.68Z</time></trkpt><trkpt lat="46.1400517" lon="9.3914055"><ele>217.0</ele><time>2026-04-07T07:26:36.738Z</time></trkpt><trkpt lat="46.1400122" lon="9.391498"><ele>217.0</ele><time>2026-04-07T07:26:40.75Z</time></trkpt><trkpt lat="46.1400336" lon="9.3916207"><ele>217.0</ele><time>2026-04-07T07:26:42.679Z</time></trkpt><trkpt lat="46.1400382" lon="9.3917305"><ele>217.0</ele><time>2026-04-07T07:26:44.745Z</time></trkpt><trkpt lat="46.1400466" lon="9.3918595"><ele>217.0</ele><time>2026-04-07T07:26:46.678Z</time></trkpt><trkpt lat="46.1400435" lon="9.3920091"><ele>217.0</ele><time>2026-04-07T07:26:48.679Z</time></trkpt><trkpt lat="46.1400462" lon="9.3921663"><ele>217.5</ele><time>2026-04-07T07:26:50.679Z</time></trkpt><trkpt lat="46.1400536" lon="9.3923323"><ele>218.0</ele><time>2026-04-07T07:26:52.679Z</time></trkpt><trkpt lat="46.1400581" lon="9.3925083"><ele>218.5</ele><time>2026-04-07T07:26:54.68Z</time></trkpt><trkpt lat="46.1400675" lon="9.3926788"><ele>219.0</ele><time>2026-04-07T07:26:56.68Z</time></trkpt><trkpt lat="46.1400752" lon="9.3928581"><ele>219.0</ele><time>2026-04-07T07:26:58.68Z</time></trkpt><trkpt lat="46.140071" lon="9.3929528"><ele>218.99999999999997</ele><time>2026-04-07T07:26:59.68Z</time></trkpt><trkpt lat="46.1400677" lon="9.3930456"><ele>218.99999999999997</ele><time>2026-04-07T07:27:00.68Z</time></trkpt><trkpt lat="46.1400699" lon="9.3932231"><ele>219.0</ele><time>2026-04-07T07:27:02.678Z</time></trkpt><trkpt lat="46.1400684" lon="9.3933956"><ele>219.0</ele><time>2026-04-07T07:27:04.68Z</time></trkpt><trkpt lat="46.1400592" lon="9.3936553"><ele>218.79999999999998</ele><time>2026-04-07T07:27:07.681Z</time></trkpt><trkpt lat="46.14002" lon="9.3938081"><ele>218.59999999999997</ele><time>2026-04-07T07:27:09.68Z</time></trkpt><trkpt lat="46.139972" lon="9.3939547"><ele>218.4</ele><time>2026-04-07T07:27:11.68Z</time></trkpt><trkpt lat="46.1399428" lon="9.3941107"><ele>218.2</ele><time>2026-04-07T07:27:13.679Z</time></trkpt><trkpt lat="46.1399178" lon="9.394265"><ele>218.0</ele><time>2026-04-07T07:27:15.68Z</time></trkpt><trkpt lat="46.1398934" lon="9.3944041"><ele>218.0</ele><time>2026-04-07T07:27:17.678Z</time></trkpt><trkpt lat="46.1398713" lon="9.3945488"><ele>218.0</ele><time>2026-04-07T07:27:19.679Z</time></trkpt><trkpt lat="46.1398307" lon="9.3946948"><ele>218.0</ele><time>2026-04-07T07:27:21.68Z</time></trkpt><trkpt lat="46.1397865" lon="9.3948536"><ele>218.0</ele><time>2026-04-07T07:27:23.679Z</time></trkpt><trkpt lat="46.1397469" lon="9.3950034"><ele>218.0</ele><time>2026-04-07T07:27:25.68Z</time></trkpt><trkpt lat="46.139711" lon="9.3951564"><ele>217.75</ele><time>2026-04-07T07:27:27.679Z</time></trkpt><trkpt lat="46.1396777" lon="9.3953008"><ele>217.5</ele><time>2026-04-07T07:27:29.68Z</time></trkpt><trkpt lat="46.1396368" lon="9.3954564"><ele>217.25</ele><time>2026-04-07T07:27:31.679Z</time></trkpt><trkpt lat="46.1395877" lon="9.3956112"><ele>217.0</ele><time>2026-04-07T07:27:33.68Z</time></trkpt><trkpt lat="46.1395483" lon="9.3957674"><ele>217.0</ele><time>2026-04-07T07:27:35.679Z</time></trkpt><trkpt lat="46.139512" lon="9.3959072"><ele>217.0</ele><time>2026-04-07T07:27:37.679Z</time></trkpt><trkpt lat="46.1394754" lon="9.3960541"><ele>217.0</ele><time>2026-04-07T07:27:39.679Z</time></trkpt><trkpt lat="46.1394401" lon="9.3961959"><ele>217.0</ele><time>2026-04-07T07:27:41.68Z</time></trkpt><trkpt lat="46.139402" lon="9.3963343"><ele>217.0</ele><time>2026-04-07T07:27:43.681Z</time></trkpt><trkpt lat="46.1393657" lon="9.3964798"><ele>217.0</ele><time>2026-04-07T07:27:45.679Z</time></trkpt><trkpt lat="46.1393243" lon="9.3966304"><ele>217.0</ele><time>2026-04-07T07:27:47.68Z</time></trkpt><trkpt lat="46.1392853" lon="9.3967765"><ele>217.0</ele><time>2026-04-07T07:27:49.68Z</time></trkpt><trkpt lat="46.1392485" lon="9.3969266"><ele>217.0</ele><time>2026-04-07T07:27:51.68Z</time></trkpt><trkpt lat="46.1392103" lon="9.3970653"><ele>217.0</ele><time>2026-04-07T07:27:53.679Z</time></trkpt><trkpt lat="46.1391717" lon="9.3972127"><ele>216.75</ele><time>2026-04-07T07:27:55.679Z</time></trkpt><trkpt lat="46.1391355" lon="9.3973525"><ele>216.5</ele><time>2026-04-07T07:27:57.68Z</time></trkpt><trkpt lat="46.1390967" lon="9.3975096"><ele>216.25</ele><time>2026-04-07T07:27:59.68Z</time></trkpt><trkpt lat="46.1390558" lon="9.3976658"><ele>216.0</ele><time>2026-04-07T07:28:01.68Z</time></trkpt><trkpt lat="46.1390187" lon="9.3978238"><ele>216.4</ele><time>2026-04-07T07:28:03.679Z</time></trkpt><trkpt lat="46.1389839" lon="9.3979831"><ele>216.8</ele><time>2026-04-07T07:28:05.681Z</time></trkpt><trkpt lat="46.1389393" lon="9.3981503"><ele>217.20000000000002</ele><time>2026-04-07T07:28:07.68Z</time></trkpt><trkpt lat="46.1389142" lon="9.3982359"><ele>217.60000000000002</ele><time>2026-04-07T07:28:08.68Z</time></trkpt><trkpt lat="46.1388876" lon="9.398396"><ele>218.0</ele><time>2026-04-07T07:28:10.68Z</time></trkpt><trkpt lat="46.1388467" lon="9.3985448"><ele>218.0</ele><time>2026-04-07T07:28:12.68Z</time></trkpt><trkpt lat="46.1388038" lon="9.3986918"><ele>218.0</ele><time>2026-04-07T07:28:14.68Z</time></trkpt><trkpt lat="46.1387639" lon="9.3988492"><ele>218.0</ele><time>2026-04-07T07:28:16.679Z</time></trkpt><trkpt lat="46.1387368" lon="9.3989354"><ele>218.0</ele><time>2026-04-07T07:28:17.679Z</time></trkpt><trkpt lat="46.1386994" lon="9.3990755"><ele>218.0</ele><time>2026-04-07T07:28:19.679Z</time></trkpt><trkpt lat="46.1386589" lon="9.3992323"><ele>217.8</ele><time>2026-04-07T07:28:21.679Z</time></trkpt><trkpt lat="46.1386337" lon="9.3993196"><ele>217.60000000000002</ele><time>2026-04-07T07:28:22.679Z</time></trkpt><trkpt lat="46.1385888" lon="9.3994812"><ele>217.39999999999998</ele><time>2026-04-07T07:28:24.681Z</time></trkpt><trkpt lat="46.1385493" lon="9.3996431"><ele>217.2</ele><time>2026-04-07T07:28:26.679Z</time></trkpt><trkpt lat="46.1385301" lon="9.3997315"><ele>217.0</ele><time>2026-04-07T07:28:27.68Z</time></trkpt><trkpt lat="46.138489" lon="9.3999024"><ele>216.39999999999998</ele><time>2026-04-07T07:28:29.68Z</time></trkpt><trkpt lat="46.1384586" lon="9.3999949"><ele>215.79999999999998</ele><time>2026-04-07T07:28:30.68Z</time></trkpt><trkpt lat="46.1384188" lon="9.4001643"><ele>215.2</ele><time>2026-04-07T07:28:32.68Z</time></trkpt><trkpt lat="46.1383806" lon="9.4003288"><ele>214.6</ele><time>2026-04-07T07:28:34.679Z</time></trkpt><trkpt lat="46.1383392" lon="9.400493"><ele>214.0</ele><time>2026-04-07T07:28:36.679Z</time></trkpt><trkpt lat="46.1382996" lon="9.4006613"><ele>213.6</ele><time>2026-04-07T07:28:38.68Z</time></trkpt><trkpt lat="46.1382639" lon="9.4008292"><ele>213.2</ele><time>2026-04-07T07:28:40.681Z</time></trkpt><trkpt lat="46.1382257" lon="9.4009946"><ele>212.79999999999998</ele><time>2026-04-07T07:28:42.679Z</time></trkpt><trkpt lat="46.1382012" lon="9.4010831"><ele>212.39999999999998</ele><time>2026-04-07T07:28:43.679Z</time></trkpt><trkpt lat="46.1381516" lon="9.4012375"><ele>212.0</ele><time>2026-04-07T07:28:45.68Z</time></trkpt><trkpt lat="46.1381124" lon="9.4014034"><ele>213.0</ele><time>2026-04-07T07:28:47.68Z</time></trkpt><trkpt lat="46.1380714" lon="9.4015497"><ele>214.0</ele><time>2026-04-07T07:28:49.679Z</time></trkpt><trkpt lat="46.1380335" lon="9.4017091"><ele>215.0</ele><time>2026-04-07T07:28:51.68Z</time></trkpt><trkpt lat="46.1379838" lon="9.4018732"><ele>216.0</ele><time>2026-04-07T07:28:53.68Z</time></trkpt><trkpt lat="46.1379413" lon="9.4020391"><ele>215.75</ele><time>2026-04-07T07:28:55.68Z</time></trkpt><trkpt lat="46.1378853" lon="9.4022871"><ele>215.5</ele><time>2026-04-07T07:28:58.681Z</time></trkpt><trkpt lat="46.1378381" lon="9.4024469"><ele>215.25</ele><time>2026-04-07T07:29:00.681Z</time></trkpt><trkpt lat="46.1378009" lon="9.402595"><ele>215.0</ele><time>2026-04-07T07:29:02.68Z</time></trkpt><trkpt lat="46.1377662" lon="9.4027662"><ele>215.0</ele><time>2026-04-07T07:29:04.679Z</time></trkpt><trkpt lat="46.1377176" lon="9.4029312"><ele>215.0</ele><time>2026-04-07T07:29:06.68Z</time></trkpt><trkpt lat="46.1376995" lon="9.403021"><ele>215.0</ele><time>2026-04-07T07:29:07.68Z</time></trkpt><trkpt lat="46.1376633" lon="9.4031928"><ele>215.0</ele><time>2026-04-07T07:29:09.679Z</time></trkpt><trkpt lat="46.1376171" lon="9.4033701"><ele>215.0</ele><time>2026-04-07T07:29:11.68Z</time></trkpt><trkpt lat="46.1375762" lon="9.4035336"><ele>214.6</ele><time>2026-04-07T07:29:13.68Z</time></trkpt><trkpt lat="46.1375535" lon="9.4036198"><ele>214.2</ele><time>2026-04-07T07:29:14.68Z</time></trkpt><trkpt lat="46.1375139" lon="9.4037889"><ele>213.8</ele><time>2026-04-07T07:29:16.68Z</time></trkpt><trkpt lat="46.1374947" lon="9.4038782"><ele>213.4</ele><time>2026-04-07T07:29:17.681Z</time></trkpt><trkpt lat="46.137452" lon="9.4040488"><ele>213.0</ele><time>2026-04-07T07:29:19.68Z</time></trkpt><trkpt lat="46.1374183" lon="9.4042145"><ele>213.0</ele><time>2026-04-07T07:29:21.68Z</time></trkpt><trkpt lat="46.1373803" lon="9.4043778"><ele>213.0</ele><time>2026-04-07T07:29:23.68Z</time></trkpt><trkpt lat="46.1373376" lon="9.4045307"><ele>213.0</ele><time>2026-04-07T07:29:25.68Z</time></trkpt><trkpt lat="46.137295" lon="9.4046826"><ele>213.0</ele><time>2026-04-07T07:29:27.68Z</time></trkpt><trkpt lat="46.1372558" lon="9.4048429"><ele>213.0</ele><time>2026-04-07T07:29:29.681Z</time></trkpt><trkpt lat="46.1372184" lon="9.4049933"><ele>213.0</ele><time>2026-04-07T07:29:31.68Z</time></trkpt><trkpt lat="46.1371919" lon="9.4051583"><ele>213.0</ele><time>2026-04-07T07:29:33.681Z</time></trkpt><trkpt lat="46.1371775" lon="9.4052486"><ele>213.0</ele><time>2026-04-07T07:29:34.68Z</time></trkpt><trkpt lat="46.137158" lon="9.4053355"><ele>213.0</ele><time>2026-04-07T07:29:35.68Z</time></trkpt><trkpt lat="46.1371335" lon="9.4054203"><ele>213.0</ele><time>2026-04-07T07:29:36.68Z</time></trkpt><trkpt lat="46.1371103" lon="9.4055102"><ele>212.83333333333334</ele><time>2026-04-07T07:29:37.681Z</time></trkpt><trkpt lat="46.1370871" lon="9.4055992"><ele>212.66666666666669</ele><time>2026-04-07T07:29:38.681Z</time></trkpt><trkpt lat="46.1370657" lon="9.4056908"><ele>212.5</ele><time>2026-04-07T07:29:39.68Z</time></trkpt><trkpt lat="46.1370334" lon="9.4058756"><ele>212.33333333333334</ele><time>2026-04-07T07:29:41.679Z</time></trkpt><trkpt lat="46.1370089" lon="9.4059718"><ele>212.16666666666669</ele><time>2026-04-07T07:29:42.68Z</time></trkpt><trkpt lat="46.1369789" lon="9.4060616"><ele>212.0</ele><time>2026-04-07T07:29:43.679Z</time></trkpt><trkpt lat="46.1369602" lon="9.4061566"><ele>212.0</ele><time>2026-04-07T07:29:44.681Z</time></trkpt><trkpt lat="46.1369382" lon="9.406256"><ele>212.0</ele><time>2026-04-07T07:29:45.68Z</time></trkpt><trkpt lat="46.1369105" lon="9.4063524"><ele>212.0</ele><time>2026-04-07T07:29:46.68Z</time></trkpt><trkpt lat="46.1368861" lon="9.4064392"><ele>212.0</ele><time>2026-04-07T07:29:47.681Z</time></trkpt><trkpt lat="46.1368698" lon="9.4065363"><ele>212.0</ele><time>2026-04-07T07:29:48.681Z</time></trkpt><trkpt lat="46.1368427" lon="9.4066296"><ele>212.0</ele><time>2026-04-07T07:29:49.68Z</time></trkpt><trkpt lat="46.1368236" lon="9.4067244"><ele>212.0</ele><time>2026-04-07T07:29:50.679Z</time></trkpt><trkpt lat="46.13679" lon="9.4068277"><ele>212.0</ele><time>2026-04-07T07:29:51.679Z</time></trkpt><trkpt lat="46.13676" lon="9.4069317"><ele>212.0</ele><time>2026-04-07T07:29:52.68Z</time></trkpt><trkpt lat="46.1367324" lon="9.4070245"><ele>212.0</ele><time>2026-04-07T07:29:53.68Z</time></trkpt><trkpt lat="46.1367089" lon="9.4071211"><ele>212.0</ele><time>2026-04-07T07:29:54.68Z</time></trkpt><trkpt lat="46.13669" lon="9.4072165"><ele>212.0</ele><time>2026-04-07T07:29:55.682Z</time></trkpt><trkpt lat="46.1366683" lon="9.4073126"><ele>212.0</ele><time>2026-04-07T07:29:56.68Z</time></trkpt><trkpt lat="46.1366424" lon="9.4074231"><ele>212.0</ele><time>2026-04-07T07:29:57.681Z</time></trkpt><trkpt lat="46.1366124" lon="9.4075134"><ele>211.66666666666669</ele><time>2026-04-07T07:29:58.681Z</time></trkpt><trkpt lat="46.1365934" lon="9.4076159"><ele>211.33333333333334</ele><time>2026-04-07T07:29:59.681Z</time></trkpt><trkpt lat="46.1365671" lon="9.4077214"><ele>211.0</ele><time>2026-04-07T07:30:00.679Z</time></trkpt><trkpt lat="46.1365328" lon="9.4078359"><ele>210.66666666666669</ele><time>2026-04-07T07:30:01.68Z</time></trkpt><trkpt lat="46.1365013" lon="9.407945"><ele>210.33333333333334</ele><time>2026-04-07T07:30:02.68Z</time></trkpt><trkpt lat="46.1364739" lon="9.4080509"><ele>210.0</ele><time>2026-04-07T07:30:03.68Z</time></trkpt><trkpt lat="46.1364455" lon="9.4081562"><ele>210.0</ele><time>2026-04-07T07:30:04.679Z</time></trkpt><trkpt lat="46.1363875" lon="9.4083632"><ele>210.0</ele><time>2026-04-07T07:30:06.68Z</time></trkpt><trkpt lat="46.1363554" lon="9.4084627"><ele>210.0</ele><time>2026-04-07T07:30:07.679Z</time></trkpt><trkpt lat="46.1363248" lon="9.4085695"><ele>210.0</ele><time>2026-04-07T07:30:08.68Z</time></trkpt><trkpt lat="46.1362949" lon="9.4086732"><ele>210.0</ele><time>2026-04-07T07:30:09.68Z</time></trkpt><trkpt lat="46.1362716" lon="9.408767"><ele>210.14285714285714</ele><time>2026-04-07T07:30:10.681Z</time></trkpt><trkpt lat="46.1362452" lon="9.4088717"><ele>210.28571428571428</ele><time>2026-04-07T07:30:11.68Z</time></trkpt><trkpt lat="46.1362245" lon="9.4089757"><ele>210.42857142857144</ele><time>2026-04-07T07:30:12.679Z</time></trkpt><trkpt lat="46.1362182" lon="9.4090774"><ele>210.57142857142856</ele><time>2026-04-07T07:30:13.679Z</time></trkpt><trkpt lat="46.1362111" lon="9.4091825"><ele>210.71428571428572</ele><time>2026-04-07T07:30:14.682Z</time></trkpt><trkpt lat="46.1362104" lon="9.4092911"><ele>210.85714285714286</ele><time>2026-04-07T07:30:15.681Z</time></trkpt><trkpt lat="46.1362102" lon="9.4093968"><ele>211.0</ele><time>2026-04-07T07:30:16.68Z</time></trkpt><trkpt lat="46.1362116" lon="9.4094986"><ele>211.0</ele><time>2026-04-07T07:30:17.679Z</time></trkpt><trkpt lat="46.1362242" lon="9.4096028"><ele>211.0</ele><time>2026-04-07T07:30:18.68Z</time></trkpt><trkpt lat="46.136232" lon="9.4097102"><ele>211.0</ele><time>2026-04-07T07:30:19.68Z</time></trkpt><trkpt lat="46.1362464" lon="9.4098203"><ele>211.0</ele><time>2026-04-07T07:30:20.68Z</time></trkpt><trkpt lat="46.1362584" lon="9.40993"><ele>211.0</ele><time>2026-04-07T07:30:21.679Z</time></trkpt><trkpt lat="46.1362765" lon="9.410029"><ele>211.0</ele><time>2026-04-07T07:30:22.68Z</time></trkpt><trkpt lat="46.1362909" lon="9.4101349"><ele>211.0</ele><time>2026-04-07T07:30:23.679Z</time></trkpt><trkpt lat="46.1363031" lon="9.4102444"><ele>212.0</ele><time>2026-04-07T07:30:24.681Z</time></trkpt><trkpt lat="46.1363189" lon="9.410345"><ele>213.0</ele><time>2026-04-07T07:30:25.68Z</time></trkpt><trkpt lat="46.136335" lon="9.4104433"><ele>214.0</ele><time>2026-04-07T07:30:26.68Z</time></trkpt><trkpt lat="46.1363521" lon="9.4105468"><ele>215.0</ele><time>2026-04-07T07:30:27.681Z</time></trkpt><trkpt lat="46.1363663" lon="9.4106515"><ele>216.0</ele><time>2026-04-07T07:30:28.682Z</time></trkpt><trkpt lat="46.136386" lon="9.4107504"><ele>217.0</ele><time>2026-04-07T07:30:29.68Z</time></trkpt><trkpt lat="46.1364091" lon="9.410851"><ele>218.0</ele><time>2026-04-07T07:30:30.68Z</time></trkpt><trkpt lat="46.1364276" lon="9.4109435"><ele>218.33333333333334</ele><time>2026-04-07T07:30:31.68Z</time></trkpt><trkpt lat="46.1364507" lon="9.4110369"><ele>218.66666666666669</ele><time>2026-04-07T07:30:32.68Z</time></trkpt><trkpt lat="46.1364683" lon="9.4111245"><ele>219.0</ele><time>2026-04-07T07:30:33.679Z</time></trkpt><trkpt lat="46.1364819" lon="9.4112193"><ele>219.33333333333331</ele><time>2026-04-07T07:30:34.68Z</time></trkpt><trkpt lat="46.1365048" lon="9.4113879"><ele>219.66666666666666</ele><time>2026-04-07T07:30:36.68Z</time></trkpt><trkpt lat="46.1365227" lon="9.4115556"><ele>220.0</ele><time>2026-04-07T07:30:38.682Z</time></trkpt><trkpt lat="46.1365513" lon="9.4117273"><ele>219.28571428571428</ele><time>2026-04-07T07:30:40.679Z</time></trkpt><trkpt lat="46.1365573" lon="9.4118227"><ele>218.57142857142856</ele><time>2026-04-07T07:30:41.68Z</time></trkpt><trkpt lat="46.1365714" lon="9.4119152"><ele>217.85714285714283</ele><time>2026-04-07T07:30:42.68Z</time></trkpt><trkpt lat="46.1365876" lon="9.4120215"><ele>217.14285714285714</ele><time>2026-04-07T07:30:43.68Z</time></trkpt><trkpt lat="46.1366098" lon="9.4121261"><ele>216.42857142857144</ele><time>2026-04-07T07:30:44.681Z</time></trkpt><trkpt lat="46.1366258" lon="9.412234"><ele>215.7142857142857</ele><time>2026-04-07T07:30:45.68Z</time></trkpt><trkpt lat="46.1366476" lon="9.4123366"><ele>215.0</ele><time>2026-04-07T07:30:46.681Z</time></trkpt><trkpt lat="46.1366697" lon="9.4124458"><ele>215.00000000000003</ele><time>2026-04-07T07:30:47.681Z</time></trkpt><trkpt lat="46.1366917" lon="9.4125608"><ele>215.0</ele><time>2026-04-07T07:30:48.681Z</time></trkpt><trkpt lat="46.1367119" lon="9.4126816"><ele>215.0</ele><time>2026-04-07T07:30:49.68Z</time></trkpt><trkpt lat="46.1367314" lon="9.4127989"><ele>215.0</ele><time>2026-04-07T07:30:50.679Z</time></trkpt><trkpt lat="46.1367531" lon="9.4129166"><ele>215.00000000000003</ele><time>2026-04-07T07:30:51.68Z</time></trkpt><trkpt lat="46.1367673" lon="9.4130353"><ele>215.0</ele><time>2026-04-07T07:30:52.68Z</time></trkpt><trkpt lat="46.1367804" lon="9.4131509"><ele>216.50000000000003</ele><time>2026-04-07T07:30:53.681Z</time></trkpt><trkpt lat="46.1367951" lon="9.4132598"><ele>218.0</ele><time>2026-04-07T07:30:54.68Z</time></trkpt><trkpt lat="46.1368093" lon="9.4133654"><ele>219.5</ele><time>2026-04-07T07:30:55.682Z</time></trkpt><trkpt lat="46.1368339" lon="9.4134704"><ele>221.0</ele><time>2026-04-07T07:30:56.681Z</time></trkpt><trkpt lat="46.1368573" lon="9.4135811"><ele>222.50000000000003</ele><time>2026-04-07T07:30:57.68Z</time></trkpt><trkpt lat="46.1368864" lon="9.4136816"><ele>224.0</ele><time>2026-04-07T07:30:58.681Z</time></trkpt><trkpt lat="46.1369186" lon="9.4137816"><ele>226.50000000000003</ele><time>2026-04-07T07:30:59.679Z</time></trkpt><trkpt lat="46.1369556" lon="9.4138847"><ele>229.0</ele><time>2026-04-07T07:31:00.681Z</time></trkpt><trkpt lat="46.1369977" lon="9.4139899"><ele>231.5</ele><time>2026-04-07T07:31:01.68Z</time></trkpt><trkpt lat="46.1370366" lon="9.4140918"><ele>234.0</ele><time>2026-04-07T07:31:02.68Z</time></trkpt><trkpt lat="46.1370746" lon="9.414205"><ele>236.50000000000003</ele><time>2026-04-07T07:31:03.681Z</time></trkpt><trkpt lat="46.1371056" lon="9.4143216"><ele>239.0</ele><time>2026-04-07T07:31:04.681Z</time></trkpt><trkpt lat="46.1371386" lon="9.4144351"><ele>239.00000000000003</ele><time>2026-04-07T07:31:05.68Z</time></trkpt><trkpt lat="46.1371747" lon="9.4145391"><ele>239.0</ele><time>2026-04-07T07:31:06.679Z</time></trkpt><trkpt lat="46.1372081" lon="9.4146424"><ele>239.00000000000003</ele><time>2026-04-07T07:31:07.68Z</time></trkpt><trkpt lat="46.1372391" lon="9.414742"><ele>239.00000000000003</ele><time>2026-04-07T07:31:08.68Z</time></trkpt><trkpt lat="46.1372741" lon="9.4148384"><ele>239.0</ele><time>2026-04-07T07:31:09.68Z</time></trkpt><trkpt lat="46.1373102" lon="9.4149254"><ele>239.00000000000003</ele><time>2026-04-07T07:31:10.681Z</time></trkpt><trkpt lat="46.137348" lon="9.4150017"><ele>239.00000000000003</ele><time>2026-04-07T07:31:11.679Z</time></trkpt><trkpt lat="46.1374434" lon="9.4151153"><ele>235.6</ele><time>2026-04-07T07:31:13.679Z</time></trkpt><trkpt lat="46.1374986" lon="9.4152567"><ele>232.2</ele><time>2026-04-07T07:31:15.679Z</time></trkpt><trkpt lat="46.1375243" lon="9.4154245"><ele>228.79999999999998</ele><time>2026-04-07T07:31:17.68Z</time></trkpt><trkpt lat="46.1375819" lon="9.4155836"><ele>225.39999999999998</ele><time>2026-04-07T07:31:19.681Z</time></trkpt><trkpt lat="46.1376159" lon="9.415663"><ele>222.0</ele><time>2026-04-07T07:31:20.681Z</time></trkpt><trkpt lat="46.1376481" lon="9.4157479"><ele>222.0</ele><time>2026-04-07T07:31:21.68Z</time></trkpt><trkpt lat="46.1376823" lon="9.4158324"><ele>222.0</ele><time>2026-04-07T07:31:22.68Z</time></trkpt><trkpt lat="46.1377234" lon="9.4159216"><ele>222.0</ele><time>2026-04-07T07:31:23.681Z</time></trkpt><trkpt lat="46.1377572" lon="9.4160024"><ele>222.0</ele><time>2026-04-07T07:31:24.68Z</time></trkpt><trkpt lat="46.137789" lon="9.4160847"><ele>222.0</ele><time>2026-04-07T07:31:25.68Z</time></trkpt><trkpt lat="46.1378282" lon="9.4161629"><ele>222.0</ele><time>2026-04-07T07:31:26.681Z</time></trkpt><trkpt lat="46.1378637" lon="9.4162459"><ele>222.0</ele><time>2026-04-07T07:31:27.68Z</time></trkpt><trkpt lat="46.1378996" lon="9.4163294"><ele>224.85714285714283</ele><time>2026-04-07T07:31:28.681Z</time></trkpt><trkpt lat="46.1379339" lon="9.4164061"><ele>227.71428571428572</ele><time>2026-04-07T07:31:29.681Z</time></trkpt><trkpt lat="46.1379748" lon="9.4164877"><ele>230.57142857142856</ele><time>2026-04-07T07:31:30.681Z</time></trkpt><trkpt lat="46.1380139" lon="9.4165714"><ele>233.42857142857142</ele><time>2026-04-07T07:31:31.68Z</time></trkpt><trkpt lat="46.1380508" lon="9.4166586"><ele>236.28571428571428</ele><time>2026-04-07T07:31:32.68Z</time></trkpt><trkpt lat="46.1380895" lon="9.4167437"><ele>239.14285714285714</ele><time>2026-04-07T07:31:33.68Z</time></trkpt><trkpt lat="46.1381282" lon="9.4168302"><ele>242.0</ele><time>2026-04-07T07:31:34.679Z</time></trkpt><trkpt lat="46.1381644" lon="9.4169178"><ele>242.00000000000003</ele><time>2026-04-07T07:31:35.68Z</time></trkpt><trkpt lat="46.1381989" lon="9.417001"><ele>242.0</ele><time>2026-04-07T07:31:36.68Z</time></trkpt><trkpt lat="46.1382343" lon="9.4170842"><ele>242.0</ele><time>2026-04-07T07:31:37.68Z</time></trkpt><trkpt lat="46.1383008" lon="9.4172397"><ele>242.0</ele><time>2026-04-07T07:31:39.679Z</time></trkpt><trkpt lat="46.1383331" lon="9.4173203"><ele>242.00000000000003</ele><time>2026-04-07T07:31:40.683Z</time></trkpt><trkpt lat="46.1383656" lon="9.4174036"><ele>242.0</ele><time>2026-04-07T07:31:41.68Z</time></trkpt><trkpt lat="46.1384163" lon="9.4175668"><ele>238.0</ele><time>2026-04-07T07:31:43.681Z</time></trkpt><trkpt lat="46.1384561" lon="9.4177332"><ele>234.0</ele><time>2026-04-07T07:31:45.681Z</time></trkpt><trkpt lat="46.1384993" lon="9.4178809"><ele>230.0</ele><time>2026-04-07T07:31:47.68Z</time></trkpt><trkpt lat="46.1385773" lon="9.417974"><ele>226.0</ele><time>2026-04-07T07:31:49.681Z</time></trkpt><trkpt lat="46.1386771" lon="9.4179886"><ele>222.0</ele><time>2026-04-07T07:31:51.682Z</time></trkpt><trkpt lat="46.1387921" lon="9.4179727"><ele>220.25</ele><time>2026-04-07T07:31:53.681Z</time></trkpt><trkpt lat="46.1389046" lon="9.4179754"><ele>218.5</ele><time>2026-04-07T07:31:55.681Z</time></trkpt><trkpt lat="46.1390187" lon="9.4179834"><ele>216.75</ele><time>2026-04-07T07:31:57.68Z</time></trkpt><trkpt lat="46.1391364" lon="9.4179672"><ele>215.0</ele><time>2026-04-07T07:31:59.68Z</time></trkpt><trkpt lat="46.1392592" lon="9.4179556"><ele>213.16666666666669</ele><time>2026-04-07T07:32:01.681Z</time></trkpt><trkpt lat="46.1393251" lon="9.4179523"><ele>211.33333333333334</ele><time>2026-04-07T07:32:02.68Z</time></trkpt><trkpt lat="46.139389" lon="9.4179442"><ele>209.5</ele><time>2026-04-07T07:32:03.68Z</time></trkpt><trkpt lat="46.1395151" lon="9.4179317"><ele>207.66666666666669</ele><time>2026-04-07T07:32:05.681Z</time></trkpt><trkpt lat="46.1395805" lon="9.4179241"><ele>205.83333333333334</ele><time>2026-04-07T07:32:06.681Z</time></trkpt><trkpt lat="46.1396457" lon="9.4179283"><ele>204.0</ele><time>2026-04-07T07:32:07.681Z</time></trkpt><trkpt lat="46.1397107" lon="9.4179444"><ele>204.0</ele><time>2026-04-07T07:32:08.68Z</time></trkpt><trkpt lat="46.1397736" lon="9.4179724"><ele>204.0</ele><time>2026-04-07T07:32:09.68Z</time></trkpt><trkpt lat="46.1398318" lon="9.4180076"><ele>204.0</ele><time>2026-04-07T07:32:10.681Z</time></trkpt><trkpt lat="46.1399353" lon="9.4180775"><ele>204.0</ele><time>2026-04-07T07:32:12.682Z</time></trkpt><trkpt lat="46.1400505" lon="9.4181084"><ele>204.0</ele><time>2026-04-07T07:32:14.68Z</time></trkpt><trkpt lat="46.140175" lon="9.4181298"><ele>204.0</ele><time>2026-04-07T07:32:16.68Z</time></trkpt><trkpt lat="46.1402921" lon="9.4181149"><ele>204.0</ele><time>2026-04-07T07:32:18.68Z</time></trkpt><trkpt lat="46.1403565" lon="9.4181097"><ele>204.0</ele><time>2026-04-07T07:32:19.68Z</time></trkpt><trkpt lat="46.1404809" lon="9.4181018"><ele>204.0</ele><time>2026-04-07T07:32:21.68Z</time></trkpt><trkpt lat="46.1406054" lon="9.418089"><ele>204.0</ele><time>2026-04-07T07:32:23.68Z</time></trkpt><trkpt lat="46.1406714" lon="9.4180865"><ele>204.2</ele><time>2026-04-07T07:32:24.681Z</time></trkpt><trkpt lat="46.1407377" lon="9.4180799"><ele>204.39999999999998</ele><time>2026-04-07T07:32:25.68Z</time></trkpt><trkpt lat="46.1408638" lon="9.4180706"><ele>204.6</ele><time>2026-04-07T07:32:27.681Z</time></trkpt><trkpt lat="46.1409362" lon="9.4180669"><ele>204.8</ele><time>2026-04-07T07:32:28.681Z</time></trkpt><trkpt lat="46.1410608" lon="9.4180657"><ele>205.0</ele><time>2026-04-07T07:32:30.681Z</time></trkpt><trkpt lat="46.1411243" lon="9.4180565"><ele>205.0</ele><time>2026-04-07T07:32:31.68Z</time></trkpt><trkpt lat="46.1412265" lon="9.4180348"><ele>205.0</ele><time>2026-04-07T07:32:33.68Z</time></trkpt><trkpt lat="46.1413342" lon="9.4180197"><ele>205.0</ele><time>2026-04-07T07:32:35.68Z</time></trkpt><trkpt lat="46.1414368" lon="9.4180133"><ele>205.0</ele><time>2026-04-07T07:32:37.68Z</time></trkpt><trkpt lat="46.1415394" lon="9.4180462"><ele>205.0</ele><time>2026-04-07T07:32:39.681Z</time></trkpt><trkpt lat="46.1416342" lon="9.4181662"><ele>204.5</ele><time>2026-04-07T07:32:41.68Z</time></trkpt><trkpt lat="46.1417414" lon="9.4182149"><ele>204.0</ele><time>2026-04-07T07:32:43.681Z</time></trkpt><trkpt lat="46.1418509" lon="9.4181387"><ele>203.5</ele><time>2026-04-07T07:32:45.681Z</time></trkpt><trkpt lat="46.1418863" lon="9.4179863"><ele>203.0</ele><time>2026-04-07T07:32:47.681Z</time></trkpt><trkpt lat="46.141838" lon="9.4177559"><ele>203.00000000000003</ele><time>2026-04-07T07:32:50.68Z</time></trkpt><trkpt lat="46.1418198" lon="9.4175866"><ele>203.0</ele><time>2026-04-07T07:32:52.681Z</time></trkpt><trkpt lat="46.141819" lon="9.4174933"><ele>203.0</ele><time>2026-04-07T07:32:53.681Z</time></trkpt><trkpt lat="46.1418343" lon="9.4173166"><ele>203.0</ele><time>2026-04-07T07:32:55.681Z</time></trkpt><trkpt lat="46.141844" lon="9.417224"><ele>203.00000000000003</ele><time>2026-04-07T07:32:56.682Z</time></trkpt><trkpt lat="46.1418515" lon="9.4171301"><ele>203.0</ele><time>2026-04-07T07:32:57.679Z</time></trkpt><trkpt lat="46.1418636" lon="9.4170383"><ele>202.8</ele><time>2026-04-07T07:32:58.681Z</time></trkpt><trkpt lat="46.1418841" lon="9.416947"><ele>202.60000000000002</ele><time>2026-04-07T07:32:59.682Z</time></trkpt><trkpt lat="46.141947" lon="9.4167937"><ele>202.39999999999998</ele><time>2026-04-07T07:33:01.681Z</time></trkpt><trkpt lat="46.1419896" lon="9.4167188"><ele>202.2</ele><time>2026-04-07T07:33:02.679Z</time></trkpt><trkpt lat="46.1420602" lon="9.4165705"><ele>202.0</ele><time>2026-04-07T07:33:04.681Z</time></trkpt><trkpt lat="46.1420984" lon="9.4164076"><ele>201.8</ele><time>2026-04-07T07:33:06.681Z</time></trkpt><trkpt lat="46.1421703" lon="9.4162563"><ele>201.6</ele><time>2026-04-07T07:33:08.681Z</time></trkpt><trkpt lat="46.1422696" lon="9.4161717"><ele>201.4</ele><time>2026-04-07T07:33:10.681Z</time></trkpt><trkpt lat="46.142356" lon="9.416108"><ele>201.20000000000002</ele><time>2026-04-07T07:33:12.681Z</time></trkpt><trkpt lat="46.142423" lon="9.4160584"><ele>201.0</ele><time>2026-04-07T07:33:14.681Z</time></trkpt><trkpt lat="46.1424977" lon="9.4160304"><ele>201.0</ele><time>2026-04-07T07:33:17.682Z</time></trkpt><trkpt lat="46.142571" lon="9.4160568"><ele>201.0</ele><time>2026-04-07T07:33:19.681Z</time></trkpt><trkpt lat="46.1426684" lon="9.4161046"><ele>201.0</ele><time>2026-04-07T07:33:21.682Z</time></trkpt><trkpt lat="46.1427741" lon="9.4161265"><ele>201.0</ele><time>2026-04-07T07:33:23.681Z</time></trkpt><trkpt lat="46.1428811" lon="9.4161101"><ele>201.0</ele><time>2026-04-07T07:33:25.681Z</time></trkpt><trkpt lat="46.1429821" lon="9.4160634"><ele>201.0</ele><time>2026-04-07T07:33:27.682Z</time></trkpt><trkpt lat="46.1430805" lon="9.4160896"><ele>201.0</ele><time>2026-04-07T07:33:29.682Z</time></trkpt><trkpt lat="46.1431321" lon="9.4162134"><ele>201.0</ele><time>2026-04-07T07:33:31.681Z</time></trkpt><trkpt lat="46.1431143" lon="9.4163656"><ele>201.0</ele><time>2026-04-07T07:33:33.68Z</time></trkpt><trkpt lat="46.1430827" lon="9.4164923"><ele>201.0</ele><time>2026-04-07T07:33:35.681Z</time></trkpt><trkpt lat="46.1430667" lon="9.4166244"><ele>201.20000000000002</ele><time>2026-04-07T07:33:37.681Z</time></trkpt><trkpt lat="46.1431096" lon="9.416753"><ele>201.4</ele><time>2026-04-07T07:33:39.682Z</time></trkpt><trkpt lat="46.1431955" lon="9.4168542"><ele>201.6</ele><time>2026-04-07T07:33:41.68Z</time></trkpt><trkpt lat="46.1432785" lon="9.4169631"><ele>201.8</ele><time>2026-04-07T07:33:43.68Z</time></trkpt><trkpt lat="46.1433744" lon="9.4170722"><ele>202.0</ele><time>2026-04-07T07:33:45.68Z</time></trkpt><trkpt lat="46.1434554" lon="9.4172093"><ele>201.25</ele><time>2026-04-07T07:33:47.682Z</time></trkpt><trkpt lat="46.1434839" lon="9.4173746"><ele>200.5</ele><time>2026-04-07T07:33:49.681Z</time></trkpt><trkpt lat="46.1434943" lon="9.4175488"><ele>199.75</ele><time>2026-04-07T07:33:51.682Z</time></trkpt><trkpt lat="46.1434993" lon="9.4177241"><ele>199.0</ele><time>2026-04-07T07:33:53.682Z</time></trkpt><trkpt lat="46.1435119" lon="9.4178931"><ele>199.0</ele><time>2026-04-07T07:33:55.682Z</time></trkpt><trkpt lat="46.1435193" lon="9.4180625"><ele>199.0</ele><time>2026-04-07T07:33:57.681Z</time></trkpt><trkpt lat="46.1435285" lon="9.4182377"><ele>199.0</ele><time>2026-04-07T07:33:59.682Z</time></trkpt><trkpt lat="46.1435901" lon="9.4183742"><ele>199.0</ele><time>2026-04-07T07:34:01.68Z</time></trkpt><trkpt lat="46.1436944" lon="9.4184569"><ele>199.0</ele><time>2026-04-07T07:34:03.681Z</time></trkpt><trkpt lat="46.1437531" lon="9.4184931"><ele>199.0</ele><time>2026-04-07T07:34:04.681Z</time></trkpt><trkpt lat="46.1438525" lon="9.4185825"><ele>199.0</ele><time>2026-04-07T07:34:06.682Z</time></trkpt><trkpt lat="46.1439211" lon="9.4186965"><ele>199.0</ele><time>2026-04-07T07:34:08.68Z</time></trkpt><trkpt lat="46.1439634" lon="9.4188297"><ele>199.0</ele><time>2026-04-07T07:34:10.681Z</time></trkpt><trkpt lat="46.1439835" lon="9.4189979"><ele>199.0</ele><time>2026-04-07T07:34:12.682Z</time></trkpt><trkpt lat="46.1440122" lon="9.4191737"><ele>199.0</ele><time>2026-04-07T07:34:14.681Z</time></trkpt><trkpt lat="46.1440355" lon="9.4193423"><ele>199.0</ele><time>2026-04-07T07:34:16.68Z</time></trkpt><trkpt lat="46.1440459" lon="9.4195178"><ele>199.0</ele><time>2026-04-07T07:34:18.68Z</time></trkpt><trkpt lat="46.1440655" lon="9.4196848"><ele>199.0</ele><time>2026-04-07T07:34:20.68Z</time></trkpt><trkpt lat="46.144077" lon="9.4198344"><ele>199.0</ele><time>2026-04-07T07:34:22.681Z</time></trkpt><trkpt lat="46.1440907" lon="9.4200882"><ele>199.0</ele><time>2026-04-07T07:34:25.681Z</time></trkpt><trkpt lat="46.1440945" lon="9.42026"><ele>199.0</ele><time>2026-04-07T07:34:27.681Z</time></trkpt><trkpt lat="46.1440703" lon="9.4204108"><ele>198.83333333333331</ele><time>2026-04-07T07:34:29.681Z</time></trkpt><trkpt lat="46.1440583" lon="9.4205159"><ele>198.66666666666666</ele><time>2026-04-07T07:34:31.68Z</time></trkpt><trkpt lat="46.14403" lon="9.4206002"><ele>198.5</ele><time>2026-04-07T07:34:53.682Z</time></trkpt><trkpt lat="46.1439961" lon="9.420692"><ele>198.33333333333331</ele><time>2026-04-07T07:34:57.681Z</time></trkpt><trkpt lat="46.1439662" lon="9.4207963"><ele>198.16666666666666</ele><time>2026-04-07T07:35:00.767Z</time></trkpt><trkpt lat="46.1439362" lon="9.4208899"><ele>198.0</ele><time>2026-04-07T07:35:02.783Z</time></trkpt><trkpt lat="46.143898" lon="9.4210457"><ele>198.66666666666666</ele><time>2026-04-07T07:35:05.787Z</time></trkpt><trkpt lat="46.1438691" lon="9.4211485"><ele>199.33333333333331</ele><time>2026-04-07T07:35:07.774Z</time></trkpt><trkpt lat="46.1438424" lon="9.4212579"><ele>200.0</ele><time>2026-04-07T07:35:09.68Z</time></trkpt><trkpt lat="46.1438115" lon="9.4213773"><ele>200.66666666666666</ele><time>2026-04-07T07:35:11.783Z</time></trkpt><trkpt lat="46.1437905" lon="9.4214784"><ele>201.33333333333331</ele><time>2026-04-07T07:35:13.681Z</time></trkpt><trkpt lat="46.14376" lon="9.4215867"><ele>202.0</ele><time>2026-04-07T07:35:15.768Z</time></trkpt><trkpt lat="46.1437299" lon="9.4216997"><ele>201.99999999999997</ele><time>2026-04-07T07:35:17.777Z</time></trkpt><trkpt lat="46.1437009" lon="9.421809"><ele>202.0</ele><time>2026-04-07T07:35:19.682Z</time></trkpt><trkpt lat="46.1436813" lon="9.4219049"><ele>202.0</ele><time>2026-04-07T07:35:21.681Z</time></trkpt><trkpt lat="46.1436424" lon="9.4220072"><ele>202.0</ele><time>2026-04-07T07:35:24.68Z</time></trkpt><trkpt lat="46.1436181" lon="9.4220945"><ele>201.99999999999997</ele><time>2026-04-07T07:35:26.681Z</time></trkpt><trkpt lat="46.1435925" lon="9.422195"><ele>202.0</ele><time>2026-04-07T07:35:28.68Z</time></trkpt><trkpt lat="46.143561" lon="9.4223017"><ele>202.0</ele><time>2026-04-07T07:35:30.681Z</time></trkpt><trkpt lat="46.1435257" lon="9.4224201"><ele>202.0</ele><time>2026-04-07T07:35:32.682Z</time></trkpt><trkpt lat="46.1434937" lon="9.422541"><ele>202.0</ele><time>2026-04-07T07:35:34.681Z</time></trkpt><trkpt lat="46.1434616" lon="9.4226651"><ele>202.0</ele><time>2026-04-07T07:35:36.68Z</time></trkpt><trkpt lat="46.1434261" lon="9.4227911"><ele>202.0</ele><time>2026-04-07T07:35:38.681Z</time></trkpt><trkpt lat="46.1433847" lon="9.4229226"><ele>201.8</ele><time>2026-04-07T07:35:40.681Z</time></trkpt><trkpt lat="46.1433529" lon="9.4230561"><ele>201.6</ele><time>2026-04-07T07:35:42.682Z</time></trkpt><trkpt lat="46.1433125" lon="9.4231888"><ele>201.4</ele><time>2026-04-07T07:35:44.681Z</time></trkpt><trkpt lat="46.1432717" lon="9.4233141"><ele>201.20000000000002</ele><time>2026-04-07T07:35:46.682Z</time></trkpt><trkpt lat="46.1432343" lon="9.4234475"><ele>201.0</ele><time>2026-04-07T07:35:48.682Z</time></trkpt><trkpt lat="46.1431981" lon="9.4235756"><ele>200.8</ele><time>2026-04-07T07:35:50.681Z</time></trkpt><trkpt lat="46.1431614" lon="9.423708"><ele>200.60000000000002</ele><time>2026-04-07T07:35:52.681Z</time></trkpt><trkpt lat="46.1431327" lon="9.4238487"><ele>200.4</ele><time>2026-04-07T07:35:54.682Z</time></trkpt><trkpt lat="46.1430708" lon="9.424043"><ele>200.2</ele><time>2026-04-07T07:35:57.682Z</time></trkpt><trkpt lat="46.143037" lon="9.4241691"><ele>200.0</ele><time>2026-04-07T07:35:59.681Z</time></trkpt><trkpt lat="46.1429918" lon="9.4243091"><ele>200.0</ele><time>2026-04-07T07:36:01.683Z</time></trkpt><trkpt lat="46.1429588" lon="9.4244418"><ele>200.0</ele><time>2026-04-07T07:36:03.682Z</time></trkpt><trkpt lat="46.1429228" lon="9.4245571"><ele>200.0</ele><time>2026-04-07T07:36:05.683Z</time></trkpt><trkpt lat="46.1428843" lon="9.4246751"><ele>200.0</ele><time>2026-04-07T07:36:07.682Z</time></trkpt><trkpt lat="46.1428439" lon="9.4248074"><ele>200.0</ele><time>2026-04-07T07:36:09.68Z</time></trkpt><trkpt lat="46.1428077" lon="9.4249474"><ele>200.00000000000003</ele><time>2026-04-07T07:36:11.681Z</time></trkpt><trkpt lat="46.1427741" lon="9.4250872"><ele>200.0</ele><time>2026-04-07T07:36:13.681Z</time></trkpt><trkpt lat="46.1427393" lon="9.4252096"><ele>200.0</ele><time>2026-04-07T07:36:15.681Z</time></trkpt><trkpt lat="46.1427095" lon="9.4253279"><ele>200.0</ele><time>2026-04-07T07:36:17.682Z</time></trkpt><trkpt lat="46.1426837" lon="9.4254413"><ele>200.00000000000003</ele><time>2026-04-07T07:36:19.683Z</time></trkpt><trkpt lat="46.1426581" lon="9.4255342"><ele>200.0</ele><time>2026-04-07T07:36:21.681Z</time></trkpt><trkpt lat="46.1426245" lon="9.4256155"><ele>200.16666666666669</ele><time>2026-04-07T07:36:23.682Z</time></trkpt><trkpt lat="46.1425996" lon="9.4257125"><ele>200.33333333333334</ele><time>2026-04-07T07:36:25.683Z</time></trkpt><trkpt lat="46.1425688" lon="9.4258193"><ele>200.5</ele><time>2026-04-07T07:36:27.682Z</time></trkpt><trkpt lat="46.1425354" lon="9.4259346"><ele>200.66666666666669</ele><time>2026-04-07T07:36:29.682Z</time></trkpt><trkpt lat="46.1424963" lon="9.4260489"><ele>200.83333333333334</ele><time>2026-04-07T07:36:31.681Z</time></trkpt><trkpt lat="46.1424555" lon="9.4261507"><ele>201.0</ele><time>2026-04-07T07:36:33.68Z</time></trkpt><trkpt lat="46.1424287" lon="9.4262396"><ele>201.4</ele><time>2026-04-07T07:36:35.681Z</time></trkpt><trkpt lat="46.1424575" lon="9.4263296"><ele>201.8</ele><time>2026-04-07T07:36:38.681Z</time></trkpt><trkpt lat="46.1425486" lon="9.4263703"><ele>202.20000000000002</ele><time>2026-04-07T07:36:41.681Z</time></trkpt><trkpt lat="46.1426421" lon="9.4264"><ele>202.60000000000002</ele><time>2026-04-07T07:36:43.681Z</time></trkpt><trkpt lat="46.1427493" lon="9.4263951"><ele>203.0</ele><time>2026-04-07T07:36:45.681Z</time></trkpt><trkpt lat="46.1428461" lon="9.4263991"><ele>203.0</ele><time>2026-04-07T07:36:47.682Z</time></trkpt><trkpt lat="46.1429366" lon="9.4264344"><ele>203.0</ele><time>2026-04-07T07:36:49.682Z</time></trkpt><trkpt lat="46.1430422" lon="9.4264681"><ele>203.0</ele><time>2026-04-07T07:36:51.681Z</time></trkpt><trkpt lat="46.1431503" lon="9.4264754"><ele>203.0</ele><time>2026-04-07T07:36:53.682Z</time></trkpt><trkpt lat="46.1432507" lon="9.4264606"><ele>203.0</ele><time>2026-04-07T07:36:55.682Z</time></trkpt><trkpt lat="46.1433562" lon="9.4264356"><ele>203.0</ele><time>2026-04-07T07:36:57.681Z</time></trkpt><trkpt lat="46.1434577" lon="9.4264146"><ele>203.0</ele><time>2026-04-07T07:36:59.683Z</time></trkpt><trkpt lat="46.1435672" lon="9.4264049"><ele>203.0</ele><time>2026-04-07T07:37:01.681Z</time></trkpt><trkpt lat="46.1436723" lon="9.426386"><ele>203.0</ele><time>2026-04-07T07:37:03.681Z</time></trkpt><trkpt lat="46.1437866" lon="9.4263583"><ele>203.0</ele><time>2026-04-07T07:37:05.681Z</time></trkpt><trkpt lat="46.143886" lon="9.4263397"><ele>203.0</ele><time>2026-04-07T07:37:07.681Z</time></trkpt><trkpt lat="46.143994" lon="9.4263096"><ele>203.0</ele><time>2026-04-07T07:37:09.682Z</time></trkpt><trkpt lat="46.1441099" lon="9.4262935"><ele>203.0</ele><time>2026-04-07T07:37:11.681Z</time></trkpt><trkpt lat="46.1442224" lon="9.4262746"><ele>203.0</ele><time>2026-04-07T07:37:13.681Z</time></trkpt><trkpt lat="46.1443304" lon="9.4262908"><ele>203.0</ele><time>2026-04-07T07:37:15.682Z</time></trkpt><trkpt lat="46.1444307" lon="9.4263062"><ele>203.0</ele><time>2026-04-07T07:37:17.681Z</time></trkpt><trkpt lat="46.1445471" lon="9.4263057"><ele>203.0</ele><time>2026-04-07T07:37:19.681Z</time></trkpt><trkpt lat="46.1446255" lon="9.4263983"><ele>203.0</ele><time>2026-04-07T07:37:21.682Z</time></trkpt><trkpt lat="46.144658" lon="9.426525"><ele>203.0</ele><time>2026-04-07T07:37:23.682Z</time></trkpt><trkpt lat="46.144664" lon="9.426672"><ele>203.0</ele><time>2026-04-07T07:37:25.682Z</time></trkpt><trkpt lat="46.1446699" lon="9.426818"><ele>203.0</ele><time>2026-04-07T07:37:27.681Z</time></trkpt><trkpt lat="46.1446825" lon="9.4269515"><ele>203.0</ele><time>2026-04-07T07:37:29.681Z</time></trkpt><trkpt lat="46.1447428" lon="9.4270715"><ele>203.0</ele><time>2026-04-07T07:37:31.681Z</time></trkpt><trkpt lat="46.1448262" lon="9.4271337"><ele>203.0</ele><time>2026-04-07T07:37:33.681Z</time></trkpt><trkpt lat="46.1449162" lon="9.427195"><ele>203.0</ele><time>2026-04-07T07:37:35.682Z</time></trkpt><trkpt lat="46.1449485" lon="9.4273202"><ele>202.8</ele><time>2026-04-07T07:37:37.682Z</time></trkpt><trkpt lat="46.1449277" lon="9.4274611"><ele>202.60000000000002</ele><time>2026-04-07T07:37:39.682Z</time></trkpt><trkpt lat="46.1448914" lon="9.427604"><ele>202.39999999999998</ele><time>2026-04-07T07:37:41.68Z</time></trkpt><trkpt lat="46.1448464" lon="9.4277436"><ele>202.2</ele><time>2026-04-07T07:37:43.681Z</time></trkpt><trkpt lat="46.144789" lon="9.4278731"><ele>202.0</ele><time>2026-04-07T07:37:45.681Z</time></trkpt><trkpt lat="46.1447294" lon="9.4280113"><ele>202.0</ele><time>2026-04-07T07:37:47.682Z</time></trkpt><trkpt lat="46.1446752" lon="9.4281501"><ele>202.0</ele><time>2026-04-07T07:37:49.681Z</time></trkpt><trkpt lat="46.1446167" lon="9.4282922"><ele>202.0</ele><time>2026-04-07T07:37:51.681Z</time></trkpt><trkpt lat="46.1445552" lon="9.4284319"><ele>202.0</ele><time>2026-04-07T07:37:53.68Z</time></trkpt><trkpt lat="46.1445083" lon="9.4285681"><ele>202.0</ele><time>2026-04-07T07:37:55.683Z</time></trkpt><trkpt lat="46.1444551" lon="9.4287089"><ele>201.6</ele><time>2026-04-07T07:37:57.683Z</time></trkpt><trkpt lat="46.1443947" lon="9.4288425"><ele>201.2</ele><time>2026-04-07T07:37:59.682Z</time></trkpt><trkpt lat="46.1443368" lon="9.4289652"><ele>200.8</ele><time>2026-04-07T07:38:01.683Z</time></trkpt><trkpt lat="46.1442841" lon="9.4291074"><ele>200.4</ele><time>2026-04-07T07:38:03.682Z</time></trkpt><trkpt lat="46.1442298" lon="9.4292596"><ele>200.0</ele><time>2026-04-07T07:38:05.681Z</time></trkpt><trkpt lat="46.1441765" lon="9.4293881"><ele>200.0</ele><time>2026-04-07T07:38:07.681Z</time></trkpt><trkpt lat="46.1441274" lon="9.4295168"><ele>200.0</ele><time>2026-04-07T07:38:09.682Z</time></trkpt><trkpt lat="46.1440623" lon="9.429656"><ele>200.0</ele><time>2026-04-07T07:38:11.682Z</time></trkpt><trkpt lat="46.144004" lon="9.4298057"><ele>200.0</ele><time>2026-04-07T07:38:13.682Z</time></trkpt><trkpt lat="46.1439479" lon="9.4299433"><ele>200.0</ele><time>2026-04-07T07:38:15.682Z</time></trkpt><trkpt lat="46.1438935" lon="9.4300766"><ele>200.2</ele><time>2026-04-07T07:38:17.681Z</time></trkpt><trkpt lat="46.1438449" lon="9.4302126"><ele>200.4</ele><time>2026-04-07T07:38:19.682Z</time></trkpt><trkpt lat="46.1438048" lon="9.4303506"><ele>200.60000000000002</ele><time>2026-04-07T07:38:21.682Z</time></trkpt><trkpt lat="46.1437472" lon="9.4304925"><ele>200.8</ele><time>2026-04-07T07:38:23.681Z</time></trkpt><trkpt lat="46.1436991" lon="9.4306249"><ele>201.0</ele><time>2026-04-07T07:38:25.682Z</time></trkpt><trkpt lat="46.143651" lon="9.430759"><ele>201.0</ele><time>2026-04-07T07:38:27.682Z</time></trkpt><trkpt lat="46.1435936" lon="9.4308962"><ele>201.0</ele><time>2026-04-07T07:38:29.681Z</time></trkpt><trkpt lat="46.1435435" lon="9.4310401"><ele>201.0</ele><time>2026-04-07T07:38:31.682Z</time></trkpt><trkpt lat="46.1434913" lon="9.4311798"><ele>201.0</ele><time>2026-04-07T07:38:33.683Z</time></trkpt><trkpt lat="46.1434411" lon="9.4313312"><ele>201.0</ele><time>2026-04-07T07:38:35.681Z</time></trkpt><trkpt lat="46.1433929" lon="9.4314822"><ele>201.0</ele><time>2026-04-07T07:38:37.682Z</time></trkpt><trkpt lat="46.1433474" lon="9.4316276"><ele>201.0</ele><time>2026-04-07T07:38:39.682Z</time></trkpt><trkpt lat="46.1432869" lon="9.4317794"><ele>201.0</ele><time>2026-04-07T07:38:41.683Z</time></trkpt><trkpt lat="46.1432325" lon="9.4319105"><ele>201.0</ele><time>2026-04-07T07:38:43.681Z</time></trkpt><trkpt lat="46.1431888" lon="9.4320544"><ele>201.0</ele><time>2026-04-07T07:38:45.682Z</time></trkpt><trkpt lat="46.1431403" lon="9.4322034"><ele>200.75</ele><time>2026-04-07T07:38:47.682Z</time></trkpt><trkpt lat="46.1430888" lon="9.4323536"><ele>200.5</ele><time>2026-04-07T07:38:49.683Z</time></trkpt><trkpt lat="46.143046" lon="9.4325062"><ele>200.25</ele><time>2026-04-07T07:38:51.682Z</time></trkpt><trkpt lat="46.1430069" lon="9.432651"><ele>200.0</ele><time>2026-04-07T07:38:53.682Z</time></trkpt><trkpt lat="46.1429621" lon="9.4328019"><ele>200.0</ele><time>2026-04-07T07:38:55.683Z</time></trkpt><trkpt lat="46.1429228" lon="9.432954"><ele>200.0</ele><time>2026-04-07T07:38:57.683Z</time></trkpt><trkpt lat="46.1428805" lon="9.4330928"><ele>200.0</ele><time>2026-04-07T07:38:59.682Z</time></trkpt><trkpt lat="46.1428371" lon="9.4332394"><ele>200.0</ele><time>2026-04-07T07:39:01.683Z</time></trkpt><trkpt lat="46.1428008" lon="9.4333905"><ele>200.0</ele><time>2026-04-07T07:39:03.683Z</time></trkpt><trkpt lat="46.1427579" lon="9.4335417"><ele>200.2</ele><time>2026-04-07T07:39:05.682Z</time></trkpt><trkpt lat="46.1427163" lon="9.4336913"><ele>200.4</ele><time>2026-04-07T07:39:07.682Z</time></trkpt><trkpt lat="46.1426822" lon="9.4338324"><ele>200.60000000000002</ele><time>2026-04-07T07:39:09.682Z</time></trkpt><trkpt lat="46.1426388" lon="9.4339684"><ele>200.8</ele><time>2026-04-07T07:39:11.682Z</time></trkpt><trkpt lat="46.1425712" lon="9.4340836"><ele>201.0</ele><time>2026-04-07T07:39:13.682Z</time></trkpt><trkpt lat="46.142495" lon="9.4341737"><ele>201.0</ele><time>2026-04-07T07:39:15.683Z</time></trkpt><trkpt lat="46.1423959" lon="9.4341862"><ele>201.0</ele><time>2026-04-07T07:39:17.682Z</time></trkpt><trkpt lat="46.1423092" lon="9.4341703"><ele>201.0</ele><time>2026-04-07T07:39:19.682Z</time></trkpt><trkpt lat="46.1421994" lon="9.4341681"><ele>201.0</ele><time>2026-04-07T07:39:21.682Z</time></trkpt><trkpt lat="46.1420756" lon="9.4341424"><ele>201.0</ele><time>2026-04-07T07:39:23.682Z</time></trkpt><trkpt lat="46.1420058" lon="9.4341402"><ele>201.0</ele><time>2026-04-07T07:39:24.682Z</time></trkpt><trkpt lat="46.1418902" lon="9.4341299"><ele>201.0</ele><time>2026-04-07T07:39:26.681Z</time></trkpt><trkpt lat="46.1417856" lon="9.4341368"><ele>201.0</ele><time>2026-04-07T07:39:28.682Z</time></trkpt><trkpt lat="46.1416855" lon="9.4341415"><ele>201.0</ele><time>2026-04-07T07:39:30.683Z</time></trkpt><trkpt lat="46.141578" lon="9.4341552"><ele>201.0</ele><time>2026-04-07T07:39:32.683Z</time></trkpt><trkpt lat="46.1414597" lon="9.4341594"><ele>201.0</ele><time>2026-04-07T07:39:34.682Z</time></trkpt><trkpt lat="46.1413409" lon="9.434159"><ele>201.0</ele><time>2026-04-07T07:39:36.682Z</time></trkpt><trkpt lat="46.1412272" lon="9.4341622"><ele>201.0</ele><time>2026-04-07T07:39:38.683Z</time></trkpt><trkpt lat="46.1411638" lon="9.4341694"><ele>201.0</ele><time>2026-04-07T07:39:39.682Z</time></trkpt><trkpt lat="46.1410495" lon="9.4341779"><ele>201.0</ele><time>2026-04-07T07:39:41.682Z</time></trkpt><trkpt lat="46.1409335" lon="9.4341742"><ele>201.0</ele><time>2026-04-07T07:39:43.682Z</time></trkpt><trkpt lat="46.1408163" lon="9.4341439"><ele>201.0</ele><time>2026-04-07T07:39:45.683Z</time></trkpt><trkpt lat="46.1406999" lon="9.4341179"><ele>201.0</ele><time>2026-04-07T07:39:47.682Z</time></trkpt><trkpt lat="46.1405858" lon="9.4340975"><ele>201.0</ele><time>2026-04-07T07:39:49.682Z</time></trkpt><trkpt lat="46.1404699" lon="9.4340889"><ele>201.25</ele><time>2026-04-07T07:39:51.682Z</time></trkpt><trkpt lat="46.1403576" lon="9.4341338"><ele>201.5</ele><time>2026-04-07T07:39:53.682Z</time></trkpt><trkpt lat="46.1402769" lon="9.434244"><ele>201.75</ele><time>2026-04-07T07:39:55.682Z</time></trkpt><trkpt lat="46.1402231" lon="9.4343879"><ele>202.0</ele><time>2026-04-07T07:39:57.681Z</time></trkpt><trkpt lat="46.1401816" lon="9.4345479"><ele>202.0</ele><time>2026-04-07T07:39:59.681Z</time></trkpt><trkpt lat="46.1401522" lon="9.4346309"><ele>202.0</ele><time>2026-04-07T07:40:00.681Z</time></trkpt><trkpt lat="46.1401205" lon="9.4347109"><ele>202.0</ele><time>2026-04-07T07:40:01.683Z</time></trkpt><trkpt lat="46.1400707" lon="9.4348566"><ele>202.0</ele><time>2026-04-07T07:40:03.682Z</time></trkpt><trkpt lat="46.1400318" lon="9.4350043"><ele>202.0</ele><time>2026-04-07T07:40:05.682Z</time></trkpt><trkpt lat="46.1399849" lon="9.435162"><ele>201.75</ele><time>2026-04-07T07:40:07.683Z</time></trkpt><trkpt lat="46.1399482" lon="9.4353089"><ele>201.5</ele><time>2026-04-07T07:40:09.682Z</time></trkpt><trkpt lat="46.139905" lon="9.4354612"><ele>201.25</ele><time>2026-04-07T07:40:11.682Z</time></trkpt><trkpt lat="46.1398608" lon="9.4356193"><ele>201.0</ele><time>2026-04-07T07:40:13.683Z</time></trkpt><trkpt lat="46.1398131" lon="9.4357696"><ele>201.0</ele><time>2026-04-07T07:40:15.683Z</time></trkpt><trkpt lat="46.1397655" lon="9.4359147"><ele>201.0</ele><time>2026-04-07T07:40:17.683Z</time></trkpt><trkpt lat="46.1397175" lon="9.4360726"><ele>201.0</ele><time>2026-04-07T07:40:19.683Z</time></trkpt><trkpt lat="46.1396736" lon="9.4362211"><ele>201.0</ele><time>2026-04-07T07:40:21.682Z</time></trkpt><trkpt lat="46.1396304" lon="9.4363748"><ele>200.5</ele><time>2026-04-07T07:40:23.681Z</time></trkpt><trkpt lat="46.1395862" lon="9.436529"><ele>200.0</ele><time>2026-04-07T07:40:25.682Z</time></trkpt><trkpt lat="46.1395457" lon="9.4366825"><ele>199.5</ele><time>2026-04-07T07:40:27.683Z</time></trkpt><trkpt lat="46.1394973" lon="9.4368341"><ele>199.0</ele><time>2026-04-07T07:40:29.682Z</time></trkpt><trkpt lat="46.1394469" lon="9.4369849"><ele>199.0</ele><time>2026-04-07T07:40:31.682Z</time></trkpt><trkpt lat="46.139403" lon="9.4371322"><ele>199.0</ele><time>2026-04-07T07:40:33.683Z</time></trkpt><trkpt lat="46.1393644" lon="9.4372837"><ele>199.0</ele><time>2026-04-07T07:40:35.682Z</time></trkpt><trkpt lat="46.1393414" lon="9.4373707"><ele>199.0</ele><time>2026-04-07T07:40:36.681Z</time></trkpt><trkpt lat="46.1393158" lon="9.4374553"><ele>199.0</ele><time>2026-04-07T07:40:37.683Z</time></trkpt><trkpt lat="46.1392685" lon="9.4376142"><ele>199.25</ele><time>2026-04-07T07:40:39.682Z</time></trkpt><trkpt lat="46.1392283" lon="9.4377591"><ele>199.5</ele><time>2026-04-07T07:40:41.683Z</time></trkpt><trkpt lat="46.139188" lon="9.4379156"><ele>199.75</ele><time>2026-04-07T07:40:43.682Z</time></trkpt><trkpt lat="46.1391343" lon="9.4380685"><ele>200.0</ele><time>2026-04-07T07:40:45.682Z</time></trkpt><trkpt lat="46.1390923" lon="9.4382258"><ele>200.25</ele><time>2026-04-07T07:40:47.683Z</time></trkpt><trkpt lat="46.139057" lon="9.4383771"><ele>200.5</ele><time>2026-04-07T07:40:49.681Z</time></trkpt><trkpt lat="46.139013" lon="9.4385332"><ele>200.75</ele><time>2026-04-07T07:40:51.683Z</time></trkpt><trkpt lat="46.1389725" lon="9.4386782"><ele>201.0</ele><time>2026-04-07T07:40:53.681Z</time></trkpt><trkpt lat="46.1389285" lon="9.4388355"><ele>201.25</ele><time>2026-04-07T07:40:55.682Z</time></trkpt><trkpt lat="46.1388933" lon="9.4389967"><ele>201.5</ele><time>2026-04-07T07:40:57.682Z</time></trkpt><trkpt lat="46.1388632" lon="9.4391614"><ele>201.75</ele><time>2026-04-07T07:40:59.682Z</time></trkpt><trkpt lat="46.1388347" lon="9.4393244"><ele>202.0</ele><time>2026-04-07T07:41:01.684Z</time></trkpt><trkpt lat="46.1387996" lon="9.4394848"><ele>202.25</ele><time>2026-04-07T07:41:03.684Z</time></trkpt><trkpt lat="46.1387727" lon="9.439644"><ele>202.5</ele><time>2026-04-07T07:41:05.682Z</time></trkpt><trkpt lat="46.1387494" lon="9.4398137"><ele>202.75</ele><time>2026-04-07T07:41:07.682Z</time></trkpt><trkpt lat="46.1387291" lon="9.4399849"><ele>203.0</ele><time>2026-04-07T07:41:09.684Z</time></trkpt><trkpt lat="46.1387103" lon="9.4401508"><ele>203.0</ele><time>2026-04-07T07:41:11.682Z</time></trkpt><trkpt lat="46.1386935" lon="9.4403225"><ele>203.0</ele><time>2026-04-07T07:41:13.682Z</time></trkpt><trkpt lat="46.1386845" lon="9.4404877"><ele>203.0</ele><time>2026-04-07T07:41:15.682Z</time></trkpt><trkpt lat="46.1386737" lon="9.4406543"><ele>203.0</ele><time>2026-04-07T07:41:17.683Z</time></trkpt><trkpt lat="46.1386716" lon="9.4408246"><ele>203.0</ele><time>2026-04-07T07:41:19.683Z</time></trkpt><trkpt lat="46.1386658" lon="9.440993"><ele>203.0</ele><time>2026-04-07T07:41:21.683Z</time></trkpt><trkpt lat="46.1386698" lon="9.4411668"><ele>203.0</ele><time>2026-04-07T07:41:23.681Z</time></trkpt><trkpt lat="46.1386621" lon="9.4413388"><ele>203.0</ele><time>2026-04-07T07:41:25.681Z</time></trkpt><trkpt lat="46.1386622" lon="9.4414299"><ele>203.0</ele><time>2026-04-07T07:41:26.682Z</time></trkpt><trkpt lat="46.1386636" lon="9.4415259"><ele>202.83333333333334</ele><time>2026-04-07T07:41:27.683Z</time></trkpt><trkpt lat="46.1386634" lon="9.4416192"><ele>202.66666666666669</ele><time>2026-04-07T07:41:28.683Z</time></trkpt><trkpt lat="46.1386638" lon="9.441802"><ele>202.5</ele><time>2026-04-07T07:41:30.682Z</time></trkpt><trkpt lat="46.1386623" lon="9.4418958"><ele>202.33333333333331</ele><time>2026-04-07T07:41:31.683Z</time></trkpt><trkpt lat="46.1386628" lon="9.4419932"><ele>202.16666666666666</ele><time>2026-04-07T07:41:32.682Z</time></trkpt><trkpt lat="46.1386594" lon="9.4420866"><ele>202.0</ele><time>2026-04-07T07:41:33.683Z</time></trkpt><trkpt lat="46.1386613" lon="9.4421784"><ele>202.0</ele><time>2026-04-07T07:41:34.683Z</time></trkpt><trkpt lat="46.1386648" lon="9.442352"><ele>202.0</ele><time>2026-04-07T07:41:36.683Z</time></trkpt><trkpt lat="46.1386708" lon="9.4425181"><ele>202.0</ele><time>2026-04-07T07:41:38.682Z</time></trkpt><trkpt lat="46.1386727" lon="9.4426814"><ele>202.0</ele><time>2026-04-07T07:41:40.682Z</time></trkpt><trkpt lat="46.1386741" lon="9.4428432"><ele>202.0</ele><time>2026-04-07T07:41:42.682Z</time></trkpt><trkpt lat="46.138675" lon="9.4430123"><ele>202.0</ele><time>2026-04-07T07:41:44.683Z</time></trkpt><trkpt lat="46.1386698" lon="9.4431861"><ele>202.0</ele><time>2026-04-07T07:41:46.683Z</time></trkpt><trkpt lat="46.1386696" lon="9.4433554"><ele>202.0</ele><time>2026-04-07T07:41:48.681Z</time></trkpt><trkpt lat="46.1386737" lon="9.4435299"><ele>202.0</ele><time>2026-04-07T07:41:50.683Z</time></trkpt><trkpt lat="46.1386705" lon="9.4437"><ele>202.0</ele><time>2026-04-07T07:41:52.683Z</time></trkpt><trkpt lat="46.1386717" lon="9.4438629"><ele>202.0</ele><time>2026-04-07T07:41:54.681Z</time></trkpt><trkpt lat="46.1386736" lon="9.4440257"><ele>202.0</ele><time>2026-04-07T07:41:56.682Z</time></trkpt><trkpt lat="46.1386767" lon="9.4441975"><ele>202.25</ele><time>2026-04-07T07:41:58.682Z</time></trkpt><trkpt lat="46.1386768" lon="9.444361"><ele>202.5</ele><time>2026-04-07T07:42:00.682Z</time></trkpt><trkpt lat="46.1386745" lon="9.4445226"><ele>202.75</ele><time>2026-04-07T07:42:02.684Z</time></trkpt><trkpt lat="46.138674" lon="9.4446792"><ele>203.0</ele><time>2026-04-07T07:42:04.683Z</time></trkpt><trkpt lat="46.1386688" lon="9.4448515"><ele>203.25</ele><time>2026-04-07T07:42:06.681Z</time></trkpt><trkpt lat="46.1386677" lon="9.4450256"><ele>203.5</ele><time>2026-04-07T07:42:08.682Z</time></trkpt><trkpt lat="46.1386715" lon="9.4451871"><ele>203.75</ele><time>2026-04-07T07:42:10.681Z</time></trkpt><trkpt lat="46.1386725" lon="9.4453535"><ele>204.0</ele><time>2026-04-07T07:42:12.683Z</time></trkpt><trkpt lat="46.1386757" lon="9.4455227"><ele>204.0</ele><time>2026-04-07T07:42:14.683Z</time></trkpt><trkpt lat="46.1386788" lon="9.4456942"><ele>204.0</ele><time>2026-04-07T07:42:16.683Z</time></trkpt><trkpt lat="46.1386889" lon="9.4458604"><ele>204.0</ele><time>2026-04-07T07:42:18.682Z</time></trkpt><trkpt lat="46.1386873" lon="9.4460184"><ele>204.0</ele><time>2026-04-07T07:42:20.681Z</time></trkpt><trkpt lat="46.1386822" lon="9.4461686"><ele>204.0</ele><time>2026-04-07T07:42:22.682Z</time></trkpt><trkpt lat="46.1386873" lon="9.4463319"><ele>204.0</ele><time>2026-04-07T07:42:24.683Z</time></trkpt><trkpt lat="46.1386876" lon="9.446499"><ele>204.0</ele><time>2026-04-07T07:42:26.682Z</time></trkpt><trkpt lat="46.1386884" lon="9.4466742"><ele>204.0</ele><time>2026-04-07T07:42:28.682Z</time></trkpt><trkpt lat="46.1386889" lon="9.4468408"><ele>204.0</ele><time>2026-04-07T07:42:30.683Z</time></trkpt><trkpt lat="46.1386871" lon="9.4469985"><ele>204.0</ele><time>2026-04-07T07:42:32.681Z</time></trkpt><trkpt lat="46.1386873" lon="9.4471607"><ele>204.0</ele><time>2026-04-07T07:42:34.684Z</time></trkpt><trkpt lat="46.1386865" lon="9.4473178"><ele>204.0</ele><time>2026-04-07T07:42:36.683Z</time></trkpt><trkpt lat="46.138682" lon="9.4474684"><ele>204.0</ele><time>2026-04-07T07:42:38.681Z</time></trkpt><trkpt lat="46.1386887" lon="9.4476205"><ele>204.0</ele><time>2026-04-07T07:42:40.682Z</time></trkpt><trkpt lat="46.1386866" lon="9.4477783"><ele>204.0</ele><time>2026-04-07T07:42:42.682Z</time></trkpt><trkpt lat="46.1386893" lon="9.4479346"><ele>204.0</ele><time>2026-04-07T07:42:44.683Z</time></trkpt><trkpt lat="46.1386881" lon="9.4480915"><ele>204.0</ele><time>2026-04-07T07:42:46.683Z</time></trkpt><trkpt lat="46.1386903" lon="9.4482492"><ele>204.0</ele><time>2026-04-07T07:42:48.682Z</time></trkpt><trkpt lat="46.1386886" lon="9.4484045"><ele>204.0</ele><time>2026-04-07T07:42:50.683Z</time></trkpt><trkpt lat="46.1386919" lon="9.4485623"><ele>204.0</ele><time>2026-04-07T07:42:52.682Z</time></trkpt><trkpt lat="46.138699" lon="9.4487214"><ele>204.0</ele><time>2026-04-07T07:42:54.682Z</time></trkpt><trkpt lat="46.1387031" lon="9.4488716"><ele>204.0</ele><time>2026-04-07T07:42:56.683Z</time></trkpt><trkpt lat="46.1387032" lon="9.4490347"><ele>204.0</ele><time>2026-04-07T07:42:58.682Z</time></trkpt><trkpt lat="46.1387015" lon="9.4491988"><ele>204.0</ele><time>2026-04-07T07:43:00.683Z</time></trkpt><trkpt lat="46.1386966" lon="9.4493459"><ele>204.0</ele><time>2026-04-07T07:43:02.683Z</time></trkpt><trkpt lat="46.1387051" lon="9.4495133"><ele>204.0</ele><time>2026-04-07T07:43:04.683Z</time></trkpt><trkpt lat="46.1387062" lon="9.4496829"><ele>204.0</ele><time>2026-04-07T07:43:06.683Z</time></trkpt><trkpt lat="46.1386981" lon="9.4498463"><ele>204.0</ele><time>2026-04-07T07:43:08.683Z</time></trkpt><trkpt lat="46.1386988" lon="9.4500193"><ele>204.25</ele><time>2026-04-07T07:43:10.683Z</time></trkpt><trkpt lat="46.1386973" lon="9.4501912"><ele>204.5</ele><time>2026-04-07T07:43:12.683Z</time></trkpt><trkpt lat="46.1386885" lon="9.4503629"><ele>204.75</ele><time>2026-04-07T07:43:14.684Z</time></trkpt><trkpt lat="46.1386931" lon="9.4505244"><ele>205.0</ele><time>2026-04-07T07:43:16.682Z</time></trkpt><trkpt lat="46.1386964" lon="9.4506871"><ele>205.2</ele><time>2026-04-07T07:43:18.682Z</time></trkpt><trkpt lat="46.1387048" lon="9.4508388"><ele>205.4</ele><time>2026-04-07T07:43:20.683Z</time></trkpt><trkpt lat="46.1386985" lon="9.4509794"><ele>205.60000000000002</ele><time>2026-04-07T07:43:22.683Z</time></trkpt><trkpt lat="46.1386988" lon="9.4511371"><ele>205.8</ele><time>2026-04-07T07:43:24.682Z</time></trkpt><trkpt lat="46.1387052" lon="9.4512996"><ele>206.0</ele><time>2026-04-07T07:43:26.682Z</time></trkpt><trkpt lat="46.1387081" lon="9.451462"><ele>206.8</ele><time>2026-04-07T07:43:28.683Z</time></trkpt><trkpt lat="46.1387198" lon="9.4516221"><ele>207.60000000000002</ele><time>2026-04-07T07:43:30.684Z</time></trkpt><trkpt lat="46.1387339" lon="9.451782"><ele>208.4</ele><time>2026-04-07T07:43:32.682Z</time></trkpt><trkpt lat="46.1387352" lon="9.4519407"><ele>209.2</ele><time>2026-04-07T07:43:34.682Z</time></trkpt><trkpt lat="46.1387273" lon="9.4520994"><ele>210.0</ele><time>2026-04-07T07:43:36.682Z</time></trkpt><trkpt lat="46.1387213" lon="9.4522516"><ele>210.6</ele><time>2026-04-07T07:43:38.683Z</time></trkpt><trkpt lat="46.1387109" lon="9.4524064"><ele>211.2</ele><time>2026-04-07T07:43:40.682Z</time></trkpt><trkpt lat="46.1386999" lon="9.4525526"><ele>211.8</ele><time>2026-04-07T07:43:42.683Z</time></trkpt><trkpt lat="46.1386933" lon="9.4527019"><ele>212.4</ele><time>2026-04-07T07:43:44.684Z</time></trkpt><trkpt lat="46.1386923" lon="9.45285"><ele>213.0</ele><time>2026-04-07T07:43:46.682Z</time></trkpt><trkpt lat="46.1386976" lon="9.4529989"><ele>213.0</ele><time>2026-04-07T07:43:48.684Z</time></trkpt><trkpt lat="46.1386993" lon="9.4531492"><ele>213.0</ele><time>2026-04-07T07:43:50.683Z</time></trkpt><trkpt lat="46.1387002" lon="9.4533068"><ele>213.0</ele><time>2026-04-07T07:43:52.684Z</time></trkpt><trkpt lat="46.138695" lon="9.4534665"><ele>213.0</ele><time>2026-04-07T07:43:54.683Z</time></trkpt><trkpt lat="46.1386947" lon="9.4536113"><ele>213.0</ele><time>2026-04-07T07:43:56.683Z</time></trkpt><trkpt lat="46.1386967" lon="9.4537679"><ele>213.0</ele><time>2026-04-07T07:43:58.683Z</time></trkpt><trkpt lat="46.138702" lon="9.4539279"><ele>213.0</ele><time>2026-04-07T07:44:00.683Z</time></trkpt><trkpt lat="46.1387063" lon="9.4540827"><ele>213.0</ele><time>2026-04-07T07:44:02.683Z</time></trkpt><trkpt lat="46.1387106" lon="9.4542259"><ele>213.0</ele><time>2026-04-07T07:44:04.682Z</time></trkpt><trkpt lat="46.1387121" lon="9.4543804"><ele>213.0</ele><time>2026-04-07T07:44:06.683Z</time></trkpt><trkpt lat="46.1387123" lon="9.4545428"><ele>213.0</ele><time>2026-04-07T07:44:08.682Z</time></trkpt><trkpt lat="46.1387133" lon="9.4547024"><ele>213.0</ele><time>2026-04-07T07:44:10.683Z</time></trkpt><trkpt lat="46.1387085" lon="9.4548595"><ele>213.0</ele><time>2026-04-07T07:44:12.683Z</time></trkpt><trkpt lat="46.1387086" lon="9.4550173"><ele>213.0</ele><time>2026-04-07T07:44:14.683Z</time></trkpt><trkpt lat="46.1387096" lon="9.4551743"><ele>213.0</ele><time>2026-04-07T07:44:16.683Z</time></trkpt><trkpt lat="46.1387132" lon="9.4553309"><ele>213.4</ele><time>2026-04-07T07:44:18.683Z</time></trkpt><trkpt lat="46.1387097" lon="9.4554968"><ele>213.8</ele><time>2026-04-07T07:44:20.683Z</time></trkpt><trkpt lat="46.1387159" lon="9.4556557"><ele>214.2</ele><time>2026-04-07T07:44:22.684Z</time></trkpt><trkpt lat="46.1387277" lon="9.4558152"><ele>214.6</ele><time>2026-04-07T07:44:24.684Z</time></trkpt><trkpt lat="46.1387599" lon="9.4559631"><ele>215.0</ele><time>2026-04-07T07:44:26.682Z</time></trkpt><trkpt lat="46.1388474" lon="9.4560441"><ele>215.00000000000003</ele><time>2026-04-07T07:44:28.683Z</time></trkpt><trkpt lat="46.1389686" lon="9.4560613"><ele>215.0</ele><time>2026-04-07T07:44:30.684Z</time></trkpt><trkpt lat="46.1390318" lon="9.4560589"><ele>215.0</ele><time>2026-04-07T07:44:31.684Z</time></trkpt><trkpt lat="46.1390987" lon="9.4560588"><ele>215.0</ele><time>2026-04-07T07:44:32.683Z</time></trkpt><trkpt lat="46.1391644" lon="9.4560598"><ele>215.00000000000003</ele><time>2026-04-07T07:44:33.684Z</time></trkpt><trkpt lat="46.1392282" lon="9.4560597"><ele>215.0</ele><time>2026-04-07T07:44:34.683Z</time></trkpt><trkpt lat="46.139349" lon="9.4560596"><ele>213.4</ele><time>2026-04-07T07:44:36.683Z</time></trkpt><trkpt lat="46.1394731" lon="9.456055"><ele>211.8</ele><time>2026-04-07T07:44:38.683Z</time></trkpt><trkpt lat="46.139538" lon="9.4560459"><ele>210.2</ele><time>2026-04-07T07:44:39.683Z</time></trkpt><trkpt lat="46.1396476" lon="9.4560306"><ele>208.6</ele><time>2026-04-07T07:44:41.683Z</time></trkpt><trkpt lat="46.1397606" lon="9.4560357"><ele>207.0</ele><time>2026-04-07T07:44:43.682Z</time></trkpt><trkpt lat="46.1398511" lon="9.4559507"><ele>207.0</ele><time>2026-04-07T07:44:45.682Z</time></trkpt><trkpt lat="46.1399336" lon="9.4558218"><ele>207.0</ele><time>2026-04-07T07:44:47.684Z</time></trkpt><trkpt lat="46.1400056" lon="9.4556807"><ele>207.0</ele><time>2026-04-07T07:44:49.682Z</time></trkpt><trkpt lat="46.1400769" lon="9.4555318"><ele>207.0</ele><time>2026-04-07T07:44:51.684Z</time></trkpt><trkpt lat="46.1401132" lon="9.4554491"><ele>207.0</ele><time>2026-04-07T07:44:52.683Z</time></trkpt><trkpt lat="46.1401452" lon="9.4553607"><ele>207.0</ele><time>2026-04-07T07:44:53.683Z</time></trkpt><trkpt lat="46.1401729" lon="9.4552676"><ele>207.0</ele><time>2026-04-07T07:44:54.683Z</time></trkpt><trkpt lat="46.1401931" lon="9.4551739"><ele>207.0</ele><time>2026-04-07T07:44:55.683Z</time></trkpt><trkpt lat="46.1402437" lon="9.4550014"><ele>207.0</ele><time>2026-04-07T07:44:57.683Z</time></trkpt><trkpt lat="46.1402741" lon="9.4549129"><ele>207.0</ele><time>2026-04-07T07:44:58.683Z</time></trkpt><trkpt lat="46.1403018" lon="9.4548216"><ele>207.0</ele><time>2026-04-07T07:44:59.683Z</time></trkpt><trkpt lat="46.1403255" lon="9.4547339"><ele>207.00000000000003</ele><time>2026-04-07T07:45:00.683Z</time></trkpt><trkpt lat="46.1403477" lon="9.4546437"><ele>207.0</ele><time>2026-04-07T07:45:01.683Z</time></trkpt><trkpt lat="46.1403691" lon="9.4545516"><ele>207.0</ele><time>2026-04-07T07:45:02.683Z</time></trkpt><trkpt lat="46.1403964" lon="9.4544643"><ele>207.0</ele><time>2026-04-07T07:45:03.684Z</time></trkpt><trkpt lat="46.1404275" lon="9.4543833"><ele>207.0</ele><time>2026-04-07T07:45:04.683Z</time></trkpt><trkpt lat="46.1404645" lon="9.4543029"><ele>207.00000000000003</ele><time>2026-04-07T07:45:05.682Z</time></trkpt><trkpt lat="46.1404964" lon="9.4542196"><ele>207.0</ele><time>2026-04-07T07:45:06.682Z</time></trkpt><trkpt lat="46.1405308" lon="9.4541394"><ele>206.6</ele><time>2026-04-07T07:45:07.683Z</time></trkpt><trkpt lat="46.1405898" lon="9.4539873"><ele>206.2</ele><time>2026-04-07T07:45:09.683Z</time></trkpt><trkpt lat="46.1406522" lon="9.4538245"><ele>205.8</ele><time>2026-04-07T07:45:11.684Z</time></trkpt><trkpt lat="46.1406801" lon="9.4537386"><ele>205.4</ele><time>2026-04-07T07:45:12.683Z</time></trkpt><trkpt lat="46.1407289" lon="9.453575"><ele>205.0</ele><time>2026-04-07T07:45:14.683Z</time></trkpt><trkpt lat="46.1407759" lon="9.4535123"><ele>204.83333333333331</ele><time>2026-04-07T07:45:15.682Z</time></trkpt><trkpt lat="46.140889" lon="9.4534419"><ele>204.66666666666666</ele><time>2026-04-07T07:45:17.684Z</time></trkpt><trkpt lat="46.1409558" lon="9.4534184"><ele>204.5</ele><time>2026-04-07T07:45:18.683Z</time></trkpt><trkpt lat="46.1410189" lon="9.4533933"><ele>204.33333333333331</ele><time>2026-04-07T07:45:19.684Z</time></trkpt><trkpt lat="46.1410868" lon="9.4533586"><ele>204.16666666666666</ele><time>2026-04-07T07:45:20.684Z</time></trkpt><trkpt lat="46.141153" lon="9.4533238"><ele>204.0</ele><time>2026-04-07T07:45:21.683Z</time></trkpt><trkpt lat="46.1412203" lon="9.4532889"><ele>204.0</ele><time>2026-04-07T07:45:22.685Z</time></trkpt><trkpt lat="46.1412897" lon="9.4532492"><ele>204.0</ele><time>2026-04-07T07:45:23.684Z</time></trkpt><trkpt lat="46.14136" lon="9.45321"><ele>204.0</ele><time>2026-04-07T07:45:24.684Z</time></trkpt><trkpt lat="46.141432" lon="9.4531678"><ele>204.0</ele><time>2026-04-07T07:45:25.683Z</time></trkpt><trkpt lat="46.141502" lon="9.4531287"><ele>204.0</ele><time>2026-04-07T07:45:26.682Z</time></trkpt><trkpt lat="46.1415703" lon="9.4530922"><ele>204.0</ele><time>2026-04-07T07:45:27.684Z</time></trkpt><trkpt lat="46.1416411" lon="9.4530481"><ele>204.0</ele><time>2026-04-07T07:45:28.684Z</time></trkpt><trkpt lat="46.141709" lon="9.4530113"><ele>204.0</ele><time>2026-04-07T07:45:29.684Z</time></trkpt><trkpt lat="46.1417761" lon="9.4529767"><ele>204.0</ele><time>2026-04-07T07:45:30.684Z</time></trkpt><trkpt lat="46.1418369" lon="9.4529431"><ele>204.0</ele><time>2026-04-07T07:45:31.684Z</time></trkpt><trkpt lat="46.1418971" lon="9.4529117"><ele>204.0</ele><time>2026-04-07T07:45:32.683Z</time></trkpt><trkpt lat="46.1420154" lon="9.4528474"><ele>204.0</ele><time>2026-04-07T07:45:34.684Z</time></trkpt><trkpt lat="46.142078" lon="9.4528156"><ele>203.79999999999998</ele><time>2026-04-07T07:45:35.684Z</time></trkpt><trkpt lat="46.1422005" lon="9.4527684"><ele>203.6</ele><time>2026-04-07T07:45:37.684Z</time></trkpt><trkpt lat="46.1422682" lon="9.4527563"><ele>203.4</ele><time>2026-04-07T07:45:38.684Z</time></trkpt><trkpt lat="46.1423308" lon="9.4527728"><ele>203.2</ele><time>2026-04-07T07:45:39.683Z</time></trkpt><trkpt lat="46.1424428" lon="9.452828"><ele>203.0</ele><time>2026-04-07T07:45:41.682Z</time></trkpt><trkpt lat="46.1425573" lon="9.452879"><ele>203.00000000000003</ele><time>2026-04-07T07:45:43.683Z</time></trkpt><trkpt lat="46.1426201" lon="9.4528964"><ele>203.0</ele><time>2026-04-07T07:45:44.683Z</time></trkpt><trkpt lat="46.1426835" lon="9.4529093"><ele>203.0</ele><time>2026-04-07T07:45:45.683Z</time></trkpt><trkpt lat="46.1428097" lon="9.4529164"><ele>203.0</ele><time>2026-04-07T07:45:47.683Z</time></trkpt><trkpt lat="46.142878" lon="9.4529118"><ele>203.00000000000003</ele><time>2026-04-07T07:45:48.683Z</time></trkpt><trkpt lat="46.1429431" lon="9.4529039"><ele>203.0</ele><time>2026-04-07T07:45:49.683Z</time></trkpt><trkpt lat="46.1430588" lon="9.4528858"><ele>203.00000000000003</ele><time>2026-04-07T07:45:51.683Z</time></trkpt><trkpt lat="46.1431797" lon="9.4528659"><ele>203.0</ele><time>2026-04-07T07:45:53.683Z</time></trkpt><trkpt lat="46.1432425" lon="9.452859"><ele>203.0</ele><time>2026-04-07T07:45:54.682Z</time></trkpt><trkpt lat="46.143306" lon="9.4528557"><ele>203.0</ele><time>2026-04-07T07:45:55.683Z</time></trkpt><trkpt lat="46.1433737" lon="9.4528508"><ele>203.00000000000003</ele><time>2026-04-07T07:45:56.683Z</time></trkpt><trkpt lat="46.1434899" lon="9.4528497"><ele>203.0</ele><time>2026-04-07T07:45:58.685Z</time></trkpt><trkpt lat="46.1435998" lon="9.4528744"><ele>203.0</ele><time>2026-04-07T07:46:00.683Z</time></trkpt><trkpt lat="46.1437092" lon="9.4529469"><ele>203.0</ele><time>2026-04-07T07:46:02.684Z</time></trkpt><trkpt lat="46.1438108" lon="9.4530421"><ele>203.0</ele><time>2026-04-07T07:46:04.683Z</time></trkpt><trkpt lat="46.1439061" lon="9.4531488"><ele>203.0</ele><time>2026-04-07T07:46:06.684Z</time></trkpt><trkpt lat="46.1439675" lon="9.453298"><ele>203.0</ele><time>2026-04-07T07:46:08.683Z</time></trkpt><trkpt lat="46.1439903" lon="9.4534565"><ele>203.0</ele><time>2026-04-07T07:46:10.683Z</time></trkpt><trkpt lat="46.1440128" lon="9.4536144"><ele>203.0</ele><time>2026-04-07T07:46:12.685Z</time></trkpt><trkpt lat="46.1440548" lon="9.4537687"><ele>203.0</ele><time>2026-04-07T07:46:14.684Z</time></trkpt><trkpt lat="46.1441042" lon="9.4539173"><ele>203.0</ele><time>2026-04-07T07:46:16.683Z</time></trkpt><trkpt lat="46.1441289" lon="9.4540014"><ele>203.0</ele><time>2026-04-07T07:46:17.683Z</time></trkpt><trkpt lat="46.1441704" lon="9.4541586"><ele>203.0</ele><time>2026-04-07T07:46:19.684Z</time></trkpt><trkpt lat="46.1442105" lon="9.454296"><ele>203.0</ele><time>2026-04-07T07:46:21.684Z</time></trkpt><trkpt lat="46.1442611" lon="9.4544172"><ele>203.0</ele><time>2026-04-07T07:46:23.683Z</time></trkpt><trkpt lat="46.1443597" lon="9.454453"><ele>203.0</ele><time>2026-04-07T07:46:25.683Z</time></trkpt><trkpt lat="46.144462" lon="9.454477"><ele>203.0</ele><time>2026-04-07T07:46:27.682Z</time></trkpt><trkpt lat="46.1445569" lon="9.4544962"><ele>203.0</ele><time>2026-04-07T07:46:29.684Z</time></trkpt><trkpt lat="46.1446479" lon="9.4545328"><ele>203.0</ele><time>2026-04-07T07:46:31.684Z</time></trkpt><trkpt lat="46.1447509" lon="9.4545817"><ele>203.0</ele><time>2026-04-07T07:46:33.683Z</time></trkpt><trkpt lat="46.1448539" lon="9.4546376"><ele>203.75</ele><time>2026-04-07T07:46:35.683Z</time></trkpt><trkpt lat="46.1449647" lon="9.4547009"><ele>204.5</ele><time>2026-04-07T07:46:37.683Z</time></trkpt><trkpt lat="46.1450827" lon="9.4547565"><ele>205.25</ele><time>2026-04-07T07:46:39.684Z</time></trkpt><trkpt lat="46.1451879" lon="9.4548229"><ele>206.0</ele><time>2026-04-07T07:46:41.683Z</time></trkpt><trkpt lat="46.145285" lon="9.4548921"><ele>206.0</ele><time>2026-04-07T07:46:43.683Z</time></trkpt><trkpt lat="46.1453909" lon="9.4549604"><ele>206.0</ele><time>2026-04-07T07:46:45.684Z</time></trkpt><trkpt lat="46.1454988" lon="9.4550228"><ele>206.0</ele><time>2026-04-07T07:46:47.683Z</time></trkpt><trkpt lat="46.1456121" lon="9.4550703"><ele>206.0</ele><time>2026-04-07T07:46:49.682Z</time></trkpt><trkpt lat="46.1457289" lon="9.4550966"><ele>204.75</ele><time>2026-04-07T07:46:51.683Z</time></trkpt><trkpt lat="46.1458411" lon="9.4551247"><ele>203.5</ele><time>2026-04-07T07:46:53.683Z</time></trkpt><trkpt lat="46.1459606" lon="9.4551821"><ele>202.25</ele><time>2026-04-07T07:46:55.685Z</time></trkpt><trkpt lat="46.1460668" lon="9.4552556"><ele>201.0</ele><time>2026-04-07T07:46:57.682Z</time></trkpt><trkpt lat="46.1461758" lon="9.4553118"><ele>201.0</ele><time>2026-04-07T07:46:59.684Z</time></trkpt><trkpt lat="46.146288" lon="9.4553621"><ele>201.0</ele><time>2026-04-07T07:47:01.684Z</time></trkpt><trkpt lat="46.1464063" lon="9.4554117"><ele>201.0</ele><time>2026-04-07T07:47:03.684Z</time></trkpt><trkpt lat="46.1465179" lon="9.4554695"><ele>201.0</ele><time>2026-04-07T07:47:05.683Z</time></trkpt><trkpt lat="46.1466272" lon="9.4555347"><ele>201.25</ele><time>2026-04-07T07:47:07.684Z</time></trkpt><trkpt lat="46.1467375" lon="9.4556005"><ele>201.5</ele><time>2026-04-07T07:47:09.685Z</time></trkpt><trkpt lat="46.1468453" lon="9.4556785"><ele>201.75</ele><time>2026-04-07T07:47:11.684Z</time></trkpt><trkpt lat="46.1469543" lon="9.4557635"><ele>202.0</ele><time>2026-04-07T07:47:13.683Z</time></trkpt><trkpt lat="46.1470617" lon="9.455838"><ele>202.0</ele><time>2026-04-07T07:47:15.684Z</time></trkpt><trkpt lat="46.1471622" lon="9.4559076"><ele>202.0</ele><time>2026-04-07T07:47:17.683Z</time></trkpt><trkpt lat="46.147217" lon="9.455953"><ele>202.0</ele><time>2026-04-07T07:47:18.684Z</time></trkpt><trkpt lat="46.1473237" lon="9.4560537"><ele>202.0</ele><time>2026-04-07T07:47:20.683Z</time></trkpt><trkpt lat="46.1474299" lon="9.4561608"><ele>202.0</ele><time>2026-04-07T07:47:22.683Z</time></trkpt><trkpt lat="46.1475358" lon="9.4562542"><ele>202.49999999999997</ele><time>2026-04-07T07:47:24.683Z</time></trkpt><trkpt lat="46.1475919" lon="9.4563032"><ele>203.0</ele><time>2026-04-07T07:47:25.683Z</time></trkpt><trkpt lat="46.147645" lon="9.4563539"><ele>203.5</ele><time>2026-04-07T07:47:26.684Z</time></trkpt><trkpt lat="46.1476981" lon="9.4564034"><ele>204.0</ele><time>2026-04-07T07:47:27.684Z</time></trkpt><trkpt lat="46.1477951" lon="9.4564999"><ele>204.49999999999997</ele><time>2026-04-07T07:47:29.684Z</time></trkpt><trkpt lat="46.1478895" lon="9.4565927"><ele>205.0</ele><time>2026-04-07T07:47:31.685Z</time></trkpt><trkpt lat="46.147978" lon="9.4567028"><ele>205.0</ele><time>2026-04-07T07:47:33.685Z</time></trkpt><trkpt lat="46.1480661" lon="9.4568094"><ele>205.0</ele><time>2026-04-07T07:47:35.683Z</time></trkpt><trkpt lat="46.1481644" lon="9.4569137"><ele>205.0</ele><time>2026-04-07T07:47:37.683Z</time></trkpt><trkpt lat="46.1482538" lon="9.4570167"><ele>205.0</ele><time>2026-04-07T07:47:39.683Z</time></trkpt><trkpt lat="46.1483468" lon="9.4571218"><ele>204.4</ele><time>2026-04-07T07:47:41.684Z</time></trkpt><trkpt lat="46.1484337" lon="9.4572302"><ele>203.8</ele><time>2026-04-07T07:47:43.683Z</time></trkpt><trkpt lat="46.1485112" lon="9.4573413"><ele>203.2</ele><time>2026-04-07T07:47:45.685Z</time></trkpt><trkpt lat="46.1485976" lon="9.4574607"><ele>202.6</ele><time>2026-04-07T07:47:47.683Z</time></trkpt><trkpt lat="46.1486448" lon="9.4575273"><ele>202.0</ele><time>2026-04-07T07:47:48.683Z</time></trkpt><trkpt lat="46.148694" lon="9.4575914"><ele>202.0</ele><time>2026-04-07T07:47:49.684Z</time></trkpt><trkpt lat="46.1487861" lon="9.4577132"><ele>202.0</ele><time>2026-04-07T07:47:51.684Z</time></trkpt><trkpt lat="46.1488762" lon="9.4578433"><ele>202.0</ele><time>2026-04-07T07:47:53.682Z</time></trkpt><trkpt lat="46.1489654" lon="9.457963"><ele>202.0</ele><time>2026-04-07T07:47:55.685Z</time></trkpt><trkpt lat="46.1490454" lon="9.4580838"><ele>202.39999999999998</ele><time>2026-04-07T07:47:57.684Z</time></trkpt><trkpt lat="46.1491134" lon="9.4582121"><ele>202.79999999999998</ele><time>2026-04-07T07:47:59.682Z</time></trkpt><trkpt lat="46.1491764" lon="9.4583374"><ele>203.2</ele><time>2026-04-07T07:48:01.684Z</time></trkpt><trkpt lat="46.1492348" lon="9.4584663"><ele>203.6</ele><time>2026-04-07T07:48:03.685Z</time></trkpt><trkpt lat="46.1492977" lon="9.458583"><ele>204.0</ele><time>2026-04-07T07:48:05.684Z</time></trkpt><trkpt lat="46.149361" lon="9.458705"><ele>203.79999999999998</ele><time>2026-04-07T07:48:07.684Z</time></trkpt><trkpt lat="46.1494129" lon="9.4588274"><ele>203.6</ele><time>2026-04-07T07:48:09.684Z</time></trkpt><trkpt lat="46.1494763" lon="9.4589544"><ele>203.4</ele><time>2026-04-07T07:48:11.685Z</time></trkpt><trkpt lat="46.1495216" lon="9.4590892"><ele>203.2</ele><time>2026-04-07T07:48:13.684Z</time></trkpt><trkpt lat="46.1495498" lon="9.45924"><ele>203.0</ele><time>2026-04-07T07:48:15.683Z</time></trkpt><trkpt lat="46.1495542" lon="9.4593931"><ele>203.0</ele><time>2026-04-07T07:48:17.685Z</time></trkpt><trkpt lat="46.149544" lon="9.4595541"><ele>203.0</ele><time>2026-04-07T07:48:19.684Z</time></trkpt><trkpt lat="46.1495143" lon="9.4597204"><ele>203.0</ele><time>2026-04-07T07:48:21.684Z</time></trkpt><trkpt lat="46.1494488" lon="9.4598636"><ele>203.0</ele><time>2026-04-07T07:48:23.684Z</time></trkpt><trkpt lat="46.1493933" lon="9.4600133"><ele>203.00000000000003</ele><time>2026-04-07T07:48:25.684Z</time></trkpt><trkpt lat="46.1493653" lon="9.4601059"><ele>203.0</ele><time>2026-04-07T07:48:27.683Z</time></trkpt><trkpt lat="46.1493285" lon="9.4602368"><ele>203.0</ele><time>2026-04-07T07:48:29.684Z</time></trkpt><trkpt lat="46.1492923" lon="9.4603614"><ele>203.0</ele><time>2026-04-07T07:48:31.685Z</time></trkpt><trkpt lat="46.1492571" lon="9.4604493"><ele>203.00000000000003</ele><time>2026-04-07T07:48:33.684Z</time></trkpt><trkpt lat="46.149218" lon="9.460546"><ele>203.0</ele><time>2026-04-07T07:48:36.685Z</time></trkpt><trkpt lat="46.1491916" lon="9.4606312"><ele>203.00000000000003</ele><time>2026-04-07T07:48:38.684Z</time></trkpt><trkpt lat="46.1491712" lon="9.4607337"><ele>203.0</ele><time>2026-04-07T07:48:40.684Z</time></trkpt><trkpt lat="46.1491468" lon="9.460843"><ele>203.0</ele><time>2026-04-07T07:48:42.683Z</time></trkpt><trkpt lat="46.1491146" lon="9.4609582"><ele>203.0</ele><time>2026-04-07T07:48:44.684Z</time></trkpt><trkpt lat="46.1490563" lon="9.4610796"><ele>203.00000000000003</ele><time>2026-04-07T07:48:46.685Z</time></trkpt><trkpt lat="46.1489874" lon="9.4611912"><ele>203.0</ele><time>2026-04-07T07:48:48.684Z</time></trkpt><trkpt lat="46.1489152" lon="9.4613041"><ele>203.0</ele><time>2026-04-07T07:48:50.685Z</time></trkpt><trkpt lat="46.1488476" lon="9.4614149"><ele>203.0</ele><time>2026-04-07T07:48:52.683Z</time></trkpt><trkpt lat="46.1487772" lon="9.4615125"><ele>203.0</ele><time>2026-04-07T07:48:54.683Z</time></trkpt><trkpt lat="46.1487257" lon="9.4615716"><ele>203.0</ele><time>2026-04-07T07:48:55.685Z</time></trkpt><trkpt lat="46.1486371" lon="9.461669"><ele>203.0</ele><time>2026-04-07T07:48:57.684Z</time></trkpt><trkpt lat="46.148562" lon="9.4617631"><ele>203.0</ele><time>2026-04-07T07:48:59.683Z</time></trkpt><trkpt lat="46.1484814" lon="9.4618569"><ele>203.0</ele><time>2026-04-07T07:49:01.684Z</time></trkpt><trkpt lat="46.1483997" lon="9.4619566"><ele>203.0</ele><time>2026-04-07T07:49:03.684Z</time></trkpt><trkpt lat="46.148313" lon="9.4620604"><ele>203.0</ele><time>2026-04-07T07:49:05.685Z</time></trkpt><trkpt lat="46.1482251" lon="9.4621602"><ele>203.0</ele><time>2026-04-07T07:49:07.684Z</time></trkpt><trkpt lat="46.1481309" lon="9.4622606"><ele>203.25</ele><time>2026-04-07T07:49:09.683Z</time></trkpt><trkpt lat="46.1480376" lon="9.4623642"><ele>203.5</ele><time>2026-04-07T07:49:11.684Z</time></trkpt><trkpt lat="46.1479489" lon="9.4624693"><ele>203.75</ele><time>2026-04-07T07:49:13.683Z</time></trkpt><trkpt lat="46.1478632" lon="9.4625721"><ele>204.0</ele><time>2026-04-07T07:49:15.684Z</time></trkpt><trkpt lat="46.1477759" lon="9.4626895"><ele>204.0</ele><time>2026-04-07T07:49:17.684Z</time></trkpt><trkpt lat="46.1476908" lon="9.4628154"><ele>204.0</ele><time>2026-04-07T07:49:19.683Z</time></trkpt><trkpt lat="46.1476116" lon="9.4629338"><ele>204.0</ele><time>2026-04-07T07:49:21.684Z</time></trkpt><trkpt lat="46.1475395" lon="9.4630569"><ele>204.0</ele><time>2026-04-07T07:49:23.683Z</time></trkpt><trkpt lat="46.1474559" lon="9.4631849"><ele>203.83333333333334</ele><time>2026-04-07T07:49:25.684Z</time></trkpt><trkpt lat="46.1474173" lon="9.4632595"><ele>203.66666666666669</ele><time>2026-04-07T07:49:26.685Z</time></trkpt><trkpt lat="46.1473508" lon="9.4634022"><ele>203.5</ele><time>2026-04-07T07:49:28.683Z</time></trkpt><trkpt lat="46.1472822" lon="9.4635479"><ele>203.33333333333334</ele><time>2026-04-07T07:49:30.684Z</time></trkpt><trkpt lat="46.1472482" lon="9.4636259"><ele>203.16666666666669</ele><time>2026-04-07T07:49:31.684Z</time></trkpt><trkpt lat="46.1472147" lon="9.4637045"><ele>203.0</ele><time>2026-04-07T07:49:32.683Z</time></trkpt><trkpt lat="46.1471542" lon="9.4638542"><ele>203.5</ele><time>2026-04-07T07:49:34.684Z</time></trkpt><trkpt lat="46.1470909" lon="9.464008"><ele>204.0</ele><time>2026-04-07T07:49:36.684Z</time></trkpt><trkpt lat="46.1470306" lon="9.4641599"><ele>204.5</ele><time>2026-04-07T07:49:38.685Z</time></trkpt><trkpt lat="46.1469668" lon="9.4643072"><ele>205.0</ele><time>2026-04-07T07:49:40.683Z</time></trkpt><trkpt lat="46.14691" lon="9.4644556"><ele>205.0</ele><time>2026-04-07T07:49:42.684Z</time></trkpt><trkpt lat="46.1468515" lon="9.4645943"><ele>205.0</ele><time>2026-04-07T07:49:44.683Z</time></trkpt><trkpt lat="46.1468153" lon="9.4647395"><ele>205.0</ele><time>2026-04-07T07:49:46.683Z</time></trkpt><trkpt lat="46.1468048" lon="9.4648948"><ele>205.0</ele><time>2026-04-07T07:49:48.683Z</time></trkpt><trkpt lat="46.1467997" lon="9.4650594"><ele>205.0</ele><time>2026-04-07T07:49:50.684Z</time></trkpt><trkpt lat="46.1467929" lon="9.4652355"><ele>204.85714285714286</ele><time>2026-04-07T07:49:52.684Z</time></trkpt><trkpt lat="46.1467906" lon="9.4653284"><ele>204.7142857142857</ele><time>2026-04-07T07:49:53.684Z</time></trkpt><trkpt lat="46.1467889" lon="9.4654198"><ele>204.57142857142856</ele><time>2026-04-07T07:49:54.684Z</time></trkpt><trkpt lat="46.1467904" lon="9.4655128"><ele>204.42857142857144</ele><time>2026-04-07T07:49:55.684Z</time></trkpt><trkpt lat="46.1467887" lon="9.4656088"><ele>204.28571428571428</ele><time>2026-04-07T07:49:56.685Z</time></trkpt><trkpt lat="46.1467896" lon="9.4657055"><ele>204.14285714285714</ele><time>2026-04-07T07:49:57.685Z</time></trkpt><trkpt lat="46.1468015" lon="9.4658028"><ele>204.0</ele><time>2026-04-07T07:49:58.685Z</time></trkpt><trkpt lat="46.1468214" lon="9.4658947"><ele>204.0</ele><time>2026-04-07T07:49:59.684Z</time></trkpt><trkpt lat="46.1468413" lon="9.465985"><ele>204.0</ele><time>2026-04-07T07:50:00.684Z</time></trkpt><trkpt lat="46.146855" lon="9.4660789"><ele>204.0</ele><time>2026-04-07T07:50:01.683Z</time></trkpt><trkpt lat="46.1468725" lon="9.4661701"><ele>204.0</ele><time>2026-04-07T07:50:02.685Z</time></trkpt><trkpt lat="46.1469127" lon="9.466339"><ele>204.0</ele><time>2026-04-07T07:50:04.684Z</time></trkpt><trkpt lat="46.1469297" lon="9.4664333"><ele>204.0</ele><time>2026-04-07T07:50:05.684Z</time></trkpt><trkpt lat="46.1469425" lon="9.466525"><ele>204.0</ele><time>2026-04-07T07:50:06.684Z</time></trkpt><trkpt lat="46.1469556" lon="9.466618"><ele>204.0</ele><time>2026-04-07T07:50:07.685Z</time></trkpt><trkpt lat="46.1469687" lon="9.4667123"><ele>204.0</ele><time>2026-04-07T07:50:08.683Z</time></trkpt><trkpt lat="46.1469811" lon="9.4668057"><ele>204.0</ele><time>2026-04-07T07:50:09.684Z</time></trkpt><trkpt lat="46.1469969" lon="9.4668963"><ele>204.0</ele><time>2026-04-07T07:50:10.685Z</time></trkpt><trkpt lat="46.1470167" lon="9.4669874"><ele>204.0</ele><time>2026-04-07T07:50:11.685Z</time></trkpt><trkpt lat="46.1470616" lon="9.4671369"><ele>204.0</ele><time>2026-04-07T07:50:13.684Z</time></trkpt><trkpt lat="46.1470887" lon="9.467291"><ele>204.0</ele><time>2026-04-07T07:50:15.685Z</time></trkpt><trkpt lat="46.1471224" lon="9.4674426"><ele>204.0</ele><time>2026-04-07T07:50:17.685Z</time></trkpt><trkpt lat="46.1471623" lon="9.4676031"><ele>204.0</ele><time>2026-04-07T07:50:19.684Z</time></trkpt><trkpt lat="46.1471989" lon="9.467765"><ele>204.0</ele><time>2026-04-07T07:50:21.684Z</time></trkpt><trkpt lat="46.1472349" lon="9.4679408"><ele>204.0</ele><time>2026-04-07T07:50:23.684Z</time></trkpt><trkpt lat="46.1472514" lon="9.4680328"><ele>204.0</ele><time>2026-04-07T07:50:24.686Z</time></trkpt><trkpt lat="46.1472961" lon="9.4682029"><ele>204.0</ele><time>2026-04-07T07:50:26.685Z</time></trkpt><trkpt lat="46.147318" lon="9.4682881"><ele>204.0</ele><time>2026-04-07T07:50:27.683Z</time></trkpt><trkpt lat="46.147362" lon="9.4684598"><ele>204.0</ele><time>2026-04-07T07:50:29.684Z</time></trkpt><trkpt lat="46.1474176" lon="9.4686085"><ele>204.0</ele><time>2026-04-07T07:50:31.684Z</time></trkpt><trkpt lat="46.1474693" lon="9.4687627"><ele>204.0</ele><time>2026-04-07T07:50:33.685Z</time></trkpt><trkpt lat="46.147483" lon="9.4689323"><ele>204.0</ele><time>2026-04-07T07:50:35.686Z</time></trkpt><trkpt lat="46.147439" lon="9.4690975"><ele>204.0</ele><time>2026-04-07T07:50:37.684Z</time></trkpt><trkpt lat="46.1473716" lon="9.4692333"><ele>204.0</ele><time>2026-04-07T07:50:39.684Z</time></trkpt><trkpt lat="46.1473126" lon="9.4693771"><ele>204.0</ele><time>2026-04-07T07:50:41.686Z</time></trkpt><trkpt lat="46.1472628" lon="9.4695161"><ele>204.0</ele><time>2026-04-07T07:50:43.685Z</time></trkpt><trkpt lat="46.1472339" lon="9.4696557"><ele>204.0</ele><time>2026-04-07T07:50:45.683Z</time></trkpt><trkpt lat="46.1471963" lon="9.4697842"><ele>204.0</ele><time>2026-04-07T07:50:47.683Z</time></trkpt><trkpt lat="46.1472139" lon="9.4699344"><ele>204.0</ele><time>2026-04-07T07:50:49.685Z</time></trkpt><trkpt lat="46.1472894" lon="9.4700278"><ele>204.0</ele><time>2026-04-07T07:50:51.685Z</time></trkpt><trkpt lat="46.1473798" lon="9.4700892"><ele>204.0</ele><time>2026-04-07T07:50:53.684Z</time></trkpt><trkpt lat="46.1474702" lon="9.470133"><ele>204.0</ele><time>2026-04-07T07:50:55.684Z</time></trkpt><trkpt lat="46.1475398" lon="9.4701899"><ele>204.0</ele><time>2026-04-07T07:50:57.685Z</time></trkpt><trkpt lat="46.147615" lon="9.4702595"><ele>204.16666666666666</ele><time>2026-04-07T07:50:59.683Z</time></trkpt><trkpt lat="46.1476764" lon="9.4703565"><ele>204.33333333333331</ele><time>2026-04-07T07:51:01.685Z</time></trkpt><trkpt lat="46.1477157" lon="9.4704768"><ele>204.5</ele><time>2026-04-07T07:51:03.684Z</time></trkpt><trkpt lat="46.1477451" lon="9.4705802"><ele>204.66666666666666</ele><time>2026-04-07T07:51:05.684Z</time></trkpt><trkpt lat="46.1477715" lon="9.4707207"><ele>204.83333333333331</ele><time>2026-04-07T07:51:07.683Z</time></trkpt><trkpt lat="46.1477997" lon="9.4708022"><ele>205.0</ele><time>2026-04-07T07:51:08.685Z</time></trkpt><trkpt lat="46.1478434" lon="9.4709481"><ele>205.2</ele><time>2026-04-07T07:51:10.683Z</time></trkpt><trkpt lat="46.1478954" lon="9.4710672"><ele>205.4</ele><time>2026-04-07T07:51:12.684Z</time></trkpt><trkpt lat="46.1479279" lon="9.4712071"><ele>205.60000000000002</ele><time>2026-04-07T07:51:14.686Z</time></trkpt><trkpt lat="46.1479186" lon="9.471375"><ele>205.8</ele><time>2026-04-07T07:51:16.685Z</time></trkpt><trkpt lat="46.1478865" lon="9.471533"><ele>206.0</ele><time>2026-04-07T07:51:18.686Z</time></trkpt><trkpt lat="46.1478733" lon="9.471687"><ele>206.0</ele><time>2026-04-07T07:51:20.685Z</time></trkpt><trkpt lat="46.1478451" lon="9.4718356"><ele>206.0</ele><time>2026-04-07T07:51:22.683Z</time></trkpt><trkpt lat="46.1478163" lon="9.4720055"><ele>206.0</ele><time>2026-04-07T07:51:24.684Z</time></trkpt><trkpt lat="46.1478072" lon="9.4721014"><ele>206.0</ele><time>2026-04-07T07:51:25.684Z</time></trkpt><trkpt lat="46.1477873" lon="9.4722739"><ele>206.0</ele><time>2026-04-07T07:51:27.684Z</time></trkpt><trkpt lat="46.1477849" lon="9.4723672"><ele>206.5</ele><time>2026-04-07T07:51:28.684Z</time></trkpt><trkpt lat="46.1477585" lon="9.4725219"><ele>207.0</ele><time>2026-04-07T07:51:30.684Z</time></trkpt><trkpt lat="46.1477355" lon="9.472684"><ele>207.5</ele><time>2026-04-07T07:51:32.684Z</time></trkpt><trkpt lat="46.1476999" lon="9.4728536"><ele>208.0</ele><time>2026-04-07T07:51:34.684Z</time></trkpt><trkpt lat="46.1476583" lon="9.4730077"><ele>208.4</ele><time>2026-04-07T07:51:36.684Z</time></trkpt><trkpt lat="46.1476215" lon="9.4731622"><ele>208.8</ele><time>2026-04-07T07:51:38.685Z</time></trkpt><trkpt lat="46.1475948" lon="9.4733097"><ele>209.2</ele><time>2026-04-07T07:51:40.683Z</time></trkpt><trkpt lat="46.147557" lon="9.4734387"><ele>209.6</ele><time>2026-04-07T07:51:42.683Z</time></trkpt><trkpt lat="46.1475225" lon="9.4735609"><ele>210.0</ele><time>2026-04-07T07:51:44.685Z</time></trkpt><trkpt lat="46.1474839" lon="9.4736947"><ele>210.5</ele><time>2026-04-07T07:51:46.684Z</time></trkpt><trkpt lat="46.1474461" lon="9.4738497"><ele>211.0</ele><time>2026-04-07T07:51:48.686Z</time></trkpt><trkpt lat="46.1473915" lon="9.4739936"><ele>211.5</ele><time>2026-04-07T07:51:50.683Z</time></trkpt><trkpt lat="46.1473511" lon="9.4741508"><ele>212.0</ele><time>2026-04-07T07:51:52.684Z</time></trkpt><trkpt lat="46.1473027" lon="9.4743206"><ele>212.0</ele><time>2026-04-07T07:51:54.685Z</time></trkpt><trkpt lat="46.1472506" lon="9.4744647"><ele>212.0</ele><time>2026-04-07T07:51:56.685Z</time></trkpt><trkpt lat="46.1472063" lon="9.4746282"><ele>212.0</ele><time>2026-04-07T07:51:58.685Z</time></trkpt><trkpt lat="46.1471519" lon="9.4747615"><ele>212.0</ele><time>2026-04-07T07:52:00.684Z</time></trkpt><trkpt lat="46.1471274" lon="9.4748484"><ele>212.0</ele><time>2026-04-07T07:52:01.683Z</time></trkpt><trkpt lat="46.1471047" lon="9.4749339"><ele>211.66666666666669</ele><time>2026-04-07T07:52:02.683Z</time></trkpt><trkpt lat="46.1470728" lon="9.4750852"><ele>211.33333333333334</ele><time>2026-04-07T07:52:04.685Z</time></trkpt><trkpt lat="46.1470302" lon="9.4752345"><ele>211.0</ele><time>2026-04-07T07:52:06.685Z</time></trkpt><trkpt lat="46.1470241" lon="9.4753355"><ele>210.66666666666669</ele><time>2026-04-07T07:52:08.685Z</time></trkpt><trkpt lat="46.1470339" lon="9.4754439"><ele>210.33333333333334</ele><time>2026-04-07T07:52:11.683Z</time></trkpt><trkpt lat="46.1470502" lon="9.4755523"><ele>210.0</ele><time>2026-04-07T07:52:13.685Z</time></trkpt><trkpt lat="46.1470748" lon="9.4756406"><ele>209.0</ele><time>2026-04-07T07:52:15.695Z</time></trkpt><trkpt lat="46.1470918" lon="9.4757894"><ele>208.0</ele><time>2026-04-07T07:52:17.686Z</time></trkpt><trkpt lat="46.1471269" lon="9.47589"><ele>207.0</ele><time>2026-04-07T07:52:19.615Z</time></trkpt><trkpt lat="46.1471466" lon="9.476051"><ele>206.0</ele><time>2026-04-07T07:52:21.685Z</time></trkpt><trkpt lat="46.1471709" lon="9.4762212"><ele>205.0</ele><time>2026-04-07T07:52:23.685Z</time></trkpt><trkpt lat="46.1471873" lon="9.4763777"><ele>205.0</ele><time>2026-04-07T07:52:25.684Z</time></trkpt><trkpt lat="46.1472012" lon="9.4765327"><ele>205.0</ele><time>2026-04-07T07:52:27.683Z</time></trkpt><trkpt lat="46.1472173" lon="9.4766889"><ele>205.0</ele><time>2026-04-07T07:52:29.683Z</time></trkpt><trkpt lat="46.1472366" lon="9.4768505"><ele>205.0</ele><time>2026-04-07T07:52:31.684Z</time></trkpt><trkpt lat="46.1472577" lon="9.4770142"><ele>205.0</ele><time>2026-04-07T07:52:33.684Z</time></trkpt><trkpt lat="46.1472789" lon="9.477174"><ele>205.6</ele><time>2026-04-07T07:52:35.685Z</time></trkpt><trkpt lat="46.1473096" lon="9.4773316"><ele>206.2</ele><time>2026-04-07T07:52:37.684Z</time></trkpt><trkpt lat="46.1473465" lon="9.4774929"><ele>206.8</ele><time>2026-04-07T07:52:39.685Z</time></trkpt><trkpt lat="46.1473612" lon="9.4776556"><ele>207.4</ele><time>2026-04-07T07:52:41.685Z</time></trkpt><trkpt lat="46.1473444" lon="9.4778036"><ele>208.0</ele><time>2026-04-07T07:52:43.685Z</time></trkpt><trkpt lat="46.147348" lon="9.4779452"><ele>207.8</ele><time>2026-04-07T07:52:45.686Z</time></trkpt><trkpt lat="46.147424" lon="9.4780329"><ele>207.60000000000002</ele><time>2026-04-07T07:52:47.685Z</time></trkpt><trkpt lat="46.1475183" lon="9.4780837"><ele>207.39999999999998</ele><time>2026-04-07T07:52:49.685Z</time></trkpt><trkpt lat="46.1476059" lon="9.478108"><ele>207.2</ele><time>2026-04-07T07:52:51.685Z</time></trkpt><trkpt lat="46.1477028" lon="9.4781111"><ele>207.0</ele><time>2026-04-07T07:52:54.683Z</time></trkpt><trkpt lat="46.147783" lon="9.4781465"><ele>207.0</ele><time>2026-04-07T07:52:56.685Z</time></trkpt><trkpt lat="46.1478518" lon="9.4781661"><ele>207.0</ele><time>2026-04-07T07:52:58.685Z</time></trkpt><trkpt lat="46.1479461" lon="9.4781912"><ele>207.0</ele><time>2026-04-07T07:53:00.685Z</time></trkpt><trkpt lat="46.1480924" lon="9.4782556"><ele>207.0</ele><time>2026-04-07T07:53:03.686Z</time></trkpt><trkpt lat="46.1481899" lon="9.4782878"><ele>207.0</ele><time>2026-04-07T07:53:05.685Z</time></trkpt><trkpt lat="46.1482944" lon="9.4783245"><ele>207.0</ele><time>2026-04-07T07:53:07.684Z</time></trkpt><trkpt lat="46.1483908" lon="9.4783697"><ele>207.0</ele><time>2026-04-07T07:53:09.684Z</time></trkpt><trkpt lat="46.1484718" lon="9.478452"><ele>207.0</ele><time>2026-04-07T07:53:11.685Z</time></trkpt><trkpt lat="46.148524" lon="9.4785598"><ele>207.0</ele><time>2026-04-07T07:53:13.685Z</time></trkpt><trkpt lat="46.1485668" lon="9.4786654"><ele>207.0</ele><time>2026-04-07T07:53:15.685Z</time></trkpt><trkpt lat="46.1486107" lon="9.4787859"><ele>206.6</ele><time>2026-04-07T07:53:17.684Z</time></trkpt><trkpt lat="46.1486531" lon="9.4789242"><ele>206.2</ele><time>2026-04-07T07:53:19.683Z</time></trkpt><trkpt lat="46.1486881" lon="9.4790799"><ele>205.8</ele><time>2026-04-07T07:53:21.685Z</time></trkpt><trkpt lat="46.1487375" lon="9.4792323"><ele>205.4</ele><time>2026-04-07T07:53:23.685Z</time></trkpt><trkpt lat="46.1487884" lon="9.4793799"><ele>205.0</ele><time>2026-04-07T07:53:25.683Z</time></trkpt><trkpt lat="46.1488223" lon="9.4795248"><ele>205.25</ele><time>2026-04-07T07:53:27.685Z</time></trkpt><trkpt lat="46.1488695" lon="9.4796622"><ele>205.5</ele><time>2026-04-07T07:53:29.685Z</time></trkpt><trkpt lat="46.1489174" lon="9.4798206"><ele>205.75</ele><time>2026-04-07T07:53:31.684Z</time></trkpt><trkpt lat="46.1489682" lon="9.479984"><ele>206.0</ele><time>2026-04-07T07:53:33.685Z</time></trkpt><trkpt lat="46.1490195" lon="9.4801474"><ele>205.75</ele><time>2026-04-07T07:53:35.685Z</time></trkpt><trkpt lat="46.1490712" lon="9.4803045"><ele>205.5</ele><time>2026-04-07T07:53:37.684Z</time></trkpt><trkpt lat="46.1491164" lon="9.4804553"><ele>205.25</ele><time>2026-04-07T07:53:39.684Z</time></trkpt><trkpt lat="46.1491664" lon="9.4806142"><ele>205.0</ele><time>2026-04-07T07:53:41.683Z</time></trkpt><trkpt lat="46.1492142" lon="9.4807711"><ele>205.5</ele><time>2026-04-07T07:53:43.685Z</time></trkpt><trkpt lat="46.1492666" lon="9.4809193"><ele>206.0</ele><time>2026-04-07T07:53:45.685Z</time></trkpt><trkpt lat="46.1493099" lon="9.4810598"><ele>206.5</ele><time>2026-04-07T07:53:47.684Z</time></trkpt><trkpt lat="46.1493605" lon="9.4812143"><ele>207.0</ele><time>2026-04-07T07:53:49.685Z</time></trkpt><trkpt lat="46.1493986" lon="9.4813663"><ele>207.0</ele><time>2026-04-07T07:53:51.685Z</time></trkpt><trkpt lat="46.1494486" lon="9.4815158"><ele>207.0</ele><time>2026-04-07T07:53:53.686Z</time></trkpt><trkpt lat="46.1494931" lon="9.4816754"><ele>207.0</ele><time>2026-04-07T07:53:55.685Z</time></trkpt><trkpt lat="46.1495325" lon="9.4818283"><ele>207.0</ele><time>2026-04-07T07:53:57.685Z</time></trkpt><trkpt lat="46.1495833" lon="9.4819957"><ele>207.0</ele><time>2026-04-07T07:53:59.685Z</time></trkpt><trkpt lat="46.1496109" lon="9.4820853"><ele>207.0</ele><time>2026-04-07T07:54:00.685Z</time></trkpt><trkpt lat="46.1496391" lon="9.482171"><ele>207.0</ele><time>2026-04-07T07:54:01.685Z</time></trkpt><trkpt lat="46.1496837" lon="9.482316"><ele>207.0</ele><time>2026-04-07T07:54:03.686Z</time></trkpt><trkpt lat="46.1497307" lon="9.4824746"><ele>207.0</ele><time>2026-04-07T07:54:05.685Z</time></trkpt><trkpt lat="46.1497774" lon="9.4826315"><ele>207.0</ele><time>2026-04-07T07:54:07.684Z</time></trkpt><trkpt lat="46.1498275" lon="9.482772"><ele>207.0</ele><time>2026-04-07T07:54:09.685Z</time></trkpt><trkpt lat="46.1498631" lon="9.4828788"><ele>207.0</ele><time>2026-04-07T07:54:11.686Z</time></trkpt><trkpt lat="46.1498903" lon="9.4829705"><ele>207.0</ele><time>2026-04-07T07:54:13.684Z</time></trkpt><trkpt lat="46.1499198" lon="9.4830763"><ele>207.0</ele><time>2026-04-07T07:54:15.685Z</time></trkpt><trkpt lat="46.1499537" lon="9.4831804"><ele>207.0</ele><time>2026-04-07T07:54:18.739Z</time></trkpt><trkpt lat="46.1499873" lon="9.4832721"><ele>207.0</ele><time>2026-04-07T07:54:19.684Z</time></trkpt><trkpt lat="46.1500382" lon="9.4834217"><ele>207.0</ele><time>2026-04-07T07:54:21.685Z</time></trkpt><trkpt lat="46.1500769" lon="9.4835553"><ele>207.0</ele><time>2026-04-07T07:54:23.686Z</time></trkpt><trkpt lat="46.1501243" lon="9.4836943"><ele>207.0</ele><time>2026-04-07T07:54:25.685Z</time></trkpt><trkpt lat="46.1501752" lon="9.4838389"><ele>207.0</ele><time>2026-04-07T07:54:27.685Z</time></trkpt><trkpt lat="46.1502204" lon="9.4839692"><ele>206.66666666666666</ele><time>2026-04-07T07:54:29.685Z</time></trkpt><trkpt lat="46.1502575" lon="9.4841089"><ele>206.33333333333331</ele><time>2026-04-07T07:54:31.685Z</time></trkpt><trkpt lat="46.1502847" lon="9.4842084"><ele>206.0</ele><time>2026-04-07T07:54:33.686Z</time></trkpt><trkpt lat="46.1503116" lon="9.484297"><ele>205.66666666666666</ele><time>2026-04-07T07:54:35.684Z</time></trkpt><trkpt lat="46.150333" lon="9.4843943"><ele>205.33333333333331</ele><time>2026-04-07T07:54:37.685Z</time></trkpt><trkpt lat="46.1503564" lon="9.4845115"><ele>205.0</ele><time>2026-04-07T07:54:39.686Z</time></trkpt><trkpt lat="46.1503757" lon="9.4846461"><ele>205.0</ele><time>2026-04-07T07:54:41.684Z</time></trkpt><trkpt lat="46.1503794" lon="9.4847962"><ele>205.0</ele><time>2026-04-07T07:54:43.685Z</time></trkpt><trkpt lat="46.1503803" lon="9.4849494"><ele>205.0</ele><time>2026-04-07T07:54:45.685Z</time></trkpt><trkpt lat="46.1503777" lon="9.4850877"><ele>205.0</ele><time>2026-04-07T07:54:47.686Z</time></trkpt><trkpt lat="46.1503774" lon="9.4852496"><ele>205.0</ele><time>2026-04-07T07:54:49.684Z</time></trkpt><trkpt lat="46.1503786" lon="9.485419"><ele>205.33333333333331</ele><time>2026-04-07T07:54:51.685Z</time></trkpt><trkpt lat="46.1503891" lon="9.4855965"><ele>205.66666666666666</ele><time>2026-04-07T07:54:53.685Z</time></trkpt><trkpt lat="46.1504011" lon="9.4856938"><ele>206.0</ele><time>2026-04-07T07:54:54.685Z</time></trkpt><trkpt lat="46.1504087" lon="9.4857952"><ele>206.33333333333331</ele><time>2026-04-07T07:54:55.685Z</time></trkpt><trkpt lat="46.150411" lon="9.4859062"><ele>206.66666666666666</ele><time>2026-04-07T07:54:56.685Z</time></trkpt><trkpt lat="46.1504118" lon="9.4860188"><ele>207.0</ele><time>2026-04-07T07:54:57.685Z</time></trkpt><trkpt lat="46.1504143" lon="9.48613"><ele>207.0</ele><time>2026-04-07T07:54:58.685Z</time></trkpt><trkpt lat="46.1504131" lon="9.4862606"><ele>207.0</ele><time>2026-04-07T07:54:59.686Z</time></trkpt><trkpt lat="46.1504082" lon="9.4863949"><ele>207.0</ele><time>2026-04-07T07:55:00.685Z</time></trkpt><trkpt lat="46.1503557" lon="9.4865441"><ele>207.0</ele><time>2026-04-07T07:55:02.685Z</time></trkpt><trkpt lat="46.1503091" lon="9.4866873"><ele>207.0</ele><time>2026-04-07T07:55:04.686Z</time></trkpt><trkpt lat="46.1502811" lon="9.4868347"><ele>206.83333333333334</ele><time>2026-04-07T07:55:07.685Z</time></trkpt><trkpt lat="46.1502705" lon="9.4869258"><ele>206.66666666666669</ele><time>2026-04-07T07:55:10.685Z</time></trkpt><trkpt lat="46.1502789" lon="9.4870267"><ele>206.5</ele><time>2026-04-07T07:55:33.685Z</time></trkpt><trkpt lat="46.1502747" lon="9.4871284"><ele>206.33333333333334</ele><time>2026-04-07T07:55:36.685Z</time></trkpt><trkpt lat="46.1502882" lon="9.4872431"><ele>206.16666666666669</ele><time>2026-04-07T07:55:40.771Z</time></trkpt><trkpt lat="46.1502756" lon="9.4873929"><ele>206.0</ele><time>2026-04-07T07:55:42.684Z</time></trkpt><trkpt lat="46.1502653" lon="9.487539"><ele>206.0</ele><time>2026-04-07T07:55:44.769Z</time></trkpt><trkpt lat="46.1502637" lon="9.4876751"><ele>206.0</ele><time>2026-04-07T07:55:46.778Z</time></trkpt><trkpt lat="46.1502648" lon="9.487813"><ele>206.0</ele><time>2026-04-07T07:55:48.685Z</time></trkpt><trkpt lat="46.150267" lon="9.4879574"><ele>206.0</ele><time>2026-04-07T07:55:50.686Z</time></trkpt><trkpt lat="46.1502784" lon="9.4880969"><ele>206.0</ele><time>2026-04-07T07:55:52.686Z</time></trkpt><trkpt lat="46.150293" lon="9.4882427"><ele>206.0</ele><time>2026-04-07T07:55:54.685Z</time></trkpt><trkpt lat="46.1503043" lon="9.4883967"><ele>206.0</ele><time>2026-04-07T07:55:56.684Z</time></trkpt><trkpt lat="46.1503219" lon="9.4885538"><ele>206.0</ele><time>2026-04-07T07:55:58.685Z</time></trkpt><trkpt lat="46.1503411" lon="9.4886992"><ele>206.0</ele><time>2026-04-07T07:56:00.686Z</time></trkpt><trkpt lat="46.1503637" lon="9.4888393"><ele>206.0</ele><time>2026-04-07T07:56:02.685Z</time></trkpt><trkpt lat="46.1503878" lon="9.4889932"><ele>206.0</ele><time>2026-04-07T07:56:04.686Z</time></trkpt><trkpt lat="46.1504116" lon="9.4891538"><ele>206.0</ele><time>2026-04-07T07:56:06.685Z</time></trkpt><trkpt lat="46.1504416" lon="9.4892957"><ele>206.0</ele><time>2026-04-07T07:56:08.685Z</time></trkpt><trkpt lat="46.1504717" lon="9.4894525"><ele>206.0</ele><time>2026-04-07T07:56:10.686Z</time></trkpt><trkpt lat="46.150507" lon="9.4895948"><ele>206.0</ele><time>2026-04-07T07:56:12.685Z</time></trkpt><trkpt lat="46.1505402" lon="9.4897379"><ele>206.0</ele><time>2026-04-07T07:56:14.685Z</time></trkpt><trkpt lat="46.1505736" lon="9.4898825"><ele>206.0</ele><time>2026-04-07T07:56:16.686Z</time></trkpt><trkpt lat="46.1506109" lon="9.4900224"><ele>206.0</ele><time>2026-04-07T07:56:18.685Z</time></trkpt><trkpt lat="46.1506475" lon="9.4901603"><ele>206.0</ele><time>2026-04-07T07:56:20.685Z</time></trkpt><trkpt lat="46.1506887" lon="9.4903101"><ele>206.0</ele><time>2026-04-07T07:56:22.685Z</time></trkpt><trkpt lat="46.1507212" lon="9.4904607"><ele>206.0</ele><time>2026-04-07T07:56:24.684Z</time></trkpt><trkpt lat="46.1507558" lon="9.4906123"><ele>206.0</ele><time>2026-04-07T07:56:26.686Z</time></trkpt><trkpt lat="46.150783" lon="9.490775"><ele>206.0</ele><time>2026-04-07T07:56:28.684Z</time></trkpt><trkpt lat="46.1508127" lon="9.4909226"><ele>206.0</ele><time>2026-04-07T07:56:30.686Z</time></trkpt><trkpt lat="46.1508568" lon="9.4910528"><ele>206.0</ele><time>2026-04-07T07:56:32.684Z</time></trkpt><trkpt lat="46.1508932" lon="9.491199"><ele>206.0</ele><time>2026-04-07T07:56:34.686Z</time></trkpt><trkpt lat="46.1509204" lon="9.4913483"><ele>206.0</ele><time>2026-04-07T07:56:36.686Z</time></trkpt><trkpt lat="46.1509538" lon="9.4915021"><ele>206.0</ele><time>2026-04-07T07:56:38.686Z</time></trkpt><trkpt lat="46.1509873" lon="9.4916502"><ele>206.0</ele><time>2026-04-07T07:56:40.686Z</time></trkpt><trkpt lat="46.1510256" lon="9.491796"><ele>206.0</ele><time>2026-04-07T07:56:42.684Z</time></trkpt><trkpt lat="46.1510658" lon="9.4919343"><ele>206.0</ele><time>2026-04-07T07:56:44.687Z</time></trkpt><trkpt lat="46.1511016" lon="9.4920788"><ele>206.0</ele><time>2026-04-07T07:56:46.684Z</time></trkpt><trkpt lat="46.1511316" lon="9.4922394"><ele>206.0</ele><time>2026-04-07T07:56:48.686Z</time></trkpt><trkpt lat="46.1511628" lon="9.4924002"><ele>206.0</ele><time>2026-04-07T07:56:50.685Z</time></trkpt><trkpt lat="46.1511994" lon="9.492558"><ele>206.0</ele><time>2026-04-07T07:56:52.685Z</time></trkpt><trkpt lat="46.1512358" lon="9.4927192"><ele>206.0</ele><time>2026-04-07T07:56:54.685Z</time></trkpt><trkpt lat="46.1512591" lon="9.4928813"><ele>206.0</ele><time>2026-04-07T07:56:56.684Z</time></trkpt><trkpt lat="46.1512808" lon="9.4930381"><ele>206.0</ele><time>2026-04-07T07:56:58.685Z</time></trkpt><trkpt lat="46.1512965" lon="9.4932053"><ele>206.0</ele><time>2026-04-07T07:57:00.686Z</time></trkpt><trkpt lat="46.151317" lon="9.4933682"><ele>206.0</ele><time>2026-04-07T07:57:02.685Z</time></trkpt><trkpt lat="46.1513318" lon="9.4935412"><ele>206.0</ele><time>2026-04-07T07:57:04.685Z</time></trkpt><trkpt lat="46.1513433" lon="9.493704"><ele>206.0</ele><time>2026-04-07T07:57:06.684Z</time></trkpt><trkpt lat="46.1513489" lon="9.4938686"><ele>206.0</ele><time>2026-04-07T07:57:08.685Z</time></trkpt><trkpt lat="46.1513532" lon="9.4940331"><ele>206.0</ele><time>2026-04-07T07:57:10.687Z</time></trkpt><trkpt lat="46.1513481" lon="9.4942059"><ele>206.0</ele><time>2026-04-07T07:57:12.685Z</time></trkpt><trkpt lat="46.1513468" lon="9.494297"><ele>206.0</ele><time>2026-04-07T07:57:13.685Z</time></trkpt><trkpt lat="46.1513375" lon="9.4944657"><ele>206.0</ele><time>2026-04-07T07:57:15.686Z</time></trkpt><trkpt lat="46.1513272" lon="9.494632"><ele>206.25</ele><time>2026-04-07T07:57:17.685Z</time></trkpt><trkpt lat="46.1513105" lon="9.4947985"><ele>206.5</ele><time>2026-04-07T07:57:19.686Z</time></trkpt><trkpt lat="46.1512844" lon="9.4949605"><ele>206.75</ele><time>2026-04-07T07:57:21.685Z</time></trkpt><trkpt lat="46.1512603" lon="9.4951195"><ele>207.0</ele><time>2026-04-07T07:57:23.687Z</time></trkpt><trkpt lat="46.151236" lon="9.4952779"><ele>207.2</ele><time>2026-04-07T07:57:25.684Z</time></trkpt><trkpt lat="46.1512033" lon="9.4954394"><ele>207.39999999999998</ele><time>2026-04-07T07:57:27.685Z</time></trkpt><trkpt lat="46.1511736" lon="9.4955879"><ele>207.60000000000002</ele><time>2026-04-07T07:57:29.687Z</time></trkpt><trkpt lat="46.1511443" lon="9.4957331"><ele>207.8</ele><time>2026-04-07T07:57:31.686Z</time></trkpt><trkpt lat="46.1511111" lon="9.4958782"><ele>208.0</ele><time>2026-04-07T07:57:33.685Z</time></trkpt><trkpt lat="46.1510643" lon="9.4960283"><ele>208.0</ele><time>2026-04-07T07:57:35.686Z</time></trkpt><trkpt lat="46.1510168" lon="9.4961766"><ele>208.0</ele><time>2026-04-07T07:57:37.685Z</time></trkpt><trkpt lat="46.1509666" lon="9.4963214"><ele>208.0</ele><time>2026-04-07T07:57:39.687Z</time></trkpt><trkpt lat="46.1509153" lon="9.4964634"><ele>208.0</ele><time>2026-04-07T07:57:41.685Z</time></trkpt><trkpt lat="46.1508562" lon="9.4966069"><ele>208.0</ele><time>2026-04-07T07:57:43.685Z</time></trkpt><trkpt lat="46.1507955" lon="9.496751"><ele>208.0</ele><time>2026-04-07T07:57:45.686Z</time></trkpt><trkpt lat="46.1507321" lon="9.4969005"><ele>208.0</ele><time>2026-04-07T07:57:47.686Z</time></trkpt><trkpt lat="46.1506588" lon="9.4970418"><ele>208.0</ele><time>2026-04-07T07:57:49.685Z</time></trkpt><trkpt lat="46.1505843" lon="9.4971739"><ele>207.5</ele><time>2026-04-07T07:57:51.686Z</time></trkpt><trkpt lat="46.15051" lon="9.497307"><ele>207.0</ele><time>2026-04-07T07:57:53.686Z</time></trkpt><trkpt lat="46.150441" lon="9.4974327"><ele>206.5</ele><time>2026-04-07T07:57:55.686Z</time></trkpt><trkpt lat="46.1503714" lon="9.4975638"><ele>206.0</ele><time>2026-04-07T07:57:57.686Z</time></trkpt><trkpt lat="46.1502996" lon="9.4976856"><ele>206.0</ele><time>2026-04-07T07:57:59.686Z</time></trkpt><trkpt lat="46.1502305" lon="9.4978185"><ele>206.0</ele><time>2026-04-07T07:58:01.686Z</time></trkpt><trkpt lat="46.1501575" lon="9.4979542"><ele>206.0</ele><time>2026-04-07T07:58:03.686Z</time></trkpt><trkpt lat="46.1500864" lon="9.4980768"><ele>206.0</ele><time>2026-04-07T07:58:05.686Z</time></trkpt><trkpt lat="46.150015" lon="9.4982098"><ele>205.75</ele><time>2026-04-07T07:58:07.684Z</time></trkpt><trkpt lat="46.1499461" lon="9.4983396"><ele>205.5</ele><time>2026-04-07T07:58:09.686Z</time></trkpt><trkpt lat="46.1498674" lon="9.4984464"><ele>205.25</ele><time>2026-04-07T07:58:11.687Z</time></trkpt><trkpt lat="46.1497869" lon="9.4985677"><ele>205.0</ele><time>2026-04-07T07:58:13.686Z</time></trkpt><trkpt lat="46.1497094" lon="9.4986907"><ele>205.5</ele><time>2026-04-07T07:58:15.685Z</time></trkpt><trkpt lat="46.1496396" lon="9.4988203"><ele>206.0</ele><time>2026-04-07T07:58:17.685Z</time></trkpt><trkpt lat="46.1495699" lon="9.4989551"><ele>206.5</ele><time>2026-04-07T07:58:19.686Z</time></trkpt><trkpt lat="46.1494925" lon="9.4990855"><ele>207.0</ele><time>2026-04-07T07:58:21.685Z</time></trkpt><trkpt lat="46.1494137" lon="9.4992145"><ele>207.0</ele><time>2026-04-07T07:58:23.686Z</time></trkpt><trkpt lat="46.1493391" lon="9.4993503"><ele>207.0</ele><time>2026-04-07T07:58:25.686Z</time></trkpt><trkpt lat="46.1492606" lon="9.4994766"><ele>207.0</ele><time>2026-04-07T07:58:27.685Z</time></trkpt><trkpt lat="46.1491871" lon="9.4996092"><ele>207.0</ele><time>2026-04-07T07:58:29.685Z</time></trkpt><trkpt lat="46.1491141" lon="9.499741"><ele>206.8</ele><time>2026-04-07T07:58:31.686Z</time></trkpt><trkpt lat="46.149044" lon="9.499874"><ele>206.6</ele><time>2026-04-07T07:58:33.685Z</time></trkpt><trkpt lat="46.148968" lon="9.5000011"><ele>206.4</ele><time>2026-04-07T07:58:35.686Z</time></trkpt><trkpt lat="46.1489227" lon="9.500071"><ele>206.20000000000002</ele><time>2026-04-07T07:58:36.686Z</time></trkpt><trkpt lat="46.14885" lon="9.5001962"><ele>206.0</ele><time>2026-04-07T07:58:38.686Z</time></trkpt><trkpt lat="46.1487821" lon="9.5003067"><ele>207.20000000000002</ele><time>2026-04-07T07:58:40.684Z</time></trkpt><trkpt lat="46.1487128" lon="9.5004237"><ele>208.4</ele><time>2026-04-07T07:58:42.685Z</time></trkpt><trkpt lat="46.1486431" lon="9.5005337"><ele>209.6</ele><time>2026-04-07T07:58:44.686Z</time></trkpt><trkpt lat="46.1485711" lon="9.5006611"><ele>210.8</ele><time>2026-04-07T07:58:46.686Z</time></trkpt><trkpt lat="46.1484965" lon="9.5007969"><ele>212.0</ele><time>2026-04-07T07:58:48.685Z</time></trkpt><trkpt lat="46.148428" lon="9.5009186"><ele>212.0</ele><time>2026-04-07T07:58:50.686Z</time></trkpt><trkpt lat="46.1483528" lon="9.5010396"><ele>212.0</ele><time>2026-04-07T07:58:52.686Z</time></trkpt><trkpt lat="46.1482864" lon="9.5011636"><ele>212.0</ele><time>2026-04-07T07:58:54.687Z</time></trkpt><trkpt lat="46.1482159" lon="9.5012869"><ele>212.0</ele><time>2026-04-07T07:58:56.686Z</time></trkpt><trkpt lat="46.1481394" lon="9.5014203"><ele>211.5</ele><time>2026-04-07T07:58:58.685Z</time></trkpt><trkpt lat="46.1480719" lon="9.5015453"><ele>211.0</ele><time>2026-04-07T07:59:00.686Z</time></trkpt><trkpt lat="46.1479994" lon="9.5016725"><ele>210.5</ele><time>2026-04-07T07:59:02.685Z</time></trkpt><trkpt lat="46.1479259" lon="9.5017999"><ele>210.0</ele><time>2026-04-07T07:59:04.686Z</time></trkpt><trkpt lat="46.1478523" lon="9.501933"><ele>210.0</ele><time>2026-04-07T07:59:06.686Z</time></trkpt><trkpt lat="46.1477815" lon="9.5020541"><ele>210.0</ele><time>2026-04-07T07:59:08.687Z</time></trkpt><trkpt lat="46.1477055" lon="9.5021819"><ele>210.0</ele><time>2026-04-07T07:59:10.686Z</time></trkpt><trkpt lat="46.1476307" lon="9.5023171"><ele>210.0</ele><time>2026-04-07T07:59:12.687Z</time></trkpt><trkpt lat="46.1475509" lon="9.5024528"><ele>209.25</ele><time>2026-04-07T07:59:14.687Z</time></trkpt><trkpt lat="46.1474744" lon="9.5025845"><ele>208.5</ele><time>2026-04-07T07:59:16.686Z</time></trkpt><trkpt lat="46.1473974" lon="9.5027165"><ele>207.75</ele><time>2026-04-07T07:59:18.686Z</time></trkpt><trkpt lat="46.1473247" lon="9.5028517"><ele>207.0</ele><time>2026-04-07T07:59:20.686Z</time></trkpt><trkpt lat="46.1472546" lon="9.5029823"><ele>206.5</ele><time>2026-04-07T07:59:22.686Z</time></trkpt><trkpt lat="46.1471747" lon="9.5031177"><ele>206.0</ele><time>2026-04-07T07:59:24.686Z</time></trkpt><trkpt lat="46.1470997" lon="9.503241"><ele>205.5</ele><time>2026-04-07T07:59:26.685Z</time></trkpt><trkpt lat="46.1470282" lon="9.5033616"><ele>205.0</ele><time>2026-04-07T07:59:28.686Z</time></trkpt><trkpt lat="46.1469553" lon="9.5034893"><ele>205.0</ele><time>2026-04-07T07:59:30.686Z</time></trkpt><trkpt lat="46.1468789" lon="9.5036195"><ele>205.0</ele><time>2026-04-07T07:59:32.685Z</time></trkpt><trkpt lat="46.1468048" lon="9.50374"><ele>205.0</ele><time>2026-04-07T07:59:34.685Z</time></trkpt><trkpt lat="46.1467315" lon="9.5038706"><ele>205.0</ele><time>2026-04-07T07:59:36.687Z</time></trkpt><trkpt lat="46.1466586" lon="9.5040016"><ele>204.75</ele><time>2026-04-07T07:59:38.686Z</time></trkpt><trkpt lat="46.1465777" lon="9.5041347"><ele>204.5</ele><time>2026-04-07T07:59:40.686Z</time></trkpt><trkpt lat="46.1465058" lon="9.5042637"><ele>204.25</ele><time>2026-04-07T07:59:42.686Z</time></trkpt><trkpt lat="46.1464285" lon="9.504399"><ele>204.0</ele><time>2026-04-07T07:59:44.685Z</time></trkpt><trkpt lat="46.1463427" lon="9.5045309"><ele>204.5</ele><time>2026-04-07T07:59:46.687Z</time></trkpt><trkpt lat="46.1462655" lon="9.5046637"><ele>205.0</ele><time>2026-04-07T07:59:48.685Z</time></trkpt><trkpt lat="46.1461963" lon="9.5047897"><ele>205.5</ele><time>2026-04-07T07:59:50.687Z</time></trkpt><trkpt lat="46.1461199" lon="9.5049209"><ele>206.0</ele><time>2026-04-07T07:59:52.686Z</time></trkpt><trkpt lat="46.1460511" lon="9.505049"><ele>206.0</ele><time>2026-04-07T07:59:54.686Z</time></trkpt><trkpt lat="46.1459809" lon="9.5051809"><ele>206.0</ele><time>2026-04-07T07:59:56.687Z</time></trkpt><trkpt lat="46.145939" lon="9.5052511"><ele>206.0</ele><time>2026-04-07T07:59:57.687Z</time></trkpt><trkpt lat="46.1458648" lon="9.5053834"><ele>206.0</ele><time>2026-04-07T07:59:59.685Z</time></trkpt><trkpt lat="46.1457938" lon="9.5054991"><ele>206.0</ele><time>2026-04-07T08:00:01.685Z</time></trkpt><trkpt lat="46.1457318" lon="9.5056249"><ele>206.75</ele><time>2026-04-07T08:00:03.686Z</time></trkpt><trkpt lat="46.1456649" lon="9.5057499"><ele>207.5</ele><time>2026-04-07T08:00:05.687Z</time></trkpt><trkpt lat="46.1455928" lon="9.5058768"><ele>208.25</ele><time>2026-04-07T08:00:07.686Z</time></trkpt><trkpt lat="46.145516" lon="9.5060083"><ele>209.0</ele><time>2026-04-07T08:00:09.687Z</time></trkpt><trkpt lat="46.1454429" lon="9.5061391"><ele>209.25</ele><time>2026-04-07T08:00:11.686Z</time></trkpt><trkpt lat="46.1453633" lon="9.5062697"><ele>209.5</ele><time>2026-04-07T08:00:13.686Z</time></trkpt><trkpt lat="46.1452865" lon="9.5064064"><ele>209.75</ele><time>2026-04-07T08:00:15.686Z</time></trkpt><trkpt lat="46.1452126" lon="9.5065419"><ele>210.0</ele><time>2026-04-07T08:00:17.686Z</time></trkpt><trkpt lat="46.1451358" lon="9.5066686"><ele>210.0</ele><time>2026-04-07T08:00:19.686Z</time></trkpt><trkpt lat="46.1450914" lon="9.506735"><ele>210.0</ele><time>2026-04-07T08:00:20.686Z</time></trkpt><trkpt lat="46.145017" lon="9.5068675"><ele>210.0</ele><time>2026-04-07T08:00:22.686Z</time></trkpt><trkpt lat="46.1449413" lon="9.5069957"><ele>210.0</ele><time>2026-04-07T08:00:24.686Z</time></trkpt><trkpt lat="46.1448784" lon="9.5071129"><ele>210.0</ele><time>2026-04-07T08:00:26.686Z</time></trkpt><trkpt lat="46.1448106" lon="9.5072288"><ele>209.25</ele><time>2026-04-07T08:00:28.686Z</time></trkpt><trkpt lat="46.1447386" lon="9.5073531"><ele>208.5</ele><time>2026-04-07T08:00:30.686Z</time></trkpt><trkpt lat="46.1446638" lon="9.5074875"><ele>207.75</ele><time>2026-04-07T08:00:32.687Z</time></trkpt><trkpt lat="46.1445933" lon="9.50761"><ele>207.0</ele><time>2026-04-07T08:00:34.685Z</time></trkpt><trkpt lat="46.1445185" lon="9.5077417"><ele>207.0</ele><time>2026-04-07T08:00:36.685Z</time></trkpt><trkpt lat="46.1444436" lon="9.5078738"><ele>207.0</ele><time>2026-04-07T08:00:38.687Z</time></trkpt><trkpt lat="46.1443711" lon="9.5080066"><ele>207.0</ele><time>2026-04-07T08:00:40.687Z</time></trkpt><trkpt lat="46.1443004" lon="9.5081358"><ele>207.0</ele><time>2026-04-07T08:00:42.687Z</time></trkpt><trkpt lat="46.1442192" lon="9.5082653"><ele>207.0</ele><time>2026-04-07T08:00:44.686Z</time></trkpt><trkpt lat="46.1441418" lon="9.5083942"><ele>207.0</ele><time>2026-04-07T08:00:46.686Z</time></trkpt><trkpt lat="46.1440691" lon="9.5085272"><ele>207.0</ele><time>2026-04-07T08:00:48.686Z</time></trkpt><trkpt lat="46.1439983" lon="9.508658"><ele>207.0</ele><time>2026-04-07T08:00:50.686Z</time></trkpt><trkpt lat="46.143919" lon="9.5087915"><ele>207.25</ele><time>2026-04-07T08:00:52.685Z</time></trkpt><trkpt lat="46.1438484" lon="9.5089271"><ele>207.5</ele><time>2026-04-07T08:00:54.686Z</time></trkpt><trkpt lat="46.1437705" lon="9.5090504"><ele>207.75</ele><time>2026-04-07T08:00:56.685Z</time></trkpt><trkpt lat="46.1436937" lon="9.5091796"><ele>208.0</ele><time>2026-04-07T08:00:58.686Z</time></trkpt><trkpt lat="46.1436165" lon="9.5093146"><ele>208.0</ele><time>2026-04-07T08:01:00.686Z</time></trkpt><trkpt lat="46.1435481" lon="9.5094451"><ele>208.0</ele><time>2026-04-07T08:01:02.686Z</time></trkpt><trkpt lat="46.1434831" lon="9.5095745"><ele>208.0</ele><time>2026-04-07T08:01:04.687Z</time></trkpt><trkpt lat="46.1434154" lon="9.5097142"><ele>208.0</ele><time>2026-04-07T08:01:06.687Z</time></trkpt><trkpt lat="46.143346" lon="9.5098529"><ele>208.0</ele><time>2026-04-07T08:01:08.685Z</time></trkpt><trkpt lat="46.1432699" lon="9.5099843"><ele>208.0</ele><time>2026-04-07T08:01:10.686Z</time></trkpt><trkpt lat="46.1431943" lon="9.5101259"><ele>208.0</ele><time>2026-04-07T08:01:12.687Z</time></trkpt><trkpt lat="46.1431552" lon="9.5102006"><ele>208.0</ele><time>2026-04-07T08:01:13.686Z</time></trkpt><trkpt lat="46.1430792" lon="9.510337"><ele>208.0</ele><time>2026-04-07T08:01:15.685Z</time></trkpt><trkpt lat="46.1430101" lon="9.5104569"><ele>208.0</ele><time>2026-04-07T08:01:17.685Z</time></trkpt><trkpt lat="46.1429487" lon="9.5105922"><ele>208.0</ele><time>2026-04-07T08:01:19.686Z</time></trkpt><trkpt lat="46.1428889" lon="9.5107325"><ele>208.0</ele><time>2026-04-07T08:01:21.686Z</time></trkpt><trkpt lat="46.1428274" lon="9.5108612"><ele>208.0</ele><time>2026-04-07T08:01:23.687Z</time></trkpt><trkpt lat="46.1427581" lon="9.5109957"><ele>208.0</ele><time>2026-04-07T08:01:25.687Z</time></trkpt><trkpt lat="46.142687" lon="9.5111263"><ele>208.0</ele><time>2026-04-07T08:01:27.686Z</time></trkpt><trkpt lat="46.1426175" lon="9.5112385"><ele>208.0</ele><time>2026-04-07T08:01:29.687Z</time></trkpt><trkpt lat="46.1425486" lon="9.5113837"><ele>208.0</ele><time>2026-04-07T08:01:31.685Z</time></trkpt><trkpt lat="46.1424803" lon="9.511524"><ele>208.0</ele><time>2026-04-07T08:01:33.687Z</time></trkpt><trkpt lat="46.1424084" lon="9.5116638"><ele>208.0</ele><time>2026-04-07T08:01:35.685Z</time></trkpt><trkpt lat="46.1423348" lon="9.5118091"><ele>208.0</ele><time>2026-04-07T08:01:37.686Z</time></trkpt><trkpt lat="46.1422647" lon="9.5119427"><ele>208.0</ele><time>2026-04-07T08:01:39.686Z</time></trkpt><trkpt lat="46.1421969" lon="9.5120783"><ele>208.0</ele><time>2026-04-07T08:01:41.687Z</time></trkpt><trkpt lat="46.1421406" lon="9.5122052"><ele>208.0</ele><time>2026-04-07T08:01:43.687Z</time></trkpt><trkpt lat="46.1420753" lon="9.5123341"><ele>208.0</ele><time>2026-04-07T08:01:45.686Z</time></trkpt><trkpt lat="46.142005" lon="9.5124608"><ele>208.0</ele><time>2026-04-07T08:01:47.686Z</time></trkpt><trkpt lat="46.141939" lon="9.5125863"><ele>208.0</ele><time>2026-04-07T08:01:49.687Z</time></trkpt><trkpt lat="46.14187" lon="9.5127197"><ele>208.0</ele><time>2026-04-07T08:01:51.685Z</time></trkpt><trkpt lat="46.141808" lon="9.5128505"><ele>208.0</ele><time>2026-04-07T08:01:53.686Z</time></trkpt><trkpt lat="46.1417379" lon="9.5129762"><ele>208.0</ele><time>2026-04-07T08:01:55.686Z</time></trkpt><trkpt lat="46.1416703" lon="9.5131053"><ele>208.0</ele><time>2026-04-07T08:01:57.686Z</time></trkpt><trkpt lat="46.1415981" lon="9.5132494"><ele>208.0</ele><time>2026-04-07T08:01:59.687Z</time></trkpt><trkpt lat="46.1415315" lon="9.5133816"><ele>208.0</ele><time>2026-04-07T08:02:01.687Z</time></trkpt><trkpt lat="46.1414636" lon="9.5135257"><ele>208.0</ele><time>2026-04-07T08:02:03.685Z</time></trkpt><trkpt lat="46.1413925" lon="9.5136594"><ele>208.0</ele><time>2026-04-07T08:02:05.685Z</time></trkpt><trkpt lat="46.1413535" lon="9.5137329"><ele>208.0</ele><time>2026-04-07T08:02:06.686Z</time></trkpt><trkpt lat="46.1412775" lon="9.5138743"><ele>208.5</ele><time>2026-04-07T08:02:08.686Z</time></trkpt><trkpt lat="46.1412097" lon="9.5140138"><ele>209.0</ele><time>2026-04-07T08:02:10.688Z</time></trkpt><trkpt lat="46.1411496" lon="9.5141591"><ele>209.5</ele><time>2026-04-07T08:02:12.686Z</time></trkpt><trkpt lat="46.141082" lon="9.5143078"><ele>210.0</ele><time>2026-04-07T08:02:14.685Z</time></trkpt><trkpt lat="46.1410217" lon="9.5144578"><ele>209.8</ele><time>2026-04-07T08:02:16.686Z</time></trkpt><trkpt lat="46.1409654" lon="9.5146062"><ele>209.6</ele><time>2026-04-07T08:02:18.687Z</time></trkpt><trkpt lat="46.1409109" lon="9.514746"><ele>209.39999999999998</ele><time>2026-04-07T08:02:20.686Z</time></trkpt><trkpt lat="46.1408611" lon="9.5148568"><ele>209.2</ele><time>2026-04-07T08:02:22.686Z</time></trkpt><trkpt lat="46.1408012" lon="9.5149982"><ele>209.0</ele><time>2026-04-07T08:02:24.685Z</time></trkpt><trkpt lat="46.1407425" lon="9.5151542"><ele>209.2</ele><time>2026-04-07T08:02:26.686Z</time></trkpt><trkpt lat="46.1407152" lon="9.5152365"><ele>209.39999999999998</ele><time>2026-04-07T08:02:27.686Z</time></trkpt><trkpt lat="46.1406805" lon="9.5153181"><ele>209.6</ele><time>2026-04-07T08:02:28.686Z</time></trkpt><trkpt lat="46.1406196" lon="9.515459"><ele>209.8</ele><time>2026-04-07T08:02:30.686Z</time></trkpt><trkpt lat="46.1405619" lon="9.5156061"><ele>210.0</ele><time>2026-04-07T08:02:32.686Z</time></trkpt><trkpt lat="46.1405145" lon="9.5157506"><ele>210.0</ele><time>2026-04-07T08:02:34.686Z</time></trkpt><trkpt lat="46.1404621" lon="9.5158906"><ele>210.0</ele><time>2026-04-07T08:02:36.687Z</time></trkpt><trkpt lat="46.1404114" lon="9.5160397"><ele>210.0</ele><time>2026-04-07T08:02:38.686Z</time></trkpt><trkpt lat="46.1403625" lon="9.5161836"><ele>210.0</ele><time>2026-04-07T08:02:40.687Z</time></trkpt><trkpt lat="46.1403188" lon="9.5163199"><ele>210.0</ele><time>2026-04-07T08:02:42.687Z</time></trkpt><trkpt lat="46.1402806" lon="9.516442"><ele>210.0</ele><time>2026-04-07T08:02:44.687Z</time></trkpt><trkpt lat="46.1402295" lon="9.5165793"><ele>210.0</ele><time>2026-04-07T08:02:46.687Z</time></trkpt><trkpt lat="46.1401886" lon="9.5167237"><ele>210.0</ele><time>2026-04-07T08:02:48.685Z</time></trkpt><trkpt lat="46.1401476" lon="9.5168853"><ele>210.0</ele><time>2026-04-07T08:02:50.685Z</time></trkpt><trkpt lat="46.1400945" lon="9.5170348"><ele>210.0</ele><time>2026-04-07T08:02:52.687Z</time></trkpt><trkpt lat="46.1400393" lon="9.5171832"><ele>210.0</ele><time>2026-04-07T08:02:54.686Z</time></trkpt><trkpt lat="46.1399966" lon="9.5173453"><ele>210.0</ele><time>2026-04-07T08:02:56.687Z</time></trkpt><trkpt lat="46.1399507" lon="9.517515"><ele>210.0</ele><time>2026-04-07T08:02:58.686Z</time></trkpt><trkpt lat="46.1399114" lon="9.5176693"><ele>209.8</ele><time>2026-04-07T08:03:00.687Z</time></trkpt><trkpt lat="46.1398628" lon="9.5178204"><ele>209.6</ele><time>2026-04-07T08:03:02.686Z</time></trkpt><trkpt lat="46.1398087" lon="9.517985"><ele>209.39999999999998</ele><time>2026-04-07T08:03:04.687Z</time></trkpt><trkpt lat="46.1397837" lon="9.5180703"><ele>209.2</ele><time>2026-04-07T08:03:05.686Z</time></trkpt><trkpt lat="46.1397432" lon="9.5182391"><ele>209.0</ele><time>2026-04-07T08:03:07.687Z</time></trkpt><trkpt lat="46.1397012" lon="9.5183973"><ele>209.39999999999998</ele><time>2026-04-07T08:03:09.687Z</time></trkpt><trkpt lat="46.1396565" lon="9.5185608"><ele>209.8</ele><time>2026-04-07T08:03:11.685Z</time></trkpt><trkpt lat="46.1396149" lon="9.5187192"><ele>210.2</ele><time>2026-04-07T08:03:13.686Z</time></trkpt><trkpt lat="46.1395896" lon="9.5188035"><ele>210.60000000000002</ele><time>2026-04-07T08:03:14.687Z</time></trkpt><trkpt lat="46.1395635" lon="9.518887"><ele>211.0</ele><time>2026-04-07T08:03:15.686Z</time></trkpt><trkpt lat="46.1395254" lon="9.5190365"><ele>211.0</ele><time>2026-04-07T08:03:17.687Z</time></trkpt><trkpt lat="46.1394904" lon="9.5191781"><ele>211.0</ele><time>2026-04-07T08:03:19.686Z</time></trkpt><trkpt lat="46.1394504" lon="9.5193183"><ele>211.0</ele><time>2026-04-07T08:03:21.686Z</time></trkpt><trkpt lat="46.1394059" lon="9.5194661"><ele>211.0</ele><time>2026-04-07T08:03:23.687Z</time></trkpt><trkpt lat="46.1393601" lon="9.5196096"><ele>211.0</ele><time>2026-04-07T08:03:25.686Z</time></trkpt><trkpt lat="46.1393161" lon="9.5197527"><ele>210.75</ele><time>2026-04-07T08:03:27.688Z</time></trkpt><trkpt lat="46.1392533" lon="9.5199759"><ele>210.5</ele><time>2026-04-07T08:03:30.687Z</time></trkpt><trkpt lat="46.139202" lon="9.5201146"><ele>210.25</ele><time>2026-04-07T08:03:32.685Z</time></trkpt><trkpt lat="46.139156" lon="9.5202582"><ele>210.0</ele><time>2026-04-07T08:03:34.686Z</time></trkpt><trkpt lat="46.1391177" lon="9.5203945"><ele>210.0</ele><time>2026-04-07T08:03:36.686Z</time></trkpt><trkpt lat="46.1390672" lon="9.5205526"><ele>210.0</ele><time>2026-04-07T08:03:38.686Z</time></trkpt><trkpt lat="46.1390269" lon="9.5207003"><ele>210.0</ele><time>2026-04-07T08:03:40.686Z</time></trkpt><trkpt lat="46.1389795" lon="9.5208614"><ele>210.0</ele><time>2026-04-07T08:03:42.687Z</time></trkpt><trkpt lat="46.1389335" lon="9.5210147"><ele>210.0</ele><time>2026-04-07T08:03:44.687Z</time></trkpt><trkpt lat="46.1388914" lon="9.5211581"><ele>210.0</ele><time>2026-04-07T08:03:46.686Z</time></trkpt><trkpt lat="46.1388523" lon="9.5213081"><ele>210.0</ele><time>2026-04-07T08:03:48.688Z</time></trkpt><trkpt lat="46.1388071" lon="9.5214681"><ele>210.0</ele><time>2026-04-07T08:03:50.687Z</time></trkpt><trkpt lat="46.1387628" lon="9.5216324"><ele>210.0</ele><time>2026-04-07T08:03:52.688Z</time></trkpt><trkpt lat="46.1387102" lon="9.5218633"><ele>210.0</ele><time>2026-04-07T08:03:55.687Z</time></trkpt><trkpt lat="46.1386671" lon="9.5220226"><ele>210.0</ele><time>2026-04-07T08:03:57.687Z</time></trkpt><trkpt lat="46.1386273" lon="9.522184"><ele>210.0</ele><time>2026-04-07T08:03:59.686Z</time></trkpt><trkpt lat="46.1385983" lon="9.522348"><ele>210.25</ele><time>2026-04-07T08:04:01.687Z</time></trkpt><trkpt lat="46.1385511" lon="9.5225104"><ele>210.5</ele><time>2026-04-07T08:04:03.686Z</time></trkpt><trkpt lat="46.1385326" lon="9.5226765"><ele>210.75</ele><time>2026-04-07T08:04:05.688Z</time></trkpt><trkpt lat="46.1385154" lon="9.5228507"><ele>211.0</ele><time>2026-04-07T08:04:07.687Z</time></trkpt><trkpt lat="46.1384842" lon="9.5230191"><ele>211.0</ele><time>2026-04-07T08:04:09.687Z</time></trkpt><trkpt lat="46.1384626" lon="9.5231781"><ele>211.0</ele><time>2026-04-07T08:04:11.687Z</time></trkpt><trkpt lat="46.1384449" lon="9.5233254"><ele>211.0</ele><time>2026-04-07T08:04:13.686Z</time></trkpt><trkpt lat="46.1384218" lon="9.5234755"><ele>211.0</ele><time>2026-04-07T08:04:15.686Z</time></trkpt><trkpt lat="46.1384076" lon="9.5236303"><ele>211.0</ele><time>2026-04-07T08:04:17.688Z</time></trkpt><trkpt lat="46.1383994" lon="9.523785"><ele>210.83333333333331</ele><time>2026-04-07T08:04:19.685Z</time></trkpt><trkpt lat="46.1384162" lon="9.5239404"><ele>210.66666666666666</ele><time>2026-04-07T08:04:21.685Z</time></trkpt><trkpt lat="46.1384258" lon="9.5241083"><ele>210.5</ele><time>2026-04-07T08:04:23.686Z</time></trkpt><trkpt lat="46.1384272" lon="9.5242028"><ele>210.33333333333331</ele><time>2026-04-07T08:04:24.686Z</time></trkpt><trkpt lat="46.1384305" lon="9.5242995"><ele>210.16666666666666</ele><time>2026-04-07T08:04:25.685Z</time></trkpt><trkpt lat="46.1384276" lon="9.5244079"><ele>210.0</ele><time>2026-04-07T08:04:26.685Z</time></trkpt><trkpt lat="46.1384245" lon="9.5245121"><ele>210.0</ele><time>2026-04-07T08:04:27.687Z</time></trkpt><trkpt lat="46.138418" lon="9.5246213"><ele>210.0</ele><time>2026-04-07T08:04:28.686Z</time></trkpt><trkpt lat="46.138415" lon="9.5247201"><ele>210.0</ele><time>2026-04-07T08:04:29.687Z</time></trkpt><trkpt lat="46.1384103" lon="9.5248238"><ele>210.0</ele><time>2026-04-07T08:04:30.687Z</time></trkpt><trkpt lat="46.1384078" lon="9.5249307"><ele>210.0</ele><time>2026-04-07T08:04:31.687Z</time></trkpt><trkpt lat="46.1384067" lon="9.5250378"><ele>210.0</ele><time>2026-04-07T08:04:32.686Z</time></trkpt><trkpt lat="46.1384044" lon="9.5251382"><ele>210.0</ele><time>2026-04-07T08:04:33.687Z</time></trkpt><trkpt lat="46.1384009" lon="9.5252381"><ele>210.0</ele><time>2026-04-07T08:04:34.687Z</time></trkpt><trkpt lat="46.1383948" lon="9.5253357"><ele>210.0</ele><time>2026-04-07T08:04:35.685Z</time></trkpt><trkpt lat="46.1383883" lon="9.5254338"><ele>210.0</ele><time>2026-04-07T08:04:36.687Z</time></trkpt><trkpt lat="46.1383847" lon="9.525533"><ele>210.0</ele><time>2026-04-07T08:04:37.687Z</time></trkpt><trkpt lat="46.1383778" lon="9.5256344"><ele>210.0</ele><time>2026-04-07T08:04:38.686Z</time></trkpt><trkpt lat="46.1383717" lon="9.5257375"><ele>210.0</ele><time>2026-04-07T08:04:39.687Z</time></trkpt><trkpt lat="46.1383653" lon="9.5258327"><ele>210.0</ele><time>2026-04-07T08:04:40.687Z</time></trkpt><trkpt lat="46.1383633" lon="9.525933"><ele>210.0</ele><time>2026-04-07T08:04:41.688Z</time></trkpt><trkpt lat="46.1383643" lon="9.5260279"><ele>210.0</ele><time>2026-04-07T08:04:42.686Z</time></trkpt><trkpt lat="46.1383642" lon="9.5262086"><ele>210.0</ele><time>2026-04-07T08:04:44.686Z</time></trkpt><trkpt lat="46.1383494" lon="9.5263859"><ele>210.0</ele><time>2026-04-07T08:04:46.687Z</time></trkpt><trkpt lat="46.1383507" lon="9.5265601"><ele>210.0</ele><time>2026-04-07T08:04:48.687Z</time></trkpt><trkpt lat="46.1383448" lon="9.5267388"><ele>210.0</ele><time>2026-04-07T08:04:50.687Z</time></trkpt><trkpt lat="46.1383371" lon="9.5269129"><ele>210.0</ele><time>2026-04-07T08:04:52.687Z</time></trkpt><trkpt lat="46.1383286" lon="9.5270857"><ele>210.0</ele><time>2026-04-07T08:04:54.687Z</time></trkpt><trkpt lat="46.1383222" lon="9.5271774"><ele>210.0</ele><time>2026-04-07T08:04:55.688Z</time></trkpt><trkpt lat="46.1383176" lon="9.527269"><ele>210.0</ele><time>2026-04-07T08:04:56.688Z</time></trkpt><trkpt lat="46.1383103" lon="9.5274392"><ele>210.0</ele><time>2026-04-07T08:04:58.687Z</time></trkpt><trkpt lat="46.1383003" lon="9.5276009"><ele>210.0</ele><time>2026-04-07T08:05:00.687Z</time></trkpt><trkpt lat="46.1382937" lon="9.5277223"><ele>210.0</ele><time>2026-04-07T08:05:02.687Z</time></trkpt><trkpt lat="46.1382773" lon="9.5278253"><ele>210.0</ele><time>2026-04-07T08:05:04.687Z</time></trkpt><trkpt lat="46.138259" lon="9.5279282"><ele>210.0</ele><time>2026-04-07T08:05:06.687Z</time></trkpt><trkpt lat="46.1382531" lon="9.5280282"><ele>210.0</ele><time>2026-04-07T08:05:08.688Z</time></trkpt><trkpt lat="46.1382523" lon="9.5281274"><ele>210.2</ele><time>2026-04-07T08:05:10.687Z</time></trkpt><trkpt lat="46.1382447" lon="9.5282923"><ele>210.4</ele><time>2026-04-07T08:05:12.784Z</time></trkpt><trkpt lat="46.1382251" lon="9.5283965"><ele>210.60000000000002</ele><time>2026-04-07T08:05:14.688Z</time></trkpt><trkpt lat="46.13821" lon="9.5285359"><ele>210.8</ele><time>2026-04-07T08:05:16.687Z</time></trkpt><trkpt lat="46.1381936" lon="9.5286652"><ele>211.0</ele><time>2026-04-07T08:05:18.685Z</time></trkpt><trkpt lat="46.1381798" lon="9.5287947"><ele>211.20000000000002</ele><time>2026-04-07T08:05:20.688Z</time></trkpt><trkpt lat="46.1381722" lon="9.5289414"><ele>211.4</ele><time>2026-04-07T08:05:22.687Z</time></trkpt><trkpt lat="46.1381622" lon="9.5290905"><ele>211.6</ele><time>2026-04-07T08:05:24.687Z</time></trkpt><trkpt lat="46.1381601" lon="9.5292353"><ele>211.8</ele><time>2026-04-07T08:05:26.686Z</time></trkpt><trkpt lat="46.1381655" lon="9.5293912"><ele>212.0</ele><time>2026-04-07T08:05:28.687Z</time></trkpt><trkpt lat="46.1381481" lon="9.529551"><ele>212.39999999999998</ele><time>2026-04-07T08:05:30.686Z</time></trkpt><trkpt lat="46.1381446" lon="9.5297062"><ele>212.79999999999998</ele><time>2026-04-07T08:05:32.688Z</time></trkpt><trkpt lat="46.138128" lon="9.5298429"><ele>213.2</ele><time>2026-04-07T08:05:34.687Z</time></trkpt><trkpt lat="46.1380868" lon="9.5299728"><ele>213.6</ele><time>2026-04-07T08:05:36.686Z</time></trkpt><trkpt lat="46.1380439" lon="9.5301265"><ele>214.0</ele><time>2026-04-07T08:05:38.687Z</time></trkpt><trkpt lat="46.1380397" lon="9.5302841"><ele>214.5</ele><time>2026-04-07T08:05:40.685Z</time></trkpt><trkpt lat="46.1380392" lon="9.5304538"><ele>215.0</ele><time>2026-04-07T08:05:42.686Z</time></trkpt><trkpt lat="46.1380306" lon="9.530615"><ele>215.5</ele><time>2026-04-07T08:05:44.687Z</time></trkpt><trkpt lat="46.1380176" lon="9.5307656"><ele>216.0</ele><time>2026-04-07T08:05:46.686Z</time></trkpt><trkpt lat="46.1380007" lon="9.5309345"><ele>216.0</ele><time>2026-04-07T08:05:48.688Z</time></trkpt><trkpt lat="46.1379821" lon="9.5311088"><ele>216.0</ele><time>2026-04-07T08:05:50.687Z</time></trkpt><trkpt lat="46.1379739" lon="9.5312652"><ele>216.0</ele><time>2026-04-07T08:05:52.687Z</time></trkpt><trkpt lat="46.1379747" lon="9.5314285"><ele>216.0</ele><time>2026-04-07T08:05:54.688Z</time></trkpt><trkpt lat="46.1379754" lon="9.5315842"><ele>216.0</ele><time>2026-04-07T08:05:56.687Z</time></trkpt><trkpt lat="46.1379578" lon="9.531743"><ele>216.0</ele><time>2026-04-07T08:05:58.686Z</time></trkpt><trkpt lat="46.1379448" lon="9.5319215"><ele>216.0</ele><time>2026-04-07T08:06:00.687Z</time></trkpt><trkpt lat="46.1379507" lon="9.5320769"><ele>216.0</ele><time>2026-04-07T08:06:02.687Z</time></trkpt><trkpt lat="46.1379457" lon="9.532243"><ele>215.8</ele><time>2026-04-07T08:06:04.688Z</time></trkpt><trkpt lat="46.1379386" lon="9.5324098"><ele>215.60000000000002</ele><time>2026-04-07T08:06:06.686Z</time></trkpt><trkpt lat="46.1379273" lon="9.5325702"><ele>215.4</ele><time>2026-04-07T08:06:08.687Z</time></trkpt><trkpt lat="46.1379101" lon="9.5327166"><ele>215.2</ele><time>2026-04-07T08:06:10.686Z</time></trkpt><trkpt lat="46.1379008" lon="9.5328767"><ele>215.0</ele><time>2026-04-07T08:06:12.686Z</time></trkpt><trkpt lat="46.1378964" lon="9.5330415"><ele>214.5</ele><time>2026-04-07T08:06:14.687Z</time></trkpt><trkpt lat="46.1378785" lon="9.5332169"><ele>214.0</ele><time>2026-04-07T08:06:16.687Z</time></trkpt><trkpt lat="46.1378687" lon="9.5333841"><ele>213.5</ele><time>2026-04-07T08:06:18.687Z</time></trkpt><trkpt lat="46.1378639" lon="9.5335578"><ele>213.0</ele><time>2026-04-07T08:06:20.686Z</time></trkpt><trkpt lat="46.1378557" lon="9.5337091"><ele>213.8</ele><time>2026-04-07T08:06:22.687Z</time></trkpt><trkpt lat="46.1378627" lon="9.5338627"><ele>214.60000000000002</ele><time>2026-04-07T08:06:24.687Z</time></trkpt><trkpt lat="46.1378572" lon="9.5340173"><ele>215.39999999999998</ele><time>2026-04-07T08:06:26.687Z</time></trkpt><trkpt lat="46.1378426" lon="9.5341854"><ele>216.2</ele><time>2026-04-07T08:06:28.688Z</time></trkpt><trkpt lat="46.1378363" lon="9.5343443"><ele>217.0</ele><time>2026-04-07T08:06:30.686Z</time></trkpt><trkpt lat="46.1378346" lon="9.5345015"><ele>217.39999999999998</ele><time>2026-04-07T08:06:32.686Z</time></trkpt><trkpt lat="46.1378324" lon="9.5346545"><ele>217.79999999999998</ele><time>2026-04-07T08:06:34.687Z</time></trkpt><trkpt lat="46.1378428" lon="9.5348113"><ele>218.2</ele><time>2026-04-07T08:06:36.688Z</time></trkpt><trkpt lat="46.1378617" lon="9.5349636"><ele>218.6</ele><time>2026-04-07T08:06:38.687Z</time></trkpt><trkpt lat="46.1378923" lon="9.5351163"><ele>219.0</ele><time>2026-04-07T08:06:40.687Z</time></trkpt><trkpt lat="46.1379197" lon="9.5352615"><ele>218.2</ele><time>2026-04-07T08:06:42.686Z</time></trkpt><trkpt lat="46.1379435" lon="9.5354016"><ele>217.39999999999998</ele><time>2026-04-07T08:06:44.687Z</time></trkpt><trkpt lat="46.137983" lon="9.5355349"><ele>216.6</ele><time>2026-04-07T08:06:46.687Z</time></trkpt><trkpt lat="46.138014" lon="9.5356815"><ele>215.8</ele><time>2026-04-07T08:06:48.689Z</time></trkpt><trkpt lat="46.1380459" lon="9.535837"><ele>215.0</ele><time>2026-04-07T08:06:50.688Z</time></trkpt><trkpt lat="46.1380756" lon="9.5360032"><ele>215.0</ele><time>2026-04-07T08:06:52.686Z</time></trkpt><trkpt lat="46.138094" lon="9.536159"><ele>215.0</ele><time>2026-04-07T08:06:54.687Z</time></trkpt><trkpt lat="46.1381157" lon="9.5363163"><ele>215.0</ele><time>2026-04-07T08:06:56.688Z</time></trkpt><trkpt lat="46.1381303" lon="9.5364636"><ele>215.0</ele><time>2026-04-07T08:06:58.687Z</time></trkpt><trkpt lat="46.1381477" lon="9.5366196"><ele>215.0</ele><time>2026-04-07T08:07:00.688Z</time></trkpt><trkpt lat="46.1381503" lon="9.5367783"><ele>215.0</ele><time>2026-04-07T08:07:02.686Z</time></trkpt><trkpt lat="46.138158" lon="9.5369387"><ele>215.0</ele><time>2026-04-07T08:07:04.687Z</time></trkpt><trkpt lat="46.1381747" lon="9.537089"><ele>215.0</ele><time>2026-04-07T08:07:06.688Z</time></trkpt><trkpt lat="46.1381889" lon="9.5372414"><ele>215.0</ele><time>2026-04-07T08:07:08.687Z</time></trkpt><trkpt lat="46.1381923" lon="9.537401"><ele>215.0</ele><time>2026-04-07T08:07:10.688Z</time></trkpt><trkpt lat="46.1382026" lon="9.537555"><ele>215.0</ele><time>2026-04-07T08:07:12.687Z</time></trkpt><trkpt lat="46.1382163" lon="9.5377099"><ele>215.0</ele><time>2026-04-07T08:07:14.687Z</time></trkpt><trkpt lat="46.1382233" lon="9.53787"><ele>215.0</ele><time>2026-04-07T08:07:16.688Z</time></trkpt><trkpt lat="46.138229" lon="9.5380345"><ele>215.0</ele><time>2026-04-07T08:07:18.687Z</time></trkpt><trkpt lat="46.1382297" lon="9.5381993"><ele>215.0</ele><time>2026-04-07T08:07:20.687Z</time></trkpt><trkpt lat="46.1382363" lon="9.5383517"><ele>216.0</ele><time>2026-04-07T08:07:22.687Z</time></trkpt><trkpt lat="46.1382506" lon="9.5385217"><ele>217.0</ele><time>2026-04-07T08:07:24.688Z</time></trkpt><trkpt lat="46.138266" lon="9.5386807"><ele>218.0</ele><time>2026-04-07T08:07:26.687Z</time></trkpt><trkpt lat="46.1382835" lon="9.5388378"><ele>219.0</ele><time>2026-04-07T08:07:28.686Z</time></trkpt><trkpt lat="46.1383055" lon="9.5390112"><ele>219.0</ele><time>2026-04-07T08:07:30.688Z</time></trkpt><trkpt lat="46.1383186" lon="9.5391772"><ele>218.99999999999997</ele><time>2026-04-07T08:07:32.688Z</time></trkpt><trkpt lat="46.1383259" lon="9.5393409"><ele>218.99999999999997</ele><time>2026-04-07T08:07:34.688Z</time></trkpt><trkpt lat="46.1383381" lon="9.5394951"><ele>219.0</ele><time>2026-04-07T08:07:36.686Z</time></trkpt><trkpt lat="46.1383498" lon="9.539642"><ele>219.0</ele><time>2026-04-07T08:07:38.687Z</time></trkpt><trkpt lat="46.1383799" lon="9.5397851"><ele>218.2</ele><time>2026-04-07T08:07:40.688Z</time></trkpt><trkpt lat="46.1384016" lon="9.5399317"><ele>217.39999999999998</ele><time>2026-04-07T08:07:42.688Z</time></trkpt><trkpt lat="46.1384052" lon="9.5400744"><ele>216.6</ele><time>2026-04-07T08:07:44.686Z</time></trkpt><trkpt lat="46.1384208" lon="9.5402206"><ele>215.8</ele><time>2026-04-07T08:07:46.687Z</time></trkpt><trkpt lat="46.1384903" lon="9.5402953"><ele>215.0</ele><time>2026-04-07T08:07:48.686Z</time></trkpt><trkpt lat="46.1385782" lon="9.5403187"><ele>215.0</ele><time>2026-04-07T08:07:50.687Z</time></trkpt><trkpt lat="46.1386803" lon="9.5403314"><ele>215.0</ele><time>2026-04-07T08:07:52.688Z</time></trkpt><trkpt lat="46.1387571" lon="9.5403397"><ele>215.0</ele><time>2026-04-07T08:07:53.687Z</time></trkpt><trkpt lat="46.138823" lon="9.5404997"><ele>215.0</ele><time>2026-04-07T08:07:55.689Z</time></trkpt><trkpt lat="46.1388463" lon="9.540586"><ele>215.0</ele><time>2026-04-07T08:07:56.687Z</time></trkpt><trkpt lat="46.1388746" lon="9.5407306"><ele>215.25</ele><time>2026-04-07T08:07:58.688Z</time></trkpt><trkpt lat="46.1389091" lon="9.5408977"><ele>215.5</ele><time>2026-04-07T08:08:00.688Z</time></trkpt><trkpt lat="46.1389445" lon="9.5410569"><ele>215.75</ele><time>2026-04-07T08:08:02.688Z</time></trkpt><trkpt lat="46.1389789" lon="9.5412149"><ele>216.0</ele><time>2026-04-07T08:08:04.687Z</time></trkpt><trkpt lat="46.1390095" lon="9.5413709"><ele>216.0</ele><time>2026-04-07T08:08:06.687Z</time></trkpt><trkpt lat="46.13905" lon="9.5415147"><ele>216.00000000000003</ele><time>2026-04-07T08:08:08.687Z</time></trkpt><trkpt lat="46.1390964" lon="9.5416626"><ele>216.00000000000003</ele><time>2026-04-07T08:08:10.688Z</time></trkpt><trkpt lat="46.1391325" lon="9.5418267"><ele>216.0</ele><time>2026-04-07T08:08:12.687Z</time></trkpt><trkpt lat="46.1391523" lon="9.5419146"><ele>216.0</ele><time>2026-04-07T08:08:13.687Z</time></trkpt><trkpt lat="46.1391905" lon="9.5420745"><ele>216.0</ele><time>2026-04-07T08:08:15.687Z</time></trkpt><trkpt lat="46.1392203" lon="9.5422407"><ele>216.00000000000003</ele><time>2026-04-07T08:08:17.687Z</time></trkpt><trkpt lat="46.1392499" lon="9.5424063"><ele>216.00000000000003</ele><time>2026-04-07T08:08:19.687Z</time></trkpt><trkpt lat="46.1392725" lon="9.5424957"><ele>216.0</ele><time>2026-04-07T08:08:20.688Z</time></trkpt><trkpt lat="46.1393209" lon="9.5426602"><ele>216.0</ele><time>2026-04-07T08:08:22.686Z</time></trkpt><trkpt lat="46.1393408" lon="9.5427489"><ele>216.20000000000002</ele><time>2026-04-07T08:08:23.688Z</time></trkpt><trkpt lat="46.1393758" lon="9.5429216"><ele>216.40000000000003</ele><time>2026-04-07T08:08:25.688Z</time></trkpt><trkpt lat="46.1393944" lon="9.5430114"><ele>216.6</ele><time>2026-04-07T08:08:26.687Z</time></trkpt><trkpt lat="46.1394436" lon="9.5431753"><ele>216.8</ele><time>2026-04-07T08:08:28.686Z</time></trkpt><trkpt lat="46.1394686" lon="9.5432594"><ele>217.0</ele><time>2026-04-07T08:08:29.686Z</time></trkpt><trkpt lat="46.1395231" lon="9.5434197"><ele>217.0</ele><time>2026-04-07T08:08:31.688Z</time></trkpt><trkpt lat="46.1395796" lon="9.5435661"><ele>217.0</ele><time>2026-04-07T08:08:33.687Z</time></trkpt><trkpt lat="46.1396227" lon="9.5437131"><ele>217.0</ele><time>2026-04-07T08:08:35.686Z</time></trkpt><trkpt lat="46.1396536" lon="9.5438723"><ele>217.0</ele><time>2026-04-07T08:08:37.686Z</time></trkpt><trkpt lat="46.1396914" lon="9.5440322"><ele>217.0</ele><time>2026-04-07T08:08:39.688Z</time></trkpt><trkpt lat="46.1397251" lon="9.5441718"><ele>217.0</ele><time>2026-04-07T08:08:41.687Z</time></trkpt><trkpt lat="46.1397656" lon="9.5443428"><ele>217.0</ele><time>2026-04-07T08:08:43.688Z</time></trkpt><trkpt lat="46.1398173" lon="9.5445981"><ele>217.0</ele><time>2026-04-07T08:08:46.687Z</time></trkpt><trkpt lat="46.1398531" lon="9.5447673"><ele>216.8</ele><time>2026-04-07T08:08:48.688Z</time></trkpt><trkpt lat="46.1399001" lon="9.5449173"><ele>216.6</ele><time>2026-04-07T08:08:50.688Z</time></trkpt><trkpt lat="46.1399177" lon="9.5450046"><ele>216.40000000000003</ele><time>2026-04-07T08:08:51.687Z</time></trkpt><trkpt lat="46.1399386" lon="9.5450927"><ele>216.20000000000002</ele><time>2026-04-07T08:08:52.688Z</time></trkpt><trkpt lat="46.1399718" lon="9.5452562"><ele>216.0</ele><time>2026-04-07T08:08:54.687Z</time></trkpt><trkpt lat="46.1399983" lon="9.54542"><ele>216.0</ele><time>2026-04-07T08:08:56.686Z</time></trkpt><trkpt lat="46.1400326" lon="9.5455764"><ele>216.0</ele><time>2026-04-07T08:08:58.688Z</time></trkpt><trkpt lat="46.140079" lon="9.5457152"><ele>216.0</ele><time>2026-04-07T08:09:00.686Z</time></trkpt><trkpt lat="46.1401089" lon="9.5458755"><ele>216.0</ele><time>2026-04-07T08:09:02.688Z</time></trkpt><trkpt lat="46.1401555" lon="9.5460462"><ele>216.0</ele><time>2026-04-07T08:09:04.688Z</time></trkpt><trkpt lat="46.1401919" lon="9.5462078"><ele>216.0</ele><time>2026-04-07T08:09:06.687Z</time></trkpt><trkpt lat="46.1402426" lon="9.5463671"><ele>216.0</ele><time>2026-04-07T08:09:08.686Z</time></trkpt><trkpt lat="46.1402988" lon="9.5465195"><ele>216.0</ele><time>2026-04-07T08:09:10.687Z</time></trkpt><trkpt lat="46.14035" lon="9.5466798"><ele>216.60000000000002</ele><time>2026-04-07T08:09:12.688Z</time></trkpt><trkpt lat="46.1403947" lon="9.5468504"><ele>217.20000000000002</ele><time>2026-04-07T08:09:14.687Z</time></trkpt><trkpt lat="46.1404423" lon="9.5470016"><ele>217.79999999999998</ele><time>2026-04-07T08:09:16.689Z</time></trkpt><trkpt lat="46.140496" lon="9.5471334"><ele>218.39999999999998</ele><time>2026-04-07T08:09:18.687Z</time></trkpt><trkpt lat="46.1405314" lon="9.5472108"><ele>219.0</ele><time>2026-04-07T08:09:19.688Z</time></trkpt><trkpt lat="46.1405734" lon="9.547285"><ele>219.25</ele><time>2026-04-07T08:09:20.688Z</time></trkpt><trkpt lat="46.1406471" lon="9.5474083"><ele>219.5</ele><time>2026-04-07T08:09:22.688Z</time></trkpt><trkpt lat="46.1407025" lon="9.547546"><ele>219.75</ele><time>2026-04-07T08:09:24.689Z</time></trkpt><trkpt lat="46.1407604" lon="9.5476955"><ele>220.0</ele><time>2026-04-07T08:09:26.686Z</time></trkpt><trkpt lat="46.1408153" lon="9.5478562"><ele>219.2</ele><time>2026-04-07T08:09:28.687Z</time></trkpt><trkpt lat="46.1408398" lon="9.5479507"><ele>218.4</ele><time>2026-04-07T08:09:29.687Z</time></trkpt><trkpt lat="46.14089" lon="9.5480958"><ele>217.60000000000002</ele><time>2026-04-07T08:09:31.687Z</time></trkpt><trkpt lat="46.140932" lon="9.5482215"><ele>216.8</ele><time>2026-04-07T08:09:33.689Z</time></trkpt><trkpt lat="46.140919" lon="9.5483519"><ele>216.0</ele><time>2026-04-07T08:09:35.686Z</time></trkpt><trkpt lat="46.1408778" lon="9.5484846"><ele>216.0</ele><time>2026-04-07T08:09:37.687Z</time></trkpt><trkpt lat="46.1409135" lon="9.5485914"><ele>216.0</ele><time>2026-04-07T08:09:39.686Z</time></trkpt><trkpt lat="46.1409885" lon="9.5485836"><ele>216.0</ele><time>2026-04-07T08:09:41.688Z</time></trkpt><trkpt lat="46.1410707" lon="9.5485288"><ele>216.0</ele><time>2026-04-07T08:09:44.688Z</time></trkpt><trkpt lat="46.1411455" lon="9.5485074"><ele>216.0</ele><time>2026-04-07T08:09:47.641Z</time></trkpt><trkpt lat="46.1412557" lon="9.5484284"><ele>216.0</ele><time>2026-04-07T08:09:49.793Z</time></trkpt><trkpt lat="46.1413149" lon="9.5483933"><ele>216.0</ele><time>2026-04-07T08:09:51.789Z</time></trkpt><trkpt lat="46.1414319" lon="9.5482727"><ele>216.0</ele><time>2026-04-07T08:09:54.686Z</time></trkpt><trkpt lat="46.1415487" lon="9.5482659"><ele>216.0</ele><time>2026-04-07T08:09:56.689Z</time></trkpt><trkpt lat="46.141594" lon="9.5484006"><ele>216.0</ele><time>2026-04-07T08:09:58.687Z</time></trkpt><trkpt lat="46.1415992" lon="9.5485737"><ele>216.8</ele><time>2026-04-07T08:10:00.689Z</time></trkpt><trkpt lat="46.1416013" lon="9.5486702"><ele>217.60000000000002</ele><time>2026-04-07T08:10:01.686Z</time></trkpt><trkpt lat="46.1416733" lon="9.5488058"><ele>218.4</ele><time>2026-04-07T08:10:03.688Z</time></trkpt><trkpt lat="46.1417737" lon="9.5489183"><ele>219.2</ele><time>2026-04-07T08:10:05.687Z</time></trkpt><trkpt lat="46.1418649" lon="9.5490496"><ele>220.0</ele><time>2026-04-07T08:10:07.687Z</time></trkpt><trkpt lat="46.1419539" lon="9.5491681"><ele>220.25</ele><time>2026-04-07T08:10:09.688Z</time></trkpt><trkpt lat="46.1420381" lon="9.5492981"><ele>220.5</ele><time>2026-04-07T08:10:11.687Z</time></trkpt><trkpt lat="46.1421199" lon="9.5494267"><ele>220.75</ele><time>2026-04-07T08:10:13.686Z</time></trkpt><trkpt lat="46.1421988" lon="9.5495466"><ele>221.0</ele><time>2026-04-07T08:10:15.687Z</time></trkpt><trkpt lat="46.1422825" lon="9.5496769"><ele>220.66666666666669</ele><time>2026-04-07T08:10:17.688Z</time></trkpt><trkpt lat="46.1423307" lon="9.5497367"><ele>220.33333333333334</ele><time>2026-04-07T08:10:18.688Z</time></trkpt><trkpt lat="46.1424253" lon="9.5498572"><ele>220.0</ele><time>2026-04-07T08:10:20.688Z</time></trkpt><trkpt lat="46.1424712" lon="9.5499244"><ele>219.66666666666669</ele><time>2026-04-07T08:10:21.688Z</time></trkpt><trkpt lat="46.1425149" lon="9.5500025"><ele>219.33333333333334</ele><time>2026-04-07T08:10:22.687Z</time></trkpt><trkpt lat="46.1425737" lon="9.5500656"><ele>219.0</ele><time>2026-04-07T08:10:23.687Z</time></trkpt><trkpt lat="46.1426209" lon="9.5501262"><ele>219.39999999999998</ele><time>2026-04-07T08:10:24.689Z</time></trkpt><trkpt lat="46.1427016" lon="9.5502393"><ele>219.79999999999998</ele><time>2026-04-07T08:10:26.687Z</time></trkpt><trkpt lat="46.1427834" lon="9.5503556"><ele>220.20000000000002</ele><time>2026-04-07T08:10:28.688Z</time></trkpt><trkpt lat="46.1428333" lon="9.5504191"><ele>220.60000000000002</ele><time>2026-04-07T08:10:29.686Z</time></trkpt><trkpt lat="46.1429146" lon="9.5505422"><ele>221.0</ele><time>2026-04-07T08:10:31.687Z</time></trkpt><trkpt lat="46.1429823" lon="9.5506662"><ele>221.0</ele><time>2026-04-07T08:10:33.688Z</time></trkpt><trkpt lat="46.1430457" lon="9.5508004"><ele>221.00000000000003</ele><time>2026-04-07T08:10:35.687Z</time></trkpt><trkpt lat="46.1430994" lon="9.5509427"><ele>221.00000000000003</ele><time>2026-04-07T08:10:37.688Z</time></trkpt><trkpt lat="46.1431924" lon="9.5510385"><ele>221.0</ele><time>2026-04-07T08:10:39.686Z</time></trkpt><trkpt lat="46.1432927" lon="9.5510655"><ele>221.0</ele><time>2026-04-07T08:10:41.688Z</time></trkpt><trkpt lat="46.1433791" lon="9.5509895"><ele>220.83333333333334</ele><time>2026-04-07T08:10:43.687Z</time></trkpt><trkpt lat="46.1434468" lon="9.550911"><ele>220.66666666666669</ele><time>2026-04-07T08:10:45.688Z</time></trkpt><trkpt lat="46.1435073" lon="9.5508554"><ele>220.5</ele><time>2026-04-07T08:10:47.686Z</time></trkpt><trkpt lat="46.1435717" lon="9.5508052"><ele>220.33333333333331</ele><time>2026-04-07T08:10:49.689Z</time></trkpt><trkpt lat="46.1436474" lon="9.5507658"><ele>220.16666666666666</ele><time>2026-04-07T08:10:52.688Z</time></trkpt><trkpt lat="46.1437204" lon="9.550689"><ele>220.0</ele><time>2026-04-07T08:10:54.688Z</time></trkpt><trkpt lat="46.1437728" lon="9.5506316"><ele>219.99999999999997</ele><time>2026-04-07T08:10:55.76Z</time></trkpt><trkpt lat="46.1438185" lon="9.5505348"><ele>220.0</ele><time>2026-04-07T08:10:57.784Z</time></trkpt><trkpt lat="46.1438893" lon="9.5505325"><ele>220.0</ele><time>2026-04-07T08:10:58.687Z</time></trkpt><trkpt lat="46.143951" lon="9.5505596"><ele>220.0</ele><time>2026-04-07T08:10:59.688Z</time></trkpt><trkpt lat="46.1440046" lon="9.5506179"><ele>220.0</ele><time>2026-04-07T08:11:00.689Z</time></trkpt><trkpt lat="46.144052" lon="9.5506839"><ele>219.99999999999997</ele><time>2026-04-07T08:11:01.689Z</time></trkpt><trkpt lat="46.144095" lon="9.550756"><ele>220.0</ele><time>2026-04-07T08:11:02.688Z</time></trkpt><trkpt lat="46.1441521" lon="9.550912"><ele>219.6</ele><time>2026-04-07T08:11:04.689Z</time></trkpt><trkpt lat="46.1441958" lon="9.5510659"><ele>219.2</ele><time>2026-04-07T08:11:06.687Z</time></trkpt><trkpt lat="46.144227" lon="9.5512316"><ele>218.8</ele><time>2026-04-07T08:11:08.687Z</time></trkpt><trkpt lat="46.1442308" lon="9.5513265"><ele>218.4</ele><time>2026-04-07T08:11:09.687Z</time></trkpt><trkpt lat="46.1442422" lon="9.5515"><ele>218.0</ele><time>2026-04-07T08:11:11.688Z</time></trkpt><trkpt lat="46.1442824" lon="9.5516776"><ele>218.0</ele><time>2026-04-07T08:11:13.688Z</time></trkpt><trkpt lat="46.1443323" lon="9.5518203"><ele>218.0</ele><time>2026-04-07T08:11:15.688Z</time></trkpt><trkpt lat="46.1443932" lon="9.5519607"><ele>218.0</ele><time>2026-04-07T08:11:17.688Z</time></trkpt><trkpt lat="46.1444418" lon="9.5521095"><ele>218.0</ele><time>2026-04-07T08:11:19.688Z</time></trkpt><trkpt lat="46.1444722" lon="9.5522633"><ele>218.00000000000003</ele><time>2026-04-07T08:11:21.687Z</time></trkpt><trkpt lat="46.1445065" lon="9.5524346"><ele>218.0</ele><time>2026-04-07T08:11:23.688Z</time></trkpt><trkpt lat="46.1445278" lon="9.5525234"><ele>218.0</ele><time>2026-04-07T08:11:24.688Z</time></trkpt><trkpt lat="46.1445676" lon="9.5526816"><ele>218.0</ele><time>2026-04-07T08:11:26.689Z</time></trkpt><trkpt lat="46.144584" lon="9.5527716"><ele>218.00000000000003</ele><time>2026-04-07T08:11:27.688Z</time></trkpt><trkpt lat="46.144597" lon="9.5528637"><ele>218.0</ele><time>2026-04-07T08:11:28.688Z</time></trkpt><trkpt lat="46.1446315" lon="9.5530203"><ele>218.0</ele><time>2026-04-07T08:11:30.689Z</time></trkpt><trkpt lat="46.1446586" lon="9.5531957"><ele>218.0</ele><time>2026-04-07T08:11:32.688Z</time></trkpt><trkpt lat="46.1446865" lon="9.5533597"><ele>218.0</ele><time>2026-04-07T08:11:34.688Z</time></trkpt><trkpt lat="46.1447097" lon="9.5535225"><ele>218.0</ele><time>2026-04-07T08:11:36.688Z</time></trkpt><trkpt lat="46.1447396" lon="9.5536829"><ele>219.0</ele><time>2026-04-07T08:11:38.689Z</time></trkpt><trkpt lat="46.1447586" lon="9.5538561"><ele>220.0</ele><time>2026-04-07T08:11:40.689Z</time></trkpt><trkpt lat="46.1447655" lon="9.5540433"><ele>221.0</ele><time>2026-04-07T08:11:42.688Z</time></trkpt><trkpt lat="46.1447918" lon="9.5542177"><ele>222.0</ele><time>2026-04-07T08:11:44.688Z</time></trkpt><trkpt lat="46.1447982" lon="9.5543088"><ele>223.0</ele><time>2026-04-07T08:11:45.689Z</time></trkpt><trkpt lat="46.1447996" lon="9.5544036"><ele>223.0</ele><time>2026-04-07T08:11:46.688Z</time></trkpt><trkpt lat="46.1448005" lon="9.5544967"><ele>223.0</ele><time>2026-04-07T08:11:47.689Z</time></trkpt><trkpt lat="46.1448024" lon="9.5545978"><ele>223.0</ele><time>2026-04-07T08:11:48.688Z</time></trkpt><trkpt lat="46.1448028" lon="9.5547793"><ele>223.0</ele><time>2026-04-07T08:11:50.688Z</time></trkpt><trkpt lat="46.1448233" lon="9.5549605"><ele>223.0</ele><time>2026-04-07T08:11:52.689Z</time></trkpt><trkpt lat="46.1448241" lon="9.5550559"><ele>223.0</ele><time>2026-04-07T08:11:53.687Z</time></trkpt><trkpt lat="46.1448386" lon="9.555232"><ele>223.0</ele><time>2026-04-07T08:11:55.688Z</time></trkpt><trkpt lat="46.1448602" lon="9.5554089"><ele>223.0</ele><time>2026-04-07T08:11:57.688Z</time></trkpt><trkpt lat="46.1448642" lon="9.555504"><ele>223.0</ele><time>2026-04-07T08:11:58.688Z</time></trkpt><trkpt lat="46.1448756" lon="9.5556693"><ele>223.0</ele><time>2026-04-07T08:12:00.688Z</time></trkpt><trkpt lat="46.144888" lon="9.5558365"><ele>229.0</ele><time>2026-04-07T08:12:02.688Z</time></trkpt><trkpt lat="46.1448814" lon="9.5560112"><ele>235.0</ele><time>2026-04-07T08:12:04.688Z</time></trkpt><trkpt lat="46.1448913" lon="9.556193"><ele>241.0</ele><time>2026-04-07T08:12:06.688Z</time></trkpt><trkpt lat="46.1449072" lon="9.556366"><ele>247.0</ele><time>2026-04-07T08:12:08.688Z</time></trkpt><trkpt lat="46.144922" lon="9.5565325"><ele>247.0</ele><time>2026-04-07T08:12:10.688Z</time></trkpt><trkpt lat="46.1449415" lon="9.5567185"><ele>247.0</ele><time>2026-04-07T08:12:12.688Z</time></trkpt><trkpt lat="46.1449467" lon="9.5568209"><ele>247.0</ele><time>2026-04-07T08:12:13.688Z</time></trkpt><trkpt lat="46.1449599" lon="9.5569121"><ele>247.0</ele><time>2026-04-07T08:12:14.69Z</time></trkpt><trkpt lat="46.1449859" lon="9.5570781"><ele>247.0</ele><time>2026-04-07T08:12:16.688Z</time></trkpt><trkpt lat="46.1449951" lon="9.557173"><ele>243.8</ele><time>2026-04-07T08:12:17.687Z</time></trkpt><trkpt lat="46.1450084" lon="9.5572794"><ele>240.6</ele><time>2026-04-07T08:12:18.688Z</time></trkpt><trkpt lat="46.1450275" lon="9.5574577"><ele>237.40000000000003</ele><time>2026-04-07T08:12:20.689Z</time></trkpt><trkpt lat="46.1450524" lon="9.5576232"><ele>234.20000000000002</ele><time>2026-04-07T08:12:22.688Z</time></trkpt><trkpt lat="46.1450698" lon="9.5577917"><ele>231.0</ele><time>2026-04-07T08:12:24.687Z</time></trkpt><trkpt lat="46.14508" lon="9.5578837"><ele>230.20000000000002</ele><time>2026-04-07T08:12:25.688Z</time></trkpt><trkpt lat="46.1450878" lon="9.5579758"><ele>229.40000000000003</ele><time>2026-04-07T08:12:26.689Z</time></trkpt><trkpt lat="46.1451096" lon="9.5581499"><ele>228.6</ele><time>2026-04-07T08:12:28.688Z</time></trkpt><trkpt lat="46.1451314" lon="9.5583202"><ele>227.8</ele><time>2026-04-07T08:12:30.687Z</time></trkpt><trkpt lat="46.14515" lon="9.5584763"><ele>227.0</ele><time>2026-04-07T08:12:32.688Z</time></trkpt><trkpt lat="46.1451634" lon="9.5586187"><ele>226.8</ele><time>2026-04-07T08:12:34.688Z</time></trkpt><trkpt lat="46.1451826" lon="9.5587802"><ele>226.6</ele><time>2026-04-07T08:12:36.688Z</time></trkpt><trkpt lat="46.1452112" lon="9.5589536"><ele>226.40000000000003</ele><time>2026-04-07T08:12:38.688Z</time></trkpt><trkpt lat="46.1452273" lon="9.559042"><ele>226.20000000000002</ele><time>2026-04-07T08:12:39.688Z</time></trkpt><trkpt lat="46.1452429" lon="9.5591944"><ele>226.0</ele><time>2026-04-07T08:12:41.689Z</time></trkpt><trkpt lat="46.1452667" lon="9.5593587"><ele>226.0</ele><time>2026-04-07T08:12:43.688Z</time></trkpt><trkpt lat="46.1452782" lon="9.5595132"><ele>226.00000000000003</ele><time>2026-04-07T08:12:45.687Z</time></trkpt><trkpt lat="46.1452946" lon="9.5596847"><ele>226.00000000000003</ele><time>2026-04-07T08:12:47.689Z</time></trkpt><trkpt lat="46.1453016" lon="9.5597773"><ele>226.0</ele><time>2026-04-07T08:12:48.688Z</time></trkpt><trkpt lat="46.1453155" lon="9.5599524"><ele>226.0</ele><time>2026-04-07T08:12:50.689Z</time></trkpt><trkpt lat="46.1453274" lon="9.5601296"><ele>226.4</ele><time>2026-04-07T08:12:52.689Z</time></trkpt><trkpt lat="46.1453484" lon="9.5603078"><ele>226.8</ele><time>2026-04-07T08:12:54.689Z</time></trkpt><trkpt lat="46.1453663" lon="9.5604816"><ele>227.20000000000002</ele><time>2026-04-07T08:12:56.688Z</time></trkpt><trkpt lat="46.1453759" lon="9.560654"><ele>227.60000000000002</ele><time>2026-04-07T08:12:58.688Z</time></trkpt><trkpt lat="46.1453864" lon="9.5607474"><ele>228.0</ele><time>2026-04-07T08:12:59.688Z</time></trkpt><trkpt lat="46.1453979" lon="9.5608388"><ele>227.16666666666666</ele><time>2026-04-07T08:13:00.688Z</time></trkpt><trkpt lat="46.145413" lon="9.5610131"><ele>226.33333333333331</ele><time>2026-04-07T08:13:02.689Z</time></trkpt><trkpt lat="46.1454369" lon="9.5611812"><ele>225.5</ele><time>2026-04-07T08:13:04.687Z</time></trkpt><trkpt lat="46.1454488" lon="9.5612725"><ele>224.66666666666666</ele><time>2026-04-07T08:13:05.688Z</time></trkpt><trkpt lat="46.1454554" lon="9.5613681"><ele>223.83333333333331</ele><time>2026-04-07T08:13:06.69Z</time></trkpt><trkpt lat="46.1454636" lon="9.561459"><ele>223.0</ele><time>2026-04-07T08:13:07.688Z</time></trkpt><trkpt lat="46.1454843" lon="9.5616398"><ele>222.33333333333331</ele><time>2026-04-07T08:13:09.689Z</time></trkpt><trkpt lat="46.145495" lon="9.5617305"><ele>221.66666666666666</ele><time>2026-04-07T08:13:10.688Z</time></trkpt><trkpt lat="46.1455097" lon="9.5618213"><ele>221.0</ele><time>2026-04-07T08:13:11.689Z</time></trkpt><trkpt lat="46.1455224" lon="9.562"><ele>220.33333333333331</ele><time>2026-04-07T08:13:13.687Z</time></trkpt><trkpt lat="46.1455361" lon="9.5621823"><ele>219.66666666666666</ele><time>2026-04-07T08:13:15.687Z</time></trkpt><trkpt lat="46.1455488" lon="9.5622756"><ele>219.0</ele><time>2026-04-07T08:13:16.688Z</time></trkpt><trkpt lat="46.1455647" lon="9.5624482"><ele>219.0</ele><time>2026-04-07T08:13:18.688Z</time></trkpt><trkpt lat="46.1455745" lon="9.5625395"><ele>219.0</ele><time>2026-04-07T08:13:19.69Z</time></trkpt><trkpt lat="46.1455849" lon="9.5626323"><ele>219.0</ele><time>2026-04-07T08:13:20.687Z</time></trkpt><trkpt lat="46.1456071" lon="9.5628034"><ele>219.0</ele><time>2026-04-07T08:13:22.688Z</time></trkpt><trkpt lat="46.1456177" lon="9.562893"><ele>219.0</ele><time>2026-04-07T08:13:23.689Z</time></trkpt><trkpt lat="46.145631" lon="9.5629876"><ele>219.0</ele><time>2026-04-07T08:13:24.687Z</time></trkpt><trkpt lat="46.1456481" lon="9.5631597"><ele>219.71428571428572</ele><time>2026-04-07T08:13:26.688Z</time></trkpt><trkpt lat="46.1456591" lon="9.5632543"><ele>220.42857142857142</ele><time>2026-04-07T08:13:27.688Z</time></trkpt><trkpt lat="46.1456696" lon="9.5633551"><ele>221.14285714285714</ele><time>2026-04-07T08:13:28.688Z</time></trkpt><trkpt lat="46.145684" lon="9.5634446"><ele>221.85714285714286</ele><time>2026-04-07T08:13:29.688Z</time></trkpt><trkpt lat="46.1457019" lon="9.5635361"><ele>222.57142857142856</ele><time>2026-04-07T08:13:30.688Z</time></trkpt><trkpt lat="46.1457186" lon="9.5636342"><ele>223.28571428571428</ele><time>2026-04-07T08:13:31.689Z</time></trkpt><trkpt lat="46.145723" lon="9.5637341"><ele>224.0</ele><time>2026-04-07T08:13:32.688Z</time></trkpt><trkpt lat="46.1457266" lon="9.563837"><ele>227.42857142857144</ele><time>2026-04-07T08:13:33.688Z</time></trkpt><trkpt lat="46.1457313" lon="9.5639424"><ele>230.85714285714286</ele><time>2026-04-07T08:13:34.688Z</time></trkpt><trkpt lat="46.1457365" lon="9.56404"><ele>234.28571428571428</ele><time>2026-04-07T08:13:35.69Z</time></trkpt><trkpt lat="46.1457409" lon="9.5641475"><ele>237.71428571428572</ele><time>2026-04-07T08:13:36.687Z</time></trkpt><trkpt lat="46.1457441" lon="9.5642558"><ele>241.14285714285717</ele><time>2026-04-07T08:13:37.689Z</time></trkpt><trkpt lat="46.1457466" lon="9.5643607"><ele>244.57142857142858</ele><time>2026-04-07T08:13:38.688Z</time></trkpt><trkpt lat="46.1457505" lon="9.5644578"><ele>248.0</ele><time>2026-04-07T08:13:39.688Z</time></trkpt><trkpt lat="46.1457559" lon="9.5645511"><ele>248.0</ele><time>2026-04-07T08:13:40.689Z</time></trkpt><trkpt lat="46.1457724" lon="9.5647456"><ele>248.0</ele><time>2026-04-07T08:13:42.688Z</time></trkpt><trkpt lat="46.1457798" lon="9.5648406"><ele>248.0</ele><time>2026-04-07T08:13:43.688Z</time></trkpt><trkpt lat="46.1457826" lon="9.5649361"><ele>248.0</ele><time>2026-04-07T08:13:44.689Z</time></trkpt><trkpt lat="46.1457989" lon="9.5650308"><ele>248.0</ele><time>2026-04-07T08:13:45.688Z</time></trkpt><trkpt lat="46.1458127" lon="9.565205"><ele>248.0</ele><time>2026-04-07T08:13:47.688Z</time></trkpt><trkpt lat="46.1458162" lon="9.5653023"><ele>248.00000000000003</ele><time>2026-04-07T08:13:48.688Z</time></trkpt><trkpt lat="46.1458281" lon="9.5654004"><ele>248.0</ele><time>2026-04-07T08:13:49.688Z</time></trkpt><trkpt lat="46.1458353" lon="9.5654994"><ele>248.0</ele><time>2026-04-07T08:13:50.688Z</time></trkpt><trkpt lat="46.1458426" lon="9.5655966"><ele>248.00000000000003</ele><time>2026-04-07T08:13:51.689Z</time></trkpt><trkpt lat="46.14585" lon="9.5656895"><ele>248.0</ele><time>2026-04-07T08:13:52.689Z</time></trkpt><trkpt lat="46.1458616" lon="9.5657868"><ele>248.0</ele><time>2026-04-07T08:13:53.688Z</time></trkpt><trkpt lat="46.1458706" lon="9.565896"><ele>247.66666666666669</ele><time>2026-04-07T08:13:54.688Z</time></trkpt><trkpt lat="46.145898" lon="9.5661202"><ele>247.33333333333334</ele><time>2026-04-07T08:13:56.687Z</time></trkpt><trkpt lat="46.1459099" lon="9.5662134"><ele>247.0</ele><time>2026-04-07T08:13:57.689Z</time></trkpt><trkpt lat="46.1459203" lon="9.5663092"><ele>246.66666666666669</ele><time>2026-04-07T08:13:58.688Z</time></trkpt><trkpt lat="46.1459317" lon="9.5664129"><ele>246.33333333333334</ele><time>2026-04-07T08:13:59.688Z</time></trkpt><trkpt lat="46.1459398" lon="9.5665156"><ele>246.0</ele><time>2026-04-07T08:14:00.69Z</time></trkpt><trkpt lat="46.1459462" lon="9.566618"><ele>244.83333333333334</ele><time>2026-04-07T08:14:01.688Z</time></trkpt><trkpt lat="46.1459767" lon="9.5668074"><ele>243.66666666666669</ele><time>2026-04-07T08:14:03.689Z</time></trkpt><trkpt lat="46.1459776" lon="9.5669072"><ele>242.5</ele><time>2026-04-07T08:14:04.688Z</time></trkpt><trkpt lat="46.1459782" lon="9.567009"><ele>241.33333333333334</ele><time>2026-04-07T08:14:05.689Z</time></trkpt><trkpt lat="46.1459768" lon="9.5671065"><ele>240.16666666666669</ele><time>2026-04-07T08:14:06.688Z</time></trkpt><trkpt lat="46.1459812" lon="9.5672103"><ele>239.0</ele><time>2026-04-07T08:14:07.688Z</time></trkpt><trkpt lat="46.1459991" lon="9.5673811"><ele>238.6</ele><time>2026-04-07T08:14:09.688Z</time></trkpt><trkpt lat="46.1460025" lon="9.5674872"><ele>238.2</ele><time>2026-04-07T08:14:10.689Z</time></trkpt><trkpt lat="46.1460109" lon="9.5675894"><ele>237.79999999999998</ele><time>2026-04-07T08:14:11.689Z</time></trkpt><trkpt lat="46.1460077" lon="9.5676848"><ele>237.39999999999998</ele><time>2026-04-07T08:14:12.689Z</time></trkpt><trkpt lat="46.1460107" lon="9.5678654"><ele>237.0</ele><time>2026-04-07T08:14:14.688Z</time></trkpt><trkpt lat="46.1460169" lon="9.5680415"><ele>236.33333333333334</ele><time>2026-04-07T08:14:16.689Z</time></trkpt><trkpt lat="46.1460246" lon="9.5681405"><ele>235.66666666666669</ele><time>2026-04-07T08:14:17.689Z</time></trkpt><trkpt lat="46.1460372" lon="9.5682394"><ele>235.0</ele><time>2026-04-07T08:14:18.688Z</time></trkpt><trkpt lat="46.1460442" lon="9.5683332"><ele>234.33333333333334</ele><time>2026-04-07T08:14:19.688Z</time></trkpt><trkpt lat="46.1460654" lon="9.5685077"><ele>233.66666666666669</ele><time>2026-04-07T08:14:21.69Z</time></trkpt><trkpt lat="46.1460706" lon="9.5685986"><ele>233.0</ele><time>2026-04-07T08:14:22.688Z</time></trkpt><trkpt lat="46.146077" lon="9.5686898"><ele>232.28571428571428</ele><time>2026-04-07T08:14:23.689Z</time></trkpt><trkpt lat="46.1460895" lon="9.5687871"><ele>231.57142857142856</ele><time>2026-04-07T08:14:24.688Z</time></trkpt><trkpt lat="46.1460937" lon="9.5688799"><ele>230.85714285714283</ele><time>2026-04-07T08:14:25.69Z</time></trkpt><trkpt lat="46.146092" lon="9.5689763"><ele>230.14285714285714</ele><time>2026-04-07T08:14:26.688Z</time></trkpt><trkpt lat="46.1460943" lon="9.5690722"><ele>229.4285714285714</ele><time>2026-04-07T08:14:27.688Z</time></trkpt><trkpt lat="46.1460953" lon="9.5691741"><ele>228.7142857142857</ele><time>2026-04-07T08:14:28.689Z</time></trkpt><trkpt lat="46.1460993" lon="9.5692774"><ele>228.0</ele><time>2026-04-07T08:14:29.688Z</time></trkpt><trkpt lat="46.146106" lon="9.5693757"><ele>228.0</ele><time>2026-04-07T08:14:30.688Z</time></trkpt><trkpt lat="46.1461126" lon="9.5694776"><ele>227.99999999999997</ele><time>2026-04-07T08:14:31.688Z</time></trkpt><trkpt lat="46.1461163" lon="9.569574"><ele>228.0</ele><time>2026-04-07T08:14:32.688Z</time></trkpt><trkpt lat="46.1461233" lon="9.5696677"><ele>228.0</ele><time>2026-04-07T08:14:33.688Z</time></trkpt><trkpt lat="46.1461312" lon="9.569764"><ele>227.99999999999997</ele><time>2026-04-07T08:14:34.688Z</time></trkpt><trkpt lat="46.1461392" lon="9.5698606"><ele>228.0</ele><time>2026-04-07T08:14:35.687Z</time></trkpt><trkpt lat="46.1461433" lon="9.5699553"><ele>228.0</ele><time>2026-04-07T08:14:36.688Z</time></trkpt><trkpt lat="46.1461443" lon="9.5700476"><ele>227.8</ele><time>2026-04-07T08:14:37.689Z</time></trkpt><trkpt lat="46.1461452" lon="9.5702226"><ele>227.60000000000002</ele><time>2026-04-07T08:14:39.688Z</time></trkpt><trkpt lat="46.146146" lon="9.5703745"><ele>227.39999999999998</ele><time>2026-04-07T08:14:41.69Z</time></trkpt><trkpt lat="46.1461531" lon="9.5705391"><ele>227.2</ele><time>2026-04-07T08:14:43.687Z</time></trkpt><trkpt lat="46.1461548" lon="9.5706861"><ele>227.0</ele><time>2026-04-07T08:14:45.687Z</time></trkpt><trkpt lat="46.146155" lon="9.5708447"><ele>227.0</ele><time>2026-04-07T08:14:47.688Z</time></trkpt><trkpt lat="46.1461648" lon="9.5709997"><ele>227.0</ele><time>2026-04-07T08:14:49.689Z</time></trkpt><trkpt lat="46.1461727" lon="9.571139"><ele>227.0</ele><time>2026-04-07T08:14:51.688Z</time></trkpt><trkpt lat="46.1461972" lon="9.571273"><ele>227.0</ele><time>2026-04-07T08:14:53.689Z</time></trkpt><trkpt lat="46.1462302" lon="9.5713902"><ele>227.0</ele><time>2026-04-07T08:14:56.688Z</time></trkpt><trkpt lat="46.146275" lon="9.5714727"><ele>226.42857142857144</ele><time>2026-04-07T08:14:59.688Z</time></trkpt><trkpt lat="46.1463113" lon="9.5715549"><ele>225.8571428571429</ele><time>2026-04-07T08:15:02.689Z</time></trkpt><trkpt lat="46.1463603" lon="9.5716338"><ele>225.28571428571428</ele><time>2026-04-07T08:15:07.688Z</time></trkpt><trkpt lat="46.1464191" lon="9.571582"><ele>224.71428571428572</ele><time>2026-04-07T08:15:14.689Z</time></trkpt><trkpt lat="46.1464652" lon="9.5715067"><ele>224.14285714285714</ele><time>2026-04-07T08:15:20.688Z</time></trkpt><trkpt lat="46.1464903" lon="9.5714078"><ele>223.57142857142856</ele><time>2026-04-07T08:15:26.687Z</time></trkpt><trkpt lat="46.1464427" lon="9.5713368"><ele>223.0</ele><time>2026-04-07T08:15:30.688Z</time></trkpt><trkpt lat="46.1463932" lon="9.571251"><ele>223.57142857142856</ele><time>2026-04-07T08:15:34.689Z</time></trkpt><trkpt lat="46.1463645" lon="9.5711576"><ele>224.14285714285714</ele><time>2026-04-07T08:15:40.689Z</time></trkpt><trkpt lat="46.1463491" lon="9.5710474"><ele>224.71428571428572</ele><time>2026-04-07T08:15:45.689Z</time></trkpt><trkpt lat="46.1463503" lon="9.5709533"><ele>225.28571428571428</ele><time>2026-04-07T08:15:49.689Z</time></trkpt><trkpt lat="46.1463636" lon="9.5708491"><ele>225.8571428571429</ele><time>2026-04-07T08:15:53.689Z</time></trkpt><trkpt lat="46.1463749" lon="9.5707417"><ele>226.42857142857144</ele><time>2026-04-07T08:15:57.688Z</time></trkpt><trkpt lat="46.1463727" lon="9.5706447"><ele>227.0</ele><time>2026-04-07T08:16:01.687Z</time></trkpt><trkpt lat="46.14637" lon="9.5705371"><ele>227.0</ele><time>2026-04-07T08:16:06.689Z</time></trkpt><trkpt lat="46.1463665" lon="9.5704402"><ele>227.00000000000003</ele><time>2026-04-07T08:16:10.689Z</time></trkpt><trkpt lat="46.1463412" lon="9.5703284"><ele>227.0</ele><time>2026-04-07T08:16:14.688Z</time></trkpt><trkpt lat="46.1463329" lon="9.5702265"><ele>227.0</ele><time>2026-04-07T08:16:18.689Z</time></trkpt><trkpt lat="46.1463214" lon="9.5701226"><ele>227.00000000000003</ele><time>2026-04-07T08:16:22.687Z</time></trkpt><trkpt lat="46.1463263" lon="9.5700176"><ele>227.0</ele><time>2026-04-07T08:16:26.69Z</time></trkpt><trkpt lat="46.1463344" lon="9.5699122"><ele>227.0</ele><time>2026-04-07T08:16:30.69Z</time></trkpt><trkpt lat="46.1463426" lon="9.5698102"><ele>227.14285714285717</ele><time>2026-04-07T08:16:34.689Z</time></trkpt><trkpt lat="46.1463422" lon="9.5697176"><ele>227.2857142857143</ele><time>2026-04-07T08:16:38.69Z</time></trkpt><trkpt lat="46.1463519" lon="9.5696257"><ele>227.42857142857144</ele><time>2026-04-07T08:16:42.689Z</time></trkpt><trkpt lat="46.1463541" lon="9.5695115"><ele>227.57142857142856</ele><time>2026-04-07T08:16:46.688Z</time></trkpt><trkpt lat="46.1463622" lon="9.5694081"><ele>227.7142857142857</ele><time>2026-04-07T08:16:50.688Z</time></trkpt><trkpt lat="46.1463654" lon="9.5692919"><ele>227.85714285714283</ele><time>2026-04-07T08:16:55.689Z</time></trkpt><trkpt lat="46.1463822" lon="9.569184"><ele>228.0</ele><time>2026-04-07T08:17:00.69Z</time></trkpt><trkpt lat="46.1463965" lon="9.5690715"><ele>228.0</ele><time>2026-04-07T08:17:05.688Z</time></trkpt><trkpt lat="46.1464154" lon="9.5691682"><ele>227.99999999999997</ele><time>2026-04-07T08:17:11.689Z</time></trkpt><trkpt lat="46.1463984" lon="9.5692709"><ele>228.0</ele><time>2026-04-07T08:17:15.689Z</time></trkpt><trkpt lat="46.146393" lon="9.5693782"><ele>228.0</ele><time>2026-04-07T08:17:19.69Z</time></trkpt><trkpt lat="46.1463923" lon="9.5694889"><ele>227.99999999999997</ele><time>2026-04-07T08:17:23.69Z</time></trkpt><trkpt lat="46.1464038" lon="9.5695934"><ele>228.0</ele><time>2026-04-07T08:17:27.69Z</time></trkpt><trkpt lat="46.1464079" lon="9.5696914"><ele>228.0</ele><time>2026-04-07T08:17:31.689Z</time></trkpt><trkpt lat="46.1464214" lon="9.5697835"><ele>227.85714285714283</ele><time>2026-04-07T08:17:35.689Z</time></trkpt><trkpt lat="46.1464414" lon="9.5698901"><ele>227.7142857142857</ele><time>2026-04-07T08:17:39.689Z</time></trkpt><trkpt lat="46.1464433" lon="9.5699907"><ele>227.57142857142856</ele><time>2026-04-07T08:17:43.689Z</time></trkpt><trkpt lat="46.1464401" lon="9.5701077"><ele>227.42857142857144</ele><time>2026-04-07T08:17:47.689Z</time></trkpt><trkpt lat="46.1464585" lon="9.5702052"><ele>227.2857142857143</ele><time>2026-04-07T08:17:51.688Z</time></trkpt><trkpt lat="46.1464965" lon="9.5702922"><ele>227.14285714285717</ele><time>2026-04-07T08:17:55.689Z</time></trkpt><trkpt lat="46.1465288" lon="9.5703734"><ele>227.0</ele><time>2026-04-07T08:17:59.689Z</time></trkpt><trkpt lat="46.1465465" lon="9.5704762"><ele>227.0</ele><time>2026-04-07T08:18:03.689Z</time></trkpt><trkpt lat="46.1465648" lon="9.5705815"><ele>227.00000000000003</ele><time>2026-04-07T08:18:07.688Z</time></trkpt><trkpt lat="46.1465706" lon="9.5706895"><ele>227.0</ele><time>2026-04-07T08:18:11.689Z</time></trkpt><trkpt lat="46.1465519" lon="9.5708005"><ele>227.0</ele><time>2026-04-07T08:18:15.689Z</time></trkpt><trkpt lat="46.1465414" lon="9.5708903"><ele>227.00000000000003</ele><time>2026-04-07T08:18:18.689Z</time></trkpt><trkpt lat="46.1465438" lon="9.5709864"><ele>227.0</ele><time>2026-04-07T08:18:22.69Z</time></trkpt><trkpt lat="46.1465524" lon="9.5711064"><ele>227.0</ele><time>2026-04-07T08:18:26.689Z</time></trkpt><trkpt lat="46.1465754" lon="9.5712105"><ele>232.2857142857143</ele><time>2026-04-07T08:18:30.689Z</time></trkpt><trkpt lat="46.1466002" lon="9.571317"><ele>237.5714285714286</ele><time>2026-04-07T08:18:34.688Z</time></trkpt><trkpt lat="46.1466246" lon="9.5714072"><ele>242.85714285714286</ele><time>2026-04-07T08:18:38.689Z</time></trkpt><trkpt lat="46.1466462" lon="9.5714973"><ele>248.14285714285717</ele><time>2026-04-07T08:18:42.688Z</time></trkpt><trkpt lat="46.1466753" lon="9.5715835"><ele>253.42857142857144</ele><time>2026-04-07T08:18:46.688Z</time></trkpt><trkpt lat="46.1466961" lon="9.5716888"><ele>258.7142857142857</ele><time>2026-04-07T08:18:51.69Z</time></trkpt><trkpt lat="46.1467202" lon="9.5718004"><ele>264.0</ele><time>2026-04-07T08:18:56.689Z</time></trkpt><trkpt lat="46.1467344" lon="9.5718896"><ele>264.0</ele><time>2026-04-07T08:19:00.69Z</time></trkpt><trkpt lat="46.1467426" lon="9.5719802"><ele>264.0</ele><time>2026-04-07T08:19:05.689Z</time></trkpt><trkpt lat="46.1467606" lon="9.5720895"><ele>264.0</ele><time>2026-04-07T08:19:11.688Z</time></trkpt><trkpt lat="46.1467846" lon="9.5721824"><ele>264.0</ele><time>2026-04-07T08:19:15.688Z</time></trkpt><trkpt lat="46.1467907" lon="9.5722779"><ele>264.0</ele><time>2026-04-07T08:19:19.69Z</time></trkpt><trkpt lat="46.1468414" lon="9.5723326"><ele>264.0</ele><time>2026-04-07T08:19:24.689Z</time></trkpt><trkpt lat="46.1468481" lon="9.5722211"><ele>264.0</ele><time>2026-04-07T08:22:29.689Z</time></trkpt><trkpt lat="46.1468284" lon="9.5721231"><ele>264.0</ele><time>2026-04-07T08:22:33.689Z</time></trkpt><trkpt lat="46.1468321" lon="9.5720104"><ele>264.0</ele><time>2026-04-07T08:22:38.78Z</time></trkpt><trkpt lat="46.1468454" lon="9.5719205"><ele>264.0</ele><time>2026-04-07T08:22:43.778Z</time></trkpt><trkpt lat="46.1468345" lon="9.5718241"><ele>264.0</ele><time>2026-04-07T08:22:47.688Z</time></trkpt><trkpt lat="46.1468334" lon="9.5717254"><ele>264.0</ele><time>2026-04-07T08:22:52.69Z</time></trkpt><trkpt lat="46.1468409" lon="9.571634"><ele>264.0</ele><time>2026-04-07T08:22:57.783Z</time></trkpt><trkpt lat="46.1468308" lon="9.5715357"><ele>264.0</ele><time>2026-04-07T08:23:03.785Z</time></trkpt><trkpt lat="46.1468221" lon="9.5714449"><ele>264.0</ele><time>2026-04-07T08:23:08.689Z</time></trkpt><trkpt lat="46.1468266" lon="9.5713517"><ele>264.0</ele><time>2026-04-07T08:23:12.79Z</time></trkpt><trkpt lat="46.1468669" lon="9.5712798"><ele>264.0</ele><time>2026-04-07T08:23:16.689Z</time></trkpt><trkpt lat="46.1469379" lon="9.571323"><ele>264.0</ele><time>2026-04-07T08:23:21.69Z</time></trkpt><trkpt lat="46.1469981" lon="9.5714011"><ele>264.0</ele><time>2026-04-07T08:23:25.786Z</time></trkpt><trkpt lat="46.1469247" lon="9.5714945"><ele>264.0</ele><time>2026-04-07T08:23:27.69Z</time></trkpt><trkpt lat="46.1468696" lon="9.5715501"><ele>264.0</ele><time>2026-04-07T08:23:29.752Z</time></trkpt><trkpt lat="46.1468741" lon="9.5716483"><ele>264.0</ele><time>2026-04-07T08:23:33.689Z</time></trkpt><trkpt lat="46.1468982" lon="9.5717459"><ele>264.0</ele><time>2026-04-07T08:23:39.691Z</time></trkpt><trkpt lat="46.1469297" lon="9.5718293"><ele>264.0</ele><time>2026-04-07T08:23:44.69Z</time></trkpt><trkpt lat="46.1469672" lon="9.5719108"><ele>264.0</ele><time>2026-04-07T08:23:48.689Z</time></trkpt><trkpt lat="46.1469821" lon="9.5720019"><ele>264.0</ele><time>2026-04-07T08:23:52.689Z</time></trkpt><trkpt lat="46.14698" lon="9.5720986"><ele>264.0</ele><time>2026-04-07T08:23:56.691Z</time></trkpt><trkpt lat="46.1470029" lon="9.5721936"><ele>264.3333333333333</ele><time>2026-04-07T08:24:00.69Z</time></trkpt><trkpt lat="46.1470168" lon="9.5722925"><ele>264.6666666666667</ele><time>2026-04-07T08:24:05.69Z</time></trkpt><trkpt lat="46.1470317" lon="9.5723848"><ele>265.0</ele><time>2026-04-07T08:24:10.69Z</time></trkpt><trkpt lat="46.1470539" lon="9.5724845"><ele>265.33333333333337</ele><time>2026-04-07T08:24:15.69Z</time></trkpt><trkpt lat="46.1471236" lon="9.5724899"><ele>265.6666666666667</ele><time>2026-04-07T08:24:22.783Z</time></trkpt><trkpt lat="46.1471758" lon="9.5724352"><ele>266.0</ele><time>2026-04-07T08:24:27.785Z</time></trkpt><trkpt lat="46.1470969" lon="9.5721597"><ele>266.0</ele><time>2026-04-07T08:24:32.69Z</time></trkpt><trkpt lat="46.1471048" lon="9.5720604"><ele>266.0</ele><time>2026-04-07T08:24:36.691Z</time></trkpt><trkpt lat="46.1471034" lon="9.5719644"><ele>266.0</ele><time>2026-04-07T08:24:40.69Z</time></trkpt><trkpt lat="46.1470745" lon="9.5718732"><ele>266.0</ele><time>2026-04-07T08:24:44.691Z</time></trkpt><trkpt lat="46.1470503" lon="9.5717774"><ele>266.0</ele><time>2026-04-07T08:24:48.69Z</time></trkpt><trkpt lat="46.1470426" lon="9.5716777"><ele>266.0</ele><time>2026-04-07T08:24:52.69Z</time></trkpt><trkpt lat="46.1470163" lon="9.5715709"><ele>266.0</ele><time>2026-04-07T08:24:57.69Z</time></trkpt><trkpt lat="46.1470121" lon="9.5714714"><ele>265.7142857142857</ele><time>2026-04-07T08:25:01.69Z</time></trkpt><trkpt lat="46.1469946" lon="9.571381"><ele>265.42857142857144</ele><time>2026-04-07T08:25:05.69Z</time></trkpt><trkpt lat="46.1470066" lon="9.5712784"><ele>265.1428571428571</ele><time>2026-04-07T08:25:09.689Z</time></trkpt><trkpt lat="46.1470688" lon="9.5712465"><ele>264.8571428571429</ele><time>2026-04-07T08:25:13.69Z</time></trkpt><trkpt lat="46.1470699" lon="9.5713456"><ele>264.57142857142856</ele><time>2026-04-07T08:25:17.69Z</time></trkpt><trkpt lat="46.1470702" lon="9.5714465"><ele>264.2857142857143</ele><time>2026-04-07T08:25:21.69Z</time></trkpt><trkpt lat="46.1470801" lon="9.5715385"><ele>264.0</ele><time>2026-04-07T08:25:25.69Z</time></trkpt><trkpt lat="46.1470764" lon="9.5716348"><ele>264.0</ele><time>2026-04-07T08:25:30.689Z</time></trkpt><trkpt lat="46.1470817" lon="9.5717386"><ele>264.0</ele><time>2026-04-07T08:25:35.691Z</time></trkpt><trkpt lat="46.14709" lon="9.5718313"><ele>264.0</ele><time>2026-04-07T08:25:40.691Z</time></trkpt><trkpt lat="46.147118" lon="9.5719365"><ele>264.0</ele><time>2026-04-07T08:25:46.689Z</time></trkpt><trkpt lat="46.1471334" lon="9.5720361"><ele>264.0</ele><time>2026-04-07T08:25:51.689Z</time></trkpt><trkpt lat="46.147174" lon="9.5721167"><ele>264.0</ele><time>2026-04-07T08:25:56.69Z</time></trkpt><trkpt lat="46.147185" lon="9.5722086"><ele>264.0</ele><time>2026-04-07T08:26:00.691Z</time></trkpt><trkpt lat="46.1472013" lon="9.5722992"><ele>264.2857142857143</ele><time>2026-04-07T08:26:05.69Z</time></trkpt><trkpt lat="46.147233" lon="9.5723926"><ele>264.57142857142856</ele><time>2026-04-07T08:26:11.69Z</time></trkpt><trkpt lat="46.1472532" lon="9.5724873"><ele>264.8571428571429</ele><time>2026-04-07T08:26:16.69Z</time></trkpt><trkpt lat="46.1472695" lon="9.5725824"><ele>265.1428571428571</ele><time>2026-04-07T08:26:21.69Z</time></trkpt><trkpt lat="46.1472945" lon="9.5726792"><ele>265.42857142857144</ele><time>2026-04-07T08:26:27.69Z</time></trkpt><trkpt lat="46.1473133" lon="9.572774"><ele>265.7142857142857</ele><time>2026-04-07T08:26:32.69Z</time></trkpt><trkpt lat="46.1473274" lon="9.5728657"><ele>266.0</ele><time>2026-04-07T08:26:36.691Z</time></trkpt><trkpt lat="46.1473376" lon="9.5729725"><ele>266.0</ele><time>2026-04-07T08:26:41.69Z</time></trkpt><trkpt lat="46.1473459" lon="9.5730696"><ele>266.0</ele><time>2026-04-07T08:26:45.69Z</time></trkpt><trkpt lat="46.1474138" lon="9.5730633"><ele>266.0</ele><time>2026-04-07T08:26:50.69Z</time></trkpt><trkpt lat="46.1474084" lon="9.5729601"><ele>266.0</ele><time>2026-04-07T08:26:55.692Z</time></trkpt><trkpt lat="46.1473796" lon="9.5728714"><ele>266.0</ele><time>2026-04-07T08:27:00.689Z</time></trkpt><trkpt lat="46.1473476" lon="9.5727712"><ele>266.0</ele><time>2026-04-07T08:27:05.69Z</time></trkpt><trkpt lat="46.147366" lon="9.5726762"><ele>266.0</ele><time>2026-04-07T08:27:08.689Z</time></trkpt><trkpt lat="46.1473683" lon="9.57258"><ele>266.0</ele><time>2026-04-07T08:27:11.69Z</time></trkpt><trkpt lat="46.1473379" lon="9.5724952"><ele>266.0</ele><time>2026-04-07T08:27:15.691Z</time></trkpt><trkpt lat="46.1473355" lon="9.5723936"><ele>266.0</ele><time>2026-04-07T08:27:20.69Z</time></trkpt><trkpt lat="46.1473198" lon="9.5723055"><ele>266.0</ele><time>2026-04-07T08:27:25.691Z</time></trkpt><trkpt lat="46.1473122" lon="9.5722045"><ele>266.0</ele><time>2026-04-07T08:27:30.691Z</time></trkpt><trkpt lat="46.1473098" lon="9.5721033"><ele>266.0</ele><time>2026-04-07T08:27:35.69Z</time></trkpt><trkpt lat="46.1473029" lon="9.5720098"><ele>266.0</ele><time>2026-04-07T08:27:40.69Z</time></trkpt><trkpt lat="46.1473158" lon="9.5719113"><ele>265.7142857142857</ele><time>2026-04-07T08:27:45.69Z</time></trkpt><trkpt lat="46.1473269" lon="9.5718083"><ele>265.42857142857144</ele><time>2026-04-07T08:27:51.69Z</time></trkpt><trkpt lat="46.1473138" lon="9.571705"><ele>265.1428571428571</ele><time>2026-04-07T08:27:56.691Z</time></trkpt><trkpt lat="46.1473296" lon="9.571585"><ele>264.8571428571429</ele><time>2026-04-07T08:28:02.689Z</time></trkpt><trkpt lat="46.1473899" lon="9.5715526"><ele>264.57142857142856</ele><time>2026-04-07T08:28:06.689Z</time></trkpt><trkpt lat="46.1473958" lon="9.5716466"><ele>264.2857142857143</ele><time>2026-04-07T08:28:12.69Z</time></trkpt><trkpt lat="46.1473747" lon="9.5717396"><ele>264.0</ele><time>2026-04-07T08:28:17.692Z</time></trkpt><trkpt lat="46.1473739" lon="9.5718473"><ele>264.0</ele><time>2026-04-07T08:28:22.69Z</time></trkpt><trkpt lat="46.1473752" lon="9.5719473"><ele>264.0</ele><time>2026-04-07T08:28:26.689Z</time></trkpt><trkpt lat="46.1473708" lon="9.5720534"><ele>264.0</ele><time>2026-04-07T08:28:31.69Z</time></trkpt><trkpt lat="46.1473787" lon="9.5721456"><ele>264.0</ele><time>2026-04-07T08:28:35.69Z</time></trkpt><trkpt lat="46.1473926" lon="9.5722345"><ele>264.0</ele><time>2026-04-07T08:28:40.69Z</time></trkpt><trkpt lat="46.1474193" lon="9.5723315"><ele>264.0</ele><time>2026-04-07T08:28:45.691Z</time></trkpt><trkpt lat="46.1474271" lon="9.5724473"><ele>264.0</ele><time>2026-04-07T08:28:50.69Z</time></trkpt><trkpt lat="46.1474277" lon="9.5725466"><ele>272.85714285714283</ele><time>2026-04-07T08:28:54.692Z</time></trkpt><trkpt lat="46.1474406" lon="9.5726408"><ele>281.7142857142857</ele><time>2026-04-07T08:28:58.689Z</time></trkpt><trkpt lat="46.1475072" lon="9.5726218"><ele>290.57142857142856</ele><time>2026-04-07T08:29:03.691Z</time></trkpt><trkpt lat="46.1475093" lon="9.5725105"><ele>299.42857142857144</ele><time>2026-04-07T08:29:07.691Z</time></trkpt><trkpt lat="46.147499" lon="9.572417"><ele>308.2857142857143</ele><time>2026-04-07T08:29:11.69Z</time></trkpt><trkpt lat="46.1475143" lon="9.5723085"><ele>317.14285714285717</ele><time>2026-04-07T08:29:16.689Z</time></trkpt><trkpt lat="46.1475293" lon="9.5722114"><ele>326.0</ele><time>2026-04-07T08:29:21.69Z</time></trkpt><trkpt lat="46.1475397" lon="9.5721021"><ele>326.0</ele><time>2026-04-07T08:29:27.691Z</time></trkpt><trkpt lat="46.1475369" lon="9.5720096"><ele>326.0</ele><time>2026-04-07T08:29:31.69Z</time></trkpt><trkpt lat="46.1475467" lon="9.5719052"><ele>326.0</ele><time>2026-04-07T08:29:37.69Z</time></trkpt><trkpt lat="46.1475717" lon="9.5718184"><ele>326.0</ele><time>2026-04-07T08:29:42.69Z</time></trkpt><trkpt lat="46.1475888" lon="9.5717285"><ele>326.0</ele><time>2026-04-07T08:29:47.69Z</time></trkpt><trkpt lat="46.1476095" lon="9.571627"><ele>326.0</ele><time>2026-04-07T08:29:53.69Z</time></trkpt><trkpt lat="46.1476097" lon="9.571528"><ele>326.0</ele><time>2026-04-07T08:29:58.691Z</time></trkpt><trkpt lat="46.1476326" lon="9.5714301"><ele>326.0</ele><time>2026-04-07T08:30:02.691Z</time></trkpt><trkpt lat="46.1476472" lon="9.5713382"><ele>326.0</ele><time>2026-04-07T08:30:07.692Z</time></trkpt><trkpt lat="46.1476539" lon="9.5712318"><ele>326.0</ele><time>2026-04-07T08:30:12.691Z</time></trkpt><trkpt lat="46.1476543" lon="9.5711402"><ele>326.0</ele><time>2026-04-07T08:30:17.69Z</time></trkpt><trkpt lat="46.1476668" lon="9.5710295"><ele>326.0</ele><time>2026-04-07T08:30:23.691Z</time></trkpt><trkpt lat="46.1476695" lon="9.5709308"><ele>326.0</ele><time>2026-04-07T08:30:28.69Z</time></trkpt><trkpt lat="46.1476838" lon="9.5708284"><ele>326.0</ele><time>2026-04-07T08:30:33.69Z</time></trkpt><trkpt lat="46.1477412" lon="9.5707772"><ele>326.0</ele><time>2026-04-07T08:30:39.69Z</time></trkpt><trkpt lat="46.1477497" lon="9.5708673"><ele>326.0</ele><time>2026-04-07T08:30:43.692Z</time></trkpt><trkpt lat="46.1477375" lon="9.5709603"><ele>326.0</ele><time>2026-04-07T08:30:47.692Z</time></trkpt><trkpt lat="46.1478303" lon="9.571009"><ele>326.0</ele><time>2026-04-07T08:30:52.76Z</time></trkpt><trkpt lat="46.1478768" lon="9.5710781"><ele>326.0</ele><time>2026-04-07T08:30:58.795Z</time></trkpt><trkpt lat="46.1477748" lon="9.5711531"><ele>326.0</ele><time>2026-04-07T08:30:59.792Z</time></trkpt><trkpt lat="46.1477356" lon="9.5712264"><ele>326.0</ele><time>2026-04-07T08:31:01.691Z</time></trkpt><trkpt lat="46.1477467" lon="9.5713246"><ele>326.0</ele><time>2026-04-07T08:31:05.725Z</time></trkpt><trkpt lat="46.1477427" lon="9.5714319"><ele>326.0</ele><time>2026-04-07T08:31:10.69Z</time></trkpt><trkpt lat="46.1477373" lon="9.571527"><ele>326.0</ele><time>2026-04-07T08:31:14.692Z</time></trkpt><trkpt lat="46.1477397" lon="9.571663"><ele>326.0</ele><time>2026-04-07T08:31:20.69Z</time></trkpt><trkpt lat="46.1477398" lon="9.5717584"><ele>326.0</ele><time>2026-04-07T08:31:25.691Z</time></trkpt><trkpt lat="46.1477426" lon="9.5718684"><ele>326.0</ele><time>2026-04-07T08:31:30.691Z</time></trkpt><trkpt lat="46.147744" lon="9.5719731"><ele>326.0</ele><time>2026-04-07T08:31:34.69Z</time></trkpt><trkpt lat="46.1477372" lon="9.5720675"><ele>326.0</ele><time>2026-04-07T08:31:38.69Z</time></trkpt><trkpt lat="46.1477232" lon="9.5721659"><ele>326.0</ele><time>2026-04-07T08:31:43.689Z</time></trkpt><trkpt lat="46.1477457" lon="9.5722596"><ele>326.0</ele><time>2026-04-07T08:31:48.691Z</time></trkpt><trkpt lat="46.1477755" lon="9.5721596"><ele>326.0</ele><time>2026-04-07T08:31:53.69Z</time></trkpt><trkpt lat="46.1477809" lon="9.572049"><ele>326.0</ele><time>2026-04-07T08:31:57.691Z</time></trkpt><trkpt lat="46.1478023" lon="9.5719492"><ele>326.0</ele><time>2026-04-07T08:32:02.691Z</time></trkpt><trkpt lat="46.1478192" lon="9.5718465"><ele>326.0</ele><time>2026-04-07T08:32:07.69Z</time></trkpt><trkpt lat="46.1478303" lon="9.571747"><ele>326.0</ele><time>2026-04-07T08:32:11.691Z</time></trkpt><trkpt lat="46.1478296" lon="9.5716399"><ele>326.0</ele><time>2026-04-07T08:32:16.691Z</time></trkpt><trkpt lat="46.1478263" lon="9.5715262"><ele>326.0</ele><time>2026-04-07T08:32:21.691Z</time></trkpt><trkpt lat="46.1478391" lon="9.5714335"><ele>326.0</ele><time>2026-04-07T08:32:26.693Z</time></trkpt><trkpt lat="46.147867" lon="9.5713425"><ele>326.0</ele><time>2026-04-07T08:32:31.691Z</time></trkpt><trkpt lat="46.1479027" lon="9.5712576"><ele>326.0</ele><time>2026-04-07T08:32:36.691Z</time></trkpt><trkpt lat="46.1479387" lon="9.5711681"><ele>326.42857142857144</ele><time>2026-04-07T08:32:41.691Z</time></trkpt><trkpt lat="46.1479413" lon="9.5710574"><ele>326.85714285714283</ele><time>2026-04-07T08:32:46.691Z</time></trkpt><trkpt lat="46.1479201" lon="9.5709598"><ele>327.2857142857143</ele><time>2026-04-07T08:32:50.692Z</time></trkpt><trkpt lat="46.1478952" lon="9.5708658"><ele>327.7142857142857</ele><time>2026-04-07T08:32:54.692Z</time></trkpt><trkpt lat="46.1478938" lon="9.570758"><ele>328.1428571428571</ele><time>2026-04-07T08:32:59.691Z</time></trkpt><trkpt lat="46.1479014" lon="9.5706655"><ele>328.57142857142856</ele><time>2026-04-07T08:33:03.692Z</time></trkpt><trkpt lat="46.1479026" lon="9.5705581"><ele>329.0</ele><time>2026-04-07T08:33:08.691Z</time></trkpt><trkpt lat="46.1479101" lon="9.570449"><ele>329.85714285714283</ele><time>2026-04-07T08:33:13.691Z</time></trkpt><trkpt lat="46.1479194" lon="9.570349"><ele>330.7142857142857</ele><time>2026-04-07T08:33:18.691Z</time></trkpt><trkpt lat="46.1479287" lon="9.5702565"><ele>331.57142857142856</ele><time>2026-04-07T08:33:22.691Z</time></trkpt><trkpt lat="46.1479192" lon="9.5701506"><ele>332.42857142857144</ele><time>2026-04-07T08:33:27.692Z</time></trkpt><trkpt lat="46.1479012" lon="9.5700479"><ele>333.2857142857143</ele><time>2026-04-07T08:33:31.69Z</time></trkpt><trkpt lat="46.1478746" lon="9.5699628"><ele>334.1428571428571</ele><time>2026-04-07T08:33:37.69Z</time></trkpt><trkpt lat="46.1478305" lon="9.5698756"><ele>335.0</ele><time>2026-04-07T08:33:43.69Z</time></trkpt><trkpt lat="46.1478074" lon="9.5697859"><ele>335.0</ele><time>2026-04-07T08:33:50.691Z</time></trkpt><trkpt lat="46.1478261" lon="9.5696883"><ele>335.0</ele><time>2026-04-07T08:35:01.692Z</time></trkpt><trkpt lat="46.1478175" lon="9.5695512"><ele>335.0</ele><time>2026-04-07T08:35:04.691Z</time></trkpt><trkpt lat="46.1477859" lon="9.5694074"><ele>335.0</ele><time>2026-04-07T08:35:06.691Z</time></trkpt><trkpt lat="46.147752" lon="9.5692418"><ele>335.0</ele><time>2026-04-07T08:35:08.691Z</time></trkpt><trkpt lat="46.1477257" lon="9.5691431"><ele>337.1666666666667</ele><time>2026-04-07T08:35:09.692Z</time></trkpt><trkpt lat="46.1477045" lon="9.5690378"><ele>339.33333333333337</ele><time>2026-04-07T08:35:10.691Z</time></trkpt><trkpt lat="46.1476846" lon="9.5689294"><ele>341.5</ele><time>2026-04-07T08:35:11.692Z</time></trkpt><trkpt lat="46.1476624" lon="9.5688204"><ele>343.6666666666667</ele><time>2026-04-07T08:35:12.691Z</time></trkpt><trkpt lat="46.1476316" lon="9.5686987"><ele>345.8333333333333</ele><time>2026-04-07T08:35:13.692Z</time></trkpt><trkpt lat="46.1475933" lon="9.5685777"><ele>348.0</ele><time>2026-04-07T08:35:14.69Z</time></trkpt><trkpt lat="46.1475514" lon="9.5684527"><ele>348.59999999999997</ele><time>2026-04-07T08:35:15.691Z</time></trkpt><trkpt lat="46.1475108" lon="9.56833"><ele>349.2</ele><time>2026-04-07T08:35:16.691Z</time></trkpt><trkpt lat="46.1474768" lon="9.5681908"><ele>349.8</ele><time>2026-04-07T08:35:17.691Z</time></trkpt><trkpt lat="46.1474479" lon="9.5680483"><ele>350.4</ele><time>2026-04-07T08:35:18.692Z</time></trkpt><trkpt lat="46.1474213" lon="9.5678982"><ele>351.0</ele><time>2026-04-07T08:35:19.692Z</time></trkpt><trkpt lat="46.1473997" lon="9.5677543"><ele>338.2</ele><time>2026-04-07T08:35:20.69Z</time></trkpt><trkpt lat="46.1473771" lon="9.5676125"><ele>325.40000000000003</ele><time>2026-04-07T08:35:21.69Z</time></trkpt><trkpt lat="46.147345" lon="9.5674702"><ele>312.6</ele><time>2026-04-07T08:35:22.691Z</time></trkpt><trkpt lat="46.1473064" lon="9.5673347"><ele>299.8</ele><time>2026-04-07T08:35:23.69Z</time></trkpt><trkpt lat="46.1472609" lon="9.5671977"><ele>287.0</ele><time>2026-04-07T08:35:24.691Z</time></trkpt><trkpt lat="46.147251" lon="9.567057"><ele>290.0</ele><time>2026-04-07T08:35:25.691Z</time></trkpt><trkpt lat="46.1472158" lon="9.5669164"><ele>293.0</ele><time>2026-04-07T08:35:26.691Z</time></trkpt><trkpt lat="46.1471933" lon="9.5667639"><ele>296.0</ele><time>2026-04-07T08:35:27.692Z</time></trkpt><trkpt lat="46.1471764" lon="9.5666085"><ele>299.0</ele><time>2026-04-07T08:35:28.691Z</time></trkpt><trkpt lat="46.1471607" lon="9.566442"><ele>302.0</ele><time>2026-04-07T08:35:29.691Z</time></trkpt><trkpt lat="46.147118" lon="9.5662784"><ele>303.25</ele><time>2026-04-07T08:35:30.691Z</time></trkpt><trkpt lat="46.1470722" lon="9.5661025"><ele>304.5</ele><time>2026-04-07T08:35:31.691Z</time></trkpt><trkpt lat="46.1470232" lon="9.5659422"><ele>305.75</ele><time>2026-04-07T08:35:32.691Z</time></trkpt><trkpt lat="46.1469762" lon="9.565775"><ele>307.0</ele><time>2026-04-07T08:35:33.691Z</time></trkpt><trkpt lat="46.1469272" lon="9.5656027"><ele>307.0</ele><time>2026-04-07T08:35:34.69Z</time></trkpt><trkpt lat="46.1468882" lon="9.5654255"><ele>307.0</ele><time>2026-04-07T08:35:35.691Z</time></trkpt><trkpt lat="46.146863" lon="9.5652405"><ele>307.0</ele><time>2026-04-07T08:35:36.69Z</time></trkpt><trkpt lat="46.1468476" lon="9.5650551"><ele>307.0</ele><time>2026-04-07T08:35:37.691Z</time></trkpt><trkpt lat="46.1468424" lon="9.5648709"><ele>307.8</ele><time>2026-04-07T08:35:38.691Z</time></trkpt><trkpt lat="46.1468337" lon="9.5646963"><ele>308.6</ele><time>2026-04-07T08:35:39.692Z</time></trkpt><trkpt lat="46.1468286" lon="9.5645319"><ele>309.40000000000003</ele><time>2026-04-07T08:35:40.691Z</time></trkpt><trkpt lat="46.146834" lon="9.5643784"><ele>310.2</ele><time>2026-04-07T08:35:41.691Z</time></trkpt><trkpt lat="46.1468445" lon="9.5642464"><ele>311.0</ele><time>2026-04-07T08:35:42.692Z</time></trkpt><trkpt lat="46.1468726" lon="9.5641347"><ele>313.0</ele><time>2026-04-07T08:35:43.691Z</time></trkpt><trkpt lat="46.1468895" lon="9.5640198"><ele>315.0</ele><time>2026-04-07T08:35:44.693Z</time></trkpt><trkpt lat="46.1468865" lon="9.5639067"><ele>317.0</ele><time>2026-04-07T08:35:45.691Z</time></trkpt><trkpt lat="46.1468547" lon="9.5637918"><ele>319.0</ele><time>2026-04-07T08:35:46.691Z</time></trkpt><trkpt lat="46.1468173" lon="9.5636705"><ele>321.0</ele><time>2026-04-07T08:35:47.69Z</time></trkpt><trkpt lat="46.146785" lon="9.5635466"><ele>323.0</ele><time>2026-04-07T08:35:48.691Z</time></trkpt><trkpt lat="46.146746" lon="9.5634227"><ele>323.59999999999997</ele><time>2026-04-07T08:35:49.691Z</time></trkpt><trkpt lat="46.1466914" lon="9.5632814"><ele>324.2</ele><time>2026-04-07T08:35:50.692Z</time></trkpt><trkpt lat="46.1466524" lon="9.5631455"><ele>324.8</ele><time>2026-04-07T08:35:51.691Z</time></trkpt><trkpt lat="46.1466382" lon="9.563014"><ele>325.4</ele><time>2026-04-07T08:35:52.691Z</time></trkpt><trkpt lat="46.1466102" lon="9.5628506"><ele>326.0</ele><time>2026-04-07T08:35:53.692Z</time></trkpt><trkpt lat="46.1465782" lon="9.5627003"><ele>326.0</ele><time>2026-04-07T08:35:54.69Z</time></trkpt><trkpt lat="46.1465515" lon="9.5625404"><ele>326.0</ele><time>2026-04-07T08:35:55.692Z</time></trkpt><trkpt lat="46.1465341" lon="9.562376"><ele>326.0</ele><time>2026-04-07T08:35:56.692Z</time></trkpt><trkpt lat="46.1465193" lon="9.5622094"><ele>326.0</ele><time>2026-04-07T08:35:57.693Z</time></trkpt><trkpt lat="46.1465172" lon="9.5620292"><ele>308.25</ele><time>2026-04-07T08:35:58.69Z</time></trkpt><trkpt lat="46.1465205" lon="9.5618578"><ele>290.5</ele><time>2026-04-07T08:35:59.691Z</time></trkpt><trkpt lat="46.1465291" lon="9.561673"><ele>272.75</ele><time>2026-04-07T08:36:00.691Z</time></trkpt><trkpt lat="46.1465269" lon="9.5615073"><ele>255.0</ele><time>2026-04-07T08:36:01.691Z</time></trkpt><trkpt lat="46.1465025" lon="9.5613604"><ele>255.0</ele><time>2026-04-07T08:36:02.691Z</time></trkpt><trkpt lat="46.1465048" lon="9.561202"><ele>255.0</ele><time>2026-04-07T08:36:03.693Z</time></trkpt><trkpt lat="46.1465329" lon="9.5610604"><ele>255.0</ele><time>2026-04-07T08:36:04.691Z</time></trkpt><trkpt lat="46.1465753" lon="9.5609333"><ele>255.0</ele><time>2026-04-07T08:36:05.691Z</time></trkpt><trkpt lat="46.1466113" lon="9.5608211"><ele>255.0</ele><time>2026-04-07T08:36:06.693Z</time></trkpt><trkpt lat="46.1466337" lon="9.5607174"><ele>256.3333333333333</ele><time>2026-04-07T08:36:07.691Z</time></trkpt><trkpt lat="46.1466391" lon="9.5606125"><ele>257.6666666666667</ele><time>2026-04-07T08:36:08.691Z</time></trkpt><trkpt lat="46.1466406" lon="9.560517"><ele>259.0</ele><time>2026-04-07T08:36:09.692Z</time></trkpt><trkpt lat="46.1465448" lon="9.560369"><ele>260.33333333333337</ele><time>2026-04-07T08:36:11.691Z</time></trkpt><trkpt lat="46.1464797" lon="9.5602947"><ele>261.6666666666667</ele><time>2026-04-07T08:36:12.691Z</time></trkpt><trkpt lat="46.146421" lon="9.5602282"><ele>263.0</ele><time>2026-04-07T08:36:13.692Z</time></trkpt><trkpt lat="46.1463533" lon="9.5601773"><ele>263.0</ele><time>2026-04-07T08:36:14.692Z</time></trkpt><trkpt lat="46.1463035" lon="9.5601148"><ele>263.0</ele><time>2026-04-07T08:36:15.69Z</time></trkpt><trkpt lat="46.1462198" lon="9.5600078"><ele>263.0</ele><time>2026-04-07T08:36:17.691Z</time></trkpt><trkpt lat="46.1461523" lon="9.5600303"><ele>263.0</ele><time>2026-04-07T08:36:18.69Z</time></trkpt><trkpt lat="46.1461635" lon="9.5601436"><ele>263.0</ele><time>2026-04-07T08:36:20.692Z</time></trkpt><trkpt lat="46.1462341" lon="9.5602437"><ele>263.0</ele><time>2026-04-07T08:36:22.691Z</time></trkpt><trkpt lat="46.1463466" lon="9.5603085"><ele>263.0</ele><time>2026-04-07T08:36:24.69Z</time></trkpt><trkpt lat="46.1464036" lon="9.5603505"><ele>263.0</ele><time>2026-04-07T08:36:25.69Z</time></trkpt><trkpt lat="46.1464533" lon="9.5604321"><ele>263.0</ele><time>2026-04-07T08:36:26.691Z</time></trkpt><trkpt lat="46.146461" lon="9.5605587"><ele>263.0</ele><time>2026-04-07T08:36:27.692Z</time></trkpt><trkpt lat="46.1464786" lon="9.56067"><ele>263.0</ele><time>2026-04-07T08:36:28.691Z</time></trkpt><trkpt lat="46.1464663" lon="9.5607724"><ele>263.0</ele><time>2026-04-07T08:36:29.692Z</time></trkpt><trkpt lat="46.1464079" lon="9.560918"><ele>262.0</ele><time>2026-04-07T08:36:30.692Z</time></trkpt><trkpt lat="46.1463665" lon="9.5610399"><ele>261.0</ele><time>2026-04-07T08:36:31.692Z</time></trkpt><trkpt lat="46.1463261" lon="9.5611605"><ele>260.0</ele><time>2026-04-07T08:36:32.692Z</time></trkpt><trkpt lat="46.1462954" lon="9.5612928"><ele>259.0</ele><time>2026-04-07T08:36:33.692Z</time></trkpt><trkpt lat="46.1462827" lon="9.5614213"><ele>258.0</ele><time>2026-04-07T08:36:34.691Z</time></trkpt><trkpt lat="46.1462818" lon="9.5615673"><ele>257.4</ele><time>2026-04-07T08:36:35.692Z</time></trkpt><trkpt lat="46.1462854" lon="9.5617122"><ele>256.8</ele><time>2026-04-07T08:36:36.692Z</time></trkpt><trkpt lat="46.1462985" lon="9.5618427"><ele>256.2</ele><time>2026-04-07T08:36:37.691Z</time></trkpt><trkpt lat="46.1462661" lon="9.5619871"><ele>255.6</ele><time>2026-04-07T08:36:38.691Z</time></trkpt><trkpt lat="46.1462432" lon="9.5621339"><ele>255.0</ele><time>2026-04-07T08:36:39.691Z</time></trkpt><trkpt lat="46.1462288" lon="9.5622858"><ele>254.5</ele><time>2026-04-07T08:36:40.691Z</time></trkpt><trkpt lat="46.1462223" lon="9.5624411"><ele>254.0</ele><time>2026-04-07T08:36:41.69Z</time></trkpt><trkpt lat="46.1462143" lon="9.5626021"><ele>253.5</ele><time>2026-04-07T08:36:42.69Z</time></trkpt><trkpt lat="46.1462156" lon="9.562776"><ele>253.0</ele><time>2026-04-07T08:36:43.691Z</time></trkpt><trkpt lat="46.1462334" lon="9.5629365"><ele>253.0</ele><time>2026-04-07T08:36:44.693Z</time></trkpt><trkpt lat="46.1462468" lon="9.5631092"><ele>253.0</ele><time>2026-04-07T08:36:45.692Z</time></trkpt><trkpt lat="46.14627" lon="9.5632913"><ele>253.0</ele><time>2026-04-07T08:36:46.691Z</time></trkpt><trkpt lat="46.146292" lon="9.5634706"><ele>253.0</ele><time>2026-04-07T08:36:47.69Z</time></trkpt><trkpt lat="46.1463345" lon="9.5636367"><ele>252.2</ele><time>2026-04-07T08:36:48.692Z</time></trkpt><trkpt lat="46.1463471" lon="9.563806"><ele>251.4</ele><time>2026-04-07T08:36:49.692Z</time></trkpt><trkpt lat="46.1463613" lon="9.5639768"><ele>250.59999999999997</ele><time>2026-04-07T08:36:50.692Z</time></trkpt><trkpt lat="46.1463569" lon="9.5641231"><ele>249.79999999999998</ele><time>2026-04-07T08:36:51.691Z</time></trkpt><trkpt lat="46.1463443" lon="9.5642675"><ele>249.0</ele><time>2026-04-07T08:36:52.69Z</time></trkpt><trkpt lat="46.1462966" lon="9.564417"><ele>248.79999999999998</ele><time>2026-04-07T08:36:53.692Z</time></trkpt><trkpt lat="46.1462556" lon="9.5645342"><ele>248.59999999999997</ele><time>2026-04-07T08:36:54.69Z</time></trkpt><trkpt lat="46.1462165" lon="9.5646738"><ele>248.4</ele><time>2026-04-07T08:36:55.69Z</time></trkpt><trkpt lat="46.1461875" lon="9.5648244"><ele>248.2</ele><time>2026-04-07T08:36:56.691Z</time></trkpt><trkpt lat="46.1461633" lon="9.5649799"><ele>248.0</ele><time>2026-04-07T08:36:57.691Z</time></trkpt><trkpt lat="46.1461757" lon="9.5651394"><ele>248.0</ele><time>2026-04-07T08:36:58.692Z</time></trkpt><trkpt lat="46.1461796" lon="9.5652952"><ele>248.0</ele><time>2026-04-07T08:36:59.69Z</time></trkpt><trkpt lat="46.146178" lon="9.5654612"><ele>248.0</ele><time>2026-04-07T08:37:00.691Z</time></trkpt><trkpt lat="46.1461717" lon="9.5656364"><ele>248.0</ele><time>2026-04-07T08:37:01.693Z</time></trkpt><trkpt lat="46.1461771" lon="9.5658062"><ele>247.33333333333334</ele><time>2026-04-07T08:37:02.692Z</time></trkpt><trkpt lat="46.146184" lon="9.5659747"><ele>246.66666666666669</ele><time>2026-04-07T08:37:03.691Z</time></trkpt><trkpt lat="46.1462107" lon="9.5663313"><ele>246.0</ele><time>2026-04-07T08:37:05.692Z</time></trkpt><trkpt lat="46.1462225" lon="9.5665165"><ele>244.25</ele><time>2026-04-07T08:37:06.69Z</time></trkpt><trkpt lat="46.1462443" lon="9.5666966"><ele>242.5</ele><time>2026-04-07T08:37:07.691Z</time></trkpt><trkpt lat="46.1462529" lon="9.5668891"><ele>240.75</ele><time>2026-04-07T08:37:08.691Z</time></trkpt><trkpt lat="46.1462889" lon="9.5670581"><ele>239.0</ele><time>2026-04-07T08:37:09.691Z</time></trkpt><trkpt lat="46.1463076" lon="9.5672285"><ele>238.5</ele><time>2026-04-07T08:37:10.691Z</time></trkpt><trkpt lat="46.1463331" lon="9.5674143"><ele>238.0</ele><time>2026-04-07T08:37:11.691Z</time></trkpt><trkpt lat="46.1463576" lon="9.5676003"><ele>237.5</ele><time>2026-04-07T08:37:12.69Z</time></trkpt><trkpt lat="46.1463752" lon="9.5677718"><ele>237.0</ele><time>2026-04-07T08:37:13.691Z</time></trkpt><trkpt lat="46.1463914" lon="9.5679216"><ele>236.2</ele><time>2026-04-07T08:37:14.691Z</time></trkpt><trkpt lat="46.1463882" lon="9.5680814"><ele>235.39999999999998</ele><time>2026-04-07T08:37:15.691Z</time></trkpt><trkpt lat="46.1464053" lon="9.5682245"><ele>234.60000000000002</ele><time>2026-04-07T08:37:16.691Z</time></trkpt><trkpt lat="46.1464238" lon="9.5683633"><ele>233.8</ele><time>2026-04-07T08:37:17.69Z</time></trkpt><trkpt lat="46.1464279" lon="9.5685121"><ele>233.0</ele><time>2026-04-07T08:37:18.692Z</time></trkpt><trkpt lat="46.1464231" lon="9.568646"><ele>232.0</ele><time>2026-04-07T08:37:19.692Z</time></trkpt><trkpt lat="46.1464067" lon="9.5687968"><ele>231.0</ele><time>2026-04-07T08:37:20.692Z</time></trkpt><trkpt lat="46.146381" lon="9.5689513"><ele>230.0</ele><time>2026-04-07T08:37:21.693Z</time></trkpt><trkpt lat="46.1463601" lon="9.5691022"><ele>229.0</ele><time>2026-04-07T08:37:22.69Z</time></trkpt><trkpt lat="46.1463391" lon="9.569248"><ele>228.0</ele><time>2026-04-07T08:37:23.691Z</time></trkpt><trkpt lat="46.1463274" lon="9.5694053"><ele>229.60000000000002</ele><time>2026-04-07T08:37:24.69Z</time></trkpt><trkpt lat="46.1463165" lon="9.5695625"><ele>231.20000000000002</ele><time>2026-04-07T08:37:25.692Z</time></trkpt><trkpt lat="46.1463089" lon="9.5697145"><ele>232.8</ele><time>2026-04-07T08:37:26.691Z</time></trkpt><trkpt lat="46.1463011" lon="9.5698692"><ele>234.4</ele><time>2026-04-07T08:37:27.692Z</time></trkpt><trkpt lat="46.1462913" lon="9.570019"><ele>236.0</ele><time>2026-04-07T08:37:28.691Z</time></trkpt><trkpt lat="46.1462906" lon="9.5701586"><ele>236.00000000000003</ele><time>2026-04-07T08:37:29.691Z</time></trkpt><trkpt lat="46.1462941" lon="9.5702928"><ele>236.0</ele><time>2026-04-07T08:37:30.692Z</time></trkpt><trkpt lat="46.1462981" lon="9.5703991"><ele>236.0</ele><time>2026-04-07T08:37:31.692Z</time></trkpt><trkpt lat="46.1463077" lon="9.5705019"><ele>236.0</ele><time>2026-04-07T08:37:32.692Z</time></trkpt><trkpt lat="46.1463158" lon="9.5706038"><ele>236.00000000000003</ele><time>2026-04-07T08:37:33.69Z</time></trkpt><trkpt lat="46.1463168" lon="9.5707138"><ele>236.0</ele><time>2026-04-07T08:37:34.69Z</time></trkpt><trkpt lat="46.1463155" lon="9.5708252"><ele>234.20000000000002</ele><time>2026-04-07T08:37:35.691Z</time></trkpt><trkpt lat="46.1463228" lon="9.5709226"><ele>232.40000000000003</ele><time>2026-04-07T08:37:36.691Z</time></trkpt><trkpt lat="46.1463307" lon="9.5710925"><ele>230.6</ele><time>2026-04-07T08:37:38.69Z</time></trkpt><trkpt lat="46.1463689" lon="9.5712596"><ele>228.8</ele><time>2026-04-07T08:37:40.692Z</time></trkpt><trkpt lat="46.1464094" lon="9.5713843"><ele>227.0</ele><time>2026-04-07T08:37:42.691Z</time></trkpt><trkpt lat="46.1464409" lon="9.5715321"><ele>226.33333333333334</ele><time>2026-04-07T08:37:44.692Z</time></trkpt><trkpt lat="46.1464386" lon="9.5716531"><ele>225.66666666666669</ele><time>2026-04-07T08:37:47.693Z</time></trkpt><trkpt lat="46.1463722" lon="9.5716849"><ele>225.0</ele><time>2026-04-07T08:37:51.692Z</time></trkpt><trkpt lat="46.1463179" lon="9.571628"><ele>224.33333333333331</ele><time>2026-04-07T08:37:54.69Z</time></trkpt><trkpt lat="46.1462784" lon="9.5715222"><ele>223.66666666666666</ele><time>2026-04-07T08:37:57.691Z</time></trkpt><trkpt lat="46.1462512" lon="9.5714223"><ele>223.0</ele><time>2026-04-07T08:38:00.691Z</time></trkpt><trkpt lat="46.1462391" lon="9.5713121"><ele>222.99999999999997</ele><time>2026-04-07T08:38:03.693Z</time></trkpt><trkpt lat="46.1462236" lon="9.5711913"><ele>223.0</ele><time>2026-04-07T08:38:06.691Z</time></trkpt><trkpt lat="46.1462067" lon="9.5710942"><ele>223.0</ele><time>2026-04-07T08:38:08.692Z</time></trkpt><trkpt lat="46.1461805" lon="9.570969"><ele>223.0</ele><time>2026-04-07T08:38:11.691Z</time></trkpt><trkpt lat="46.1461692" lon="9.5708318"><ele>222.99999999999997</ele><time>2026-04-07T08:38:14.692Z</time></trkpt><trkpt lat="46.1461685" lon="9.5707291"><ele>223.0</ele><time>2026-04-07T08:38:16.691Z</time></trkpt><trkpt lat="46.146168" lon="9.570617"><ele>223.8</ele><time>2026-04-07T08:38:18.69Z</time></trkpt><trkpt lat="46.1461701" lon="9.5704909"><ele>224.60000000000002</ele><time>2026-04-07T08:38:20.69Z</time></trkpt><trkpt lat="46.1461646" lon="9.5703458"><ele>225.39999999999998</ele><time>2026-04-07T08:38:22.692Z</time></trkpt><trkpt lat="46.1461585" lon="9.5702"><ele>226.2</ele><time>2026-04-07T08:38:24.692Z</time></trkpt><trkpt lat="46.1461526" lon="9.5700444"><ele>227.0</ele><time>2026-04-07T08:38:26.692Z</time></trkpt><trkpt lat="46.1461425" lon="9.5698157"><ele>227.2</ele><time>2026-04-07T08:38:29.69Z</time></trkpt><trkpt lat="46.146127" lon="9.5696739"><ele>227.39999999999998</ele><time>2026-04-07T08:38:31.692Z</time></trkpt><trkpt lat="46.1461295" lon="9.5695303"><ele>227.60000000000002</ele><time>2026-04-07T08:38:33.69Z</time></trkpt><trkpt lat="46.1461191" lon="9.5693919"><ele>227.8</ele><time>2026-04-07T08:38:35.691Z</time></trkpt><trkpt lat="46.1461041" lon="9.569236"><ele>228.0</ele><time>2026-04-07T08:38:37.693Z</time></trkpt><trkpt lat="46.1460912" lon="9.569008"><ele>228.0</ele><time>2026-04-07T08:38:40.69Z</time></trkpt><trkpt lat="46.1460801" lon="9.5688503"><ele>228.0</ele><time>2026-04-07T08:38:42.691Z</time></trkpt><trkpt lat="46.1460696" lon="9.5686848"><ele>228.0</ele><time>2026-04-07T08:38:44.692Z</time></trkpt><trkpt lat="46.1460621" lon="9.5685934"><ele>228.0</ele><time>2026-04-07T08:38:45.691Z</time></trkpt><trkpt lat="46.1460559" lon="9.5684195"><ele>228.0</ele><time>2026-04-07T08:38:47.691Z</time></trkpt><trkpt lat="46.1460335" lon="9.5682549"><ele>229.0</ele><time>2026-04-07T08:38:49.692Z</time></trkpt><trkpt lat="46.1460246" lon="9.5681033"><ele>230.0</ele><time>2026-04-07T08:38:51.691Z</time></trkpt><trkpt lat="46.14602" lon="9.5679571"><ele>231.0</ele><time>2026-04-07T08:38:53.691Z</time></trkpt><trkpt lat="46.1460108" lon="9.567819"><ele>232.0</ele><time>2026-04-07T08:38:55.693Z</time></trkpt><trkpt lat="46.1460006" lon="9.5676932"><ele>233.0</ele><time>2026-04-07T08:38:57.691Z</time></trkpt><trkpt lat="46.1460044" lon="9.5675746"><ele>233.66666666666669</ele><time>2026-04-07T08:38:59.691Z</time></trkpt><trkpt lat="46.14601" lon="9.5674229"><ele>234.33333333333334</ele><time>2026-04-07T08:39:01.692Z</time></trkpt><trkpt lat="46.1459974" lon="9.5672905"><ele>235.0</ele><time>2026-04-07T08:39:03.691Z</time></trkpt><trkpt lat="46.145984" lon="9.5671886"><ele>235.66666666666669</ele><time>2026-04-07T08:39:05.692Z</time></trkpt><trkpt lat="46.1459847" lon="9.5670767"><ele>236.33333333333334</ele><time>2026-04-07T08:39:52.691Z</time></trkpt><trkpt lat="46.1459787" lon="9.5669512"><ele>237.0</ele><time>2026-04-07T08:39:56.692Z</time></trkpt><trkpt lat="46.1459601" lon="9.5668146"><ele>237.39999999999998</ele><time>2026-04-07T08:39:59.69Z</time></trkpt><trkpt lat="46.1459513" lon="9.5667021"><ele>237.79999999999998</ele><time>2026-04-07T08:40:01.692Z</time></trkpt><trkpt lat="46.1459294" lon="9.5665738"><ele>238.2</ele><time>2026-04-07T08:40:03.693Z</time></trkpt><trkpt lat="46.1459232" lon="9.5664377"><ele>238.6</ele><time>2026-04-07T08:40:05.692Z</time></trkpt><trkpt lat="46.1459037" lon="9.5662905"><ele>239.0</ele><time>2026-04-07T08:40:07.69Z</time></trkpt><trkpt lat="46.1458854" lon="9.5661425"><ele>240.16666666666669</ele><time>2026-04-07T08:40:09.692Z</time></trkpt><trkpt lat="46.145873" lon="9.565994"><ele>241.33333333333334</ele><time>2026-04-07T08:40:11.692Z</time></trkpt><trkpt lat="46.1458625" lon="9.5658625"><ele>242.5</ele><time>2026-04-07T08:40:13.692Z</time></trkpt><trkpt lat="46.1458485" lon="9.5657734"><ele>243.66666666666669</ele><time>2026-04-07T08:40:14.692Z</time></trkpt><trkpt lat="46.1458385" lon="9.5656741"><ele>244.83333333333334</ele><time>2026-04-07T08:40:15.692Z</time></trkpt><trkpt lat="46.1458462" lon="9.5655727"><ele>246.0</ele><time>2026-04-07T08:40:16.692Z</time></trkpt><trkpt lat="46.14582" lon="9.5653844"><ele>246.4</ele><time>2026-04-07T08:40:18.692Z</time></trkpt><trkpt lat="46.1457929" lon="9.5651998"><ele>246.8</ele><time>2026-04-07T08:40:20.693Z</time></trkpt><trkpt lat="46.1458044" lon="9.5651096"><ele>247.20000000000002</ele><time>2026-04-07T08:40:21.693Z</time></trkpt><trkpt lat="46.1457948" lon="9.5649199"><ele>247.60000000000002</ele><time>2026-04-07T08:40:23.691Z</time></trkpt><trkpt lat="46.145782" lon="9.564762"><ele>248.0</ele><time>2026-04-07T08:40:25.692Z</time></trkpt><trkpt lat="46.1457878" lon="9.564618"><ele>248.25</ele><time>2026-04-07T08:40:27.691Z</time></trkpt><trkpt lat="46.1457779" lon="9.5644175"><ele>248.5</ele><time>2026-04-07T08:40:29.693Z</time></trkpt><trkpt lat="46.1457643" lon="9.5642387"><ele>248.75</ele><time>2026-04-07T08:40:31.693Z</time></trkpt><trkpt lat="46.1457587" lon="9.5640513"><ele>249.0</ele><time>2026-04-07T08:40:33.692Z</time></trkpt><trkpt lat="46.1457479" lon="9.5639534"><ele>249.0</ele><time>2026-04-07T08:40:34.692Z</time></trkpt><trkpt lat="46.1457371" lon="9.5638423"><ele>248.99999999999997</ele><time>2026-04-07T08:40:35.692Z</time></trkpt><trkpt lat="46.1457217" lon="9.563741"><ele>248.99999999999997</ele><time>2026-04-07T08:40:36.691Z</time></trkpt><trkpt lat="46.1457011" lon="9.563562"><ele>249.0</ele><time>2026-04-07T08:40:38.691Z</time></trkpt><trkpt lat="46.1456848" lon="9.5634094"><ele>249.0</ele><time>2026-04-07T08:40:40.693Z</time></trkpt><trkpt lat="46.1456755" lon="9.5632299"><ele>244.83333333333334</ele><time>2026-04-07T08:40:42.692Z</time></trkpt><trkpt lat="46.1456607" lon="9.5631352"><ele>240.66666666666669</ele><time>2026-04-07T08:40:43.691Z</time></trkpt><trkpt lat="46.1456422" lon="9.5630322"><ele>236.5</ele><time>2026-04-07T08:40:44.692Z</time></trkpt><trkpt lat="46.1456358" lon="9.5629378"><ele>232.33333333333334</ele><time>2026-04-07T08:40:45.692Z</time></trkpt><trkpt lat="46.1456173" lon="9.5628408"><ele>228.16666666666669</ele><time>2026-04-07T08:40:46.691Z</time></trkpt><trkpt lat="46.145612" lon="9.562748"><ele>224.0</ele><time>2026-04-07T08:40:47.693Z</time></trkpt><trkpt lat="46.1456097" lon="9.5625647"><ele>223.16666666666669</ele><time>2026-04-07T08:40:49.69Z</time></trkpt><trkpt lat="46.1455914" lon="9.5623831"><ele>222.33333333333334</ele><time>2026-04-07T08:40:51.691Z</time></trkpt><trkpt lat="46.1455672" lon="9.5622181"><ele>221.5</ele><time>2026-04-07T08:40:53.691Z</time></trkpt><trkpt lat="46.1455554" lon="9.5621282"><ele>220.66666666666669</ele><time>2026-04-07T08:40:54.692Z</time></trkpt><trkpt lat="46.1455386" lon="9.5620343"><ele>219.83333333333334</ele><time>2026-04-07T08:40:55.692Z</time></trkpt><trkpt lat="46.1455281" lon="9.5619373"><ele>219.0</ele><time>2026-04-07T08:40:56.691Z</time></trkpt><trkpt lat="46.1455176" lon="9.5618444"><ele>218.83333333333334</ele><time>2026-04-07T08:40:57.692Z</time></trkpt><trkpt lat="46.1454959" lon="9.5616733"><ele>218.66666666666669</ele><time>2026-04-07T08:40:59.692Z</time></trkpt><trkpt lat="46.1454926" lon="9.5615786"><ele>218.5</ele><time>2026-04-07T08:41:00.692Z</time></trkpt><trkpt lat="46.145491" lon="9.5614737"><ele>218.33333333333334</ele><time>2026-04-07T08:41:01.691Z</time></trkpt><trkpt lat="46.1454716" lon="9.5613717"><ele>218.16666666666669</ele><time>2026-04-07T08:41:02.692Z</time></trkpt><trkpt lat="46.1454627" lon="9.5612598"><ele>218.0</ele><time>2026-04-07T08:41:03.692Z</time></trkpt><trkpt lat="46.1454542" lon="9.5611668"><ele>218.71428571428572</ele><time>2026-04-07T08:41:04.692Z</time></trkpt><trkpt lat="46.1454378" lon="9.5610724"><ele>219.42857142857144</ele><time>2026-04-07T08:41:05.691Z</time></trkpt><trkpt lat="46.1454259" lon="9.5609731"><ele>220.14285714285714</ele><time>2026-04-07T08:41:06.692Z</time></trkpt><trkpt lat="46.1454142" lon="9.5608804"><ele>220.85714285714286</ele><time>2026-04-07T08:41:07.692Z</time></trkpt><trkpt lat="46.145402" lon="9.5607805"><ele>221.57142857142856</ele><time>2026-04-07T08:41:08.692Z</time></trkpt><trkpt lat="46.1453978" lon="9.560685"><ele>222.28571428571428</ele><time>2026-04-07T08:41:09.691Z</time></trkpt><trkpt lat="46.1453872" lon="9.5605901"><ele>223.0</ele><time>2026-04-07T08:41:10.692Z</time></trkpt><trkpt lat="46.1453779" lon="9.5604892"><ele>222.99999999999997</ele><time>2026-04-07T08:41:11.692Z</time></trkpt><trkpt lat="46.1453793" lon="9.5603939"><ele>223.0</ele><time>2026-04-07T08:41:12.693Z</time></trkpt><trkpt lat="46.1453579" lon="9.5602123"><ele>223.0</ele><time>2026-04-07T08:41:14.691Z</time></trkpt><trkpt lat="46.1453528" lon="9.5601057"><ele>223.0</ele><time>2026-04-07T08:41:15.691Z</time></trkpt><trkpt lat="46.1453332" lon="9.5599977"><ele>222.99999999999997</ele><time>2026-04-07T08:41:16.692Z</time></trkpt><trkpt lat="46.1453164" lon="9.5599055"><ele>223.0</ele><time>2026-04-07T08:41:17.692Z</time></trkpt><trkpt lat="46.1453035" lon="9.5598003"><ele>223.49999999999997</ele><time>2026-04-07T08:41:18.693Z</time></trkpt><trkpt lat="46.1452892" lon="9.5596999"><ele>224.0</ele><time>2026-04-07T08:41:19.691Z</time></trkpt><trkpt lat="46.1452762" lon="9.5595907"><ele>224.5</ele><time>2026-04-07T08:41:20.692Z</time></trkpt><trkpt lat="46.1452655" lon="9.5594986"><ele>225.0</ele><time>2026-04-07T08:41:21.692Z</time></trkpt><trkpt lat="46.145251" lon="9.5594057"><ele>225.49999999999997</ele><time>2026-04-07T08:41:22.693Z</time></trkpt><trkpt lat="46.145243" lon="9.5593153"><ele>226.0</ele><time>2026-04-07T08:41:23.692Z</time></trkpt><trkpt lat="46.1452301" lon="9.5591557"><ele>226.0</ele><time>2026-04-07T08:41:25.692Z</time></trkpt><trkpt lat="46.1452082" lon="9.55901"><ele>226.00000000000003</ele><time>2026-04-07T08:41:27.691Z</time></trkpt><trkpt lat="46.1451833" lon="9.5588566"><ele>226.00000000000003</ele><time>2026-04-07T08:41:29.691Z</time></trkpt><trkpt lat="46.1451596" lon="9.5587293"><ele>226.0</ele><time>2026-04-07T08:41:31.692Z</time></trkpt><trkpt lat="46.1451423" lon="9.55857"><ele>226.0</ele><time>2026-04-07T08:41:33.692Z</time></trkpt><trkpt lat="46.1451377" lon="9.5584752"><ele>226.16666666666666</ele><time>2026-04-07T08:41:34.692Z</time></trkpt><trkpt lat="46.1451236" lon="9.5582838"><ele>226.33333333333331</ele><time>2026-04-07T08:41:36.691Z</time></trkpt><trkpt lat="46.1451262" lon="9.5581856"><ele>226.5</ele><time>2026-04-07T08:41:37.693Z</time></trkpt><trkpt lat="46.1451206" lon="9.5580836"><ele>226.66666666666669</ele><time>2026-04-07T08:41:38.692Z</time></trkpt><trkpt lat="46.1451112" lon="9.5579716"><ele>226.83333333333334</ele><time>2026-04-07T08:41:39.692Z</time></trkpt><trkpt lat="46.1451061" lon="9.5578768"><ele>227.0</ele><time>2026-04-07T08:41:40.692Z</time></trkpt><trkpt lat="46.1451012" lon="9.5577775"><ele>227.66666666666669</ele><time>2026-04-07T08:41:41.692Z</time></trkpt><trkpt lat="46.1450699" lon="9.5575873"><ele>228.33333333333334</ele><time>2026-04-07T08:41:43.691Z</time></trkpt><trkpt lat="46.1450522" lon="9.5574757"><ele>229.0</ele><time>2026-04-07T08:41:44.692Z</time></trkpt><trkpt lat="46.14504" lon="9.5573636"><ele>229.66666666666669</ele><time>2026-04-07T08:41:45.693Z</time></trkpt><trkpt lat="46.1450244" lon="9.5572523"><ele>230.33333333333334</ele><time>2026-04-07T08:41:46.691Z</time></trkpt><trkpt lat="46.1450116" lon="9.5571619"><ele>231.0</ele><time>2026-04-07T08:41:47.692Z</time></trkpt><trkpt lat="46.144995" lon="9.5570447"><ele>233.66666666666666</ele><time>2026-04-07T08:41:48.691Z</time></trkpt><trkpt lat="46.1449747" lon="9.5569254"><ele>236.33333333333331</ele><time>2026-04-07T08:41:49.691Z</time></trkpt><trkpt lat="46.1449484" lon="9.556816"><ele>239.0</ele><time>2026-04-07T08:41:50.691Z</time></trkpt><trkpt lat="46.1449393" lon="9.5566966"><ele>241.66666666666666</ele><time>2026-04-07T08:41:51.693Z</time></trkpt><trkpt lat="46.1449297" lon="9.5565931"><ele>244.33333333333331</ele><time>2026-04-07T08:41:52.693Z</time></trkpt><trkpt lat="46.1449141" lon="9.5564784"><ele>247.0</ele><time>2026-04-07T08:41:53.692Z</time></trkpt><trkpt lat="46.1448943" lon="9.5563723"><ele>247.0</ele><time>2026-04-07T08:41:54.69Z</time></trkpt><trkpt lat="46.1448843" lon="9.5562688"><ele>247.0</ele><time>2026-04-07T08:41:55.692Z</time></trkpt><trkpt lat="46.1448652" lon="9.5560497"><ele>247.0</ele><time>2026-04-07T08:41:57.692Z</time></trkpt><trkpt lat="46.144863" lon="9.5559406"><ele>247.0</ele><time>2026-04-07T08:41:58.691Z</time></trkpt><trkpt lat="46.1448615" lon="9.5558262"><ele>247.0</ele><time>2026-04-07T08:41:59.691Z</time></trkpt><trkpt lat="46.1448611" lon="9.5557189"><ele>243.16666666666666</ele><time>2026-04-07T08:42:00.692Z</time></trkpt><trkpt lat="46.1448626" lon="9.5556118"><ele>239.33333333333331</ele><time>2026-04-07T08:42:01.692Z</time></trkpt><trkpt lat="46.1448578" lon="9.5554965"><ele>235.5</ele><time>2026-04-07T08:42:02.691Z</time></trkpt><trkpt lat="46.1448478" lon="9.5553809"><ele>231.66666666666669</ele><time>2026-04-07T08:42:03.692Z</time></trkpt><trkpt lat="46.1448385" lon="9.5552644"><ele>227.83333333333334</ele><time>2026-04-07T08:42:04.693Z</time></trkpt><trkpt lat="46.1448322" lon="9.5551496"><ele>224.0</ele><time>2026-04-07T08:42:05.693Z</time></trkpt><trkpt lat="46.1448312" lon="9.5550434"><ele>223.83333333333334</ele><time>2026-04-07T08:42:06.692Z</time></trkpt><trkpt lat="46.1448265" lon="9.5549293"><ele>223.66666666666669</ele><time>2026-04-07T08:42:07.692Z</time></trkpt><trkpt lat="46.1448205" lon="9.5548124"><ele>223.5</ele><time>2026-04-07T08:42:08.691Z</time></trkpt><trkpt lat="46.1448126" lon="9.5547088"><ele>223.33333333333331</ele><time>2026-04-07T08:42:09.692Z</time></trkpt><trkpt lat="46.1448104" lon="9.5546027"><ele>223.16666666666666</ele><time>2026-04-07T08:42:10.692Z</time></trkpt><trkpt lat="46.1448079" lon="9.5544923"><ele>223.0</ele><time>2026-04-07T08:42:11.693Z</time></trkpt><trkpt lat="46.1448033" lon="9.5543819"><ele>222.99999999999997</ele><time>2026-04-07T08:42:12.692Z</time></trkpt><trkpt lat="46.1447937" lon="9.5542689"><ele>223.0</ele><time>2026-04-07T08:42:13.693Z</time></trkpt><trkpt lat="46.1447875" lon="9.5541595"><ele>223.0</ele><time>2026-04-07T08:42:14.692Z</time></trkpt><trkpt lat="46.1447879" lon="9.5540456"><ele>223.0</ele><time>2026-04-07T08:42:15.693Z</time></trkpt><trkpt lat="46.1447811" lon="9.5539322"><ele>222.99999999999997</ele><time>2026-04-07T08:42:16.691Z</time></trkpt><trkpt lat="46.1447651" lon="9.5537449"><ele>223.0</ele><time>2026-04-07T08:42:18.691Z</time></trkpt><trkpt lat="46.144755" lon="9.5536438"><ele>222.28571428571428</ele><time>2026-04-07T08:42:19.691Z</time></trkpt><trkpt lat="46.1447355" lon="9.5535405"><ele>221.57142857142856</ele><time>2026-04-07T08:42:20.692Z</time></trkpt><trkpt lat="46.1447214" lon="9.5534378"><ele>220.85714285714286</ele><time>2026-04-07T08:42:21.693Z</time></trkpt><trkpt lat="46.144708" lon="9.5533374"><ele>220.14285714285714</ele><time>2026-04-07T08:42:22.693Z</time></trkpt><trkpt lat="46.1447018" lon="9.5532267"><ele>219.42857142857144</ele><time>2026-04-07T08:42:23.692Z</time></trkpt><trkpt lat="46.1446806" lon="9.5531283"><ele>218.71428571428572</ele><time>2026-04-07T08:42:24.693Z</time></trkpt><trkpt lat="46.1446743" lon="9.5530247"><ele>218.0</ele><time>2026-04-07T08:42:25.692Z</time></trkpt><trkpt lat="46.1446576" lon="9.5529171"><ele>217.83333333333334</ele><time>2026-04-07T08:42:26.693Z</time></trkpt><trkpt lat="46.144612" lon="9.5527593"><ele>217.66666666666669</ele><time>2026-04-07T08:42:28.692Z</time></trkpt><trkpt lat="46.1445957" lon="9.5526614"><ele>217.5</ele><time>2026-04-07T08:42:29.692Z</time></trkpt><trkpt lat="46.1445766" lon="9.5525626"><ele>217.33333333333331</ele><time>2026-04-07T08:42:30.692Z</time></trkpt><trkpt lat="46.1445661" lon="9.552451"><ele>217.16666666666666</ele><time>2026-04-07T08:42:31.692Z</time></trkpt><trkpt lat="46.1445487" lon="9.5523388"><ele>217.0</ele><time>2026-04-07T08:42:32.691Z</time></trkpt><trkpt lat="46.1445325" lon="9.5522376"><ele>217.0</ele><time>2026-04-07T08:42:33.692Z</time></trkpt><trkpt lat="46.1445125" lon="9.552146"><ele>217.0</ele><time>2026-04-07T08:42:34.693Z</time></trkpt><trkpt lat="46.1444878" lon="9.5520541"><ele>217.0</ele><time>2026-04-07T08:42:35.691Z</time></trkpt><trkpt lat="46.1444523" lon="9.5519544"><ele>217.0</ele><time>2026-04-07T08:42:36.693Z</time></trkpt><trkpt lat="46.1444099" lon="9.551859"><ele>217.0</ele><time>2026-04-07T08:42:37.692Z</time></trkpt><trkpt lat="46.1443785" lon="9.5517666"><ele>217.0</ele><time>2026-04-07T08:42:38.693Z</time></trkpt><trkpt lat="46.1443567" lon="9.5516777"><ele>217.0</ele><time>2026-04-07T08:42:39.692Z</time></trkpt><trkpt lat="46.1443247" lon="9.5515734"><ele>217.16666666666666</ele><time>2026-04-07T08:42:40.692Z</time></trkpt><trkpt lat="46.1443028" lon="9.5514725"><ele>217.33333333333331</ele><time>2026-04-07T08:42:41.692Z</time></trkpt><trkpt lat="46.1443086" lon="9.5513658"><ele>217.5</ele><time>2026-04-07T08:42:42.693Z</time></trkpt><trkpt lat="46.1443043" lon="9.5512608"><ele>217.66666666666669</ele><time>2026-04-07T08:42:43.692Z</time></trkpt><trkpt lat="46.1442921" lon="9.5511569"><ele>217.83333333333334</ele><time>2026-04-07T08:42:44.692Z</time></trkpt><trkpt lat="46.1442809" lon="9.55106"><ele>218.0</ele><time>2026-04-07T08:42:45.692Z</time></trkpt><trkpt lat="46.1442338" lon="9.5509048"><ele>218.5</ele><time>2026-04-07T08:42:47.692Z</time></trkpt><trkpt lat="46.1441885" lon="9.5507618"><ele>219.0</ele><time>2026-04-07T08:42:49.693Z</time></trkpt><trkpt lat="46.1441059" lon="9.5506206"><ele>219.5</ele><time>2026-04-07T08:42:51.693Z</time></trkpt><trkpt lat="46.1440229" lon="9.5505162"><ele>220.0</ele><time>2026-04-07T08:42:53.692Z</time></trkpt><trkpt lat="46.1439258" lon="9.5504249"><ele>220.16666666666666</ele><time>2026-04-07T08:42:55.692Z</time></trkpt><trkpt lat="46.1438198" lon="9.5503144"><ele>220.33333333333331</ele><time>2026-04-07T08:42:57.691Z</time></trkpt><trkpt lat="46.1437655" lon="9.5502522"><ele>220.5</ele><time>2026-04-07T08:42:58.692Z</time></trkpt><trkpt lat="46.1437097" lon="9.5501843"><ele>220.66666666666669</ele><time>2026-04-07T08:42:59.692Z</time></trkpt><trkpt lat="46.1436448" lon="9.5501091"><ele>220.83333333333334</ele><time>2026-04-07T08:43:00.692Z</time></trkpt><trkpt lat="46.1435988" lon="9.5500363"><ele>221.0</ele><time>2026-04-07T08:43:01.691Z</time></trkpt><trkpt lat="46.1435561" lon="9.549957"><ele>221.0</ele><time>2026-04-07T08:43:02.691Z</time></trkpt><trkpt lat="46.1435267" lon="9.5498764"><ele>221.00000000000003</ele><time>2026-04-07T08:43:03.692Z</time></trkpt><trkpt lat="46.1435129" lon="9.5497083"><ele>221.00000000000003</ele><time>2026-04-07T08:43:05.691Z</time></trkpt><trkpt lat="46.1434824" lon="9.549543"><ele>221.0</ele><time>2026-04-07T08:43:07.693Z</time></trkpt><trkpt lat="46.1434118" lon="9.5494046"><ele>221.0</ele><time>2026-04-07T08:43:09.692Z</time></trkpt><trkpt lat="46.1433489" lon="9.5492879"><ele>220.60000000000002</ele><time>2026-04-07T08:43:11.691Z</time></trkpt><trkpt lat="46.1432806" lon="9.5491984"><ele>220.20000000000002</ele><time>2026-04-07T08:43:13.691Z</time></trkpt><trkpt lat="46.1432148" lon="9.5490976"><ele>219.79999999999998</ele><time>2026-04-07T08:43:15.692Z</time></trkpt><trkpt lat="46.1431451" lon="9.5489908"><ele>219.39999999999998</ele><time>2026-04-07T08:43:17.692Z</time></trkpt><trkpt lat="46.1430835" lon="9.5488617"><ele>219.0</ele><time>2026-04-07T08:43:19.693Z</time></trkpt><trkpt lat="46.1430098" lon="9.5487243"><ele>218.83333333333334</ele><time>2026-04-07T08:43:21.693Z</time></trkpt><trkpt lat="46.1429379" lon="9.5485748"><ele>218.66666666666669</ele><time>2026-04-07T08:43:23.691Z</time></trkpt><trkpt lat="46.1429051" lon="9.5484888"><ele>218.5</ele><time>2026-04-07T08:43:24.691Z</time></trkpt><trkpt lat="46.1428849" lon="9.5483969"><ele>218.33333333333334</ele><time>2026-04-07T08:43:25.691Z</time></trkpt><trkpt lat="46.1428734" lon="9.5483001"><ele>218.16666666666669</ele><time>2026-04-07T08:43:26.692Z</time></trkpt><trkpt lat="46.1428639" lon="9.5481936"><ele>218.0</ele><time>2026-04-07T08:43:27.693Z</time></trkpt><trkpt lat="46.1428513" lon="9.5480895"><ele>218.00000000000003</ele><time>2026-04-07T08:43:28.692Z</time></trkpt><trkpt lat="46.1428416" lon="9.5479858"><ele>218.0</ele><time>2026-04-07T08:43:29.693Z</time></trkpt><trkpt lat="46.1428269" lon="9.5478747"><ele>218.0</ele><time>2026-04-07T08:43:30.691Z</time></trkpt><trkpt lat="46.1428138" lon="9.5477636"><ele>218.0</ele><time>2026-04-07T08:43:31.692Z</time></trkpt><trkpt lat="46.1428077" lon="9.5476546"><ele>218.00000000000003</ele><time>2026-04-07T08:43:32.692Z</time></trkpt><trkpt lat="46.1428026" lon="9.5475388"><ele>218.0</ele><time>2026-04-07T08:43:33.692Z</time></trkpt><trkpt lat="46.1428068" lon="9.5474247"><ele>217.66666666666669</ele><time>2026-04-07T08:43:34.693Z</time></trkpt><trkpt lat="46.1428144" lon="9.547309"><ele>217.33333333333334</ele><time>2026-04-07T08:43:35.692Z</time></trkpt><trkpt lat="46.1428223" lon="9.5471969"><ele>217.0</ele><time>2026-04-07T08:43:36.691Z</time></trkpt><trkpt lat="46.1428265" lon="9.5470823"><ele>216.66666666666669</ele><time>2026-04-07T08:43:37.692Z</time></trkpt><trkpt lat="46.1428318" lon="9.5469748"><ele>216.33333333333334</ele><time>2026-04-07T08:43:38.692Z</time></trkpt><trkpt lat="46.1428457" lon="9.5468671"><ele>216.0</ele><time>2026-04-07T08:43:39.693Z</time></trkpt><trkpt lat="46.14285" lon="9.5467575"><ele>216.0</ele><time>2026-04-07T08:43:40.694Z</time></trkpt><trkpt lat="46.1428553" lon="9.5466484"><ele>216.0</ele><time>2026-04-07T08:43:41.693Z</time></trkpt><trkpt lat="46.1428566" lon="9.5465355"><ele>216.0</ele><time>2026-04-07T08:43:42.692Z</time></trkpt><trkpt lat="46.1428542" lon="9.546428"><ele>216.0</ele><time>2026-04-07T08:43:43.693Z</time></trkpt><trkpt lat="46.1428424" lon="9.5463211"><ele>216.0</ele><time>2026-04-07T08:43:44.692Z</time></trkpt><trkpt lat="46.1428273" lon="9.5462155"><ele>216.0</ele><time>2026-04-07T08:43:45.693Z</time></trkpt><trkpt lat="46.1428119" lon="9.5461041"><ele>216.0</ele><time>2026-04-07T08:43:46.692Z</time></trkpt><trkpt lat="46.1427978" lon="9.5460017"><ele>216.0</ele><time>2026-04-07T08:43:47.692Z</time></trkpt><trkpt lat="46.142782" lon="9.5458911"><ele>216.0</ele><time>2026-04-07T08:43:48.692Z</time></trkpt><trkpt lat="46.1427714" lon="9.5457936"><ele>216.0</ele><time>2026-04-07T08:43:49.692Z</time></trkpt><trkpt lat="46.1427501" lon="9.5456949"><ele>216.0</ele><time>2026-04-07T08:43:50.692Z</time></trkpt><trkpt lat="46.1427322" lon="9.5455943"><ele>216.0</ele><time>2026-04-07T08:43:51.692Z</time></trkpt><trkpt lat="46.1427179" lon="9.5454894"><ele>216.0</ele><time>2026-04-07T08:43:52.691Z</time></trkpt><trkpt lat="46.1427029" lon="9.545383"><ele>215.83333333333334</ele><time>2026-04-07T08:43:53.693Z</time></trkpt><trkpt lat="46.1426849" lon="9.5452757"><ele>215.66666666666669</ele><time>2026-04-07T08:43:54.692Z</time></trkpt><trkpt lat="46.1426701" lon="9.545164"><ele>215.5</ele><time>2026-04-07T08:43:55.692Z</time></trkpt><trkpt lat="46.1426502" lon="9.5450546"><ele>215.33333333333334</ele><time>2026-04-07T08:43:56.693Z</time></trkpt><trkpt lat="46.1426322" lon="9.5449442"><ele>215.16666666666669</ele><time>2026-04-07T08:43:57.692Z</time></trkpt><trkpt lat="46.1426199" lon="9.544837"><ele>215.0</ele><time>2026-04-07T08:43:58.693Z</time></trkpt><trkpt lat="46.1426071" lon="9.5447313"><ele>215.00000000000003</ele><time>2026-04-07T08:43:59.692Z</time></trkpt><trkpt lat="46.142596" lon="9.5446219"><ele>215.0</ele><time>2026-04-07T08:44:00.692Z</time></trkpt><trkpt lat="46.1425747" lon="9.5445195"><ele>215.0</ele><time>2026-04-07T08:44:01.692Z</time></trkpt><trkpt lat="46.1425474" lon="9.5444165"><ele>215.0</ele><time>2026-04-07T08:44:02.692Z</time></trkpt><trkpt lat="46.1425248" lon="9.5443178"><ele>215.00000000000003</ele><time>2026-04-07T08:44:03.692Z</time></trkpt><trkpt lat="46.142506" lon="9.544209"><ele>215.0</ele><time>2026-04-07T08:44:04.691Z</time></trkpt><trkpt lat="46.1424828" lon="9.5441021"><ele>214.85714285714286</ele><time>2026-04-07T08:44:05.692Z</time></trkpt><trkpt lat="46.1424726" lon="9.5439882"><ele>214.71428571428572</ele><time>2026-04-07T08:44:06.691Z</time></trkpt><trkpt lat="46.1424628" lon="9.5438772"><ele>214.57142857142858</ele><time>2026-04-07T08:44:07.692Z</time></trkpt><trkpt lat="46.1424529" lon="9.5437707"><ele>214.42857142857144</ele><time>2026-04-07T08:44:08.692Z</time></trkpt><trkpt lat="46.1424416" lon="9.5436681"><ele>214.28571428571428</ele><time>2026-04-07T08:44:09.693Z</time></trkpt><trkpt lat="46.1424402" lon="9.5435643"><ele>214.14285714285717</ele><time>2026-04-07T08:44:10.692Z</time></trkpt><trkpt lat="46.1424408" lon="9.5434616"><ele>214.0</ele><time>2026-04-07T08:44:11.691Z</time></trkpt><trkpt lat="46.142442" lon="9.5433577"><ele>214.16666666666666</ele><time>2026-04-07T08:44:12.693Z</time></trkpt><trkpt lat="46.1424399" lon="9.5432535"><ele>214.33333333333331</ele><time>2026-04-07T08:44:13.692Z</time></trkpt><trkpt lat="46.1424356" lon="9.5431553"><ele>214.5</ele><time>2026-04-07T08:44:14.691Z</time></trkpt><trkpt lat="46.1424322" lon="9.5430631"><ele>214.66666666666669</ele><time>2026-04-07T08:44:15.693Z</time></trkpt><trkpt lat="46.1424243" lon="9.5429221"><ele>214.83333333333334</ele><time>2026-04-07T08:44:17.692Z</time></trkpt><trkpt lat="46.142419" lon="9.5428174"><ele>215.0</ele><time>2026-04-07T08:44:19.691Z</time></trkpt><trkpt lat="46.142463" lon="9.542715"><ele>215.0</ele><time>2026-04-07T08:44:22.693Z</time></trkpt><trkpt lat="46.1425467" lon="9.5426686"><ele>215.0</ele><time>2026-04-07T08:44:25.693Z</time></trkpt><trkpt lat="46.142625" lon="9.5426547"><ele>215.0</ele><time>2026-04-07T08:44:27.692Z</time></trkpt><trkpt lat="46.1427072" lon="9.5426454"><ele>215.0</ele><time>2026-04-07T08:44:29.692Z</time></trkpt><trkpt lat="46.1428491" lon="9.5426084"><ele>215.0</ele><time>2026-04-07T08:44:32.692Z</time></trkpt><trkpt lat="46.1429337" lon="9.5425744"><ele>215.0</ele><time>2026-04-07T08:44:34.693Z</time></trkpt><trkpt lat="46.1430249" lon="9.5425334"><ele>215.0</ele><time>2026-04-07T08:44:36.692Z</time></trkpt><trkpt lat="46.1431159" lon="9.5424948"><ele>215.0</ele><time>2026-04-07T08:44:38.691Z</time></trkpt><trkpt lat="46.1432137" lon="9.5424454"><ele>215.0</ele><time>2026-04-07T08:44:40.694Z</time></trkpt><trkpt lat="46.1433052" lon="9.5423941"><ele>215.0</ele><time>2026-04-07T08:44:42.692Z</time></trkpt><trkpt lat="46.1433987" lon="9.5423472"><ele>215.33333333333334</ele><time>2026-04-07T08:44:44.693Z</time></trkpt><trkpt lat="46.1434811" lon="9.5423529"><ele>215.66666666666669</ele><time>2026-04-07T08:44:46.691Z</time></trkpt><trkpt lat="46.1435465" lon="9.5423685"><ele>216.0</ele><time>2026-04-07T08:45:04.692Z</time></trkpt><trkpt lat="46.1436092" lon="9.5424287"><ele>216.33333333333331</ele><time>2026-04-07T08:45:08.692Z</time></trkpt><trkpt lat="46.1436765" lon="9.5424818"><ele>216.66666666666666</ele><time>2026-04-07T08:45:11.692Z</time></trkpt><trkpt lat="46.1437328" lon="9.5425501"><ele>217.0</ele><time>2026-04-07T08:45:14.693Z</time></trkpt><trkpt lat="46.143806" lon="9.5426335"><ele>216.99999999999997</ele><time>2026-04-07T08:45:17.692Z</time></trkpt><trkpt lat="46.1438735" lon="9.5426869"><ele>217.0</ele><time>2026-04-07T08:45:19.694Z</time></trkpt><trkpt lat="46.1439508" lon="9.5426915"><ele>217.0</ele><time>2026-04-07T08:45:21.693Z</time></trkpt><trkpt lat="46.1440029" lon="9.5425935"><ele>217.0</ele><time>2026-04-07T08:45:23.692Z</time></trkpt><trkpt lat="46.1440045" lon="9.5424463"><ele>216.99999999999997</ele><time>2026-04-07T08:45:25.691Z</time></trkpt><trkpt lat="46.1439979" lon="9.5422973"><ele>217.0</ele><time>2026-04-07T08:45:27.692Z</time></trkpt><trkpt lat="46.1440006" lon="9.5421478"><ele>216.8</ele><time>2026-04-07T08:45:29.693Z</time></trkpt><trkpt lat="46.1440215" lon="9.5419967"><ele>216.6</ele><time>2026-04-07T08:45:31.693Z</time></trkpt><trkpt lat="46.1440481" lon="9.5418244"><ele>216.40000000000003</ele><time>2026-04-07T08:45:33.691Z</time></trkpt><trkpt lat="46.1440749" lon="9.5416546"><ele>216.20000000000002</ele><time>2026-04-07T08:45:35.691Z</time></trkpt><trkpt lat="46.1440889" lon="9.5415632"><ele>216.0</ele><time>2026-04-07T08:45:36.691Z</time></trkpt><trkpt lat="46.1441176" lon="9.5413801"><ele>216.0</ele><time>2026-04-07T08:45:38.693Z</time></trkpt><trkpt lat="46.1441324" lon="9.5412858"><ele>216.0</ele><time>2026-04-07T08:45:39.693Z</time></trkpt><trkpt lat="46.144145" lon="9.5411946"><ele>216.0</ele><time>2026-04-07T08:45:40.693Z</time></trkpt><trkpt lat="46.1441697" lon="9.5410219"><ele>216.0</ele><time>2026-04-07T08:45:42.691Z</time></trkpt><trkpt lat="46.1441822" lon="9.5409264"><ele>216.0</ele><time>2026-04-07T08:45:43.692Z</time></trkpt><trkpt lat="46.1441991" lon="9.5408265"><ele>216.0</ele><time>2026-04-07T08:45:44.692Z</time></trkpt><trkpt lat="46.1442159" lon="9.5407278"><ele>216.0</ele><time>2026-04-07T08:45:45.694Z</time></trkpt><trkpt lat="46.1442302" lon="9.5406285"><ele>216.0</ele><time>2026-04-07T08:45:46.692Z</time></trkpt><trkpt lat="46.1442431" lon="9.540526"><ele>216.0</ele><time>2026-04-07T08:45:47.693Z</time></trkpt><trkpt lat="46.144254" lon="9.5404319"><ele>216.0</ele><time>2026-04-07T08:45:48.692Z</time></trkpt><trkpt lat="46.144267" lon="9.5403404"><ele>216.0</ele><time>2026-04-07T08:45:49.692Z</time></trkpt><trkpt lat="46.1442795" lon="9.5402456"><ele>216.0</ele><time>2026-04-07T08:45:50.692Z</time></trkpt><trkpt lat="46.1442955" lon="9.5401507"><ele>216.0</ele><time>2026-04-07T08:45:51.693Z</time></trkpt><trkpt lat="46.1443144" lon="9.5400539"><ele>215.85714285714286</ele><time>2026-04-07T08:45:52.693Z</time></trkpt><trkpt lat="46.1443314" lon="9.5399535"><ele>215.71428571428572</ele><time>2026-04-07T08:45:53.692Z</time></trkpt><trkpt lat="46.1443472" lon="9.5398531"><ele>215.57142857142856</ele><time>2026-04-07T08:45:54.692Z</time></trkpt><trkpt lat="46.1443659" lon="9.539758"><ele>215.42857142857144</ele><time>2026-04-07T08:45:55.693Z</time></trkpt><trkpt lat="46.1443829" lon="9.5396572"><ele>215.2857142857143</ele><time>2026-04-07T08:45:56.693Z</time></trkpt><trkpt lat="46.1443986" lon="9.5395546"><ele>215.14285714285714</ele><time>2026-04-07T08:45:57.692Z</time></trkpt><trkpt lat="46.144414" lon="9.5394517"><ele>215.0</ele><time>2026-04-07T08:45:58.692Z</time></trkpt><trkpt lat="46.1444284" lon="9.5393524"><ele>214.85714285714286</ele><time>2026-04-07T08:45:59.692Z</time></trkpt><trkpt lat="46.1444427" lon="9.5392544"><ele>214.71428571428572</ele><time>2026-04-07T08:46:00.693Z</time></trkpt><trkpt lat="46.1444576" lon="9.5391525"><ele>214.57142857142858</ele><time>2026-04-07T08:46:01.693Z</time></trkpt><trkpt lat="46.1444735" lon="9.5390462"><ele>214.42857142857144</ele><time>2026-04-07T08:46:02.693Z</time></trkpt><trkpt lat="46.1444939" lon="9.5389423"><ele>214.28571428571428</ele><time>2026-04-07T08:46:03.692Z</time></trkpt><trkpt lat="46.1445114" lon="9.5388373"><ele>214.14285714285717</ele><time>2026-04-07T08:46:04.693Z</time></trkpt><trkpt lat="46.1445304" lon="9.538733"><ele>214.0</ele><time>2026-04-07T08:46:05.692Z</time></trkpt><trkpt lat="46.1445478" lon="9.5386307"><ele>213.99999999999997</ele><time>2026-04-07T08:46:06.692Z</time></trkpt><trkpt lat="46.144564" lon="9.5385236"><ele>214.0</ele><time>2026-04-07T08:46:07.692Z</time></trkpt><trkpt lat="46.1445791" lon="9.5384172"><ele>214.0</ele><time>2026-04-07T08:46:08.693Z</time></trkpt><trkpt lat="46.1445988" lon="9.5383097"><ele>214.0</ele><time>2026-04-07T08:46:09.693Z</time></trkpt><trkpt lat="46.1446149" lon="9.5382017"><ele>213.99999999999997</ele><time>2026-04-07T08:46:10.692Z</time></trkpt><trkpt lat="46.1446311" lon="9.5380918"><ele>214.0</ele><time>2026-04-07T08:46:11.693Z</time></trkpt><trkpt lat="46.144645" lon="9.537981"><ele>213.99999999999997</ele><time>2026-04-07T08:46:12.693Z</time></trkpt><trkpt lat="46.1446613" lon="9.5378719"><ele>214.0</ele><time>2026-04-07T08:46:13.693Z</time></trkpt><trkpt lat="46.1446812" lon="9.5377647"><ele>214.0</ele><time>2026-04-07T08:46:14.692Z</time></trkpt><trkpt lat="46.1446954" lon="9.5376554"><ele>214.0</ele><time>2026-04-07T08:46:15.693Z</time></trkpt><trkpt lat="46.1447104" lon="9.5375405"><ele>213.99999999999997</ele><time>2026-04-07T08:46:16.692Z</time></trkpt><trkpt lat="46.1447272" lon="9.537425"><ele>214.0</ele><time>2026-04-07T08:46:17.692Z</time></trkpt><trkpt lat="46.1447425" lon="9.5373161"><ele>213.99999999999997</ele><time>2026-04-07T08:46:18.693Z</time></trkpt><trkpt lat="46.1447591" lon="9.5371979"><ele>214.0</ele><time>2026-04-07T08:46:19.691Z</time></trkpt><trkpt lat="46.1447739" lon="9.5370847"><ele>214.0</ele><time>2026-04-07T08:46:20.691Z</time></trkpt><trkpt lat="46.1447945" lon="9.5369665"><ele>214.0</ele><time>2026-04-07T08:46:21.691Z</time></trkpt><trkpt lat="46.1448091" lon="9.5368584"><ele>213.99999999999997</ele><time>2026-04-07T08:46:22.692Z</time></trkpt><trkpt lat="46.1448269" lon="9.5367491"><ele>214.0</ele><time>2026-04-07T08:46:23.692Z</time></trkpt><trkpt lat="46.1448442" lon="9.5366436"><ele>214.00000000000003</ele><time>2026-04-07T08:46:24.692Z</time></trkpt><trkpt lat="46.1448598" lon="9.5365426"><ele>214.0</ele><time>2026-04-07T08:46:25.693Z</time></trkpt><trkpt lat="46.1448772" lon="9.5364407"><ele>214.0</ele><time>2026-04-07T08:46:26.693Z</time></trkpt><trkpt lat="46.1448919" lon="9.5363373"><ele>214.0</ele><time>2026-04-07T08:46:27.692Z</time></trkpt><trkpt lat="46.1449109" lon="9.5362297"><ele>214.0</ele><time>2026-04-07T08:46:28.694Z</time></trkpt><trkpt lat="46.1449265" lon="9.5361246"><ele>214.00000000000003</ele><time>2026-04-07T08:46:29.691Z</time></trkpt><trkpt lat="46.1449437" lon="9.5360189"><ele>214.0</ele><time>2026-04-07T08:46:30.692Z</time></trkpt><trkpt lat="46.1449586" lon="9.5359119"><ele>214.00000000000003</ele><time>2026-04-07T08:46:31.693Z</time></trkpt><trkpt lat="46.1449744" lon="9.5358106"><ele>214.0</ele><time>2026-04-07T08:46:32.692Z</time></trkpt><trkpt lat="46.1449918" lon="9.5357078"><ele>214.0</ele><time>2026-04-07T08:46:33.691Z</time></trkpt><trkpt lat="46.1450065" lon="9.5356058"><ele>214.0</ele><time>2026-04-07T08:46:34.692Z</time></trkpt><trkpt lat="46.1450201" lon="9.5355102"><ele>214.0</ele><time>2026-04-07T08:46:35.692Z</time></trkpt><trkpt lat="46.1450371" lon="9.5354025"><ele>214.00000000000003</ele><time>2026-04-07T08:46:36.693Z</time></trkpt><trkpt lat="46.1450534" lon="9.5352944"><ele>214.0</ele><time>2026-04-07T08:46:37.693Z</time></trkpt><trkpt lat="46.1450666" lon="9.5351922"><ele>213.99999999999997</ele><time>2026-04-07T08:46:38.692Z</time></trkpt><trkpt lat="46.145084" lon="9.5350968"><ele>214.0</ele><time>2026-04-07T08:46:39.691Z</time></trkpt><trkpt lat="46.1450979" lon="9.535002"><ele>214.0</ele><time>2026-04-07T08:46:40.692Z</time></trkpt><trkpt lat="46.1451116" lon="9.5349081"><ele>214.0</ele><time>2026-04-07T08:46:41.692Z</time></trkpt><trkpt lat="46.1451336" lon="9.5347407"><ele>213.99999999999997</ele><time>2026-04-07T08:46:43.692Z</time></trkpt><trkpt lat="46.1451498" lon="9.53465"><ele>214.0</ele><time>2026-04-07T08:46:44.692Z</time></trkpt><trkpt lat="46.1451667" lon="9.534551"><ele>214.0</ele><time>2026-04-07T08:46:45.693Z</time></trkpt><trkpt lat="46.1451781" lon="9.5344548"><ele>213.99999999999997</ele><time>2026-04-07T08:46:46.692Z</time></trkpt><trkpt lat="46.1452012" lon="9.5342905"><ele>213.99999999999997</ele><time>2026-04-07T08:46:48.692Z</time></trkpt><trkpt lat="46.145225" lon="9.534111"><ele>214.0</ele><time>2026-04-07T08:46:50.692Z</time></trkpt><trkpt lat="46.1452379" lon="9.5339496"><ele>214.0</ele><time>2026-04-07T08:46:52.692Z</time></trkpt><trkpt lat="46.14526" lon="9.5338121"><ele>214.2</ele><time>2026-04-07T08:46:54.693Z</time></trkpt><trkpt lat="46.1452849" lon="9.5336595"><ele>214.39999999999998</ele><time>2026-04-07T08:46:56.693Z</time></trkpt><trkpt lat="46.1452999" lon="9.5335096"><ele>214.6</ele><time>2026-04-07T08:46:58.693Z</time></trkpt><trkpt lat="46.1453229" lon="9.5333571"><ele>214.8</ele><time>2026-04-07T08:47:00.693Z</time></trkpt><trkpt lat="46.1453421" lon="9.533204"><ele>215.0</ele><time>2026-04-07T08:47:02.691Z</time></trkpt><trkpt lat="46.1453553" lon="9.5330594"><ele>215.0</ele><time>2026-04-07T08:47:04.692Z</time></trkpt><trkpt lat="46.145373" lon="9.5329111"><ele>215.0</ele><time>2026-04-07T08:47:06.694Z</time></trkpt><trkpt lat="46.1453981" lon="9.5327058"><ele>215.0</ele><time>2026-04-07T08:47:09.692Z</time></trkpt><trkpt lat="46.1454162" lon="9.5325647"><ele>215.0</ele><time>2026-04-07T08:47:11.693Z</time></trkpt><trkpt lat="46.1454295" lon="9.5324212"><ele>215.0</ele><time>2026-04-07T08:47:13.693Z</time></trkpt><trkpt lat="46.1454534" lon="9.5322845"><ele>215.0</ele><time>2026-04-07T08:47:15.692Z</time></trkpt><trkpt lat="46.1454837" lon="9.532148"><ele>215.0</ele><time>2026-04-07T08:47:17.691Z</time></trkpt><trkpt lat="46.1455032" lon="9.5320183"><ele>215.0</ele><time>2026-04-07T08:47:19.693Z</time></trkpt><trkpt lat="46.1455143" lon="9.5318986"><ele>215.0</ele><time>2026-04-07T08:47:21.693Z</time></trkpt><trkpt lat="46.1455342" lon="9.5317763"><ele>215.0</ele><time>2026-04-07T08:47:23.692Z</time></trkpt><trkpt lat="46.1455629" lon="9.5316374"><ele>215.4</ele><time>2026-04-07T08:47:25.692Z</time></trkpt><trkpt lat="46.1455701" lon="9.5315002"><ele>215.8</ele><time>2026-04-07T08:47:27.693Z</time></trkpt><trkpt lat="46.1455894" lon="9.5313742"><ele>216.2</ele><time>2026-04-07T08:47:29.691Z</time></trkpt><trkpt lat="46.1456107" lon="9.5312461"><ele>216.6</ele><time>2026-04-07T08:47:31.693Z</time></trkpt><trkpt lat="46.145621" lon="9.5311242"><ele>217.0</ele><time>2026-04-07T08:47:33.692Z</time></trkpt><trkpt lat="46.1456417" lon="9.5309932"><ele>217.39999999999998</ele><time>2026-04-07T08:47:35.692Z</time></trkpt><trkpt lat="46.1456614" lon="9.5308626"><ele>217.79999999999998</ele><time>2026-04-07T08:47:37.691Z</time></trkpt><trkpt lat="46.1456926" lon="9.5306651"><ele>218.2</ele><time>2026-04-07T08:47:40.692Z</time></trkpt><trkpt lat="46.1457114" lon="9.5305444"><ele>218.6</ele><time>2026-04-07T08:47:42.692Z</time></trkpt><trkpt lat="46.1457301" lon="9.5304193"><ele>219.0</ele><time>2026-04-07T08:47:44.691Z</time></trkpt><trkpt lat="46.1457514" lon="9.5302796"><ele>219.79999999999998</ele><time>2026-04-07T08:47:46.694Z</time></trkpt><trkpt lat="46.1457744" lon="9.5301403"><ele>220.59999999999997</ele><time>2026-04-07T08:47:48.691Z</time></trkpt><trkpt lat="46.1457911" lon="9.5299937"><ele>221.4</ele><time>2026-04-07T08:47:50.692Z</time></trkpt><trkpt lat="46.1458122" lon="9.529854"><ele>222.2</ele><time>2026-04-07T08:47:52.693Z</time></trkpt><trkpt lat="46.1458312" lon="9.5297041"><ele>223.0</ele><time>2026-04-07T08:47:54.692Z</time></trkpt><trkpt lat="46.1458541" lon="9.5295493"><ele>223.0</ele><time>2026-04-07T08:47:56.693Z</time></trkpt><trkpt lat="46.1458735" lon="9.5293936"><ele>223.0</ele><time>2026-04-07T08:47:58.692Z</time></trkpt><trkpt lat="46.1458903" lon="9.5292337"><ele>223.0</ele><time>2026-04-07T08:48:00.694Z</time></trkpt><trkpt lat="46.1459147" lon="9.5290668"><ele>223.0</ele><time>2026-04-07T08:48:02.692Z</time></trkpt><trkpt lat="46.1459346" lon="9.5289778"><ele>223.0</ele><time>2026-04-07T08:48:03.691Z</time></trkpt><trkpt lat="46.1459539" lon="9.528891"><ele>223.0</ele><time>2026-04-07T08:48:04.693Z</time></trkpt><trkpt lat="46.145975" lon="9.5288022"><ele>223.0</ele><time>2026-04-07T08:48:05.692Z</time></trkpt><trkpt lat="46.1459973" lon="9.528715"><ele>223.0</ele><time>2026-04-07T08:48:06.693Z</time></trkpt><trkpt lat="46.1460248" lon="9.5286304"><ele>223.0</ele><time>2026-04-07T08:48:07.693Z</time></trkpt><trkpt lat="46.146061" lon="9.5285413"><ele>223.0</ele><time>2026-04-07T08:48:08.693Z</time></trkpt><trkpt lat="46.1461023" lon="9.528454"><ele>223.0</ele><time>2026-04-07T08:48:09.693Z</time></trkpt><trkpt lat="46.1461465" lon="9.5283611"><ele>223.0</ele><time>2026-04-07T08:48:10.691Z</time></trkpt><trkpt lat="46.1461864" lon="9.5282714"><ele>223.16666666666666</ele><time>2026-04-07T08:48:11.692Z</time></trkpt><trkpt lat="46.1462306" lon="9.528179"><ele>223.33333333333331</ele><time>2026-04-07T08:48:12.693Z</time></trkpt><trkpt lat="46.1462773" lon="9.5280758"><ele>223.5</ele><time>2026-04-07T08:48:13.691Z</time></trkpt><trkpt lat="46.146321" lon="9.5279731"><ele>223.66666666666669</ele><time>2026-04-07T08:48:14.693Z</time></trkpt><trkpt lat="46.1463675" lon="9.5278735"><ele>223.83333333333334</ele><time>2026-04-07T08:48:15.694Z</time></trkpt><trkpt lat="46.1464118" lon="9.5277685"><ele>224.0</ele><time>2026-04-07T08:48:16.693Z</time></trkpt><trkpt lat="46.1464548" lon="9.5276645"><ele>223.83333333333334</ele><time>2026-04-07T08:48:17.692Z</time></trkpt><trkpt lat="46.1464974" lon="9.5275629"><ele>223.66666666666669</ele><time>2026-04-07T08:48:18.693Z</time></trkpt><trkpt lat="46.1465352" lon="9.5274567"><ele>223.5</ele><time>2026-04-07T08:48:19.693Z</time></trkpt><trkpt lat="46.146573" lon="9.5273545"><ele>223.33333333333331</ele><time>2026-04-07T08:48:20.693Z</time></trkpt><trkpt lat="46.1466099" lon="9.5272532"><ele>223.16666666666666</ele><time>2026-04-07T08:48:21.692Z</time></trkpt><trkpt lat="46.146646" lon="9.5271547"><ele>223.0</ele><time>2026-04-07T08:48:22.693Z</time></trkpt><trkpt lat="46.1466839" lon="9.5270515"><ele>222.99999999999997</ele><time>2026-04-07T08:48:23.692Z</time></trkpt><trkpt lat="46.1467224" lon="9.526941"><ele>223.0</ele><time>2026-04-07T08:48:24.693Z</time></trkpt><trkpt lat="46.1467602" lon="9.5268392"><ele>223.0</ele><time>2026-04-07T08:48:25.693Z</time></trkpt><trkpt lat="46.1467956" lon="9.526738"><ele>223.0</ele><time>2026-04-07T08:48:26.693Z</time></trkpt><trkpt lat="46.1468289" lon="9.5266409"><ele>222.99999999999997</ele><time>2026-04-07T08:48:27.692Z</time></trkpt><trkpt lat="46.1468646" lon="9.5265519"><ele>223.0</ele><time>2026-04-07T08:48:28.692Z</time></trkpt><trkpt lat="46.1469008" lon="9.5264534"><ele>223.0</ele><time>2026-04-07T08:48:29.693Z</time></trkpt><trkpt lat="46.1469382" lon="9.5263601"><ele>223.0</ele><time>2026-04-07T08:48:30.693Z</time></trkpt><trkpt lat="46.1469834" lon="9.5262703"><ele>223.0</ele><time>2026-04-07T08:48:31.693Z</time></trkpt><trkpt lat="46.1470262" lon="9.5261783"><ele>223.0</ele><time>2026-04-07T08:48:32.691Z</time></trkpt><trkpt lat="46.1470709" lon="9.5260846"><ele>223.0</ele><time>2026-04-07T08:48:33.693Z</time></trkpt><trkpt lat="46.147111" lon="9.5260007"><ele>223.0</ele><time>2026-04-07T08:48:34.694Z</time></trkpt><trkpt lat="46.1471497" lon="9.5259177"><ele>223.0</ele><time>2026-04-07T08:48:35.692Z</time></trkpt><trkpt lat="46.1471864" lon="9.5258325"><ele>223.2</ele><time>2026-04-07T08:48:36.693Z</time></trkpt><trkpt lat="46.1472268" lon="9.5257497"><ele>223.4</ele><time>2026-04-07T08:48:37.693Z</time></trkpt><trkpt lat="46.1472679" lon="9.5256716"><ele>223.59999999999997</ele><time>2026-04-07T08:48:38.692Z</time></trkpt><trkpt lat="46.1473031" lon="9.5255958"><ele>223.79999999999998</ele><time>2026-04-07T08:48:39.692Z</time></trkpt><trkpt lat="46.147341" lon="9.5255181"><ele>224.0</ele><time>2026-04-07T08:48:40.693Z</time></trkpt><trkpt lat="46.1474434" lon="9.5252795"><ele>224.00000000000003</ele><time>2026-04-07T08:48:43.692Z</time></trkpt><trkpt lat="46.1474803" lon="9.5252051"><ele>224.0</ele><time>2026-04-07T08:48:44.693Z</time></trkpt><trkpt lat="46.1475217" lon="9.5251305"><ele>224.0</ele><time>2026-04-07T08:48:45.692Z</time></trkpt><trkpt lat="46.1476042" lon="9.5249857"><ele>224.0</ele><time>2026-04-07T08:48:47.693Z</time></trkpt><trkpt lat="46.1476433" lon="9.5249061"><ele>224.00000000000003</ele><time>2026-04-07T08:48:48.691Z</time></trkpt><trkpt lat="46.1476818" lon="9.5248201"><ele>224.0</ele><time>2026-04-07T08:48:49.693Z</time></trkpt><trkpt lat="46.1477247" lon="9.5247415"><ele>224.0</ele><time>2026-04-07T08:48:50.693Z</time></trkpt><trkpt lat="46.1477607" lon="9.5246592"><ele>223.99999999999997</ele><time>2026-04-07T08:48:51.694Z</time></trkpt><trkpt lat="46.1478403" lon="9.524524"><ele>223.99999999999997</ele><time>2026-04-07T08:48:53.693Z</time></trkpt><trkpt lat="46.1479185" lon="9.5244049"><ele>224.0</ele><time>2026-04-07T08:48:55.693Z</time></trkpt><trkpt lat="46.1479672" lon="9.5242352"><ele>224.0</ele><time>2026-04-07T08:48:57.693Z</time></trkpt><trkpt lat="46.1480079" lon="9.5241519"><ele>223.85714285714286</ele><time>2026-04-07T08:48:58.692Z</time></trkpt><trkpt lat="46.1480464" lon="9.5240702"><ele>223.71428571428572</ele><time>2026-04-07T08:48:59.693Z</time></trkpt><trkpt lat="46.1480843" lon="9.5239881"><ele>223.57142857142856</ele><time>2026-04-07T08:49:00.692Z</time></trkpt><trkpt lat="46.1481276" lon="9.523907"><ele>223.42857142857144</ele><time>2026-04-07T08:49:01.691Z</time></trkpt><trkpt lat="46.1481697" lon="9.5238217"><ele>223.28571428571428</ele><time>2026-04-07T08:49:02.693Z</time></trkpt><trkpt lat="46.1482141" lon="9.5237373"><ele>223.14285714285714</ele><time>2026-04-07T08:49:03.692Z</time></trkpt><trkpt lat="46.1482517" lon="9.5236518"><ele>223.0</ele><time>2026-04-07T08:49:04.693Z</time></trkpt><trkpt lat="46.1482976" lon="9.5235626"><ele>222.83333333333331</ele><time>2026-04-07T08:49:05.694Z</time></trkpt><trkpt lat="46.1483391" lon="9.523471"><ele>222.66666666666666</ele><time>2026-04-07T08:49:06.693Z</time></trkpt><trkpt lat="46.1483803" lon="9.5233741"><ele>222.5</ele><time>2026-04-07T08:49:07.693Z</time></trkpt><trkpt lat="46.1484219" lon="9.5232683"><ele>222.33333333333331</ele><time>2026-04-07T08:49:08.693Z</time></trkpt><trkpt lat="46.1484607" lon="9.5231693"><ele>222.16666666666666</ele><time>2026-04-07T08:49:09.693Z</time></trkpt><trkpt lat="46.1484972" lon="9.5230697"><ele>222.0</ele><time>2026-04-07T08:49:10.691Z</time></trkpt><trkpt lat="46.1485371" lon="9.522964"><ele>221.5</ele><time>2026-04-07T08:49:11.693Z</time></trkpt><trkpt lat="46.1485784" lon="9.5228587"><ele>221.0</ele><time>2026-04-07T08:49:12.692Z</time></trkpt><trkpt lat="46.1486158" lon="9.5227503"><ele>220.5</ele><time>2026-04-07T08:49:13.693Z</time></trkpt><trkpt lat="46.1486548" lon="9.5226487"><ele>220.0</ele><time>2026-04-07T08:49:14.692Z</time></trkpt><trkpt lat="46.1486929" lon="9.5225437"><ele>219.5</ele><time>2026-04-07T08:49:15.691Z</time></trkpt><trkpt lat="46.1487324" lon="9.5224419"><ele>219.0</ele><time>2026-04-07T08:49:16.692Z</time></trkpt><trkpt lat="46.148776" lon="9.5223281"><ele>219.0</ele><time>2026-04-07T08:49:17.691Z</time></trkpt><trkpt lat="46.1488133" lon="9.5222148"><ele>219.0</ele><time>2026-04-07T08:49:18.693Z</time></trkpt><trkpt lat="46.1488474" lon="9.5220985"><ele>219.0</ele><time>2026-04-07T08:49:19.692Z</time></trkpt><trkpt lat="46.1488851" lon="9.521989"><ele>219.0</ele><time>2026-04-07T08:49:20.692Z</time></trkpt><trkpt lat="46.1489249" lon="9.5218817"><ele>219.0</ele><time>2026-04-07T08:49:21.693Z</time></trkpt><trkpt lat="46.1489625" lon="9.5217763"><ele>219.0</ele><time>2026-04-07T08:49:22.693Z</time></trkpt><trkpt lat="46.1489963" lon="9.5216672"><ele>219.0</ele><time>2026-04-07T08:49:23.692Z</time></trkpt><trkpt lat="46.1490332" lon="9.52156"><ele>219.0</ele><time>2026-04-07T08:49:24.692Z</time></trkpt><trkpt lat="46.1490732" lon="9.5214486"><ele>219.0</ele><time>2026-04-07T08:49:25.693Z</time></trkpt><trkpt lat="46.1491107" lon="9.5213439"><ele>219.0</ele><time>2026-04-07T08:49:26.694Z</time></trkpt><trkpt lat="46.149144" lon="9.5212432"><ele>219.0</ele><time>2026-04-07T08:49:27.692Z</time></trkpt><trkpt lat="46.1491795" lon="9.5211358"><ele>219.0</ele><time>2026-04-07T08:49:28.692Z</time></trkpt><trkpt lat="46.1492167" lon="9.5210292"><ele>219.0</ele><time>2026-04-07T08:49:29.693Z</time></trkpt><trkpt lat="46.1492542" lon="9.5209206"><ele>219.0</ele><time>2026-04-07T08:49:30.693Z</time></trkpt><trkpt lat="46.1492979" lon="9.5208063"><ele>219.0</ele><time>2026-04-07T08:49:31.692Z</time></trkpt><trkpt lat="46.1493378" lon="9.5206957"><ele>219.0</ele><time>2026-04-07T08:49:32.693Z</time></trkpt><trkpt lat="46.1493792" lon="9.5205819"><ele>219.0</ele><time>2026-04-07T08:49:33.691Z</time></trkpt><trkpt lat="46.1494232" lon="9.5204627"><ele>219.0</ele><time>2026-04-07T08:49:34.692Z</time></trkpt><trkpt lat="46.1494651" lon="9.5203437"><ele>218.0</ele><time>2026-04-07T08:49:35.692Z</time></trkpt><trkpt lat="46.1495043" lon="9.52022"><ele>216.99999999999997</ele><time>2026-04-07T08:49:36.693Z</time></trkpt><trkpt lat="46.1495451" lon="9.5200946"><ele>215.99999999999997</ele><time>2026-04-07T08:49:37.692Z</time></trkpt><trkpt lat="46.149587" lon="9.5199756"><ele>215.0</ele><time>2026-04-07T08:49:38.693Z</time></trkpt><trkpt lat="46.1496317" lon="9.5198588"><ele>214.0</ele><time>2026-04-07T08:49:39.692Z</time></trkpt><trkpt lat="46.1496727" lon="9.5197453"><ele>213.99999999999997</ele><time>2026-04-07T08:49:40.693Z</time></trkpt><trkpt lat="46.1497143" lon="9.5196266"><ele>214.0</ele><time>2026-04-07T08:49:41.694Z</time></trkpt><trkpt lat="46.1497503" lon="9.5195154"><ele>214.0</ele><time>2026-04-07T08:49:42.691Z</time></trkpt><trkpt lat="46.1497843" lon="9.519402"><ele>214.0</ele><time>2026-04-07T08:49:43.692Z</time></trkpt><trkpt lat="46.1498212" lon="9.5192916"><ele>213.99999999999997</ele><time>2026-04-07T08:49:44.694Z</time></trkpt><trkpt lat="46.1498531" lon="9.5191882"><ele>214.0</ele><time>2026-04-07T08:49:45.692Z</time></trkpt><trkpt lat="46.1498868" lon="9.5191052"><ele>214.39999999999998</ele><time>2026-04-07T08:49:46.693Z</time></trkpt><trkpt lat="46.1499141" lon="9.5190227"><ele>214.79999999999998</ele><time>2026-04-07T08:49:47.692Z</time></trkpt><trkpt lat="46.1499846" lon="9.5188656"><ele>215.20000000000002</ele><time>2026-04-07T08:49:49.693Z</time></trkpt><trkpt lat="46.150027" lon="9.5187909"><ele>215.60000000000002</ele><time>2026-04-07T08:49:50.692Z</time></trkpt><trkpt lat="46.1500499" lon="9.518631"><ele>216.0</ele><time>2026-04-07T08:49:52.693Z</time></trkpt><trkpt lat="46.1500603" lon="9.5184838"><ele>215.33333333333334</ele><time>2026-04-07T08:49:54.693Z</time></trkpt><trkpt lat="46.1500663" lon="9.5183903"><ele>214.66666666666669</ele><time>2026-04-07T08:49:56.693Z</time></trkpt><trkpt lat="46.1500031" lon="9.5183421"><ele>214.0</ele><time>2026-04-07T08:49:59.693Z</time></trkpt><trkpt lat="46.1499546" lon="9.5184027"><ele>213.33333333333334</ele><time>2026-04-07T08:50:01.693Z</time></trkpt><trkpt lat="46.1499013" lon="9.5184724"><ele>212.66666666666669</ele><time>2026-04-07T08:50:04.692Z</time></trkpt><trkpt lat="46.1498384" lon="9.5184489"><ele>212.0</ele><time>2026-04-07T08:50:58.692Z</time></trkpt><trkpt lat="46.1498469" lon="9.5182474"><ele>212.00000000000003</ele><time>2026-04-07T08:53:52.841Z</time></trkpt><trkpt lat="46.1498376" lon="9.5184098"><ele>212.0</ele><time>2026-04-07T08:54:19.693Z</time></trkpt><trkpt lat="46.1498846" lon="9.5184835"><ele>212.0</ele><time>2026-04-07T09:05:13.694Z</time></trkpt><trkpt lat="46.1499445" lon="9.5184144"><ele>212.0</ele><time>2026-04-07T09:05:33.693Z</time></trkpt><trkpt lat="46.1500066" lon="9.5183356"><ele>212.00000000000003</ele><time>2026-04-07T09:05:37.694Z</time></trkpt><trkpt lat="46.1500757" lon="9.5183359"><ele>212.0</ele><time>2026-04-07T09:05:41.694Z</time></trkpt><trkpt lat="46.1501503" lon="9.5183576"><ele>212.00000000000003</ele><time>2026-04-07T09:05:58.694Z</time></trkpt><trkpt lat="46.1502028" lon="9.5182686"><ele>212.0</ele><time>2026-04-07T09:06:01.694Z</time></trkpt><trkpt lat="46.1502322" lon="9.5181768"><ele>212.0</ele><time>2026-04-07T09:06:03.694Z</time></trkpt><trkpt lat="46.1502652" lon="9.5180615"><ele>212.0</ele><time>2026-04-07T09:06:05.695Z</time></trkpt><trkpt lat="46.1503057" lon="9.517938"><ele>212.00000000000003</ele><time>2026-04-07T09:06:07.695Z</time></trkpt><trkpt lat="46.1503463" lon="9.517804"><ele>212.0</ele><time>2026-04-07T09:06:09.694Z</time></trkpt><trkpt lat="46.1503894" lon="9.5176824"><ele>211.8</ele><time>2026-04-07T09:06:11.694Z</time></trkpt><trkpt lat="46.1504321" lon="9.5175456"><ele>211.6</ele><time>2026-04-07T09:06:13.694Z</time></trkpt><trkpt lat="46.1504813" lon="9.5173998"><ele>211.4</ele><time>2026-04-07T09:06:15.693Z</time></trkpt><trkpt lat="46.1505369" lon="9.5172553"><ele>211.20000000000002</ele><time>2026-04-07T09:06:17.694Z</time></trkpt><trkpt lat="46.1505916" lon="9.5171111"><ele>211.0</ele><time>2026-04-07T09:06:19.695Z</time></trkpt><trkpt lat="46.1506247" lon="9.5170267"><ele>211.0</ele><time>2026-04-07T09:06:20.694Z</time></trkpt><trkpt lat="46.1506494" lon="9.5169411"><ele>211.0</ele><time>2026-04-07T09:06:21.694Z</time></trkpt><trkpt lat="46.1506977" lon="9.5167773"><ele>211.0</ele><time>2026-04-07T09:06:23.695Z</time></trkpt><trkpt lat="46.1507228" lon="9.5166923"><ele>211.0</ele><time>2026-04-07T09:06:24.695Z</time></trkpt><trkpt lat="46.1507655" lon="9.5165202"><ele>211.0</ele><time>2026-04-07T09:06:26.693Z</time></trkpt><trkpt lat="46.1507979" lon="9.5163436"><ele>211.0</ele><time>2026-04-07T09:06:28.693Z</time></trkpt><trkpt lat="46.1508175" lon="9.5162512"><ele>211.0</ele><time>2026-04-07T09:06:29.694Z</time></trkpt><trkpt lat="46.1508361" lon="9.5161604"><ele>211.0</ele><time>2026-04-07T09:06:30.695Z</time></trkpt><trkpt lat="46.1508544" lon="9.5160591"><ele>211.0</ele><time>2026-04-07T09:06:31.694Z</time></trkpt><trkpt lat="46.1508706" lon="9.5159635"><ele>211.0</ele><time>2026-04-07T09:06:32.693Z</time></trkpt><trkpt lat="46.1508837" lon="9.5158634"><ele>211.0</ele><time>2026-04-07T09:06:33.694Z</time></trkpt><trkpt lat="46.1508915" lon="9.5157554"><ele>211.0</ele><time>2026-04-07T09:06:34.695Z</time></trkpt><trkpt lat="46.1508952" lon="9.5156556"><ele>211.0</ele><time>2026-04-07T09:06:35.693Z</time></trkpt><trkpt lat="46.1508971" lon="9.5155576"><ele>211.0</ele><time>2026-04-07T09:06:36.695Z</time></trkpt><trkpt lat="46.150901" lon="9.5154541"><ele>211.0</ele><time>2026-04-07T09:06:37.694Z</time></trkpt><trkpt lat="46.1509051" lon="9.5153468"><ele>211.0</ele><time>2026-04-07T09:06:38.694Z</time></trkpt><trkpt lat="46.1509117" lon="9.5152386"><ele>211.0</ele><time>2026-04-07T09:06:39.693Z</time></trkpt><trkpt lat="46.1509211" lon="9.5151224"><ele>211.0</ele><time>2026-04-07T09:06:40.693Z</time></trkpt><trkpt lat="46.1509327" lon="9.5150149"><ele>211.0</ele><time>2026-04-07T09:06:41.694Z</time></trkpt><trkpt lat="46.1509286" lon="9.5149124"><ele>210.85714285714286</ele><time>2026-04-07T09:06:42.694Z</time></trkpt><trkpt lat="46.1509375" lon="9.5148025"><ele>210.71428571428572</ele><time>2026-04-07T09:06:43.693Z</time></trkpt><trkpt lat="46.1509441" lon="9.5146868"><ele>210.57142857142856</ele><time>2026-04-07T09:06:44.695Z</time></trkpt><trkpt lat="46.1509487" lon="9.5145876"><ele>210.42857142857144</ele><time>2026-04-07T09:06:45.695Z</time></trkpt><trkpt lat="46.1509527" lon="9.5144801"><ele>210.28571428571428</ele><time>2026-04-07T09:06:46.694Z</time></trkpt><trkpt lat="46.150952" lon="9.514376"><ele>210.14285714285714</ele><time>2026-04-07T09:06:47.694Z</time></trkpt><trkpt lat="46.1509542" lon="9.5142733"><ele>210.0</ele><time>2026-04-07T09:06:48.694Z</time></trkpt><trkpt lat="46.1509547" lon="9.5141697"><ele>210.14285714285714</ele><time>2026-04-07T09:06:49.693Z</time></trkpt><trkpt lat="46.1509587" lon="9.5140593"><ele>210.28571428571428</ele><time>2026-04-07T09:06:50.694Z</time></trkpt><trkpt lat="46.1509568" lon="9.5139533"><ele>210.42857142857144</ele><time>2026-04-07T09:06:51.694Z</time></trkpt><trkpt lat="46.1509562" lon="9.513849"><ele>210.57142857142856</ele><time>2026-04-07T09:06:52.695Z</time></trkpt><trkpt lat="46.1509585" lon="9.5137424"><ele>210.71428571428572</ele><time>2026-04-07T09:06:53.694Z</time></trkpt><trkpt lat="46.1509608" lon="9.5136317"><ele>210.85714285714286</ele><time>2026-04-07T09:06:54.693Z</time></trkpt><trkpt lat="46.1509603" lon="9.513523"><ele>211.0</ele><time>2026-04-07T09:06:55.694Z</time></trkpt><trkpt lat="46.1509732" lon="9.5134107"><ele>210.99999999999997</ele><time>2026-04-07T09:06:56.694Z</time></trkpt><trkpt lat="46.1509751" lon="9.5133058"><ele>211.0</ele><time>2026-04-07T09:06:57.694Z</time></trkpt><trkpt lat="46.1509708" lon="9.5132105"><ele>211.0</ele><time>2026-04-07T09:06:58.694Z</time></trkpt><trkpt lat="46.1509735" lon="9.5131149"><ele>211.0</ele><time>2026-04-07T09:06:59.696Z</time></trkpt><trkpt lat="46.1509746" lon="9.5130216"><ele>210.99999999999997</ele><time>2026-04-07T09:07:00.694Z</time></trkpt><trkpt lat="46.1509763" lon="9.5129164"><ele>211.0</ele><time>2026-04-07T09:07:01.693Z</time></trkpt><trkpt lat="46.1509764" lon="9.512735"><ele>211.20000000000002</ele><time>2026-04-07T09:07:03.693Z</time></trkpt><trkpt lat="46.1509773" lon="9.5125479"><ele>211.4</ele><time>2026-04-07T09:07:05.693Z</time></trkpt><trkpt lat="46.1509845" lon="9.5124529"><ele>211.6</ele><time>2026-04-07T09:07:06.694Z</time></trkpt><trkpt lat="46.1509853" lon="9.5123601"><ele>211.8</ele><time>2026-04-07T09:07:07.693Z</time></trkpt><trkpt lat="46.1509882" lon="9.5122605"><ele>212.0</ele><time>2026-04-07T09:07:08.694Z</time></trkpt><trkpt lat="46.1509902" lon="9.5120701"><ele>212.0</ele><time>2026-04-07T09:07:10.695Z</time></trkpt><trkpt lat="46.15099" lon="9.5119765"><ele>212.0</ele><time>2026-04-07T09:07:11.694Z</time></trkpt><trkpt lat="46.1509895" lon="9.5118853"><ele>212.0</ele><time>2026-04-07T09:07:12.694Z</time></trkpt><trkpt lat="46.1509928" lon="9.5117068"><ele>212.0</ele><time>2026-04-07T09:07:14.695Z</time></trkpt><trkpt lat="46.1509908" lon="9.5115381"><ele>212.0</ele><time>2026-04-07T09:07:16.694Z</time></trkpt><trkpt lat="46.150999" lon="9.5113621"><ele>211.25</ele><time>2026-04-07T09:07:18.694Z</time></trkpt><trkpt lat="46.151003" lon="9.5111904"><ele>210.5</ele><time>2026-04-07T09:07:20.693Z</time></trkpt><trkpt lat="46.1510189" lon="9.5110081"><ele>209.75</ele><time>2026-04-07T09:07:22.693Z</time></trkpt><trkpt lat="46.1510229" lon="9.5108321"><ele>209.0</ele><time>2026-04-07T09:07:24.694Z</time></trkpt><trkpt lat="46.1510268" lon="9.5106623"><ele>209.0</ele><time>2026-04-07T09:07:26.694Z</time></trkpt><trkpt lat="46.1510345" lon="9.5104915"><ele>209.0</ele><time>2026-04-07T09:07:28.694Z</time></trkpt><trkpt lat="46.1510451" lon="9.510326"><ele>209.0</ele><time>2026-04-07T09:07:30.694Z</time></trkpt><trkpt lat="46.1510648" lon="9.5101537"><ele>209.0</ele><time>2026-04-07T09:07:32.694Z</time></trkpt><trkpt lat="46.1510745" lon="9.5099807"><ele>209.0</ele><time>2026-04-07T09:07:34.696Z</time></trkpt><trkpt lat="46.1510863" lon="9.5098899"><ele>209.0</ele><time>2026-04-07T09:07:35.693Z</time></trkpt><trkpt lat="46.1511133" lon="9.5097073"><ele>209.0</ele><time>2026-04-07T09:07:37.695Z</time></trkpt><trkpt lat="46.1511241" lon="9.5096168"><ele>209.0</ele><time>2026-04-07T09:07:38.696Z</time></trkpt><trkpt lat="46.1511502" lon="9.5094601"><ele>209.0</ele><time>2026-04-07T09:07:40.696Z</time></trkpt><trkpt lat="46.1511648" lon="9.5092872"><ele>209.0</ele><time>2026-04-07T09:07:42.694Z</time></trkpt><trkpt lat="46.1511658" lon="9.5091294"><ele>209.0</ele><time>2026-04-07T09:07:44.694Z</time></trkpt><trkpt lat="46.151173" lon="9.508947"><ele>209.0</ele><time>2026-04-07T09:07:46.695Z</time></trkpt><trkpt lat="46.1511611" lon="9.5087806"><ele>209.0</ele><time>2026-04-07T09:07:48.693Z</time></trkpt><trkpt lat="46.1511481" lon="9.5086141"><ele>209.6</ele><time>2026-04-07T09:07:50.694Z</time></trkpt><trkpt lat="46.1511148" lon="9.5084529"><ele>210.2</ele><time>2026-04-07T09:07:52.694Z</time></trkpt><trkpt lat="46.1510928" lon="9.508367"><ele>210.79999999999998</ele><time>2026-04-07T09:07:53.694Z</time></trkpt><trkpt lat="46.1510523" lon="9.5082027"><ele>211.39999999999998</ele><time>2026-04-07T09:07:55.693Z</time></trkpt><trkpt lat="46.1510137" lon="9.5080526"><ele>212.0</ele><time>2026-04-07T09:07:57.694Z</time></trkpt><trkpt lat="46.1509723" lon="9.5078929"><ele>212.5</ele><time>2026-04-07T09:07:59.694Z</time></trkpt><trkpt lat="46.1509173" lon="9.5077342"><ele>213.0</ele><time>2026-04-07T09:08:01.693Z</time></trkpt><trkpt lat="46.1508662" lon="9.5075745"><ele>213.5</ele><time>2026-04-07T09:08:03.694Z</time></trkpt><trkpt lat="46.1508308" lon="9.5074152"><ele>214.0</ele><time>2026-04-07T09:08:05.695Z</time></trkpt><trkpt lat="46.1507943" lon="9.5072513"><ele>214.0</ele><time>2026-04-07T09:08:07.695Z</time></trkpt><trkpt lat="46.1507508" lon="9.5070968"><ele>214.0</ele><time>2026-04-07T09:08:09.693Z</time></trkpt><trkpt lat="46.1507029" lon="9.5069411"><ele>214.0</ele><time>2026-04-07T09:08:11.694Z</time></trkpt><trkpt lat="46.1506582" lon="9.5067979"><ele>214.0</ele><time>2026-04-07T09:08:13.694Z</time></trkpt><trkpt lat="46.1506293" lon="9.5066369"><ele>213.0</ele><time>2026-04-07T09:08:15.695Z</time></trkpt><trkpt lat="46.1505858" lon="9.5064742"><ele>212.0</ele><time>2026-04-07T09:08:17.694Z</time></trkpt><trkpt lat="46.1505438" lon="9.5063304"><ele>211.0</ele><time>2026-04-07T09:08:19.695Z</time></trkpt><trkpt lat="46.1505115" lon="9.5061666"><ele>210.0</ele><time>2026-04-07T09:08:21.693Z</time></trkpt><trkpt lat="46.1504642" lon="9.5060184"><ele>210.0</ele><time>2026-04-07T09:08:23.695Z</time></trkpt><trkpt lat="46.1504251" lon="9.505855"><ele>210.0</ele><time>2026-04-07T09:08:25.695Z</time></trkpt><trkpt lat="46.1503824" lon="9.5057023"><ele>210.0</ele><time>2026-04-07T09:08:27.693Z</time></trkpt><trkpt lat="46.1503392" lon="9.5055385"><ele>210.0</ele><time>2026-04-07T09:08:29.695Z</time></trkpt><trkpt lat="46.1502978" lon="9.5053672"><ele>210.4</ele><time>2026-04-07T09:08:31.695Z</time></trkpt><trkpt lat="46.1502726" lon="9.5052808"><ele>210.8</ele><time>2026-04-07T09:08:32.694Z</time></trkpt><trkpt lat="46.1502437" lon="9.5051098"><ele>211.2</ele><time>2026-04-07T09:08:34.694Z</time></trkpt><trkpt lat="46.1502299" lon="9.5050203"><ele>211.6</ele><time>2026-04-07T09:08:35.693Z</time></trkpt><trkpt lat="46.1502103" lon="9.5048684"><ele>212.0</ele><time>2026-04-07T09:08:37.694Z</time></trkpt><trkpt lat="46.1501986" lon="9.5046965"><ele>212.0</ele><time>2026-04-07T09:08:39.695Z</time></trkpt><trkpt lat="46.1501953" lon="9.5046037"><ele>212.0</ele><time>2026-04-07T09:08:40.693Z</time></trkpt><trkpt lat="46.1501827" lon="9.5044225"><ele>212.0</ele><time>2026-04-07T09:08:42.694Z</time></trkpt><trkpt lat="46.1501787" lon="9.5042487"><ele>212.0</ele><time>2026-04-07T09:08:44.693Z</time></trkpt><trkpt lat="46.1501799" lon="9.5040684"><ele>212.0</ele><time>2026-04-07T09:08:46.695Z</time></trkpt><trkpt lat="46.1501797" lon="9.5038997"><ele>212.00000000000003</ele><time>2026-04-07T09:08:48.694Z</time></trkpt><trkpt lat="46.1501764" lon="9.5037371"><ele>212.0</ele><time>2026-04-07T09:08:50.693Z</time></trkpt><trkpt lat="46.1501897" lon="9.5035711"><ele>212.0</ele><time>2026-04-07T09:08:52.694Z</time></trkpt><trkpt lat="46.1501978" lon="9.5034778"><ele>212.0</ele><time>2026-04-07T09:08:53.695Z</time></trkpt><trkpt lat="46.150203" lon="9.5033849"><ele>212.00000000000003</ele><time>2026-04-07T09:08:54.694Z</time></trkpt><trkpt lat="46.1502035" lon="9.5032931"><ele>212.0</ele><time>2026-04-07T09:08:55.694Z</time></trkpt><trkpt lat="46.1502175" lon="9.5031249"><ele>212.0</ele><time>2026-04-07T09:08:57.693Z</time></trkpt><trkpt lat="46.1502355" lon="9.5029564"><ele>212.0</ele><time>2026-04-07T09:08:59.693Z</time></trkpt><trkpt lat="46.1502557" lon="9.5027903"><ele>212.0</ele><time>2026-04-07T09:09:01.694Z</time></trkpt><trkpt lat="46.1502822" lon="9.5026239"><ele>212.0</ele><time>2026-04-07T09:09:03.694Z</time></trkpt><trkpt lat="46.1503149" lon="9.5024514"><ele>211.6</ele><time>2026-04-07T09:09:05.696Z</time></trkpt><trkpt lat="46.1503352" lon="9.5023645"><ele>211.2</ele><time>2026-04-07T09:09:06.694Z</time></trkpt><trkpt lat="46.1503705" lon="9.5021993"><ele>210.8</ele><time>2026-04-07T09:09:08.696Z</time></trkpt><trkpt lat="46.1504105" lon="9.5020368"><ele>210.4</ele><time>2026-04-07T09:09:10.696Z</time></trkpt><trkpt lat="46.1504573" lon="9.5018774"><ele>210.0</ele><time>2026-04-07T09:09:12.693Z</time></trkpt><trkpt lat="46.1505129" lon="9.5017187"><ele>209.8</ele><time>2026-04-07T09:09:14.694Z</time></trkpt><trkpt lat="46.1505601" lon="9.5015628"><ele>209.6</ele><time>2026-04-07T09:09:16.694Z</time></trkpt><trkpt lat="46.150607" lon="9.501416"><ele>209.39999999999998</ele><time>2026-04-07T09:09:18.694Z</time></trkpt><trkpt lat="46.1506597" lon="9.5012463"><ele>209.2</ele><time>2026-04-07T09:09:20.694Z</time></trkpt><trkpt lat="46.1506912" lon="9.5011537"><ele>209.0</ele><time>2026-04-07T09:09:21.694Z</time></trkpt><trkpt lat="46.1507232" lon="9.5010689"><ele>210.00000000000003</ele><time>2026-04-07T09:09:22.694Z</time></trkpt><trkpt lat="46.1507577" lon="9.5009819"><ele>211.0</ele><time>2026-04-07T09:09:23.694Z</time></trkpt><trkpt lat="46.1507857" lon="9.5008897"><ele>212.0</ele><time>2026-04-07T09:09:24.694Z</time></trkpt><trkpt lat="46.1508382" lon="9.5007236"><ele>213.0</ele><time>2026-04-07T09:09:26.694Z</time></trkpt><trkpt lat="46.1508705" lon="9.5006227"><ele>214.00000000000003</ele><time>2026-04-07T09:09:27.695Z</time></trkpt><trkpt lat="46.1509009" lon="9.5005296"><ele>215.0</ele><time>2026-04-07T09:09:28.695Z</time></trkpt><trkpt lat="46.1509321" lon="9.5004468"><ele>214.57142857142856</ele><time>2026-04-07T09:09:29.694Z</time></trkpt><trkpt lat="46.1509614" lon="9.5003532"><ele>214.14285714285717</ele><time>2026-04-07T09:09:30.695Z</time></trkpt><trkpt lat="46.1509944" lon="9.5002717"><ele>213.71428571428572</ele><time>2026-04-07T09:09:31.694Z</time></trkpt><trkpt lat="46.1510302" lon="9.5001745"><ele>213.28571428571428</ele><time>2026-04-07T09:09:32.696Z</time></trkpt><trkpt lat="46.1510722" lon="9.5000849"><ele>212.85714285714283</ele><time>2026-04-07T09:09:33.695Z</time></trkpt><trkpt lat="46.1511076" lon="9.4999872"><ele>212.42857142857144</ele><time>2026-04-07T09:09:34.695Z</time></trkpt><trkpt lat="46.1511345" lon="9.4998966"><ele>212.0</ele><time>2026-04-07T09:09:35.694Z</time></trkpt><trkpt lat="46.151165" lon="9.4998001"><ele>212.00000000000003</ele><time>2026-04-07T09:09:36.694Z</time></trkpt><trkpt lat="46.1511947" lon="9.4996982"><ele>212.0</ele><time>2026-04-07T09:09:37.693Z</time></trkpt><trkpt lat="46.1512348" lon="9.4995952"><ele>212.0</ele><time>2026-04-07T09:09:38.694Z</time></trkpt><trkpt lat="46.1512705" lon="9.4994965"><ele>212.0</ele><time>2026-04-07T09:09:39.695Z</time></trkpt><trkpt lat="46.1513075" lon="9.4993952"><ele>212.00000000000003</ele><time>2026-04-07T09:09:40.695Z</time></trkpt><trkpt lat="46.1513434" lon="9.4992916"><ele>212.0</ele><time>2026-04-07T09:09:41.694Z</time></trkpt><trkpt lat="46.151385" lon="9.4991912"><ele>211.83333333333334</ele><time>2026-04-07T09:09:42.695Z</time></trkpt><trkpt lat="46.1514282" lon="9.499095"><ele>211.66666666666669</ele><time>2026-04-07T09:09:43.694Z</time></trkpt><trkpt lat="46.1514654" lon="9.4989903"><ele>211.5</ele><time>2026-04-07T09:09:44.694Z</time></trkpt><trkpt lat="46.1515014" lon="9.4988834"><ele>211.33333333333331</ele><time>2026-04-07T09:09:45.694Z</time></trkpt><trkpt lat="46.1515266" lon="9.4987855"><ele>211.16666666666666</ele><time>2026-04-07T09:09:46.695Z</time></trkpt><trkpt lat="46.1515609" lon="9.4986864"><ele>211.0</ele><time>2026-04-07T09:09:47.694Z</time></trkpt><trkpt lat="46.1515981" lon="9.4985863"><ele>210.83333333333331</ele><time>2026-04-07T09:09:48.694Z</time></trkpt><trkpt lat="46.1516272" lon="9.498486"><ele>210.66666666666666</ele><time>2026-04-07T09:09:49.694Z</time></trkpt><trkpt lat="46.1516608" lon="9.4983938"><ele>210.5</ele><time>2026-04-07T09:09:50.694Z</time></trkpt><trkpt lat="46.151691" lon="9.4982984"><ele>210.33333333333331</ele><time>2026-04-07T09:09:51.694Z</time></trkpt><trkpt lat="46.1517252" lon="9.4982012"><ele>210.16666666666666</ele><time>2026-04-07T09:09:52.694Z</time></trkpt><trkpt lat="46.1517683" lon="9.4981114"><ele>210.0</ele><time>2026-04-07T09:09:53.694Z</time></trkpt><trkpt lat="46.1518049" lon="9.4980108"><ele>209.57142857142858</ele><time>2026-04-07T09:09:54.694Z</time></trkpt><trkpt lat="46.1518404" lon="9.4979156"><ele>209.14285714285714</ele><time>2026-04-07T09:09:55.693Z</time></trkpt><trkpt lat="46.1518747" lon="9.4978221"><ele>208.71428571428572</ele><time>2026-04-07T09:09:56.694Z</time></trkpt><trkpt lat="46.1519032" lon="9.4977371"><ele>208.28571428571428</ele><time>2026-04-07T09:09:57.694Z</time></trkpt><trkpt lat="46.1519407" lon="9.4976448"><ele>207.85714285714286</ele><time>2026-04-07T09:09:58.693Z</time></trkpt><trkpt lat="46.1519759" lon="9.4975432"><ele>207.42857142857144</ele><time>2026-04-07T09:09:59.694Z</time></trkpt><trkpt lat="46.152013" lon="9.4974476"><ele>207.0</ele><time>2026-04-07T09:10:00.693Z</time></trkpt><trkpt lat="46.1520419" lon="9.4973533"><ele>207.0</ele><time>2026-04-07T09:10:01.694Z</time></trkpt><trkpt lat="46.1520715" lon="9.4972668"><ele>207.0</ele><time>2026-04-07T09:10:02.694Z</time></trkpt><trkpt lat="46.1521305" lon="9.4970925"><ele>207.0</ele><time>2026-04-07T09:10:04.694Z</time></trkpt><trkpt lat="46.1521626" lon="9.4969931"><ele>207.0</ele><time>2026-04-07T09:10:05.695Z</time></trkpt><trkpt lat="46.1521962" lon="9.496903"><ele>207.0</ele><time>2026-04-07T09:10:06.694Z</time></trkpt><trkpt lat="46.1522253" lon="9.496817"><ele>207.0</ele><time>2026-04-07T09:10:07.694Z</time></trkpt><trkpt lat="46.1522582" lon="9.496723"><ele>207.0</ele><time>2026-04-07T09:10:08.694Z</time></trkpt><trkpt lat="46.152291" lon="9.4966327"><ele>207.0</ele><time>2026-04-07T09:10:09.694Z</time></trkpt><trkpt lat="46.152318" lon="9.4965357"><ele>207.0</ele><time>2026-04-07T09:10:10.695Z</time></trkpt><trkpt lat="46.1523537" lon="9.4964411"><ele>207.0</ele><time>2026-04-07T09:10:11.693Z</time></trkpt><trkpt lat="46.1523834" lon="9.4963498"><ele>207.0</ele><time>2026-04-07T09:10:12.694Z</time></trkpt><trkpt lat="46.1524339" lon="9.4961673"><ele>207.0</ele><time>2026-04-07T09:10:14.693Z</time></trkpt><trkpt lat="46.1524799" lon="9.4960048"><ele>207.0</ele><time>2026-04-07T09:10:16.693Z</time></trkpt><trkpt lat="46.1525148" lon="9.4958366"><ele>207.0</ele><time>2026-04-07T09:10:18.693Z</time></trkpt><trkpt lat="46.1525418" lon="9.4956667"><ele>207.0</ele><time>2026-04-07T09:10:20.695Z</time></trkpt><trkpt lat="46.1525591" lon="9.4955048"><ele>207.0</ele><time>2026-04-07T09:10:22.694Z</time></trkpt><trkpt lat="46.1525685" lon="9.4953257"><ele>207.0</ele><time>2026-04-07T09:10:24.694Z</time></trkpt><trkpt lat="46.1525721" lon="9.4952324"><ele>207.0</ele><time>2026-04-07T09:10:25.695Z</time></trkpt><trkpt lat="46.1525697" lon="9.4950567"><ele>207.0</ele><time>2026-04-07T09:10:27.696Z</time></trkpt><trkpt lat="46.1525594" lon="9.4949639"><ele>207.0</ele><time>2026-04-07T09:10:28.696Z</time></trkpt><trkpt lat="46.1525531" lon="9.4948684"><ele>207.0</ele><time>2026-04-07T09:10:29.694Z</time></trkpt><trkpt lat="46.1525397" lon="9.4947708"><ele>207.0</ele><time>2026-04-07T09:10:30.694Z</time></trkpt><trkpt lat="46.1525234" lon="9.4946791"><ele>207.2857142857143</ele><time>2026-04-07T09:10:31.695Z</time></trkpt><trkpt lat="46.1525065" lon="9.4945821"><ele>207.57142857142858</ele><time>2026-04-07T09:10:32.695Z</time></trkpt><trkpt lat="46.152493" lon="9.4944793"><ele>207.85714285714286</ele><time>2026-04-07T09:10:33.694Z</time></trkpt><trkpt lat="46.1524855" lon="9.4943738"><ele>208.14285714285717</ele><time>2026-04-07T09:10:34.694Z</time></trkpt><trkpt lat="46.1524787" lon="9.4942738"><ele>208.42857142857142</ele><time>2026-04-07T09:10:35.695Z</time></trkpt><trkpt lat="46.1524626" lon="9.4941729"><ele>208.71428571428572</ele><time>2026-04-07T09:10:36.694Z</time></trkpt><trkpt lat="46.1524377" lon="9.4940812"><ele>209.0</ele><time>2026-04-07T09:10:37.693Z</time></trkpt><trkpt lat="46.1524148" lon="9.4939864"><ele>209.0</ele><time>2026-04-07T09:10:38.693Z</time></trkpt><trkpt lat="46.1524026" lon="9.493889"><ele>209.0</ele><time>2026-04-07T09:10:39.695Z</time></trkpt><trkpt lat="46.1523828" lon="9.4937869"><ele>209.0</ele><time>2026-04-07T09:10:40.694Z</time></trkpt><trkpt lat="46.1523665" lon="9.4936817"><ele>209.0</ele><time>2026-04-07T09:10:41.694Z</time></trkpt><trkpt lat="46.1523478" lon="9.4935829"><ele>209.0</ele><time>2026-04-07T09:10:42.694Z</time></trkpt><trkpt lat="46.1523354" lon="9.4934768"><ele>209.0</ele><time>2026-04-07T09:10:43.693Z</time></trkpt><trkpt lat="46.1523163" lon="9.4933679"><ele>209.0</ele><time>2026-04-07T09:10:44.696Z</time></trkpt><trkpt lat="46.1522998" lon="9.493267"><ele>208.2</ele><time>2026-04-07T09:10:45.694Z</time></trkpt><trkpt lat="46.1522709" lon="9.4930853"><ele>207.39999999999998</ele><time>2026-04-07T09:10:47.694Z</time></trkpt><trkpt lat="46.1522393" lon="9.4929025"><ele>206.6</ele><time>2026-04-07T09:10:49.694Z</time></trkpt><trkpt lat="46.1522278" lon="9.4927916"><ele>205.8</ele><time>2026-04-07T09:10:50.695Z</time></trkpt><trkpt lat="46.1522048" lon="9.4926905"><ele>205.0</ele><time>2026-04-07T09:10:51.694Z</time></trkpt><trkpt lat="46.1521882" lon="9.4925883"><ele>205.0</ele><time>2026-04-07T09:10:52.694Z</time></trkpt><trkpt lat="46.1521788" lon="9.4924764"><ele>205.0</ele><time>2026-04-07T09:10:53.696Z</time></trkpt><trkpt lat="46.1521657" lon="9.4923746"><ele>205.0</ele><time>2026-04-07T09:10:54.694Z</time></trkpt><trkpt lat="46.1521515" lon="9.4922761"><ele>205.0</ele><time>2026-04-07T09:10:55.694Z</time></trkpt><trkpt lat="46.1521438" lon="9.4921672"><ele>205.0</ele><time>2026-04-07T09:10:56.694Z</time></trkpt><trkpt lat="46.15214" lon="9.4920611"><ele>205.0</ele><time>2026-04-07T09:10:57.694Z</time></trkpt><trkpt lat="46.1521238" lon="9.4919586"><ele>205.0</ele><time>2026-04-07T09:10:58.694Z</time></trkpt><trkpt lat="46.1521145" lon="9.4918573"><ele>205.0</ele><time>2026-04-07T09:10:59.696Z</time></trkpt><trkpt lat="46.1521087" lon="9.4917557"><ele>205.0</ele><time>2026-04-07T09:11:00.693Z</time></trkpt><trkpt lat="46.1520925" lon="9.4916585"><ele>205.0</ele><time>2026-04-07T09:11:01.694Z</time></trkpt><trkpt lat="46.1520812" lon="9.4915586"><ele>205.0</ele><time>2026-04-07T09:11:02.694Z</time></trkpt><trkpt lat="46.1520656" lon="9.4914672"><ele>205.0</ele><time>2026-04-07T09:11:03.695Z</time></trkpt><trkpt lat="46.1520504" lon="9.4913594"><ele>205.0</ele><time>2026-04-07T09:11:04.695Z</time></trkpt><trkpt lat="46.1520451" lon="9.4912504"><ele>205.0</ele><time>2026-04-07T09:11:05.694Z</time></trkpt><trkpt lat="46.1520344" lon="9.49116"><ele>204.85714285714286</ele><time>2026-04-07T09:11:06.695Z</time></trkpt><trkpt lat="46.152019" lon="9.491056"><ele>204.7142857142857</ele><time>2026-04-07T09:11:07.694Z</time></trkpt><trkpt lat="46.1520049" lon="9.4909588"><ele>204.57142857142856</ele><time>2026-04-07T09:11:08.694Z</time></trkpt><trkpt lat="46.1519859" lon="9.4908514"><ele>204.42857142857144</ele><time>2026-04-07T09:11:09.694Z</time></trkpt><trkpt lat="46.1519719" lon="9.4907437"><ele>204.28571428571428</ele><time>2026-04-07T09:11:10.695Z</time></trkpt><trkpt lat="46.151956" lon="9.4906424"><ele>204.14285714285714</ele><time>2026-04-07T09:11:11.694Z</time></trkpt><trkpt lat="46.1519375" lon="9.4905461"><ele>204.0</ele><time>2026-04-07T09:11:12.695Z</time></trkpt><trkpt lat="46.1519263" lon="9.490447"><ele>204.57142857142858</ele><time>2026-04-07T09:11:13.693Z</time></trkpt><trkpt lat="46.151918" lon="9.4903504"><ele>205.14285714285717</ele><time>2026-04-07T09:11:14.695Z</time></trkpt><trkpt lat="46.1519017" lon="9.4902437"><ele>205.71428571428572</ele><time>2026-04-07T09:11:15.695Z</time></trkpt><trkpt lat="46.1518831" lon="9.4901368"><ele>206.28571428571428</ele><time>2026-04-07T09:11:16.695Z</time></trkpt><trkpt lat="46.1518634" lon="9.4900434"><ele>206.85714285714286</ele><time>2026-04-07T09:11:17.694Z</time></trkpt><trkpt lat="46.1518488" lon="9.4899306"><ele>207.42857142857142</ele><time>2026-04-07T09:11:18.694Z</time></trkpt><trkpt lat="46.1518327" lon="9.489825"><ele>208.0</ele><time>2026-04-07T09:11:19.695Z</time></trkpt><trkpt lat="46.1518139" lon="9.4897264"><ele>208.0</ele><time>2026-04-07T09:11:20.696Z</time></trkpt><trkpt lat="46.1517933" lon="9.4896209"><ele>208.0</ele><time>2026-04-07T09:11:21.694Z</time></trkpt><trkpt lat="46.1517843" lon="9.4895248"><ele>208.0</ele><time>2026-04-07T09:11:22.695Z</time></trkpt><trkpt lat="46.1517714" lon="9.4894261"><ele>208.0</ele><time>2026-04-07T09:11:23.695Z</time></trkpt><trkpt lat="46.1517539" lon="9.489337"><ele>208.0</ele><time>2026-04-07T09:11:24.694Z</time></trkpt><trkpt lat="46.1517395" lon="9.4892425"><ele>208.0</ele><time>2026-04-07T09:11:25.695Z</time></trkpt><trkpt lat="46.1517253" lon="9.4891352"><ele>208.0</ele><time>2026-04-07T09:11:26.695Z</time></trkpt><trkpt lat="46.1517026" lon="9.4890208"><ele>208.28571428571428</ele><time>2026-04-07T09:11:27.694Z</time></trkpt><trkpt lat="46.1516836" lon="9.4889323"><ele>208.57142857142858</ele><time>2026-04-07T09:11:28.694Z</time></trkpt><trkpt lat="46.151663" lon="9.4888409"><ele>208.85714285714286</ele><time>2026-04-07T09:11:29.695Z</time></trkpt><trkpt lat="46.1516547" lon="9.4887477"><ele>209.14285714285714</ele><time>2026-04-07T09:11:30.695Z</time></trkpt><trkpt lat="46.1516333" lon="9.4885889"><ele>209.42857142857144</ele><time>2026-04-07T09:11:32.694Z</time></trkpt><trkpt lat="46.1516386" lon="9.4884848"><ele>209.71428571428572</ele><time>2026-04-07T09:11:33.696Z</time></trkpt><trkpt lat="46.1516246" lon="9.4883912"><ele>210.0</ele><time>2026-04-07T09:11:34.694Z</time></trkpt><trkpt lat="46.1516245" lon="9.4882972"><ele>210.0</ele><time>2026-04-07T09:11:35.694Z</time></trkpt><trkpt lat="46.1516042" lon="9.4882092"><ele>210.0</ele><time>2026-04-07T09:11:36.693Z</time></trkpt><trkpt lat="46.1515979" lon="9.4881091"><ele>210.0</ele><time>2026-04-07T09:11:37.696Z</time></trkpt><trkpt lat="46.1515758" lon="9.4879383"><ele>210.0</ele><time>2026-04-07T09:11:39.693Z</time></trkpt><trkpt lat="46.1515567" lon="9.4878514"><ele>210.0</ele><time>2026-04-07T09:11:40.694Z</time></trkpt><trkpt lat="46.1515316" lon="9.4877598"><ele>210.0</ele><time>2026-04-07T09:11:41.696Z</time></trkpt><trkpt lat="46.1515174" lon="9.4876005"><ele>209.0</ele><time>2026-04-07T09:11:43.694Z</time></trkpt><trkpt lat="46.1515024" lon="9.487507"><ele>208.0</ele><time>2026-04-07T09:11:44.695Z</time></trkpt><trkpt lat="46.1515065" lon="9.4873207"><ele>207.0</ele><time>2026-04-07T09:11:46.695Z</time></trkpt><trkpt lat="46.1515" lon="9.4872263"><ele>206.0</ele><time>2026-04-07T09:11:47.694Z</time></trkpt><trkpt lat="46.1515046" lon="9.4870501"><ele>205.0</ele><time>2026-04-07T09:11:49.694Z</time></trkpt><trkpt lat="46.1515191" lon="9.4869501"><ele>205.0</ele><time>2026-04-07T09:11:50.693Z</time></trkpt><trkpt lat="46.151522" lon="9.4867758"><ele>205.0</ele><time>2026-04-07T09:11:52.695Z</time></trkpt><trkpt lat="46.1515344" lon="9.4866835"><ele>205.0</ele><time>2026-04-07T09:11:53.694Z</time></trkpt><trkpt lat="46.1515442" lon="9.4865221"><ele>205.0</ele><time>2026-04-07T09:11:55.695Z</time></trkpt><trkpt lat="46.1515551" lon="9.4863532"><ele>205.0</ele><time>2026-04-07T09:11:57.696Z</time></trkpt><trkpt lat="46.151551" lon="9.4862606"><ele>205.0</ele><time>2026-04-07T09:11:58.696Z</time></trkpt><trkpt lat="46.1515602" lon="9.4861069"><ele>205.0</ele><time>2026-04-07T09:12:00.694Z</time></trkpt><trkpt lat="46.1515762" lon="9.4859592"><ele>205.0</ele><time>2026-04-07T09:12:02.695Z</time></trkpt><trkpt lat="46.15156" lon="9.4858275"><ele>205.0</ele><time>2026-04-07T09:12:04.693Z</time></trkpt><trkpt lat="46.1514824" lon="9.4857516"><ele>205.0</ele><time>2026-04-07T09:12:06.694Z</time></trkpt><trkpt lat="46.1513835" lon="9.4857934"><ele>205.0</ele><time>2026-04-07T09:12:08.695Z</time></trkpt><trkpt lat="46.1513126" lon="9.4858883"><ele>205.0</ele><time>2026-04-07T09:12:10.695Z</time></trkpt><trkpt lat="46.1512459" lon="9.4860194"><ele>205.0</ele><time>2026-04-07T09:12:12.694Z</time></trkpt><trkpt lat="46.1511659" lon="9.4860995"><ele>205.0</ele><time>2026-04-07T09:12:14.693Z</time></trkpt><trkpt lat="46.1510735" lon="9.4861325"><ele>205.0</ele><time>2026-04-07T09:12:16.694Z</time></trkpt><trkpt lat="46.1509697" lon="9.4861384"><ele>205.0</ele><time>2026-04-07T09:12:18.695Z</time></trkpt><trkpt lat="46.1508736" lon="9.4861278"><ele>205.0</ele><time>2026-04-07T09:12:20.694Z</time></trkpt><trkpt lat="46.150771" lon="9.4861397"><ele>205.0</ele><time>2026-04-07T09:12:22.695Z</time></trkpt><trkpt lat="46.1506711" lon="9.4861377"><ele>205.0</ele><time>2026-04-07T09:12:24.694Z</time></trkpt><trkpt lat="46.1505643" lon="9.4861386"><ele>205.0</ele><time>2026-04-07T09:12:26.694Z</time></trkpt><trkpt lat="46.1504593" lon="9.4861322"><ele>205.4</ele><time>2026-04-07T09:12:28.695Z</time></trkpt><trkpt lat="46.1503434" lon="9.4861241"><ele>205.8</ele><time>2026-04-07T09:12:30.696Z</time></trkpt><trkpt lat="46.1502325" lon="9.4860682"><ele>206.2</ele><time>2026-04-07T09:12:32.696Z</time></trkpt><trkpt lat="46.1501469" lon="9.4859425"><ele>206.6</ele><time>2026-04-07T09:12:34.694Z</time></trkpt><trkpt lat="46.150108" lon="9.485865"><ele>207.0</ele><time>2026-04-07T09:12:35.694Z</time></trkpt><trkpt lat="46.1500737" lon="9.4857848"><ele>207.0</ele><time>2026-04-07T09:12:36.694Z</time></trkpt><trkpt lat="46.1500438" lon="9.4857033"><ele>207.0</ele><time>2026-04-07T09:12:37.695Z</time></trkpt><trkpt lat="46.1499952" lon="9.4855382"><ele>207.0</ele><time>2026-04-07T09:12:39.694Z</time></trkpt><trkpt lat="46.1499852" lon="9.4854473"><ele>207.0</ele><time>2026-04-07T09:12:40.693Z</time></trkpt><trkpt lat="46.1499588" lon="9.4853563"><ele>207.0</ele><time>2026-04-07T09:12:41.695Z</time></trkpt><trkpt lat="46.1499337" lon="9.4852631"><ele>207.0</ele><time>2026-04-07T09:12:42.694Z</time></trkpt><trkpt lat="46.1499103" lon="9.485168"><ele>207.0</ele><time>2026-04-07T09:12:43.694Z</time></trkpt><trkpt lat="46.149892" lon="9.4850715"><ele>207.0</ele><time>2026-04-07T09:12:44.693Z</time></trkpt><trkpt lat="46.1498551" lon="9.4848839"><ele>207.0</ele><time>2026-04-07T09:12:46.695Z</time></trkpt><trkpt lat="46.1498154" lon="9.4847074"><ele>207.0</ele><time>2026-04-07T09:12:48.695Z</time></trkpt><trkpt lat="46.149789" lon="9.4846178"><ele>207.0</ele><time>2026-04-07T09:12:49.694Z</time></trkpt><trkpt lat="46.1497646" lon="9.4845205"><ele>207.2</ele><time>2026-04-07T09:12:50.695Z</time></trkpt><trkpt lat="46.1497391" lon="9.4843417"><ele>207.39999999999998</ele><time>2026-04-07T09:12:52.695Z</time></trkpt><trkpt lat="46.1497126" lon="9.4841556"><ele>207.60000000000002</ele><time>2026-04-07T09:12:54.695Z</time></trkpt><trkpt lat="46.1496942" lon="9.4840662"><ele>207.8</ele><time>2026-04-07T09:12:55.695Z</time></trkpt><trkpt lat="46.149674" lon="9.4839768"><ele>208.0</ele><time>2026-04-07T09:12:56.695Z</time></trkpt><trkpt lat="46.1496491" lon="9.4838933"><ele>208.0</ele><time>2026-04-07T09:12:57.695Z</time></trkpt><trkpt lat="46.1496257" lon="9.483803"><ele>208.0</ele><time>2026-04-07T09:12:58.696Z</time></trkpt><trkpt lat="46.1496031" lon="9.4837154"><ele>208.0</ele><time>2026-04-07T09:12:59.695Z</time></trkpt><trkpt lat="46.1495909" lon="9.4836208"><ele>208.0</ele><time>2026-04-07T09:13:00.693Z</time></trkpt><trkpt lat="46.149568" lon="9.4835267"><ele>208.0</ele><time>2026-04-07T09:13:01.694Z</time></trkpt><trkpt lat="46.1495487" lon="9.4834368"><ele>208.0</ele><time>2026-04-07T09:13:02.695Z</time></trkpt><trkpt lat="46.1495302" lon="9.4833485"><ele>208.0</ele><time>2026-04-07T09:13:03.694Z</time></trkpt><trkpt lat="46.1495155" lon="9.4832553"><ele>208.16666666666666</ele><time>2026-04-07T09:13:04.694Z</time></trkpt><trkpt lat="46.1494896" lon="9.4831623"><ele>208.33333333333331</ele><time>2026-04-07T09:13:05.696Z</time></trkpt><trkpt lat="46.149472" lon="9.4830735"><ele>208.5</ele><time>2026-04-07T09:13:06.695Z</time></trkpt><trkpt lat="46.1494478" lon="9.4829845"><ele>208.66666666666669</ele><time>2026-04-07T09:13:07.693Z</time></trkpt><trkpt lat="46.149425" lon="9.4828942"><ele>208.83333333333334</ele><time>2026-04-07T09:13:08.694Z</time></trkpt><trkpt lat="46.1494087" lon="9.4828046"><ele>209.0</ele><time>2026-04-07T09:13:09.695Z</time></trkpt><trkpt lat="46.149374" lon="9.482632"><ele>208.6</ele><time>2026-04-07T09:13:11.694Z</time></trkpt><trkpt lat="46.1493579" lon="9.4825439"><ele>208.2</ele><time>2026-04-07T09:13:12.695Z</time></trkpt><trkpt lat="46.149324" lon="9.4823847"><ele>207.79999999999998</ele><time>2026-04-07T09:13:14.693Z</time></trkpt><trkpt lat="46.1492891" lon="9.4822332"><ele>207.39999999999998</ele><time>2026-04-07T09:13:16.695Z</time></trkpt><trkpt lat="46.1492518" lon="9.4820818"><ele>207.0</ele><time>2026-04-07T09:13:18.693Z</time></trkpt><trkpt lat="46.14922" lon="9.4819255"><ele>207.0</ele><time>2026-04-07T09:13:20.694Z</time></trkpt><trkpt lat="46.1491777" lon="9.4817959"><ele>207.0</ele><time>2026-04-07T09:13:22.695Z</time></trkpt><trkpt lat="46.1491459" lon="9.4816813"><ele>207.0</ele><time>2026-04-07T09:13:24.694Z</time></trkpt><trkpt lat="46.1491382" lon="9.4815548"><ele>207.0</ele><time>2026-04-07T09:13:26.693Z</time></trkpt><trkpt lat="46.1491287" lon="9.4814337"><ele>207.0</ele><time>2026-04-07T09:13:29.694Z</time></trkpt><trkpt lat="46.1490982" lon="9.4813405"><ele>207.0</ele><time>2026-04-07T09:13:59.695Z</time></trkpt><trkpt lat="46.149057" lon="9.4812656"><ele>206.85714285714286</ele><time>2026-04-07T09:14:02.694Z</time></trkpt><trkpt lat="46.1490206" lon="9.4811547"><ele>206.71428571428572</ele><time>2026-04-07T09:14:05.694Z</time></trkpt><trkpt lat="46.1489943" lon="9.4810312"><ele>206.57142857142856</ele><time>2026-04-07T09:14:08.694Z</time></trkpt><trkpt lat="46.1489819" lon="9.4809312"><ele>206.42857142857144</ele><time>2026-04-07T09:14:10.695Z</time></trkpt><trkpt lat="46.1489651" lon="9.4808291"><ele>206.28571428571428</ele><time>2026-04-07T09:14:12.694Z</time></trkpt><trkpt lat="46.1489515" lon="9.4807391"><ele>206.14285714285714</ele><time>2026-04-07T09:14:14.694Z</time></trkpt><trkpt lat="46.1489279" lon="9.4806547"><ele>206.0</ele><time>2026-04-07T09:14:16.694Z</time></trkpt><trkpt lat="46.1489062" lon="9.4805682"><ele>206.00000000000003</ele><time>2026-04-07T09:14:18.696Z</time></trkpt><trkpt lat="46.148878" lon="9.4804818"><ele>206.0</ele><time>2026-04-07T09:14:20.695Z</time></trkpt><trkpt lat="46.1488556" lon="9.4803837"><ele>206.0</ele><time>2026-04-07T09:14:22.694Z</time></trkpt><trkpt lat="46.1488262" lon="9.4802839"><ele>206.0</ele><time>2026-04-07T09:14:24.694Z</time></trkpt><trkpt lat="46.1488034" lon="9.4801526"><ele>206.00000000000003</ele><time>2026-04-07T09:14:26.695Z</time></trkpt><trkpt lat="46.1487754" lon="9.480011"><ele>206.0</ele><time>2026-04-07T09:14:28.694Z</time></trkpt><trkpt lat="46.1487423" lon="9.4798675"><ele>206.0</ele><time>2026-04-07T09:14:30.694Z</time></trkpt><trkpt lat="46.1487091" lon="9.4797227"><ele>206.0</ele><time>2026-04-07T09:14:32.695Z</time></trkpt><trkpt lat="46.1486763" lon="9.4795673"><ele>206.0</ele><time>2026-04-07T09:14:34.695Z</time></trkpt><trkpt lat="46.1486354" lon="9.4794203"><ele>206.0</ele><time>2026-04-07T09:14:36.694Z</time></trkpt><trkpt lat="46.1486101" lon="9.4792484"><ele>205.8</ele><time>2026-04-07T09:14:38.694Z</time></trkpt><trkpt lat="46.1485787" lon="9.4790749"><ele>205.60000000000002</ele><time>2026-04-07T09:14:40.695Z</time></trkpt><trkpt lat="46.1485381" lon="9.4789087"><ele>205.4</ele><time>2026-04-07T09:14:42.696Z</time></trkpt><trkpt lat="46.1485091" lon="9.4788196"><ele>205.2</ele><time>2026-04-07T09:14:43.695Z</time></trkpt><trkpt lat="46.1484584" lon="9.4786622"><ele>205.0</ele><time>2026-04-07T09:14:45.694Z</time></trkpt><trkpt lat="46.1484183" lon="9.4785109"><ele>205.4</ele><time>2026-04-07T09:14:47.695Z</time></trkpt><trkpt lat="46.1483988" lon="9.4783733"><ele>205.8</ele><time>2026-04-07T09:14:49.695Z</time></trkpt><trkpt lat="46.148333" lon="9.4783238"><ele>206.2</ele><time>2026-04-07T09:14:51.693Z</time></trkpt><trkpt lat="46.1482389" lon="9.478282"><ele>206.6</ele><time>2026-04-07T09:14:53.696Z</time></trkpt><trkpt lat="46.1481344" lon="9.4782281"><ele>207.0</ele><time>2026-04-07T09:14:55.695Z</time></trkpt><trkpt lat="46.1480296" lon="9.4782261"><ele>207.0</ele><time>2026-04-07T09:14:57.696Z</time></trkpt><trkpt lat="46.1479624" lon="9.4781844"><ele>207.0</ele><time>2026-04-07T09:14:58.695Z</time></trkpt><trkpt lat="46.1478529" lon="9.4781465"><ele>207.0</ele><time>2026-04-07T09:15:00.696Z</time></trkpt><trkpt lat="46.1477433" lon="9.4781085"><ele>207.0</ele><time>2026-04-07T09:15:02.695Z</time></trkpt><trkpt lat="46.1476806" lon="9.4780968"><ele>207.0</ele><time>2026-04-07T09:15:03.695Z</time></trkpt><trkpt lat="46.1475572" lon="9.4780841"><ele>207.0</ele><time>2026-04-07T09:15:05.694Z</time></trkpt><trkpt lat="46.1474936" lon="9.478059"><ele>207.0</ele><time>2026-04-07T09:15:06.693Z</time></trkpt><trkpt lat="46.1473817" lon="9.4779938"><ele>207.0</ele><time>2026-04-07T09:15:08.695Z</time></trkpt><trkpt lat="46.1473062" lon="9.4778733"><ele>207.0</ele><time>2026-04-07T09:15:10.695Z</time></trkpt><trkpt lat="46.1473305" lon="9.4777122"><ele>207.0</ele><time>2026-04-07T09:15:12.694Z</time></trkpt><trkpt lat="46.1473368" lon="9.4775481"><ele>207.16666666666666</ele><time>2026-04-07T09:15:14.695Z</time></trkpt><trkpt lat="46.1473093" lon="9.4773716"><ele>207.33333333333331</ele><time>2026-04-07T09:15:16.694Z</time></trkpt><trkpt lat="46.1472992" lon="9.4772798"><ele>207.5</ele><time>2026-04-07T09:15:17.695Z</time></trkpt><trkpt lat="46.1472794" lon="9.4771928"><ele>207.66666666666666</ele><time>2026-04-07T09:15:18.695Z</time></trkpt><trkpt lat="46.1472756" lon="9.4770999"><ele>207.83333333333331</ele><time>2026-04-07T09:15:19.695Z</time></trkpt><trkpt lat="46.1472526" lon="9.4769295"><ele>208.0</ele><time>2026-04-07T09:15:21.696Z</time></trkpt><trkpt lat="46.1472355" lon="9.4768401"><ele>207.49999999999997</ele><time>2026-04-07T09:15:22.694Z</time></trkpt><trkpt lat="46.1472225" lon="9.4767423"><ele>207.0</ele><time>2026-04-07T09:15:23.694Z</time></trkpt><trkpt lat="46.147211" lon="9.4766487"><ele>206.5</ele><time>2026-04-07T09:15:24.694Z</time></trkpt><trkpt lat="46.1472128" lon="9.4765427"><ele>206.0</ele><time>2026-04-07T09:15:25.695Z</time></trkpt><trkpt lat="46.1471996" lon="9.4764493"><ele>205.49999999999997</ele><time>2026-04-07T09:15:26.695Z</time></trkpt><trkpt lat="46.1471852" lon="9.4762671"><ele>205.0</ele><time>2026-04-07T09:15:28.696Z</time></trkpt><trkpt lat="46.1471662" lon="9.4761673"><ele>204.83333333333331</ele><time>2026-04-07T09:15:29.695Z</time></trkpt><trkpt lat="46.1471436" lon="9.4760734"><ele>204.66666666666666</ele><time>2026-04-07T09:15:30.695Z</time></trkpt><trkpt lat="46.1471082" lon="9.4759105"><ele>204.5</ele><time>2026-04-07T09:15:32.694Z</time></trkpt><trkpt lat="46.1470938" lon="9.4758089"><ele>204.33333333333331</ele><time>2026-04-07T09:15:33.695Z</time></trkpt><trkpt lat="46.1470845" lon="9.4757135"><ele>204.16666666666666</ele><time>2026-04-07T09:15:34.695Z</time></trkpt><trkpt lat="46.1470748" lon="9.4756128"><ele>204.0</ele><time>2026-04-07T09:15:35.695Z</time></trkpt><trkpt lat="46.1470541" lon="9.4754237"><ele>205.2</ele><time>2026-04-07T09:15:37.695Z</time></trkpt><trkpt lat="46.1470761" lon="9.4752672"><ele>206.39999999999998</ele><time>2026-04-07T09:15:39.695Z</time></trkpt><trkpt lat="46.147098" lon="9.4751017"><ele>207.6</ele><time>2026-04-07T09:15:41.694Z</time></trkpt><trkpt lat="46.1471515" lon="9.4749561"><ele>208.8</ele><time>2026-04-07T09:15:43.694Z</time></trkpt><trkpt lat="46.1471756" lon="9.4748535"><ele>210.0</ele><time>2026-04-07T09:15:44.696Z</time></trkpt><trkpt lat="46.1471977" lon="9.4747542"><ele>210.33333333333334</ele><time>2026-04-07T09:15:45.695Z</time></trkpt><trkpt lat="46.1472455" lon="9.4745841"><ele>210.66666666666669</ele><time>2026-04-07T09:15:47.695Z</time></trkpt><trkpt lat="46.1472702" lon="9.4744943"><ele>211.0</ele><time>2026-04-07T09:15:48.694Z</time></trkpt><trkpt lat="46.1473115" lon="9.4743969"><ele>211.33333333333334</ele><time>2026-04-07T09:15:49.695Z</time></trkpt><trkpt lat="46.1473357" lon="9.4743103"><ele>211.66666666666669</ele><time>2026-04-07T09:15:50.693Z</time></trkpt><trkpt lat="46.1473623" lon="9.4742247"><ele>212.0</ele><time>2026-04-07T09:15:51.695Z</time></trkpt><trkpt lat="46.1473863" lon="9.4741291"><ele>211.6</ele><time>2026-04-07T09:15:52.695Z</time></trkpt><trkpt lat="46.1474155" lon="9.4740453"><ele>211.2</ele><time>2026-04-07T09:15:53.696Z</time></trkpt><trkpt lat="46.1474559" lon="9.4738641"><ele>210.8</ele><time>2026-04-07T09:15:55.695Z</time></trkpt><trkpt lat="46.1474997" lon="9.4737073"><ele>210.4</ele><time>2026-04-07T09:15:57.695Z</time></trkpt><trkpt lat="46.1475293" lon="9.4735396"><ele>210.0</ele><time>2026-04-07T09:15:59.694Z</time></trkpt><trkpt lat="46.1475496" lon="9.4734453"><ele>210.0</ele><time>2026-04-07T09:16:00.694Z</time></trkpt><trkpt lat="46.1475899" lon="9.4732644"><ele>210.0</ele><time>2026-04-07T09:16:02.694Z</time></trkpt><trkpt lat="46.1476129" lon="9.4731596"><ele>210.0</ele><time>2026-04-07T09:16:03.694Z</time></trkpt><trkpt lat="46.1476276" lon="9.4730685"><ele>210.0</ele><time>2026-04-07T09:16:04.695Z</time></trkpt><trkpt lat="46.1476654" lon="9.4729455"><ele>210.0</ele><time>2026-04-07T09:16:05.695Z</time></trkpt><trkpt lat="46.1477031" lon="9.4727552"><ele>209.66666666666666</ele><time>2026-04-07T09:16:07.695Z</time></trkpt><trkpt lat="46.1477245" lon="9.4726694"><ele>209.33333333333331</ele><time>2026-04-07T09:16:08.695Z</time></trkpt><trkpt lat="46.1477479" lon="9.4725811"><ele>209.0</ele><time>2026-04-07T09:16:09.695Z</time></trkpt><trkpt lat="46.1478061" lon="9.472401"><ele>208.66666666666666</ele><time>2026-04-07T09:16:11.695Z</time></trkpt><trkpt lat="46.1478233" lon="9.4723037"><ele>208.33333333333331</ele><time>2026-04-07T09:16:12.695Z</time></trkpt><trkpt lat="46.1478368" lon="9.472213"><ele>208.0</ele><time>2026-04-07T09:16:13.695Z</time></trkpt><trkpt lat="46.1478599" lon="9.4720341"><ele>207.66666666666666</ele><time>2026-04-07T09:16:15.696Z</time></trkpt><trkpt lat="46.147866" lon="9.4719409"><ele>207.33333333333331</ele><time>2026-04-07T09:16:16.695Z</time></trkpt><trkpt lat="46.1478786" lon="9.4718432"><ele>207.0</ele><time>2026-04-07T09:16:17.694Z</time></trkpt><trkpt lat="46.1479055" lon="9.4717118"><ele>206.66666666666669</ele><time>2026-04-07T09:16:19.695Z</time></trkpt><trkpt lat="46.147927" lon="9.4716223"><ele>206.33333333333334</ele><time>2026-04-07T09:16:20.693Z</time></trkpt><trkpt lat="46.1479663" lon="9.4714563"><ele>206.0</ele><time>2026-04-07T09:16:22.693Z</time></trkpt><trkpt lat="46.1479819" lon="9.471362"><ele>206.0</ele><time>2026-04-07T09:16:23.696Z</time></trkpt><trkpt lat="46.1479885" lon="9.4711858"><ele>206.0</ele><time>2026-04-07T09:16:25.694Z</time></trkpt><trkpt lat="46.147942" lon="9.4710389"><ele>206.0</ele><time>2026-04-07T09:16:27.695Z</time></trkpt><trkpt lat="46.1479093" lon="9.4709578"><ele>206.0</ele><time>2026-04-07T09:16:28.696Z</time></trkpt><trkpt lat="46.1478397" lon="9.4708121"><ele>206.0</ele><time>2026-04-07T09:16:30.696Z</time></trkpt><trkpt lat="46.1478054" lon="9.4707318"><ele>206.00000000000003</ele><time>2026-04-07T09:16:31.694Z</time></trkpt><trkpt lat="46.1477491" lon="9.4705821"><ele>206.0</ele><time>2026-04-07T09:16:33.693Z</time></trkpt><trkpt lat="46.1476992" lon="9.4704245"><ele>206.0</ele><time>2026-04-07T09:16:35.695Z</time></trkpt><trkpt lat="46.1476622" lon="9.470347"><ele>206.0</ele><time>2026-04-07T09:16:36.694Z</time></trkpt><trkpt lat="46.1476301" lon="9.4702638"><ele>206.00000000000003</ele><time>2026-04-07T09:16:37.696Z</time></trkpt><trkpt lat="46.1475911" lon="9.4701651"><ele>206.0</ele><time>2026-04-07T09:16:39.695Z</time></trkpt><trkpt lat="46.14756" lon="9.4700801"><ele>205.83333333333334</ele><time>2026-04-07T09:16:41.693Z</time></trkpt><trkpt lat="46.147524" lon="9.4699897"><ele>205.66666666666669</ele><time>2026-04-07T09:16:42.696Z</time></trkpt><trkpt lat="46.1474365" lon="9.4699812"><ele>205.5</ele><time>2026-04-07T09:16:43.695Z</time></trkpt><trkpt lat="46.1473698" lon="9.4699423"><ele>205.33333333333331</ele><time>2026-04-07T09:16:44.695Z</time></trkpt><trkpt lat="46.1472839" lon="9.469836"><ele>205.16666666666666</ele><time>2026-04-07T09:16:46.695Z</time></trkpt><trkpt lat="46.1472562" lon="9.4697026"><ele>205.0</ele><time>2026-04-07T09:16:48.695Z</time></trkpt><trkpt lat="46.1472762" lon="9.4695818"><ele>205.0</ele><time>2026-04-07T09:16:50.695Z</time></trkpt><trkpt lat="46.1473194" lon="9.469445"><ele>205.0</ele><time>2026-04-07T09:16:52.695Z</time></trkpt><trkpt lat="46.1473614" lon="9.4692848"><ele>205.0</ele><time>2026-04-07T09:16:54.695Z</time></trkpt><trkpt lat="46.1474123" lon="9.4691203"><ele>205.0</ele><time>2026-04-07T09:16:56.695Z</time></trkpt><trkpt lat="46.1474614" lon="9.4689667"><ele>204.99999999999997</ele><time>2026-04-07T09:16:58.696Z</time></trkpt><trkpt lat="46.1474764" lon="9.4688725"><ele>205.0</ele><time>2026-04-07T09:16:59.695Z</time></trkpt><trkpt lat="46.1474756" lon="9.4687816"><ele>205.0</ele><time>2026-04-07T09:17:00.695Z</time></trkpt><trkpt lat="46.1474607" lon="9.4686838"><ele>205.0</ele><time>2026-04-07T09:17:01.695Z</time></trkpt><trkpt lat="46.1474089" lon="9.4685338"><ele>204.99999999999997</ele><time>2026-04-07T09:17:03.695Z</time></trkpt><trkpt lat="46.147376" lon="9.4684431"><ele>205.0</ele><time>2026-04-07T09:17:04.694Z</time></trkpt><trkpt lat="46.1473475" lon="9.4683617"><ele>204.8</ele><time>2026-04-07T09:17:05.694Z</time></trkpt><trkpt lat="46.1473224" lon="9.4682732"><ele>204.6</ele><time>2026-04-07T09:17:06.695Z</time></trkpt><trkpt lat="46.1472831" lon="9.4681028"><ele>204.39999999999998</ele><time>2026-04-07T09:17:08.693Z</time></trkpt><trkpt lat="46.1472634" lon="9.4680153"><ele>204.2</ele><time>2026-04-07T09:17:09.695Z</time></trkpt><trkpt lat="46.1472203" lon="9.4678401"><ele>204.0</ele><time>2026-04-07T09:17:11.695Z</time></trkpt><trkpt lat="46.1471984" lon="9.4677487"><ele>204.0</ele><time>2026-04-07T09:17:12.696Z</time></trkpt><trkpt lat="46.147181" lon="9.4676557"><ele>204.0</ele><time>2026-04-07T09:17:13.695Z</time></trkpt><trkpt lat="46.1471477" lon="9.4674836"><ele>204.0</ele><time>2026-04-07T09:17:15.694Z</time></trkpt><trkpt lat="46.1471034" lon="9.467312"><ele>204.0</ele><time>2026-04-07T09:17:17.695Z</time></trkpt><trkpt lat="46.1470808" lon="9.4671444"><ele>204.0</ele><time>2026-04-07T09:17:19.696Z</time></trkpt><trkpt lat="46.1470613" lon="9.4670516"><ele>204.0</ele><time>2026-04-07T09:17:20.696Z</time></trkpt><trkpt lat="46.147044" lon="9.4669625"><ele>204.0</ele><time>2026-04-07T09:17:21.694Z</time></trkpt><trkpt lat="46.147007" lon="9.4667952"><ele>204.0</ele><time>2026-04-07T09:17:23.696Z</time></trkpt><trkpt lat="46.1469914" lon="9.4667069"><ele>204.0</ele><time>2026-04-07T09:17:24.696Z</time></trkpt><trkpt lat="46.1469709" lon="9.4665451"><ele>204.0</ele><time>2026-04-07T09:17:26.694Z</time></trkpt><trkpt lat="46.1469303" lon="9.4663711"><ele>204.0</ele><time>2026-04-07T09:17:28.695Z</time></trkpt><trkpt lat="46.1469156" lon="9.4662796"><ele>204.0</ele><time>2026-04-07T09:17:29.696Z</time></trkpt><trkpt lat="46.1469" lon="9.4661898"><ele>204.0</ele><time>2026-04-07T09:17:30.695Z</time></trkpt><trkpt lat="46.1468851" lon="9.4660939"><ele>204.0</ele><time>2026-04-07T09:17:31.695Z</time></trkpt><trkpt lat="46.1468713" lon="9.4659975"><ele>204.0</ele><time>2026-04-07T09:17:32.696Z</time></trkpt><trkpt lat="46.1468453" lon="9.4659143"><ele>204.0</ele><time>2026-04-07T09:17:33.695Z</time></trkpt><trkpt lat="46.146815" lon="9.465828"><ele>204.0</ele><time>2026-04-07T09:17:34.695Z</time></trkpt><trkpt lat="46.1467994" lon="9.4657393"><ele>204.0</ele><time>2026-04-07T09:17:35.694Z</time></trkpt><trkpt lat="46.1468136" lon="9.4655853"><ele>204.0</ele><time>2026-04-07T09:17:37.695Z</time></trkpt><trkpt lat="46.1468254" lon="9.4654866"><ele>204.0</ele><time>2026-04-07T09:17:38.695Z</time></trkpt><trkpt lat="46.1468202" lon="9.4653248"><ele>204.0</ele><time>2026-04-07T09:17:40.696Z</time></trkpt><trkpt lat="46.1468191" lon="9.4651726"><ele>204.0</ele><time>2026-04-07T09:17:42.695Z</time></trkpt><trkpt lat="46.1468007" lon="9.4650138"><ele>204.0</ele><time>2026-04-07T09:17:44.695Z</time></trkpt><trkpt lat="46.1468103" lon="9.4648713"><ele>204.0</ele><time>2026-04-07T09:17:46.695Z</time></trkpt><trkpt lat="46.1468178" lon="9.464726"><ele>204.0</ele><time>2026-04-07T09:17:48.695Z</time></trkpt><trkpt lat="46.1468587" lon="9.4645843"><ele>204.0</ele><time>2026-04-07T09:17:50.695Z</time></trkpt><trkpt lat="46.1469143" lon="9.4644326"><ele>204.0</ele><time>2026-04-07T09:17:52.695Z</time></trkpt><trkpt lat="46.1469756" lon="9.4642996"><ele>204.2</ele><time>2026-04-07T09:17:54.695Z</time></trkpt><trkpt lat="46.1470216" lon="9.4641661"><ele>204.39999999999998</ele><time>2026-04-07T09:17:56.696Z</time></trkpt><trkpt lat="46.1470719" lon="9.464045"><ele>204.6</ele><time>2026-04-07T09:17:58.694Z</time></trkpt><trkpt lat="46.1470918" lon="9.4639186"><ele>204.8</ele><time>2026-04-07T09:18:00.695Z</time></trkpt><trkpt lat="46.1471497" lon="9.4637774"><ele>205.0</ele><time>2026-04-07T09:18:02.695Z</time></trkpt><trkpt lat="46.1471847" lon="9.4637003"><ele>205.16666666666666</ele><time>2026-04-07T09:18:03.694Z</time></trkpt><trkpt lat="46.1472167" lon="9.4636218"><ele>205.33333333333331</ele><time>2026-04-07T09:18:04.694Z</time></trkpt><trkpt lat="46.147252" lon="9.4635456"><ele>205.5</ele><time>2026-04-07T09:18:05.695Z</time></trkpt><trkpt lat="46.1473185" lon="9.4634154"><ele>205.66666666666669</ele><time>2026-04-07T09:18:07.695Z</time></trkpt><trkpt lat="46.1473581" lon="9.4633446"><ele>205.83333333333334</ele><time>2026-04-07T09:18:08.696Z</time></trkpt><trkpt lat="46.1474419" lon="9.4632316"><ele>206.0</ele><time>2026-04-07T09:18:10.694Z</time></trkpt><trkpt lat="46.1475084" lon="9.4631039"><ele>205.5</ele><time>2026-04-07T09:18:12.695Z</time></trkpt><trkpt lat="46.1475887" lon="9.4629819"><ele>205.0</ele><time>2026-04-07T09:18:14.695Z</time></trkpt><trkpt lat="46.1476663" lon="9.4628608"><ele>204.5</ele><time>2026-04-07T09:18:16.694Z</time></trkpt><trkpt lat="46.147743" lon="9.4627361"><ele>204.0</ele><time>2026-04-07T09:18:18.695Z</time></trkpt><trkpt lat="46.1478225" lon="9.4626291"><ele>204.0</ele><time>2026-04-07T09:18:20.694Z</time></trkpt><trkpt lat="46.1479099" lon="9.4625219"><ele>204.0</ele><time>2026-04-07T09:18:22.695Z</time></trkpt><trkpt lat="46.1479977" lon="9.4624216"><ele>204.0</ele><time>2026-04-07T09:18:24.694Z</time></trkpt><trkpt lat="46.1480913" lon="9.4623106"><ele>204.0</ele><time>2026-04-07T09:18:26.694Z</time></trkpt><trkpt lat="46.1481804" lon="9.4622015"><ele>203.75</ele><time>2026-04-07T09:18:28.695Z</time></trkpt><trkpt lat="46.1482745" lon="9.4621019"><ele>203.5</ele><time>2026-04-07T09:18:30.694Z</time></trkpt><trkpt lat="46.1483709" lon="9.4620044"><ele>203.25</ele><time>2026-04-07T09:18:32.694Z</time></trkpt><trkpt lat="46.1484481" lon="9.4619041"><ele>203.0</ele><time>2026-04-07T09:18:34.694Z</time></trkpt><trkpt lat="46.1485422" lon="9.4617944"><ele>203.0</ele><time>2026-04-07T09:18:36.694Z</time></trkpt><trkpt lat="46.1486387" lon="9.461697"><ele>203.0</ele><time>2026-04-07T09:18:38.696Z</time></trkpt><trkpt lat="46.1487304" lon="9.4615854"><ele>203.0</ele><time>2026-04-07T09:18:40.695Z</time></trkpt><trkpt lat="46.1488213" lon="9.4614638"><ele>203.0</ele><time>2026-04-07T09:18:42.696Z</time></trkpt><trkpt lat="46.1489168" lon="9.4613529"><ele>203.0</ele><time>2026-04-07T09:18:44.695Z</time></trkpt><trkpt lat="46.1489854" lon="9.4612304"><ele>203.0</ele><time>2026-04-07T09:18:46.697Z</time></trkpt><trkpt lat="46.1490305" lon="9.4611544"><ele>203.0</ele><time>2026-04-07T09:18:47.694Z</time></trkpt><trkpt lat="46.1490972" lon="9.4610162"><ele>203.0</ele><time>2026-04-07T09:18:49.696Z</time></trkpt><trkpt lat="46.1491442" lon="9.460869"><ele>203.0</ele><time>2026-04-07T09:18:51.695Z</time></trkpt><trkpt lat="46.1491876" lon="9.4607136"><ele>203.0</ele><time>2026-04-07T09:18:53.694Z</time></trkpt><trkpt lat="46.1492413" lon="9.4605446"><ele>203.0</ele><time>2026-04-07T09:18:55.694Z</time></trkpt><trkpt lat="46.1493148" lon="9.460411"><ele>203.0</ele><time>2026-04-07T09:18:57.695Z</time></trkpt><trkpt lat="46.149356" lon="9.4603262"><ele>203.0</ele><time>2026-04-07T09:18:58.694Z</time></trkpt><trkpt lat="46.149389" lon="9.4602263"><ele>203.0</ele><time>2026-04-07T09:18:59.695Z</time></trkpt><trkpt lat="46.1494246" lon="9.4601319"><ele>203.00000000000003</ele><time>2026-04-07T09:19:00.695Z</time></trkpt><trkpt lat="46.1494916" lon="9.4600445"><ele>203.0</ele><time>2026-04-07T09:19:02.697Z</time></trkpt><trkpt lat="46.1495198" lon="9.4598762"><ele>203.0</ele><time>2026-04-07T09:19:03.695Z</time></trkpt><trkpt lat="46.1495313" lon="9.4597809"><ele>203.0</ele><time>2026-04-07T09:19:04.694Z</time></trkpt><trkpt lat="46.1495534" lon="9.4596864"><ele>203.00000000000003</ele><time>2026-04-07T09:19:05.696Z</time></trkpt><trkpt lat="46.1495576" lon="9.4595895"><ele>203.0</ele><time>2026-04-07T09:19:06.695Z</time></trkpt><trkpt lat="46.1495391" lon="9.4594277"><ele>203.0</ele><time>2026-04-07T09:19:08.696Z</time></trkpt><trkpt lat="46.1495317" lon="9.4592505"><ele>203.0</ele><time>2026-04-07T09:19:10.697Z</time></trkpt><trkpt lat="46.149518" lon="9.4591588"><ele>203.0</ele><time>2026-04-07T09:19:11.696Z</time></trkpt><trkpt lat="46.1494793" lon="9.4589948"><ele>203.0</ele><time>2026-04-07T09:19:13.694Z</time></trkpt><trkpt lat="46.1494271" lon="9.4588345"><ele>203.0</ele><time>2026-04-07T09:19:15.695Z</time></trkpt><trkpt lat="46.1493807" lon="9.4586853"><ele>203.2</ele><time>2026-04-07T09:19:17.695Z</time></trkpt><trkpt lat="46.149309" lon="9.4585313"><ele>203.4</ele><time>2026-04-07T09:19:19.695Z</time></trkpt><trkpt lat="46.1492305" lon="9.4583834"><ele>203.6</ele><time>2026-04-07T09:19:21.694Z</time></trkpt><trkpt lat="46.1491881" lon="9.4583084"><ele>203.79999999999998</ele><time>2026-04-07T09:19:22.696Z</time></trkpt><trkpt lat="46.1491119" lon="9.4581684"><ele>204.0</ele><time>2026-04-07T09:19:24.696Z</time></trkpt><trkpt lat="46.1490361" lon="9.4580304"><ele>204.33333333333334</ele><time>2026-04-07T09:19:26.695Z</time></trkpt><trkpt lat="46.1489988" lon="9.4579537"><ele>204.66666666666669</ele><time>2026-04-07T09:19:27.696Z</time></trkpt><trkpt lat="46.1489162" lon="9.4578213"><ele>205.0</ele><time>2026-04-07T09:19:29.695Z</time></trkpt><trkpt lat="46.1488725" lon="9.4577495"><ele>205.33333333333334</ele><time>2026-04-07T09:19:30.696Z</time></trkpt><trkpt lat="46.1488234" lon="9.4576781"><ele>205.66666666666669</ele><time>2026-04-07T09:19:31.695Z</time></trkpt><trkpt lat="46.1487744" lon="9.4576087"><ele>206.0</ele><time>2026-04-07T09:19:32.695Z</time></trkpt><trkpt lat="46.1486978" lon="9.4574741"><ele>205.60000000000002</ele><time>2026-04-07T09:19:34.694Z</time></trkpt><trkpt lat="46.1485987" lon="9.4573401"><ele>205.2</ele><time>2026-04-07T09:19:36.695Z</time></trkpt><trkpt lat="46.148551" lon="9.4572772"><ele>204.8</ele><time>2026-04-07T09:19:37.695Z</time></trkpt><trkpt lat="46.1484551" lon="9.4571546"><ele>204.39999999999998</ele><time>2026-04-07T09:19:39.696Z</time></trkpt><trkpt lat="46.1484077" lon="9.4570898"><ele>204.0</ele><time>2026-04-07T09:19:40.695Z</time></trkpt><trkpt lat="46.1483541" lon="9.4570322"><ele>204.0</ele><time>2026-04-07T09:19:41.695Z</time></trkpt><trkpt lat="46.1482998" lon="9.4569742"><ele>204.0</ele><time>2026-04-07T09:19:42.694Z</time></trkpt><trkpt lat="46.1482557" lon="9.4569071"><ele>204.0</ele><time>2026-04-07T09:19:43.695Z</time></trkpt><trkpt lat="46.148205" lon="9.4568435"><ele>204.0</ele><time>2026-04-07T09:19:44.695Z</time></trkpt><trkpt lat="46.1481479" lon="9.4567934"><ele>204.0</ele><time>2026-04-07T09:19:45.695Z</time></trkpt><trkpt lat="46.1480897" lon="9.4567408"><ele>204.0</ele><time>2026-04-07T09:19:46.694Z</time></trkpt><trkpt lat="46.1480355" lon="9.4566777"><ele>204.0</ele><time>2026-04-07T09:19:47.696Z</time></trkpt><trkpt lat="46.1479797" lon="9.4566224"><ele>204.16666666666666</ele><time>2026-04-07T09:19:48.695Z</time></trkpt><trkpt lat="46.1478815" lon="9.4565092"><ele>204.33333333333331</ele><time>2026-04-07T09:19:50.695Z</time></trkpt><trkpt lat="46.1478223" lon="9.4564525"><ele>204.5</ele><time>2026-04-07T09:19:51.694Z</time></trkpt><trkpt lat="46.1477667" lon="9.456398"><ele>204.66666666666666</ele><time>2026-04-07T09:19:52.695Z</time></trkpt><trkpt lat="46.1477095" lon="9.4563433"><ele>204.83333333333331</ele><time>2026-04-07T09:19:53.696Z</time></trkpt><trkpt lat="46.1476454" lon="9.4562885"><ele>205.0</ele><time>2026-04-07T09:19:54.695Z</time></trkpt><trkpt lat="46.1475365" lon="9.4561923"><ele>204.66666666666666</ele><time>2026-04-07T09:19:56.695Z</time></trkpt><trkpt lat="46.1474815" lon="9.4561376"><ele>204.33333333333331</ele><time>2026-04-07T09:19:57.695Z</time></trkpt><trkpt lat="46.147369" lon="9.4560497"><ele>204.0</ele><time>2026-04-07T09:19:59.695Z</time></trkpt><trkpt lat="46.1473111" lon="9.4560042"><ele>203.66666666666669</ele><time>2026-04-07T09:20:00.695Z</time></trkpt><trkpt lat="46.1472536" lon="9.4559547"><ele>203.33333333333334</ele><time>2026-04-07T09:20:01.694Z</time></trkpt><trkpt lat="46.1471965" lon="9.4559025"><ele>203.0</ele><time>2026-04-07T09:20:02.695Z</time></trkpt><trkpt lat="46.1471415" lon="9.455857"><ele>202.85714285714286</ele><time>2026-04-07T09:20:03.695Z</time></trkpt><trkpt lat="46.1470849" lon="9.4558108"><ele>202.71428571428572</ele><time>2026-04-07T09:20:04.694Z</time></trkpt><trkpt lat="46.1470273" lon="9.4557615"><ele>202.57142857142856</ele><time>2026-04-07T09:20:05.695Z</time></trkpt><trkpt lat="46.1469673" lon="9.4557187"><ele>202.42857142857144</ele><time>2026-04-07T09:20:06.696Z</time></trkpt><trkpt lat="46.1469047" lon="9.4556584"><ele>202.28571428571428</ele><time>2026-04-07T09:20:07.695Z</time></trkpt><trkpt lat="46.1468459" lon="9.4556225"><ele>202.14285714285714</ele><time>2026-04-07T09:20:08.694Z</time></trkpt><trkpt lat="46.1467804" lon="9.4555791"><ele>202.0</ele><time>2026-04-07T09:20:09.695Z</time></trkpt><trkpt lat="46.1467223" lon="9.4555321"><ele>201.99999999999997</ele><time>2026-04-07T09:20:10.695Z</time></trkpt><trkpt lat="46.1466574" lon="9.4554978"><ele>202.0</ele><time>2026-04-07T09:20:11.694Z</time></trkpt><trkpt lat="46.1465951" lon="9.4554616"><ele>202.0</ele><time>2026-04-07T09:20:12.695Z</time></trkpt><trkpt lat="46.1464753" lon="9.4554081"><ele>202.0</ele><time>2026-04-07T09:20:14.695Z</time></trkpt><trkpt lat="46.1464164" lon="9.455374"><ele>201.99999999999997</ele><time>2026-04-07T09:20:15.696Z</time></trkpt><trkpt lat="46.1463528" lon="9.4553458"><ele>202.0</ele><time>2026-04-07T09:20:16.696Z</time></trkpt><trkpt lat="46.1462864" lon="9.4553185"><ele>201.83333333333331</ele><time>2026-04-07T09:20:17.694Z</time></trkpt><trkpt lat="46.1462231" lon="9.4552912"><ele>201.66666666666666</ele><time>2026-04-07T09:20:18.696Z</time></trkpt><trkpt lat="46.1461539" lon="9.4552661"><ele>201.5</ele><time>2026-04-07T09:20:19.695Z</time></trkpt><trkpt lat="46.1460247" lon="9.4552141"><ele>201.33333333333331</ele><time>2026-04-07T09:20:21.696Z</time></trkpt><trkpt lat="46.1459611" lon="9.4551831"><ele>201.16666666666666</ele><time>2026-04-07T09:20:22.694Z</time></trkpt><trkpt lat="46.1458977" lon="9.4551596"><ele>201.0</ele><time>2026-04-07T09:20:23.695Z</time></trkpt><trkpt lat="46.1458322" lon="9.4551293"><ele>201.0</ele><time>2026-04-07T09:20:24.695Z</time></trkpt><trkpt lat="46.1457596" lon="9.4551035"><ele>201.0</ele><time>2026-04-07T09:20:25.694Z</time></trkpt><trkpt lat="46.1456896" lon="9.4550838"><ele>201.0</ele><time>2026-04-07T09:20:26.696Z</time></trkpt><trkpt lat="46.1456226" lon="9.4550623"><ele>201.0</ele><time>2026-04-07T09:20:27.695Z</time></trkpt><trkpt lat="46.145551" lon="9.4550481"><ele>201.0</ele><time>2026-04-07T09:20:28.694Z</time></trkpt><trkpt lat="46.145487" lon="9.4550245"><ele>201.0</ele><time>2026-04-07T09:20:29.694Z</time></trkpt><trkpt lat="46.1454268" lon="9.4549935"><ele>201.0</ele><time>2026-04-07T09:20:30.695Z</time></trkpt><trkpt lat="46.1453682" lon="9.4549497"><ele>202.0</ele><time>2026-04-07T09:20:31.695Z</time></trkpt><trkpt lat="46.1452675" lon="9.4548715"><ele>203.0</ele><time>2026-04-07T09:20:33.694Z</time></trkpt><trkpt lat="46.1451764" lon="9.4548027"><ele>204.0</ele><time>2026-04-07T09:20:35.695Z</time></trkpt><trkpt lat="46.1451168" lon="9.4547705"><ele>205.0</ele><time>2026-04-07T09:20:36.694Z</time></trkpt><trkpt lat="46.1450556" lon="9.4547408"><ele>206.0</ele><time>2026-04-07T09:20:37.694Z</time></trkpt><trkpt lat="46.1449505" lon="9.4546997"><ele>206.0</ele><time>2026-04-07T09:20:39.694Z</time></trkpt><trkpt lat="46.1448889" lon="9.454668"><ele>206.0</ele><time>2026-04-07T09:20:40.696Z</time></trkpt><trkpt lat="46.1448327" lon="9.4546225"><ele>206.0</ele><time>2026-04-07T09:20:41.695Z</time></trkpt><trkpt lat="46.1447224" lon="9.4545669"><ele>206.0</ele><time>2026-04-07T09:20:43.695Z</time></trkpt><trkpt lat="46.1446236" lon="9.4545241"><ele>206.0</ele><time>2026-04-07T09:20:45.695Z</time></trkpt><trkpt lat="46.1445074" lon="9.4544936"><ele>205.4</ele><time>2026-04-07T09:20:47.695Z</time></trkpt><trkpt lat="46.1444016" lon="9.4544664"><ele>204.8</ele><time>2026-04-07T09:20:49.695Z</time></trkpt><trkpt lat="46.1443041" lon="9.4544318"><ele>204.20000000000002</ele><time>2026-04-07T09:20:51.696Z</time></trkpt><trkpt lat="46.1442135" lon="9.4543649"><ele>203.60000000000002</ele><time>2026-04-07T09:20:54.695Z</time></trkpt><trkpt lat="46.1441865" lon="9.4542205"><ele>203.0</ele><time>2026-04-07T09:20:56.695Z</time></trkpt><trkpt lat="46.1441501" lon="9.4540748"><ele>203.0</ele><time>2026-04-07T09:20:58.695Z</time></trkpt><trkpt lat="46.1441066" lon="9.4539273"><ele>203.0</ele><time>2026-04-07T09:21:00.695Z</time></trkpt><trkpt lat="46.1440591" lon="9.4537629"><ele>203.0</ele><time>2026-04-07T09:21:02.695Z</time></trkpt><trkpt lat="46.1440117" lon="9.4535994"><ele>203.0</ele><time>2026-04-07T09:21:04.696Z</time></trkpt><trkpt lat="46.1439846" lon="9.4534417"><ele>203.0</ele><time>2026-04-07T09:21:06.696Z</time></trkpt><trkpt lat="46.1439557" lon="9.4532674"><ele>203.0</ele><time>2026-04-07T09:21:08.695Z</time></trkpt><trkpt lat="46.1438892" lon="9.4531228"><ele>203.0</ele><time>2026-04-07T09:21:10.695Z</time></trkpt><trkpt lat="46.1437946" lon="9.4530156"><ele>203.0</ele><time>2026-04-07T09:21:12.695Z</time></trkpt><trkpt lat="46.1436902" lon="9.4529107"><ele>203.00000000000003</ele><time>2026-04-07T09:21:14.694Z</time></trkpt><trkpt lat="46.1435748" lon="9.4528338"><ele>203.0</ele><time>2026-04-07T09:21:16.694Z</time></trkpt><trkpt lat="46.1435081" lon="9.452817"><ele>203.0</ele><time>2026-04-07T09:21:17.696Z</time></trkpt><trkpt lat="46.1434424" lon="9.4528203"><ele>203.0</ele><time>2026-04-07T09:21:18.695Z</time></trkpt><trkpt lat="46.1433776" lon="9.4528119"><ele>203.00000000000003</ele><time>2026-04-07T09:21:19.695Z</time></trkpt><trkpt lat="46.1433072" lon="9.4528214"><ele>203.0</ele><time>2026-04-07T09:21:20.695Z</time></trkpt><trkpt lat="46.1431817" lon="9.4528309"><ele>203.0</ele><time>2026-04-07T09:21:22.695Z</time></trkpt><trkpt lat="46.1431185" lon="9.4528406"><ele>203.0</ele><time>2026-04-07T09:21:23.695Z</time></trkpt><trkpt lat="46.143054" lon="9.4528551"><ele>203.0</ele><time>2026-04-07T09:21:24.696Z</time></trkpt><trkpt lat="46.142989" lon="9.4528647"><ele>203.0</ele><time>2026-04-07T09:21:25.694Z</time></trkpt><trkpt lat="46.1429224" lon="9.4528757"><ele>203.0</ele><time>2026-04-07T09:21:26.695Z</time></trkpt><trkpt lat="46.142851" lon="9.4528816"><ele>203.0</ele><time>2026-04-07T09:21:27.695Z</time></trkpt><trkpt lat="46.1427825" lon="9.4528941"><ele>203.0</ele><time>2026-04-07T09:21:28.695Z</time></trkpt><trkpt lat="46.1427143" lon="9.4528774"><ele>203.0</ele><time>2026-04-07T09:21:29.695Z</time></trkpt><trkpt lat="46.1426446" lon="9.452861"><ele>203.0</ele><time>2026-04-07T09:21:30.697Z</time></trkpt><trkpt lat="46.1425725" lon="9.4528437"><ele>203.0</ele><time>2026-04-07T09:21:31.697Z</time></trkpt><trkpt lat="46.1425097" lon="9.4528186"><ele>203.0</ele><time>2026-04-07T09:21:32.696Z</time></trkpt><trkpt lat="46.1424394" lon="9.4527956"><ele>203.0</ele><time>2026-04-07T09:21:33.695Z</time></trkpt><trkpt lat="46.1423759" lon="9.4527673"><ele>203.0</ele><time>2026-04-07T09:21:34.696Z</time></trkpt><trkpt lat="46.1423095" lon="9.4527551"><ele>203.0</ele><time>2026-04-07T09:21:35.695Z</time></trkpt><trkpt lat="46.1422438" lon="9.4527386"><ele>203.00000000000003</ele><time>2026-04-07T09:21:36.696Z</time></trkpt><trkpt lat="46.1421801" lon="9.4527405"><ele>203.0</ele><time>2026-04-07T09:21:37.697Z</time></trkpt><trkpt lat="46.1420756" lon="9.4527999"><ele>203.0</ele><time>2026-04-07T09:21:39.696Z</time></trkpt><trkpt lat="46.1420152" lon="9.4528391"><ele>203.0</ele><time>2026-04-07T09:21:40.696Z</time></trkpt><trkpt lat="46.1419317" lon="9.4528895"><ele>203.00000000000003</ele><time>2026-04-07T09:21:41.695Z</time></trkpt><trkpt lat="46.1418725" lon="9.4529272"><ele>203.0</ele><time>2026-04-07T09:21:42.695Z</time></trkpt><trkpt lat="46.1418053" lon="9.4529721"><ele>203.14285714285714</ele><time>2026-04-07T09:21:43.695Z</time></trkpt><trkpt lat="46.1417387" lon="9.4530104"><ele>203.28571428571428</ele><time>2026-04-07T09:21:44.696Z</time></trkpt><trkpt lat="46.1416784" lon="9.4530452"><ele>203.42857142857144</ele><time>2026-04-07T09:21:45.694Z</time></trkpt><trkpt lat="46.141609" lon="9.4530826"><ele>203.57142857142856</ele><time>2026-04-07T09:21:46.696Z</time></trkpt><trkpt lat="46.1415432" lon="9.4531153"><ele>203.71428571428572</ele><time>2026-04-07T09:21:47.694Z</time></trkpt><trkpt lat="46.1414724" lon="9.4531469"><ele>203.85714285714286</ele><time>2026-04-07T09:21:48.695Z</time></trkpt><trkpt lat="46.1413997" lon="9.4531752"><ele>204.0</ele><time>2026-04-07T09:21:49.695Z</time></trkpt><trkpt lat="46.14134" lon="9.453206"><ele>204.0</ele><time>2026-04-07T09:21:50.696Z</time></trkpt><trkpt lat="46.1412259" lon="9.4532706"><ele>204.0</ele><time>2026-04-07T09:21:52.696Z</time></trkpt><trkpt lat="46.1411147" lon="9.4533313"><ele>204.0</ele><time>2026-04-07T09:21:54.696Z</time></trkpt><trkpt lat="46.1410036" lon="9.4533835"><ele>204.0</ele><time>2026-04-07T09:21:56.697Z</time></trkpt><trkpt lat="46.1408954" lon="9.4534346"><ele>204.0</ele><time>2026-04-07T09:21:58.694Z</time></trkpt><trkpt lat="46.1408096" lon="9.4534889"><ele>204.0</ele><time>2026-04-07T09:22:00.696Z</time></trkpt><trkpt lat="46.1407383" lon="9.4535225"><ele>204.0</ele><time>2026-04-07T09:22:02.696Z</time></trkpt><trkpt lat="46.140669" lon="9.4536187"><ele>204.0</ele><time>2026-04-07T09:22:05.695Z</time></trkpt><trkpt lat="46.1406407" lon="9.4537151"><ele>204.0</ele><time>2026-04-07T09:22:07.697Z</time></trkpt><trkpt lat="46.1406143" lon="9.4538261"><ele>204.0</ele><time>2026-04-07T09:22:09.695Z</time></trkpt><trkpt lat="46.1405828" lon="9.4539403"><ele>204.2</ele><time>2026-04-07T09:22:11.695Z</time></trkpt><trkpt lat="46.140538" lon="9.4540513"><ele>204.39999999999998</ele><time>2026-04-07T09:22:13.696Z</time></trkpt><trkpt lat="46.1405018" lon="9.4541719"><ele>204.6</ele><time>2026-04-07T09:22:15.694Z</time></trkpt><trkpt lat="46.1404633" lon="9.4542854"><ele>204.8</ele><time>2026-04-07T09:22:17.695Z</time></trkpt><trkpt lat="46.1404086" lon="9.4544072"><ele>205.0</ele><time>2026-04-07T09:22:19.696Z</time></trkpt><trkpt lat="46.1403651" lon="9.4545301"><ele>205.4</ele><time>2026-04-07T09:22:21.696Z</time></trkpt><trkpt lat="46.1403264" lon="9.454663"><ele>205.8</ele><time>2026-04-07T09:22:23.694Z</time></trkpt><trkpt lat="46.1402867" lon="9.4547966"><ele>206.2</ele><time>2026-04-07T09:22:25.696Z</time></trkpt><trkpt lat="46.1402549" lon="9.4549184"><ele>206.6</ele><time>2026-04-07T09:22:27.696Z</time></trkpt><trkpt lat="46.1402139" lon="9.4550351"><ele>207.0</ele><time>2026-04-07T09:22:29.694Z</time></trkpt><trkpt lat="46.1401804" lon="9.455164"><ele>207.0</ele><time>2026-04-07T09:22:31.695Z</time></trkpt><trkpt lat="46.1401622" lon="9.4552794"><ele>207.0</ele><time>2026-04-07T09:22:33.695Z</time></trkpt><trkpt lat="46.1401279" lon="9.4553973"><ele>207.0</ele><time>2026-04-07T09:22:35.695Z</time></trkpt><trkpt lat="46.1400808" lon="9.4555141"><ele>207.0</ele><time>2026-04-07T09:22:37.697Z</time></trkpt><trkpt lat="46.1400083" lon="9.4556386"><ele>207.0</ele><time>2026-04-07T09:22:39.695Z</time></trkpt><trkpt lat="46.1399399" lon="9.4557494"><ele>207.0</ele><time>2026-04-07T09:22:41.695Z</time></trkpt><trkpt lat="46.1398787" lon="9.4558626"><ele>207.0</ele><time>2026-04-07T09:22:43.696Z</time></trkpt><trkpt lat="46.1398033" lon="9.4559854"><ele>207.0</ele><time>2026-04-07T09:22:45.696Z</time></trkpt><trkpt lat="46.1397177" lon="9.4560491"><ele>207.0</ele><time>2026-04-07T09:22:47.695Z</time></trkpt><trkpt lat="46.1396338" lon="9.4560571"><ele>207.0</ele><time>2026-04-07T09:22:49.695Z</time></trkpt><trkpt lat="46.1395459" lon="9.4560441"><ele>207.0</ele><time>2026-04-07T09:22:51.694Z</time></trkpt><trkpt lat="46.1394506" lon="9.4560404"><ele>207.0</ele><time>2026-04-07T09:22:53.695Z</time></trkpt><trkpt lat="46.1393487" lon="9.4560343"><ele>207.0</ele><time>2026-04-07T09:22:55.695Z</time></trkpt><trkpt lat="46.139252" lon="9.4560466"><ele>207.0</ele><time>2026-04-07T09:22:57.694Z</time></trkpt><trkpt lat="46.1391437" lon="9.4560311"><ele>207.0</ele><time>2026-04-07T09:22:59.695Z</time></trkpt><trkpt lat="46.1390423" lon="9.4560293"><ele>208.6</ele><time>2026-04-07T09:23:01.695Z</time></trkpt><trkpt lat="46.13893" lon="9.4560296"><ele>210.2</ele><time>2026-04-07T09:23:03.695Z</time></trkpt><trkpt lat="46.1388365" lon="9.4560045"><ele>211.8</ele><time>2026-04-07T09:23:05.694Z</time></trkpt><trkpt lat="46.1387643" lon="9.4559055"><ele>213.4</ele><time>2026-04-07T09:23:07.695Z</time></trkpt><trkpt lat="46.1387248" lon="9.4557554"><ele>215.0</ele><time>2026-04-07T09:23:09.697Z</time></trkpt><trkpt lat="46.1387295" lon="9.4556029"><ele>214.5</ele><time>2026-04-07T09:23:11.695Z</time></trkpt><trkpt lat="46.1387307" lon="9.4554447"><ele>214.0</ele><time>2026-04-07T09:23:13.695Z</time></trkpt><trkpt lat="46.1387333" lon="9.4552843"><ele>213.5</ele><time>2026-04-07T09:23:15.695Z</time></trkpt><trkpt lat="46.1387305" lon="9.4551127"><ele>213.0</ele><time>2026-04-07T09:23:17.697Z</time></trkpt><trkpt lat="46.1387279" lon="9.454943"><ele>213.0</ele><time>2026-04-07T09:23:19.695Z</time></trkpt><trkpt lat="46.1387257" lon="9.4547733"><ele>213.0</ele><time>2026-04-07T09:23:21.694Z</time></trkpt><trkpt lat="46.1387164" lon="9.4545975"><ele>213.0</ele><time>2026-04-07T09:23:23.695Z</time></trkpt><trkpt lat="46.1387162" lon="9.4544223"><ele>213.0</ele><time>2026-04-07T09:23:25.697Z</time></trkpt><trkpt lat="46.1387273" lon="9.4542381"><ele>213.0</ele><time>2026-04-07T09:23:27.695Z</time></trkpt><trkpt lat="46.138718" lon="9.4540626"><ele>213.0</ele><time>2026-04-07T09:23:29.695Z</time></trkpt><trkpt lat="46.1387282" lon="9.453882"><ele>213.0</ele><time>2026-04-07T09:23:31.694Z</time></trkpt><trkpt lat="46.1387194" lon="9.453718"><ele>213.0</ele><time>2026-04-07T09:23:33.696Z</time></trkpt><trkpt lat="46.1387277" lon="9.4535382"><ele>213.0</ele><time>2026-04-07T09:23:35.695Z</time></trkpt><trkpt lat="46.1387284" lon="9.4534436"><ele>213.0</ele><time>2026-04-07T09:23:36.696Z</time></trkpt><trkpt lat="46.1387231" lon="9.4532708"><ele>213.0</ele><time>2026-04-07T09:23:38.696Z</time></trkpt><trkpt lat="46.1387237" lon="9.4530971"><ele>213.0</ele><time>2026-04-07T09:23:40.696Z</time></trkpt><trkpt lat="46.1387206" lon="9.4529077"><ele>213.0</ele><time>2026-04-07T09:23:42.695Z</time></trkpt><trkpt lat="46.1387185" lon="9.4528159"><ele>213.0</ele><time>2026-04-07T09:23:43.695Z</time></trkpt><trkpt lat="46.1387135" lon="9.4527145"><ele>213.0</ele><time>2026-04-07T09:23:44.695Z</time></trkpt><trkpt lat="46.1387103" lon="9.4526227"><ele>213.0</ele><time>2026-04-07T09:23:45.695Z</time></trkpt><trkpt lat="46.1387179" lon="9.452526"><ele>213.0</ele><time>2026-04-07T09:23:46.696Z</time></trkpt><trkpt lat="46.1387384" lon="9.4523485"><ele>213.0</ele><time>2026-04-07T09:23:48.696Z</time></trkpt><trkpt lat="46.1387505" lon="9.4522447"><ele>213.0</ele><time>2026-04-07T09:23:49.695Z</time></trkpt><trkpt lat="46.1387594" lon="9.4521462"><ele>212.57142857142856</ele><time>2026-04-07T09:23:50.696Z</time></trkpt><trkpt lat="46.1387662" lon="9.4520429"><ele>212.14285714285714</ele><time>2026-04-07T09:23:51.696Z</time></trkpt><trkpt lat="46.1387697" lon="9.451941"><ele>211.71428571428572</ele><time>2026-04-07T09:23:52.694Z</time></trkpt><trkpt lat="46.1387744" lon="9.4518417"><ele>211.28571428571428</ele><time>2026-04-07T09:23:53.695Z</time></trkpt><trkpt lat="46.1387706" lon="9.4517373"><ele>210.85714285714286</ele><time>2026-04-07T09:23:54.695Z</time></trkpt><trkpt lat="46.1387706" lon="9.4516295"><ele>210.42857142857142</ele><time>2026-04-07T09:23:55.696Z</time></trkpt><trkpt lat="46.1387598" lon="9.4515259"><ele>210.0</ele><time>2026-04-07T09:23:56.696Z</time></trkpt><trkpt lat="46.1387449" lon="9.4514252"><ele>210.0</ele><time>2026-04-07T09:23:57.695Z</time></trkpt><trkpt lat="46.1387355" lon="9.4513303"><ele>210.0</ele><time>2026-04-07T09:23:58.696Z</time></trkpt><trkpt lat="46.1387295" lon="9.4512326"><ele>210.0</ele><time>2026-04-07T09:23:59.696Z</time></trkpt><trkpt lat="46.1387235" lon="9.4511391"><ele>210.0</ele><time>2026-04-07T09:24:00.696Z</time></trkpt><trkpt lat="46.1387161" lon="9.4510405"><ele>210.0</ele><time>2026-04-07T09:24:01.695Z</time></trkpt><trkpt lat="46.1387041" lon="9.4509366"><ele>210.0</ele><time>2026-04-07T09:24:02.694Z</time></trkpt><trkpt lat="46.138696" lon="9.4508427"><ele>210.0</ele><time>2026-04-07T09:24:03.696Z</time></trkpt><trkpt lat="46.1386881" lon="9.4506643"><ele>209.42857142857142</ele><time>2026-04-07T09:24:05.696Z</time></trkpt><trkpt lat="46.1386822" lon="9.4505635"><ele>208.85714285714286</ele><time>2026-04-07T09:24:06.695Z</time></trkpt><trkpt lat="46.1386835" lon="9.4504679"><ele>208.28571428571428</ele><time>2026-04-07T09:24:07.697Z</time></trkpt><trkpt lat="46.1386886" lon="9.4503602"><ele>207.71428571428572</ele><time>2026-04-07T09:24:08.695Z</time></trkpt><trkpt lat="46.1386899" lon="9.4502551"><ele>207.14285714285714</ele><time>2026-04-07T09:24:09.694Z</time></trkpt><trkpt lat="46.1386887" lon="9.4501523"><ele>206.57142857142856</ele><time>2026-04-07T09:24:10.697Z</time></trkpt><trkpt lat="46.1386836" lon="9.4500445"><ele>206.0</ele><time>2026-04-07T09:24:11.695Z</time></trkpt><trkpt lat="46.1386784" lon="9.4499443"><ele>205.8</ele><time>2026-04-07T09:24:12.694Z</time></trkpt><trkpt lat="46.1386702" lon="9.4497574"><ele>205.60000000000002</ele><time>2026-04-07T09:24:14.695Z</time></trkpt><trkpt lat="46.1386761" lon="9.4495796"><ele>205.4</ele><time>2026-04-07T09:24:16.695Z</time></trkpt><trkpt lat="46.1386731" lon="9.4494873"><ele>205.2</ele><time>2026-04-07T09:24:17.695Z</time></trkpt><trkpt lat="46.1386744" lon="9.4493758"><ele>205.0</ele><time>2026-04-07T09:24:18.695Z</time></trkpt><trkpt lat="46.138677" lon="9.4492789"><ele>204.83333333333331</ele><time>2026-04-07T09:24:19.696Z</time></trkpt><trkpt lat="46.1386877" lon="9.4491068"><ele>204.66666666666666</ele><time>2026-04-07T09:24:21.696Z</time></trkpt><trkpt lat="46.1386885" lon="9.4490098"><ele>204.5</ele><time>2026-04-07T09:24:22.696Z</time></trkpt><trkpt lat="46.1386909" lon="9.4489089"><ele>204.33333333333331</ele><time>2026-04-07T09:24:23.694Z</time></trkpt><trkpt lat="46.1386875" lon="9.4488083"><ele>204.16666666666666</ele><time>2026-04-07T09:24:24.696Z</time></trkpt><trkpt lat="46.1386942" lon="9.4487138"><ele>204.0</ele><time>2026-04-07T09:24:25.697Z</time></trkpt><trkpt lat="46.1386943" lon="9.448613"><ele>204.0</ele><time>2026-04-07T09:24:26.697Z</time></trkpt><trkpt lat="46.1386856" lon="9.4484212"><ele>204.0</ele><time>2026-04-07T09:24:28.695Z</time></trkpt><trkpt lat="46.1386864" lon="9.4483222"><ele>204.0</ele><time>2026-04-07T09:24:29.694Z</time></trkpt><trkpt lat="46.1387014" lon="9.448143"><ele>204.0</ele><time>2026-04-07T09:24:31.696Z</time></trkpt><trkpt lat="46.1387014" lon="9.4480437"><ele>204.0</ele><time>2026-04-07T09:24:32.694Z</time></trkpt><trkpt lat="46.138695" lon="9.4479428"><ele>204.0</ele><time>2026-04-07T09:24:33.695Z</time></trkpt><trkpt lat="46.1386998" lon="9.4478432"><ele>204.0</ele><time>2026-04-07T09:24:34.695Z</time></trkpt><trkpt lat="46.138682" lon="9.4476647"><ele>204.0</ele><time>2026-04-07T09:24:36.696Z</time></trkpt><trkpt lat="46.1386814" lon="9.4475646"><ele>204.0</ele><time>2026-04-07T09:24:37.695Z</time></trkpt><trkpt lat="46.1386828" lon="9.4474651"><ele>204.0</ele><time>2026-04-07T09:24:38.695Z</time></trkpt><trkpt lat="46.1386825" lon="9.4473607"><ele>204.0</ele><time>2026-04-07T09:24:39.696Z</time></trkpt><trkpt lat="46.1386774" lon="9.4472628"><ele>204.0</ele><time>2026-04-07T09:24:40.695Z</time></trkpt><trkpt lat="46.1386794" lon="9.4471657"><ele>204.0</ele><time>2026-04-07T09:24:41.696Z</time></trkpt><trkpt lat="46.1386797" lon="9.4470602"><ele>204.0</ele><time>2026-04-07T09:24:42.694Z</time></trkpt><trkpt lat="46.1386817" lon="9.4469621"><ele>204.0</ele><time>2026-04-07T09:24:43.696Z</time></trkpt><trkpt lat="46.1386775" lon="9.4468642"><ele>204.0</ele><time>2026-04-07T09:24:44.695Z</time></trkpt><trkpt lat="46.1386698" lon="9.4467685"><ele>204.0</ele><time>2026-04-07T09:24:45.695Z</time></trkpt><trkpt lat="46.1386793" lon="9.4465937"><ele>204.0</ele><time>2026-04-07T09:24:47.696Z</time></trkpt><trkpt lat="46.1386805" lon="9.4464094"><ele>204.0</ele><time>2026-04-07T09:24:49.696Z</time></trkpt><trkpt lat="46.1386824" lon="9.446309"><ele>204.0</ele><time>2026-04-07T09:24:50.695Z</time></trkpt><trkpt lat="46.1386774" lon="9.4462148"><ele>204.0</ele><time>2026-04-07T09:24:51.695Z</time></trkpt><trkpt lat="46.1386743" lon="9.4461187"><ele>204.0</ele><time>2026-04-07T09:24:52.695Z</time></trkpt><trkpt lat="46.1386814" lon="9.4460271"><ele>204.0</ele><time>2026-04-07T09:24:53.695Z</time></trkpt><trkpt lat="46.1386853" lon="9.4459323"><ele>204.0</ele><time>2026-04-07T09:24:54.695Z</time></trkpt><trkpt lat="46.1386866" lon="9.4458394"><ele>204.0</ele><time>2026-04-07T09:24:55.695Z</time></trkpt><trkpt lat="46.1386778" lon="9.4457447"><ele>204.0</ele><time>2026-04-07T09:24:56.695Z</time></trkpt><trkpt lat="46.1386839" lon="9.4456522"><ele>204.0</ele><time>2026-04-07T09:24:57.696Z</time></trkpt><trkpt lat="46.1386852" lon="9.4455498"><ele>204.0</ele><time>2026-04-07T09:24:58.697Z</time></trkpt><trkpt lat="46.1386911" lon="9.4454561"><ele>204.0</ele><time>2026-04-07T09:24:59.7Z</time></trkpt><trkpt lat="46.1386951" lon="9.4453599"><ele>204.0</ele><time>2026-04-07T09:25:00.696Z</time></trkpt><trkpt lat="46.1386928" lon="9.4452649"><ele>204.0</ele><time>2026-04-07T09:25:01.697Z</time></trkpt><trkpt lat="46.1386922" lon="9.4450905"><ele>204.0</ele><time>2026-04-07T09:25:03.695Z</time></trkpt><trkpt lat="46.1386957" lon="9.4449932"><ele>204.0</ele><time>2026-04-07T09:25:04.695Z</time></trkpt><trkpt lat="46.1386999" lon="9.4448093"><ele>204.0</ele><time>2026-04-07T09:25:06.694Z</time></trkpt><trkpt lat="46.1386999" lon="9.4447177"><ele>204.0</ele><time>2026-04-07T09:25:07.695Z</time></trkpt><trkpt lat="46.1386972" lon="9.4446246"><ele>204.0</ele><time>2026-04-07T09:25:08.696Z</time></trkpt><trkpt lat="46.1386947" lon="9.444531"><ele>203.83333333333334</ele><time>2026-04-07T09:25:09.695Z</time></trkpt><trkpt lat="46.1386996" lon="9.4443562"><ele>203.66666666666669</ele><time>2026-04-07T09:25:11.696Z</time></trkpt><trkpt lat="46.1387009" lon="9.4442619"><ele>203.5</ele><time>2026-04-07T09:25:12.696Z</time></trkpt><trkpt lat="46.1387036" lon="9.4441663"><ele>203.33333333333334</ele><time>2026-04-07T09:25:13.695Z</time></trkpt><trkpt lat="46.1387006" lon="9.4440688"><ele>203.16666666666669</ele><time>2026-04-07T09:25:14.695Z</time></trkpt><trkpt lat="46.1386989" lon="9.443968"><ele>203.0</ele><time>2026-04-07T09:25:15.696Z</time></trkpt><trkpt lat="46.1387013" lon="9.4438746"><ele>202.8</ele><time>2026-04-07T09:25:16.696Z</time></trkpt><trkpt lat="46.1387036" lon="9.4437726"><ele>202.60000000000002</ele><time>2026-04-07T09:25:17.695Z</time></trkpt><trkpt lat="46.1387043" lon="9.4436792"><ele>202.39999999999998</ele><time>2026-04-07T09:25:18.696Z</time></trkpt><trkpt lat="46.1387055" lon="9.4435802"><ele>202.2</ele><time>2026-04-07T09:25:19.695Z</time></trkpt><trkpt lat="46.1387008" lon="9.4433992"><ele>202.0</ele><time>2026-04-07T09:25:21.695Z</time></trkpt><trkpt lat="46.1386864" lon="9.4432236"><ele>201.99999999999997</ele><time>2026-04-07T09:25:23.696Z</time></trkpt><trkpt lat="46.1386855" lon="9.4430304"><ele>202.0</ele><time>2026-04-07T09:25:25.696Z</time></trkpt><trkpt lat="46.1386821" lon="9.4429309"><ele>202.0</ele><time>2026-04-07T09:25:26.697Z</time></trkpt><trkpt lat="46.1386865" lon="9.4428342"><ele>202.0</ele><time>2026-04-07T09:25:27.695Z</time></trkpt><trkpt lat="46.1386843" lon="9.4427334"><ele>201.99999999999997</ele><time>2026-04-07T09:25:28.695Z</time></trkpt><trkpt lat="46.1386845" lon="9.4426271"><ele>202.0</ele><time>2026-04-07T09:25:29.696Z</time></trkpt><trkpt lat="46.1386825" lon="9.4425287"><ele>201.99999999999997</ele><time>2026-04-07T09:25:30.696Z</time></trkpt><trkpt lat="46.1386846" lon="9.4424337"><ele>202.0</ele><time>2026-04-07T09:25:31.695Z</time></trkpt><trkpt lat="46.1386851" lon="9.4423357"><ele>202.0</ele><time>2026-04-07T09:25:32.695Z</time></trkpt><trkpt lat="46.1387056" lon="9.4421538"><ele>202.0</ele><time>2026-04-07T09:25:34.697Z</time></trkpt><trkpt lat="46.1386979" lon="9.4420616"><ele>201.99999999999997</ele><time>2026-04-07T09:25:35.697Z</time></trkpt><trkpt lat="46.1386985" lon="9.4419601"><ele>202.0</ele><time>2026-04-07T09:25:36.695Z</time></trkpt><trkpt lat="46.1386948" lon="9.4418674"><ele>201.85714285714286</ele><time>2026-04-07T09:25:37.694Z</time></trkpt><trkpt lat="46.1386892" lon="9.4417726"><ele>201.71428571428572</ele><time>2026-04-07T09:25:38.695Z</time></trkpt><trkpt lat="46.1386914" lon="9.4416679"><ele>201.57142857142856</ele><time>2026-04-07T09:25:39.696Z</time></trkpt><trkpt lat="46.1386875" lon="9.4415712"><ele>201.42857142857144</ele><time>2026-04-07T09:25:40.695Z</time></trkpt><trkpt lat="46.1386853" lon="9.4414775"><ele>201.2857142857143</ele><time>2026-04-07T09:25:41.694Z</time></trkpt><trkpt lat="46.1386828" lon="9.4413795"><ele>201.14285714285714</ele><time>2026-04-07T09:25:42.696Z</time></trkpt><trkpt lat="46.1386769" lon="9.4412759"><ele>201.0</ele><time>2026-04-07T09:25:43.696Z</time></trkpt><trkpt lat="46.1386684" lon="9.4411054"><ele>201.33333333333334</ele><time>2026-04-07T09:25:45.696Z</time></trkpt><trkpt lat="46.1386672" lon="9.4410108"><ele>201.66666666666669</ele><time>2026-04-07T09:25:46.695Z</time></trkpt><trkpt lat="46.1386637" lon="9.4409176"><ele>202.0</ele><time>2026-04-07T09:25:47.695Z</time></trkpt><trkpt lat="46.1386653" lon="9.4408221"><ele>202.33333333333334</ele><time>2026-04-07T09:25:48.695Z</time></trkpt><trkpt lat="46.138674" lon="9.4406441"><ele>202.66666666666669</ele><time>2026-04-07T09:25:50.695Z</time></trkpt><trkpt lat="46.1386776" lon="9.440465"><ele>203.0</ele><time>2026-04-07T09:25:52.695Z</time></trkpt><trkpt lat="46.1386971" lon="9.440306"><ele>203.0</ele><time>2026-04-07T09:25:54.695Z</time></trkpt><trkpt lat="46.1387109" lon="9.4401456"><ele>203.0</ele><time>2026-04-07T09:25:56.695Z</time></trkpt><trkpt lat="46.1387233" lon="9.4399908"><ele>203.0</ele><time>2026-04-07T09:25:58.696Z</time></trkpt><trkpt lat="46.138737" lon="9.4398426"><ele>203.0</ele><time>2026-04-07T09:26:00.695Z</time></trkpt><trkpt lat="46.138766" lon="9.4396884"><ele>203.0</ele><time>2026-04-07T09:26:02.695Z</time></trkpt><trkpt lat="46.1387924" lon="9.4395215"><ele>202.75</ele><time>2026-04-07T09:26:04.697Z</time></trkpt><trkpt lat="46.1388257" lon="9.4393504"><ele>202.5</ele><time>2026-04-07T09:26:06.695Z</time></trkpt><trkpt lat="46.1388608" lon="9.4391808"><ele>202.25</ele><time>2026-04-07T09:26:08.695Z</time></trkpt><trkpt lat="46.13892" lon="9.4389317"><ele>202.0</ele><time>2026-04-07T09:26:11.696Z</time></trkpt><trkpt lat="46.1389487" lon="9.4388459"><ele>202.0</ele><time>2026-04-07T09:26:12.695Z</time></trkpt><trkpt lat="46.1389811" lon="9.4386775"><ele>202.0</ele><time>2026-04-07T09:26:14.694Z</time></trkpt><trkpt lat="46.1390255" lon="9.4385213"><ele>202.0</ele><time>2026-04-07T09:26:16.695Z</time></trkpt><trkpt lat="46.1390733" lon="9.4383585"><ele>202.0</ele><time>2026-04-07T09:26:18.697Z</time></trkpt><trkpt lat="46.1390963" lon="9.4382682"><ele>202.0</ele><time>2026-04-07T09:26:19.696Z</time></trkpt><trkpt lat="46.139125" lon="9.4381156"><ele>201.8</ele><time>2026-04-07T09:26:21.696Z</time></trkpt><trkpt lat="46.1391789" lon="9.4379749"><ele>201.6</ele><time>2026-04-07T09:26:23.696Z</time></trkpt><trkpt lat="46.1392216" lon="9.4378307"><ele>201.4</ele><time>2026-04-07T09:26:25.696Z</time></trkpt><trkpt lat="46.1392723" lon="9.4376909"><ele>201.20000000000002</ele><time>2026-04-07T09:26:27.697Z</time></trkpt><trkpt lat="46.1393075" lon="9.437611"><ele>201.0</ele><time>2026-04-07T09:26:28.694Z</time></trkpt><trkpt lat="46.139346" lon="9.4374606"><ele>200.8</ele><time>2026-04-07T09:26:30.695Z</time></trkpt><trkpt lat="46.139373" lon="9.4373758"><ele>200.60000000000002</ele><time>2026-04-07T09:26:31.695Z</time></trkpt><trkpt lat="46.1394155" lon="9.4372222"><ele>200.4</ele><time>2026-04-07T09:26:33.696Z</time></trkpt><trkpt lat="46.1394525" lon="9.4371013"><ele>200.2</ele><time>2026-04-07T09:26:35.698Z</time></trkpt><trkpt lat="46.1394955" lon="9.4369416"><ele>200.0</ele><time>2026-04-07T09:26:37.694Z</time></trkpt><trkpt lat="46.1395381" lon="9.4367747"><ele>199.83333333333334</ele><time>2026-04-07T09:26:39.697Z</time></trkpt><trkpt lat="46.1395818" lon="9.4366075"><ele>199.66666666666669</ele><time>2026-04-07T09:26:41.697Z</time></trkpt><trkpt lat="46.1396479" lon="9.4364556"><ele>199.5</ele><time>2026-04-07T09:26:43.696Z</time></trkpt><trkpt lat="46.1396694" lon="9.4363694"><ele>199.33333333333331</ele><time>2026-04-07T09:26:44.697Z</time></trkpt><trkpt lat="46.139691" lon="9.4362795"><ele>199.16666666666666</ele><time>2026-04-07T09:26:45.697Z</time></trkpt><trkpt lat="46.1397119" lon="9.436187"><ele>199.0</ele><time>2026-04-07T09:26:46.695Z</time></trkpt><trkpt lat="46.1397379" lon="9.4361004"><ele>199.39999999999998</ele><time>2026-04-07T09:26:47.696Z</time></trkpt><trkpt lat="46.1397639" lon="9.4360061"><ele>199.8</ele><time>2026-04-07T09:26:48.697Z</time></trkpt><trkpt lat="46.1398122" lon="9.4358413"><ele>200.2</ele><time>2026-04-07T09:26:50.697Z</time></trkpt><trkpt lat="46.1398661" lon="9.4356926"><ele>200.60000000000002</ele><time>2026-04-07T09:26:52.695Z</time></trkpt><trkpt lat="46.1399114" lon="9.4355433"><ele>201.0</ele><time>2026-04-07T09:26:54.697Z</time></trkpt><trkpt lat="46.1399553" lon="9.4353911"><ele>201.0</ele><time>2026-04-07T09:26:56.696Z</time></trkpt><trkpt lat="46.1400041" lon="9.4352436"><ele>201.0</ele><time>2026-04-07T09:26:58.695Z</time></trkpt><trkpt lat="46.1400556" lon="9.4350805"><ele>201.0</ele><time>2026-04-07T09:27:00.697Z</time></trkpt><trkpt lat="46.1400935" lon="9.4349247"><ele>201.0</ele><time>2026-04-07T09:27:02.697Z</time></trkpt><trkpt lat="46.140145" lon="9.4347678"><ele>201.0</ele><time>2026-04-07T09:27:04.696Z</time></trkpt><trkpt lat="46.1401768" lon="9.4346804"><ele>201.0</ele><time>2026-04-07T09:27:05.696Z</time></trkpt><trkpt lat="46.1402247" lon="9.4345344"><ele>201.0</ele><time>2026-04-07T09:27:07.696Z</time></trkpt><trkpt lat="46.1402728" lon="9.4343958"><ele>201.0</ele><time>2026-04-07T09:27:09.7Z</time></trkpt><trkpt lat="46.1403233" lon="9.4342684"><ele>201.0</ele><time>2026-04-07T09:27:11.697Z</time></trkpt><trkpt lat="46.1403895" lon="9.4341588"><ele>201.0</ele><time>2026-04-07T09:27:13.696Z</time></trkpt><trkpt lat="46.1404866" lon="9.4340947"><ele>201.0</ele><time>2026-04-07T09:27:15.696Z</time></trkpt><trkpt lat="46.1405973" lon="9.4341084"><ele>201.0</ele><time>2026-04-07T09:27:17.699Z</time></trkpt><trkpt lat="46.140708" lon="9.434132"><ele>201.0</ele><time>2026-04-07T09:27:19.697Z</time></trkpt><trkpt lat="46.1408216" lon="9.4341554"><ele>201.0</ele><time>2026-04-07T09:27:21.696Z</time></trkpt><trkpt lat="46.1409324" lon="9.4341826"><ele>201.0</ele><time>2026-04-07T09:27:23.697Z</time></trkpt><trkpt lat="46.1410475" lon="9.4341908"><ele>201.0</ele><time>2026-04-07T09:27:25.699Z</time></trkpt><trkpt lat="46.1411637" lon="9.4341851"><ele>201.0</ele><time>2026-04-07T09:27:27.697Z</time></trkpt><trkpt lat="46.1412785" lon="9.4341871"><ele>201.0</ele><time>2026-04-07T09:27:29.695Z</time></trkpt><trkpt lat="46.1413994" lon="9.4341891"><ele>201.0</ele><time>2026-04-07T09:27:31.696Z</time></trkpt><trkpt lat="46.1415029" lon="9.4342028"><ele>201.0</ele><time>2026-04-07T09:27:33.698Z</time></trkpt><trkpt lat="46.1416193" lon="9.4341958"><ele>201.0</ele><time>2026-04-07T09:27:35.696Z</time></trkpt><trkpt lat="46.1417409" lon="9.4341897"><ele>201.0</ele><time>2026-04-07T09:27:37.697Z</time></trkpt><trkpt lat="46.1418058" lon="9.434183"><ele>201.0</ele><time>2026-04-07T09:27:38.697Z</time></trkpt><trkpt lat="46.1419188" lon="9.4341675"><ele>201.0</ele><time>2026-04-07T09:27:40.695Z</time></trkpt><trkpt lat="46.1420196" lon="9.4341842"><ele>201.0</ele><time>2026-04-07T09:27:42.698Z</time></trkpt><trkpt lat="46.1421317" lon="9.4341974"><ele>201.0</ele><time>2026-04-07T09:27:44.699Z</time></trkpt><trkpt lat="46.1422395" lon="9.4342074"><ele>201.0</ele><time>2026-04-07T09:27:46.699Z</time></trkpt><trkpt lat="46.1423433" lon="9.4342058"><ele>201.0</ele><time>2026-04-07T09:27:48.696Z</time></trkpt><trkpt lat="46.1424611" lon="9.4342051"><ele>201.0</ele><time>2026-04-07T09:27:50.696Z</time></trkpt><trkpt lat="46.1425571" lon="9.4341688"><ele>201.0</ele><time>2026-04-07T09:27:52.699Z</time></trkpt><trkpt lat="46.1426185" lon="9.4340172"><ele>201.0</ele><time>2026-04-07T09:27:54.696Z</time></trkpt><trkpt lat="46.142674" lon="9.4338786"><ele>201.0</ele><time>2026-04-07T09:27:56.696Z</time></trkpt><trkpt lat="46.1427207" lon="9.4337279"><ele>201.0</ele><time>2026-04-07T09:27:58.696Z</time></trkpt><trkpt lat="46.142754" lon="9.4335702"><ele>201.20000000000002</ele><time>2026-04-07T09:28:00.698Z</time></trkpt><trkpt lat="46.1427916" lon="9.4334309"><ele>201.4</ele><time>2026-04-07T09:28:02.698Z</time></trkpt><trkpt lat="46.1428395" lon="9.4332764"><ele>201.6</ele><time>2026-04-07T09:28:04.696Z</time></trkpt><trkpt lat="46.1428823" lon="9.4331291"><ele>201.8</ele><time>2026-04-07T09:28:06.698Z</time></trkpt><trkpt lat="46.1429237" lon="9.4329825"><ele>202.0</ele><time>2026-04-07T09:28:08.7Z</time></trkpt><trkpt lat="46.1429687" lon="9.4328251"><ele>201.5</ele><time>2026-04-07T09:28:10.699Z</time></trkpt><trkpt lat="46.1430013" lon="9.4326727"><ele>201.0</ele><time>2026-04-07T09:28:12.696Z</time></trkpt><trkpt lat="46.1430501" lon="9.4325146"><ele>200.5</ele><time>2026-04-07T09:28:14.698Z</time></trkpt><trkpt lat="46.1430898" lon="9.4323683"><ele>200.0</ele><time>2026-04-07T09:28:16.699Z</time></trkpt><trkpt lat="46.1431372" lon="9.4322111"><ele>200.0</ele><time>2026-04-07T09:28:18.7Z</time></trkpt><trkpt lat="46.1431867" lon="9.4320586"><ele>200.0</ele><time>2026-04-07T09:28:20.696Z</time></trkpt><trkpt lat="46.1432324" lon="9.431907"><ele>200.0</ele><time>2026-04-07T09:28:22.695Z</time></trkpt><trkpt lat="46.1432849" lon="9.4317616"><ele>200.0</ele><time>2026-04-07T09:28:24.7Z</time></trkpt><trkpt lat="46.1433509" lon="9.4316255"><ele>200.0</ele><time>2026-04-07T09:28:26.699Z</time></trkpt><trkpt lat="46.1434091" lon="9.4314754"><ele>200.0</ele><time>2026-04-07T09:28:28.697Z</time></trkpt><trkpt lat="46.1434676" lon="9.431336"><ele>200.0</ele><time>2026-04-07T09:28:30.698Z</time></trkpt><trkpt lat="46.1435256" lon="9.4311886"><ele>200.0</ele><time>2026-04-07T09:28:32.695Z</time></trkpt><trkpt lat="46.1435741" lon="9.4310401"><ele>200.25</ele><time>2026-04-07T09:28:34.699Z</time></trkpt><trkpt lat="46.1436237" lon="9.4308926"><ele>200.5</ele><time>2026-04-07T09:28:36.696Z</time></trkpt><trkpt lat="46.1436785" lon="9.4307429"><ele>200.75</ele><time>2026-04-07T09:28:38.7Z</time></trkpt><trkpt lat="46.1437363" lon="9.430604"><ele>201.0</ele><time>2026-04-07T09:28:40.7Z</time></trkpt><trkpt lat="46.1437978" lon="9.4304456"><ele>201.0</ele><time>2026-04-07T09:28:42.703Z</time></trkpt><trkpt lat="46.1438556" lon="9.4302882"><ele>201.0</ele><time>2026-04-07T09:28:44.696Z</time></trkpt><trkpt lat="46.1439129" lon="9.430147"><ele>201.0</ele><time>2026-04-07T09:28:46.695Z</time></trkpt><trkpt lat="46.1439464" lon="9.4300668"><ele>201.0</ele><time>2026-04-07T09:28:47.697Z</time></trkpt><trkpt lat="46.1439991" lon="9.4299192"><ele>201.0</ele><time>2026-04-07T09:28:49.701Z</time></trkpt><trkpt lat="46.1440555" lon="9.4297891"><ele>201.0</ele><time>2026-04-07T09:28:51.694Z</time></trkpt><trkpt lat="46.1440962" lon="9.429651"><ele>201.0</ele><time>2026-04-07T09:28:53.703Z</time></trkpt><trkpt lat="46.1441414" lon="9.4295239"><ele>201.0</ele><time>2026-04-07T09:28:55.701Z</time></trkpt><trkpt lat="46.1441976" lon="9.4293843"><ele>201.0</ele><time>2026-04-07T09:28:57.7Z</time></trkpt><trkpt lat="46.1442564" lon="9.4292454"><ele>201.0</ele><time>2026-04-07T09:28:59.697Z</time></trkpt><trkpt lat="46.1443075" lon="9.4291191"><ele>200.8</ele><time>2026-04-07T09:29:01.7Z</time></trkpt><trkpt lat="46.1443627" lon="9.4289944"><ele>200.60000000000002</ele><time>2026-04-07T09:29:03.697Z</time></trkpt><trkpt lat="46.144416" lon="9.4288658"><ele>200.4</ele><time>2026-04-07T09:29:05.701Z</time></trkpt><trkpt lat="46.1444602" lon="9.4287473"><ele>200.2</ele><time>2026-04-07T09:29:07.695Z</time></trkpt><trkpt lat="46.1445141" lon="9.4286233"><ele>200.0</ele><time>2026-04-07T09:29:09.696Z</time></trkpt><trkpt lat="46.1445724" lon="9.428491"><ele>200.25</ele><time>2026-04-07T09:29:11.7Z</time></trkpt><trkpt lat="46.14463" lon="9.4283422"><ele>200.5</ele><time>2026-04-07T09:29:13.702Z</time></trkpt><trkpt lat="46.1446881" lon="9.4282097"><ele>200.75</ele><time>2026-04-07T09:29:15.702Z</time></trkpt><trkpt lat="46.1447383" lon="9.4280621"><ele>201.0</ele><time>2026-04-07T09:29:17.703Z</time></trkpt><trkpt lat="46.1447912" lon="9.4279177"><ele>201.0</ele><time>2026-04-07T09:29:19.703Z</time></trkpt><trkpt lat="46.144861" lon="9.427782"><ele>201.0</ele><time>2026-04-07T09:29:21.701Z</time></trkpt><trkpt lat="46.1449015" lon="9.4276355"><ele>201.0</ele><time>2026-04-07T09:29:23.695Z</time></trkpt><trkpt lat="46.1449313" lon="9.4274946"><ele>201.0</ele><time>2026-04-07T09:29:25.704Z</time></trkpt><trkpt lat="46.1449492" lon="9.4273311"><ele>201.0</ele><time>2026-04-07T09:29:27.697Z</time></trkpt><trkpt lat="46.1449305" lon="9.4271808"><ele>201.4</ele><time>2026-04-07T09:29:29.7Z</time></trkpt><trkpt lat="46.1448626" lon="9.427092"><ele>201.8</ele><time>2026-04-07T09:29:31.697Z</time></trkpt><trkpt lat="46.144768" lon="9.4270064"><ele>202.20000000000002</ele><time>2026-04-07T09:29:33.702Z</time></trkpt><trkpt lat="46.1447211" lon="9.4268812"><ele>202.60000000000002</ele><time>2026-04-07T09:29:35.702Z</time></trkpt><trkpt lat="46.1447151" lon="9.4267345"><ele>203.0</ele><time>2026-04-07T09:29:37.694Z</time></trkpt><trkpt lat="46.144715" lon="9.4265741"><ele>203.0</ele><time>2026-04-07T09:29:39.703Z</time></trkpt><trkpt lat="46.1446816" lon="9.4264088"><ele>203.0</ele><time>2026-04-07T09:29:41.702Z</time></trkpt><trkpt lat="46.1446106" lon="9.4262903"><ele>203.0</ele><time>2026-04-07T09:29:43.697Z</time></trkpt><trkpt lat="46.1445062" lon="9.4262585"><ele>203.0</ele><time>2026-04-07T09:29:45.695Z</time></trkpt><trkpt lat="46.1444421" lon="9.4262523"><ele>203.0</ele><time>2026-04-07T09:29:46.697Z</time></trkpt><trkpt lat="46.1443201" lon="9.4262556"><ele>203.0</ele><time>2026-04-07T09:29:48.699Z</time></trkpt><trkpt lat="46.1441947" lon="9.4262711"><ele>203.0</ele><time>2026-04-07T09:29:50.697Z</time></trkpt><trkpt lat="46.1440759" lon="9.4262927"><ele>203.0</ele><time>2026-04-07T09:29:52.695Z</time></trkpt><trkpt lat="46.1440099" lon="9.4263078"><ele>203.0</ele><time>2026-04-07T09:29:53.696Z</time></trkpt><trkpt lat="46.1438909" lon="9.4263294"><ele>203.0</ele><time>2026-04-07T09:29:55.697Z</time></trkpt><trkpt lat="46.1438255" lon="9.426351"><ele>203.00000000000003</ele><time>2026-04-07T09:29:56.699Z</time></trkpt><trkpt lat="46.1437625" lon="9.4263502"><ele>203.0</ele><time>2026-04-07T09:29:57.703Z</time></trkpt><trkpt lat="46.1436378" lon="9.4263695"><ele>203.0</ele><time>2026-04-07T09:29:59.696Z</time></trkpt><trkpt lat="46.143572" lon="9.4263829"><ele>203.0</ele><time>2026-04-07T09:30:00.695Z</time></trkpt><trkpt lat="46.1435046" lon="9.4263973"><ele>203.00000000000003</ele><time>2026-04-07T09:30:01.696Z</time></trkpt><trkpt lat="46.143439" lon="9.4264005"><ele>203.0</ele><time>2026-04-07T09:30:02.699Z</time></trkpt><trkpt lat="46.143377" lon="9.4264174"><ele>203.00000000000003</ele><time>2026-04-07T09:30:03.696Z</time></trkpt><trkpt lat="46.1432504" lon="9.4264437"><ele>203.0</ele><time>2026-04-07T09:30:05.696Z</time></trkpt><trkpt lat="46.1431819" lon="9.4264488"><ele>203.0</ele><time>2026-04-07T09:30:06.698Z</time></trkpt><trkpt lat="46.1431132" lon="9.4264551"><ele>203.0</ele><time>2026-04-07T09:30:07.702Z</time></trkpt><trkpt lat="46.1430471" lon="9.4264532"><ele>203.00000000000003</ele><time>2026-04-07T09:30:08.697Z</time></trkpt><trkpt lat="46.1429804" lon="9.4264448"><ele>203.0</ele><time>2026-04-07T09:30:09.7Z</time></trkpt><trkpt lat="46.1428606" lon="9.4264147"><ele>203.00000000000003</ele><time>2026-04-07T09:30:11.696Z</time></trkpt><trkpt lat="46.1427945" lon="9.4264079"><ele>203.0</ele><time>2026-04-07T09:30:12.698Z</time></trkpt><trkpt lat="46.1426834" lon="9.4263769"><ele>203.0</ele><time>2026-04-07T09:30:14.696Z</time></trkpt><trkpt lat="46.1426206" lon="9.4263696"><ele>203.0</ele><time>2026-04-07T09:30:15.696Z</time></trkpt><trkpt lat="46.1425188" lon="9.4263605"><ele>203.00000000000003</ele><time>2026-04-07T09:30:17.697Z</time></trkpt><trkpt lat="46.142474" lon="9.4262775"><ele>203.0</ele><time>2026-04-07T09:30:19.696Z</time></trkpt><trkpt lat="46.1424804" lon="9.4261725"><ele>202.66666666666669</ele><time>2026-04-07T09:30:21.702Z</time></trkpt><trkpt lat="46.1425175" lon="9.4260665"><ele>202.33333333333334</ele><time>2026-04-07T09:30:23.7Z</time></trkpt><trkpt lat="46.1425333" lon="9.425947"><ele>202.0</ele><time>2026-04-07T09:30:25.699Z</time></trkpt><trkpt lat="46.1425659" lon="9.4258328"><ele>201.66666666666669</ele><time>2026-04-07T09:30:27.7Z</time></trkpt><trkpt lat="46.1426028" lon="9.4257172"><ele>201.33333333333334</ele><time>2026-04-07T09:30:29.703Z</time></trkpt><trkpt lat="46.1426356" lon="9.4256061"><ele>201.0</ele><time>2026-04-07T09:30:31.7Z</time></trkpt><trkpt lat="46.1426702" lon="9.4255161"><ele>200.83333333333334</ele><time>2026-04-07T09:30:33.697Z</time></trkpt><trkpt lat="46.1426951" lon="9.4254233"><ele>200.66666666666669</ele><time>2026-04-07T09:30:35.697Z</time></trkpt><trkpt lat="46.1427288" lon="9.425322"><ele>200.5</ele><time>2026-04-07T09:30:37.699Z</time></trkpt><trkpt lat="46.1427628" lon="9.4252126"><ele>200.33333333333334</ele><time>2026-04-07T09:30:39.7Z</time></trkpt><trkpt lat="46.1428005" lon="9.4251009"><ele>200.16666666666669</ele><time>2026-04-07T09:30:41.702Z</time></trkpt><trkpt lat="46.1428338" lon="9.4249838"><ele>200.0</ele><time>2026-04-07T09:30:43.702Z</time></trkpt><trkpt lat="46.1428691" lon="9.4248479"><ele>200.0</ele><time>2026-04-07T09:30:45.701Z</time></trkpt><trkpt lat="46.1429054" lon="9.4247211"><ele>200.0</ele><time>2026-04-07T09:30:47.695Z</time></trkpt><trkpt lat="46.142938" lon="9.4246042"><ele>200.0</ele><time>2026-04-07T09:30:49.7Z</time></trkpt><trkpt lat="46.1429815" lon="9.4244727"><ele>200.0</ele><time>2026-04-07T09:30:51.696Z</time></trkpt><trkpt lat="46.1430213" lon="9.4243448"><ele>200.0</ele><time>2026-04-07T09:30:53.7Z</time></trkpt><trkpt lat="46.1430511" lon="9.4242093"><ele>200.0</ele><time>2026-04-07T09:30:55.695Z</time></trkpt><trkpt lat="46.1430813" lon="9.4240768"><ele>200.0</ele><time>2026-04-07T09:30:57.697Z</time></trkpt><trkpt lat="46.143118" lon="9.4239555"><ele>200.0</ele><time>2026-04-07T09:30:59.699Z</time></trkpt><trkpt lat="46.1431577" lon="9.4238304"><ele>200.0</ele><time>2026-04-07T09:31:01.7Z</time></trkpt><trkpt lat="46.1431945" lon="9.4237063"><ele>200.0</ele><time>2026-04-07T09:31:03.695Z</time></trkpt><trkpt lat="46.1432296" lon="9.4235831"><ele>200.2</ele><time>2026-04-07T09:31:05.696Z</time></trkpt><trkpt lat="46.1432744" lon="9.4234542"><ele>200.4</ele><time>2026-04-07T09:31:07.696Z</time></trkpt><trkpt lat="46.1433167" lon="9.4233299"><ele>200.60000000000002</ele><time>2026-04-07T09:31:09.695Z</time></trkpt><trkpt lat="46.1433608" lon="9.423206"><ele>200.8</ele><time>2026-04-07T09:31:11.695Z</time></trkpt><trkpt lat="46.143396" lon="9.42308"><ele>201.0</ele><time>2026-04-07T09:31:13.696Z</time></trkpt><trkpt lat="46.1434304" lon="9.4229601"><ele>201.20000000000002</ele><time>2026-04-07T09:31:15.695Z</time></trkpt><trkpt lat="46.1434594" lon="9.4228319"><ele>201.4</ele><time>2026-04-07T09:31:17.696Z</time></trkpt><trkpt lat="46.1434965" lon="9.4226946"><ele>201.6</ele><time>2026-04-07T09:31:19.696Z</time></trkpt><trkpt lat="46.1435245" lon="9.4225625"><ele>201.8</ele><time>2026-04-07T09:31:21.696Z</time></trkpt><trkpt lat="46.1435611" lon="9.4224322"><ele>202.0</ele><time>2026-04-07T09:31:23.697Z</time></trkpt><trkpt lat="46.1435993" lon="9.4222891"><ele>201.99999999999997</ele><time>2026-04-07T09:31:25.695Z</time></trkpt><trkpt lat="46.1436195" lon="9.4221585"><ele>202.0</ele><time>2026-04-07T09:31:27.696Z</time></trkpt><trkpt lat="46.1436427" lon="9.4220343"><ele>202.0</ele><time>2026-04-07T09:31:29.695Z</time></trkpt><trkpt lat="46.143672" lon="9.4219404"><ele>202.0</ele><time>2026-04-07T09:31:31.696Z</time></trkpt><trkpt lat="46.1437118" lon="9.4218287"><ele>201.99999999999997</ele><time>2026-04-07T09:31:34.695Z</time></trkpt><trkpt lat="46.143738" lon="9.4217257"><ele>202.0</ele><time>2026-04-07T09:31:36.697Z</time></trkpt><trkpt lat="46.1437619" lon="9.4216181"><ele>201.99999999999997</ele><time>2026-04-07T09:31:38.695Z</time></trkpt><trkpt lat="46.1437897" lon="9.4215099"><ele>202.0</ele><time>2026-04-07T09:31:40.696Z</time></trkpt><trkpt lat="46.1438221" lon="9.421398"><ele>202.0</ele><time>2026-04-07T09:31:42.696Z</time></trkpt><trkpt lat="46.1438641" lon="9.4212783"><ele>202.0</ele><time>2026-04-07T09:31:44.696Z</time></trkpt><trkpt lat="46.1438996" lon="9.4211738"><ele>201.99999999999997</ele><time>2026-04-07T09:31:46.696Z</time></trkpt><trkpt lat="46.1439342" lon="9.4210515"><ele>202.0</ele><time>2026-04-07T09:31:48.695Z</time></trkpt><trkpt lat="46.1439691" lon="9.4209295"><ele>202.0</ele><time>2026-04-07T09:31:50.696Z</time></trkpt><trkpt lat="46.1440103" lon="9.4208076"><ele>202.0</ele><time>2026-04-07T09:31:52.696Z</time></trkpt><trkpt lat="46.1440425" lon="9.420687"><ele>202.0</ele><time>2026-04-07T09:31:54.696Z</time></trkpt><trkpt lat="46.1440764" lon="9.4205641"><ele>202.0</ele><time>2026-04-07T09:31:56.695Z</time></trkpt><trkpt lat="46.1441034" lon="9.4204311"><ele>202.0</ele><time>2026-04-07T09:31:58.696Z</time></trkpt><trkpt lat="46.1441171" lon="9.4202904"><ele>201.8</ele><time>2026-04-07T09:32:00.697Z</time></trkpt><trkpt lat="46.1441218" lon="9.4201484"><ele>201.6</ele><time>2026-04-07T09:32:02.695Z</time></trkpt><trkpt lat="46.1441276" lon="9.4199928"><ele>201.4</ele><time>2026-04-07T09:32:04.696Z</time></trkpt><trkpt lat="46.1441205" lon="9.4198355"><ele>201.20000000000002</ele><time>2026-04-07T09:32:06.697Z</time></trkpt><trkpt lat="46.1441207" lon="9.4196848"><ele>201.0</ele><time>2026-04-07T09:32:08.695Z</time></trkpt><trkpt lat="46.1441096" lon="9.4195364"><ele>201.0</ele><time>2026-04-07T09:32:10.696Z</time></trkpt><trkpt lat="46.1440938" lon="9.4193822"><ele>201.0</ele><time>2026-04-07T09:32:12.696Z</time></trkpt><trkpt lat="46.1440781" lon="9.4192236"><ele>201.0</ele><time>2026-04-07T09:32:14.695Z</time></trkpt><trkpt lat="46.1440565" lon="9.4190669"><ele>201.0</ele><time>2026-04-07T09:32:16.696Z</time></trkpt><trkpt lat="46.1440339" lon="9.418914"><ele>201.0</ele><time>2026-04-07T09:32:18.696Z</time></trkpt><trkpt lat="46.1440028" lon="9.4187478"><ele>200.60000000000002</ele><time>2026-04-07T09:32:20.696Z</time></trkpt><trkpt lat="46.1439538" lon="9.4186191"><ele>200.2</ele><time>2026-04-07T09:32:22.697Z</time></trkpt><trkpt lat="46.1438839" lon="9.4185091"><ele>199.8</ele><time>2026-04-07T09:32:24.696Z</time></trkpt><trkpt lat="46.143791" lon="9.4184359"><ele>199.39999999999998</ele><time>2026-04-07T09:32:26.696Z</time></trkpt><trkpt lat="46.1437069" lon="9.4183653"><ele>199.0</ele><time>2026-04-07T09:32:28.696Z</time></trkpt><trkpt lat="46.143626" lon="9.4182734"><ele>199.0</ele><time>2026-04-07T09:32:30.697Z</time></trkpt><trkpt lat="46.143584" lon="9.4181309"><ele>199.0</ele><time>2026-04-07T09:32:32.697Z</time></trkpt><trkpt lat="46.1435842" lon="9.4179677"><ele>199.0</ele><time>2026-04-07T09:32:34.695Z</time></trkpt><trkpt lat="46.1435729" lon="9.4178052"><ele>199.0</ele><time>2026-04-07T09:32:36.696Z</time></trkpt><trkpt lat="46.1435668" lon="9.4176361"><ele>199.0</ele><time>2026-04-07T09:32:38.696Z</time></trkpt><trkpt lat="46.1435559" lon="9.4174738"><ele>199.0</ele><time>2026-04-07T09:32:40.696Z</time></trkpt><trkpt lat="46.1435364" lon="9.4173161"><ele>199.0</ele><time>2026-04-07T09:32:42.696Z</time></trkpt><trkpt lat="46.1435181" lon="9.4171672"><ele>199.0</ele><time>2026-04-07T09:32:44.696Z</time></trkpt><trkpt lat="46.1434884" lon="9.4170847"><ele>199.0</ele><time>2026-04-07T09:32:45.697Z</time></trkpt><trkpt lat="46.1434165" lon="9.4169648"><ele>199.0</ele><time>2026-04-07T09:32:47.695Z</time></trkpt><trkpt lat="46.1433302" lon="9.4168925"><ele>199.0</ele><time>2026-04-07T09:32:49.695Z</time></trkpt><trkpt lat="46.1432514" lon="9.4168025"><ele>199.0</ele><time>2026-04-07T09:32:51.696Z</time></trkpt><trkpt lat="46.1431831" lon="9.4167041"><ele>199.0</ele><time>2026-04-07T09:32:53.698Z</time></trkpt><trkpt lat="46.1431476" lon="9.4165825"><ele>199.0</ele><time>2026-04-07T09:32:55.695Z</time></trkpt><trkpt lat="46.1431454" lon="9.4164688"><ele>199.33333333333331</ele><time>2026-04-07T09:32:57.696Z</time></trkpt><trkpt lat="46.1431767" lon="9.4163738"><ele>199.66666666666666</ele><time>2026-04-07T09:32:59.695Z</time></trkpt><trkpt lat="46.1432046" lon="9.4162629"><ele>200.0</ele><time>2026-04-07T09:33:02.696Z</time></trkpt><trkpt lat="46.1431817" lon="9.4161713"><ele>200.33333333333331</ele><time>2026-04-07T09:33:42.697Z</time></trkpt><trkpt lat="46.1431522" lon="9.4160696"><ele>200.66666666666666</ele><time>2026-04-07T09:33:45.695Z</time></trkpt><trkpt lat="46.1431063" lon="9.4159675"><ele>201.0</ele><time>2026-04-07T09:33:48.696Z</time></trkpt><trkpt lat="46.1430727" lon="9.4158292"><ele>201.0</ele><time>2026-04-07T09:33:51.696Z</time></trkpt><trkpt lat="46.1430707" lon="9.4156785"><ele>201.0</ele><time>2026-04-07T09:33:53.697Z</time></trkpt><trkpt lat="46.1430427" lon="9.4155355"><ele>201.0</ele><time>2026-04-07T09:33:55.697Z</time></trkpt><trkpt lat="46.142986" lon="9.4154109"><ele>201.0</ele><time>2026-04-07T09:33:57.696Z</time></trkpt><trkpt lat="46.1428922" lon="9.4153298"><ele>201.0</ele><time>2026-04-07T09:33:59.696Z</time></trkpt><trkpt lat="46.1427946" lon="9.4152722"><ele>201.0</ele><time>2026-04-07T09:34:01.696Z</time></trkpt><trkpt lat="46.1426868" lon="9.4153003"><ele>201.0</ele><time>2026-04-07T09:34:03.696Z</time></trkpt><trkpt lat="46.142552" lon="9.4154644"><ele>201.0</ele><time>2026-04-07T09:34:06.695Z</time></trkpt><trkpt lat="46.1425007" lon="9.4156275"><ele>201.0</ele><time>2026-04-07T09:34:08.696Z</time></trkpt><trkpt lat="46.1424876" lon="9.4157828"><ele>201.0</ele><time>2026-04-07T09:34:10.695Z</time></trkpt><trkpt lat="46.1424357" lon="9.4159349"><ele>201.0</ele><time>2026-04-07T09:34:12.695Z</time></trkpt><trkpt lat="46.1423397" lon="9.416034"><ele>201.0</ele><time>2026-04-07T09:34:14.696Z</time></trkpt><trkpt lat="46.1422344" lon="9.4161305"><ele>201.0</ele><time>2026-04-07T09:34:16.697Z</time></trkpt><trkpt lat="46.1421297" lon="9.4162017"><ele>201.0</ele><time>2026-04-07T09:34:18.696Z</time></trkpt><trkpt lat="46.1420168" lon="9.4162235"><ele>201.0</ele><time>2026-04-07T09:34:20.697Z</time></trkpt><trkpt lat="46.1419146" lon="9.4162256"><ele>201.0</ele><time>2026-04-07T09:34:22.696Z</time></trkpt><trkpt lat="46.1417917" lon="9.4162626"><ele>201.0</ele><time>2026-04-07T09:34:24.696Z</time></trkpt><trkpt lat="46.1417259" lon="9.4163807"><ele>201.0</ele><time>2026-04-07T09:34:26.697Z</time></trkpt><trkpt lat="46.1417081" lon="9.4165421"><ele>201.16666666666666</ele><time>2026-04-07T09:34:28.696Z</time></trkpt><trkpt lat="46.1417459" lon="9.4167108"><ele>201.33333333333331</ele><time>2026-04-07T09:34:30.697Z</time></trkpt><trkpt lat="46.1417978" lon="9.4168763"><ele>201.5</ele><time>2026-04-07T09:34:32.695Z</time></trkpt><trkpt lat="46.1418047" lon="9.4169791"><ele>201.66666666666666</ele><time>2026-04-07T09:34:33.696Z</time></trkpt><trkpt lat="46.1418073" lon="9.4170742"><ele>201.83333333333331</ele><time>2026-04-07T09:34:34.696Z</time></trkpt><trkpt lat="46.1417978" lon="9.4171644"><ele>202.0</ele><time>2026-04-07T09:34:35.696Z</time></trkpt><trkpt lat="46.1417981" lon="9.4172594"><ele>202.2</ele><time>2026-04-07T09:34:36.695Z</time></trkpt><trkpt lat="46.1417846" lon="9.417439"><ele>202.39999999999998</ele><time>2026-04-07T09:34:38.696Z</time></trkpt><trkpt lat="46.1417634" lon="9.4176003"><ele>202.60000000000002</ele><time>2026-04-07T09:34:40.698Z</time></trkpt><trkpt lat="46.1417045" lon="9.4177652"><ele>202.8</ele><time>2026-04-07T09:34:42.697Z</time></trkpt><trkpt lat="46.1416573" lon="9.4178289"><ele>203.0</ele><time>2026-04-07T09:34:43.697Z</time></trkpt><trkpt lat="46.1415561" lon="9.4179197"><ele>203.33333333333334</ele><time>2026-04-07T09:34:45.696Z</time></trkpt><trkpt lat="46.1414398" lon="9.4179534"><ele>203.66666666666669</ele><time>2026-04-07T09:34:47.697Z</time></trkpt><trkpt lat="46.1413771" lon="9.4179727"><ele>204.0</ele><time>2026-04-07T09:34:48.696Z</time></trkpt><trkpt lat="46.141313" lon="9.4179816"><ele>204.33333333333331</ele><time>2026-04-07T09:34:49.696Z</time></trkpt><trkpt lat="46.1412482" lon="9.4179827"><ele>204.66666666666666</ele><time>2026-04-07T09:34:50.697Z</time></trkpt><trkpt lat="46.1411254" lon="9.4179798"><ele>205.0</ele><time>2026-04-07T09:34:52.696Z</time></trkpt><trkpt lat="46.140991" lon="9.417989"><ele>205.0</ele><time>2026-04-07T09:34:54.698Z</time></trkpt><trkpt lat="46.140928" lon="9.4179941"><ele>205.0</ele><time>2026-04-07T09:34:55.697Z</time></trkpt><trkpt lat="46.1408145" lon="9.4179845"><ele>205.0</ele><time>2026-04-07T09:34:57.696Z</time></trkpt><trkpt lat="46.1407078" lon="9.4179873"><ele>205.0</ele><time>2026-04-07T09:34:59.696Z</time></trkpt><trkpt lat="46.140587" lon="9.4180011"><ele>205.0</ele><time>2026-04-07T09:35:01.695Z</time></trkpt><trkpt lat="46.1404704" lon="9.4180238"><ele>204.83333333333331</ele><time>2026-04-07T09:35:03.697Z</time></trkpt><trkpt lat="46.1404072" lon="9.4180194"><ele>204.66666666666666</ele><time>2026-04-07T09:35:04.697Z</time></trkpt><trkpt lat="46.140296" lon="9.4180446"><ele>204.5</ele><time>2026-04-07T09:35:06.697Z</time></trkpt><trkpt lat="46.1402312" lon="9.4180505"><ele>204.33333333333331</ele><time>2026-04-07T09:35:07.696Z</time></trkpt><trkpt lat="46.1401625" lon="9.4180608"><ele>204.16666666666666</ele><time>2026-04-07T09:35:08.697Z</time></trkpt><trkpt lat="46.1400401" lon="9.4180444"><ele>204.0</ele><time>2026-04-07T09:35:10.697Z</time></trkpt><trkpt lat="46.1399208" lon="9.4179776"><ele>204.0</ele><time>2026-04-07T09:35:12.697Z</time></trkpt><trkpt lat="46.1398639" lon="9.4179372"><ele>204.0</ele><time>2026-04-07T09:35:13.696Z</time></trkpt><trkpt lat="46.1398035" lon="9.4179014"><ele>204.0</ele><time>2026-04-07T09:35:14.697Z</time></trkpt><trkpt lat="46.1397398" lon="9.4178676"><ele>204.0</ele><time>2026-04-07T09:35:15.695Z</time></trkpt><trkpt lat="46.1396139" lon="9.4178286"><ele>204.0</ele><time>2026-04-07T09:35:17.697Z</time></trkpt><trkpt lat="46.1395505" lon="9.4178319"><ele>204.0</ele><time>2026-04-07T09:35:18.696Z</time></trkpt><trkpt lat="46.139426" lon="9.4178376"><ele>204.0</ele><time>2026-04-07T09:35:20.696Z</time></trkpt><trkpt lat="46.1393087" lon="9.4178487"><ele>204.0</ele><time>2026-04-07T09:35:22.697Z</time></trkpt><trkpt lat="46.1392451" lon="9.4178548"><ele>204.0</ele><time>2026-04-07T09:35:23.698Z</time></trkpt><trkpt lat="46.1391228" lon="9.4178651"><ele>204.0</ele><time>2026-04-07T09:35:25.697Z</time></trkpt><trkpt lat="46.1389953" lon="9.4178828"><ele>204.0</ele><time>2026-04-07T09:35:27.696Z</time></trkpt><trkpt lat="46.1389322" lon="9.4178918"><ele>206.2</ele><time>2026-04-07T09:35:28.696Z</time></trkpt><trkpt lat="46.1388049" lon="9.417904"><ele>208.39999999999998</ele><time>2026-04-07T09:35:30.696Z</time></trkpt><trkpt lat="46.1386828" lon="9.4179199"><ele>210.6</ele><time>2026-04-07T09:35:32.697Z</time></trkpt><trkpt lat="46.1385864" lon="9.4179304"><ele>212.8</ele><time>2026-04-07T09:35:34.695Z</time></trkpt><trkpt lat="46.1385211" lon="9.4178966"><ele>215.0</ele><time>2026-04-07T09:35:36.696Z</time></trkpt><trkpt lat="46.1384948" lon="9.417806"><ele>215.0</ele><time>2026-04-07T09:35:38.697Z</time></trkpt><trkpt lat="46.138476" lon="9.4176824"><ele>215.0</ele><time>2026-04-07T09:35:40.695Z</time></trkpt><trkpt lat="46.1384464" lon="9.4175536"><ele>215.0</ele><time>2026-04-07T09:35:42.698Z</time></trkpt><trkpt lat="46.1384101" lon="9.4174208"><ele>215.0</ele><time>2026-04-07T09:35:44.697Z</time></trkpt><trkpt lat="46.1383573" lon="9.4172874"><ele>215.0</ele><time>2026-04-07T09:35:46.695Z</time></trkpt><trkpt lat="46.1383048" lon="9.4171622"><ele>212.8</ele><time>2026-04-07T09:35:48.697Z</time></trkpt><trkpt lat="46.1382456" lon="9.4170546"><ele>210.6</ele><time>2026-04-07T09:35:50.697Z</time></trkpt><trkpt lat="46.1381995" lon="9.4169224"><ele>208.39999999999998</ele><time>2026-04-07T09:35:52.696Z</time></trkpt><trkpt lat="46.1381585" lon="9.4167924"><ele>206.2</ele><time>2026-04-07T09:35:54.696Z</time></trkpt><trkpt lat="46.1381097" lon="9.4166526"><ele>204.0</ele><time>2026-04-07T09:35:56.697Z</time></trkpt><trkpt lat="46.1380583" lon="9.4165293"><ele>207.6</ele><time>2026-04-07T09:35:58.696Z</time></trkpt><trkpt lat="46.1379998" lon="9.4164116"><ele>211.2</ele><time>2026-04-07T09:36:00.697Z</time></trkpt><trkpt lat="46.1379406" lon="9.416293"><ele>214.79999999999998</ele><time>2026-04-07T09:36:02.696Z</time></trkpt><trkpt lat="46.1378905" lon="9.4161726"><ele>218.39999999999998</ele><time>2026-04-07T09:36:04.697Z</time></trkpt><trkpt lat="46.1378326" lon="9.4160369"><ele>222.0</ele><time>2026-04-07T09:36:06.696Z</time></trkpt><trkpt lat="46.1377874" lon="9.4159318"><ele>222.0</ele><time>2026-04-07T09:36:08.695Z</time></trkpt><trkpt lat="46.1377318" lon="9.4158096"><ele>222.0</ele><time>2026-04-07T09:36:10.697Z</time></trkpt><trkpt lat="46.1376945" lon="9.4156853"><ele>222.0</ele><time>2026-04-07T09:36:12.697Z</time></trkpt><trkpt lat="46.1376619" lon="9.4156019"><ele>222.0</ele><time>2026-04-07T09:36:13.696Z</time></trkpt><trkpt lat="46.1376059" lon="9.4154624"><ele>222.0</ele><time>2026-04-07T09:36:15.696Z</time></trkpt><trkpt lat="46.1375723" lon="9.4153684"><ele>222.0</ele><time>2026-04-07T09:36:16.695Z</time></trkpt><trkpt lat="46.137528" lon="9.4152104"><ele>219.2</ele><time>2026-04-07T09:36:18.697Z</time></trkpt><trkpt lat="46.1374662" lon="9.4150851"><ele>216.39999999999998</ele><time>2026-04-07T09:36:20.697Z</time></trkpt><trkpt lat="46.1374089" lon="9.4149497"><ele>213.60000000000002</ele><time>2026-04-07T09:36:22.696Z</time></trkpt><trkpt lat="46.1373489" lon="9.4148151"><ele>210.8</ele><time>2026-04-07T09:36:24.695Z</time></trkpt><trkpt lat="46.1372915" lon="9.4146712"><ele>208.0</ele><time>2026-04-07T09:36:26.696Z</time></trkpt><trkpt lat="46.137238" lon="9.4145175"><ele>215.75</ele><time>2026-04-07T09:36:28.696Z</time></trkpt><trkpt lat="46.1371889" lon="9.4143844"><ele>223.5</ele><time>2026-04-07T09:36:30.696Z</time></trkpt><trkpt lat="46.1371356" lon="9.4142291"><ele>231.25</ele><time>2026-04-07T09:36:32.696Z</time></trkpt><trkpt lat="46.1370784" lon="9.4140798"><ele>239.0</ele><time>2026-04-07T09:36:34.696Z</time></trkpt><trkpt lat="46.1370301" lon="9.4139318"><ele>236.50000000000003</ele><time>2026-04-07T09:36:36.697Z</time></trkpt><trkpt lat="46.1369877" lon="9.4138131"><ele>234.0</ele><time>2026-04-07T09:36:38.696Z</time></trkpt><trkpt lat="46.136958" lon="9.4136787"><ele>231.5</ele><time>2026-04-07T09:36:40.696Z</time></trkpt><trkpt lat="46.1369308" lon="9.413568"><ele>229.0</ele><time>2026-04-07T09:36:42.697Z</time></trkpt><trkpt lat="46.1369051" lon="9.4134526"><ele>226.50000000000003</ele><time>2026-04-07T09:36:44.697Z</time></trkpt><trkpt lat="46.136891" lon="9.4133563"><ele>224.0</ele><time>2026-04-07T09:36:46.696Z</time></trkpt><trkpt lat="46.1368669" lon="9.4132262"><ele>224.0</ele><time>2026-04-07T09:36:48.696Z</time></trkpt><trkpt lat="46.1368426" lon="9.4130862"><ele>223.99999999999997</ele><time>2026-04-07T09:36:50.695Z</time></trkpt><trkpt lat="46.1368243" lon="9.4129513"><ele>223.99999999999997</ele><time>2026-04-07T09:36:52.696Z</time></trkpt><trkpt lat="46.1367987" lon="9.4128359"><ele>224.0</ele><time>2026-04-07T09:36:54.696Z</time></trkpt><trkpt lat="46.136784" lon="9.4127029"><ele>224.0</ele><time>2026-04-07T09:36:56.697Z</time></trkpt><trkpt lat="46.1367608" lon="9.4125587"><ele>222.2</ele><time>2026-04-07T09:36:58.697Z</time></trkpt><trkpt lat="46.136731" lon="9.4124045"><ele>220.39999999999998</ele><time>2026-04-07T09:37:00.697Z</time></trkpt><trkpt lat="46.1366884" lon="9.4122057"><ele>218.6</ele><time>2026-04-07T09:37:03.696Z</time></trkpt><trkpt lat="46.1366641" lon="9.4120653"><ele>216.8</ele><time>2026-04-07T09:37:05.696Z</time></trkpt><trkpt lat="46.1366383" lon="9.4119589"><ele>215.0</ele><time>2026-04-07T09:37:08.696Z</time></trkpt><trkpt lat="46.1366119" lon="9.4118567"><ele>215.83333333333334</ele><time>2026-04-07T09:37:10.696Z</time></trkpt><trkpt lat="46.1365962" lon="9.4117443"><ele>216.66666666666669</ele><time>2026-04-07T09:37:12.696Z</time></trkpt><trkpt lat="46.1365763" lon="9.411624"><ele>217.5</ele><time>2026-04-07T09:37:14.697Z</time></trkpt><trkpt lat="46.1365666" lon="9.411508"><ele>218.33333333333331</ele><time>2026-04-07T09:37:16.697Z</time></trkpt><trkpt lat="46.1365511" lon="9.4113816"><ele>219.16666666666666</ele><time>2026-04-07T09:37:18.697Z</time></trkpt><trkpt lat="46.1365314" lon="9.4112417"><ele>220.0</ele><time>2026-04-07T09:37:20.697Z</time></trkpt><trkpt lat="46.1365112" lon="9.4111553"><ele>219.99999999999997</ele><time>2026-04-07T09:37:21.697Z</time></trkpt><trkpt lat="46.1364716" lon="9.4109885"><ele>220.0</ele><time>2026-04-07T09:37:23.696Z</time></trkpt><trkpt lat="46.136448" lon="9.4108975"><ele>220.0</ele><time>2026-04-07T09:37:24.698Z</time></trkpt><trkpt lat="46.1364222" lon="9.4108085"><ele>220.0</ele><time>2026-04-07T09:37:25.696Z</time></trkpt><trkpt lat="46.1364053" lon="9.4107035"><ele>219.99999999999997</ele><time>2026-04-07T09:37:26.696Z</time></trkpt><trkpt lat="46.1363915" lon="9.4106091"><ele>220.0</ele><time>2026-04-07T09:37:27.697Z</time></trkpt><trkpt lat="46.1363709" lon="9.4105014"><ele>219.6</ele><time>2026-04-07T09:37:28.696Z</time></trkpt><trkpt lat="46.1363448" lon="9.4103215"><ele>219.2</ele><time>2026-04-07T09:37:30.697Z</time></trkpt><trkpt lat="46.1363303" lon="9.4102302"><ele>218.8</ele><time>2026-04-07T09:37:31.697Z</time></trkpt><trkpt lat="46.1363084" lon="9.4100496"><ele>218.4</ele><time>2026-04-07T09:37:33.697Z</time></trkpt><trkpt lat="46.1362989" lon="9.4099544"><ele>218.0</ele><time>2026-04-07T09:37:34.697Z</time></trkpt><trkpt lat="46.1362855" lon="9.4098608"><ele>218.0</ele><time>2026-04-07T09:37:35.698Z</time></trkpt><trkpt lat="46.1362731" lon="9.4097617"><ele>218.0</ele><time>2026-04-07T09:37:36.697Z</time></trkpt><trkpt lat="46.1362645" lon="9.4096673"><ele>218.0</ele><time>2026-04-07T09:37:37.698Z</time></trkpt><trkpt lat="46.1362602" lon="9.4094799"><ele>218.0</ele><time>2026-04-07T09:37:39.696Z</time></trkpt><trkpt lat="46.1362574" lon="9.4093781"><ele>218.0</ele><time>2026-04-07T09:37:40.696Z</time></trkpt><trkpt lat="46.136254" lon="9.4092133"><ele>216.60000000000002</ele><time>2026-04-07T09:37:42.696Z</time></trkpt><trkpt lat="46.1362697" lon="9.4091228"><ele>215.20000000000002</ele><time>2026-04-07T09:37:43.696Z</time></trkpt><trkpt lat="46.1362936" lon="9.4089428"><ele>213.8</ele><time>2026-04-07T09:37:45.696Z</time></trkpt><trkpt lat="46.1363331" lon="9.4087822"><ele>212.4</ele><time>2026-04-07T09:37:47.695Z</time></trkpt><trkpt lat="46.1363786" lon="9.4086196"><ele>211.0</ele><time>2026-04-07T09:37:49.697Z</time></trkpt><trkpt lat="46.1363982" lon="9.4085322"><ele>210.75</ele><time>2026-04-07T09:37:50.695Z</time></trkpt><trkpt lat="46.1364469" lon="9.408381"><ele>210.5</ele><time>2026-04-07T09:37:52.696Z</time></trkpt><trkpt lat="46.1364799" lon="9.4082355"><ele>210.25</ele><time>2026-04-07T09:37:54.697Z</time></trkpt><trkpt lat="46.136542" lon="9.4080131"><ele>210.0</ele><time>2026-04-07T09:37:57.695Z</time></trkpt><trkpt lat="46.1365874" lon="9.4078622"><ele>210.0</ele><time>2026-04-07T09:37:59.698Z</time></trkpt><trkpt lat="46.1366191" lon="9.407713"><ele>210.0</ele><time>2026-04-07T09:38:01.697Z</time></trkpt><trkpt lat="46.136646" lon="9.4075792"><ele>210.0</ele><time>2026-04-07T09:38:03.698Z</time></trkpt><trkpt lat="46.1366796" lon="9.4074548"><ele>210.0</ele><time>2026-04-07T09:38:05.695Z</time></trkpt><trkpt lat="46.1367073" lon="9.4073185"><ele>210.0</ele><time>2026-04-07T09:38:07.697Z</time></trkpt><trkpt lat="46.1367375" lon="9.4071949"><ele>210.33333333333334</ele><time>2026-04-07T09:38:09.698Z</time></trkpt><trkpt lat="46.1367594" lon="9.4070976"><ele>210.66666666666669</ele><time>2026-04-07T09:38:10.698Z</time></trkpt><trkpt lat="46.1367836" lon="9.4070114"><ele>211.0</ele><time>2026-04-07T09:38:11.697Z</time></trkpt><trkpt lat="46.1368161" lon="9.4069107"><ele>211.33333333333334</ele><time>2026-04-07T09:38:13.697Z</time></trkpt><trkpt lat="46.1368387" lon="9.4067878"><ele>211.66666666666669</ele><time>2026-04-07T09:38:15.697Z</time></trkpt><trkpt lat="46.1368724" lon="9.4066638"><ele>212.0</ele><time>2026-04-07T09:38:17.696Z</time></trkpt><trkpt lat="46.1369033" lon="9.4065342"><ele>212.0</ele><time>2026-04-07T09:38:19.698Z</time></trkpt><trkpt lat="46.1369324" lon="9.4064074"><ele>212.0</ele><time>2026-04-07T09:38:21.696Z</time></trkpt><trkpt lat="46.1369676" lon="9.4062735"><ele>212.0</ele><time>2026-04-07T09:38:23.696Z</time></trkpt><trkpt lat="46.1370067" lon="9.4061411"><ele>212.0</ele><time>2026-04-07T09:38:25.697Z</time></trkpt><trkpt lat="46.1370328" lon="9.4060122"><ele>212.0</ele><time>2026-04-07T09:38:27.697Z</time></trkpt><trkpt lat="46.1370617" lon="9.4058812"><ele>212.0</ele><time>2026-04-07T09:38:29.697Z</time></trkpt><trkpt lat="46.1370986" lon="9.4057377"><ele>212.0</ele><time>2026-04-07T09:38:31.698Z</time></trkpt><trkpt lat="46.1371259" lon="9.4056086"><ele>212.0</ele><time>2026-04-07T09:38:33.695Z</time></trkpt><trkpt lat="46.1371619" lon="9.4054868"><ele>212.0</ele><time>2026-04-07T09:38:35.697Z</time></trkpt><trkpt lat="46.1371905" lon="9.4053697"><ele>212.0</ele><time>2026-04-07T09:38:37.697Z</time></trkpt><trkpt lat="46.1372098" lon="9.4052603"><ele>212.16666666666669</ele><time>2026-04-07T09:38:39.697Z</time></trkpt><trkpt lat="46.1372179" lon="9.4051331"><ele>212.33333333333334</ele><time>2026-04-07T09:38:41.696Z</time></trkpt><trkpt lat="46.1372156" lon="9.4050173"><ele>212.5</ele><time>2026-04-07T09:38:43.696Z</time></trkpt><trkpt lat="46.137236" lon="9.4049103"><ele>212.66666666666669</ele><time>2026-04-07T09:38:45.696Z</time></trkpt><trkpt lat="46.1372676" lon="9.4047984"><ele>212.83333333333334</ele><time>2026-04-07T09:38:47.698Z</time></trkpt><trkpt lat="46.1372999" lon="9.4046793"><ele>213.0</ele><time>2026-04-07T09:38:49.697Z</time></trkpt><trkpt lat="46.1373299" lon="9.4045568"><ele>213.16666666666666</ele><time>2026-04-07T09:38:51.697Z</time></trkpt><trkpt lat="46.1373622" lon="9.4044391"><ele>213.33333333333331</ele><time>2026-04-07T09:38:53.697Z</time></trkpt><trkpt lat="46.1373937" lon="9.404315"><ele>213.5</ele><time>2026-04-07T09:38:55.696Z</time></trkpt><trkpt lat="46.137423" lon="9.4041933"><ele>213.66666666666666</ele><time>2026-04-07T09:38:57.696Z</time></trkpt><trkpt lat="46.1374561" lon="9.4040738"><ele>213.83333333333331</ele><time>2026-04-07T09:38:59.697Z</time></trkpt><trkpt lat="46.1374813" lon="9.4039633"><ele>214.0</ele><time>2026-04-07T09:39:01.696Z</time></trkpt><trkpt lat="46.137508" lon="9.4038455"><ele>213.79999999999998</ele><time>2026-04-07T09:39:03.696Z</time></trkpt><trkpt lat="46.1375354" lon="9.4037324"><ele>213.59999999999997</ele><time>2026-04-07T09:39:05.697Z</time></trkpt><trkpt lat="46.1375742" lon="9.4035582"><ele>213.4</ele><time>2026-04-07T09:39:08.696Z</time></trkpt><trkpt lat="46.137601" lon="9.4034399"><ele>213.2</ele><time>2026-04-07T09:39:10.698Z</time></trkpt><trkpt lat="46.1376292" lon="9.403325"><ele>213.0</ele><time>2026-04-07T09:39:12.696Z</time></trkpt><trkpt lat="46.137668" lon="9.4032116"><ele>213.0</ele><time>2026-04-07T09:39:14.697Z</time></trkpt><trkpt lat="46.1376977" lon="9.4030898"><ele>213.0</ele><time>2026-04-07T09:39:16.697Z</time></trkpt><trkpt lat="46.1377262" lon="9.4029723"><ele>213.0</ele><time>2026-04-07T09:39:18.697Z</time></trkpt><trkpt lat="46.1377568" lon="9.4028613"><ele>213.0</ele><time>2026-04-07T09:39:20.697Z</time></trkpt><trkpt lat="46.1377917" lon="9.4027421"><ele>213.0</ele><time>2026-04-07T09:39:22.697Z</time></trkpt><trkpt lat="46.137815" lon="9.4026071"><ele>213.0</ele><time>2026-04-07T09:39:24.697Z</time></trkpt><trkpt lat="46.137837" lon="9.4024942"><ele>213.33333333333334</ele><time>2026-04-07T09:39:26.696Z</time></trkpt><trkpt lat="46.1378679" lon="9.402387"><ele>213.66666666666669</ele><time>2026-04-07T09:39:28.698Z</time></trkpt><trkpt lat="46.1379001" lon="9.4022688"><ele>214.0</ele><time>2026-04-07T09:39:30.697Z</time></trkpt><trkpt lat="46.1379279" lon="9.4021478"><ele>214.33333333333334</ele><time>2026-04-07T09:39:32.696Z</time></trkpt><trkpt lat="46.1379692" lon="9.4020235"><ele>214.66666666666669</ele><time>2026-04-07T09:39:34.697Z</time></trkpt><trkpt lat="46.1379975" lon="9.4019143"><ele>215.0</ele><time>2026-04-07T09:39:36.696Z</time></trkpt><trkpt lat="46.1380293" lon="9.4018004"><ele>215.16666666666669</ele><time>2026-04-07T09:39:38.698Z</time></trkpt><trkpt lat="46.1380597" lon="9.4016875"><ele>215.33333333333334</ele><time>2026-04-07T09:39:40.696Z</time></trkpt><trkpt lat="46.1380815" lon="9.4015729"><ele>215.5</ele><time>2026-04-07T09:39:42.697Z</time></trkpt><trkpt lat="46.1381089" lon="9.4014552"><ele>215.66666666666669</ele><time>2026-04-07T09:39:44.696Z</time></trkpt><trkpt lat="46.1381414" lon="9.4013345"><ele>215.83333333333334</ele><time>2026-04-07T09:39:46.697Z</time></trkpt><trkpt lat="46.138173" lon="9.4012118"><ele>216.0</ele><time>2026-04-07T09:39:48.697Z</time></trkpt><trkpt lat="46.1382007" lon="9.4011047"><ele>215.66666666666666</ele><time>2026-04-07T09:39:50.697Z</time></trkpt><trkpt lat="46.1382305" lon="9.4009837"><ele>215.33333333333331</ele><time>2026-04-07T09:39:52.697Z</time></trkpt><trkpt lat="46.1382591" lon="9.4008749"><ele>215.0</ele><time>2026-04-07T09:39:54.696Z</time></trkpt><trkpt lat="46.1382932" lon="9.4007563"><ele>214.66666666666666</ele><time>2026-04-07T09:39:56.695Z</time></trkpt><trkpt lat="46.1383253" lon="9.400646"><ele>214.33333333333331</ele><time>2026-04-07T09:39:58.697Z</time></trkpt><trkpt lat="46.138355" lon="9.4005275"><ele>214.0</ele><time>2026-04-07T09:40:00.698Z</time></trkpt><trkpt lat="46.1383831" lon="9.4003951"><ele>214.0</ele><time>2026-04-07T09:40:02.696Z</time></trkpt><trkpt lat="46.1384101" lon="9.4002792"><ele>213.99999999999997</ele><time>2026-04-07T09:40:04.697Z</time></trkpt><trkpt lat="46.1384488" lon="9.4001537"><ele>213.99999999999997</ele><time>2026-04-07T09:40:06.696Z</time></trkpt><trkpt lat="46.1384819" lon="9.4000351"><ele>214.0</ele><time>2026-04-07T09:40:08.696Z</time></trkpt><trkpt lat="46.1385126" lon="9.3999053"><ele>214.0</ele><time>2026-04-07T09:40:10.695Z</time></trkpt><trkpt lat="46.1385419" lon="9.3997775"><ele>214.6</ele><time>2026-04-07T09:40:12.697Z</time></trkpt><trkpt lat="46.1385862" lon="9.3995923"><ele>215.2</ele><time>2026-04-07T09:40:15.696Z</time></trkpt><trkpt lat="46.1386145" lon="9.3994781"><ele>215.79999999999998</ele><time>2026-04-07T09:40:17.696Z</time></trkpt><trkpt lat="46.1386495" lon="9.3993587"><ele>216.39999999999998</ele><time>2026-04-07T09:40:19.697Z</time></trkpt><trkpt lat="46.1386823" lon="9.3992295"><ele>217.0</ele><time>2026-04-07T09:40:21.696Z</time></trkpt><trkpt lat="46.1387113" lon="9.3991138"><ele>216.99999999999997</ele><time>2026-04-07T09:40:23.697Z</time></trkpt><trkpt lat="46.1387397" lon="9.3989907"><ele>217.0</ele><time>2026-04-07T09:40:25.697Z</time></trkpt><trkpt lat="46.1387688" lon="9.3988728"><ele>217.0</ele><time>2026-04-07T09:40:27.698Z</time></trkpt><trkpt lat="46.1387904" lon="9.3987706"><ele>217.0</ele><time>2026-04-07T09:40:29.698Z</time></trkpt><trkpt lat="46.1388165" lon="9.3986611"><ele>216.99999999999997</ele><time>2026-04-07T09:40:31.697Z</time></trkpt><trkpt lat="46.1388459" lon="9.398556"><ele>217.0</ele><time>2026-04-07T09:40:33.697Z</time></trkpt><trkpt lat="46.138869" lon="9.3984586"><ele>217.16666666666666</ele><time>2026-04-07T09:40:35.697Z</time></trkpt><trkpt lat="46.1388904" lon="9.3983707"><ele>217.33333333333331</ele><time>2026-04-07T09:40:37.696Z</time></trkpt><trkpt lat="46.1389104" lon="9.3982814"><ele>217.5</ele><time>2026-04-07T09:40:40.697Z</time></trkpt><trkpt lat="46.1389418" lon="9.3981498"><ele>217.66666666666669</ele><time>2026-04-07T09:40:43.697Z</time></trkpt><trkpt lat="46.138976" lon="9.3980448"><ele>217.83333333333334</ele><time>2026-04-07T09:40:45.697Z</time></trkpt><trkpt lat="46.1390074" lon="9.3979386"><ele>218.0</ele><time>2026-04-07T09:40:47.695Z</time></trkpt><trkpt lat="46.1390353" lon="9.3978242"><ele>217.60000000000002</ele><time>2026-04-07T09:40:49.697Z</time></trkpt><trkpt lat="46.1390702" lon="9.397701"><ele>217.20000000000002</ele><time>2026-04-07T09:40:51.697Z</time></trkpt><trkpt lat="46.1391052" lon="9.397564"><ele>216.8</ele><time>2026-04-07T09:40:53.696Z</time></trkpt><trkpt lat="46.13914" lon="9.3974338"><ele>216.4</ele><time>2026-04-07T09:40:55.698Z</time></trkpt><trkpt lat="46.1391669" lon="9.3973089"><ele>216.0</ele><time>2026-04-07T09:40:57.697Z</time></trkpt><trkpt lat="46.1391971" lon="9.397181"><ele>216.20000000000002</ele><time>2026-04-07T09:40:59.697Z</time></trkpt><trkpt lat="46.1392244" lon="9.3970501"><ele>216.40000000000003</ele><time>2026-04-07T09:41:01.697Z</time></trkpt><trkpt lat="46.139261" lon="9.3969217"><ele>216.6</ele><time>2026-04-07T09:41:03.696Z</time></trkpt><trkpt lat="46.1392904" lon="9.3967914"><ele>216.8</ele><time>2026-04-07T09:41:05.696Z</time></trkpt><trkpt lat="46.1393154" lon="9.3966648"><ele>217.0</ele><time>2026-04-07T09:41:07.697Z</time></trkpt><trkpt lat="46.139344" lon="9.3965483"><ele>217.0</ele><time>2026-04-07T09:41:09.696Z</time></trkpt><trkpt lat="46.1393758" lon="9.3964184"><ele>217.0</ele><time>2026-04-07T09:41:11.697Z</time></trkpt><trkpt lat="46.1394047" lon="9.3963024"><ele>217.0</ele><time>2026-04-07T09:41:13.697Z</time></trkpt><trkpt lat="46.1394399" lon="9.3961725"><ele>217.0</ele><time>2026-04-07T09:41:15.697Z</time></trkpt><trkpt lat="46.1394727" lon="9.3960445"><ele>217.0</ele><time>2026-04-07T09:41:17.697Z</time></trkpt><trkpt lat="46.1395063" lon="9.3959151"><ele>217.0</ele><time>2026-04-07T09:41:19.697Z</time></trkpt><trkpt lat="46.1395446" lon="9.395805"><ele>217.0</ele><time>2026-04-07T09:41:21.696Z</time></trkpt><trkpt lat="46.1395761" lon="9.3956739"><ele>217.0</ele><time>2026-04-07T09:41:23.697Z</time></trkpt><trkpt lat="46.1396084" lon="9.3955424"><ele>217.0</ele><time>2026-04-07T09:41:25.698Z</time></trkpt><trkpt lat="46.1396585" lon="9.3953503"><ele>217.0</ele><time>2026-04-07T09:41:28.697Z</time></trkpt><trkpt lat="46.1396915" lon="9.3952042"><ele>217.0</ele><time>2026-04-07T09:41:30.697Z</time></trkpt><trkpt lat="46.1397317" lon="9.3950669"><ele>217.0</ele><time>2026-04-07T09:41:32.696Z</time></trkpt><trkpt lat="46.1397904" lon="9.3949496"><ele>217.0</ele><time>2026-04-07T09:41:34.697Z</time></trkpt><trkpt lat="46.1398447" lon="9.3948179"><ele>217.0</ele><time>2026-04-07T09:41:36.697Z</time></trkpt><trkpt lat="46.1398763" lon="9.3946741"><ele>217.0</ele><time>2026-04-07T09:41:38.697Z</time></trkpt><trkpt lat="46.1399278" lon="9.3945365"><ele>216.66666666666666</ele><time>2026-04-07T09:41:40.697Z</time></trkpt><trkpt lat="46.1399919" lon="9.3944469"><ele>216.33333333333331</ele><time>2026-04-07T09:41:42.696Z</time></trkpt><trkpt lat="46.1400624" lon="9.3944065"><ele>216.0</ele><time>2026-04-07T09:41:44.697Z</time></trkpt><trkpt lat="46.1401384" lon="9.394391"><ele>215.66666666666669</ele><time>2026-04-07T09:41:55.695Z</time></trkpt><trkpt lat="46.1401747" lon="9.3942767"><ele>215.33333333333334</ele><time>2026-04-07T09:41:59.696Z</time></trkpt><trkpt lat="46.1401495" lon="9.3941412"><ele>215.0</ele><time>2026-04-07T09:42:02.697Z</time></trkpt><trkpt lat="46.1401345" lon="9.3940392"><ele>215.00000000000003</ele><time>2026-04-07T09:42:04.697Z</time></trkpt><trkpt lat="46.1401246" lon="9.3939268"><ele>215.0</ele><time>2026-04-07T09:42:06.697Z</time></trkpt><trkpt lat="46.1401232" lon="9.3938027"><ele>215.0</ele><time>2026-04-07T09:42:08.696Z</time></trkpt><trkpt lat="46.140127" lon="9.3936827"><ele>215.0</ele><time>2026-04-07T09:42:10.696Z</time></trkpt><trkpt lat="46.1401387" lon="9.3935532"><ele>215.00000000000003</ele><time>2026-04-07T09:42:12.697Z</time></trkpt><trkpt lat="46.1401426" lon="9.393425"><ele>215.0</ele><time>2026-04-07T09:42:14.698Z</time></trkpt><trkpt lat="46.1401334" lon="9.393282"><ele>215.6</ele><time>2026-04-07T09:42:16.697Z</time></trkpt><trkpt lat="46.1401213" lon="9.3931408"><ele>216.2</ele><time>2026-04-07T09:42:18.697Z</time></trkpt><trkpt lat="46.1401162" lon="9.3930159"><ele>216.8</ele><time>2026-04-07T09:42:20.697Z</time></trkpt><trkpt lat="46.1401157" lon="9.3928404"><ele>217.4</ele><time>2026-04-07T09:42:22.696Z</time></trkpt><trkpt lat="46.1401246" lon="9.3927007"><ele>218.0</ele><time>2026-04-07T09:42:24.697Z</time></trkpt><trkpt lat="46.1401197" lon="9.3925429"><ele>218.2</ele><time>2026-04-07T09:42:26.696Z</time></trkpt><trkpt lat="46.1401153" lon="9.3923819"><ele>218.4</ele><time>2026-04-07T09:42:28.697Z</time></trkpt><trkpt lat="46.1401148" lon="9.3922289"><ele>218.59999999999997</ele><time>2026-04-07T09:42:30.696Z</time></trkpt><trkpt lat="46.1401058" lon="9.3920781"><ele>218.79999999999998</ele><time>2026-04-07T09:42:32.698Z</time></trkpt><trkpt lat="46.1401032" lon="9.3919244"><ele>219.0</ele><time>2026-04-07T09:42:34.697Z</time></trkpt><trkpt lat="46.140096" lon="9.3918335"><ele>218.6</ele><time>2026-04-07T09:42:35.697Z</time></trkpt><trkpt lat="46.1400988" lon="9.3916746"><ele>218.2</ele><time>2026-04-07T09:42:37.697Z</time></trkpt><trkpt lat="46.1400912" lon="9.3915329"><ele>217.79999999999998</ele><time>2026-04-07T09:42:39.697Z</time></trkpt><trkpt lat="46.1400833" lon="9.3914133"><ele>217.39999999999998</ele><time>2026-04-07T09:42:41.697Z</time></trkpt><trkpt lat="46.1401314" lon="9.3913478"><ele>217.0</ele><time>2026-04-07T09:42:43.696Z</time></trkpt><trkpt lat="46.1402243" lon="9.3913899"><ele>217.0</ele><time>2026-04-07T09:42:45.697Z</time></trkpt><trkpt lat="46.1403272" lon="9.3914285"><ele>217.0</ele><time>2026-04-07T09:42:47.698Z</time></trkpt><trkpt lat="46.1404588" lon="9.3914707"><ele>217.0</ele><time>2026-04-07T09:42:49.697Z</time></trkpt><trkpt lat="46.1405227" lon="9.3914854"><ele>217.0</ele><time>2026-04-07T09:42:50.697Z</time></trkpt><trkpt lat="46.1405924" lon="9.3915114"><ele>217.0</ele><time>2026-04-07T09:42:51.697Z</time></trkpt><trkpt lat="46.1406622" lon="9.3915373"><ele>216.33333333333331</ele><time>2026-04-07T09:42:52.697Z</time></trkpt><trkpt lat="46.1407413" lon="9.3915685"><ele>215.66666666666666</ele><time>2026-04-07T09:42:53.697Z</time></trkpt><trkpt lat="46.1408096" lon="9.3915947"><ele>215.0</ele><time>2026-04-07T09:42:54.697Z</time></trkpt><trkpt lat="46.1408723" lon="9.3916307"><ele>214.33333333333331</ele><time>2026-04-07T09:42:55.696Z</time></trkpt><trkpt lat="46.1409746" lon="9.3916645"><ele>213.66666666666666</ele><time>2026-04-07T09:42:56.697Z</time></trkpt><trkpt lat="46.1410571" lon="9.391686"><ele>213.0</ele><time>2026-04-07T09:42:57.698Z</time></trkpt><trkpt lat="46.1411421" lon="9.3916915"><ele>212.99999999999997</ele><time>2026-04-07T09:42:58.698Z</time></trkpt><trkpt lat="46.1412231" lon="9.3916986"><ele>213.0</ele><time>2026-04-07T09:42:59.697Z</time></trkpt><trkpt lat="46.1412983" lon="9.3917078"><ele>213.0</ele><time>2026-04-07T09:43:00.698Z</time></trkpt><trkpt lat="46.141375" lon="9.391714"><ele>213.0</ele><time>2026-04-07T09:43:01.696Z</time></trkpt><trkpt lat="46.1414484" lon="9.3917077"><ele>213.0</ele><time>2026-04-07T09:43:02.699Z</time></trkpt><trkpt lat="46.1415149" lon="9.3917032"><ele>212.99999999999997</ele><time>2026-04-07T09:43:03.697Z</time></trkpt><trkpt lat="46.1415801" lon="9.39169"><ele>213.0</ele><time>2026-04-07T09:43:04.699Z</time></trkpt><trkpt lat="46.1416895" lon="9.3916181"><ele>212.75</ele><time>2026-04-07T09:43:06.697Z</time></trkpt><trkpt lat="46.1417305" lon="9.3914738"><ele>212.5</ele><time>2026-04-07T09:43:08.696Z</time></trkpt><trkpt lat="46.1417498" lon="9.3913025"><ele>212.25</ele><time>2026-04-07T09:43:10.697Z</time></trkpt><trkpt lat="46.1417739" lon="9.3911317"><ele>212.0</ele><time>2026-04-07T09:43:12.698Z</time></trkpt><trkpt lat="46.141801" lon="9.3909637"><ele>211.8</ele><time>2026-04-07T09:43:14.697Z</time></trkpt><trkpt lat="46.1418127" lon="9.3908719"><ele>211.6</ele><time>2026-04-07T09:43:15.698Z</time></trkpt><trkpt lat="46.1418198" lon="9.3907756"><ele>211.4</ele><time>2026-04-07T09:43:16.697Z</time></trkpt><trkpt lat="46.141844" lon="9.3906037"><ele>211.20000000000002</ele><time>2026-04-07T09:43:18.697Z</time></trkpt><trkpt lat="46.1418706" lon="9.3904466"><ele>211.0</ele><time>2026-04-07T09:43:20.698Z</time></trkpt><trkpt lat="46.141884" lon="9.3903098"><ele>211.0</ele><time>2026-04-07T09:43:22.697Z</time></trkpt><trkpt lat="46.1418542" lon="9.3901533"><ele>211.0</ele><time>2026-04-07T09:43:24.697Z</time></trkpt><trkpt lat="46.1418272" lon="9.3900133"><ele>211.0</ele><time>2026-04-07T09:43:26.696Z</time></trkpt><trkpt lat="46.1417949" lon="9.3898633"><ele>211.0</ele><time>2026-04-07T09:43:28.697Z</time></trkpt><trkpt lat="46.1417452" lon="9.3897326"><ele>211.0</ele><time>2026-04-07T09:43:30.697Z</time></trkpt><trkpt lat="46.1416849" lon="9.3895999"><ele>210.8</ele><time>2026-04-07T09:43:32.697Z</time></trkpt><trkpt lat="46.141629" lon="9.3894591"><ele>210.60000000000002</ele><time>2026-04-07T09:43:34.697Z</time></trkpt><trkpt lat="46.1416047" lon="9.3893098"><ele>210.4</ele><time>2026-04-07T09:43:36.697Z</time></trkpt><trkpt lat="46.1415739" lon="9.3891669"><ele>210.2</ele><time>2026-04-07T09:43:38.697Z</time></trkpt><trkpt lat="46.1415437" lon="9.3890126"><ele>210.0</ele><time>2026-04-07T09:43:40.697Z</time></trkpt><trkpt lat="46.1415076" lon="9.3888657"><ele>210.66666666666666</ele><time>2026-04-07T09:43:42.696Z</time></trkpt><trkpt lat="46.1414747" lon="9.3887254"><ele>211.33333333333331</ele><time>2026-04-07T09:43:44.698Z</time></trkpt><trkpt lat="46.1414355" lon="9.388597"><ele>212.0</ele><time>2026-04-07T09:43:46.698Z</time></trkpt><trkpt lat="46.1413956" lon="9.3884915"><ele>212.66666666666666</ele><time>2026-04-07T09:43:48.698Z</time></trkpt><trkpt lat="46.1413581" lon="9.3883683"><ele>213.33333333333331</ele><time>2026-04-07T09:43:50.696Z</time></trkpt><trkpt lat="46.1413406" lon="9.3882658"><ele>214.0</ele><time>2026-04-07T09:43:52.697Z</time></trkpt><trkpt lat="46.1413095" lon="9.3881729"><ele>213.99999999999997</ele><time>2026-04-07T09:44:27.697Z</time></trkpt><trkpt lat="46.1412785" lon="9.3880831"><ele>214.0</ele><time>2026-04-07T09:44:31.698Z</time></trkpt><trkpt lat="46.1412312" lon="9.3879955"><ele>214.0</ele><time>2026-04-07T09:44:34.698Z</time></trkpt><trkpt lat="46.1411829" lon="9.3878831"><ele>214.0</ele><time>2026-04-07T09:44:37.698Z</time></trkpt><trkpt lat="46.1411529" lon="9.387783"><ele>213.99999999999997</ele><time>2026-04-07T09:44:39.697Z</time></trkpt><trkpt lat="46.1411168" lon="9.3876572"><ele>214.0</ele><time>2026-04-07T09:44:42.698Z</time></trkpt><trkpt lat="46.1410858" lon="9.3875521"><ele>213.99999999999997</ele><time>2026-04-07T09:44:44.697Z</time></trkpt><trkpt lat="46.1410553" lon="9.3874629"><ele>214.0</ele><time>2026-04-07T09:44:46.697Z</time></trkpt><trkpt lat="46.1410163" lon="9.3873672"><ele>214.0</ele><time>2026-04-07T09:44:48.697Z</time></trkpt><trkpt lat="46.1409771" lon="9.3872693"><ele>214.0</ele><time>2026-04-07T09:44:50.697Z</time></trkpt><trkpt lat="46.1409417" lon="9.387165"><ele>213.99999999999997</ele><time>2026-04-07T09:44:52.697Z</time></trkpt><trkpt lat="46.1409033" lon="9.3870575"><ele>214.0</ele><time>2026-04-07T09:44:54.698Z</time></trkpt><trkpt lat="46.1408653" lon="9.3869538"><ele>214.16666666666666</ele><time>2026-04-07T09:44:56.698Z</time></trkpt><trkpt lat="46.1408276" lon="9.3868645"><ele>214.33333333333331</ele><time>2026-04-07T09:44:58.697Z</time></trkpt><trkpt lat="46.1407858" lon="9.3867643"><ele>214.5</ele><time>2026-04-07T09:45:00.697Z</time></trkpt><trkpt lat="46.1407372" lon="9.386647"><ele>214.66666666666669</ele><time>2026-04-07T09:45:02.697Z</time></trkpt><trkpt lat="46.1406981" lon="9.3865296"><ele>214.83333333333334</ele><time>2026-04-07T09:45:04.697Z</time></trkpt><trkpt lat="46.140677" lon="9.3863903"><ele>215.0</ele><time>2026-04-07T09:45:06.698Z</time></trkpt><trkpt lat="46.1406514" lon="9.3862586"><ele>215.8</ele><time>2026-04-07T09:45:08.697Z</time></trkpt><trkpt lat="46.140613" lon="9.3861263"><ele>216.6</ele><time>2026-04-07T09:45:10.696Z</time></trkpt><trkpt lat="46.1405686" lon="9.3860034"><ele>217.39999999999998</ele><time>2026-04-07T09:45:12.696Z</time></trkpt><trkpt lat="46.140526" lon="9.3858763"><ele>218.2</ele><time>2026-04-07T09:45:14.696Z</time></trkpt><trkpt lat="46.1404845" lon="9.3857408"><ele>219.0</ele><time>2026-04-07T09:45:16.697Z</time></trkpt><trkpt lat="46.1404274" lon="9.385616"><ele>218.79999999999998</ele><time>2026-04-07T09:45:18.698Z</time></trkpt><trkpt lat="46.1403833" lon="9.3854801"><ele>218.59999999999997</ele><time>2026-04-07T09:45:20.697Z</time></trkpt><trkpt lat="46.1403431" lon="9.3853321"><ele>218.4</ele><time>2026-04-07T09:45:22.698Z</time></trkpt><trkpt lat="46.140309" lon="9.3852033"><ele>218.2</ele><time>2026-04-07T09:45:24.696Z</time></trkpt><trkpt lat="46.1402669" lon="9.385077"><ele>218.0</ele><time>2026-04-07T09:45:26.698Z</time></trkpt><trkpt lat="46.1402339" lon="9.3849369"><ele>218.0</ele><time>2026-04-07T09:45:28.698Z</time></trkpt><trkpt lat="46.1402001" lon="9.3848271"><ele>218.0</ele><time>2026-04-07T09:45:30.698Z</time></trkpt><trkpt lat="46.1402365" lon="9.3847312"><ele>218.0</ele><time>2026-04-07T09:45:32.697Z</time></trkpt><trkpt lat="46.1403332" lon="9.3846919"><ele>218.0</ele><time>2026-04-07T09:45:34.698Z</time></trkpt><trkpt lat="46.1404363" lon="9.3846521"><ele>218.0</ele><time>2026-04-07T09:45:36.698Z</time></trkpt><trkpt lat="46.1405455" lon="9.3845984"><ele>218.0</ele><time>2026-04-07T09:45:38.697Z</time></trkpt><trkpt lat="46.1406517" lon="9.3845828"><ele>218.0</ele><time>2026-04-07T09:45:40.698Z</time></trkpt><trkpt lat="46.1407513" lon="9.3845672"><ele>218.0</ele><time>2026-04-07T09:45:42.697Z</time></trkpt><trkpt lat="46.1408474" lon="9.3845363"><ele>218.0</ele><time>2026-04-07T09:45:44.698Z</time></trkpt><trkpt lat="46.1409447" lon="9.384539"><ele>218.0</ele><time>2026-04-07T09:45:46.696Z</time></trkpt><trkpt lat="46.1410291" lon="9.3844998"><ele>217.28571428571428</ele><time>2026-04-07T09:45:48.697Z</time></trkpt><trkpt lat="46.141094" lon="9.3844499"><ele>216.57142857142858</ele><time>2026-04-07T09:45:51.697Z</time></trkpt><trkpt lat="46.1411559" lon="9.3844223"><ele>215.85714285714283</ele><time>2026-04-07T09:45:53.697Z</time></trkpt><trkpt lat="46.1412203" lon="9.3844005"><ele>215.14285714285714</ele><time>2026-04-07T09:45:55.697Z</time></trkpt><trkpt lat="46.1412876" lon="9.3843707"><ele>214.42857142857142</ele><time>2026-04-07T09:45:57.697Z</time></trkpt><trkpt lat="46.1413597" lon="9.3843389"><ele>213.7142857142857</ele><time>2026-04-07T09:45:59.698Z</time></trkpt><trkpt lat="46.1414445" lon="9.3843125"><ele>213.0</ele><time>2026-04-07T09:46:01.697Z</time></trkpt><trkpt lat="46.1415458" lon="9.3842729"><ele>212.33333333333334</ele><time>2026-04-07T09:46:03.697Z</time></trkpt><trkpt lat="46.1416724" lon="9.3842137"><ele>211.66666666666669</ele><time>2026-04-07T09:46:05.697Z</time></trkpt><trkpt lat="46.1417338" lon="9.3841588"><ele>211.0</ele><time>2026-04-07T09:46:06.697Z</time></trkpt><trkpt lat="46.1417986" lon="9.3840901"><ele>210.33333333333334</ele><time>2026-04-07T09:46:07.697Z</time></trkpt><trkpt lat="46.1418431" lon="9.3839955"><ele>209.66666666666669</ele><time>2026-04-07T09:46:08.698Z</time></trkpt><trkpt lat="46.1418653" lon="9.3838988"><ele>209.0</ele><time>2026-04-07T09:46:09.697Z</time></trkpt><trkpt lat="46.1418792" lon="9.3837646"><ele>208.79999999999998</ele><time>2026-04-07T09:46:10.698Z</time></trkpt><trkpt lat="46.1418856" lon="9.3836284"><ele>208.6</ele><time>2026-04-07T09:46:11.698Z</time></trkpt><trkpt lat="46.1418711" lon="9.3834999"><ele>208.4</ele><time>2026-04-07T09:46:12.698Z</time></trkpt><trkpt lat="46.1418385" lon="9.3833716"><ele>208.2</ele><time>2026-04-07T09:46:13.697Z</time></trkpt><trkpt lat="46.1417996" lon="9.3832593"><ele>208.0</ele><time>2026-04-07T09:46:14.698Z</time></trkpt><trkpt lat="46.1417484" lon="9.3831514"><ele>207.99999999999997</ele><time>2026-04-07T09:46:15.697Z</time></trkpt><trkpt lat="46.1416519" lon="9.3831252"><ele>208.0</ele><time>2026-04-07T09:46:16.696Z</time></trkpt><trkpt lat="46.1415676" lon="9.3830842"><ele>208.0</ele><time>2026-04-07T09:46:17.696Z</time></trkpt><trkpt lat="46.1414842" lon="9.3830766"><ele>208.0</ele><time>2026-04-07T09:46:18.698Z</time></trkpt><trkpt lat="46.1414085" lon="9.383103"><ele>207.99999999999997</ele><time>2026-04-07T09:46:19.697Z</time></trkpt><trkpt lat="46.1413333" lon="9.3831097"><ele>208.0</ele><time>2026-04-07T09:46:20.698Z</time></trkpt><trkpt lat="46.1412597" lon="9.3830846"><ele>208.66666666666666</ele><time>2026-04-07T09:46:21.698Z</time></trkpt><trkpt lat="46.141192" lon="9.3830465"><ele>209.33333333333331</ele><time>2026-04-07T09:46:22.697Z</time></trkpt><trkpt lat="46.1411359" lon="9.3829645"><ele>210.0</ele><time>2026-04-07T09:46:23.697Z</time></trkpt><trkpt lat="46.1411028" lon="9.3828784"><ele>210.66666666666669</ele><time>2026-04-07T09:46:24.696Z</time></trkpt><trkpt lat="46.1410645" lon="9.3827008"><ele>211.33333333333334</ele><time>2026-04-07T09:46:26.698Z</time></trkpt><trkpt lat="46.1410441" lon="9.3826073"><ele>212.0</ele><time>2026-04-07T09:46:27.699Z</time></trkpt><trkpt lat="46.1410184" lon="9.382522"><ele>212.0</ele><time>2026-04-07T09:46:28.698Z</time></trkpt><trkpt lat="46.1409993" lon="9.3824275"><ele>212.0</ele><time>2026-04-07T09:46:29.698Z</time></trkpt><trkpt lat="46.1409771" lon="9.3823319"><ele>212.0</ele><time>2026-04-07T09:46:30.696Z</time></trkpt><trkpt lat="46.1409568" lon="9.3822331"><ele>212.0</ele><time>2026-04-07T09:46:31.697Z</time></trkpt><trkpt lat="46.1409344" lon="9.3821405"><ele>212.0</ele><time>2026-04-07T09:46:32.697Z</time></trkpt><trkpt lat="46.1409237" lon="9.3820441"><ele>212.0</ele><time>2026-04-07T09:46:33.696Z</time></trkpt><trkpt lat="46.1408997" lon="9.3819401"><ele>212.0</ele><time>2026-04-07T09:46:34.698Z</time></trkpt><trkpt lat="46.1408784" lon="9.3818482"><ele>211.85714285714286</ele><time>2026-04-07T09:46:35.699Z</time></trkpt><trkpt lat="46.1408592" lon="9.3817449"><ele>211.7142857142857</ele><time>2026-04-07T09:46:36.698Z</time></trkpt><trkpt lat="46.1408451" lon="9.381653"><ele>211.57142857142856</ele><time>2026-04-07T09:46:37.698Z</time></trkpt><trkpt lat="46.1408235" lon="9.381562"><ele>211.42857142857144</ele><time>2026-04-07T09:46:38.696Z</time></trkpt><trkpt lat="46.1407979" lon="9.3814613"><ele>211.28571428571428</ele><time>2026-04-07T09:46:39.697Z</time></trkpt><trkpt lat="46.1407792" lon="9.3813635"><ele>211.14285714285714</ele><time>2026-04-07T09:46:40.697Z</time></trkpt><trkpt lat="46.1407531" lon="9.3812694"><ele>211.0</ele><time>2026-04-07T09:46:41.697Z</time></trkpt><trkpt lat="46.1407265" lon="9.3811764"><ele>211.14285714285714</ele><time>2026-04-07T09:46:42.699Z</time></trkpt><trkpt lat="46.1407085" lon="9.381078"><ele>211.28571428571428</ele><time>2026-04-07T09:46:43.699Z</time></trkpt><trkpt lat="46.1406781" lon="9.3809701"><ele>211.42857142857144</ele><time>2026-04-07T09:46:44.698Z</time></trkpt><trkpt lat="46.1406511" lon="9.3808691"><ele>211.57142857142856</ele><time>2026-04-07T09:46:45.698Z</time></trkpt><trkpt lat="46.1406312" lon="9.380778"><ele>211.7142857142857</ele><time>2026-04-07T09:46:46.696Z</time></trkpt><trkpt lat="46.1406068" lon="9.3806928"><ele>211.85714285714286</ele><time>2026-04-07T09:46:47.697Z</time></trkpt><trkpt lat="46.1405873" lon="9.3805961"><ele>212.0</ele><time>2026-04-07T09:46:48.697Z</time></trkpt><trkpt lat="46.1405708" lon="9.3804943"><ele>212.00000000000003</ele><time>2026-04-07T09:46:49.698Z</time></trkpt><trkpt lat="46.1405548" lon="9.380394"><ele>212.0</ele><time>2026-04-07T09:46:50.697Z</time></trkpt><trkpt lat="46.1405324" lon="9.3802986"><ele>212.0</ele><time>2026-04-07T09:46:51.697Z</time></trkpt><trkpt lat="46.1404846" lon="9.3801259"><ele>212.0</ele><time>2026-04-07T09:46:53.696Z</time></trkpt><trkpt lat="46.1404626" lon="9.3800369"><ele>212.00000000000003</ele><time>2026-04-07T09:46:54.697Z</time></trkpt><trkpt lat="46.1404345" lon="9.3799347"><ele>212.0</ele><time>2026-04-07T09:46:55.698Z</time></trkpt><trkpt lat="46.140408" lon="9.3798346"><ele>212.0</ele><time>2026-04-07T09:46:56.697Z</time></trkpt><trkpt lat="46.1403799" lon="9.3797373"><ele>212.0</ele><time>2026-04-07T09:46:57.696Z</time></trkpt><trkpt lat="46.1403538" lon="9.3796266"><ele>212.0</ele><time>2026-04-07T09:46:58.697Z</time></trkpt><trkpt lat="46.1403345" lon="9.3795316"><ele>212.0</ele><time>2026-04-07T09:46:59.698Z</time></trkpt><trkpt lat="46.1403196" lon="9.3794314"><ele>212.0</ele><time>2026-04-07T09:47:00.697Z</time></trkpt><trkpt lat="46.1402996" lon="9.3793451"><ele>212.0</ele><time>2026-04-07T09:47:01.697Z</time></trkpt><trkpt lat="46.1402754" lon="9.379247"><ele>212.0</ele><time>2026-04-07T09:47:02.698Z</time></trkpt><trkpt lat="46.1402497" lon="9.379147"><ele>211.6</ele><time>2026-04-07T09:47:03.698Z</time></trkpt><trkpt lat="46.1402245" lon="9.3790511"><ele>211.2</ele><time>2026-04-07T09:47:04.697Z</time></trkpt><trkpt lat="46.1402032" lon="9.3789524"><ele>210.8</ele><time>2026-04-07T09:47:05.7Z</time></trkpt><trkpt lat="46.1401855" lon="9.378785"><ele>210.4</ele><time>2026-04-07T09:47:07.698Z</time></trkpt><trkpt lat="46.140122" lon="9.3786004"><ele>210.0</ele><time>2026-04-07T09:47:09.698Z</time></trkpt><trkpt lat="46.1400931" lon="9.3785185"><ele>210.0</ele><time>2026-04-07T09:47:10.696Z</time></trkpt><trkpt lat="46.1400592" lon="9.3784331"><ele>210.0</ele><time>2026-04-07T09:47:11.698Z</time></trkpt><trkpt lat="46.1399947" lon="9.3782849"><ele>210.0</ele><time>2026-04-07T09:47:13.696Z</time></trkpt><trkpt lat="46.1399575" lon="9.3782025"><ele>210.0</ele><time>2026-04-07T09:47:14.697Z</time></trkpt><trkpt lat="46.1399307" lon="9.3781171"><ele>210.0</ele><time>2026-04-07T09:47:15.696Z</time></trkpt><trkpt lat="46.1398819" lon="9.3780327"><ele>210.0</ele><time>2026-04-07T09:47:16.697Z</time></trkpt><trkpt lat="46.1398357" lon="9.3779606"><ele>209.85714285714286</ele><time>2026-04-07T09:47:17.697Z</time></trkpt><trkpt lat="46.1397989" lon="9.3778797"><ele>209.71428571428572</ele><time>2026-04-07T09:47:18.698Z</time></trkpt><trkpt lat="46.1397496" lon="9.3777947"><ele>209.57142857142856</ele><time>2026-04-07T09:47:19.697Z</time></trkpt><trkpt lat="46.1397038" lon="9.3777145"><ele>209.42857142857144</ele><time>2026-04-07T09:47:20.698Z</time></trkpt><trkpt lat="46.1396622" lon="9.3776343"><ele>209.28571428571428</ele><time>2026-04-07T09:47:21.698Z</time></trkpt><trkpt lat="46.139625" lon="9.3775551"><ele>209.14285714285714</ele><time>2026-04-07T09:47:22.698Z</time></trkpt><trkpt lat="46.1395877" lon="9.3774734"><ele>209.0</ele><time>2026-04-07T09:47:23.697Z</time></trkpt><trkpt lat="46.139551" lon="9.3773953"><ele>209.0</ele><time>2026-04-07T09:47:24.696Z</time></trkpt><trkpt lat="46.1395184" lon="9.3773156"><ele>209.0</ele><time>2026-04-07T09:47:25.697Z</time></trkpt><trkpt lat="46.1394835" lon="9.3772291"><ele>209.0</ele><time>2026-04-07T09:47:26.698Z</time></trkpt><trkpt lat="46.1394539" lon="9.3771439"><ele>209.0</ele><time>2026-04-07T09:47:27.697Z</time></trkpt><trkpt lat="46.1394192" lon="9.3770648"><ele>209.0</ele><time>2026-04-07T09:47:28.698Z</time></trkpt><trkpt lat="46.1393886" lon="9.3769717"><ele>209.0</ele><time>2026-04-07T09:47:29.696Z</time></trkpt><trkpt lat="46.1393576" lon="9.3768796"><ele>209.0</ele><time>2026-04-07T09:47:30.698Z</time></trkpt><trkpt lat="46.1393279" lon="9.376782"><ele>208.85714285714286</ele><time>2026-04-07T09:47:31.698Z</time></trkpt><trkpt lat="46.1392975" lon="9.376688"><ele>208.71428571428572</ele><time>2026-04-07T09:47:32.698Z</time></trkpt><trkpt lat="46.1392676" lon="9.3765902"><ele>208.57142857142856</ele><time>2026-04-07T09:47:33.697Z</time></trkpt><trkpt lat="46.1392374" lon="9.3764989"><ele>208.42857142857144</ele><time>2026-04-07T09:47:34.696Z</time></trkpt><trkpt lat="46.1392097" lon="9.3764099"><ele>208.2857142857143</ele><time>2026-04-07T09:47:35.697Z</time></trkpt><trkpt lat="46.1391809" lon="9.3763223"><ele>208.14285714285714</ele><time>2026-04-07T09:47:36.698Z</time></trkpt><trkpt lat="46.1391563" lon="9.3762248"><ele>208.0</ele><time>2026-04-07T09:47:37.698Z</time></trkpt><trkpt lat="46.1391333" lon="9.3761396"><ele>208.16666666666666</ele><time>2026-04-07T09:47:38.697Z</time></trkpt><trkpt lat="46.1391044" lon="9.3760499"><ele>208.33333333333331</ele><time>2026-04-07T09:47:39.696Z</time></trkpt><trkpt lat="46.1390563" lon="9.3758666"><ele>208.5</ele><time>2026-04-07T09:47:41.699Z</time></trkpt><trkpt lat="46.1390275" lon="9.3757662"><ele>208.66666666666669</ele><time>2026-04-07T09:47:42.698Z</time></trkpt><trkpt lat="46.1389915" lon="9.3756743"><ele>208.83333333333334</ele><time>2026-04-07T09:47:43.697Z</time></trkpt><trkpt lat="46.1389555" lon="9.3755748"><ele>209.0</ele><time>2026-04-07T09:47:44.698Z</time></trkpt><trkpt lat="46.1389172" lon="9.3754783"><ele>208.71428571428572</ele><time>2026-04-07T09:47:45.698Z</time></trkpt><trkpt lat="46.1388757" lon="9.3753976"><ele>208.42857142857142</ele><time>2026-04-07T09:47:46.697Z</time></trkpt><trkpt lat="46.1388348" lon="9.3753072"><ele>208.14285714285717</ele><time>2026-04-07T09:47:47.698Z</time></trkpt><trkpt lat="46.138797" lon="9.3752327"><ele>207.85714285714286</ele><time>2026-04-07T09:47:48.698Z</time></trkpt><trkpt lat="46.1387557" lon="9.3751464"><ele>207.57142857142858</ele><time>2026-04-07T09:47:49.699Z</time></trkpt><trkpt lat="46.138724" lon="9.375055"><ele>207.2857142857143</ele><time>2026-04-07T09:47:50.697Z</time></trkpt><trkpt lat="46.1387022" lon="9.3749655"><ele>207.0</ele><time>2026-04-07T09:47:51.698Z</time></trkpt><trkpt lat="46.1386786" lon="9.3748613"><ele>207.00000000000003</ele><time>2026-04-07T09:47:52.698Z</time></trkpt><trkpt lat="46.1386611" lon="9.3747657"><ele>207.0</ele><time>2026-04-07T09:47:53.696Z</time></trkpt><trkpt lat="46.1386498" lon="9.3746606"><ele>207.0</ele><time>2026-04-07T09:47:54.698Z</time></trkpt><trkpt lat="46.1386437" lon="9.3745629"><ele>207.0</ele><time>2026-04-07T09:47:55.697Z</time></trkpt><trkpt lat="46.1386307" lon="9.3744738"><ele>207.0</ele><time>2026-04-07T09:47:56.697Z</time></trkpt><trkpt lat="46.1386187" lon="9.3743669"><ele>207.00000000000003</ele><time>2026-04-07T09:47:57.698Z</time></trkpt><trkpt lat="46.1386065" lon="9.3742637"><ele>207.0</ele><time>2026-04-07T09:47:58.697Z</time></trkpt><trkpt lat="46.1386007" lon="9.3741549"><ele>206.57142857142858</ele><time>2026-04-07T09:47:59.697Z</time></trkpt><trkpt lat="46.1385862" lon="9.3740535"><ele>206.14285714285714</ele><time>2026-04-07T09:48:00.698Z</time></trkpt><trkpt lat="46.1385828" lon="9.3739624"><ele>205.71428571428572</ele><time>2026-04-07T09:48:01.699Z</time></trkpt><trkpt lat="46.1385753" lon="9.3738575"><ele>205.28571428571428</ele><time>2026-04-07T09:48:02.698Z</time></trkpt><trkpt lat="46.1385475" lon="9.373761"><ele>204.85714285714286</ele><time>2026-04-07T09:48:03.697Z</time></trkpt><trkpt lat="46.1385317" lon="9.37366"><ele>204.42857142857144</ele><time>2026-04-07T09:48:04.697Z</time></trkpt><trkpt lat="46.1385275" lon="9.3735511"><ele>204.0</ele><time>2026-04-07T09:48:05.697Z</time></trkpt><trkpt lat="46.1385228" lon="9.3734467"><ele>203.5</ele><time>2026-04-07T09:48:06.697Z</time></trkpt><trkpt lat="46.1385147" lon="9.3733407"><ele>203.0</ele><time>2026-04-07T09:48:07.697Z</time></trkpt><trkpt lat="46.1385056" lon="9.3732381"><ele>202.5</ele><time>2026-04-07T09:48:08.696Z</time></trkpt><trkpt lat="46.1384887" lon="9.3731226"><ele>202.0</ele><time>2026-04-07T09:48:09.697Z</time></trkpt><trkpt lat="46.1384809" lon="9.3729656"><ele>201.5</ele><time>2026-04-07T09:48:11.698Z</time></trkpt><trkpt lat="46.138478" lon="9.3728578"><ele>201.0</ele><time>2026-04-07T09:48:14.698Z</time></trkpt><trkpt lat="46.1384677" lon="9.3727055"><ele>200.66666666666666</ele><time>2026-04-07T09:48:17.697Z</time></trkpt><trkpt lat="46.1384359" lon="9.3726146"><ele>200.33333333333331</ele><time>2026-04-07T09:48:19.698Z</time></trkpt><trkpt lat="46.138373" lon="9.372546"><ele>200.0</ele><time>2026-04-07T09:48:21.696Z</time></trkpt><trkpt lat="46.138298" lon="9.3724902"><ele>199.66666666666666</ele><time>2026-04-07T09:48:23.699Z</time></trkpt><trkpt lat="46.1382275" lon="9.3724444"><ele>199.33333333333331</ele><time>2026-04-07T09:48:25.698Z</time></trkpt><trkpt lat="46.138162" lon="9.3723955"><ele>199.0</ele><time>2026-04-07T09:48:27.697Z</time></trkpt><trkpt lat="46.1380969" lon="9.3723449"><ele>199.42857142857142</ele><time>2026-04-07T09:48:29.699Z</time></trkpt><trkpt lat="46.138033" lon="9.372275"><ele>199.85714285714286</ele><time>2026-04-07T09:48:31.698Z</time></trkpt><trkpt lat="46.1379709" lon="9.3722378"><ele>200.28571428571428</ele><time>2026-04-07T09:48:33.697Z</time></trkpt><trkpt lat="46.137908" lon="9.3721997"><ele>200.71428571428572</ele><time>2026-04-07T09:48:35.697Z</time></trkpt><trkpt lat="46.1378458" lon="9.3721652"><ele>201.14285714285714</ele><time>2026-04-07T09:48:37.698Z</time></trkpt><trkpt lat="46.1377792" lon="9.3721146"><ele>201.57142857142856</ele><time>2026-04-07T09:48:39.696Z</time></trkpt><trkpt lat="46.137716" lon="9.372062"><ele>202.0</ele><time>2026-04-07T09:48:41.697Z</time></trkpt><trkpt lat="46.1376446" lon="9.3719768"><ele>201.99999999999997</ele><time>2026-04-07T09:48:44.698Z</time></trkpt><trkpt lat="46.1375951" lon="9.3719042"><ele>202.0</ele><time>2026-04-07T09:48:46.697Z</time></trkpt><trkpt lat="46.1375535" lon="9.3718163"><ele>202.0</ele><time>2026-04-07T09:48:48.699Z</time></trkpt><trkpt lat="46.1375183" lon="9.371738"><ele>202.0</ele><time>2026-04-07T09:48:50.697Z</time></trkpt><trkpt lat="46.1374809" lon="9.3716407"><ele>201.99999999999997</ele><time>2026-04-07T09:48:53.697Z</time></trkpt><trkpt lat="46.1374316" lon="9.3715814"><ele>202.0</ele><time>2026-04-07T09:48:55.698Z</time></trkpt><trkpt lat="46.1373379" lon="9.3715184"><ele>202.66666666666666</ele><time>2026-04-07T09:48:58.699Z</time></trkpt><trkpt lat="46.1372986" lon="9.3714216"><ele>203.33333333333331</ele><time>2026-04-07T09:49:02.698Z</time></trkpt><trkpt lat="46.1372519" lon="9.3713204"><ele>204.0</ele><time>2026-04-07T09:49:05.697Z</time></trkpt><trkpt lat="46.1372062" lon="9.3712067"><ele>204.66666666666669</ele><time>2026-04-07T09:49:08.697Z</time></trkpt><trkpt lat="46.1371852" lon="9.3711147"><ele>205.33333333333334</ele><time>2026-04-07T09:49:10.699Z</time></trkpt><trkpt lat="46.1371893" lon="9.3709902"><ele>206.0</ele><time>2026-04-07T09:49:12.698Z</time></trkpt><trkpt lat="46.1371968" lon="9.3708661"><ele>205.99999999999997</ele><time>2026-04-07T09:49:14.698Z</time></trkpt><trkpt lat="46.1371812" lon="9.3707669"><ele>206.0</ele><time>2026-04-07T09:49:16.698Z</time></trkpt><trkpt lat="46.1371552" lon="9.3706811"><ele>206.0</ele><time>2026-04-07T09:49:18.698Z</time></trkpt><trkpt lat="46.1371327" lon="9.3705829"><ele>206.0</ele><time>2026-04-07T09:49:20.698Z</time></trkpt><trkpt lat="46.1371105" lon="9.3704732"><ele>206.0</ele><time>2026-04-07T09:49:22.697Z</time></trkpt><trkpt lat="46.1370823" lon="9.3703744"><ele>205.99999999999997</ele><time>2026-04-07T09:49:24.697Z</time></trkpt><trkpt lat="46.137072" lon="9.3702799"><ele>206.0</ele><time>2026-04-07T09:49:26.698Z</time></trkpt><trkpt lat="46.1370905" lon="9.3701768"><ele>205.8</ele><time>2026-04-07T09:49:28.698Z</time></trkpt><trkpt lat="46.1371138" lon="9.3700638"><ele>205.60000000000002</ele><time>2026-04-07T09:49:30.698Z</time></trkpt><trkpt lat="46.1371333" lon="9.3699498"><ele>205.4</ele><time>2026-04-07T09:49:32.698Z</time></trkpt><trkpt lat="46.1371549" lon="9.3698296"><ele>205.2</ele><time>2026-04-07T09:49:34.697Z</time></trkpt><trkpt lat="46.1371833" lon="9.3696953"><ele>205.0</ele><time>2026-04-07T09:49:36.697Z</time></trkpt><trkpt lat="46.1372157" lon="9.369505"><ele>204.99999999999997</ele><time>2026-04-07T09:49:39.697Z</time></trkpt><trkpt lat="46.1372381" lon="9.369382"><ele>205.0</ele><time>2026-04-07T09:49:41.698Z</time></trkpt><trkpt lat="46.1372585" lon="9.3692619"><ele>205.0</ele><time>2026-04-07T09:49:43.698Z</time></trkpt><trkpt lat="46.13727" lon="9.3691454"><ele>205.0</ele><time>2026-04-07T09:49:45.698Z</time></trkpt><trkpt lat="46.1372618" lon="9.3690227"><ele>204.99999999999997</ele><time>2026-04-07T09:49:47.696Z</time></trkpt><trkpt lat="46.137263" lon="9.3688943"><ele>205.0</ele><time>2026-04-07T09:49:49.699Z</time></trkpt><trkpt lat="46.1372525" lon="9.3687832"><ele>204.99999999999997</ele><time>2026-04-07T09:49:51.698Z</time></trkpt><trkpt lat="46.1372641" lon="9.3686569"><ele>205.0</ele><time>2026-04-07T09:49:53.697Z</time></trkpt><trkpt lat="46.1372729" lon="9.3685358"><ele>205.0</ele><time>2026-04-07T09:49:55.697Z</time></trkpt><trkpt lat="46.1372658" lon="9.3684152"><ele>205.0</ele><time>2026-04-07T09:49:57.698Z</time></trkpt><trkpt lat="46.1372451" lon="9.3682935"><ele>204.99999999999997</ele><time>2026-04-07T09:49:59.699Z</time></trkpt><trkpt lat="46.137208" lon="9.3681714"><ele>205.0</ele><time>2026-04-07T09:50:01.698Z</time></trkpt><trkpt lat="46.1371581" lon="9.3680466"><ele>204.4</ele><time>2026-04-07T09:50:03.697Z</time></trkpt><trkpt lat="46.1371163" lon="9.3679167"><ele>203.8</ele><time>2026-04-07T09:50:05.699Z</time></trkpt><trkpt lat="46.1370583" lon="9.3677974"><ele>203.2</ele><time>2026-04-07T09:50:07.698Z</time></trkpt><trkpt lat="46.1369935" lon="9.3676868"><ele>202.6</ele><time>2026-04-07T09:50:09.698Z</time></trkpt><trkpt lat="46.1369359" lon="9.3675402"><ele>202.0</ele><time>2026-04-07T09:50:11.697Z</time></trkpt><trkpt lat="46.1368734" lon="9.3674061"><ele>202.0</ele><time>2026-04-07T09:50:13.698Z</time></trkpt><trkpt lat="46.1368323" lon="9.3673108"><ele>202.0</ele><time>2026-04-07T09:50:15.699Z</time></trkpt><trkpt lat="46.1367851" lon="9.3671705"><ele>202.0</ele><time>2026-04-07T09:50:17.698Z</time></trkpt><trkpt lat="46.1367468" lon="9.3670332"><ele>202.0</ele><time>2026-04-07T09:50:19.697Z</time></trkpt><trkpt lat="46.1367281" lon="9.3668722"><ele>202.0</ele><time>2026-04-07T09:50:21.699Z</time></trkpt><trkpt lat="46.1367062" lon="9.3667358"><ele>201.6</ele><time>2026-04-07T09:50:23.698Z</time></trkpt><trkpt lat="46.1366852" lon="9.3665762"><ele>201.2</ele><time>2026-04-07T09:50:25.696Z</time></trkpt><trkpt lat="46.1366669" lon="9.3664342"><ele>200.8</ele><time>2026-04-07T09:50:27.699Z</time></trkpt><trkpt lat="46.1366427" lon="9.3662798"><ele>200.4</ele><time>2026-04-07T09:50:29.698Z</time></trkpt><trkpt lat="46.1366171" lon="9.3661275"><ele>200.0</ele><time>2026-04-07T09:50:31.697Z</time></trkpt><trkpt lat="46.1365698" lon="9.366016"><ele>200.2</ele><time>2026-04-07T09:50:33.699Z</time></trkpt><trkpt lat="46.1365292" lon="9.3659047"><ele>200.4</ele><time>2026-04-07T09:50:35.699Z</time></trkpt><trkpt lat="46.1364741" lon="9.3657868"><ele>200.60000000000002</ele><time>2026-04-07T09:50:37.698Z</time></trkpt><trkpt lat="46.1364003" lon="9.3656777"><ele>200.8</ele><time>2026-04-07T09:50:39.698Z</time></trkpt><trkpt lat="46.1363504" lon="9.3656098"><ele>201.0</ele><time>2026-04-07T09:50:40.698Z</time></trkpt><trkpt lat="46.136273" lon="9.365481"><ele>201.0</ele><time>2026-04-07T09:50:42.697Z</time></trkpt><trkpt lat="46.1361943" lon="9.3653626"><ele>201.0</ele><time>2026-04-07T09:50:44.697Z</time></trkpt><trkpt lat="46.1361271" lon="9.3652171"><ele>201.0</ele><time>2026-04-07T09:50:46.699Z</time></trkpt><trkpt lat="46.1360754" lon="9.3650569"><ele>201.0</ele><time>2026-04-07T09:50:48.697Z</time></trkpt><trkpt lat="46.1360454" lon="9.3649661"><ele>201.0</ele><time>2026-04-07T09:50:49.698Z</time></trkpt><trkpt lat="46.1360197" lon="9.3648738"><ele>201.0</ele><time>2026-04-07T09:50:50.697Z</time></trkpt><trkpt lat="46.1359667" lon="9.3647108"><ele>201.0</ele><time>2026-04-07T09:50:52.697Z</time></trkpt><trkpt lat="46.1359413" lon="9.3646256"><ele>201.0</ele><time>2026-04-07T09:50:53.698Z</time></trkpt><trkpt lat="46.1358922" lon="9.3644764"><ele>201.0</ele><time>2026-04-07T09:50:55.698Z</time></trkpt><trkpt lat="46.135848" lon="9.3643223"><ele>201.0</ele><time>2026-04-07T09:50:57.697Z</time></trkpt><trkpt lat="46.1358059" lon="9.3641703"><ele>200.8</ele><time>2026-04-07T09:50:59.698Z</time></trkpt><trkpt lat="46.1357796" lon="9.3640871"><ele>200.60000000000002</ele><time>2026-04-07T09:51:00.697Z</time></trkpt><trkpt lat="46.1357456" lon="9.363942"><ele>200.4</ele><time>2026-04-07T09:51:02.698Z</time></trkpt><trkpt lat="46.1357239" lon="9.3637712"><ele>200.2</ele><time>2026-04-07T09:51:04.699Z</time></trkpt><trkpt lat="46.1357162" lon="9.363627"><ele>200.0</ele><time>2026-04-07T09:51:06.698Z</time></trkpt><trkpt lat="46.135717" lon="9.3634694"><ele>200.2</ele><time>2026-04-07T09:51:08.699Z</time></trkpt><trkpt lat="46.1357062" lon="9.3633292"><ele>200.4</ele><time>2026-04-07T09:51:10.697Z</time></trkpt><trkpt lat="46.1356882" lon="9.3631659"><ele>200.60000000000002</ele><time>2026-04-07T09:51:12.697Z</time></trkpt><trkpt lat="46.1356811" lon="9.3630168"><ele>200.8</ele><time>2026-04-07T09:51:14.699Z</time></trkpt><trkpt lat="46.1356708" lon="9.3628686"><ele>201.0</ele><time>2026-04-07T09:51:16.697Z</time></trkpt><trkpt lat="46.1356361" lon="9.3627336"><ele>201.0</ele><time>2026-04-07T09:51:18.698Z</time></trkpt><trkpt lat="46.1355185" lon="9.3627224"><ele>201.0</ele><time>2026-04-07T09:51:21.698Z</time></trkpt><trkpt lat="46.1354381" lon="9.3627766"><ele>201.0</ele><time>2026-04-07T09:51:23.698Z</time></trkpt><trkpt lat="46.1353594" lon="9.3628513"><ele>201.0</ele><time>2026-04-07T09:51:25.696Z</time></trkpt><trkpt lat="46.135279" lon="9.3629058"><ele>201.0</ele><time>2026-04-07T09:51:27.698Z</time></trkpt><trkpt lat="46.1352153" lon="9.3629387"><ele>201.0</ele><time>2026-04-07T09:51:29.697Z</time></trkpt><trkpt lat="46.1351428" lon="9.362985"><ele>201.0</ele><time>2026-04-07T09:51:31.698Z</time></trkpt><trkpt lat="46.1350715" lon="9.3630173"><ele>201.0</ele><time>2026-04-07T09:51:33.698Z</time></trkpt><trkpt lat="46.1350022" lon="9.3630508"><ele>201.0</ele><time>2026-04-07T09:51:35.697Z</time></trkpt><trkpt lat="46.1349413" lon="9.3631089"><ele>201.0</ele><time>2026-04-07T09:51:37.698Z</time></trkpt><trkpt lat="46.1348674" lon="9.3631594"><ele>201.0</ele><time>2026-04-07T09:51:39.698Z</time></trkpt><trkpt lat="46.1347907" lon="9.3632045"><ele>201.5</ele><time>2026-04-07T09:51:41.697Z</time></trkpt><trkpt lat="46.1347177" lon="9.3632576"><ele>202.0</ele><time>2026-04-07T09:51:43.697Z</time></trkpt><trkpt lat="46.1346401" lon="9.3632985"><ele>202.5</ele><time>2026-04-07T09:51:45.698Z</time></trkpt><trkpt lat="46.1345704" lon="9.3633614"><ele>203.0</ele><time>2026-04-07T09:51:47.699Z</time></trkpt><trkpt lat="46.1345" lon="9.3634233"><ele>203.5</ele><time>2026-04-07T09:51:49.697Z</time></trkpt><trkpt lat="46.1344277" lon="9.3634646"><ele>204.0</ele><time>2026-04-07T09:51:51.698Z</time></trkpt><trkpt lat="46.1343551" lon="9.3635121"><ele>204.0</ele><time>2026-04-07T09:51:53.698Z</time></trkpt><trkpt lat="46.134289" lon="9.3635696"><ele>204.0</ele><time>2026-04-07T09:51:55.698Z</time></trkpt><trkpt lat="46.1342144" lon="9.3636167"><ele>204.0</ele><time>2026-04-07T09:51:57.698Z</time></trkpt><trkpt lat="46.1341428" lon="9.3636468"><ele>204.0</ele><time>2026-04-07T09:51:59.698Z</time></trkpt><trkpt lat="46.1340722" lon="9.3636877"><ele>204.0</ele><time>2026-04-07T09:52:01.698Z</time></trkpt><trkpt lat="46.1340001" lon="9.3637304"><ele>204.0</ele><time>2026-04-07T09:52:03.698Z</time></trkpt><trkpt lat="46.1339297" lon="9.3637702"><ele>204.5</ele><time>2026-04-07T09:52:05.697Z</time></trkpt><trkpt lat="46.1338578" lon="9.3638094"><ele>205.0</ele><time>2026-04-07T09:52:07.697Z</time></trkpt><trkpt lat="46.1337814" lon="9.3638518"><ele>205.5</ele><time>2026-04-07T09:52:09.698Z</time></trkpt><trkpt lat="46.1337082" lon="9.3638915"><ele>206.0</ele><time>2026-04-07T09:52:11.698Z</time></trkpt><trkpt lat="46.1336333" lon="9.3639276"><ele>206.5</ele><time>2026-04-07T09:52:13.699Z</time></trkpt><trkpt lat="46.1335538" lon="9.3639471"><ele>207.0</ele><time>2026-04-07T09:52:15.698Z</time></trkpt><trkpt lat="46.1334772" lon="9.3639184"><ele>207.00000000000003</ele><time>2026-04-07T09:52:17.698Z</time></trkpt><trkpt lat="46.1334137" lon="9.3638671"><ele>207.0</ele><time>2026-04-07T09:52:19.697Z</time></trkpt><trkpt lat="46.1333604" lon="9.3637999"><ele>207.0</ele><time>2026-04-07T09:52:21.698Z</time></trkpt><trkpt lat="46.1332999" lon="9.3637"><ele>207.0</ele><time>2026-04-07T09:52:24.699Z</time></trkpt><trkpt lat="46.1332579" lon="9.3636272"><ele>207.0</ele><time>2026-04-07T09:52:26.699Z</time></trkpt><trkpt lat="46.1332216" lon="9.3635436"><ele>207.00000000000003</ele><time>2026-04-07T09:52:28.697Z</time></trkpt><trkpt lat="46.1331825" lon="9.3634545"><ele>207.0</ele><time>2026-04-07T09:52:30.698Z</time></trkpt><trkpt lat="46.1331473" lon="9.3633631"><ele>207.5</ele><time>2026-04-07T09:52:32.698Z</time></trkpt><trkpt lat="46.1330998" lon="9.3632615"><ele>208.0</ele><time>2026-04-07T09:52:34.697Z</time></trkpt><trkpt lat="46.1330468" lon="9.3631586"><ele>208.5</ele><time>2026-04-07T09:52:36.698Z</time></trkpt><trkpt lat="46.1330008" lon="9.3630455"><ele>209.0</ele><time>2026-04-07T09:52:38.698Z</time></trkpt><trkpt lat="46.1329512" lon="9.3629417"><ele>209.5</ele><time>2026-04-07T09:52:40.697Z</time></trkpt><trkpt lat="46.1329031" lon="9.3628246"><ele>210.0</ele><time>2026-04-07T09:52:42.698Z</time></trkpt><trkpt lat="46.1328431" lon="9.362717"><ele>210.0</ele><time>2026-04-07T09:52:44.698Z</time></trkpt><trkpt lat="46.1327953" lon="9.3626055"><ele>210.0</ele><time>2026-04-07T09:52:46.698Z</time></trkpt><trkpt lat="46.1327367" lon="9.3624773"><ele>210.0</ele><time>2026-04-07T09:52:48.698Z</time></trkpt><trkpt lat="46.1326747" lon="9.3623605"><ele>210.0</ele><time>2026-04-07T09:52:50.698Z</time></trkpt><trkpt lat="46.1326148" lon="9.3622482"><ele>210.0</ele><time>2026-04-07T09:52:52.697Z</time></trkpt><trkpt lat="46.132557" lon="9.3621215"><ele>209.75</ele><time>2026-04-07T09:52:54.698Z</time></trkpt><trkpt lat="46.1325028" lon="9.3620158"><ele>209.5</ele><time>2026-04-07T09:52:56.8Z</time></trkpt><trkpt lat="46.1324232" lon="9.3618259"><ele>209.25</ele><time>2026-04-07T09:52:59.699Z</time></trkpt><trkpt lat="46.1323599" lon="9.3617077"><ele>209.0</ele><time>2026-04-07T09:53:01.698Z</time></trkpt><trkpt lat="46.1322947" lon="9.3615943"><ele>210.0</ele><time>2026-04-07T09:53:03.697Z</time></trkpt><trkpt lat="46.1322297" lon="9.3614829"><ele>211.0</ele><time>2026-04-07T09:53:05.698Z</time></trkpt><trkpt lat="46.1321628" lon="9.3613771"><ele>211.99999999999997</ele><time>2026-04-07T09:53:07.697Z</time></trkpt><trkpt lat="46.1321039" lon="9.3612679"><ele>213.0</ele><time>2026-04-07T09:53:09.698Z</time></trkpt><trkpt lat="46.1320432" lon="9.3611615"><ele>214.0</ele><time>2026-04-07T09:53:11.697Z</time></trkpt><trkpt lat="46.1319993" lon="9.3610364"><ele>214.0</ele><time>2026-04-07T09:53:13.698Z</time></trkpt><trkpt lat="46.1319401" lon="9.3609336"><ele>213.99999999999997</ele><time>2026-04-07T09:53:15.698Z</time></trkpt><trkpt lat="46.1318856" lon="9.3608327"><ele>213.99999999999997</ele><time>2026-04-07T09:53:17.699Z</time></trkpt><trkpt lat="46.1318306" lon="9.3607208"><ele>214.0</ele><time>2026-04-07T09:53:19.698Z</time></trkpt><trkpt lat="46.1317786" lon="9.3606046"><ele>214.0</ele><time>2026-04-07T09:53:21.698Z</time></trkpt><trkpt lat="46.1317222" lon="9.3604993"><ele>214.39999999999998</ele><time>2026-04-07T09:53:23.697Z</time></trkpt><trkpt lat="46.1316677" lon="9.3603808"><ele>214.79999999999998</ele><time>2026-04-07T09:53:25.698Z</time></trkpt><trkpt lat="46.1316216" lon="9.3602825"><ele>215.20000000000002</ele><time>2026-04-07T09:53:27.698Z</time></trkpt><trkpt lat="46.1315603" lon="9.3601738"><ele>215.60000000000002</ele><time>2026-04-07T09:53:29.698Z</time></trkpt><trkpt lat="46.1315105" lon="9.3600578"><ele>216.0</ele><time>2026-04-07T09:53:31.698Z</time></trkpt><trkpt lat="46.1314468" lon="9.3599451"><ele>216.0</ele><time>2026-04-07T09:53:33.698Z</time></trkpt><trkpt lat="46.131417" lon="9.3598568"><ele>216.00000000000003</ele><time>2026-04-07T09:53:35.698Z</time></trkpt><trkpt lat="46.1313631" lon="9.3597145"><ele>216.00000000000003</ele><time>2026-04-07T09:53:37.699Z</time></trkpt><trkpt lat="46.1313212" lon="9.3595662"><ele>216.0</ele><time>2026-04-07T09:53:39.698Z</time></trkpt><trkpt lat="46.1312885" lon="9.3594234"><ele>216.0</ele><time>2026-04-07T09:53:41.699Z</time></trkpt><trkpt lat="46.1312502" lon="9.3592657"><ele>215.20000000000002</ele><time>2026-04-07T09:53:43.698Z</time></trkpt><trkpt lat="46.1312027" lon="9.3591346"><ele>214.40000000000003</ele><time>2026-04-07T09:53:45.698Z</time></trkpt><trkpt lat="46.1311507" lon="9.3589855"><ele>213.6</ele><time>2026-04-07T09:53:47.698Z</time></trkpt><trkpt lat="46.1311201" lon="9.3588454"><ele>212.8</ele><time>2026-04-07T09:53:49.698Z</time></trkpt><trkpt lat="46.1310974" lon="9.3586844"><ele>212.0</ele><time>2026-04-07T09:53:51.697Z</time></trkpt><trkpt lat="46.1310618" lon="9.3585376"><ele>211.75</ele><time>2026-04-07T09:53:53.698Z</time></trkpt><trkpt lat="46.1310108" lon="9.3583839"><ele>211.5</ele><time>2026-04-07T09:53:55.698Z</time></trkpt><trkpt lat="46.1309511" lon="9.3582464"><ele>211.25</ele><time>2026-04-07T09:53:57.699Z</time></trkpt><trkpt lat="46.130889" lon="9.3580973"><ele>211.0</ele><time>2026-04-07T09:53:59.699Z</time></trkpt><trkpt lat="46.1308221" lon="9.3579781"><ele>211.0</ele><time>2026-04-07T09:54:01.697Z</time></trkpt><trkpt lat="46.1307614" lon="9.3578653"><ele>211.0</ele><time>2026-04-07T09:54:03.697Z</time></trkpt><trkpt lat="46.1307205" lon="9.3577486"><ele>211.0</ele><time>2026-04-07T09:54:05.698Z</time></trkpt><trkpt lat="46.1306899" lon="9.3576161"><ele>211.0</ele><time>2026-04-07T09:54:07.697Z</time></trkpt><trkpt lat="46.1306496" lon="9.3575003"><ele>211.0</ele><time>2026-04-07T09:54:09.699Z</time></trkpt><trkpt lat="46.1306065" lon="9.3573745"><ele>211.4</ele><time>2026-04-07T09:54:11.699Z</time></trkpt><trkpt lat="46.1305708" lon="9.3572477"><ele>211.8</ele><time>2026-04-07T09:54:13.699Z</time></trkpt><trkpt lat="46.1305158" lon="9.3570942"><ele>212.20000000000002</ele><time>2026-04-07T09:54:15.698Z</time></trkpt><trkpt lat="46.1304794" lon="9.3569754"><ele>212.60000000000002</ele><time>2026-04-07T09:54:17.697Z</time></trkpt><trkpt lat="46.1304387" lon="9.3568206"><ele>213.0</ele><time>2026-04-07T09:54:19.697Z</time></trkpt><trkpt lat="46.1303953" lon="9.3566607"><ele>213.0</ele><time>2026-04-07T09:54:21.698Z</time></trkpt><trkpt lat="46.130365" lon="9.3564879"><ele>213.0</ele><time>2026-04-07T09:54:23.697Z</time></trkpt><trkpt lat="46.1303441" lon="9.3563171"><ele>213.0</ele><time>2026-04-07T09:54:25.698Z</time></trkpt><trkpt lat="46.1303229" lon="9.3562294"><ele>213.0</ele><time>2026-04-07T09:54:26.698Z</time></trkpt><trkpt lat="46.1302985" lon="9.3561414"><ele>213.0</ele><time>2026-04-07T09:54:27.698Z</time></trkpt><trkpt lat="46.1302802" lon="9.3560531"><ele>213.0</ele><time>2026-04-07T09:54:28.697Z</time></trkpt><trkpt lat="46.1302573" lon="9.3559639"><ele>212.4</ele><time>2026-04-07T09:54:29.697Z</time></trkpt><trkpt lat="46.1302192" lon="9.355798"><ele>211.8</ele><time>2026-04-07T09:54:31.698Z</time></trkpt><trkpt lat="46.1301924" lon="9.3557126"><ele>211.2</ele><time>2026-04-07T09:54:32.699Z</time></trkpt><trkpt lat="46.1301487" lon="9.3555407"><ele>210.6</ele><time>2026-04-07T09:54:34.698Z</time></trkpt><trkpt lat="46.1301073" lon="9.3553829"><ele>210.0</ele><time>2026-04-07T09:54:36.698Z</time></trkpt><trkpt lat="46.1300544" lon="9.3552212"><ele>210.0</ele><time>2026-04-07T09:54:38.699Z</time></trkpt><trkpt lat="46.1299962" lon="9.3550727"><ele>210.0</ele><time>2026-04-07T09:54:40.698Z</time></trkpt><trkpt lat="46.1299654" lon="9.3549929"><ele>210.0</ele><time>2026-04-07T09:54:41.698Z</time></trkpt><trkpt lat="46.1299099" lon="9.3548497"><ele>210.0</ele><time>2026-04-07T09:54:43.699Z</time></trkpt><trkpt lat="46.1298824" lon="9.3547626"><ele>210.0</ele><time>2026-04-07T09:54:44.699Z</time></trkpt><trkpt lat="46.1298621" lon="9.3546733"><ele>210.0</ele><time>2026-04-07T09:54:45.698Z</time></trkpt><trkpt lat="46.1298244" lon="9.3545342"><ele>210.25</ele><time>2026-04-07T09:54:47.697Z</time></trkpt><trkpt lat="46.1297911" lon="9.3543764"><ele>210.5</ele><time>2026-04-07T09:54:49.698Z</time></trkpt><trkpt lat="46.1297347" lon="9.3542118"><ele>210.75</ele><time>2026-04-07T09:54:51.698Z</time></trkpt><trkpt lat="46.1296982" lon="9.3541283"><ele>211.0</ele><time>2026-04-07T09:54:52.698Z</time></trkpt><trkpt lat="46.1295752" lon="9.3539206"><ele>211.0</ele><time>2026-04-07T09:54:55.7Z</time></trkpt><trkpt lat="46.1295263" lon="9.3538509"><ele>211.0</ele><time>2026-04-07T09:54:56.698Z</time></trkpt><trkpt lat="46.1294416" lon="9.3537258"><ele>211.0</ele><time>2026-04-07T09:54:58.698Z</time></trkpt><trkpt lat="46.1293948" lon="9.3536416"><ele>211.0</ele><time>2026-04-07T09:54:59.698Z</time></trkpt><trkpt lat="46.1293091" lon="9.3535333"><ele>211.0</ele><time>2026-04-07T09:55:01.7Z</time></trkpt><trkpt lat="46.1292328" lon="9.3534105"><ele>211.0</ele><time>2026-04-07T09:55:03.698Z</time></trkpt><trkpt lat="46.1291524" lon="9.3532824"><ele>211.0</ele><time>2026-04-07T09:55:05.699Z</time></trkpt><trkpt lat="46.1290706" lon="9.3531635"><ele>211.0</ele><time>2026-04-07T09:55:07.7Z</time></trkpt><trkpt lat="46.1289817" lon="9.3530469"><ele>211.0</ele><time>2026-04-07T09:55:09.698Z</time></trkpt><trkpt lat="46.1289024" lon="9.3529292"><ele>210.60000000000002</ele><time>2026-04-07T09:55:11.698Z</time></trkpt><trkpt lat="46.1288271" lon="9.3528261"><ele>210.2</ele><time>2026-04-07T09:55:13.698Z</time></trkpt><trkpt lat="46.128761" lon="9.3527367"><ele>209.8</ele><time>2026-04-07T09:55:15.698Z</time></trkpt><trkpt lat="46.1286791" lon="9.352637"><ele>209.39999999999998</ele><time>2026-04-07T09:55:17.697Z</time></trkpt><trkpt lat="46.1285887" lon="9.3525448"><ele>209.0</ele><time>2026-04-07T09:55:19.698Z</time></trkpt><trkpt lat="46.1284924" lon="9.3524344"><ele>209.00000000000003</ele><time>2026-04-07T09:55:21.699Z</time></trkpt><trkpt lat="46.1284015" lon="9.3523348"><ele>209.0</ele><time>2026-04-07T09:55:23.698Z</time></trkpt><trkpt lat="46.1283082" lon="9.3522173"><ele>209.0</ele><time>2026-04-07T09:55:25.698Z</time></trkpt><trkpt lat="46.1282696" lon="9.3521357"><ele>209.0</ele><time>2026-04-07T09:55:26.698Z</time></trkpt><trkpt lat="46.1282205" lon="9.3520739"><ele>209.00000000000003</ele><time>2026-04-07T09:55:27.698Z</time></trkpt><trkpt lat="46.12817" lon="9.3520131"><ele>209.0</ele><time>2026-04-07T09:55:28.698Z</time></trkpt><trkpt lat="46.1281007" lon="9.3519755"><ele>209.00000000000003</ele><time>2026-04-07T09:55:29.698Z</time></trkpt><trkpt lat="46.1279779" lon="9.3519204"><ele>209.0</ele><time>2026-04-07T09:55:31.698Z</time></trkpt><trkpt lat="46.1279095" lon="9.3519146"><ele>209.0</ele><time>2026-04-07T09:55:32.698Z</time></trkpt><trkpt lat="46.1278423" lon="9.3519079"><ele>209.0</ele><time>2026-04-07T09:55:33.698Z</time></trkpt><trkpt lat="46.1277738" lon="9.3519034"><ele>209.00000000000003</ele><time>2026-04-07T09:55:34.698Z</time></trkpt><trkpt lat="46.127711" lon="9.3518829"><ele>209.0</ele><time>2026-04-07T09:55:35.697Z</time></trkpt><trkpt lat="46.1276433" lon="9.3518602"><ele>209.0</ele><time>2026-04-07T09:55:36.698Z</time></trkpt><trkpt lat="46.1275758" lon="9.3518325"><ele>209.0</ele><time>2026-04-07T09:55:37.699Z</time></trkpt><trkpt lat="46.1275105" lon="9.3518002"><ele>209.0</ele><time>2026-04-07T09:55:38.697Z</time></trkpt><trkpt lat="46.1274593" lon="9.3517418"><ele>209.0</ele><time>2026-04-07T09:55:39.699Z</time></trkpt><trkpt lat="46.1273996" lon="9.351699"><ele>209.0</ele><time>2026-04-07T09:55:40.699Z</time></trkpt><trkpt lat="46.1273332" lon="9.3516583"><ele>209.0</ele><time>2026-04-07T09:55:41.698Z</time></trkpt><trkpt lat="46.1272706" lon="9.3516324"><ele>209.0</ele><time>2026-04-07T09:55:42.697Z</time></trkpt><trkpt lat="46.1272027" lon="9.3516156"><ele>209.00000000000003</ele><time>2026-04-07T09:55:43.699Z</time></trkpt><trkpt lat="46.1270759" lon="9.3516141"><ele>209.0</ele><time>2026-04-07T09:55:45.698Z</time></trkpt><trkpt lat="46.1270103" lon="9.3516204"><ele>209.0</ele><time>2026-04-07T09:55:46.698Z</time></trkpt><trkpt lat="46.12689" lon="9.351625"><ele>209.0</ele><time>2026-04-07T09:55:48.698Z</time></trkpt><trkpt lat="46.1268253" lon="9.3516283"><ele>209.00000000000003</ele><time>2026-04-07T09:55:49.698Z</time></trkpt><trkpt lat="46.1267601" lon="9.3516339"><ele>209.0</ele><time>2026-04-07T09:55:50.699Z</time></trkpt><trkpt lat="46.1266964" lon="9.3516303"><ele>209.0</ele><time>2026-04-07T09:55:51.7Z</time></trkpt><trkpt lat="46.1265774" lon="9.3516265"><ele>209.0</ele><time>2026-04-07T09:55:53.698Z</time></trkpt><trkpt lat="46.1264757" lon="9.3515368"><ele>209.0</ele><time>2026-04-07T09:55:55.699Z</time></trkpt><trkpt lat="46.1263907" lon="9.3514263"><ele>209.0</ele><time>2026-04-07T09:55:57.698Z</time></trkpt><trkpt lat="46.1263094" lon="9.3513"><ele>209.0</ele><time>2026-04-07T09:55:59.698Z</time></trkpt><trkpt lat="46.1262642" lon="9.3512336"><ele>209.0</ele><time>2026-04-07T09:56:00.698Z</time></trkpt><trkpt lat="46.1262229" lon="9.3511564"><ele>209.0</ele><time>2026-04-07T09:56:01.698Z</time></trkpt><trkpt lat="46.1261776" lon="9.3510922"><ele>209.0</ele><time>2026-04-07T09:56:02.698Z</time></trkpt><trkpt lat="46.1261277" lon="9.3510359"><ele>209.0</ele><time>2026-04-07T09:56:03.699Z</time></trkpt><trkpt lat="46.1260735" lon="9.3509821"><ele>209.0</ele><time>2026-04-07T09:56:04.698Z</time></trkpt><trkpt lat="46.1260214" lon="9.3509282"><ele>209.0</ele><time>2026-04-07T09:56:05.699Z</time></trkpt><trkpt lat="46.1259745" lon="9.3508571"><ele>209.00000000000003</ele><time>2026-04-07T09:56:06.698Z</time></trkpt><trkpt lat="46.1258809" lon="9.3507321"><ele>209.0</ele><time>2026-04-07T09:56:08.697Z</time></trkpt><trkpt lat="46.1258273" lon="9.3506729"><ele>209.0</ele><time>2026-04-07T09:56:09.698Z</time></trkpt><trkpt lat="46.1257754" lon="9.3506135"><ele>209.0</ele><time>2026-04-07T09:56:10.699Z</time></trkpt><trkpt lat="46.1257281" lon="9.3505519"><ele>209.00000000000003</ele><time>2026-04-07T09:56:11.698Z</time></trkpt><trkpt lat="46.1256835" lon="9.350478"><ele>209.0</ele><time>2026-04-07T09:56:12.698Z</time></trkpt><trkpt lat="46.1255915" lon="9.3503626"><ele>208.66666666666669</ele><time>2026-04-07T09:56:14.698Z</time></trkpt><trkpt lat="46.1255438" lon="9.350303"><ele>208.33333333333334</ele><time>2026-04-07T09:56:15.698Z</time></trkpt><trkpt lat="46.1254581" lon="9.3501694"><ele>208.0</ele><time>2026-04-07T09:56:17.698Z</time></trkpt><trkpt lat="46.1254133" lon="9.3501033"><ele>207.66666666666669</ele><time>2026-04-07T09:56:18.699Z</time></trkpt><trkpt lat="46.1253349" lon="9.349961"><ele>207.33333333333334</ele><time>2026-04-07T09:56:20.697Z</time></trkpt><trkpt lat="46.125297" lon="9.3498802"><ele>207.0</ele><time>2026-04-07T09:56:21.697Z</time></trkpt><trkpt lat="46.1252607" lon="9.3498028"><ele>207.0</ele><time>2026-04-07T09:56:22.697Z</time></trkpt><trkpt lat="46.1252232" lon="9.3497102"><ele>207.0</ele><time>2026-04-07T09:56:23.699Z</time></trkpt><trkpt lat="46.1251525" lon="9.3495837"><ele>207.0</ele><time>2026-04-07T09:56:25.698Z</time></trkpt><trkpt lat="46.1251039" lon="9.3495155"><ele>207.0</ele><time>2026-04-07T09:56:26.7Z</time></trkpt><trkpt lat="46.1250547" lon="9.3494394"><ele>207.0</ele><time>2026-04-07T09:56:27.697Z</time></trkpt><trkpt lat="46.1249997" lon="9.3493911"><ele>207.0</ele><time>2026-04-07T09:56:28.697Z</time></trkpt><trkpt lat="46.1249478" lon="9.3493248"><ele>206.66666666666666</ele><time>2026-04-07T09:56:29.698Z</time></trkpt><trkpt lat="46.124863" lon="9.3492189"><ele>206.33333333333331</ele><time>2026-04-07T09:56:31.697Z</time></trkpt><trkpt lat="46.1247741" lon="9.3490935"><ele>206.0</ele><time>2026-04-07T09:56:33.699Z</time></trkpt><trkpt lat="46.1247357" lon="9.3490212"><ele>205.66666666666666</ele><time>2026-04-07T09:56:34.699Z</time></trkpt><trkpt lat="46.1246916" lon="9.3489414"><ele>205.33333333333331</ele><time>2026-04-07T09:56:35.699Z</time></trkpt><trkpt lat="46.1246395" lon="9.3488683"><ele>205.0</ele><time>2026-04-07T09:56:36.698Z</time></trkpt><trkpt lat="46.1245935" lon="9.3487892"><ele>204.83333333333331</ele><time>2026-04-07T09:56:37.699Z</time></trkpt><trkpt lat="46.124535" lon="9.348712"><ele>204.66666666666666</ele><time>2026-04-07T09:56:38.699Z</time></trkpt><trkpt lat="46.1244806" lon="9.3486381"><ele>204.5</ele><time>2026-04-07T09:56:39.698Z</time></trkpt><trkpt lat="46.124364" lon="9.348525"><ele>204.33333333333331</ele><time>2026-04-07T09:56:41.699Z</time></trkpt><trkpt lat="46.1243036" lon="9.3484572"><ele>204.16666666666666</ele><time>2026-04-07T09:56:42.698Z</time></trkpt><trkpt lat="46.1242421" lon="9.3484037"><ele>204.0</ele><time>2026-04-07T09:56:43.698Z</time></trkpt><trkpt lat="46.1241886" lon="9.3483505"><ele>204.0</ele><time>2026-04-07T09:56:44.698Z</time></trkpt><trkpt lat="46.124132" lon="9.3482942"><ele>204.0</ele><time>2026-04-07T09:56:45.698Z</time></trkpt><trkpt lat="46.1240803" lon="9.3482387"><ele>204.0</ele><time>2026-04-07T09:56:46.698Z</time></trkpt><trkpt lat="46.1239835" lon="9.3481298"><ele>204.0</ele><time>2026-04-07T09:56:48.698Z</time></trkpt><trkpt lat="46.1239063" lon="9.3480568"><ele>204.0</ele><time>2026-04-07T09:56:50.699Z</time></trkpt><trkpt lat="46.1238467" lon="9.3479882"><ele>204.0</ele><time>2026-04-07T09:56:52.698Z</time></trkpt><trkpt lat="46.1237753" lon="9.3479836"><ele>204.5</ele><time>2026-04-07T09:56:55.698Z</time></trkpt><trkpt lat="46.1237597" lon="9.3481028"><ele>205.0</ele><time>2026-04-07T09:56:58.698Z</time></trkpt><trkpt lat="46.123757" lon="9.3481947"><ele>205.5</ele><time>2026-04-07T09:57:00.698Z</time></trkpt><trkpt lat="46.1237419" lon="9.3483227"><ele>206.0</ele><time>2026-04-07T09:57:03.699Z</time></trkpt><trkpt lat="46.1237241" lon="9.3484432"><ele>206.5</ele><time>2026-04-07T09:57:06.699Z</time></trkpt><trkpt lat="46.1237121" lon="9.3485333"><ele>207.0</ele><time>2026-04-07T09:57:08.699Z</time></trkpt><trkpt lat="46.1236975" lon="9.3486345"><ele>207.00000000000003</ele><time>2026-04-07T09:57:10.699Z</time></trkpt><trkpt lat="46.123686" lon="9.3487352"><ele>207.0</ele><time>2026-04-07T09:57:12.698Z</time></trkpt><trkpt lat="46.1236693" lon="9.3488318"><ele>207.0</ele><time>2026-04-07T09:57:15.698Z</time></trkpt><trkpt lat="46.1236572" lon="9.3489499"><ele>207.0</ele><time>2026-04-07T09:57:18.699Z</time></trkpt><trkpt lat="46.1236416" lon="9.3490786"><ele>207.0</ele><time>2026-04-07T09:57:21.697Z</time></trkpt><trkpt lat="46.1236324" lon="9.3491711"><ele>207.00000000000003</ele><time>2026-04-07T09:57:23.7Z</time></trkpt><trkpt lat="46.1236127" lon="9.3492595"><ele>207.0</ele><time>2026-04-07T09:57:25.699Z</time></trkpt><trkpt lat="46.1235658" lon="9.3493607"><ele>207.0</ele><time>2026-04-07T09:57:28.698Z</time></trkpt><trkpt lat="46.1234808" lon="9.3493172"><ele>207.0</ele><time>2026-04-07T09:57:31.697Z</time></trkpt><trkpt lat="46.1234195" lon="9.3492785"><ele>207.0</ele><time>2026-04-07T09:57:33.7Z</time></trkpt><trkpt lat="46.1233582" lon="9.3492542"><ele>207.0</ele><time>2026-04-07T09:57:35.697Z</time></trkpt><trkpt lat="46.1232939" lon="9.3492179"><ele>207.0</ele><time>2026-04-07T09:57:37.699Z</time></trkpt><trkpt lat="46.1232144" lon="9.3491819"><ele>207.0</ele><time>2026-04-07T09:57:39.699Z</time></trkpt><trkpt lat="46.1231143" lon="9.3491376"><ele>207.0</ele><time>2026-04-07T09:57:41.698Z</time></trkpt><trkpt lat="46.1230056" lon="9.3490777"><ele>207.0</ele><time>2026-04-07T09:57:43.698Z</time></trkpt><trkpt lat="46.1229446" lon="9.3490448"><ele>207.0</ele><time>2026-04-07T09:57:44.699Z</time></trkpt><trkpt lat="46.1228184" lon="9.3489792"><ele>207.0</ele><time>2026-04-07T09:57:46.699Z</time></trkpt><trkpt lat="46.1227572" lon="9.3489559"><ele>207.0</ele><time>2026-04-07T09:57:47.697Z</time></trkpt><trkpt lat="46.1226894" lon="9.3489295"><ele>207.0</ele><time>2026-04-07T09:57:48.697Z</time></trkpt><trkpt lat="46.1226257" lon="9.3489009"><ele>207.00000000000003</ele><time>2026-04-07T09:57:49.698Z</time></trkpt><trkpt lat="46.1225582" lon="9.348864"><ele>207.0</ele><time>2026-04-07T09:57:50.698Z</time></trkpt><trkpt lat="46.122494" lon="9.348826"><ele>207.0</ele><time>2026-04-07T09:57:51.698Z</time></trkpt><trkpt lat="46.1224263" lon="9.3487915"><ele>207.0</ele><time>2026-04-07T09:57:52.7Z</time></trkpt><trkpt lat="46.1223578" lon="9.3487529"><ele>207.0</ele><time>2026-04-07T09:57:53.699Z</time></trkpt><trkpt lat="46.1222838" lon="9.348718"><ele>207.00000000000003</ele><time>2026-04-07T09:57:54.697Z</time></trkpt><trkpt lat="46.1222211" lon="9.3486882"><ele>207.0</ele><time>2026-04-07T09:57:55.698Z</time></trkpt><trkpt lat="46.1221607" lon="9.3486488"><ele>206.85714285714286</ele><time>2026-04-07T09:57:56.698Z</time></trkpt><trkpt lat="46.1220944" lon="9.3486095"><ele>206.71428571428572</ele><time>2026-04-07T09:57:57.699Z</time></trkpt><trkpt lat="46.122033" lon="9.3485711"><ele>206.57142857142856</ele><time>2026-04-07T09:57:58.698Z</time></trkpt><trkpt lat="46.1219713" lon="9.3485377"><ele>206.42857142857144</ele><time>2026-04-07T09:57:59.698Z</time></trkpt><trkpt lat="46.1219062" lon="9.3485054"><ele>206.28571428571428</ele><time>2026-04-07T09:58:00.699Z</time></trkpt><trkpt lat="46.121838" lon="9.3484707"><ele>206.14285714285714</ele><time>2026-04-07T09:58:01.698Z</time></trkpt><trkpt lat="46.1217774" lon="9.3484381"><ele>206.0</ele><time>2026-04-07T09:58:02.698Z</time></trkpt><trkpt lat="46.1216546" lon="9.3483844"><ele>206.00000000000003</ele><time>2026-04-07T09:58:04.697Z</time></trkpt><trkpt lat="46.1215886" lon="9.3483573"><ele>206.0</ele><time>2026-04-07T09:58:05.698Z</time></trkpt><trkpt lat="46.1215131" lon="9.3483126"><ele>206.0</ele><time>2026-04-07T09:58:06.699Z</time></trkpt><trkpt lat="46.121445" lon="9.3482738"><ele>206.0</ele><time>2026-04-07T09:58:07.7Z</time></trkpt><trkpt lat="46.1213846" lon="9.3482454"><ele>206.00000000000003</ele><time>2026-04-07T09:58:08.698Z</time></trkpt><trkpt lat="46.1212592" lon="9.3482036"><ele>206.0</ele><time>2026-04-07T09:58:10.699Z</time></trkpt><trkpt lat="46.1211395" lon="9.3481482"><ele>206.16666666666669</ele><time>2026-04-07T09:58:12.699Z</time></trkpt><trkpt lat="46.12103" lon="9.3480902"><ele>206.33333333333334</ele><time>2026-04-07T09:58:14.698Z</time></trkpt><trkpt lat="46.1209634" lon="9.348052"><ele>206.5</ele><time>2026-04-07T09:58:15.698Z</time></trkpt><trkpt lat="46.1209009" lon="9.3480217"><ele>206.66666666666669</ele><time>2026-04-07T09:58:16.699Z</time></trkpt><trkpt lat="46.1208391" lon="9.347994"><ele>206.83333333333334</ele><time>2026-04-07T09:58:17.698Z</time></trkpt><trkpt lat="46.1207733" lon="9.3479599"><ele>207.0</ele><time>2026-04-07T09:58:18.698Z</time></trkpt><trkpt lat="46.1206642" lon="9.3478847"><ele>206.6</ele><time>2026-04-07T09:58:20.7Z</time></trkpt><trkpt lat="46.1206059" lon="9.3478431"><ele>206.2</ele><time>2026-04-07T09:58:21.698Z</time></trkpt><trkpt lat="46.1205477" lon="9.347804"><ele>205.8</ele><time>2026-04-07T09:58:22.699Z</time></trkpt><trkpt lat="46.1204403" lon="9.3477619"><ele>205.4</ele><time>2026-04-07T09:58:24.697Z</time></trkpt><trkpt lat="46.1203266" lon="9.3477188"><ele>205.0</ele><time>2026-04-07T09:58:26.699Z</time></trkpt><trkpt lat="46.1202184" lon="9.3476559"><ele>205.0</ele><time>2026-04-07T09:58:28.699Z</time></trkpt><trkpt lat="46.1201103" lon="9.3476071"><ele>205.0</ele><time>2026-04-07T09:58:30.699Z</time></trkpt><trkpt lat="46.1199992" lon="9.347563"><ele>205.0</ele><time>2026-04-07T09:58:32.698Z</time></trkpt><trkpt lat="46.1198839" lon="9.347504"><ele>205.0</ele><time>2026-04-07T09:58:34.699Z</time></trkpt><trkpt lat="46.1197744" lon="9.34746"><ele>205.49999999999997</ele><time>2026-04-07T09:58:36.698Z</time></trkpt><trkpt lat="46.1197132" lon="9.3474311"><ele>206.0</ele><time>2026-04-07T09:58:37.698Z</time></trkpt><trkpt lat="46.1196035" lon="9.3473929"><ele>206.5</ele><time>2026-04-07T09:58:39.699Z</time></trkpt><trkpt lat="46.1195203" lon="9.3473578"><ele>207.0</ele><time>2026-04-07T09:58:41.699Z</time></trkpt><trkpt lat="46.1194287" lon="9.3473264"><ele>207.49999999999997</ele><time>2026-04-07T09:58:43.698Z</time></trkpt><trkpt lat="46.1193467" lon="9.3472817"><ele>208.0</ele><time>2026-04-07T09:58:45.699Z</time></trkpt><trkpt lat="46.1192379" lon="9.3472461"><ele>206.83333333333331</ele><time>2026-04-07T09:58:47.698Z</time></trkpt><trkpt lat="46.1191223" lon="9.3472091"><ele>205.66666666666666</ele><time>2026-04-07T09:58:49.699Z</time></trkpt><trkpt lat="46.1190595" lon="9.3471848"><ele>204.5</ele><time>2026-04-07T09:58:50.698Z</time></trkpt><trkpt lat="46.1189907" lon="9.3471559"><ele>203.33333333333331</ele><time>2026-04-07T09:58:51.699Z</time></trkpt><trkpt lat="46.1189259" lon="9.3471331"><ele>202.16666666666666</ele><time>2026-04-07T09:58:52.697Z</time></trkpt><trkpt lat="46.1188556" lon="9.3471122"><ele>201.0</ele><time>2026-04-07T09:58:53.699Z</time></trkpt><trkpt lat="46.1187908" lon="9.3470894"><ele>201.0</ele><time>2026-04-07T09:58:54.7Z</time></trkpt><trkpt lat="46.1187226" lon="9.347072"><ele>201.0</ele><time>2026-04-07T09:58:55.699Z</time></trkpt><trkpt lat="46.1186606" lon="9.3470485"><ele>201.0</ele><time>2026-04-07T09:58:56.698Z</time></trkpt><trkpt lat="46.1185373" lon="9.3470136"><ele>201.0</ele><time>2026-04-07T09:58:58.699Z</time></trkpt><trkpt lat="46.1184764" lon="9.3469815"><ele>201.0</ele><time>2026-04-07T09:58:59.699Z</time></trkpt><trkpt lat="46.1184143" lon="9.3469538"><ele>201.0</ele><time>2026-04-07T09:59:00.699Z</time></trkpt><trkpt lat="46.1182895" lon="9.3469122"><ele>201.4</ele><time>2026-04-07T09:59:02.698Z</time></trkpt><trkpt lat="46.1181656" lon="9.3468582"><ele>201.8</ele><time>2026-04-07T09:59:04.698Z</time></trkpt><trkpt lat="46.1180955" lon="9.3468391"><ele>202.20000000000002</ele><time>2026-04-07T09:59:05.699Z</time></trkpt><trkpt lat="46.1180316" lon="9.3468176"><ele>202.60000000000002</ele><time>2026-04-07T09:59:06.699Z</time></trkpt><trkpt lat="46.1179656" lon="9.3467919"><ele>203.0</ele><time>2026-04-07T09:59:07.699Z</time></trkpt><trkpt lat="46.1178378" lon="9.3467535"><ele>203.0</ele><time>2026-04-07T09:59:09.699Z</time></trkpt><trkpt lat="46.1177162" lon="9.3467218"><ele>203.0</ele><time>2026-04-07T09:59:11.698Z</time></trkpt><trkpt lat="46.1176542" lon="9.3467016"><ele>203.0</ele><time>2026-04-07T09:59:12.699Z</time></trkpt><trkpt lat="46.1174768" lon="9.3466445"><ele>203.0</ele><time>2026-04-07T09:59:15.698Z</time></trkpt><trkpt lat="46.1173595" lon="9.3466031"><ele>203.83333333333334</ele><time>2026-04-07T09:59:17.698Z</time></trkpt><trkpt lat="46.1172522" lon="9.3465637"><ele>204.66666666666669</ele><time>2026-04-07T09:59:19.699Z</time></trkpt><trkpt lat="46.1171753" lon="9.3465216"><ele>205.5</ele><time>2026-04-07T09:59:21.699Z</time></trkpt><trkpt lat="46.1171094" lon="9.3464728"><ele>206.33333333333331</ele><time>2026-04-07T09:59:24.698Z</time></trkpt><trkpt lat="46.1170394" lon="9.3464277"><ele>207.16666666666666</ele><time>2026-04-07T09:59:49.698Z</time></trkpt><trkpt lat="46.1169888" lon="9.3463394"><ele>208.0</ele><time>2026-04-07T09:59:52.701Z</time></trkpt><trkpt lat="46.1169389" lon="9.3462647"><ele>208.0</ele><time>2026-04-07T09:59:54.699Z</time></trkpt><trkpt lat="46.1168603" lon="9.3461677"><ele>208.0</ele><time>2026-04-07T09:59:56.701Z</time></trkpt><trkpt lat="46.1167981" lon="9.346077"><ele>208.0</ele><time>2026-04-07T09:59:58.699Z</time></trkpt><trkpt lat="46.1167237" lon="9.345965"><ele>208.0</ele><time>2026-04-07T10:00:00.699Z</time></trkpt><trkpt lat="46.1166573" lon="9.3458699"><ele>208.0</ele><time>2026-04-07T10:00:02.699Z</time></trkpt><trkpt lat="46.1165947" lon="9.3457437"><ele>214.4</ele><time>2026-04-07T10:00:04.697Z</time></trkpt><trkpt lat="46.1165412" lon="9.3456073"><ele>220.8</ele><time>2026-04-07T10:00:06.698Z</time></trkpt><trkpt lat="46.1164868" lon="9.3454841"><ele>227.2</ele><time>2026-04-07T10:00:08.699Z</time></trkpt><trkpt lat="46.1164598" lon="9.3454008"><ele>233.6</ele><time>2026-04-07T10:00:09.699Z</time></trkpt><trkpt lat="46.1164402" lon="9.3453001"><ele>240.0</ele><time>2026-04-07T10:00:10.699Z</time></trkpt><trkpt lat="46.116405" lon="9.3451427"><ele>240.0</ele><time>2026-04-07T10:00:12.699Z</time></trkpt><trkpt lat="46.1163874" lon="9.3449686"><ele>240.0</ele><time>2026-04-07T10:00:14.7Z</time></trkpt><trkpt lat="46.1163656" lon="9.3447879"><ele>240.0</ele><time>2026-04-07T10:00:16.699Z</time></trkpt><trkpt lat="46.1163597" lon="9.3446963"><ele>240.0</ele><time>2026-04-07T10:00:17.698Z</time></trkpt><trkpt lat="46.116351" lon="9.3445911"><ele>240.0</ele><time>2026-04-07T10:00:18.698Z</time></trkpt><trkpt lat="46.116333" lon="9.3444088"><ele>238.83333333333334</ele><time>2026-04-07T10:00:20.698Z</time></trkpt><trkpt lat="46.1163232" lon="9.3443163"><ele>237.66666666666669</ele><time>2026-04-07T10:00:21.699Z</time></trkpt><trkpt lat="46.1163128" lon="9.3442033"><ele>236.5</ele><time>2026-04-07T10:00:22.698Z</time></trkpt><trkpt lat="46.1163038" lon="9.3441118"><ele>235.33333333333334</ele><time>2026-04-07T10:00:23.698Z</time></trkpt><trkpt lat="46.1162898" lon="9.3440184"><ele>234.16666666666669</ele><time>2026-04-07T10:00:24.698Z</time></trkpt><trkpt lat="46.1162746" lon="9.3439165"><ele>233.0</ele><time>2026-04-07T10:00:25.698Z</time></trkpt><trkpt lat="46.1162563" lon="9.3437375"><ele>233.00000000000003</ele><time>2026-04-07T10:00:27.698Z</time></trkpt><trkpt lat="46.1162466" lon="9.3436382"><ele>233.0</ele><time>2026-04-07T10:00:28.699Z</time></trkpt><trkpt lat="46.1162505" lon="9.3435231"><ele>233.0</ele><time>2026-04-07T10:00:29.698Z</time></trkpt><trkpt lat="46.1162381" lon="9.3434122"><ele>233.0</ele><time>2026-04-07T10:00:30.699Z</time></trkpt><trkpt lat="46.1162267" lon="9.3433067"><ele>233.00000000000003</ele><time>2026-04-07T10:00:31.7Z</time></trkpt><trkpt lat="46.1162228" lon="9.3431948"><ele>233.0</ele><time>2026-04-07T10:00:32.699Z</time></trkpt><trkpt lat="46.1162093" lon="9.3430873"><ele>234.50000000000003</ele><time>2026-04-07T10:00:33.698Z</time></trkpt><trkpt lat="46.1162051" lon="9.3429753"><ele>236.0</ele><time>2026-04-07T10:00:34.699Z</time></trkpt><trkpt lat="46.1162003" lon="9.3428695"><ele>237.5</ele><time>2026-04-07T10:00:35.698Z</time></trkpt><trkpt lat="46.1161952" lon="9.3426631"><ele>239.0</ele><time>2026-04-07T10:00:37.701Z</time></trkpt><trkpt lat="46.1161946" lon="9.3425621"><ele>240.50000000000003</ele><time>2026-04-07T10:00:38.699Z</time></trkpt><trkpt lat="46.1162054" lon="9.34246"><ele>242.0</ele><time>2026-04-07T10:00:39.698Z</time></trkpt><trkpt lat="46.1162126" lon="9.3423587"><ele>242.0</ele><time>2026-04-07T10:00:40.697Z</time></trkpt><trkpt lat="46.1162263" lon="9.3422642"><ele>241.99999999999997</ele><time>2026-04-07T10:00:41.701Z</time></trkpt><trkpt lat="46.1162396" lon="9.3421699"><ele>242.0</ele><time>2026-04-07T10:00:42.698Z</time></trkpt><trkpt lat="46.1162596" lon="9.3420638"><ele>242.0</ele><time>2026-04-07T10:00:43.7Z</time></trkpt><trkpt lat="46.1162861" lon="9.3419623"><ele>241.99999999999997</ele><time>2026-04-07T10:00:44.699Z</time></trkpt><trkpt lat="46.1163054" lon="9.3418649"><ele>242.0</ele><time>2026-04-07T10:00:45.7Z</time></trkpt><trkpt lat="46.1163319" lon="9.3417757"><ele>242.0</ele><time>2026-04-07T10:00:46.7Z</time></trkpt><trkpt lat="46.1163626" lon="9.341677"><ele>243.50000000000003</ele><time>2026-04-07T10:00:47.697Z</time></trkpt><trkpt lat="46.1163945" lon="9.3415732"><ele>245.0</ele><time>2026-04-07T10:00:48.7Z</time></trkpt><trkpt lat="46.1164189" lon="9.3414569"><ele>246.5</ele><time>2026-04-07T10:00:49.699Z</time></trkpt><trkpt lat="46.116467" lon="9.341317"><ele>248.0</ele><time>2026-04-07T10:00:51.698Z</time></trkpt><trkpt lat="46.1164994" lon="9.3412235"><ele>249.50000000000003</ele><time>2026-04-07T10:00:52.698Z</time></trkpt><trkpt lat="46.1165212" lon="9.3411207"><ele>251.0</ele><time>2026-04-07T10:00:53.699Z</time></trkpt><trkpt lat="46.1165474" lon="9.3410127"><ele>254.16666666666669</ele><time>2026-04-07T10:00:54.698Z</time></trkpt><trkpt lat="46.1165627" lon="9.3409204"><ele>257.33333333333337</ele><time>2026-04-07T10:00:55.699Z</time></trkpt><trkpt lat="46.1165978" lon="9.3407719"><ele>260.5</ele><time>2026-04-07T10:00:57.699Z</time></trkpt><trkpt lat="46.1166279" lon="9.3406851"><ele>263.6666666666667</ele><time>2026-04-07T10:00:58.698Z</time></trkpt><trkpt lat="46.1166593" lon="9.3405808"><ele>266.8333333333333</ele><time>2026-04-07T10:00:59.699Z</time></trkpt><trkpt lat="46.1166979" lon="9.3404309"><ele>270.0</ele><time>2026-04-07T10:01:01.698Z</time></trkpt><trkpt lat="46.1167046" lon="9.3403095"><ele>263.4</ele><time>2026-04-07T10:01:02.698Z</time></trkpt><trkpt lat="46.116745" lon="9.3401432"><ele>256.8</ele><time>2026-04-07T10:01:04.698Z</time></trkpt><trkpt lat="46.1167784" lon="9.3400472"><ele>250.2</ele><time>2026-04-07T10:01:05.7Z</time></trkpt><trkpt lat="46.1168167" lon="9.3398634"><ele>243.6</ele><time>2026-04-07T10:01:07.699Z</time></trkpt><trkpt lat="46.1168353" lon="9.339761"><ele>237.0</ele><time>2026-04-07T10:01:08.698Z</time></trkpt><trkpt lat="46.1168376" lon="9.3396466"><ele>237.0</ele><time>2026-04-07T10:01:09.699Z</time></trkpt><trkpt lat="46.1168661" lon="9.3394706"><ele>237.0</ele><time>2026-04-07T10:01:11.699Z</time></trkpt><trkpt lat="46.116881" lon="9.3392949"><ele>237.0</ele><time>2026-04-07T10:01:13.699Z</time></trkpt><trkpt lat="46.1168937" lon="9.3391933"><ele>237.0</ele><time>2026-04-07T10:01:14.698Z</time></trkpt><trkpt lat="46.1169032" lon="9.3390374"><ele>237.0</ele><time>2026-04-07T10:01:16.699Z</time></trkpt><trkpt lat="46.1169225" lon="9.338882"><ele>237.6</ele><time>2026-04-07T10:01:18.699Z</time></trkpt><trkpt lat="46.1169403" lon="9.3387261"><ele>238.2</ele><time>2026-04-07T10:01:20.699Z</time></trkpt><trkpt lat="46.116957" lon="9.3385568"><ele>238.8</ele><time>2026-04-07T10:01:22.699Z</time></trkpt><trkpt lat="46.116973" lon="9.338402"><ele>239.4</ele><time>2026-04-07T10:01:24.699Z</time></trkpt><trkpt lat="46.1169784" lon="9.3382527"><ele>240.0</ele><time>2026-04-07T10:01:26.7Z</time></trkpt><trkpt lat="46.1169594" lon="9.33808"><ele>238.8</ele><time>2026-04-07T10:01:28.697Z</time></trkpt><trkpt lat="46.1169532" lon="9.3379308"><ele>237.6</ele><time>2026-04-07T10:01:30.7Z</time></trkpt><trkpt lat="46.1169534" lon="9.3378326"><ele>236.39999999999998</ele><time>2026-04-07T10:01:31.699Z</time></trkpt><trkpt lat="46.116948" lon="9.3376945"><ele>235.2</ele><time>2026-04-07T10:01:33.699Z</time></trkpt><trkpt lat="46.1169357" lon="9.337545"><ele>234.0</ele><time>2026-04-07T10:01:35.698Z</time></trkpt><trkpt lat="46.1169251" lon="9.3373879"><ele>234.0</ele><time>2026-04-07T10:01:37.7Z</time></trkpt><trkpt lat="46.1168655" lon="9.337261"><ele>233.99999999999997</ele><time>2026-04-07T10:01:39.698Z</time></trkpt><trkpt lat="46.116831" lon="9.33712"><ele>233.99999999999997</ele><time>2026-04-07T10:01:42.7Z</time></trkpt><trkpt lat="46.1167889" lon="9.3370197"><ele>234.0</ele><time>2026-04-07T10:01:44.698Z</time></trkpt><trkpt lat="46.1167468" lon="9.3369098"><ele>234.0</ele><time>2026-04-07T10:01:46.699Z</time></trkpt><trkpt lat="46.1167017" lon="9.3367913"><ele>232.0</ele><time>2026-04-07T10:01:48.699Z</time></trkpt><trkpt lat="46.1166515" lon="9.3366955"><ele>230.0</ele><time>2026-04-07T10:01:50.698Z</time></trkpt><trkpt lat="46.1166011" lon="9.3365945"><ele>228.0</ele><time>2026-04-07T10:01:52.699Z</time></trkpt><trkpt lat="46.1165518" lon="9.336496"><ele>226.0</ele><time>2026-04-07T10:01:54.698Z</time></trkpt><trkpt lat="46.116496" lon="9.3363807"><ele>224.0</ele><time>2026-04-07T10:01:56.7Z</time></trkpt><trkpt lat="46.1164632" lon="9.3362831"><ele>222.0</ele><time>2026-04-07T10:01:58.699Z</time></trkpt><trkpt lat="46.1164355" lon="9.3361868"><ele>228.83333333333334</ele><time>2026-04-07T10:02:00.699Z</time></trkpt><trkpt lat="46.1163979" lon="9.3360651"><ele>235.66666666666669</ele><time>2026-04-07T10:02:02.699Z</time></trkpt><trkpt lat="46.1163465" lon="9.335979"><ele>242.5</ele><time>2026-04-07T10:02:05.699Z</time></trkpt><trkpt lat="46.1162973" lon="9.3359147"><ele>249.33333333333334</ele><time>2026-04-07T10:02:07.701Z</time></trkpt><trkpt lat="46.1162574" lon="9.3358281"><ele>256.1666666666667</ele><time>2026-04-07T10:02:09.699Z</time></trkpt><trkpt lat="46.1162067" lon="9.3357419"><ele>263.0</ele><time>2026-04-07T10:02:11.7Z</time></trkpt><trkpt lat="46.1161524" lon="9.3356736"><ele>263.0</ele><time>2026-04-07T10:02:13.699Z</time></trkpt><trkpt lat="46.1160941" lon="9.3356044"><ele>263.0</ele><time>2026-04-07T10:02:15.698Z</time></trkpt><trkpt lat="46.1160421" lon="9.3355155"><ele>263.0</ele><time>2026-04-07T10:02:17.699Z</time></trkpt><trkpt lat="46.1159952" lon="9.3354311"><ele>263.0</ele><time>2026-04-07T10:02:19.698Z</time></trkpt><trkpt lat="46.1159671" lon="9.3353498"><ele>263.0</ele><time>2026-04-07T10:02:21.698Z</time></trkpt><trkpt lat="46.1159414" lon="9.3352437"><ele>263.0</ele><time>2026-04-07T10:02:23.697Z</time></trkpt><trkpt lat="46.1159128" lon="9.3351403"><ele>263.0</ele><time>2026-04-07T10:02:25.698Z</time></trkpt><trkpt lat="46.1158869" lon="9.3350379"><ele>259.5</ele><time>2026-04-07T10:02:27.7Z</time></trkpt><trkpt lat="46.1158673" lon="9.3349135"><ele>256.0</ele><time>2026-04-07T10:02:29.698Z</time></trkpt><trkpt lat="46.1158687" lon="9.3347887"><ele>252.5</ele><time>2026-04-07T10:02:31.698Z</time></trkpt><trkpt lat="46.1158691" lon="9.33467"><ele>249.0</ele><time>2026-04-07T10:02:33.699Z</time></trkpt><trkpt lat="46.1158578" lon="9.3345634"><ele>245.50000000000003</ele><time>2026-04-07T10:02:35.7Z</time></trkpt><trkpt lat="46.1158335" lon="9.3344597"><ele>242.0</ele><time>2026-04-07T10:02:37.698Z</time></trkpt><trkpt lat="46.1158029" lon="9.3343672"><ele>242.83333333333334</ele><time>2026-04-07T10:02:39.699Z</time></trkpt><trkpt lat="46.1157636" lon="9.3342763"><ele>243.66666666666669</ele><time>2026-04-07T10:02:41.699Z</time></trkpt><trkpt lat="46.1157129" lon="9.3342054"><ele>244.5</ele><time>2026-04-07T10:02:43.699Z</time></trkpt><trkpt lat="46.1156637" lon="9.3340548"><ele>245.33333333333331</ele><time>2026-04-07T10:02:45.699Z</time></trkpt><trkpt lat="46.115633" lon="9.3339472"><ele>246.16666666666666</ele><time>2026-04-07T10:02:47.699Z</time></trkpt><trkpt lat="46.1155982" lon="9.3338433"><ele>247.0</ele><time>2026-04-07T10:02:49.699Z</time></trkpt><trkpt lat="46.115547" lon="9.3337249"><ele>246.99999999999997</ele><time>2026-04-07T10:02:51.699Z</time></trkpt><trkpt lat="46.1155088" lon="9.3336245"><ele>247.0</ele><time>2026-04-07T10:02:53.7Z</time></trkpt><trkpt lat="46.1154735" lon="9.3335056"><ele>247.0</ele><time>2026-04-07T10:02:56.7Z</time></trkpt><trkpt lat="46.1154227" lon="9.3334143"><ele>247.0</ele><time>2026-04-07T10:02:58.699Z</time></trkpt><trkpt lat="46.1153539" lon="9.3333069"><ele>246.99999999999997</ele><time>2026-04-07T10:03:00.699Z</time></trkpt><trkpt lat="46.1153089" lon="9.3332274"><ele>247.0</ele><time>2026-04-07T10:03:01.7Z</time></trkpt><trkpt lat="46.1152647" lon="9.3331325"><ele>246.99999999999997</ele><time>2026-04-07T10:03:03.7Z</time></trkpt><trkpt lat="46.1152198" lon="9.3330605"><ele>247.0</ele><time>2026-04-07T10:03:05.699Z</time></trkpt><trkpt lat="46.115167" lon="9.3329384"><ele>247.0</ele><time>2026-04-07T10:03:07.699Z</time></trkpt><trkpt lat="46.1151286" lon="9.3328288"><ele>247.0</ele><time>2026-04-07T10:03:09.699Z</time></trkpt><trkpt lat="46.1150829" lon="9.3327396"><ele>246.99999999999997</ele><time>2026-04-07T10:03:11.699Z</time></trkpt><trkpt lat="46.1150498" lon="9.3326421"><ele>247.0</ele><time>2026-04-07T10:03:13.699Z</time></trkpt><trkpt lat="46.1150264" lon="9.3325431"><ele>247.83333333333331</ele><time>2026-04-07T10:03:15.699Z</time></trkpt><trkpt lat="46.1149927" lon="9.332458"><ele>248.66666666666666</ele><time>2026-04-07T10:03:17.699Z</time></trkpt><trkpt lat="46.1149441" lon="9.332357"><ele>249.5</ele><time>2026-04-07T10:03:19.7Z</time></trkpt><trkpt lat="46.1149042" lon="9.3322134"><ele>250.33333333333331</ele><time>2026-04-07T10:03:21.699Z</time></trkpt><trkpt lat="46.1148814" lon="9.3321195"><ele>251.16666666666666</ele><time>2026-04-07T10:03:23.699Z</time></trkpt><trkpt lat="46.114836" lon="9.3320267"><ele>252.0</ele><time>2026-04-07T10:03:25.698Z</time></trkpt><trkpt lat="46.1148058" lon="9.3319408"><ele>252.0</ele><time>2026-04-07T10:03:26.701Z</time></trkpt><trkpt lat="46.1147817" lon="9.3318504"><ele>252.0</ele><time>2026-04-07T10:03:27.699Z</time></trkpt><trkpt lat="46.1147302" lon="9.3317674"><ele>252.0</ele><time>2026-04-07T10:03:29.699Z</time></trkpt><trkpt lat="46.1146895" lon="9.331642"><ele>252.0</ele><time>2026-04-07T10:03:31.699Z</time></trkpt><trkpt lat="46.1146496" lon="9.3315128"><ele>252.0</ele><time>2026-04-07T10:03:33.698Z</time></trkpt><trkpt lat="46.1146016" lon="9.3314057"><ele>252.0</ele><time>2026-04-07T10:03:35.699Z</time></trkpt><trkpt lat="46.1145738" lon="9.3312877"><ele>250.6</ele><time>2026-04-07T10:03:37.699Z</time></trkpt><trkpt lat="46.114529" lon="9.3311597"><ele>249.2</ele><time>2026-04-07T10:03:39.698Z</time></trkpt><trkpt lat="46.1144896" lon="9.3310415"><ele>247.8</ele><time>2026-04-07T10:03:41.699Z</time></trkpt><trkpt lat="46.1144591" lon="9.3308836"><ele>246.4</ele><time>2026-04-07T10:03:43.698Z</time></trkpt><trkpt lat="46.1144293" lon="9.3307646"><ele>245.0</ele><time>2026-04-07T10:03:45.699Z</time></trkpt><trkpt lat="46.1144165" lon="9.3306356"><ele>243.66666666666669</ele><time>2026-04-07T10:03:47.699Z</time></trkpt><trkpt lat="46.1144057" lon="9.3305026"><ele>242.33333333333334</ele><time>2026-04-07T10:03:49.699Z</time></trkpt><trkpt lat="46.1143954" lon="9.3303798"><ele>241.0</ele><time>2026-04-07T10:03:51.699Z</time></trkpt><trkpt lat="46.1143881" lon="9.330262"><ele>239.66666666666669</ele><time>2026-04-07T10:03:53.699Z</time></trkpt><trkpt lat="46.114397" lon="9.3301371"><ele>238.33333333333334</ele><time>2026-04-07T10:03:55.699Z</time></trkpt><trkpt lat="46.1143924" lon="9.3300124"><ele>237.0</ele><time>2026-04-07T10:03:57.699Z</time></trkpt><trkpt lat="46.1143882" lon="9.3298949"><ele>237.0</ele><time>2026-04-07T10:03:59.7Z</time></trkpt><trkpt lat="46.114383" lon="9.3297742"><ele>237.0</ele><time>2026-04-07T10:04:01.7Z</time></trkpt><trkpt lat="46.1143765" lon="9.3296542"><ele>237.0</ele><time>2026-04-07T10:04:03.699Z</time></trkpt><trkpt lat="46.1143724" lon="9.3295252"><ele>237.0</ele><time>2026-04-07T10:04:05.699Z</time></trkpt><trkpt lat="46.1143655" lon="9.3293841"><ele>237.0</ele><time>2026-04-07T10:04:07.698Z</time></trkpt><trkpt lat="46.114357" lon="9.3292544"><ele>237.0</ele><time>2026-04-07T10:04:09.7Z</time></trkpt><trkpt lat="46.1143563" lon="9.329134"><ele>236.5</ele><time>2026-04-07T10:04:11.699Z</time></trkpt><trkpt lat="46.1143502" lon="9.3290172"><ele>236.0</ele><time>2026-04-07T10:04:13.699Z</time></trkpt><trkpt lat="46.1143475" lon="9.3288941"><ele>235.5</ele><time>2026-04-07T10:04:15.698Z</time></trkpt><trkpt lat="46.1143353" lon="9.3287492"><ele>235.0</ele><time>2026-04-07T10:04:17.7Z</time></trkpt><trkpt lat="46.1142991" lon="9.3286345"><ele>234.5</ele><time>2026-04-07T10:04:19.7Z</time></trkpt><trkpt lat="46.1142646" lon="9.3285237"><ele>234.0</ele><time>2026-04-07T10:04:21.698Z</time></trkpt><trkpt lat="46.1142203" lon="9.3284113"><ele>232.6</ele><time>2026-04-07T10:04:23.698Z</time></trkpt><trkpt lat="46.1141592" lon="9.3283182"><ele>231.2</ele><time>2026-04-07T10:04:25.699Z</time></trkpt><trkpt lat="46.1141081" lon="9.3282415"><ele>229.79999999999998</ele><time>2026-04-07T10:04:27.7Z</time></trkpt><trkpt lat="46.1140493" lon="9.3281346"><ele>228.39999999999998</ele><time>2026-04-07T10:04:29.7Z</time></trkpt><trkpt lat="46.1140281" lon="9.3280125"><ele>227.0</ele><time>2026-04-07T10:04:31.7Z</time></trkpt><trkpt lat="46.1140051" lon="9.3278625"><ele>238.39999999999998</ele><time>2026-04-07T10:04:33.698Z</time></trkpt><trkpt lat="46.1140036" lon="9.3276632"><ele>249.79999999999998</ele><time>2026-04-07T10:04:36.698Z</time></trkpt><trkpt lat="46.1139924" lon="9.3275328"><ele>261.2</ele><time>2026-04-07T10:04:38.698Z</time></trkpt><trkpt lat="46.1139838" lon="9.3274113"><ele>272.59999999999997</ele><time>2026-04-07T10:04:40.7Z</time></trkpt><trkpt lat="46.1139766" lon="9.3272721"><ele>284.0</ele><time>2026-04-07T10:04:42.699Z</time></trkpt><trkpt lat="46.1139768" lon="9.3271477"><ele>284.33333333333337</ele><time>2026-04-07T10:04:43.701Z</time></trkpt><trkpt lat="46.1139651" lon="9.3270039"><ele>284.6666666666667</ele><time>2026-04-07T10:04:45.698Z</time></trkpt><trkpt lat="46.1139697" lon="9.3268912"><ele>285.0</ele><time>2026-04-07T10:04:47.7Z</time></trkpt><trkpt lat="46.1139787" lon="9.3267661"><ele>285.3333333333333</ele><time>2026-04-07T10:04:49.698Z</time></trkpt><trkpt lat="46.113984" lon="9.3266656"><ele>285.66666666666663</ele><time>2026-04-07T10:04:50.7Z</time></trkpt><trkpt lat="46.114008" lon="9.3265815"><ele>286.0</ele><time>2026-04-07T10:04:51.699Z</time></trkpt><trkpt lat="46.1140337" lon="9.3264344"><ele>276.40000000000003</ele><time>2026-04-07T10:04:53.698Z</time></trkpt><trkpt lat="46.1140788" lon="9.3262634"><ele>266.8</ele><time>2026-04-07T10:04:55.699Z</time></trkpt><trkpt lat="46.1141132" lon="9.3261313"><ele>257.20000000000005</ele><time>2026-04-07T10:04:57.699Z</time></trkpt><trkpt lat="46.1141549" lon="9.3259703"><ele>247.60000000000002</ele><time>2026-04-07T10:04:59.7Z</time></trkpt><trkpt lat="46.1141783" lon="9.3258463"><ele>238.0</ele><time>2026-04-07T10:05:01.7Z</time></trkpt><trkpt lat="46.114207" lon="9.3257222"><ele>238.0</ele><time>2026-04-07T10:05:03.698Z</time></trkpt><trkpt lat="46.1142314" lon="9.3255862"><ele>238.0</ele><time>2026-04-07T10:05:05.7Z</time></trkpt><trkpt lat="46.1142739" lon="9.3254515"><ele>238.0</ele><time>2026-04-07T10:05:07.698Z</time></trkpt><trkpt lat="46.1143073" lon="9.3253406"><ele>238.0</ele><time>2026-04-07T10:05:09.699Z</time></trkpt><trkpt lat="46.114356" lon="9.3252264"><ele>238.0</ele><time>2026-04-07T10:05:11.701Z</time></trkpt><trkpt lat="46.1144056" lon="9.325125"><ele>240.66666666666666</ele><time>2026-04-07T10:05:13.7Z</time></trkpt><trkpt lat="46.1144639" lon="9.3250205"><ele>243.33333333333331</ele><time>2026-04-07T10:05:15.699Z</time></trkpt><trkpt lat="46.1144999" lon="9.3249381"><ele>246.0</ele><time>2026-04-07T10:05:17.698Z</time></trkpt><trkpt lat="46.1145381" lon="9.3248624"><ele>248.66666666666669</ele><time>2026-04-07T10:05:19.7Z</time></trkpt><trkpt lat="46.1145824" lon="9.324752"><ele>251.33333333333334</ele><time>2026-04-07T10:05:22.698Z</time></trkpt><trkpt lat="46.1146107" lon="9.324644"><ele>254.0</ele><time>2026-04-07T10:05:25.7Z</time></trkpt><trkpt lat="46.1146445" lon="9.3245308"><ele>256.5</ele><time>2026-04-07T10:05:28.699Z</time></trkpt><trkpt lat="46.1146648" lon="9.3244276"><ele>259.0</ele><time>2026-04-07T10:05:31.699Z</time></trkpt><trkpt lat="46.1146802" lon="9.3243236"><ele>261.5</ele><time>2026-04-07T10:05:34.699Z</time></trkpt><trkpt lat="46.1146875" lon="9.3242057"><ele>264.0</ele><time>2026-04-07T10:05:37.701Z</time></trkpt><trkpt lat="46.1146927" lon="9.324084"><ele>266.5</ele><time>2026-04-07T10:05:40.7Z</time></trkpt><trkpt lat="46.1147028" lon="9.3239706"><ele>269.0</ele><time>2026-04-07T10:05:43.699Z</time></trkpt><trkpt lat="46.1146997" lon="9.3238534"><ele>269.42857142857144</ele><time>2026-04-07T10:05:46.7Z</time></trkpt><trkpt lat="46.1146905" lon="9.3237574"><ele>269.8571428571429</ele><time>2026-04-07T10:05:49.698Z</time></trkpt><trkpt lat="46.1146574" lon="9.3236709"><ele>270.2857142857143</ele><time>2026-04-07T10:05:52.699Z</time></trkpt><trkpt lat="46.114638" lon="9.3235683"><ele>270.7142857142857</ele><time>2026-04-07T10:05:55.7Z</time></trkpt><trkpt lat="46.1146185" lon="9.3234646"><ele>271.1428571428571</ele><time>2026-04-07T10:05:58.7Z</time></trkpt><trkpt lat="46.1145894" lon="9.3233529"><ele>271.57142857142856</ele><time>2026-04-07T10:06:01.7Z</time></trkpt><trkpt lat="46.1145487" lon="9.323258"><ele>272.0</ele><time>2026-04-07T10:06:04.699Z</time></trkpt><trkpt lat="46.1145405" lon="9.323146"><ele>271.6666666666667</ele><time>2026-04-07T10:06:07.699Z</time></trkpt><trkpt lat="46.1145438" lon="9.3230247"><ele>271.33333333333337</ele><time>2026-04-07T10:06:10.698Z</time></trkpt><trkpt lat="46.1145381" lon="9.3229046"><ele>271.0</ele><time>2026-04-07T10:06:13.699Z</time></trkpt><trkpt lat="46.1145386" lon="9.3228025"><ele>270.6666666666667</ele><time>2026-04-07T10:06:16.699Z</time></trkpt><trkpt lat="46.1145374" lon="9.3227008"><ele>270.3333333333333</ele><time>2026-04-07T10:06:18.699Z</time></trkpt><trkpt lat="46.1145355" lon="9.3226044"><ele>270.0</ele><time>2026-04-07T10:06:20.7Z</time></trkpt><trkpt lat="46.1145362" lon="9.3224785"><ele>270.0</ele><time>2026-04-07T10:06:23.7Z</time></trkpt><trkpt lat="46.1145325" lon="9.3223724"><ele>270.0</ele><time>2026-04-07T10:06:26.7Z</time></trkpt><trkpt lat="46.1145344" lon="9.3222739"><ele>270.0</ele><time>2026-04-07T10:06:29.699Z</time></trkpt><trkpt lat="46.1145262" lon="9.3221592"><ele>270.0</ele><time>2026-04-07T10:06:32.699Z</time></trkpt><trkpt lat="46.1145187" lon="9.3220361"><ele>270.0</ele><time>2026-04-07T10:06:35.7Z</time></trkpt><trkpt lat="46.1145132" lon="9.3219429"><ele>270.0</ele><time>2026-04-07T10:06:37.7Z</time></trkpt><trkpt lat="46.1145071" lon="9.3218438"><ele>270.0</ele><time>2026-04-07T10:06:40.699Z</time></trkpt><trkpt lat="46.1145132" lon="9.3217352"><ele>269.8333333333333</ele><time>2026-04-07T10:06:43.699Z</time></trkpt><trkpt lat="46.114503" lon="9.3216375"><ele>269.6666666666667</ele><time>2026-04-07T10:06:46.698Z</time></trkpt><trkpt lat="46.1144937" lon="9.3215209"><ele>269.5</ele><time>2026-04-07T10:06:50.7Z</time></trkpt><trkpt lat="46.1144802" lon="9.3214136"><ele>269.33333333333337</ele><time>2026-04-07T10:06:53.7Z</time></trkpt><trkpt lat="46.1144927" lon="9.3212969"><ele>269.1666666666667</ele><time>2026-04-07T10:06:56.699Z</time></trkpt><trkpt lat="46.1144991" lon="9.3211818"><ele>269.0</ele><time>2026-04-07T10:06:59.7Z</time></trkpt><trkpt lat="46.1145136" lon="9.3210843"><ele>268.6666666666667</ele><time>2026-04-07T10:07:02.699Z</time></trkpt><trkpt lat="46.1145158" lon="9.3209787"><ele>268.33333333333337</ele><time>2026-04-07T10:07:05.699Z</time></trkpt><trkpt lat="46.1145109" lon="9.3208761"><ele>268.0</ele><time>2026-04-07T10:07:08.7Z</time></trkpt><trkpt lat="46.1145274" lon="9.3207447"><ele>267.6666666666667</ele><time>2026-04-07T10:07:11.698Z</time></trkpt><trkpt lat="46.1145268" lon="9.3206382"><ele>267.3333333333333</ele><time>2026-04-07T10:07:14.699Z</time></trkpt><trkpt lat="46.1145258" lon="9.320523"><ele>267.0</ele><time>2026-04-07T10:07:17.7Z</time></trkpt><trkpt lat="46.1145272" lon="9.320401"><ele>266.8333333333333</ele><time>2026-04-07T10:07:20.7Z</time></trkpt><trkpt lat="46.1145348" lon="9.3202809"><ele>266.6666666666667</ele><time>2026-04-07T10:07:23.701Z</time></trkpt><trkpt lat="46.1145423" lon="9.3201489"><ele>266.5</ele><time>2026-04-07T10:07:26.699Z</time></trkpt><trkpt lat="46.1145493" lon="9.3200159"><ele>266.33333333333337</ele><time>2026-04-07T10:07:29.699Z</time></trkpt><trkpt lat="46.1145609" lon="9.3198851"><ele>266.1666666666667</ele><time>2026-04-07T10:07:32.698Z</time></trkpt><trkpt lat="46.1145676" lon="9.3197686"><ele>266.0</ele><time>2026-04-07T10:07:35.698Z</time></trkpt><trkpt lat="46.1145617" lon="9.3196548"><ele>266.0</ele><time>2026-04-07T10:07:38.699Z</time></trkpt><trkpt lat="46.1145614" lon="9.3195277"><ele>266.0</ele><time>2026-04-07T10:07:42.7Z</time></trkpt><trkpt lat="46.1145686" lon="9.319431"><ele>266.0</ele><time>2026-04-07T10:07:45.699Z</time></trkpt><trkpt lat="46.1145702" lon="9.319313"><ele>266.0</ele><time>2026-04-07T10:07:48.7Z</time></trkpt><trkpt lat="46.114577" lon="9.3191929"><ele>266.0</ele><time>2026-04-07T10:07:51.699Z</time></trkpt><trkpt lat="46.1145816" lon="9.3190849"><ele>266.0</ele><time>2026-04-07T10:07:54.699Z</time></trkpt><trkpt lat="46.1145808" lon="9.3189734"><ele>264.83333333333337</ele><time>2026-04-07T10:07:57.7Z</time></trkpt><trkpt lat="46.1145842" lon="9.3188706"><ele>263.6666666666667</ele><time>2026-04-07T10:08:00.699Z</time></trkpt><trkpt lat="46.1145842" lon="9.3187659"><ele>262.5</ele><time>2026-04-07T10:08:03.699Z</time></trkpt><trkpt lat="46.1145758" lon="9.3186382"><ele>261.3333333333333</ele><time>2026-04-07T10:08:06.699Z</time></trkpt><trkpt lat="46.1145681" lon="9.318547"><ele>260.16666666666663</ele><time>2026-04-07T10:08:08.699Z</time></trkpt><trkpt lat="46.1145571" lon="9.318415"><ele>259.0</ele><time>2026-04-07T10:08:11.7Z</time></trkpt><trkpt lat="46.1145358" lon="9.3182865"><ele>259.0</ele><time>2026-04-07T10:08:14.7Z</time></trkpt><trkpt lat="46.1145076" lon="9.3181254"><ele>259.0</ele><time>2026-04-07T10:08:17.7Z</time></trkpt><trkpt lat="46.1144874" lon="9.3180296"><ele>259.0</ele><time>2026-04-07T10:08:19.699Z</time></trkpt><trkpt lat="46.1144636" lon="9.3179158"><ele>259.0</ele><time>2026-04-07T10:08:21.7Z</time></trkpt><trkpt lat="46.1144292" lon="9.3177753"><ele>259.0</ele><time>2026-04-07T10:08:23.699Z</time></trkpt><trkpt lat="46.1143782" lon="9.3176412"><ele>258.3333333333333</ele><time>2026-04-07T10:08:25.7Z</time></trkpt><trkpt lat="46.1143235" lon="9.3175301"><ele>257.66666666666663</ele><time>2026-04-07T10:08:27.698Z</time></trkpt><trkpt lat="46.1142261" lon="9.3174136"><ele>257.0</ele><time>2026-04-07T10:08:29.7Z</time></trkpt><trkpt lat="46.1141603" lon="9.3173453"><ele>256.3333333333333</ele><time>2026-04-07T10:08:30.699Z</time></trkpt><trkpt lat="46.1141126" lon="9.3172734"><ele>255.66666666666666</ele><time>2026-04-07T10:08:31.699Z</time></trkpt><trkpt lat="46.1140597" lon="9.317218"><ele>255.0</ele><time>2026-04-07T10:08:32.699Z</time></trkpt><trkpt lat="46.1139871" lon="9.3171679"><ele>254.83333333333334</ele><time>2026-04-07T10:08:33.699Z</time></trkpt><trkpt lat="46.1139186" lon="9.3171102"><ele>254.66666666666669</ele><time>2026-04-07T10:08:34.699Z</time></trkpt><trkpt lat="46.1138534" lon="9.3170415"><ele>254.5</ele><time>2026-04-07T10:08:35.698Z</time></trkpt><trkpt lat="46.1137834" lon="9.3169725"><ele>254.33333333333334</ele><time>2026-04-07T10:08:36.7Z</time></trkpt><trkpt lat="46.1137326" lon="9.3168863"><ele>254.16666666666669</ele><time>2026-04-07T10:08:37.699Z</time></trkpt><trkpt lat="46.113669" lon="9.3168045"><ele>254.0</ele><time>2026-04-07T10:08:38.699Z</time></trkpt><trkpt lat="46.1135887" lon="9.316744"><ele>254.00000000000003</ele><time>2026-04-07T10:08:39.7Z</time></trkpt><trkpt lat="46.1135037" lon="9.3166843"><ele>254.0</ele><time>2026-04-07T10:08:40.699Z</time></trkpt><trkpt lat="46.1134266" lon="9.3166288"><ele>254.0</ele><time>2026-04-07T10:08:41.7Z</time></trkpt><trkpt lat="46.1133363" lon="9.3166162"><ele>254.0</ele><time>2026-04-07T10:08:42.7Z</time></trkpt><trkpt lat="46.1132488" lon="9.3166039"><ele>254.00000000000003</ele><time>2026-04-07T10:08:43.699Z</time></trkpt><trkpt lat="46.1131637" lon="9.3166146"><ele>254.0</ele><time>2026-04-07T10:08:44.701Z</time></trkpt><trkpt lat="46.113076" lon="9.3166434"><ele>253.2</ele><time>2026-04-07T10:08:45.7Z</time></trkpt><trkpt lat="46.1129786" lon="9.3166537"><ele>252.39999999999998</ele><time>2026-04-07T10:08:46.699Z</time></trkpt><trkpt lat="46.1128844" lon="9.3166832"><ele>251.6</ele><time>2026-04-07T10:08:47.698Z</time></trkpt><trkpt lat="46.1127958" lon="9.3167196"><ele>250.8</ele><time>2026-04-07T10:08:48.7Z</time></trkpt><trkpt lat="46.1126958" lon="9.3167451"><ele>250.0</ele><time>2026-04-07T10:08:49.7Z</time></trkpt><trkpt lat="46.1125946" lon="9.3167708"><ele>250.0</ele><time>2026-04-07T10:08:50.699Z</time></trkpt><trkpt lat="46.1124928" lon="9.3167733"><ele>250.0</ele><time>2026-04-07T10:08:51.7Z</time></trkpt><trkpt lat="46.1123946" lon="9.3167723"><ele>250.0</ele><time>2026-04-07T10:08:52.699Z</time></trkpt><trkpt lat="46.1122993" lon="9.3167703"><ele>250.0</ele><time>2026-04-07T10:08:53.701Z</time></trkpt><trkpt lat="46.1122052" lon="9.3167702"><ele>250.0</ele><time>2026-04-07T10:08:54.701Z</time></trkpt><trkpt lat="46.1121126" lon="9.3167795"><ele>247.4</ele><time>2026-04-07T10:08:55.701Z</time></trkpt><trkpt lat="46.11202" lon="9.3168025"><ele>244.8</ele><time>2026-04-07T10:08:56.701Z</time></trkpt><trkpt lat="46.1119293" lon="9.3168314"><ele>242.2</ele><time>2026-04-07T10:08:57.7Z</time></trkpt><trkpt lat="46.1118422" lon="9.3168764"><ele>239.6</ele><time>2026-04-07T10:08:58.701Z</time></trkpt><trkpt lat="46.1117633" lon="9.3169382"><ele>237.0</ele><time>2026-04-07T10:08:59.701Z</time></trkpt><trkpt lat="46.1116842" lon="9.3170059"><ele>237.0</ele><time>2026-04-07T10:09:00.7Z</time></trkpt><trkpt lat="46.1115985" lon="9.3170779"><ele>237.0</ele><time>2026-04-07T10:09:01.698Z</time></trkpt><trkpt lat="46.1115279" lon="9.3171578"><ele>237.0</ele><time>2026-04-07T10:09:02.7Z</time></trkpt><trkpt lat="46.1114653" lon="9.3172377"><ele>237.0</ele><time>2026-04-07T10:09:03.699Z</time></trkpt><trkpt lat="46.1113928" lon="9.3173156"><ele>237.0</ele><time>2026-04-07T10:09:04.699Z</time></trkpt><trkpt lat="46.1113236" lon="9.3174014"><ele>236.33333333333334</ele><time>2026-04-07T10:09:05.7Z</time></trkpt><trkpt lat="46.1112562" lon="9.3174881"><ele>235.66666666666669</ele><time>2026-04-07T10:09:06.7Z</time></trkpt><trkpt lat="46.1111901" lon="9.3175612"><ele>235.0</ele><time>2026-04-07T10:09:07.701Z</time></trkpt><trkpt lat="46.1111237" lon="9.3176382"><ele>234.33333333333334</ele><time>2026-04-07T10:09:08.699Z</time></trkpt><trkpt lat="46.1110598" lon="9.3177224"><ele>233.66666666666669</ele><time>2026-04-07T10:09:09.699Z</time></trkpt><trkpt lat="46.1109982" lon="9.3178097"><ele>233.0</ele><time>2026-04-07T10:09:10.698Z</time></trkpt><trkpt lat="46.1109322" lon="9.3178866"><ele>233.00000000000003</ele><time>2026-04-07T10:09:11.7Z</time></trkpt><trkpt lat="46.1108662" lon="9.3179737"><ele>233.0</ele><time>2026-04-07T10:09:12.7Z</time></trkpt><trkpt lat="46.1108009" lon="9.3180495"><ele>233.0</ele><time>2026-04-07T10:09:13.7Z</time></trkpt><trkpt lat="46.1107391" lon="9.3181175"><ele>233.0</ele><time>2026-04-07T10:09:14.699Z</time></trkpt><trkpt lat="46.1106723" lon="9.318171"><ele>233.00000000000003</ele><time>2026-04-07T10:09:15.699Z</time></trkpt><trkpt lat="46.1105978" lon="9.3182193"><ele>233.0</ele><time>2026-04-07T10:09:16.7Z</time></trkpt><trkpt lat="46.1105194" lon="9.3182399"><ele>231.33333333333334</ele><time>2026-04-07T10:09:17.699Z</time></trkpt><trkpt lat="46.1104283" lon="9.3182596"><ele>229.66666666666669</ele><time>2026-04-07T10:09:18.699Z</time></trkpt><trkpt lat="46.1103472" lon="9.3182694"><ele>228.0</ele><time>2026-04-07T10:09:19.7Z</time></trkpt><trkpt lat="46.110269" lon="9.3182857"><ele>226.33333333333331</ele><time>2026-04-07T10:09:20.698Z</time></trkpt><trkpt lat="46.1101835" lon="9.3183181"><ele>224.66666666666666</ele><time>2026-04-07T10:09:21.7Z</time></trkpt><trkpt lat="46.1101026" lon="9.3183676"><ele>223.0</ele><time>2026-04-07T10:09:22.7Z</time></trkpt><trkpt lat="46.1100174" lon="9.3184337"><ele>222.99999999999997</ele><time>2026-04-07T10:09:23.699Z</time></trkpt><trkpt lat="46.1099501" lon="9.3185037"><ele>223.0</ele><time>2026-04-07T10:09:24.699Z</time></trkpt><trkpt lat="46.1098796" lon="9.3185812"><ele>223.0</ele><time>2026-04-07T10:09:25.699Z</time></trkpt><trkpt lat="46.109817" lon="9.3186624"><ele>223.0</ele><time>2026-04-07T10:09:26.698Z</time></trkpt><trkpt lat="46.1097549" lon="9.3187551"><ele>222.99999999999997</ele><time>2026-04-07T10:09:27.699Z</time></trkpt><trkpt lat="46.1096915" lon="9.3188451"><ele>223.0</ele><time>2026-04-07T10:09:28.7Z</time></trkpt><trkpt lat="46.1096229" lon="9.318934"><ele>223.8</ele><time>2026-04-07T10:09:29.699Z</time></trkpt><trkpt lat="46.1095429" lon="9.319027"><ele>224.60000000000002</ele><time>2026-04-07T10:09:30.699Z</time></trkpt><trkpt lat="46.1094844" lon="9.3191179"><ele>225.39999999999998</ele><time>2026-04-07T10:09:31.7Z</time></trkpt><trkpt lat="46.1094281" lon="9.3192064"><ele>226.2</ele><time>2026-04-07T10:09:32.701Z</time></trkpt><trkpt lat="46.1093605" lon="9.3192943"><ele>227.0</ele><time>2026-04-07T10:09:33.699Z</time></trkpt><trkpt lat="46.1092946" lon="9.3193795"><ele>227.0</ele><time>2026-04-07T10:09:34.7Z</time></trkpt><trkpt lat="46.1092388" lon="9.3194538"><ele>227.0</ele><time>2026-04-07T10:09:35.701Z</time></trkpt><trkpt lat="46.109168" lon="9.3195158"><ele>227.0</ele><time>2026-04-07T10:09:36.7Z</time></trkpt><trkpt lat="46.1090847" lon="9.3195825"><ele>227.0</ele><time>2026-04-07T10:09:37.7Z</time></trkpt><trkpt lat="46.1090026" lon="9.3196228"><ele>227.0</ele><time>2026-04-07T10:09:38.699Z</time></trkpt><trkpt lat="46.1088923" lon="9.3196232"><ele>224.2</ele><time>2026-04-07T10:09:39.701Z</time></trkpt><trkpt lat="46.1087966" lon="9.3196407"><ele>221.39999999999998</ele><time>2026-04-07T10:09:40.7Z</time></trkpt><trkpt lat="46.1087119" lon="9.3196482"><ele>218.60000000000002</ele><time>2026-04-07T10:09:41.7Z</time></trkpt><trkpt lat="46.1086219" lon="9.319662"><ele>215.8</ele><time>2026-04-07T10:09:42.7Z</time></trkpt><trkpt lat="46.1085222" lon="9.3196792"><ele>213.0</ele><time>2026-04-07T10:09:43.699Z</time></trkpt><trkpt lat="46.1084334" lon="9.3197016"><ele>213.0</ele><time>2026-04-07T10:09:44.699Z</time></trkpt><trkpt lat="46.1083495" lon="9.3197229"><ele>213.0</ele><time>2026-04-07T10:09:45.701Z</time></trkpt><trkpt lat="46.1082563" lon="9.3197546"><ele>213.0</ele><time>2026-04-07T10:09:46.699Z</time></trkpt><trkpt lat="46.1081668" lon="9.3197863"><ele>213.0</ele><time>2026-04-07T10:09:47.7Z</time></trkpt><trkpt lat="46.1080784" lon="9.3198196"><ele>213.0</ele><time>2026-04-07T10:09:48.699Z</time></trkpt><trkpt lat="46.10798" lon="9.3198467"><ele>215.8</ele><time>2026-04-07T10:09:49.7Z</time></trkpt><trkpt lat="46.1078871" lon="9.3198689"><ele>218.60000000000002</ele><time>2026-04-07T10:09:50.7Z</time></trkpt><trkpt lat="46.1077836" lon="9.319871"><ele>221.39999999999998</ele><time>2026-04-07T10:09:51.7Z</time></trkpt><trkpt lat="46.1076899" lon="9.3199042"><ele>224.2</ele><time>2026-04-07T10:09:52.7Z</time></trkpt><trkpt lat="46.107603" lon="9.3199322"><ele>227.0</ele><time>2026-04-07T10:09:53.7Z</time></trkpt><trkpt lat="46.1075169" lon="9.3199627"><ele>227.0</ele><time>2026-04-07T10:09:54.7Z</time></trkpt><trkpt lat="46.1074236" lon="9.3199825"><ele>227.0</ele><time>2026-04-07T10:09:55.698Z</time></trkpt><trkpt lat="46.1073346" lon="9.3200066"><ele>227.0</ele><time>2026-04-07T10:09:56.7Z</time></trkpt><trkpt lat="46.1072493" lon="9.3200413"><ele>227.0</ele><time>2026-04-07T10:09:57.7Z</time></trkpt><trkpt lat="46.1071614" lon="9.3200711"><ele>227.0</ele><time>2026-04-07T10:09:58.699Z</time></trkpt><trkpt lat="46.1070672" lon="9.3201025"><ele>224.39999999999998</ele><time>2026-04-07T10:09:59.699Z</time></trkpt><trkpt lat="46.106977" lon="9.320149"><ele>221.79999999999998</ele><time>2026-04-07T10:10:00.7Z</time></trkpt><trkpt lat="46.1068905" lon="9.3202062"><ele>219.2</ele><time>2026-04-07T10:10:01.7Z</time></trkpt><trkpt lat="46.106803" lon="9.3202753"><ele>216.6</ele><time>2026-04-07T10:10:02.699Z</time></trkpt><trkpt lat="46.10672" lon="9.3203418"><ele>214.0</ele><time>2026-04-07T10:10:03.7Z</time></trkpt><trkpt lat="46.1066292" lon="9.3204187"><ele>214.2</ele><time>2026-04-07T10:10:04.7Z</time></trkpt><trkpt lat="46.1065502" lon="9.320487"><ele>214.39999999999998</ele><time>2026-04-07T10:10:05.699Z</time></trkpt><trkpt lat="46.1064674" lon="9.3205501"><ele>214.6</ele><time>2026-04-07T10:10:06.698Z</time></trkpt><trkpt lat="46.1063864" lon="9.3206134"><ele>214.8</ele><time>2026-04-07T10:10:07.7Z</time></trkpt><trkpt lat="46.1062992" lon="9.3206543"><ele>215.0</ele><time>2026-04-07T10:10:08.701Z</time></trkpt><trkpt lat="46.1062026" lon="9.3206857"><ele>215.0</ele><time>2026-04-07T10:10:09.7Z</time></trkpt><trkpt lat="46.1061123" lon="9.3207256"><ele>215.0</ele><time>2026-04-07T10:10:10.7Z</time></trkpt><trkpt lat="46.1060272" lon="9.320764"><ele>215.0</ele><time>2026-04-07T10:10:11.7Z</time></trkpt><trkpt lat="46.1059394" lon="9.3208064"><ele>215.0</ele><time>2026-04-07T10:10:12.699Z</time></trkpt><trkpt lat="46.1058503" lon="9.3208394"><ele>215.0</ele><time>2026-04-07T10:10:13.701Z</time></trkpt><trkpt lat="46.1057564" lon="9.320877"><ele>215.83333333333334</ele><time>2026-04-07T10:10:14.7Z</time></trkpt><trkpt lat="46.1056722" lon="9.3209138"><ele>216.66666666666669</ele><time>2026-04-07T10:10:15.7Z</time></trkpt><trkpt lat="46.1055875" lon="9.3209498"><ele>217.5</ele><time>2026-04-07T10:10:16.7Z</time></trkpt><trkpt lat="46.1055022" lon="9.3209873"><ele>218.33333333333331</ele><time>2026-04-07T10:10:17.7Z</time></trkpt><trkpt lat="46.1054135" lon="9.3210191"><ele>219.16666666666666</ele><time>2026-04-07T10:10:18.699Z</time></trkpt><trkpt lat="46.1053242" lon="9.3210463"><ele>220.0</ele><time>2026-04-07T10:10:19.699Z</time></trkpt><trkpt lat="46.1052407" lon="9.3210844"><ele>219.99999999999997</ele><time>2026-04-07T10:10:20.699Z</time></trkpt><trkpt lat="46.1051611" lon="9.3211135"><ele>220.0</ele><time>2026-04-07T10:10:21.699Z</time></trkpt><trkpt lat="46.1050744" lon="9.3211262"><ele>220.0</ele><time>2026-04-07T10:10:22.699Z</time></trkpt><trkpt lat="46.1049924" lon="9.3211356"><ele>220.0</ele><time>2026-04-07T10:10:23.7Z</time></trkpt><trkpt lat="46.1049038" lon="9.3211202"><ele>219.99999999999997</ele><time>2026-04-07T10:10:24.699Z</time></trkpt><trkpt lat="46.1048146" lon="9.3210967"><ele>220.0</ele><time>2026-04-07T10:10:25.7Z</time></trkpt><trkpt lat="46.1047329" lon="9.3210673"><ele>220.16666666666666</ele><time>2026-04-07T10:10:26.699Z</time></trkpt><trkpt lat="46.104649" lon="9.3210285"><ele>220.33333333333331</ele><time>2026-04-07T10:10:27.7Z</time></trkpt><trkpt lat="46.1045678" lon="9.3209895"><ele>220.5</ele><time>2026-04-07T10:10:28.7Z</time></trkpt><trkpt lat="46.1044872" lon="9.3209591"><ele>220.66666666666669</ele><time>2026-04-07T10:10:29.7Z</time></trkpt><trkpt lat="46.1044089" lon="9.320927"><ele>220.83333333333334</ele><time>2026-04-07T10:10:30.7Z</time></trkpt><trkpt lat="46.1043281" lon="9.3208805"><ele>221.0</ele><time>2026-04-07T10:10:31.7Z</time></trkpt><trkpt lat="46.1042519" lon="9.3208306"><ele>221.00000000000003</ele><time>2026-04-07T10:10:32.698Z</time></trkpt><trkpt lat="46.1041723" lon="9.3207649"><ele>221.0</ele><time>2026-04-07T10:10:33.699Z</time></trkpt><trkpt lat="46.1041013" lon="9.3207073"><ele>221.0</ele><time>2026-04-07T10:10:34.699Z</time></trkpt><trkpt lat="46.1040283" lon="9.3206545"><ele>221.0</ele><time>2026-04-07T10:10:35.698Z</time></trkpt><trkpt lat="46.1039625" lon="9.3205908"><ele>221.00000000000003</ele><time>2026-04-07T10:10:36.7Z</time></trkpt><trkpt lat="46.1038897" lon="9.3205194"><ele>221.0</ele><time>2026-04-07T10:10:37.7Z</time></trkpt><trkpt lat="46.1038213" lon="9.3204537"><ele>219.85714285714286</ele><time>2026-04-07T10:10:38.7Z</time></trkpt><trkpt lat="46.1037423" lon="9.3203908"><ele>218.71428571428572</ele><time>2026-04-07T10:10:39.701Z</time></trkpt><trkpt lat="46.103681" lon="9.320353"><ele>217.57142857142856</ele><time>2026-04-07T10:10:40.7Z</time></trkpt><trkpt lat="46.103615" lon="9.3202921"><ele>216.42857142857144</ele><time>2026-04-07T10:10:41.699Z</time></trkpt><trkpt lat="46.1035566" lon="9.3202405"><ele>215.28571428571428</ele><time>2026-04-07T10:10:42.7Z</time></trkpt><trkpt lat="46.103496" lon="9.3201979"><ele>214.14285714285714</ele><time>2026-04-07T10:10:43.7Z</time></trkpt><trkpt lat="46.1034315" lon="9.3201416"><ele>213.0</ele><time>2026-04-07T10:10:44.701Z</time></trkpt><trkpt lat="46.1033542" lon="9.3200833"><ele>213.0</ele><time>2026-04-07T10:10:45.701Z</time></trkpt><trkpt lat="46.1032917" lon="9.320029"><ele>213.0</ele><time>2026-04-07T10:10:46.7Z</time></trkpt><trkpt lat="46.1032253" lon="9.3199476"><ele>213.0</ele><time>2026-04-07T10:10:47.7Z</time></trkpt><trkpt lat="46.1031617" lon="9.3198769"><ele>213.0</ele><time>2026-04-07T10:10:48.698Z</time></trkpt><trkpt lat="46.1030994" lon="9.319828"><ele>213.0</ele><time>2026-04-07T10:10:49.701Z</time></trkpt><trkpt lat="46.1030407" lon="9.3197663"><ele>213.0</ele><time>2026-04-07T10:10:50.7Z</time></trkpt><trkpt lat="46.1029762" lon="9.3197119"><ele>214.0</ele><time>2026-04-07T10:10:51.7Z</time></trkpt><trkpt lat="46.1029049" lon="9.3196639"><ele>215.0</ele><time>2026-04-07T10:10:52.7Z</time></trkpt><trkpt lat="46.1028389" lon="9.3196159"><ele>216.0</ele><time>2026-04-07T10:10:53.7Z</time></trkpt><trkpt lat="46.1027743" lon="9.3195649"><ele>217.0</ele><time>2026-04-07T10:10:54.7Z</time></trkpt><trkpt lat="46.1027091" lon="9.3195142"><ele>218.0</ele><time>2026-04-07T10:10:55.701Z</time></trkpt><trkpt lat="46.1026443" lon="9.3194635"><ele>219.0</ele><time>2026-04-07T10:10:56.7Z</time></trkpt><trkpt lat="46.1025785" lon="9.3194056"><ele>219.0</ele><time>2026-04-07T10:10:57.7Z</time></trkpt><trkpt lat="46.1025102" lon="9.319354"><ele>219.0</ele><time>2026-04-07T10:10:58.699Z</time></trkpt><trkpt lat="46.102445" lon="9.3192987"><ele>219.0</ele><time>2026-04-07T10:10:59.698Z</time></trkpt><trkpt lat="46.1023818" lon="9.3192341"><ele>219.0</ele><time>2026-04-07T10:11:00.701Z</time></trkpt><trkpt lat="46.1023176" lon="9.3191686"><ele>219.0</ele><time>2026-04-07T10:11:01.699Z</time></trkpt><trkpt lat="46.1022126" lon="9.3190747"><ele>219.0</ele><time>2026-04-07T10:11:03.701Z</time></trkpt><trkpt lat="46.102163" lon="9.3190021"><ele>219.0</ele><time>2026-04-07T10:11:04.7Z</time></trkpt><trkpt lat="46.10213" lon="9.3188904"><ele>219.0</ele><time>2026-04-07T10:11:05.7Z</time></trkpt><trkpt lat="46.1020876" lon="9.3188133"><ele>219.0</ele><time>2026-04-07T10:11:06.7Z</time></trkpt><trkpt lat="46.1020486" lon="9.3187272"><ele>219.0</ele><time>2026-04-07T10:11:07.7Z</time></trkpt><trkpt lat="46.1020062" lon="9.3186486"><ele>219.0</ele><time>2026-04-07T10:11:08.7Z</time></trkpt><trkpt lat="46.1019598" lon="9.3185832"><ele>219.0</ele><time>2026-04-07T10:11:09.7Z</time></trkpt><trkpt lat="46.1019079" lon="9.3185252"><ele>219.0</ele><time>2026-04-07T10:11:10.7Z</time></trkpt><trkpt lat="46.1018009" lon="9.3184199"><ele>219.0</ele><time>2026-04-07T10:11:12.7Z</time></trkpt><trkpt lat="46.1017478" lon="9.3183652"><ele>218.99999999999997</ele><time>2026-04-07T10:11:13.699Z</time></trkpt><trkpt lat="46.1016864" lon="9.3182891"><ele>218.99999999999997</ele><time>2026-04-07T10:11:14.701Z</time></trkpt><trkpt lat="46.1015841" lon="9.3182102"><ele>219.0</ele><time>2026-04-07T10:11:16.701Z</time></trkpt><trkpt lat="46.1014745" lon="9.3181325"><ele>219.0</ele><time>2026-04-07T10:11:18.7Z</time></trkpt><trkpt lat="46.1013606" lon="9.3180576"><ele>218.83333333333334</ele><time>2026-04-07T10:11:20.7Z</time></trkpt><trkpt lat="46.1012943" lon="9.3180064"><ele>218.66666666666669</ele><time>2026-04-07T10:11:21.7Z</time></trkpt><trkpt lat="46.1012279" lon="9.3179584"><ele>218.5</ele><time>2026-04-07T10:11:22.7Z</time></trkpt><trkpt lat="46.1011656" lon="9.3179168"><ele>218.33333333333334</ele><time>2026-04-07T10:11:23.699Z</time></trkpt><trkpt lat="46.1011074" lon="9.3178665"><ele>218.16666666666669</ele><time>2026-04-07T10:11:24.7Z</time></trkpt><trkpt lat="46.1010093" lon="9.3177696"><ele>218.0</ele><time>2026-04-07T10:11:26.7Z</time></trkpt><trkpt lat="46.1009059" lon="9.3177281"><ele>218.0</ele><time>2026-04-07T10:11:28.7Z</time></trkpt><trkpt lat="46.1008486" lon="9.3176872"><ele>218.0</ele><time>2026-04-07T10:11:29.699Z</time></trkpt><trkpt lat="46.1007456" lon="9.317607"><ele>218.0</ele><time>2026-04-07T10:11:31.698Z</time></trkpt><trkpt lat="46.1006382" lon="9.3175403"><ele>218.0</ele><time>2026-04-07T10:11:33.7Z</time></trkpt><trkpt lat="46.1005282" lon="9.3174644"><ele>218.0</ele><time>2026-04-07T10:11:35.7Z</time></trkpt><trkpt lat="46.1004696" lon="9.3174295"><ele>219.60000000000002</ele><time>2026-04-07T10:11:36.7Z</time></trkpt><trkpt lat="46.100373" lon="9.3173633"><ele>221.20000000000002</ele><time>2026-04-07T10:11:38.7Z</time></trkpt><trkpt lat="46.1003117" lon="9.3173148"><ele>222.8</ele><time>2026-04-07T10:11:39.7Z</time></trkpt><trkpt lat="46.1001975" lon="9.3172383"><ele>224.4</ele><time>2026-04-07T10:11:41.701Z</time></trkpt><trkpt lat="46.1001307" lon="9.317199"><ele>226.0</ele><time>2026-04-07T10:11:42.7Z</time></trkpt><trkpt lat="46.1000329" lon="9.3171341"><ele>222.99999999999997</ele><time>2026-04-07T10:11:44.7Z</time></trkpt><trkpt lat="46.09997" lon="9.3171113"><ele>220.0</ele><time>2026-04-07T10:11:45.701Z</time></trkpt><trkpt lat="46.0998641" lon="9.317087"><ele>217.0</ele><time>2026-04-07T10:11:47.7Z</time></trkpt><trkpt lat="46.0997662" lon="9.3170682"><ele>214.0</ele><time>2026-04-07T10:11:49.699Z</time></trkpt><trkpt lat="46.0996726" lon="9.3170666"><ele>210.99999999999997</ele><time>2026-04-07T10:11:51.699Z</time></trkpt><trkpt lat="46.0996022" lon="9.3170684"><ele>208.0</ele><time>2026-04-07T10:11:52.698Z</time></trkpt><trkpt lat="46.0995324" lon="9.3170742"><ele>208.2</ele><time>2026-04-07T10:11:53.698Z</time></trkpt><trkpt lat="46.0994684" lon="9.3170783"><ele>208.4</ele><time>2026-04-07T10:11:54.699Z</time></trkpt><trkpt lat="46.0993471" lon="9.3170845"><ele>208.6</ele><time>2026-04-07T10:11:56.699Z</time></trkpt><trkpt lat="46.0992255" lon="9.3170845"><ele>208.79999999999998</ele><time>2026-04-07T10:11:58.699Z</time></trkpt><trkpt lat="46.0991026" lon="9.3170865"><ele>209.0</ele><time>2026-04-07T10:12:00.698Z</time></trkpt><trkpt lat="46.098975" lon="9.3170846"><ele>209.0</ele><time>2026-04-07T10:12:02.7Z</time></trkpt><trkpt lat="46.0987808" lon="9.3170874"><ele>209.0</ele><time>2026-04-07T10:12:05.701Z</time></trkpt><trkpt lat="46.0987098" lon="9.3170897"><ele>209.0</ele><time>2026-04-07T10:12:06.7Z</time></trkpt><trkpt lat="46.0986444" lon="9.3170918"><ele>209.0</ele><time>2026-04-07T10:12:07.701Z</time></trkpt><trkpt lat="46.0985776" lon="9.3170974"><ele>209.0</ele><time>2026-04-07T10:12:08.699Z</time></trkpt><trkpt lat="46.0985091" lon="9.3170953"><ele>209.0</ele><time>2026-04-07T10:12:09.7Z</time></trkpt><trkpt lat="46.0983831" lon="9.317095"><ele>209.0</ele><time>2026-04-07T10:12:11.702Z</time></trkpt><trkpt lat="46.0983195" lon="9.3170801"><ele>209.0</ele><time>2026-04-07T10:12:12.7Z</time></trkpt><trkpt lat="46.0982023" lon="9.3170825"><ele>209.0</ele><time>2026-04-07T10:12:14.699Z</time></trkpt><trkpt lat="46.0981236" lon="9.3170539"><ele>209.0</ele><time>2026-04-07T10:12:15.699Z</time></trkpt><trkpt lat="46.0980057" lon="9.317027"><ele>210.33333333333334</ele><time>2026-04-07T10:12:17.7Z</time></trkpt><trkpt lat="46.0979373" lon="9.3169962"><ele>211.66666666666669</ele><time>2026-04-07T10:12:18.699Z</time></trkpt><trkpt lat="46.0978165" lon="9.3169176"><ele>213.0</ele><time>2026-04-07T10:12:20.699Z</time></trkpt><trkpt lat="46.0977523" lon="9.3168691"><ele>214.33333333333331</ele><time>2026-04-07T10:12:21.699Z</time></trkpt><trkpt lat="46.0976907" lon="9.3168228"><ele>215.66666666666666</ele><time>2026-04-07T10:12:22.699Z</time></trkpt><trkpt lat="46.0976292" lon="9.3167728"><ele>217.0</ele><time>2026-04-07T10:12:23.7Z</time></trkpt><trkpt lat="46.0975693" lon="9.3167172"><ele>217.0</ele><time>2026-04-07T10:12:24.701Z</time></trkpt><trkpt lat="46.0974422" lon="9.3166183"><ele>217.0</ele><time>2026-04-07T10:12:26.701Z</time></trkpt><trkpt lat="46.0973797" lon="9.3165797"><ele>217.0</ele><time>2026-04-07T10:12:27.701Z</time></trkpt><trkpt lat="46.0972656" lon="9.3165283"><ele>217.0</ele><time>2026-04-07T10:12:29.701Z</time></trkpt><trkpt lat="46.0971361" lon="9.3165076"><ele>218.0</ele><time>2026-04-07T10:12:31.7Z</time></trkpt><trkpt lat="46.0970186" lon="9.3165038"><ele>219.0</ele><time>2026-04-07T10:12:33.701Z</time></trkpt><trkpt lat="46.0969485" lon="9.3165111"><ele>220.0</ele><time>2026-04-07T10:12:34.7Z</time></trkpt><trkpt lat="46.0968363" lon="9.3165354"><ele>221.0</ele><time>2026-04-07T10:12:36.7Z</time></trkpt><trkpt lat="46.0967742" lon="9.3165613"><ele>222.0</ele><time>2026-04-07T10:12:37.7Z</time></trkpt><trkpt lat="46.0966543" lon="9.31661"><ele>222.28571428571428</ele><time>2026-04-07T10:12:39.7Z</time></trkpt><trkpt lat="46.0965859" lon="9.3166278"><ele>222.57142857142858</ele><time>2026-04-07T10:12:40.7Z</time></trkpt><trkpt lat="46.0965205" lon="9.3166386"><ele>222.85714285714286</ele><time>2026-04-07T10:12:41.7Z</time></trkpt><trkpt lat="46.0964566" lon="9.3166461"><ele>223.14285714285714</ele><time>2026-04-07T10:12:42.7Z</time></trkpt><trkpt lat="46.096393" lon="9.3166266"><ele>223.42857142857144</ele><time>2026-04-07T10:12:43.7Z</time></trkpt><trkpt lat="46.0963297" lon="9.316608"><ele>223.71428571428572</ele><time>2026-04-07T10:12:44.699Z</time></trkpt><trkpt lat="46.0962603" lon="9.3165897"><ele>224.0</ele><time>2026-04-07T10:12:45.7Z</time></trkpt><trkpt lat="46.096192" lon="9.3165674"><ele>224.00000000000003</ele><time>2026-04-07T10:12:46.7Z</time></trkpt><trkpt lat="46.0961215" lon="9.3165452"><ele>224.0</ele><time>2026-04-07T10:12:47.7Z</time></trkpt><trkpt lat="46.0960576" lon="9.316519"><ele>224.0</ele><time>2026-04-07T10:12:48.7Z</time></trkpt><trkpt lat="46.0959874" lon="9.3164983"><ele>224.0</ele><time>2026-04-07T10:12:49.7Z</time></trkpt><trkpt lat="46.0958604" lon="9.3164583"><ele>224.00000000000003</ele><time>2026-04-07T10:12:51.7Z</time></trkpt><trkpt lat="46.0957896" lon="9.3164384"><ele>224.0</ele><time>2026-04-07T10:12:52.699Z</time></trkpt><trkpt lat="46.0957217" lon="9.3164083"><ele>222.79999999999998</ele><time>2026-04-07T10:12:53.699Z</time></trkpt><trkpt lat="46.0956544" lon="9.316389"><ele>221.59999999999997</ele><time>2026-04-07T10:12:54.699Z</time></trkpt><trkpt lat="46.0955319" lon="9.3163452"><ele>220.4</ele><time>2026-04-07T10:12:56.7Z</time></trkpt><trkpt lat="46.0954671" lon="9.3163164"><ele>219.2</ele><time>2026-04-07T10:12:57.7Z</time></trkpt><trkpt lat="46.0954062" lon="9.3162865"><ele>218.0</ele><time>2026-04-07T10:12:58.701Z</time></trkpt><trkpt lat="46.0952869" lon="9.3162369"><ele>218.0</ele><time>2026-04-07T10:13:00.699Z</time></trkpt><trkpt lat="46.0952265" lon="9.3161991"><ele>218.0</ele><time>2026-04-07T10:13:01.7Z</time></trkpt><trkpt lat="46.095169" lon="9.3161434"><ele>218.0</ele><time>2026-04-07T10:13:02.7Z</time></trkpt><trkpt lat="46.0950781" lon="9.3160354"><ele>218.0</ele><time>2026-04-07T10:13:04.7Z</time></trkpt><trkpt lat="46.09499" lon="9.3159204"><ele>218.0</ele><time>2026-04-07T10:13:06.7Z</time></trkpt><trkpt lat="46.0949048" lon="9.3157859"><ele>219.16666666666669</ele><time>2026-04-07T10:13:08.7Z</time></trkpt><trkpt lat="46.0948554" lon="9.3157142"><ele>220.33333333333334</ele><time>2026-04-07T10:13:09.7Z</time></trkpt><trkpt lat="46.0948086" lon="9.3156461"><ele>221.5</ele><time>2026-04-07T10:13:10.701Z</time></trkpt><trkpt lat="46.0947121" lon="9.3155082"><ele>222.66666666666669</ele><time>2026-04-07T10:13:12.699Z</time></trkpt><trkpt lat="46.0946674" lon="9.3154345"><ele>223.83333333333334</ele><time>2026-04-07T10:13:13.701Z</time></trkpt><trkpt lat="46.0946151" lon="9.3153592"><ele>225.0</ele><time>2026-04-07T10:13:14.7Z</time></trkpt><trkpt lat="46.0945712" lon="9.3152808"><ele>225.00000000000003</ele><time>2026-04-07T10:13:15.701Z</time></trkpt><trkpt lat="46.0945246" lon="9.3152189"><ele>225.0</ele><time>2026-04-07T10:13:16.7Z</time></trkpt><trkpt lat="46.0944721" lon="9.3151387"><ele>225.00000000000003</ele><time>2026-04-07T10:13:17.699Z</time></trkpt><trkpt lat="46.0944226" lon="9.315065"><ele>225.00000000000003</ele><time>2026-04-07T10:13:18.699Z</time></trkpt><trkpt lat="46.0943778" lon="9.3149865"><ele>225.0</ele><time>2026-04-07T10:13:19.701Z</time></trkpt><trkpt lat="46.0943265" lon="9.3149109"><ele>225.00000000000003</ele><time>2026-04-07T10:13:20.7Z</time></trkpt><trkpt lat="46.0942805" lon="9.3148407"><ele>225.00000000000003</ele><time>2026-04-07T10:13:21.7Z</time></trkpt><trkpt lat="46.0942285" lon="9.3147724"><ele>226.33333333333334</ele><time>2026-04-07T10:13:22.702Z</time></trkpt><trkpt lat="46.0941806" lon="9.3147006"><ele>227.66666666666669</ele><time>2026-04-07T10:13:23.699Z</time></trkpt><trkpt lat="46.0941356" lon="9.3146312"><ele>229.0</ele><time>2026-04-07T10:13:24.7Z</time></trkpt><trkpt lat="46.0940886" lon="9.3145676"><ele>230.33333333333334</ele><time>2026-04-07T10:13:25.7Z</time></trkpt><trkpt lat="46.0940033" lon="9.3144431"><ele>231.66666666666669</ele><time>2026-04-07T10:13:27.699Z</time></trkpt><trkpt lat="46.0939195" lon="9.314323"><ele>233.0</ele><time>2026-04-07T10:13:29.699Z</time></trkpt><trkpt lat="46.093834" lon="9.3142279"><ele>233.0</ele><time>2026-04-07T10:13:31.7Z</time></trkpt><trkpt lat="46.0937496" lon="9.3141242"><ele>233.0</ele><time>2026-04-07T10:13:33.7Z</time></trkpt><trkpt lat="46.0937009" lon="9.314064"><ele>233.0</ele><time>2026-04-07T10:13:34.7Z</time></trkpt><trkpt lat="46.0935991" lon="9.3139837"><ele>233.0</ele><time>2026-04-07T10:13:36.7Z</time></trkpt><trkpt lat="46.0935081" lon="9.3139115"><ele>233.0</ele><time>2026-04-07T10:13:38.7Z</time></trkpt><trkpt lat="46.0934152" lon="9.3138236"><ele>232.0</ele><time>2026-04-07T10:13:40.701Z</time></trkpt><trkpt lat="46.0933176" lon="9.3137454"><ele>231.0</ele><time>2026-04-07T10:13:42.7Z</time></trkpt><trkpt lat="46.0932302" lon="9.3136526"><ele>230.0</ele><time>2026-04-07T10:13:44.7Z</time></trkpt><trkpt lat="46.0931444" lon="9.3135876"><ele>229.0</ele><time>2026-04-07T10:13:46.7Z</time></trkpt><trkpt lat="46.0930604" lon="9.3135285"><ele>228.0</ele><time>2026-04-07T10:13:48.7Z</time></trkpt><trkpt lat="46.0929745" lon="9.3134764"><ele>228.0</ele><time>2026-04-07T10:13:50.699Z</time></trkpt><trkpt lat="46.0928894" lon="9.3134183"><ele>228.0</ele><time>2026-04-07T10:13:52.7Z</time></trkpt><trkpt lat="46.0928066" lon="9.3133549"><ele>228.0</ele><time>2026-04-07T10:13:54.701Z</time></trkpt><trkpt lat="46.0927192" lon="9.3132659"><ele>228.0</ele><time>2026-04-07T10:13:56.699Z</time></trkpt><trkpt lat="46.0926438" lon="9.3131918"><ele>228.0</ele><time>2026-04-07T10:13:58.7Z</time></trkpt><trkpt lat="46.092568" lon="9.3131327"><ele>228.0</ele><time>2026-04-07T10:14:00.699Z</time></trkpt><trkpt lat="46.0924813" lon="9.3130766"><ele>228.0</ele><time>2026-04-07T10:14:02.701Z</time></trkpt><trkpt lat="46.0924054" lon="9.3130368"><ele>228.0</ele><time>2026-04-07T10:14:04.7Z</time></trkpt><trkpt lat="46.0923305" lon="9.3129856"><ele>228.0</ele><time>2026-04-07T10:14:06.699Z</time></trkpt><trkpt lat="46.0922512" lon="9.3129342"><ele>228.0</ele><time>2026-04-07T10:14:08.7Z</time></trkpt><trkpt lat="46.092178" lon="9.3128789"><ele>228.0</ele><time>2026-04-07T10:14:10.701Z</time></trkpt><trkpt lat="46.0921052" lon="9.3128264"><ele>227.66666666666666</ele><time>2026-04-07T10:14:12.701Z</time></trkpt><trkpt lat="46.0920359" lon="9.3127759"><ele>227.33333333333331</ele><time>2026-04-07T10:14:14.7Z</time></trkpt><trkpt lat="46.0919636" lon="9.3127206"><ele>227.0</ele><time>2026-04-07T10:14:16.7Z</time></trkpt><trkpt lat="46.0918879" lon="9.3126666"><ele>226.66666666666666</ele><time>2026-04-07T10:14:18.701Z</time></trkpt><trkpt lat="46.0918144" lon="9.3126324"><ele>226.33333333333331</ele><time>2026-04-07T10:14:20.7Z</time></trkpt><trkpt lat="46.0917383" lon="9.3126083"><ele>226.0</ele><time>2026-04-07T10:14:22.701Z</time></trkpt><trkpt lat="46.0916655" lon="9.3125884"><ele>225.99999999999997</ele><time>2026-04-07T10:14:24.7Z</time></trkpt><trkpt lat="46.0915944" lon="9.3125642"><ele>226.0</ele><time>2026-04-07T10:14:26.7Z</time></trkpt><trkpt lat="46.0915233" lon="9.3125401"><ele>226.0</ele><time>2026-04-07T10:14:28.7Z</time></trkpt><trkpt lat="46.0914494" lon="9.3125035"><ele>226.0</ele><time>2026-04-07T10:14:30.699Z</time></trkpt><trkpt lat="46.0913726" lon="9.3124637"><ele>225.99999999999997</ele><time>2026-04-07T10:14:32.7Z</time></trkpt><trkpt lat="46.0913046" lon="9.3123972"><ele>226.0</ele><time>2026-04-07T10:14:34.7Z</time></trkpt><trkpt lat="46.091243" lon="9.3123311"><ele>225.49999999999997</ele><time>2026-04-07T10:14:36.699Z</time></trkpt><trkpt lat="46.0911874" lon="9.3122824"><ele>225.0</ele><time>2026-04-07T10:14:38.701Z</time></trkpt><trkpt lat="46.0911228" lon="9.3122321"><ele>224.5</ele><time>2026-04-07T10:14:40.7Z</time></trkpt><trkpt lat="46.0910489" lon="9.312168"><ele>224.0</ele><time>2026-04-07T10:14:42.7Z</time></trkpt><trkpt lat="46.0909818" lon="9.3120962"><ele>223.49999999999997</ele><time>2026-04-07T10:14:44.7Z</time></trkpt><trkpt lat="46.0909188" lon="9.312025"><ele>223.0</ele><time>2026-04-07T10:14:46.701Z</time></trkpt><trkpt lat="46.0908495" lon="9.3119495"><ele>222.99999999999997</ele><time>2026-04-07T10:14:48.701Z</time></trkpt><trkpt lat="46.0907855" lon="9.3118851"><ele>223.0</ele><time>2026-04-07T10:14:50.701Z</time></trkpt><trkpt lat="46.0907206" lon="9.3118399"><ele>223.0</ele><time>2026-04-07T10:14:52.701Z</time></trkpt><trkpt lat="46.0906479" lon="9.311797"><ele>223.0</ele><time>2026-04-07T10:14:54.7Z</time></trkpt><trkpt lat="46.0905686" lon="9.3117575"><ele>222.99999999999997</ele><time>2026-04-07T10:14:56.701Z</time></trkpt><trkpt lat="46.0904894" lon="9.3117234"><ele>223.0</ele><time>2026-04-07T10:14:58.701Z</time></trkpt><trkpt lat="46.0904108" lon="9.3116909"><ele>226.16666666666666</ele><time>2026-04-07T10:15:00.7Z</time></trkpt><trkpt lat="46.0903373" lon="9.3116673"><ele>229.33333333333331</ele><time>2026-04-07T10:15:02.7Z</time></trkpt><trkpt lat="46.0902598" lon="9.3116413"><ele>232.5</ele><time>2026-04-07T10:15:04.7Z</time></trkpt><trkpt lat="46.0901763" lon="9.3116084"><ele>235.66666666666669</ele><time>2026-04-07T10:15:06.699Z</time></trkpt><trkpt lat="46.0900932" lon="9.3115727"><ele>238.83333333333334</ele><time>2026-04-07T10:15:08.7Z</time></trkpt><trkpt lat="46.0900113" lon="9.311531"><ele>242.0</ele><time>2026-04-07T10:15:10.7Z</time></trkpt><trkpt lat="46.0899389" lon="9.3114992"><ele>241.83333333333334</ele><time>2026-04-07T10:15:12.699Z</time></trkpt><trkpt lat="46.0898634" lon="9.3114783"><ele>241.66666666666669</ele><time>2026-04-07T10:15:14.701Z</time></trkpt><trkpt lat="46.0897748" lon="9.3114535"><ele>241.5</ele><time>2026-04-07T10:15:16.699Z</time></trkpt><trkpt lat="46.0896935" lon="9.3114187"><ele>241.33333333333331</ele><time>2026-04-07T10:15:18.699Z</time></trkpt><trkpt lat="46.0896131" lon="9.3114013"><ele>241.16666666666666</ele><time>2026-04-07T10:15:20.701Z</time></trkpt><trkpt lat="46.0895245" lon="9.3113837"><ele>241.0</ele><time>2026-04-07T10:15:22.701Z</time></trkpt><trkpt lat="46.0894346" lon="9.3114004"><ele>241.0</ele><time>2026-04-07T10:15:24.7Z</time></trkpt><trkpt lat="46.0893477" lon="9.3114092"><ele>241.00000000000003</ele><time>2026-04-07T10:15:26.701Z</time></trkpt><trkpt lat="46.0892308" lon="9.3113901"><ele>241.00000000000003</ele><time>2026-04-07T10:15:28.7Z</time></trkpt><trkpt lat="46.0891168" lon="9.3113601"><ele>241.0</ele><time>2026-04-07T10:15:30.702Z</time></trkpt><trkpt lat="46.0890426" lon="9.311345"><ele>241.0</ele><time>2026-04-07T10:15:31.702Z</time></trkpt><trkpt lat="46.0889784" lon="9.311327"><ele>238.49999999999997</ele><time>2026-04-07T10:15:32.7Z</time></trkpt><trkpt lat="46.088916" lon="9.31127"><ele>236.0</ele><time>2026-04-07T10:15:33.702Z</time></trkpt><trkpt lat="46.0888188" lon="9.3112601"><ele>233.5</ele><time>2026-04-07T10:15:34.701Z</time></trkpt><trkpt lat="46.0887406" lon="9.3112212"><ele>231.0</ele><time>2026-04-07T10:15:35.7Z</time></trkpt><trkpt lat="46.088668" lon="9.3111707"><ele>228.49999999999997</ele><time>2026-04-07T10:15:36.7Z</time></trkpt><trkpt lat="46.088587" lon="9.3111143"><ele>226.0</ele><time>2026-04-07T10:15:37.702Z</time></trkpt><trkpt lat="46.0885147" lon="9.3110433"><ele>226.0</ele><time>2026-04-07T10:15:38.701Z</time></trkpt><trkpt lat="46.0884336" lon="9.3109963"><ele>226.00000000000003</ele><time>2026-04-07T10:15:39.701Z</time></trkpt><trkpt lat="46.0883571" lon="9.3109107"><ele>226.00000000000003</ele><time>2026-04-07T10:15:40.701Z</time></trkpt><trkpt lat="46.0882697" lon="9.3108388"><ele>226.0</ele><time>2026-04-07T10:15:41.7Z</time></trkpt><trkpt lat="46.0881821" lon="9.3107745"><ele>226.0</ele><time>2026-04-07T10:15:42.699Z</time></trkpt><trkpt lat="46.0880873" lon="9.3107004"><ele>228.20000000000002</ele><time>2026-04-07T10:15:43.701Z</time></trkpt><trkpt lat="46.088006" lon="9.3106299"><ele>230.40000000000003</ele><time>2026-04-07T10:15:44.7Z</time></trkpt><trkpt lat="46.0879308" lon="9.3105571"><ele>232.6</ele><time>2026-04-07T10:15:45.701Z</time></trkpt><trkpt lat="46.0878424" lon="9.3104794"><ele>234.8</ele><time>2026-04-07T10:15:46.702Z</time></trkpt><trkpt lat="46.0877542" lon="9.3104097"><ele>237.0</ele><time>2026-04-07T10:15:47.702Z</time></trkpt><trkpt lat="46.0876661" lon="9.3103427"><ele>233.2</ele><time>2026-04-07T10:15:48.701Z</time></trkpt><trkpt lat="46.0875903" lon="9.3102937"><ele>229.39999999999998</ele><time>2026-04-07T10:15:49.7Z</time></trkpt><trkpt lat="46.0874989" lon="9.3102239"><ele>225.60000000000002</ele><time>2026-04-07T10:15:50.7Z</time></trkpt><trkpt lat="46.0874089" lon="9.3101363"><ele>221.8</ele><time>2026-04-07T10:15:51.7Z</time></trkpt><trkpt lat="46.0873197" lon="9.3100704"><ele>218.0</ele><time>2026-04-07T10:15:52.701Z</time></trkpt><trkpt lat="46.0872283" lon="9.3099988"><ele>218.0</ele><time>2026-04-07T10:15:53.701Z</time></trkpt><trkpt lat="46.0871377" lon="9.3099411"><ele>218.0</ele><time>2026-04-07T10:15:54.701Z</time></trkpt><trkpt lat="46.0870444" lon="9.3099335"><ele>218.0</ele><time>2026-04-07T10:15:55.701Z</time></trkpt><trkpt lat="46.0869521" lon="9.3099402"><ele>218.0</ele><time>2026-04-07T10:15:56.7Z</time></trkpt><trkpt lat="46.0868611" lon="9.3099483"><ele>218.0</ele><time>2026-04-07T10:15:57.701Z</time></trkpt><trkpt lat="46.0867629" lon="9.3099666"><ele>218.0</ele><time>2026-04-07T10:15:58.701Z</time></trkpt><trkpt lat="46.086677" lon="9.3099842"><ele>218.0</ele><time>2026-04-07T10:15:59.7Z</time></trkpt><trkpt lat="46.0865796" lon="9.3099975"><ele>218.0</ele><time>2026-04-07T10:16:00.699Z</time></trkpt><trkpt lat="46.0864862" lon="9.3100308"><ele>218.0</ele><time>2026-04-07T10:16:01.7Z</time></trkpt><trkpt lat="46.0863999" lon="9.3100579"><ele>218.0</ele><time>2026-04-07T10:16:02.701Z</time></trkpt><trkpt lat="46.0863132" lon="9.3100791"><ele>216.00000000000003</ele><time>2026-04-07T10:16:03.701Z</time></trkpt><trkpt lat="46.0862325" lon="9.3101013"><ele>214.0</ele><time>2026-04-07T10:16:04.701Z</time></trkpt><trkpt lat="46.0861459" lon="9.310129"><ele>212.0</ele><time>2026-04-07T10:16:05.7Z</time></trkpt><trkpt lat="46.0860538" lon="9.3101578"><ele>210.0</ele><time>2026-04-07T10:16:06.701Z</time></trkpt><trkpt lat="46.0859676" lon="9.3102069"><ele>208.00000000000003</ele><time>2026-04-07T10:16:07.7Z</time></trkpt><trkpt lat="46.0858814" lon="9.3102367"><ele>206.0</ele><time>2026-04-07T10:16:08.701Z</time></trkpt><trkpt lat="46.0857947" lon="9.3102766"><ele>205.50000000000003</ele><time>2026-04-07T10:16:09.7Z</time></trkpt><trkpt lat="46.0857137" lon="9.3103088"><ele>205.0</ele><time>2026-04-07T10:16:10.7Z</time></trkpt><trkpt lat="46.085622" lon="9.310342"><ele>204.5</ele><time>2026-04-07T10:16:11.7Z</time></trkpt><trkpt lat="46.08554" lon="9.3103861"><ele>204.0</ele><time>2026-04-07T10:16:12.701Z</time></trkpt><trkpt lat="46.0854594" lon="9.3104286"><ele>203.50000000000003</ele><time>2026-04-07T10:16:13.7Z</time></trkpt><trkpt lat="46.0853715" lon="9.3104753"><ele>203.0</ele><time>2026-04-07T10:16:14.701Z</time></trkpt><trkpt lat="46.0852789" lon="9.3105278"><ele>206.0</ele><time>2026-04-07T10:16:15.701Z</time></trkpt><trkpt lat="46.0851928" lon="9.3105784"><ele>209.0</ele><time>2026-04-07T10:16:16.701Z</time></trkpt><trkpt lat="46.0851059" lon="9.3106204"><ele>212.0</ele><time>2026-04-07T10:16:17.7Z</time></trkpt><trkpt lat="46.0850186" lon="9.3106654"><ele>215.0</ele><time>2026-04-07T10:16:18.701Z</time></trkpt><trkpt lat="46.0849344" lon="9.3107123"><ele>218.0</ele><time>2026-04-07T10:16:19.699Z</time></trkpt><trkpt lat="46.0848515" lon="9.3107587"><ele>218.00000000000003</ele><time>2026-04-07T10:16:20.699Z</time></trkpt><trkpt lat="46.0847698" lon="9.310796"><ele>218.0</ele><time>2026-04-07T10:16:21.701Z</time></trkpt><trkpt lat="46.0846926" lon="9.3108292"><ele>218.0</ele><time>2026-04-07T10:16:22.7Z</time></trkpt><trkpt lat="46.084614" lon="9.3108537"><ele>218.0</ele><time>2026-04-07T10:16:23.701Z</time></trkpt><trkpt lat="46.0845269" lon="9.3108746"><ele>218.00000000000003</ele><time>2026-04-07T10:16:24.7Z</time></trkpt><trkpt lat="46.0844473" lon="9.3108924"><ele>218.0</ele><time>2026-04-07T10:16:25.7Z</time></trkpt><trkpt lat="46.0843644" lon="9.3109133"><ele>218.00000000000003</ele><time>2026-04-07T10:16:26.7Z</time></trkpt><trkpt lat="46.0842741" lon="9.310934"><ele>218.0</ele><time>2026-04-07T10:16:27.701Z</time></trkpt><trkpt lat="46.0841905" lon="9.3109528"><ele>218.0</ele><time>2026-04-07T10:16:28.7Z</time></trkpt><trkpt lat="46.0841073" lon="9.3109767"><ele>218.0</ele><time>2026-04-07T10:16:29.7Z</time></trkpt><trkpt lat="46.0840147" lon="9.310997"><ele>218.00000000000003</ele><time>2026-04-07T10:16:30.701Z</time></trkpt><trkpt lat="46.0839339" lon="9.3110061"><ele>218.0</ele><time>2026-04-07T10:16:31.699Z</time></trkpt><trkpt lat="46.08385" lon="9.3110253"><ele>216.83333333333334</ele><time>2026-04-07T10:16:32.7Z</time></trkpt><trkpt lat="46.0837648" lon="9.311046"><ele>215.66666666666669</ele><time>2026-04-07T10:16:33.7Z</time></trkpt><trkpt lat="46.0836728" lon="9.3110713"><ele>214.5</ele><time>2026-04-07T10:16:34.7Z</time></trkpt><trkpt lat="46.0835881" lon="9.3110967"><ele>213.33333333333331</ele><time>2026-04-07T10:16:35.699Z</time></trkpt><trkpt lat="46.0835023" lon="9.311119"><ele>212.16666666666666</ele><time>2026-04-07T10:16:36.701Z</time></trkpt><trkpt lat="46.0834211" lon="9.3111431"><ele>211.0</ele><time>2026-04-07T10:16:37.701Z</time></trkpt><trkpt lat="46.08334" lon="9.3111629"><ele>210.16666666666666</ele><time>2026-04-07T10:16:38.699Z</time></trkpt><trkpt lat="46.0832584" lon="9.3111841"><ele>209.33333333333331</ele><time>2026-04-07T10:16:39.702Z</time></trkpt><trkpt lat="46.0831797" lon="9.3112077"><ele>208.5</ele><time>2026-04-07T10:16:40.701Z</time></trkpt><trkpt lat="46.083096" lon="9.3112329"><ele>207.66666666666669</ele><time>2026-04-07T10:16:41.701Z</time></trkpt><trkpt lat="46.0830228" lon="9.3112534"><ele>206.83333333333334</ele><time>2026-04-07T10:16:42.7Z</time></trkpt><trkpt lat="46.0829452" lon="9.3112719"><ele>206.0</ele><time>2026-04-07T10:16:43.7Z</time></trkpt><trkpt lat="46.0828735" lon="9.3112835"><ele>206.0</ele><time>2026-04-07T10:16:44.701Z</time></trkpt><trkpt lat="46.0827307" lon="9.3112703"><ele>206.0</ele><time>2026-04-07T10:16:46.701Z</time></trkpt><trkpt lat="46.0826576" lon="9.3112363"><ele>206.0</ele><time>2026-04-07T10:16:47.701Z</time></trkpt><trkpt lat="46.0825721" lon="9.3111895"><ele>206.0</ele><time>2026-04-07T10:16:48.701Z</time></trkpt><trkpt lat="46.0824981" lon="9.3111481"><ele>206.0</ele><time>2026-04-07T10:16:49.702Z</time></trkpt><trkpt lat="46.0824332" lon="9.3110876"><ele>207.16666666666669</ele><time>2026-04-07T10:16:50.701Z</time></trkpt><trkpt lat="46.0823646" lon="9.3110476"><ele>208.33333333333334</ele><time>2026-04-07T10:16:51.701Z</time></trkpt><trkpt lat="46.0822865" lon="9.3110059"><ele>209.5</ele><time>2026-04-07T10:16:52.7Z</time></trkpt><trkpt lat="46.0822068" lon="9.3109635"><ele>210.66666666666669</ele><time>2026-04-07T10:16:53.701Z</time></trkpt><trkpt lat="46.0821288" lon="9.3109287"><ele>211.83333333333334</ele><time>2026-04-07T10:16:54.7Z</time></trkpt><trkpt lat="46.0820483" lon="9.3109043"><ele>213.0</ele><time>2026-04-07T10:16:55.701Z</time></trkpt><trkpt lat="46.0819719" lon="9.3108925"><ele>212.99999999999997</ele><time>2026-04-07T10:16:56.702Z</time></trkpt><trkpt lat="46.0818994" lon="9.3108759"><ele>213.0</ele><time>2026-04-07T10:16:57.701Z</time></trkpt><trkpt lat="46.0818262" lon="9.3108612"><ele>213.0</ele><time>2026-04-07T10:16:58.7Z</time></trkpt><trkpt lat="46.0817518" lon="9.3108436"><ele>213.0</ele><time>2026-04-07T10:16:59.7Z</time></trkpt><trkpt lat="46.0816796" lon="9.3108265"><ele>213.0</ele><time>2026-04-07T10:17:00.702Z</time></trkpt><trkpt lat="46.0816068" lon="9.3108129"><ele>212.99999999999997</ele><time>2026-04-07T10:17:01.701Z</time></trkpt><trkpt lat="46.0815376" lon="9.3107961"><ele>213.0</ele><time>2026-04-07T10:17:02.699Z</time></trkpt><trkpt lat="46.0814718" lon="9.3107815"><ele>212.2</ele><time>2026-04-07T10:17:03.699Z</time></trkpt><trkpt lat="46.0814021" lon="9.3107474"><ele>211.4</ele><time>2026-04-07T10:17:04.7Z</time></trkpt><trkpt lat="46.0812895" lon="9.3106872"><ele>210.6</ele><time>2026-04-07T10:17:06.699Z</time></trkpt><trkpt lat="46.0812246" lon="9.3106591"><ele>209.79999999999998</ele><time>2026-04-07T10:17:07.701Z</time></trkpt><trkpt lat="46.0811059" lon="9.310578"><ele>209.0</ele><time>2026-04-07T10:17:09.701Z</time></trkpt><trkpt lat="46.0810416" lon="9.3105239"><ele>209.0</ele><time>2026-04-07T10:17:10.701Z</time></trkpt><trkpt lat="46.0809835" lon="9.3104631"><ele>209.0</ele><time>2026-04-07T10:17:11.701Z</time></trkpt><trkpt lat="46.0809165" lon="9.3103897"><ele>209.0</ele><time>2026-04-07T10:17:12.701Z</time></trkpt><trkpt lat="46.080866" lon="9.3103344"><ele>209.0</ele><time>2026-04-07T10:17:13.701Z</time></trkpt><trkpt lat="46.0808156" lon="9.3102611"><ele>209.0</ele><time>2026-04-07T10:17:14.7Z</time></trkpt><trkpt lat="46.0807702" lon="9.3101976"><ele>209.0</ele><time>2026-04-07T10:17:15.699Z</time></trkpt><trkpt lat="46.0807229" lon="9.3101191"><ele>209.0</ele><time>2026-04-07T10:17:16.7Z</time></trkpt><trkpt lat="46.0806768" lon="9.3100383"><ele>209.71428571428572</ele><time>2026-04-07T10:17:17.7Z</time></trkpt><trkpt lat="46.0806318" lon="9.3099549"><ele>210.42857142857142</ele><time>2026-04-07T10:17:18.7Z</time></trkpt><trkpt lat="46.0805927" lon="9.309852"><ele>211.14285714285717</ele><time>2026-04-07T10:17:19.702Z</time></trkpt><trkpt lat="46.0805543" lon="9.3097706"><ele>211.85714285714286</ele><time>2026-04-07T10:17:20.701Z</time></trkpt><trkpt lat="46.0805082" lon="9.3096933"><ele>212.57142857142858</ele><time>2026-04-07T10:17:21.702Z</time></trkpt><trkpt lat="46.0804704" lon="9.3096156"><ele>213.2857142857143</ele><time>2026-04-07T10:17:22.701Z</time></trkpt><trkpt lat="46.0804281" lon="9.3095448"><ele>214.0</ele><time>2026-04-07T10:17:23.702Z</time></trkpt><trkpt lat="46.0803923" lon="9.3094641"><ele>214.0</ele><time>2026-04-07T10:17:24.701Z</time></trkpt><trkpt lat="46.0803334" lon="9.309338"><ele>213.99999999999997</ele><time>2026-04-07T10:17:26.7Z</time></trkpt><trkpt lat="46.0802925" lon="9.3092627"><ele>213.99999999999997</ele><time>2026-04-07T10:17:27.7Z</time></trkpt><trkpt lat="46.0802547" lon="9.3091839"><ele>214.0</ele><time>2026-04-07T10:17:28.7Z</time></trkpt><trkpt lat="46.0801889" lon="9.3090481"><ele>214.0</ele><time>2026-04-07T10:17:30.7Z</time></trkpt><trkpt lat="46.0801227" lon="9.3089069"><ele>213.79999999999998</ele><time>2026-04-07T10:17:32.701Z</time></trkpt><trkpt lat="46.0800953" lon="9.3088081"><ele>213.59999999999997</ele><time>2026-04-07T10:17:33.7Z</time></trkpt><trkpt lat="46.0800185" lon="9.308679"><ele>213.4</ele><time>2026-04-07T10:17:35.701Z</time></trkpt><trkpt lat="46.0799562" lon="9.3085355"><ele>213.2</ele><time>2026-04-07T10:17:37.7Z</time></trkpt><trkpt lat="46.0798926" lon="9.308397"><ele>213.0</ele><time>2026-04-07T10:17:39.7Z</time></trkpt><trkpt lat="46.0798214" lon="9.3082504"><ele>212.83333333333334</ele><time>2026-04-07T10:17:41.699Z</time></trkpt><trkpt lat="46.079774" lon="9.3081646"><ele>212.66666666666669</ele><time>2026-04-07T10:17:42.701Z</time></trkpt><trkpt lat="46.0797084" lon="9.3080171"><ele>212.5</ele><time>2026-04-07T10:17:44.701Z</time></trkpt><trkpt lat="46.0796725" lon="9.3079279"><ele>212.33333333333334</ele><time>2026-04-07T10:17:45.702Z</time></trkpt><trkpt lat="46.079634" lon="9.3078298"><ele>212.16666666666669</ele><time>2026-04-07T10:17:46.701Z</time></trkpt><trkpt lat="46.0795876" lon="9.3077408"><ele>212.0</ele><time>2026-04-07T10:17:47.701Z</time></trkpt><trkpt lat="46.0795127" lon="9.3076099"><ele>212.00000000000003</ele><time>2026-04-07T10:17:49.701Z</time></trkpt><trkpt lat="46.0794678" lon="9.3075438"><ele>212.0</ele><time>2026-04-07T10:17:50.7Z</time></trkpt><trkpt lat="46.0793985" lon="9.3074143"><ele>212.0</ele><time>2026-04-07T10:17:52.7Z</time></trkpt><trkpt lat="46.0793602" lon="9.3073407"><ele>212.0</ele><time>2026-04-07T10:17:53.7Z</time></trkpt><trkpt lat="46.0793249" lon="9.3072629"><ele>212.00000000000003</ele><time>2026-04-07T10:17:54.701Z</time></trkpt><trkpt lat="46.0792678" lon="9.3071287"><ele>212.0</ele><time>2026-04-07T10:17:56.7Z</time></trkpt><trkpt lat="46.0792016" lon="9.3069835"><ele>212.0</ele><time>2026-04-07T10:17:58.7Z</time></trkpt><trkpt lat="46.0791593" lon="9.3069021"><ele>212.0</ele><time>2026-04-07T10:17:59.702Z</time></trkpt><trkpt lat="46.0790995" lon="9.3067605"><ele>212.0</ele><time>2026-04-07T10:18:01.701Z</time></trkpt><trkpt lat="46.0790226" lon="9.3066167"><ele>212.0</ele><time>2026-04-07T10:18:03.7Z</time></trkpt><trkpt lat="46.0789605" lon="9.3064861"><ele>212.0</ele><time>2026-04-07T10:18:05.7Z</time></trkpt><trkpt lat="46.0788901" lon="9.3063675"><ele>212.6</ele><time>2026-04-07T10:18:07.701Z</time></trkpt><trkpt lat="46.078824" lon="9.3062469"><ele>213.2</ele><time>2026-04-07T10:18:09.701Z</time></trkpt><trkpt lat="46.0787654" lon="9.3061313"><ele>213.8</ele><time>2026-04-07T10:18:11.699Z</time></trkpt><trkpt lat="46.0787142" lon="9.3060474"><ele>214.4</ele><time>2026-04-07T10:18:13.702Z</time></trkpt><trkpt lat="46.0786629" lon="9.3059477"><ele>215.0</ele><time>2026-04-07T10:18:15.7Z</time></trkpt><trkpt lat="46.0786134" lon="9.3058265"><ele>215.0</ele><time>2026-04-07T10:18:17.701Z</time></trkpt><trkpt lat="46.0785281" lon="9.3057351"><ele>215.0</ele><time>2026-04-07T10:18:19.701Z</time></trkpt><trkpt lat="46.0784885" lon="9.3055994"><ele>215.0</ele><time>2026-04-07T10:18:21.702Z</time></trkpt><trkpt lat="46.0784261" lon="9.3054864"><ele>215.0</ele><time>2026-04-07T10:18:23.699Z</time></trkpt><trkpt lat="46.0783406" lon="9.3054106"><ele>215.0</ele><time>2026-04-07T10:18:25.699Z</time></trkpt><trkpt lat="46.0782636" lon="9.3052993"><ele>214.6</ele><time>2026-04-07T10:18:27.701Z</time></trkpt><trkpt lat="46.0781721" lon="9.3052055"><ele>214.2</ele><time>2026-04-07T10:18:29.7Z</time></trkpt><trkpt lat="46.0780915" lon="9.305122"><ele>213.8</ele><time>2026-04-07T10:18:31.701Z</time></trkpt><trkpt lat="46.0779991" lon="9.3050253"><ele>213.4</ele><time>2026-04-07T10:18:33.7Z</time></trkpt><trkpt lat="46.0779081" lon="9.3049456"><ele>213.0</ele><time>2026-04-07T10:18:35.7Z</time></trkpt><trkpt lat="46.0778003" lon="9.3048903"><ele>213.0</ele><time>2026-04-07T10:18:37.701Z</time></trkpt><trkpt lat="46.0777226" lon="9.3048388"><ele>213.0</ele><time>2026-04-07T10:18:39.701Z</time></trkpt><trkpt lat="46.0776366" lon="9.3047706"><ele>213.0</ele><time>2026-04-07T10:18:41.7Z</time></trkpt><trkpt lat="46.0775394" lon="9.304721"><ele>213.0</ele><time>2026-04-07T10:18:43.7Z</time></trkpt><trkpt lat="46.077441" lon="9.3046786"><ele>213.0</ele><time>2026-04-07T10:18:45.7Z</time></trkpt><trkpt lat="46.0773316" lon="9.3046387"><ele>212.4</ele><time>2026-04-07T10:18:47.7Z</time></trkpt><trkpt lat="46.0772357" lon="9.3046021"><ele>211.8</ele><time>2026-04-07T10:18:49.702Z</time></trkpt><trkpt lat="46.0771412" lon="9.3045923"><ele>211.2</ele><time>2026-04-07T10:18:51.701Z</time></trkpt><trkpt lat="46.0770336" lon="9.304565"><ele>210.6</ele><time>2026-04-07T10:18:53.701Z</time></trkpt><trkpt lat="46.0769235" lon="9.3045365"><ele>210.0</ele><time>2026-04-07T10:18:55.7Z</time></trkpt><trkpt lat="46.0768251" lon="9.3045115"><ele>210.0</ele><time>2026-04-07T10:18:57.7Z</time></trkpt><trkpt lat="46.0767207" lon="9.3044897"><ele>210.0</ele><time>2026-04-07T10:18:59.701Z</time></trkpt><trkpt lat="46.0766272" lon="9.3044515"><ele>210.0</ele><time>2026-04-07T10:19:01.701Z</time></trkpt><trkpt lat="46.0765277" lon="9.3044427"><ele>210.0</ele><time>2026-04-07T10:19:03.701Z</time></trkpt><trkpt lat="46.07643" lon="9.3044276"><ele>210.0</ele><time>2026-04-07T10:19:05.7Z</time></trkpt><trkpt lat="46.0763366" lon="9.3044084"><ele>210.2</ele><time>2026-04-07T10:19:07.701Z</time></trkpt><trkpt lat="46.0762378" lon="9.3043885"><ele>210.4</ele><time>2026-04-07T10:19:09.701Z</time></trkpt><trkpt lat="46.0761341" lon="9.3043786"><ele>210.60000000000002</ele><time>2026-04-07T10:19:11.7Z</time></trkpt><trkpt lat="46.0760255" lon="9.304359"><ele>210.8</ele><time>2026-04-07T10:19:13.701Z</time></trkpt><trkpt lat="46.0759122" lon="9.304361"><ele>211.0</ele><time>2026-04-07T10:19:15.699Z</time></trkpt><trkpt lat="46.0758054" lon="9.3043573"><ele>210.60000000000002</ele><time>2026-04-07T10:19:17.701Z</time></trkpt><trkpt lat="46.0757032" lon="9.3043425"><ele>210.2</ele><time>2026-04-07T10:19:19.701Z</time></trkpt><trkpt lat="46.0755901" lon="9.3043557"><ele>209.8</ele><time>2026-04-07T10:19:21.7Z</time></trkpt><trkpt lat="46.0754834" lon="9.3043685"><ele>209.39999999999998</ele><time>2026-04-07T10:19:23.701Z</time></trkpt><trkpt lat="46.0753711" lon="9.3043774"><ele>209.0</ele><time>2026-04-07T10:19:25.701Z</time></trkpt><trkpt lat="46.0752713" lon="9.3043906"><ele>209.0</ele><time>2026-04-07T10:19:27.701Z</time></trkpt><trkpt lat="46.0751668" lon="9.3044133"><ele>209.0</ele><time>2026-04-07T10:19:29.7Z</time></trkpt><trkpt lat="46.0750804" lon="9.304447"><ele>209.0</ele><time>2026-04-07T10:19:31.702Z</time></trkpt><trkpt lat="46.0749801" lon="9.3044714"><ele>209.0</ele><time>2026-04-07T10:19:33.701Z</time></trkpt><trkpt lat="46.0748792" lon="9.3045058"><ele>209.0</ele><time>2026-04-07T10:19:35.702Z</time></trkpt><trkpt lat="46.0747737" lon="9.3045589"><ele>208.79999999999998</ele><time>2026-04-07T10:19:37.701Z</time></trkpt><trkpt lat="46.0746719" lon="9.304604"><ele>208.6</ele><time>2026-04-07T10:19:39.701Z</time></trkpt><trkpt lat="46.0745688" lon="9.304654"><ele>208.4</ele><time>2026-04-07T10:19:41.701Z</time></trkpt><trkpt lat="46.0744585" lon="9.3047022"><ele>208.2</ele><time>2026-04-07T10:19:43.699Z</time></trkpt><trkpt lat="46.0743663" lon="9.3047577"><ele>208.0</ele><time>2026-04-07T10:19:45.702Z</time></trkpt><trkpt lat="46.0742725" lon="9.3047988"><ele>208.2</ele><time>2026-04-07T10:19:47.7Z</time></trkpt><trkpt lat="46.0741748" lon="9.3047911"><ele>208.4</ele><time>2026-04-07T10:19:49.7Z</time></trkpt><trkpt lat="46.0740795" lon="9.3046746"><ele>208.6</ele><time>2026-04-07T10:19:51.701Z</time></trkpt><trkpt lat="46.0740005" lon="9.3045351"><ele>208.79999999999998</ele><time>2026-04-07T10:19:53.701Z</time></trkpt><trkpt lat="46.073952" lon="9.3044643"><ele>209.0</ele><time>2026-04-07T10:19:54.7Z</time></trkpt><trkpt lat="46.0738561" lon="9.3043434"><ele>209.00000000000003</ele><time>2026-04-07T10:19:56.701Z</time></trkpt><trkpt lat="46.0737945" lon="9.3042266"><ele>209.0</ele><time>2026-04-07T10:19:58.702Z</time></trkpt><trkpt lat="46.0737379" lon="9.3041591"><ele>209.0</ele><time>2026-04-07T10:19:59.701Z</time></trkpt><trkpt lat="46.0736873" lon="9.3040954"><ele>209.0</ele><time>2026-04-07T10:20:00.7Z</time></trkpt><trkpt lat="46.0736408" lon="9.3040241"><ele>209.00000000000003</ele><time>2026-04-07T10:20:01.702Z</time></trkpt><trkpt lat="46.0735887" lon="9.3039315"><ele>209.0</ele><time>2026-04-07T10:20:02.701Z</time></trkpt><trkpt lat="46.0735534" lon="9.3038398"><ele>208.6</ele><time>2026-04-07T10:20:03.701Z</time></trkpt><trkpt lat="46.073523" lon="9.3037553"><ele>208.2</ele><time>2026-04-07T10:20:04.702Z</time></trkpt><trkpt lat="46.073477" lon="9.3035995"><ele>207.79999999999998</ele><time>2026-04-07T10:20:06.701Z</time></trkpt><trkpt lat="46.0734341" lon="9.3034223"><ele>207.39999999999998</ele><time>2026-04-07T10:20:08.7Z</time></trkpt><trkpt lat="46.0733665" lon="9.3032813"><ele>207.0</ele><time>2026-04-07T10:20:10.701Z</time></trkpt><trkpt lat="46.0732924" lon="9.3031265"><ele>207.0</ele><time>2026-04-07T10:20:12.7Z</time></trkpt><trkpt lat="46.0732541" lon="9.3030524"><ele>207.0</ele><time>2026-04-07T10:20:13.701Z</time></trkpt><trkpt lat="46.0731811" lon="9.3029239"><ele>207.0</ele><time>2026-04-07T10:20:15.701Z</time></trkpt><trkpt lat="46.0730689" lon="9.3028777"><ele>207.0</ele><time>2026-04-07T10:20:17.702Z</time></trkpt><trkpt lat="46.0729627" lon="9.3029637"><ele>207.0</ele><time>2026-04-07T10:20:19.701Z</time></trkpt><trkpt lat="46.0729284" lon="9.3030899"><ele>207.0</ele><time>2026-04-07T10:20:21.702Z</time></trkpt><trkpt lat="46.072911" lon="9.3032355"><ele>207.0</ele><time>2026-04-07T10:20:23.7Z</time></trkpt><trkpt lat="46.0728963" lon="9.3033721"><ele>207.0</ele><time>2026-04-07T10:20:25.7Z</time></trkpt><trkpt lat="46.0728827" lon="9.3035061"><ele>207.0</ele><time>2026-04-07T10:20:27.701Z</time></trkpt><trkpt lat="46.0728641" lon="9.3036232"><ele>207.0</ele><time>2026-04-07T10:20:29.701Z</time></trkpt><trkpt lat="46.0728289" lon="9.3037648"><ele>207.0</ele><time>2026-04-07T10:20:31.703Z</time></trkpt><trkpt lat="46.0728886" lon="9.3038594"><ele>207.0</ele><time>2026-04-07T10:20:34.7Z</time></trkpt><trkpt lat="46.0729355" lon="9.3039419"><ele>207.0</ele><time>2026-04-07T10:20:38.701Z</time></trkpt><trkpt lat="46.0729491" lon="9.3040517"><ele>207.0</ele><time>2026-04-07T10:20:56.7Z</time></trkpt><trkpt lat="46.0729588" lon="9.3041756"><ele>207.0</ele><time>2026-04-07T10:20:58.7Z</time></trkpt><trkpt lat="46.0729686" lon="9.3042654"><ele>207.0</ele><time>2026-04-07T10:21:00.7Z</time></trkpt><trkpt lat="46.0729121" lon="9.3042059"><ele>207.0</ele><time>2026-04-07T10:21:13.701Z</time></trkpt><trkpt lat="46.0729121" lon="9.3042059"><ele>207.0</ele><time>2026-04-07T10:21:13.701Z</time></trkpt></trkseg></trk></gpx>